<?xml version='1.0' encoding='UTF-8'?><gpx version="1.1" creator="JPX - https://github.com/jenetics/jpx" xmlns="http://www.topografix.com/GPX/1/1"><trk><trkseg><trkpt lat="31.91402943277471" lon="-4.46843907573093"><ele>1048.0</ele><time>2026-04-30T08:16:07Z</time></trkpt><trkpt lat="31.91399113588311" lon="-4.468560283874486"><ele>1048.0</ele><time>2026-04-30T08:16:08Z</time></trkpt><trkpt lat="31.913961224855274" lon="-4.468679023239732"><ele>1048.0</ele><time>2026-04-30T08:16:09Z</time></trkpt><trkpt lat="31.913930590901355" lon="-4.468796269734559"><ele>1048.0</ele><time>2026-04-30T08:16:10Z</time></trkpt><trkpt lat="31.913896192654846" lon="-4.468916732173994"><ele>1048.0</ele><time>2026-04-30T08:16:11Z</time></trkpt><trkpt lat="31.913857796855588" lon="-4.469042968941307"><ele>1048.25</ele><time>2026-04-30T08:16:12Z</time></trkpt><trkpt lat="31.913813589946763" lon="-4.4691764301986545"><ele>1048.5</ele><time>2026-04-30T08:16:13Z</time></trkpt><trkpt lat="31.91376739445003" lon="-4.469321537415579"><ele>1048.75</ele><time>2026-04-30T08:16:14Z</time></trkpt><trkpt lat="31.913718937408067" lon="-4.469474434842768"><ele>1049.0</ele><time>2026-04-30T08:16:15Z</time></trkpt><trkpt lat="31.913669275479588" lon="-4.46963322008613"><ele>1049.25</ele><time>2026-04-30T08:16:16Z</time></trkpt><trkpt lat="31.91362217880587" lon="-4.469796650884845"><ele>1049.5</ele><time>2026-04-30T08:16:17Z</time></trkpt><trkpt lat="31.913572943992722" lon="-4.469958964314995"><ele>1049.75</ele><time>2026-04-30T08:16:18Z</time></trkpt><trkpt lat="31.913523926971937" lon="-4.470124300403567"><ele>1050.0</ele><time>2026-04-30T08:16:19Z</time></trkpt><trkpt lat="31.913470035631047" lon="-4.470289436400043"><ele>1049.75</ele><time>2026-04-30T08:16:20Z</time></trkpt><trkpt lat="31.913419664455397" lon="-4.470453951178948"><ele>1049.5</ele><time>2026-04-30T08:16:21Z</time></trkpt><trkpt lat="31.913367221317344" lon="-4.470619451941337"><ele>1049.25</ele><time>2026-04-30T08:16:22Z</time></trkpt><trkpt lat="31.913318341451248" lon="-4.4707847810277395"><ele>1049.0</ele><time>2026-04-30T08:16:23Z</time></trkpt><trkpt lat="31.9132709129095" lon="-4.470952786612412"><ele>1049.0</ele><time>2026-04-30T08:16:24Z</time></trkpt><trkpt lat="31.91321964558075" lon="-4.471121867529457"><ele>1049.0</ele><time>2026-04-30T08:16:25Z</time></trkpt><trkpt lat="31.913166778185673" lon="-4.47129416135353"><ele>1049.0</ele><time>2026-04-30T08:16:26Z</time></trkpt><trkpt lat="31.913116103920245" lon="-4.471469635499259"><ele>1050.0</ele><time>2026-04-30T08:16:27Z</time></trkpt><trkpt lat="31.913061658817945" lon="-4.471646051532661"><ele>1051.0</ele><time>2026-04-30T08:16:28Z</time></trkpt><trkpt lat="31.91300749320343" lon="-4.4718226628642785"><ele>1052.0</ele><time>2026-04-30T08:16:29Z</time></trkpt><trkpt lat="31.912950917806455" lon="-4.472001665726364"><ele>1051.6666666666667</ele><time>2026-04-30T08:16:30Z</time></trkpt><trkpt lat="31.912893932442334" lon="-4.472181386140398"><ele>1051.3333333333333</ele><time>2026-04-30T08:16:31Z</time></trkpt><trkpt lat="31.9128365076233" lon="-4.472363118742843"><ele>1051.0</ele><time>2026-04-30T08:16:32Z</time></trkpt><trkpt lat="31.912780875445208" lon="-4.47254831608828"><ele>1051.0</ele><time>2026-04-30T08:16:33Z</time></trkpt><trkpt lat="31.912725506504145" lon="-4.472731609281102"><ele>1051.0</ele><time>2026-04-30T08:16:34Z</time></trkpt><trkpt lat="31.91266967916524" lon="-4.4729120872741595"><ele>1051.0</ele><time>2026-04-30T08:16:35Z</time></trkpt><trkpt lat="31.91261586428439" lon="-4.47308917098888"><ele>1051.6666666666665</ele><time>2026-04-30T08:16:36Z</time></trkpt><trkpt lat="31.91256260220612" lon="-4.473265430058837"><ele>1052.3333333333333</ele><time>2026-04-30T08:16:37Z</time></trkpt><trkpt lat="31.912508200454987" lon="-4.473438175054138"><ele>1053.0</ele><time>2026-04-30T08:16:38Z</time></trkpt><trkpt lat="31.912452668122857" lon="-4.473610239400627"><ele>1054.0</ele><time>2026-04-30T08:16:39Z</time></trkpt><trkpt lat="31.912397442225036" lon="-4.4737824261448"><ele>1055.0</ele><time>2026-04-30T08:16:40Z</time></trkpt><trkpt lat="31.91234752289586" lon="-4.473955260417426"><ele>1056.0</ele><time>2026-04-30T08:16:41Z</time></trkpt><trkpt lat="31.912294668204378" lon="-4.474128095917579"><ele>1056.0</ele><time>2026-04-30T08:16:42Z</time></trkpt><trkpt lat="31.912240320923186" lon="-4.474300156733948"><ele>1056.0</ele><time>2026-04-30T08:16:43Z</time></trkpt><trkpt lat="31.912188198331705" lon="-4.474469810192084"><ele>1056.0</ele><time>2026-04-30T08:16:44Z</time></trkpt><trkpt lat="31.912145410852528" lon="-4.474628374266128"><ele>1056.25</ele><time>2026-04-30T08:16:45Z</time></trkpt><trkpt lat="31.91210108149654" lon="-4.474774741233992"><ele>1056.5</ele><time>2026-04-30T08:16:46Z</time></trkpt><trkpt lat="31.91205771782034" lon="-4.474911597573784"><ele>1056.75</ele><time>2026-04-30T08:16:46.999Z</time></trkpt><trkpt lat="31.91201873991048" lon="-4.475044315600515"><ele>1057.0</ele><time>2026-04-30T08:16:47.999Z</time></trkpt><trkpt lat="31.911996835895714" lon="-4.475165993496791"><ele>1057.0</ele><time>2026-04-30T08:16:48.999Z</time></trkpt><trkpt lat="31.91198876206399" lon="-4.475285576501411"><ele>1057.0</ele><time>2026-04-30T08:16:49.999Z</time></trkpt><trkpt lat="31.911963872050517" lon="-4.475392822747534"><ele>1057.0</ele><time>2026-04-30T08:16:50.999Z</time></trkpt><trkpt lat="31.91194569964604" lon="-4.47551970067345"><ele>1057.0</ele><time>2026-04-30T08:16:51.999Z</time></trkpt><trkpt lat="31.911874140291395" lon="-4.475646391606181"><ele>1057.0</ele><time>2026-04-30T08:16:52.999Z</time></trkpt><trkpt lat="31.911800726826087" lon="-4.475790978539101"><ele>1057.0</ele><time>2026-04-30T08:16:53.999Z</time></trkpt><trkpt lat="31.91173706293825" lon="-4.475957103150076"><ele>1057.0</ele><time>2026-04-30T08:16:54.999Z</time></trkpt><trkpt lat="31.911685042626946" lon="-4.476127017812762"><ele>1057.0</ele><time>2026-04-30T08:16:55.999Z</time></trkpt><trkpt lat="31.911631583516893" lon="-4.4763081316272055"><ele>1056.3333333333333</ele><time>2026-04-30T08:16:56.999Z</time></trkpt><trkpt lat="31.91157366627071" lon="-4.476497371800454"><ele>1055.6666666666667</ele><time>2026-04-30T08:16:57.999Z</time></trkpt><trkpt lat="31.91151170783066" lon="-4.476692818377615"><ele>1055.0</ele><time>2026-04-30T08:16:58.999Z</time></trkpt><trkpt lat="31.91145179106149" lon="-4.47688573970674"><ele>1055.0</ele><time>2026-04-30T08:16:59.999Z</time></trkpt><trkpt lat="31.911392937779393" lon="-4.477073748010536"><ele>1055.0</ele><time>2026-04-30T08:17:00.999Z</time></trkpt><trkpt lat="31.911334946347246" lon="-4.477263711266565"><ele>1055.0</ele><time>2026-04-30T08:17:01.999Z</time></trkpt><trkpt lat="31.911276724993677" lon="-4.47746073963984"><ele>1055.0</ele><time>2026-04-30T08:17:02.999Z</time></trkpt><trkpt lat="31.911215273504848" lon="-4.477661469187483"><ele>1055.0</ele><time>2026-04-30T08:17:03.999Z</time></trkpt><trkpt lat="31.911150540488578" lon="-4.47785949840389"><ele>1055.0</ele><time>2026-04-30T08:17:04.999Z</time></trkpt><trkpt lat="31.911084956511527" lon="-4.4780620072132455"><ele>1055.3333333333335</ele><time>2026-04-30T08:17:05.999Z</time></trkpt><trkpt lat="31.911019847392577" lon="-4.478265130048126"><ele>1055.6666666666667</ele><time>2026-04-30T08:17:06.999Z</time></trkpt><trkpt lat="31.910959525565243" lon="-4.478473921472774"><ele>1056.0</ele><time>2026-04-30T08:17:07.999Z</time></trkpt><trkpt lat="31.910903797207535" lon="-4.4786859585148475"><ele>1056.6666666666667</ele><time>2026-04-30T08:17:08.999Z</time></trkpt><trkpt lat="31.910847387432153" lon="-4.4788973310222815"><ele>1057.3333333333335</ele><time>2026-04-30T08:17:09.999Z</time></trkpt><trkpt lat="31.910789592532996" lon="-4.479110400496621"><ele>1058.0</ele><time>2026-04-30T08:17:10.999Z</time></trkpt><trkpt lat="31.91073781426024" lon="-4.479324578014877"><ele>1058.0</ele><time>2026-04-30T08:17:11.999Z</time></trkpt><trkpt lat="31.91069015443829" lon="-4.479539863051721"><ele>1058.0</ele><time>2026-04-30T08:17:12.999Z</time></trkpt><trkpt lat="31.9106454862493" lon="-4.479761993356641"><ele>1058.0</ele><time>2026-04-30T08:17:13.999Z</time></trkpt><trkpt lat="31.910604421057837" lon="-4.479990506257436"><ele>1057.3333333333335</ele><time>2026-04-30T08:17:14.999Z</time></trkpt><trkpt lat="31.91056671356711" lon="-4.480224765818634"><ele>1056.6666666666667</ele><time>2026-04-30T08:17:15.999Z</time></trkpt><trkpt lat="31.91053402753738" lon="-4.480464076307862"><ele>1056.0</ele><time>2026-04-30T08:17:16.999Z</time></trkpt><trkpt lat="31.910505914697247" lon="-4.480708372824096"><ele>1056.0</ele><time>2026-04-30T08:17:17.999Z</time></trkpt><trkpt lat="31.910510768647185" lon="-4.4809558133202945"><ele>1056.0</ele><time>2026-04-30T08:17:18.999Z</time></trkpt><trkpt lat="31.910498861712142" lon="-4.481204275639597"><ele>1056.0</ele><time>2026-04-30T08:17:19.999Z</time></trkpt><trkpt lat="31.91048678008568" lon="-4.48145638321044"><ele>1055.6666666666667</ele><time>2026-04-30T08:17:20.999Z</time></trkpt><trkpt lat="31.910459506122063" lon="-4.48170320016682"><ele>1055.3333333333335</ele><time>2026-04-30T08:17:21.999Z</time></trkpt><trkpt lat="31.910463953818862" lon="-4.48195154047177"><ele>1055.0</ele><time>2026-04-30T08:17:22.999Z</time></trkpt><trkpt lat="31.910469787589825" lon="-4.482201324331935"><ele>1055.0</ele><time>2026-04-30T08:17:23.999Z</time></trkpt><trkpt lat="31.910478031584354" lon="-4.4824472439582115"><ele>1055.0</ele><time>2026-04-30T08:17:24.999Z</time></trkpt><trkpt lat="31.91049205074786" lon="-4.482693412615939"><ele>1055.0</ele><time>2026-04-30T08:17:25.999Z</time></trkpt><trkpt lat="31.910511767888394" lon="-4.482936741549989"><ele>1054.3333333333335</ele><time>2026-04-30T08:17:26.999Z</time></trkpt><trkpt lat="31.910532608077613" lon="-4.48317693576883"><ele>1053.6666666666667</ele><time>2026-04-30T08:17:27.999Z</time></trkpt><trkpt lat="31.91055144762218" lon="-4.483416801895818"><ele>1053.0</ele><time>2026-04-30T08:17:28.999Z</time></trkpt><trkpt lat="31.910573146325707" lon="-4.483656385343698"><ele>1054.3333333333333</ele><time>2026-04-30T08:17:29.999Z</time></trkpt><trkpt lat="31.910595128617064" lon="-4.483895854233391"><ele>1055.6666666666665</ele><time>2026-04-30T08:17:30.999Z</time></trkpt><trkpt lat="31.91061526876932" lon="-4.484137647825786"><ele>1057.0</ele><time>2026-04-30T08:17:31.999Z</time></trkpt><trkpt lat="31.91063533578069" lon="-4.4843782574706"><ele>1056.6666666666665</ele><time>2026-04-30T08:17:32.999Z</time></trkpt><trkpt lat="31.910658124863833" lon="-4.484618984051679"><ele>1056.3333333333333</ele><time>2026-04-30T08:17:33.999Z</time></trkpt><trkpt lat="31.91067977568534" lon="-4.484862903295951"><ele>1056.0</ele><time>2026-04-30T08:17:34.999Z</time></trkpt><trkpt lat="31.91070135172658" lon="-4.485103225469665"><ele>1056.0</ele><time>2026-04-30T08:17:36Z</time></trkpt><trkpt lat="31.910724965590493" lon="-4.485344849312937"><ele>1056.0</ele><time>2026-04-30T08:17:37Z</time></trkpt><trkpt lat="31.910749555143383" lon="-4.485582854888182"><ele>1056.0</ele><time>2026-04-30T08:17:38Z</time></trkpt><trkpt lat="31.910770594877956" lon="-4.485823599784744"><ele>1056.0</ele><time>2026-04-30T08:17:39Z</time></trkpt><trkpt lat="31.91079328367304" lon="-4.486063715021759"><ele>1056.0</ele><time>2026-04-30T08:17:40Z</time></trkpt><trkpt lat="31.910814130944225" lon="-4.486300590750908"><ele>1056.0</ele><time>2026-04-30T08:17:41Z</time></trkpt><trkpt lat="31.910828475686554" lon="-4.486539022464739"><ele>1057.6666666666667</ele><time>2026-04-30T08:17:42Z</time></trkpt><trkpt lat="31.91083021228972" lon="-4.486777590574331"><ele>1059.3333333333335</ele><time>2026-04-30T08:17:43Z</time></trkpt><trkpt lat="31.91082194650172" lon="-4.487015400372846"><ele>1061.0</ele><time>2026-04-30T08:17:44Z</time></trkpt><trkpt lat="31.910804932966563" lon="-4.487251781245732"><ele>1061.0</ele><time>2026-04-30T08:17:45Z</time></trkpt><trkpt lat="31.91078309283429" lon="-4.487488943289201"><ele>1061.0</ele><time>2026-04-30T08:17:46Z</time></trkpt><trkpt lat="31.910750810920614" lon="-4.4877229090206745"><ele>1061.0</ele><time>2026-04-30T08:17:47Z</time></trkpt><trkpt lat="31.91070661572659" lon="-4.487953179752357"><ele>1061.0</ele><time>2026-04-30T08:17:48Z</time></trkpt><trkpt lat="31.910650307079354" lon="-4.488185098794828"><ele>1061.0</ele><time>2026-04-30T08:17:49Z</time></trkpt><trkpt lat="31.910582784125832" lon="-4.4884111331225105"><ele>1061.0</ele><time>2026-04-30T08:17:50Z</time></trkpt><trkpt lat="31.910508830367938" lon="-4.4886350702860005"><ele>1061.0</ele><time>2026-04-30T08:17:51Z</time></trkpt><trkpt lat="31.91043176665193" lon="-4.4888593452339"><ele>1061.0</ele><time>2026-04-30T08:17:52Z</time></trkpt><trkpt lat="31.910354001471998" lon="-4.489081166413108"><ele>1061.0</ele><time>2026-04-30T08:17:53Z</time></trkpt><trkpt lat="31.910276260426357" lon="-4.489303017542146"><ele>1061.0</ele><time>2026-04-30T08:17:54Z</time></trkpt><trkpt lat="31.91019954680669" lon="-4.489524990286584"><ele>1061.0</ele><time>2026-04-30T08:17:55Z</time></trkpt><trkpt lat="31.910120283586497" lon="-4.489748662482508"><ele>1061.0</ele><time>2026-04-30T08:17:56Z</time></trkpt><trkpt lat="31.910039530383397" lon="-4.489972474511098"><ele>1062.0</ele><time>2026-04-30T08:17:57Z</time></trkpt><trkpt lat="31.90995836159889" lon="-4.490197396037429"><ele>1063.0</ele><time>2026-04-30T08:17:58Z</time></trkpt><trkpt lat="31.909875623509695" lon="-4.4904240561003155"><ele>1064.0</ele><time>2026-04-30T08:17:59Z</time></trkpt><trkpt lat="31.90979335309713" lon="-4.4906529320896755"><ele>1064.0</ele><time>2026-04-30T08:18:00Z</time></trkpt><trkpt lat="31.909710084384752" lon="-4.490883583611749"><ele>1064.0</ele><time>2026-04-30T08:18:01Z</time></trkpt><trkpt lat="31.909627818965035" lon="-4.491118874609127"><ele>1064.0</ele><time>2026-04-30T08:18:02Z</time></trkpt><trkpt lat="31.90954202611053" lon="-4.491355425900273"><ele>1062.6666666666667</ele><time>2026-04-30T08:18:03Z</time></trkpt><trkpt lat="31.909457197251733" lon="-4.491594361449431"><ele>1061.3333333333333</ele><time>2026-04-30T08:18:04Z</time></trkpt><trkpt lat="31.90937108187784" lon="-4.491837317632461"><ele>1060.0</ele><time>2026-04-30T08:18:05Z</time></trkpt><trkpt lat="31.909283842369803" lon="-4.492080989067249"><ele>1059.5</ele><time>2026-04-30T08:18:06Z</time></trkpt><trkpt lat="31.909195511466578" lon="-4.492326516816317"><ele>1059.0</ele><time>2026-04-30T08:18:07Z</time></trkpt><trkpt lat="31.909106504678352" lon="-4.492575636736635"><ele>1059.0</ele><time>2026-04-30T08:18:08Z</time></trkpt><trkpt lat="31.90901535494472" lon="-4.492821809918625"><ele>1059.0</ele><time>2026-04-30T08:18:09Z</time></trkpt><trkpt lat="31.90892564168335" lon="-4.493074490563201"><ele>1057.5</ele><time>2026-04-30T08:18:10Z</time></trkpt><trkpt lat="31.908836516899928" lon="-4.4933260769189305"><ele>1056.0</ele><time>2026-04-30T08:18:11Z</time></trkpt><trkpt lat="31.9087485006888" lon="-4.4935802559853135"><ele>1054.5</ele><time>2026-04-30T08:18:12Z</time></trkpt><trkpt lat="31.908660500092868" lon="-4.493834881364661"><ele>1053.0</ele><time>2026-04-30T08:18:13Z</time></trkpt><trkpt lat="31.90857490205882" lon="-4.494087883682518"><ele>1053.0</ele><time>2026-04-30T08:18:14Z</time></trkpt><trkpt lat="31.908488571738904" lon="-4.49433877091015"><ele>1053.0</ele><time>2026-04-30T08:18:15Z</time></trkpt><trkpt lat="31.908400670276514" lon="-4.494585329022001"><ele>1054.6666666666667</ele><time>2026-04-30T08:18:16Z</time></trkpt><trkpt lat="31.90831268683767" lon="-4.494828560618108"><ele>1056.3333333333335</ele><time>2026-04-30T08:18:17Z</time></trkpt><trkpt lat="31.908224559886353" lon="-4.495069280819304"><ele>1058.0</ele><time>2026-04-30T08:18:18Z</time></trkpt><trkpt lat="31.908137018686272" lon="-4.495309810114116"><ele>1057.6666666666667</ele><time>2026-04-30T08:18:19Z</time></trkpt><trkpt lat="31.908051526351777" lon="-4.495547690732097"><ele>1057.3333333333333</ele><time>2026-04-30T08:18:20Z</time></trkpt><trkpt lat="31.907966278071562" lon="-4.495782598228643"><ele>1057.0</ele><time>2026-04-30T08:18:21Z</time></trkpt><trkpt lat="31.907883221293993" lon="-4.49601990424638"><ele>1056.6666666666665</ele><time>2026-04-30T08:18:22Z</time></trkpt><trkpt lat="31.907800371669367" lon="-4.496256249486949"><ele>1056.3333333333333</ele><time>2026-04-30T08:18:23Z</time></trkpt><trkpt lat="31.907717732047196" lon="-4.496492840989826"><ele>1056.0</ele><time>2026-04-30T08:18:24Z</time></trkpt><trkpt lat="31.907633069666563" lon="-4.496727773603446"><ele>1056.0</ele><time>2026-04-30T08:18:25Z</time></trkpt><trkpt lat="31.90754958559745" lon="-4.496961233805969"><ele>1056.0</ele><time>2026-04-30T08:18:26Z</time></trkpt><trkpt lat="31.907466126871096" lon="-4.497193692958126"><ele>1056.0</ele><time>2026-04-30T08:18:27Z</time></trkpt><trkpt lat="31.90738178340664" lon="-4.497426504197927"><ele>1056.6666666666667</ele><time>2026-04-30T08:18:28Z</time></trkpt><trkpt lat="31.907297141727348" lon="-4.4976585903835"><ele>1057.3333333333335</ele><time>2026-04-30T08:18:29Z</time></trkpt><trkpt lat="31.907214645894648" lon="-4.497890659766175"><ele>1058.0</ele><time>2026-04-30T08:18:30Z</time></trkpt><trkpt lat="31.907134064285426" lon="-4.498125263511039"><ele>1059.0</ele><time>2026-04-30T08:18:31Z</time></trkpt><trkpt lat="31.90705232281864" lon="-4.498360451632789"><ele>1060.0</ele><time>2026-04-30T08:18:32Z</time></trkpt><trkpt lat="31.906969827724268" lon="-4.498594569581541"><ele>1061.0</ele><time>2026-04-30T08:18:33Z</time></trkpt><trkpt lat="31.9068877304601" lon="-4.498827028142403"><ele>1061.0</ele><time>2026-04-30T08:18:34Z</time></trkpt><trkpt lat="31.906806091900528" lon="-4.499060413579023"><ele>1061.0</ele><time>2026-04-30T08:18:35Z</time></trkpt><trkpt lat="31.906723634095833" lon="-4.499295152814496"><ele>1061.0</ele><time>2026-04-30T08:18:36Z</time></trkpt><trkpt lat="31.906639372439447" lon="-4.499529741893814"><ele>1059.6666666666667</ele><time>2026-04-30T08:18:37Z</time></trkpt><trkpt lat="31.906554396118736" lon="-4.499762047995166"><ele>1058.3333333333333</ele><time>2026-04-30T08:18:38Z</time></trkpt><trkpt lat="31.906470554309703" lon="-4.4999937505251095"><ele>1057.0</ele><time>2026-04-30T08:18:39Z</time></trkpt><trkpt lat="31.906390041132372" lon="-4.500223394488656"><ele>1057.3333333333333</ele><time>2026-04-30T08:18:40Z</time></trkpt><trkpt lat="31.906309433479095" lon="-4.500454420623491"><ele>1057.6666666666667</ele><time>2026-04-30T08:18:41Z</time></trkpt><trkpt lat="31.906227597375473" lon="-4.500684904677745"><ele>1058.0</ele><time>2026-04-30T08:18:42Z</time></trkpt><trkpt lat="31.906146045256524" lon="-4.500913965944172"><ele>1058.0</ele><time>2026-04-30T08:18:43Z</time></trkpt><trkpt lat="31.90606476569353" lon="-4.501144697183788"><ele>1058.0</ele><time>2026-04-30T08:18:44Z</time></trkpt><trkpt lat="31.90598341142751" lon="-4.501376946290651"><ele>1058.0</ele><time>2026-04-30T08:18:45Z</time></trkpt><trkpt lat="31.905898621986694" lon="-4.501610731091118"><ele>1057.3333333333335</ele><time>2026-04-30T08:18:46Z</time></trkpt><trkpt lat="31.9058124868176" lon="-4.501844957067582"><ele>1056.6666666666667</ele><time>2026-04-30T08:18:47Z</time></trkpt><trkpt lat="31.90572874662354" lon="-4.502080370196293"><ele>1056.0</ele><time>2026-04-30T08:18:48Z</time></trkpt><trkpt lat="31.905642853669317" lon="-4.5023150035271415"><ele>1056.0</ele><time>2026-04-30T08:18:49Z</time></trkpt><trkpt lat="31.90555885873611" lon="-4.50254850994235"><ele>1056.0</ele><time>2026-04-30T08:18:49.999Z</time></trkpt><trkpt lat="31.905476886838468" lon="-4.502784203929044"><ele>1056.0</ele><time>2026-04-30T08:18:50.999Z</time></trkpt><trkpt lat="31.905396760792847" lon="-4.50301646519964"><ele>1056.6666666666667</ele><time>2026-04-30T08:18:51.999Z</time></trkpt><trkpt lat="31.905314449436524" lon="-4.503247915909072"><ele>1057.3333333333335</ele><time>2026-04-30T08:18:52.999Z</time></trkpt><trkpt lat="31.905231672852874" lon="-4.503480054922631"><ele>1058.0</ele><time>2026-04-30T08:18:53.999Z</time></trkpt><trkpt lat="31.90514968054349" lon="-4.503712603143753"><ele>1058.0</ele><time>2026-04-30T08:18:54.999Z</time></trkpt><trkpt lat="31.905066498575202" lon="-4.503945984377615"><ele>1058.0</ele><time>2026-04-30T08:18:55.999Z</time></trkpt><trkpt lat="31.904982529769732" lon="-4.504180896146397"><ele>1058.0</ele><time>2026-04-30T08:18:56.999Z</time></trkpt><trkpt lat="31.90489839396439" lon="-4.504418144420884"><ele>1059.0</ele><time>2026-04-30T08:18:57.999Z</time></trkpt><trkpt lat="31.904813973256367" lon="-4.504656348214117"><ele>1060.0</ele><time>2026-04-30T08:18:58.999Z</time></trkpt><trkpt lat="31.90472861886123" lon="-4.504893567800955"><ele>1061.0</ele><time>2026-04-30T08:18:59.999Z</time></trkpt><trkpt lat="31.90464350774037" lon="-4.505133195399275"><ele>1061.0</ele><time>2026-04-30T08:19:00.999Z</time></trkpt><trkpt lat="31.904557208097035" lon="-4.505371387303621"><ele>1061.0</ele><time>2026-04-30T08:19:01.999Z</time></trkpt><trkpt lat="31.904469656104457" lon="-4.505607693855296"><ele>1061.0</ele><time>2026-04-30T08:19:02.999Z</time></trkpt><trkpt lat="31.904371402290824" lon="-4.5058373383438575"><ele>1060.3333333333335</ele><time>2026-04-30T08:19:03.999Z</time></trkpt><trkpt lat="31.904267385085465" lon="-4.506062523639975"><ele>1059.6666666666667</ele><time>2026-04-30T08:19:04.999Z</time></trkpt><trkpt lat="31.90422182296449" lon="-4.506324410684563"><ele>1059.0</ele><time>2026-04-30T08:19:05.999Z</time></trkpt><trkpt lat="31.904138356841266" lon="-4.506566450452139"><ele>1058.3333333333333</ele><time>2026-04-30T08:19:06.999Z</time></trkpt><trkpt lat="31.904051563286252" lon="-4.506802907600281"><ele>1057.6666666666665</ele><time>2026-04-30T08:19:07.999Z</time></trkpt><trkpt lat="31.90395848353036" lon="-4.507035779310779"><ele>1057.0</ele><time>2026-04-30T08:19:08.999Z</time></trkpt><trkpt lat="31.90385890573905" lon="-4.507265138300661"><ele>1057.3333333333333</ele><time>2026-04-30T08:19:09.999Z</time></trkpt><trkpt lat="31.90375132938861" lon="-4.507492874888895"><ele>1057.6666666666667</ele><time>2026-04-30T08:19:10.999Z</time></trkpt><trkpt lat="31.90363107359742" lon="-4.5077108719718835"><ele>1058.0</ele><time>2026-04-30T08:19:11.999Z</time></trkpt><trkpt lat="31.903502240039074" lon="-4.5079243363679575"><ele>1058.0</ele><time>2026-04-30T08:19:12.999Z</time></trkpt><trkpt lat="31.9033703591239" lon="-4.508135968346028"><ele>1058.0</ele><time>2026-04-30T08:19:13.999Z</time></trkpt><trkpt lat="31.903231146357978" lon="-4.5083409565364265"><ele>1058.0</ele><time>2026-04-30T08:19:14.999Z</time></trkpt><trkpt lat="31.90308543359557" lon="-4.508538723881386"><ele>1058.0</ele><time>2026-04-30T08:19:15.999Z</time></trkpt><trkpt lat="31.902936462311448" lon="-4.508733984703651"><ele>1058.0</ele><time>2026-04-30T08:19:16.999Z</time></trkpt><trkpt lat="31.902790133780734" lon="-4.508932080744677"><ele>1058.0</ele><time>2026-04-30T08:19:17.999Z</time></trkpt><trkpt lat="31.90264158178288" lon="-4.509127412341738"><ele>1059.0</ele><time>2026-04-30T08:19:18.999Z</time></trkpt><trkpt lat="31.90249696685125" lon="-4.509323962355193"><ele>1060.0</ele><time>2026-04-30T08:19:19.999Z</time></trkpt><trkpt lat="31.90235253645101" lon="-4.509519087999037"><ele>1061.0</ele><time>2026-04-30T08:19:20.999Z</time></trkpt><trkpt lat="31.90220923774191" lon="-4.509712084361012"><ele>1061.6666666666667</ele><time>2026-04-30T08:19:21.999Z</time></trkpt><trkpt lat="31.90206570631797" lon="-4.509911476783301"><ele>1062.3333333333333</ele><time>2026-04-30T08:19:22.999Z</time></trkpt><trkpt lat="31.901922222942098" lon="-4.510110502099085"><ele>1063.0</ele><time>2026-04-30T08:19:23.999Z</time></trkpt><trkpt lat="31.901776813802858" lon="-4.510307430978908"><ele>1062.0</ele><time>2026-04-30T08:19:24.999Z</time></trkpt><trkpt lat="31.901644035749076" lon="-4.510515979781154"><ele>1061.0</ele><time>2026-04-30T08:19:25.999Z</time></trkpt><trkpt lat="31.90150089692837" lon="-4.510714595179532"><ele>1060.0</ele><time>2026-04-30T08:19:26.999Z</time></trkpt><trkpt lat="31.901357064900008" lon="-4.510914172449321"><ele>1060.0</ele><time>2026-04-30T08:19:27.999Z</time></trkpt><trkpt lat="31.90121223114147" lon="-4.511115475022014"><ele>1060.0</ele><time>2026-04-30T08:19:28.999Z</time></trkpt><trkpt lat="31.901049107932742" lon="-4.511301526724321"><ele>1061.0</ele><time>2026-04-30T08:19:29.999Z</time></trkpt><trkpt lat="31.900902269265668" lon="-4.511503405893929"><ele>1062.0</ele><time>2026-04-30T08:19:30.999Z</time></trkpt><trkpt lat="31.900754639944477" lon="-4.511704374576452"><ele>1062.0</ele><time>2026-04-30T08:19:31.999Z</time></trkpt><trkpt lat="31.900606327697453" lon="-4.511905386912072"><ele>1062.0</ele><time>2026-04-30T08:19:32.999Z</time></trkpt><trkpt lat="31.900457650876692" lon="-4.512105377922558"><ele>1060.0</ele><time>2026-04-30T08:19:33.999Z</time></trkpt><trkpt lat="31.900311144754355" lon="-4.512306316282656"><ele>1058.0</ele><time>2026-04-30T08:19:34.999Z</time></trkpt><trkpt lat="31.900165205265925" lon="-4.5125083760775695"><ele>1058.0</ele><time>2026-04-30T08:19:35.999Z</time></trkpt><trkpt lat="31.900016836531186" lon="-4.512712003776743"><ele>1058.0</ele><time>2026-04-30T08:19:36.999Z</time></trkpt><trkpt lat="31.89986936868917" lon="-4.512914854826392"><ele>1058.0</ele><time>2026-04-30T08:19:37.999Z</time></trkpt><trkpt lat="31.89972098087834" lon="-4.5131203676649045"><ele>1058.0</ele><time>2026-04-30T08:19:38.999Z</time></trkpt><trkpt lat="31.89957454779182" lon="-4.513326531109842"><ele>1058.0</ele><time>2026-04-30T08:19:39.999Z</time></trkpt><trkpt lat="31.89942457793601" lon="-4.5135304139280885"><ele>1058.0</ele><time>2026-04-30T08:19:40.999Z</time></trkpt><trkpt lat="31.899272612876796" lon="-4.513731936991465"><ele>1059.0</ele><time>2026-04-30T08:19:42Z</time></trkpt><trkpt lat="31.899122597764105" lon="-4.5139330752408044"><ele>1060.0</ele><time>2026-04-30T08:19:43Z</time></trkpt><trkpt lat="31.898973173615822" lon="-4.514135404025385"><ele>1060.0</ele><time>2026-04-30T08:19:44Z</time></trkpt><trkpt lat="31.89882646311275" lon="-4.514338838166333"><ele>1060.0</ele><time>2026-04-30T08:19:45Z</time></trkpt><trkpt lat="31.898681077645342" lon="-4.514542958131926"><ele>1060.0</ele><time>2026-04-30T08:19:46Z</time></trkpt><trkpt lat="31.89853450774575" lon="-4.514747235888689"><ele>1060.0</ele><time>2026-04-30T08:19:47Z</time></trkpt><trkpt lat="31.898386002670552" lon="-4.514951116235272"><ele>1061.0</ele><time>2026-04-30T08:19:48Z</time></trkpt><trkpt lat="31.898238829115186" lon="-4.515154886728547"><ele>1062.0</ele><time>2026-04-30T08:19:49Z</time></trkpt><trkpt lat="31.898094859446402" lon="-4.5153587370501445"><ele>1063.0</ele><time>2026-04-30T08:19:50Z</time></trkpt><trkpt lat="31.897954391330188" lon="-4.515555166100912"><ele>1064.0</ele><time>2026-04-30T08:19:51Z</time></trkpt><trkpt lat="31.89781533972472" lon="-4.515746697511127"><ele>1065.0</ele><time>2026-04-30T08:19:52Z</time></trkpt><trkpt lat="31.897677430334397" lon="-4.515933193798474"><ele>1065.3333333333333</ele><time>2026-04-30T08:19:53Z</time></trkpt><trkpt lat="31.897544376934047" lon="-4.51611142895018"><ele>1065.6666666666665</ele><time>2026-04-30T08:19:54Z</time></trkpt><trkpt lat="31.897419594999644" lon="-4.51627877557423"><ele>1066.0</ele><time>2026-04-30T08:19:55Z</time></trkpt><trkpt lat="31.89730158705664" lon="-4.516441206288773"><ele>1066.3333333333333</ele><time>2026-04-30T08:19:56Z</time></trkpt><trkpt lat="31.89718121148401" lon="-4.516604237876327"><ele>1066.6666666666667</ele><time>2026-04-30T08:19:57Z</time></trkpt><trkpt lat="31.897059251792957" lon="-4.516772623973704"><ele>1067.0</ele><time>2026-04-30T08:19:58Z</time></trkpt><trkpt lat="31.896930388820117" lon="-4.516946623303286"><ele>1067.0</ele><time>2026-04-30T08:19:59Z</time></trkpt><trkpt lat="31.89679765922027" lon="-4.517128137357135"><ele>1067.0</ele><time>2026-04-30T08:20:00Z</time></trkpt><trkpt lat="31.896661119305016" lon="-4.517314988341668"><ele>1067.0</ele><time>2026-04-30T08:20:01Z</time></trkpt><trkpt lat="31.896520040585074" lon="-4.517509024099617"><ele>1067.5</ele><time>2026-04-30T08:20:02Z</time></trkpt><trkpt lat="31.896375256578335" lon="-4.517709474524183"><ele>1068.0</ele><time>2026-04-30T08:20:03Z</time></trkpt><trkpt lat="31.896225975889152" lon="-4.517911614680548"><ele>1067.5</ele><time>2026-04-30T08:20:04Z</time></trkpt><trkpt lat="31.896073512442694" lon="-4.518116708208583"><ele>1067.0</ele><time>2026-04-30T08:20:05Z</time></trkpt><trkpt lat="31.89591913768569" lon="-4.51832910125943"><ele>1067.0</ele><time>2026-04-30T08:20:06Z</time></trkpt><trkpt lat="31.89576661891002" lon="-4.518537558096265"><ele>1067.0</ele><time>2026-04-30T08:20:07Z</time></trkpt><trkpt lat="31.895615291495982" lon="-4.518744326433684"><ele>1066.0</ele><time>2026-04-30T08:20:08Z</time></trkpt><trkpt lat="31.895463990358202" lon="-4.518954067673799"><ele>1065.0</ele><time>2026-04-30T08:20:09Z</time></trkpt><trkpt lat="31.89531016234937" lon="-4.51915761451661"><ele>1065.0</ele><time>2026-04-30T08:20:10Z</time></trkpt><trkpt lat="31.89516034753541" lon="-4.519365182140472"><ele>1065.0</ele><time>2026-04-30T08:20:11Z</time></trkpt><trkpt lat="31.895011087055465" lon="-4.519575113714703"><ele>1066.5</ele><time>2026-04-30T08:20:12Z</time></trkpt><trkpt lat="31.894857710456893" lon="-4.519780498675429"><ele>1068.0</ele><time>2026-04-30T08:20:13Z</time></trkpt><trkpt lat="31.89470544175781" lon="-4.519983547075484"><ele>1068.0</ele><time>2026-04-30T08:20:14Z</time></trkpt><trkpt lat="31.894553246662774" lon="-4.520189058258715"><ele>1068.0</ele><time>2026-04-30T08:20:15Z</time></trkpt><trkpt lat="31.894401680645245" lon="-4.5203949213115235"><ele>1068.5</ele><time>2026-04-30T08:20:16Z</time></trkpt><trkpt lat="31.89425144632012" lon="-4.520598727292192"><ele>1069.0</ele><time>2026-04-30T08:20:17Z</time></trkpt><trkpt lat="31.894113321586097" lon="-4.520817603960612"><ele>1069.0</ele><time>2026-04-30T08:20:18Z</time></trkpt><trkpt lat="31.89396044238128" lon="-4.52102450284545"><ele>1069.0</ele><time>2026-04-30T08:20:19Z</time></trkpt><trkpt lat="31.893793944109" lon="-4.521220787705764"><ele>1069.5</ele><time>2026-04-30T08:20:20Z</time></trkpt><trkpt lat="31.8936410346944" lon="-4.52143430445652"><ele>1070.0</ele><time>2026-04-30T08:20:21Z</time></trkpt><trkpt lat="31.893486000908464" lon="-4.521649594100932"><ele>1069.5</ele><time>2026-04-30T08:20:22Z</time></trkpt><trkpt lat="31.893331203198812" lon="-4.521864687983319"><ele>1069.0</ele><time>2026-04-30T08:20:23Z</time></trkpt><trkpt lat="31.893175452249253" lon="-4.522080210593913"><ele>1069.0</ele><time>2026-04-30T08:20:24Z</time></trkpt><trkpt lat="31.893019390421678" lon="-4.522292872960223"><ele>1069.0</ele><time>2026-04-30T08:20:25Z</time></trkpt><trkpt lat="31.89286346062154" lon="-4.522503544979111"><ele>1069.0</ele><time>2026-04-30T08:20:26Z</time></trkpt><trkpt lat="31.892708709247888" lon="-4.522713950721045"><ele>1069.0</ele><time>2026-04-30T08:20:27Z</time></trkpt><trkpt lat="31.892553314866976" lon="-4.522919409501776"><ele>1068.5</ele><time>2026-04-30T08:20:28Z</time></trkpt><trkpt lat="31.892395761180538" lon="-4.523118754001794"><ele>1068.0</ele><time>2026-04-30T08:20:29Z</time></trkpt><trkpt lat="31.892233164892907" lon="-4.523308644771041"><ele>1068.0</ele><time>2026-04-30T08:20:30Z</time></trkpt><trkpt lat="31.892060948391265" lon="-4.523493448984134"><ele>1068.0</ele><time>2026-04-30T08:20:31Z</time></trkpt><trkpt lat="31.891885818691435" lon="-4.523668497697824"><ele>1067.0</ele><time>2026-04-30T08:20:32Z</time></trkpt><trkpt lat="31.891704366684703" lon="-4.523835333887485"><ele>1066.0</ele><time>2026-04-30T08:20:33Z</time></trkpt><trkpt lat="31.89151932676465" lon="-4.523992269728085"><ele>1066.0</ele><time>2026-04-30T08:20:34Z</time></trkpt><trkpt lat="31.891329920528975" lon="-4.5241415818137956"><ele>1066.0</ele><time>2026-04-30T08:20:35Z</time></trkpt><trkpt lat="31.891136040080728" lon="-4.524283784978999"><ele>1066.0</ele><time>2026-04-30T08:20:36Z</time></trkpt><trkpt lat="31.890953168265874" lon="-4.524442264822186"><ele>1066.0</ele><time>2026-04-30T08:20:37Z</time></trkpt><trkpt lat="31.890743882882553" lon="-4.524558712353856"><ele>1065.5</ele><time>2026-04-30T08:20:38Z</time></trkpt><trkpt lat="31.89054557930517" lon="-4.524692476054101"><ele>1065.0</ele><time>2026-04-30T08:20:39Z</time></trkpt><trkpt lat="31.89034599970874" lon="-4.524825436110228"><ele>1065.0</ele><time>2026-04-30T08:20:40Z</time></trkpt><trkpt lat="31.890143938908395" lon="-4.5249573856994205"><ele>1065.0</ele><time>2026-04-30T08:20:41Z</time></trkpt><trkpt lat="31.889942003899137" lon="-4.525088750960605"><ele>1067.0</ele><time>2026-04-30T08:20:42Z</time></trkpt><trkpt lat="31.88973948794031" lon="-4.525221589952005"><ele>1069.0</ele><time>2026-04-30T08:20:43Z</time></trkpt><trkpt lat="31.889536370156698" lon="-4.525353801258645"><ele>1069.5</ele><time>2026-04-30T08:20:44Z</time></trkpt><trkpt lat="31.889331925998448" lon="-4.525485994150155"><ele>1070.0</ele><time>2026-04-30T08:20:45Z</time></trkpt><trkpt lat="31.889126616023635" lon="-4.52562010089717"><ele>1070.0</ele><time>2026-04-30T08:20:46Z</time></trkpt><trkpt lat="31.888921413068704" lon="-4.525752963165956"><ele>1070.0</ele><time>2026-04-30T08:20:47Z</time></trkpt><trkpt lat="31.888713986655677" lon="-4.52588413673659"><ele>1070.0</ele><time>2026-04-30T08:20:48Z</time></trkpt><trkpt lat="31.88851107923197" lon="-4.526016689584881"><ele>1070.0</ele><time>2026-04-30T08:20:49Z</time></trkpt><trkpt lat="31.88831166333536" lon="-4.526149798983551"><ele>1068.0</ele><time>2026-04-30T08:20:50Z</time></trkpt><trkpt lat="31.888111864704022" lon="-4.526280862810243"><ele>1066.0</ele><time>2026-04-30T08:20:51Z</time></trkpt><trkpt lat="31.887910638379047" lon="-4.526412466169415"><ele>1066.0</ele><time>2026-04-30T08:20:52Z</time></trkpt><trkpt lat="31.88771080618064" lon="-4.5265417058364354"><ele>1066.0</ele><time>2026-04-30T08:20:53Z</time></trkpt><trkpt lat="31.887511290628737" lon="-4.526671144988701"><ele>1065.5</ele><time>2026-04-30T08:20:54Z</time></trkpt><trkpt lat="31.887311902568523" lon="-4.52679926894657"><ele>1065.0</ele><time>2026-04-30T08:20:55Z</time></trkpt><trkpt lat="31.8871137055852" lon="-4.526929930329857"><ele>1065.0</ele><time>2026-04-30T08:20:56Z</time></trkpt><trkpt lat="31.886915657216008" lon="-4.527060452876455"><ele>1065.0</ele><time>2026-04-30T08:20:57Z</time></trkpt><trkpt lat="31.886717690958275" lon="-4.527191203719371"><ele>1065.0</ele><time>2026-04-30T08:20:58Z</time></trkpt><trkpt lat="31.886517229590854" lon="-4.527319265513003"><ele>1065.0</ele><time>2026-04-30T08:20:59Z</time></trkpt><trkpt lat="31.886315760621546" lon="-4.527446077577527"><ele>1065.0</ele><time>2026-04-30T08:21:00Z</time></trkpt><trkpt lat="31.886113850248975" lon="-4.527577347505321"><ele>1065.0</ele><time>2026-04-30T08:21:01Z</time></trkpt><trkpt lat="31.88590994326215" lon="-4.527710280426709"><ele>1066.0</ele><time>2026-04-30T08:21:02Z</time></trkpt><trkpt lat="31.885705907582636" lon="-4.5278450978785765"><ele>1067.0</ele><time>2026-04-30T08:21:02.999Z</time></trkpt><trkpt lat="31.885499919676796" lon="-4.527979192995297"><ele>1067.0</ele><time>2026-04-30T08:21:03.999Z</time></trkpt><trkpt lat="31.88529251015421" lon="-4.5281136216485205"><ele>1067.0</ele><time>2026-04-30T08:21:04.999Z</time></trkpt><trkpt lat="31.885084081388904" lon="-4.528248726781835"><ele>1066.0</ele><time>2026-04-30T08:21:05.999Z</time></trkpt><trkpt lat="31.884872318355747" lon="-4.528387023173694"><ele>1065.0</ele><time>2026-04-30T08:21:06.999Z</time></trkpt><trkpt lat="31.884660734815018" lon="-4.528524069241202"><ele>1065.0</ele><time>2026-04-30T08:21:07.999Z</time></trkpt><trkpt lat="31.884450111003886" lon="-4.5286612700514475"><ele>1065.0</ele><time>2026-04-30T08:21:08.999Z</time></trkpt><trkpt lat="31.88424171997835" lon="-4.528798088404264"><ele>1063.5</ele><time>2026-04-30T08:21:09.999Z</time></trkpt><trkpt lat="31.884035094077674" lon="-4.528932378949591"><ele>1062.0</ele><time>2026-04-30T08:21:10.999Z</time></trkpt><trkpt lat="31.883831520466728" lon="-4.529064112756305"><ele>1062.0</ele><time>2026-04-30T08:21:11.999Z</time></trkpt><trkpt lat="31.88362816650256" lon="-4.529196065949914"><ele>1062.0</ele><time>2026-04-30T08:21:12.999Z</time></trkpt><trkpt lat="31.883427934816314" lon="-4.5293258455964756"><ele>1064.0</ele><time>2026-04-30T08:21:13.999Z</time></trkpt><trkpt lat="31.88322752528078" lon="-4.5294546548019445"><ele>1066.0</ele><time>2026-04-30T08:21:14.999Z</time></trkpt><trkpt lat="31.883028356467047" lon="-4.529585189926425"><ele>1068.5</ele><time>2026-04-30T08:21:15.999Z</time></trkpt><trkpt lat="31.882832993304934" lon="-4.529715188249333"><ele>1071.0</ele><time>2026-04-30T08:21:16.999Z</time></trkpt><trkpt lat="31.882634736512497" lon="-4.529845794597368"><ele>1069.5</ele><time>2026-04-30T08:21:17.999Z</time></trkpt><trkpt lat="31.882436829169247" lon="-4.52997668597701"><ele>1068.0</ele><time>2026-04-30T08:21:18.999Z</time></trkpt><trkpt lat="31.882237250414768" lon="-4.530104894552756"><ele>1068.0</ele><time>2026-04-30T08:21:19.999Z</time></trkpt><trkpt lat="31.882038301831294" lon="-4.530236126370712"><ele>1068.0</ele><time>2026-04-30T08:21:20.999Z</time></trkpt><trkpt lat="31.881837720873648" lon="-4.530368940902238"><ele>1069.0</ele><time>2026-04-30T08:21:21.999Z</time></trkpt><trkpt lat="31.881636335761414" lon="-4.530499919668659"><ele>1070.0</ele><time>2026-04-30T08:21:22.999Z</time></trkpt><trkpt lat="31.88143226377816" lon="-4.530631338156794"><ele>1070.0</ele><time>2026-04-30T08:21:23.999Z</time></trkpt><trkpt lat="31.88122917152665" lon="-4.53076550509718"><ele>1070.0</ele><time>2026-04-30T08:21:24.999Z</time></trkpt><trkpt lat="31.88102200357968" lon="-4.5309011409051845"><ele>1068.0</ele><time>2026-04-30T08:21:25.999Z</time></trkpt><trkpt lat="31.88081043958327" lon="-4.531037124163522"><ele>1066.0</ele><time>2026-04-30T08:21:26.999Z</time></trkpt><trkpt lat="31.880602572937743" lon="-4.53117356583382"><ele>1065.0</ele><time>2026-04-30T08:21:27.999Z</time></trkpt><trkpt lat="31.88039014175849" lon="-4.5313116528568855"><ele>1064.0</ele><time>2026-04-30T08:21:28.999Z</time></trkpt><trkpt lat="31.88018142953852" lon="-4.53144700544632"><ele>1064.0</ele><time>2026-04-30T08:21:29.999Z</time></trkpt><trkpt lat="31.879974318732774" lon="-4.531580994642293"><ele>1064.0</ele><time>2026-04-30T08:21:30.999Z</time></trkpt><trkpt lat="31.879768364949484" lon="-4.531713465889912"><ele>1064.0</ele><time>2026-04-30T08:21:31.999Z</time></trkpt><trkpt lat="31.879566045439386" lon="-4.531844131826736"><ele>1064.0</ele><time>2026-04-30T08:21:32.999Z</time></trkpt><trkpt lat="31.879363459389733" lon="-4.531977986453938"><ele>1065.0</ele><time>2026-04-30T08:21:33.999Z</time></trkpt><trkpt lat="31.879163078405984" lon="-4.53211175022755"><ele>1066.0</ele><time>2026-04-30T08:21:34.999Z</time></trkpt><trkpt lat="31.87896250115282" lon="-4.532242199575465"><ele>1066.0</ele><time>2026-04-30T08:21:35.999Z</time></trkpt><trkpt lat="31.878759190418766" lon="-4.532370948679054"><ele>1066.0</ele><time>2026-04-30T08:21:36.999Z</time></trkpt><trkpt lat="31.878555426010855" lon="-4.53249977806139"><ele>1064.0</ele><time>2026-04-30T08:21:37.999Z</time></trkpt><trkpt lat="31.87835112635704" lon="-4.5326280707802376"><ele>1062.0</ele><time>2026-04-30T08:21:38.999Z</time></trkpt><trkpt lat="31.87815059867985" lon="-4.532756677929207"><ele>1062.0</ele><time>2026-04-30T08:21:39.999Z</time></trkpt><trkpt lat="31.877949671591033" lon="-4.532887497746806"><ele>1062.0</ele><time>2026-04-30T08:21:40.999Z</time></trkpt><trkpt lat="31.877745591208093" lon="-4.533015092809043"><ele>1065.0</ele><time>2026-04-30T08:21:41.999Z</time></trkpt><trkpt lat="31.877541849513904" lon="-4.533138747961905"><ele>1068.0</ele><time>2026-04-30T08:21:42.999Z</time></trkpt><trkpt lat="31.8773361594954" lon="-4.533266686712003"><ele>1068.0</ele><time>2026-04-30T08:21:43.999Z</time></trkpt><trkpt lat="31.877130392231685" lon="-4.533397901313687"><ele>1068.0</ele><time>2026-04-30T08:21:44.999Z</time></trkpt><trkpt lat="31.87692295566141" lon="-4.533531972352518"><ele>1068.5</ele><time>2026-04-30T08:21:45.999Z</time></trkpt><trkpt lat="31.876727726241338" lon="-4.533697893739949"><ele>1069.0</ele><time>2026-04-30T08:21:46.999Z</time></trkpt><trkpt lat="31.876516465194616" lon="-4.5338349243664045"><ele>1070.0</ele><time>2026-04-30T08:21:48Z</time></trkpt><trkpt lat="31.87630054071741" lon="-4.5339612616545"><ele>1071.0</ele><time>2026-04-30T08:21:49Z</time></trkpt><trkpt lat="31.87609111170637" lon="-4.534102874334489"><ele>1071.5</ele><time>2026-04-30T08:21:50Z</time></trkpt><trkpt lat="31.87587828083899" lon="-4.534241541638437"><ele>1072.0</ele><time>2026-04-30T08:21:51Z</time></trkpt><trkpt lat="31.875668207301846" lon="-4.5343772257475425"><ele>1072.0</ele><time>2026-04-30T08:21:52Z</time></trkpt><trkpt lat="31.875459387607137" lon="-4.534513206677192"><ele>1072.0</ele><time>2026-04-30T08:21:53Z</time></trkpt><trkpt lat="31.87525222331109" lon="-4.534647810942853"><ele>1072.5</ele><time>2026-04-30T08:21:54Z</time></trkpt><trkpt lat="31.875045852552283" lon="-4.534782124863397"><ele>1073.0</ele><time>2026-04-30T08:21:55Z</time></trkpt><trkpt lat="31.87483968640917" lon="-4.534916040079791"><ele>1073.0</ele><time>2026-04-30T08:21:56Z</time></trkpt><trkpt lat="31.874632269706208" lon="-4.5350475096569225"><ele>1073.0</ele><time>2026-04-30T08:21:57Z</time></trkpt><trkpt lat="31.87442325082231" lon="-4.53517982317311"><ele>1073.0</ele><time>2026-04-30T08:21:58Z</time></trkpt><trkpt lat="31.87421561373674" lon="-4.535315423649761"><ele>1073.0</ele><time>2026-04-30T08:21:59Z</time></trkpt><trkpt lat="31.874007946775297" lon="-4.535453759314203"><ele>1076.5</ele><time>2026-04-30T08:22:00Z</time></trkpt><trkpt lat="31.87379879925665" lon="-4.53558994307918"><ele>1080.0</ele><time>2026-04-30T08:22:01Z</time></trkpt><trkpt lat="31.873587199343135" lon="-4.535724600199843"><ele>1078.5</ele><time>2026-04-30T08:22:02Z</time></trkpt><trkpt lat="31.873371332580163" lon="-4.535853418279261"><ele>1077.0</ele><time>2026-04-30T08:22:03Z</time></trkpt><trkpt lat="31.87315216851831" lon="-4.535975420248014"><ele>1077.0</ele><time>2026-04-30T08:22:04Z</time></trkpt><trkpt lat="31.872930419517317" lon="-4.536092353923641"><ele>1077.0</ele><time>2026-04-30T08:22:05Z</time></trkpt><trkpt lat="31.872709691014787" lon="-4.536208682827839"><ele>1077.5</ele><time>2026-04-30T08:22:06Z</time></trkpt><trkpt lat="31.87248792844858" lon="-4.536323440172115"><ele>1078.0</ele><time>2026-04-30T08:22:07Z</time></trkpt><trkpt lat="31.872267704443587" lon="-4.5364336902618385"><ele>1078.0</ele><time>2026-04-30T08:22:08Z</time></trkpt><trkpt lat="31.872057997546786" lon="-4.536543897110895"><ele>1078.0</ele><time>2026-04-30T08:22:09Z</time></trkpt><trkpt lat="31.871862247761932" lon="-4.5366474207754015"><ele>1078.0</ele><time>2026-04-30T08:22:10Z</time></trkpt><trkpt lat="31.871680924661675" lon="-4.536743770013414"><ele>1078.0</ele><time>2026-04-30T08:22:11Z</time></trkpt><trkpt lat="31.871515525124437" lon="-4.536866542309083"><ele>1078.0</ele><time>2026-04-30T08:22:12Z</time></trkpt><trkpt lat="31.871349248661407" lon="-4.53698357694486"><ele>1078.0</ele><time>2026-04-30T08:22:13Z</time></trkpt><trkpt lat="31.871188389646697" lon="-4.537104697084568"><ele>1078.0</ele><time>2026-04-30T08:22:14Z</time></trkpt><trkpt lat="31.87101805520817" lon="-4.537215710830659"><ele>1078.0</ele><time>2026-04-30T08:22:15Z</time></trkpt><trkpt lat="31.870859581261865" lon="-4.537355682288325"><ele>1078.0</ele><time>2026-04-30T08:22:16Z</time></trkpt><trkpt lat="31.870698410729492" lon="-4.537497254168048"><ele>1079.6666666666665</ele><time>2026-04-30T08:22:17Z</time></trkpt><trkpt lat="31.870533762989393" lon="-4.537641158923757"><ele>1081.3333333333333</ele><time>2026-04-30T08:22:18Z</time></trkpt><trkpt lat="31.87036626211715" lon="-4.5377860437629485"><ele>1083.0</ele><time>2026-04-30T08:22:19Z</time></trkpt><trkpt lat="31.870197254894624" lon="-4.537933635946848"><ele>1084.3333333333333</ele><time>2026-04-30T08:22:20Z</time></trkpt><trkpt lat="31.87003242543361" lon="-4.538078877003327"><ele>1085.6666666666665</ele><time>2026-04-30T08:22:21Z</time></trkpt><trkpt lat="31.869871823395087" lon="-4.5382170404023245"><ele>1087.0</ele><time>2026-04-30T08:22:22Z</time></trkpt><trkpt lat="31.86971506178655" lon="-4.538352902606843"><ele>1087.0</ele><time>2026-04-30T08:22:23Z</time></trkpt><trkpt lat="31.8695616233997" lon="-4.538486926564665"><ele>1087.0</ele><time>2026-04-30T08:22:24Z</time></trkpt><trkpt lat="31.869408435732705" lon="-4.538615236040014"><ele>1087.0</ele><time>2026-04-30T08:22:25Z</time></trkpt><trkpt lat="31.869254182547966" lon="-4.5387435622074"><ele>1088.0</ele><time>2026-04-30T08:22:26Z</time></trkpt><trkpt lat="31.869102960998962" lon="-4.538876178833281"><ele>1089.0</ele><time>2026-04-30T08:22:27Z</time></trkpt><trkpt lat="31.868954263351302" lon="-4.539012409469785"><ele>1090.0</ele><time>2026-04-30T08:22:28Z</time></trkpt><trkpt lat="31.86880318965891" lon="-4.539149230366182"><ele>1090.0</ele><time>2026-04-30T08:22:29Z</time></trkpt><trkpt lat="31.868647696738105" lon="-4.539282870080146"><ele>1090.0</ele><time>2026-04-30T08:22:30Z</time></trkpt><trkpt lat="31.868488649678067" lon="-4.5394186832275"><ele>1090.0</ele><time>2026-04-30T08:22:31Z</time></trkpt><trkpt lat="31.868326195531818" lon="-4.539559294381071"><ele>1090.3333333333333</ele><time>2026-04-30T08:22:32Z</time></trkpt><trkpt lat="31.868158473488613" lon="-4.539701013762426"><ele>1090.6666666666667</ele><time>2026-04-30T08:22:33Z</time></trkpt><trkpt lat="31.86798917260252" lon="-4.539847894734494"><ele>1091.0</ele><time>2026-04-30T08:22:34Z</time></trkpt><trkpt lat="31.867823489114485" lon="-4.539996205191181"><ele>1091.0</ele><time>2026-04-30T08:22:35Z</time></trkpt><trkpt lat="31.867652220642565" lon="-4.540141137640983"><ele>1091.0</ele><time>2026-04-30T08:22:36Z</time></trkpt><trkpt lat="31.86747616316013" lon="-4.5402911998067035"><ele>1091.0</ele><time>2026-04-30T08:22:37Z</time></trkpt><trkpt lat="31.867298059966526" lon="-4.540447734249212"><ele>1092.0</ele><time>2026-04-30T08:22:38Z</time></trkpt><trkpt lat="31.86711036942679" lon="-4.540610508961264"><ele>1093.0</ele><time>2026-04-30T08:22:39Z</time></trkpt><trkpt lat="31.866918786219046" lon="-4.540774610498682"><ele>1092.0</ele><time>2026-04-30T08:22:40Z</time></trkpt><trkpt lat="31.866724339934084" lon="-4.540943987235142"><ele>1091.0</ele><time>2026-04-30T08:22:41Z</time></trkpt><trkpt lat="31.86652658156821" lon="-4.541116735847936"><ele>1092.0</ele><time>2026-04-30T08:22:42Z</time></trkpt><trkpt lat="31.86632649608954" lon="-4.541292292223607"><ele>1093.0</ele><time>2026-04-30T08:22:43Z</time></trkpt><trkpt lat="31.86613342565242" lon="-4.5414764210546075"><ele>1093.0</ele><time>2026-04-30T08:22:44Z</time></trkpt><trkpt lat="31.865948550573492" lon="-4.5416722119456425"><ele>1093.0</ele><time>2026-04-30T08:22:45Z</time></trkpt><trkpt lat="31.865770225274005" lon="-4.541874529573603"><ele>1092.5</ele><time>2026-04-30T08:22:46Z</time></trkpt><trkpt lat="31.86559841792297" lon="-4.542080223409353"><ele>1092.0</ele><time>2026-04-30T08:22:47Z</time></trkpt><trkpt lat="31.86543097316133" lon="-4.542289768940768"><ele>1092.0</ele><time>2026-04-30T08:22:48Z</time></trkpt><trkpt lat="31.86526852450753" lon="-4.542502194177365"><ele>1092.0</ele><time>2026-04-30T08:22:49Z</time></trkpt><trkpt lat="31.86510961645446" lon="-4.542718751974731"><ele>1091.0</ele><time>2026-04-30T08:22:50Z</time></trkpt><trkpt lat="31.864958317402802" lon="-4.542946137387643"><ele>1090.0</ele><time>2026-04-30T08:22:51Z</time></trkpt><trkpt lat="31.86481307347465" lon="-4.543179461898998"><ele>1090.0</ele><time>2026-04-30T08:22:52Z</time></trkpt><trkpt lat="31.86466978503668" lon="-4.543418033653399"><ele>1090.0</ele><time>2026-04-30T08:22:53Z</time></trkpt><trkpt lat="31.864529869243988" lon="-4.54366115328681"><ele>1089.0</ele><time>2026-04-30T08:22:54Z</time></trkpt><trkpt lat="31.864397798192734" lon="-4.543911682175413"><ele>1088.0</ele><time>2026-04-30T08:22:55Z</time></trkpt><trkpt lat="31.864272452562208" lon="-4.544168550351326"><ele>1087.5</ele><time>2026-04-30T08:22:56Z</time></trkpt><trkpt lat="31.864147287658813" lon="-4.544428020912245"><ele>1087.0</ele><time>2026-04-30T08:22:57Z</time></trkpt><trkpt lat="31.864023577862575" lon="-4.544689815830425"><ele>1086.5</ele><time>2026-04-30T08:22:58Z</time></trkpt><trkpt lat="31.863896469541295" lon="-4.544952900015979"><ele>1086.0</ele><time>2026-04-30T08:22:59Z</time></trkpt><trkpt lat="31.863767481624837" lon="-4.545213619905272"><ele>1085.0</ele><time>2026-04-30T08:23:00Z</time></trkpt><trkpt lat="31.863639004252104" lon="-4.545476175203601"><ele>1084.0</ele><time>2026-04-30T08:23:01Z</time></trkpt><trkpt lat="31.863513026889493" lon="-4.545740306947022"><ele>1084.0</ele><time>2026-04-30T08:23:02Z</time></trkpt><trkpt lat="31.863385618370835" lon="-4.546004009598917"><ele>1084.0</ele><time>2026-04-30T08:23:03Z</time></trkpt><trkpt lat="31.86325640014329" lon="-4.546267193920127"><ele>1084.0</ele><time>2026-04-30T08:23:04Z</time></trkpt><trkpt lat="31.863126587002704" lon="-4.546530097481382"><ele>1084.0</ele><time>2026-04-30T08:23:05Z</time></trkpt><trkpt lat="31.86299717938193" lon="-4.546792841795174"><ele>1083.5</ele><time>2026-04-30T08:23:06Z</time></trkpt><trkpt lat="31.862869536865283" lon="-4.547056877396955"><ele>1083.0</ele><time>2026-04-30T08:23:07Z</time></trkpt><trkpt lat="31.862740544977044" lon="-4.547320494475099"><ele>1081.0</ele><time>2026-04-30T08:23:08Z</time></trkpt><trkpt lat="31.862611031528235" lon="-4.547583704651428"><ele>1079.0</ele><time>2026-04-30T08:23:09Z</time></trkpt><trkpt lat="31.862482859114525" lon="-4.547848813379795"><ele>1080.5</ele><time>2026-04-30T08:23:10Z</time></trkpt><trkpt lat="31.86235433221773" lon="-4.548113225894878"><ele>1082.0</ele><time>2026-04-30T08:23:11Z</time></trkpt><trkpt lat="31.86222348245245" lon="-4.548377363126189"><ele>1082.0</ele><time>2026-04-30T08:23:12Z</time></trkpt><trkpt lat="31.862092384811568" lon="-4.548640004157013"><ele>1082.0</ele><time>2026-04-30T08:23:13Z</time></trkpt><trkpt lat="31.861979624057778" lon="-4.548914302483028"><ele>1081.5</ele><time>2026-04-30T08:23:13.999Z</time></trkpt><trkpt lat="31.861857913755944" lon="-4.549182692685742"><ele>1081.0</ele><time>2026-04-30T08:23:14.999Z</time></trkpt><trkpt lat="31.86170541690448" lon="-4.549433248088921"><ele>1080.5</ele><time>2026-04-30T08:23:15.999Z</time></trkpt><trkpt lat="31.861575276299707" lon="-4.549697656733999"><ele>1080.0</ele><time>2026-04-30T08:23:16.999Z</time></trkpt><trkpt lat="31.861445816196657" lon="-4.549963317439665"><ele>1080.0</ele><time>2026-04-30T08:23:17.999Z</time></trkpt><trkpt lat="31.86131751033573" lon="-4.550229714895547"><ele>1080.0</ele><time>2026-04-30T08:23:18.999Z</time></trkpt><trkpt lat="31.861187869264807" lon="-4.550494353405123"><ele>1079.5</ele><time>2026-04-30T08:23:19.999Z</time></trkpt><trkpt lat="31.86105826299331" lon="-4.550751316305907"><ele>1079.0</ele><time>2026-04-30T08:23:20.999Z</time></trkpt><trkpt lat="31.860929279195528" lon="-4.550992629397714"><ele>1078.5</ele><time>2026-04-30T08:23:21.999Z</time></trkpt><trkpt lat="31.860796665344033" lon="-4.551226300572609"><ele>1078.0</ele><time>2026-04-30T08:23:22.999Z</time></trkpt><trkpt lat="31.860656464452134" lon="-4.55145823134526"><ele>1078.0</ele><time>2026-04-30T08:23:23.999Z</time></trkpt><trkpt lat="31.86050723122406" lon="-4.551688873993208"><ele>1078.0</ele><time>2026-04-30T08:23:24.999Z</time></trkpt><trkpt lat="31.860355381985947" lon="-4.551919312313554"><ele>1073.5</ele><time>2026-04-30T08:23:25.999Z</time></trkpt><trkpt lat="31.86019101918372" lon="-4.552144166554356"><ele>1069.0</ele><time>2026-04-30T08:23:26.999Z</time></trkpt><trkpt lat="31.86002210987416" lon="-4.552363779418782"><ele>1069.0</ele><time>2026-04-30T08:23:27.999Z</time></trkpt><trkpt lat="31.85984649282231" lon="-4.552570686276002"><ele>1069.0</ele><time>2026-04-30T08:23:28.999Z</time></trkpt><trkpt lat="31.859666506466223" lon="-4.552772002990456"><ele>1067.0</ele><time>2026-04-30T08:23:29.999Z</time></trkpt><trkpt lat="31.859483701992197" lon="-4.5529659000803155"><ele>1065.0</ele><time>2026-04-30T08:23:30.999Z</time></trkpt><trkpt lat="31.859293614094394" lon="-4.553152362388886"><ele>1065.5</ele><time>2026-04-30T08:23:31.999Z</time></trkpt><trkpt lat="31.859096056102203" lon="-4.55333310617053"><ele>1066.0</ele><time>2026-04-30T08:23:32.999Z</time></trkpt><trkpt lat="31.858887950021288" lon="-4.553506739486448"><ele>1066.0</ele><time>2026-04-30T08:23:33.999Z</time></trkpt><trkpt lat="31.85867404450056" lon="-4.553677418180012"><ele>1066.0</ele><time>2026-04-30T08:23:34.999Z</time></trkpt><trkpt lat="31.858456059091683" lon="-4.553848839539152"><ele>1064.5</ele><time>2026-04-30T08:23:35.999Z</time></trkpt><trkpt lat="31.85823826924843" lon="-4.5540184427607056"><ele>1063.0</ele><time>2026-04-30T08:23:36.999Z</time></trkpt><trkpt lat="31.858022755479826" lon="-4.554184201086765"><ele>1063.0</ele><time>2026-04-30T08:23:37.999Z</time></trkpt><trkpt lat="31.857810379213102" lon="-4.554346728372583"><ele>1063.0</ele><time>2026-04-30T08:23:38.999Z</time></trkpt><trkpt lat="31.857605238097708" lon="-4.554502231556914"><ele>1065.0</ele><time>2026-04-30T08:23:39.999Z</time></trkpt><trkpt lat="31.857412923563487" lon="-4.554651036054481"><ele>1067.0</ele><time>2026-04-30T08:23:40.999Z</time></trkpt><trkpt lat="31.857228739780407" lon="-4.554793955933658"><ele>1067.0</ele><time>2026-04-30T08:23:41.999Z</time></trkpt><trkpt lat="31.85705303650982" lon="-4.554930541740162"><ele>1067.0</ele><time>2026-04-30T08:23:42.999Z</time></trkpt><trkpt lat="31.856882113982763" lon="-4.555057052038449"><ele>1067.0</ele><time>2026-04-30T08:23:43.999Z</time></trkpt><trkpt lat="31.85671651935112" lon="-4.555184555666653"><ele>1065.6666666666667</ele><time>2026-04-30T08:23:44.999Z</time></trkpt><trkpt lat="31.856555497412252" lon="-4.555328002016409"><ele>1064.3333333333333</ele><time>2026-04-30T08:23:45.999Z</time></trkpt><trkpt lat="31.856410878267823" lon="-4.555492539447611"><ele>1063.0</ele><time>2026-04-30T08:23:46.999Z</time></trkpt><trkpt lat="31.85628173750352" lon="-4.555680311970695"><ele>1062.3333333333333</ele><time>2026-04-30T08:23:47.999Z</time></trkpt><trkpt lat="31.856157951544017" lon="-4.55588215060279"><ele>1061.6666666666667</ele><time>2026-04-30T08:23:48.999Z</time></trkpt><trkpt lat="31.856043843949383" lon="-4.556102149804717"><ele>1061.0</ele><time>2026-04-30T08:23:49.999Z</time></trkpt><trkpt lat="31.855936119669835" lon="-4.556333524115348"><ele>1061.0</ele><time>2026-04-30T08:23:50.999Z</time></trkpt><trkpt lat="31.85582083833166" lon="-4.55656711434227"><ele>1061.0</ele><time>2026-04-30T08:23:51.999Z</time></trkpt><trkpt lat="31.85570046365381" lon="-4.556803111382198"><ele>1061.0</ele><time>2026-04-30T08:23:52.999Z</time></trkpt><trkpt lat="31.85557812629074" lon="-4.557044905420033"><ele>1061.0</ele><time>2026-04-30T08:23:54Z</time></trkpt><trkpt lat="31.85545559453827" lon="-4.557291251804924"><ele>1061.0</ele><time>2026-04-30T08:23:55Z</time></trkpt><trkpt lat="31.855332796741212" lon="-4.557537167115994"><ele>1061.0</ele><time>2026-04-30T08:23:56Z</time></trkpt><trkpt lat="31.85521132789082" lon="-4.5577867353789365"><ele>1059.5</ele><time>2026-04-30T08:23:57Z</time></trkpt><trkpt lat="31.855089348836984" lon="-4.558034854124766"><ele>1058.0</ele><time>2026-04-30T08:23:58Z</time></trkpt><trkpt lat="31.85496620300062" lon="-4.558280526446251"><ele>1058.0</ele><time>2026-04-30T08:23:59Z</time></trkpt><trkpt lat="31.8548433781214" lon="-4.558525611704181"><ele>1058.0</ele><time>2026-04-30T08:24:00Z</time></trkpt><trkpt lat="31.85472088564022" lon="-4.558771163800781"><ele>1059.0</ele><time>2026-04-30T08:24:01Z</time></trkpt><trkpt lat="31.85460107661775" lon="-4.559017771226403"><ele>1060.0</ele><time>2026-04-30T08:24:02Z</time></trkpt><trkpt lat="31.85448192697199" lon="-4.5592627944560515"><ele>1060.0</ele><time>2026-04-30T08:24:03Z</time></trkpt><trkpt lat="31.85436378813597" lon="-4.559505705885312"><ele>1060.0</ele><time>2026-04-30T08:24:04Z</time></trkpt><trkpt lat="31.85424473165398" lon="-4.559748709591475"><ele>1060.0</ele><time>2026-04-30T08:24:05Z</time></trkpt><trkpt lat="31.854124692921026" lon="-4.559991271090362"><ele>1060.0</ele><time>2026-04-30T08:24:06Z</time></trkpt><trkpt lat="31.854001531293548" lon="-4.560233191520169"><ele>1062.0</ele><time>2026-04-30T08:24:07Z</time></trkpt><trkpt lat="31.85387887262849" lon="-4.5604756526342545"><ele>1064.0</ele><time>2026-04-30T08:24:08Z</time></trkpt><trkpt lat="31.853758688911583" lon="-4.5607187299910965"><ele>1064.0</ele><time>2026-04-30T08:24:09Z</time></trkpt><trkpt lat="31.853640158644193" lon="-4.560964232746721"><ele>1064.0</ele><time>2026-04-30T08:24:10Z</time></trkpt><trkpt lat="31.85351988954662" lon="-4.561208305863949"><ele>1062.0</ele><time>2026-04-30T08:24:11Z</time></trkpt><trkpt lat="31.85339932013698" lon="-4.561448637804877"><ele>1060.0</ele><time>2026-04-30T08:24:12Z</time></trkpt><trkpt lat="31.85328453064146" lon="-4.561681233364555"><ele>1060.0</ele><time>2026-04-30T08:24:13Z</time></trkpt><trkpt lat="31.853168566581413" lon="-4.561906145864899"><ele>1060.0</ele><time>2026-04-30T08:24:14Z</time></trkpt><trkpt lat="31.853056701429885" lon="-4.562126717026107"><ele>1060.0</ele><time>2026-04-30T08:24:15Z</time></trkpt><trkpt lat="31.852949290636026" lon="-4.562346600037424"><ele>1060.3333333333333</ele><time>2026-04-30T08:24:16Z</time></trkpt><trkpt lat="31.852843635305376" lon="-4.562565040054388"><ele>1060.6666666666667</ele><time>2026-04-30T08:24:17Z</time></trkpt><trkpt lat="31.852734517196904" lon="-4.562776207123801"><ele>1061.0</ele><time>2026-04-30T08:24:18Z</time></trkpt><trkpt lat="31.852628404541164" lon="-4.56298266276236"><ele>1061.6666666666667</ele><time>2026-04-30T08:24:19Z</time></trkpt><trkpt lat="31.852531055203226" lon="-4.563189224569725"><ele>1062.3333333333333</ele><time>2026-04-30T08:24:20Z</time></trkpt><trkpt lat="31.852437047489047" lon="-4.563395158325874"><ele>1063.0</ele><time>2026-04-30T08:24:21Z</time></trkpt><trkpt lat="31.852349932567527" lon="-4.563602790340737"><ele>1064.6666666666665</ele><time>2026-04-30T08:24:22Z</time></trkpt><trkpt lat="31.85227630430104" lon="-4.563816217941128"><ele>1066.3333333333333</ele><time>2026-04-30T08:24:23Z</time></trkpt><trkpt lat="31.85221363522313" lon="-4.564037224139597"><ele>1068.0</ele><time>2026-04-30T08:24:24Z</time></trkpt><trkpt lat="31.852155722320195" lon="-4.564265427360034"><ele>1068.0</ele><time>2026-04-30T08:24:25Z</time></trkpt><trkpt lat="31.852101497970672" lon="-4.564497235362914"><ele>1068.0</ele><time>2026-04-30T08:24:26Z</time></trkpt><trkpt lat="31.85204564827954" lon="-4.564728655445013"><ele>1068.0</ele><time>2026-04-30T08:24:27Z</time></trkpt><trkpt lat="31.851985574351144" lon="-4.564958922861363"><ele>1068.0</ele><time>2026-04-30T08:24:28Z</time></trkpt><trkpt lat="31.85192747688812" lon="-4.565190265587616"><ele>1068.0</ele><time>2026-04-30T08:24:29Z</time></trkpt><trkpt lat="31.85186922983529" lon="-4.56541964944662"><ele>1068.0</ele><time>2026-04-30T08:24:30Z</time></trkpt><trkpt lat="31.851808679860333" lon="-4.565646600292269"><ele>1066.3333333333333</ele><time>2026-04-30T08:24:31Z</time></trkpt><trkpt lat="31.851751482825012" lon="-4.565876879655559"><ele>1064.6666666666665</ele><time>2026-04-30T08:24:32Z</time></trkpt><trkpt lat="31.851694551083913" lon="-4.566109706646556"><ele>1063.0</ele><time>2026-04-30T08:24:33Z</time></trkpt><trkpt lat="31.851634235048806" lon="-4.56634605386604"><ele>1062.6666666666665</ele><time>2026-04-30T08:24:34Z</time></trkpt><trkpt lat="31.851576518594555" lon="-4.566586672442504"><ele>1062.3333333333333</ele><time>2026-04-30T08:24:35Z</time></trkpt><trkpt lat="31.851519448720936" lon="-4.566830355565389"><ele>1062.0</ele><time>2026-04-30T08:24:36Z</time></trkpt><trkpt lat="31.851457662599003" lon="-4.567077155523474"><ele>1062.0</ele><time>2026-04-30T08:24:37Z</time></trkpt><trkpt lat="31.85139631233505" lon="-4.567327775488601"><ele>1062.0</ele><time>2026-04-30T08:24:38Z</time></trkpt><trkpt lat="31.85133388456676" lon="-4.567579254636331"><ele>1062.0</ele><time>2026-04-30T08:24:39Z</time></trkpt><trkpt lat="31.851270602084995" lon="-4.567833840379834"><ele>1063.5</ele><time>2026-04-30T08:24:40Z</time></trkpt><trkpt lat="31.851208907206047" lon="-4.5680911265314625"><ele>1065.0</ele><time>2026-04-30T08:24:41Z</time></trkpt><trkpt lat="31.851145800652557" lon="-4.568349586508247"><ele>1065.0</ele><time>2026-04-30T08:24:42Z</time></trkpt><trkpt lat="31.85108292401276" lon="-4.568607002684444"><ele>1065.0</ele><time>2026-04-30T08:24:43Z</time></trkpt><trkpt lat="31.85102096120079" lon="-4.568861116559075"><ele>1063.6666666666667</ele><time>2026-04-30T08:24:44Z</time></trkpt><trkpt lat="31.850959114857208" lon="-4.5691140676922695"><ele>1062.3333333333335</ele><time>2026-04-30T08:24:45Z</time></trkpt><trkpt lat="31.850896259569485" lon="-4.569366638112819"><ele>1061.0</ele><time>2026-04-30T08:24:46Z</time></trkpt><trkpt lat="31.850834052473854" lon="-4.569617688692915"><ele>1060.3333333333335</ele><time>2026-04-30T08:24:47Z</time></trkpt><trkpt lat="31.850773097122964" lon="-4.5698687125129585"><ele>1059.6666666666667</ele><time>2026-04-30T08:24:48Z</time></trkpt><trkpt lat="31.850711234458668" lon="-4.570119901244851"><ele>1059.0</ele><time>2026-04-30T08:24:49Z</time></trkpt><trkpt lat="31.850650890808456" lon="-4.570369806538381"><ele>1059.0</ele><time>2026-04-30T08:24:50Z</time></trkpt><trkpt lat="31.850586867546326" lon="-4.570617387152493"><ele>1059.0</ele><time>2026-04-30T08:24:51Z</time></trkpt><trkpt lat="31.850518415760813" lon="-4.570861275840263"><ele>1059.0</ele><time>2026-04-30T08:24:52Z</time></trkpt><trkpt lat="31.850436690720954" lon="-4.571102127576454"><ele>1058.6666666666667</ele><time>2026-04-30T08:24:53Z</time></trkpt><trkpt lat="31.85032968510247" lon="-4.57133144429576"><ele>1058.3333333333335</ele><time>2026-04-30T08:24:54Z</time></trkpt><trkpt lat="31.85020663019792" lon="-4.571554184534871"><ele>1058.0</ele><time>2026-04-30T08:24:55Z</time></trkpt><trkpt lat="31.850072552988248" lon="-4.571773263238328"><ele>1057.0</ele><time>2026-04-30T08:24:56Z</time></trkpt><trkpt lat="31.84993372761151" lon="-4.571992808563592"><ele>1056.0</ele><time>2026-04-30T08:24:57Z</time></trkpt><trkpt lat="31.849794206454973" lon="-4.572214246178297"><ele>1056.0</ele><time>2026-04-30T08:24:58Z</time></trkpt><trkpt lat="31.849655685415566" lon="-4.572432253641419"><ele>1056.0</ele><time>2026-04-30T08:24:59Z</time></trkpt><trkpt lat="31.849519739745695" lon="-4.572645737814625"><ele>1056.0</ele><time>2026-04-30T08:25:00Z</time></trkpt><trkpt lat="31.849390120674332" lon="-4.572849742812922"><ele>1056.0</ele><time>2026-04-30T08:25:01Z</time></trkpt><trkpt lat="31.84926445859523" lon="-4.57304404698912"><ele>1056.0</ele><time>2026-04-30T08:25:02Z</time></trkpt><trkpt lat="31.849143322035417" lon="-4.573229502081236"><ele>1055.3333333333333</ele><time>2026-04-30T08:25:03Z</time></trkpt><trkpt lat="31.849026352357193" lon="-4.57340520212039"><ele>1054.6666666666665</ele><time>2026-04-30T08:25:04Z</time></trkpt><trkpt lat="31.848912792203166" lon="-4.573574898328636"><ele>1054.0</ele><time>2026-04-30T08:25:05Z</time></trkpt><trkpt lat="31.84880547405011" lon="-4.573738081848408"><ele>1054.0</ele><time>2026-04-30T08:25:06Z</time></trkpt><trkpt lat="31.84870057216392" lon="-4.5738963244409"><ele>1054.0</ele><time>2026-04-30T08:25:07Z</time></trkpt><trkpt lat="31.848601016599435" lon="-4.574048387900554"><ele>1054.0</ele><time>2026-04-30T08:25:08Z</time></trkpt><trkpt lat="31.848494312641385" lon="-4.574180898996813"><ele>1054.0</ele><time>2026-04-30T08:25:09Z</time></trkpt><trkpt lat="31.848383971276927" lon="-4.574306349792155"><ele>1054.0</ele><time>2026-04-30T08:25:10Z</time></trkpt><trkpt lat="31.84832085384873" lon="-4.574479461457385"><ele>1054.0</ele><time>2026-04-30T08:25:11Z</time></trkpt><trkpt lat="31.848239206628914" lon="-4.57461077808595"><ele>1054.0</ele><time>2026-04-30T08:25:12Z</time></trkpt><trkpt lat="31.848160765062683" lon="-4.574739705946131"><ele>1054.0</ele><time>2026-04-30T08:25:12.999Z</time></trkpt><trkpt lat="31.848086068066127" lon="-4.574862953857545"><ele>1054.0</ele><time>2026-04-30T08:25:13.999Z</time></trkpt><trkpt lat="31.848001839274485" lon="-4.574988953866499"><ele>1054.0</ele><time>2026-04-30T08:25:14.999Z</time></trkpt><trkpt lat="31.847914829483386" lon="-4.5751181620110355"><ele>1054.0</ele><time>2026-04-30T08:25:15.999Z</time></trkpt><trkpt lat="31.847830807434278" lon="-4.575252681157224"><ele>1054.0</ele><time>2026-04-30T08:25:16.999Z</time></trkpt><trkpt lat="31.847747800044786" lon="-4.575376614777337"><ele>1054.0</ele><time>2026-04-30T08:25:17.999Z</time></trkpt><trkpt lat="31.84767659969006" lon="-4.575493906102367"><ele>1054.0</ele><time>2026-04-30T08:25:18.999Z</time></trkpt><trkpt lat="31.84761701576013" lon="-4.575610557419061"><ele>1054.4</ele><time>2026-04-30T08:25:19.999Z</time></trkpt><trkpt lat="31.847549284601993" lon="-4.575717010086966"><ele>1054.8000000000002</ele><time>2026-04-30T08:25:20.999Z</time></trkpt><trkpt lat="31.847482365835027" lon="-4.5758194867421205"><ele>1055.1999999999998</ele><time>2026-04-30T08:25:21.999Z</time></trkpt><trkpt lat="31.84742228245567" lon="-4.575913901858094"><ele>1055.6</ele><time>2026-04-30T08:25:22.999Z</time></trkpt><trkpt lat="31.847363947855474" lon="-4.57600565579007"><ele>1056.0</ele><time>2026-04-30T08:25:23.999Z</time></trkpt><trkpt lat="31.84730927629941" lon="-4.576092520000874"><ele>1056.0</ele><time>2026-04-30T08:25:24.999Z</time></trkpt><trkpt lat="31.847256227246675" lon="-4.5761813679409915"><ele>1056.0</ele><time>2026-04-30T08:25:25.999Z</time></trkpt><trkpt lat="31.847212641280265" lon="-4.576253924409807"><ele>1056.0</ele><time>2026-04-30T08:25:26.999Z</time></trkpt><trkpt lat="31.847173993453552" lon="-4.576323215186926"><ele>1056.0</ele><time>2026-04-30T08:25:27.999Z</time></trkpt><trkpt lat="31.847126846038673" lon="-4.576396274464702"><ele>1056.0</ele><time>2026-04-30T08:25:28.999Z</time></trkpt><trkpt lat="31.847057747418564" lon="-4.576478480014471"><ele>1056.0</ele><time>2026-04-30T08:25:29.999Z</time></trkpt><trkpt lat="31.846985009487266" lon="-4.576589284068596"><ele>1055.75</ele><time>2026-04-30T08:25:30.999Z</time></trkpt><trkpt lat="31.846909072831433" lon="-4.576718548534017"><ele>1055.5</ele><time>2026-04-30T08:25:31.999Z</time></trkpt><trkpt lat="31.846820335598665" lon="-4.576860414169916"><ele>1055.25</ele><time>2026-04-30T08:25:32.999Z</time></trkpt><trkpt lat="31.846724347837473" lon="-4.577004169056858"><ele>1055.0</ele><time>2026-04-30T08:25:33.999Z</time></trkpt><trkpt lat="31.846627099663795" lon="-4.5771557249567"><ele>1055.6666666666667</ele><time>2026-04-30T08:25:34.999Z</time></trkpt><trkpt lat="31.846524376486514" lon="-4.5773166330323445"><ele>1056.3333333333333</ele><time>2026-04-30T08:25:35.999Z</time></trkpt><trkpt lat="31.84642380976206" lon="-4.577475196527668"><ele>1057.0</ele><time>2026-04-30T08:25:36.999Z</time></trkpt><trkpt lat="31.846323649519366" lon="-4.5776309147933505"><ele>1057.0</ele><time>2026-04-30T08:25:37.999Z</time></trkpt><trkpt lat="31.846218182083803" lon="-4.5777943422206535"><ele>1057.0</ele><time>2026-04-30T08:25:38.999Z</time></trkpt><trkpt lat="31.84611535635905" lon="-4.5779674874045755"><ele>1057.0</ele><time>2026-04-30T08:25:39.999Z</time></trkpt><trkpt lat="31.846021358595515" lon="-4.578143119774554"><ele>1054.3333333333333</ele><time>2026-04-30T08:25:40.999Z</time></trkpt><trkpt lat="31.84593903866687" lon="-4.578328846263773"><ele>1051.6666666666667</ele><time>2026-04-30T08:25:41.999Z</time></trkpt><trkpt lat="31.845867461116324" lon="-4.578524871272921"><ele>1049.0</ele><time>2026-04-30T08:25:42.999Z</time></trkpt><trkpt lat="31.845811232475054" lon="-4.5787382145453215"><ele>1048.6666666666667</ele><time>2026-04-30T08:25:43.999Z</time></trkpt><trkpt lat="31.845758713951863" lon="-4.578956477457393"><ele>1048.3333333333333</ele><time>2026-04-30T08:25:44.999Z</time></trkpt><trkpt lat="31.84570970225929" lon="-4.579179185667954"><ele>1048.0</ele><time>2026-04-30T08:25:45.999Z</time></trkpt><trkpt lat="31.845674890055967" lon="-4.579406186228378"><ele>1047.6666666666665</ele><time>2026-04-30T08:25:46.999Z</time></trkpt><trkpt lat="31.845648378218563" lon="-4.579638892814673"><ele>1047.3333333333333</ele><time>2026-04-30T08:25:47.999Z</time></trkpt><trkpt lat="31.84563372828159" lon="-4.579875091255973"><ele>1047.0</ele><time>2026-04-30T08:25:48.999Z</time></trkpt><trkpt lat="31.84563410008357" lon="-4.580115557519353"><ele>1047.0</ele><time>2026-04-30T08:25:49.999Z</time></trkpt><trkpt lat="31.8456375660697" lon="-4.580355395601755"><ele>1047.0</ele><time>2026-04-30T08:25:50.999Z</time></trkpt><trkpt lat="31.845632289562644" lon="-4.58059509132619"><ele>1047.0</ele><time>2026-04-30T08:25:51.999Z</time></trkpt><trkpt lat="31.845631446596695" lon="-4.580833543736216"><ele>1047.0</ele><time>2026-04-30T08:25:52.999Z</time></trkpt><trkpt lat="31.84563155119412" lon="-4.58107106088278"><ele>1047.0</ele><time>2026-04-30T08:25:53.999Z</time></trkpt><trkpt lat="31.845629245544945" lon="-4.581309726515577"><ele>1047.0</ele><time>2026-04-30T08:25:54.999Z</time></trkpt><trkpt lat="31.84562535991775" lon="-4.581550064528359"><ele>1047.0</ele><time>2026-04-30T08:25:55.999Z</time></trkpt><trkpt lat="31.84562510799868" lon="-4.581790912186809"><ele>1047.0</ele><time>2026-04-30T08:25:56.999Z</time></trkpt><trkpt lat="31.84562059543699" lon="-4.582028778210344"><ele>1047.0</ele><time>2026-04-30T08:25:57.999Z</time></trkpt><trkpt lat="31.845603491212636" lon="-4.582266692891627"><ele>1047.0</ele><time>2026-04-30T08:25:58.999Z</time></trkpt><trkpt lat="31.845567510601484" lon="-4.582501919721456"><ele>1047.0</ele><time>2026-04-30T08:26:00Z</time></trkpt><trkpt lat="31.84552226266812" lon="-4.582734804627541"><ele>1047.0</ele><time>2026-04-30T08:26:01Z</time></trkpt><trkpt lat="31.845466787976793" lon="-4.582966484440873"><ele>1047.6666666666667</ele><time>2026-04-30T08:26:02Z</time></trkpt><trkpt lat="31.845396744910612" lon="-4.583190891997461"><ele>1048.3333333333335</ele><time>2026-04-30T08:26:03Z</time></trkpt><trkpt lat="31.845316549820968" lon="-4.583390506380436"><ele>1049.0</ele><time>2026-04-30T08:26:04Z</time></trkpt><trkpt lat="31.8452346732418" lon="-4.583555267916778"><ele>1048.75</ele><time>2026-04-30T08:26:05Z</time></trkpt><trkpt lat="31.84515892341413" lon="-4.583703747881665"><ele>1048.5</ele><time>2026-04-30T08:26:06Z</time></trkpt><trkpt lat="31.845082556155567" lon="-4.583846037133431"><ele>1048.25</ele><time>2026-04-30T08:26:07Z</time></trkpt><trkpt lat="31.844999051821294" lon="-4.583983994236884"><ele>1048.0</ele><time>2026-04-30T08:26:08Z</time></trkpt><trkpt lat="31.844911486302475" lon="-4.584117122544672"><ele>1048.0</ele><time>2026-04-30T08:26:09Z</time></trkpt><trkpt lat="31.844821578606123" lon="-4.584261599392524"><ele>1048.0</ele><time>2026-04-30T08:26:10Z</time></trkpt><trkpt lat="31.84472621494681" lon="-4.584417124901417"><ele>1048.0</ele><time>2026-04-30T08:26:11Z</time></trkpt><trkpt lat="31.844618526698795" lon="-4.584578323461619"><ele>1047.6666666666665</ele><time>2026-04-30T08:26:12Z</time></trkpt><trkpt lat="31.844497837876172" lon="-4.584746171875005"><ele>1047.3333333333333</ele><time>2026-04-30T08:26:13Z</time></trkpt><trkpt lat="31.844379430960114" lon="-4.584932070082717"><ele>1047.0</ele><time>2026-04-30T08:26:14Z</time></trkpt><trkpt lat="31.844259856945513" lon="-4.585129460042227"><ele>1047.0</ele><time>2026-04-30T08:26:15Z</time></trkpt><trkpt lat="31.844135286935224" lon="-4.585336602148394"><ele>1047.0</ele><time>2026-04-30T08:26:16Z</time></trkpt><trkpt lat="31.844008576930996" lon="-4.5855500561752525"><ele>1047.0</ele><time>2026-04-30T08:26:17Z</time></trkpt><trkpt lat="31.84388335735273" lon="-4.5857684932534655"><ele>1046.6666666666667</ele><time>2026-04-30T08:26:18Z</time></trkpt><trkpt lat="31.843759070363458" lon="-4.585980125078931"><ele>1046.3333333333335</ele><time>2026-04-30T08:26:19Z</time></trkpt><trkpt lat="31.843638424107198" lon="-4.58617935922629"><ele>1046.0</ele><time>2026-04-30T08:26:20Z</time></trkpt><trkpt lat="31.843520180950343" lon="-4.586372968986151"><ele>1045.6666666666667</ele><time>2026-04-30T08:26:21Z</time></trkpt><trkpt lat="31.8433994005188" lon="-4.5865679360625125"><ele>1045.3333333333333</ele><time>2026-04-30T08:26:22Z</time></trkpt><trkpt lat="31.84327871891737" lon="-4.586764631500398"><ele>1045.0</ele><time>2026-04-30T08:26:23Z</time></trkpt><trkpt lat="31.84315845651055" lon="-4.5869618921796125"><ele>1045.3333333333333</ele><time>2026-04-30T08:26:24Z</time></trkpt><trkpt lat="31.84303938701134" lon="-4.587159082554445"><ele>1045.6666666666667</ele><time>2026-04-30T08:26:25Z</time></trkpt><trkpt lat="31.842921498141465" lon="-4.587354160694255"><ele>1046.0</ele><time>2026-04-30T08:26:26Z</time></trkpt><trkpt lat="31.842804932542574" lon="-4.587543934456969"><ele>1046.0</ele><time>2026-04-30T08:26:27Z</time></trkpt><trkpt lat="31.84269428670549" lon="-4.587725095678071"><ele>1046.0</ele><time>2026-04-30T08:26:28Z</time></trkpt><trkpt lat="31.8425896660582" lon="-4.587894370901748"><ele>1046.0</ele><time>2026-04-30T08:26:29Z</time></trkpt><trkpt lat="31.842489845724195" lon="-4.58805492705868"><ele>1045.3333333333335</ele><time>2026-04-30T08:26:30Z</time></trkpt><trkpt lat="31.842392537586864" lon="-4.588205813508723"><ele>1044.6666666666667</ele><time>2026-04-30T08:26:31Z</time></trkpt><trkpt lat="31.842297170294756" lon="-4.588352407537002"><ele>1044.0</ele><time>2026-04-30T08:26:32Z</time></trkpt><trkpt lat="31.842197056301977" lon="-4.588507735112749"><ele>1044.6666666666667</ele><time>2026-04-30T08:26:33Z</time></trkpt><trkpt lat="31.842088218532098" lon="-4.588677194779672"><ele>1045.3333333333335</ele><time>2026-04-30T08:26:34Z</time></trkpt><trkpt lat="31.841971398056543" lon="-4.588858808179725"><ele>1046.0</ele><time>2026-04-30T08:26:35Z</time></trkpt><trkpt lat="31.841850958415204" lon="-4.589051607050972"><ele>1046.0</ele><time>2026-04-30T08:26:36Z</time></trkpt><trkpt lat="31.841730894597305" lon="-4.589260885033133"><ele>1046.0</ele><time>2026-04-30T08:26:37Z</time></trkpt><trkpt lat="31.841609776871657" lon="-4.589483302892992"><ele>1046.0</ele><time>2026-04-30T08:26:38Z</time></trkpt><trkpt lat="31.841480301567834" lon="-4.589707508723191"><ele>1046.0</ele><time>2026-04-30T08:26:39Z</time></trkpt><trkpt lat="31.84134377660784" lon="-4.589922378675826"><ele>1046.0</ele><time>2026-04-30T08:26:40Z</time></trkpt><trkpt lat="31.841204975746393" lon="-4.590134584901803"><ele>1045.5</ele><time>2026-04-30T08:26:41Z</time></trkpt><trkpt lat="31.8410704260858" lon="-4.590350623527645"><ele>1045.0</ele><time>2026-04-30T08:26:42Z</time></trkpt><trkpt lat="31.84093822834948" lon="-4.590567373451227"><ele>1045.0</ele><time>2026-04-30T08:26:43Z</time></trkpt><trkpt lat="31.840806117454047" lon="-4.590781985436946"><ele>1045.0</ele><time>2026-04-30T08:26:44Z</time></trkpt><trkpt lat="31.84067310902061" lon="-4.590993877151369"><ele>1045.0</ele><time>2026-04-30T08:26:45Z</time></trkpt><trkpt lat="31.840540570818685" lon="-4.591201248582966"><ele>1045.3333333333333</ele><time>2026-04-30T08:26:46Z</time></trkpt><trkpt lat="31.840411564361922" lon="-4.591404867308801"><ele>1045.6666666666667</ele><time>2026-04-30T08:26:47Z</time></trkpt><trkpt lat="31.840287973965168" lon="-4.591607879638754"><ele>1046.0</ele><time>2026-04-30T08:26:48Z</time></trkpt><trkpt lat="31.84016367570619" lon="-4.591810655321473"><ele>1045.3333333333335</ele><time>2026-04-30T08:26:49Z</time></trkpt><trkpt lat="31.840037760205874" lon="-4.592011825784493"><ele>1044.6666666666667</ele><time>2026-04-30T08:26:50Z</time></trkpt><trkpt lat="31.83991006694527" lon="-4.592215358404833"><ele>1044.0</ele><time>2026-04-30T08:26:51Z</time></trkpt><trkpt lat="31.83978239853786" lon="-4.592417848038817"><ele>1044.0</ele><time>2026-04-30T08:26:52Z</time></trkpt><trkpt lat="31.839652424497345" lon="-4.592624775245479"><ele>1044.0</ele><time>2026-04-30T08:26:53Z</time></trkpt><trkpt lat="31.839521250680463" lon="-4.592838343017804"><ele>1044.0</ele><time>2026-04-30T08:26:54Z</time></trkpt><trkpt lat="31.839390041104895" lon="-4.5930657090819205"><ele>1042.5</ele><time>2026-04-30T08:26:55Z</time></trkpt><trkpt lat="31.83926062525529" lon="-4.593302244828941"><ele>1041.0</ele><time>2026-04-30T08:26:56Z</time></trkpt><trkpt lat="31.83913462636327" lon="-4.593549306672457"><ele>1040.0</ele><time>2026-04-30T08:26:57Z</time></trkpt><trkpt lat="31.83901212900239" lon="-4.593802976415876"><ele>1039.0</ele><time>2026-04-30T08:26:58Z</time></trkpt><trkpt lat="31.83889327382418" lon="-4.59405892652484"><ele>1039.0</ele><time>2026-04-30T08:26:59Z</time></trkpt><trkpt lat="31.838772479243623" lon="-4.594313508931451"><ele>1039.0</ele><time>2026-04-30T08:27:00Z</time></trkpt><trkpt lat="31.83865502314763" lon="-4.594568836465451"><ele>1039.5</ele><time>2026-04-30T08:27:01Z</time></trkpt><trkpt lat="31.838539467674998" lon="-4.5948207468255875"><ele>1040.0</ele><time>2026-04-30T08:27:02Z</time></trkpt><trkpt lat="31.838423857822285" lon="-4.595069588642173"><ele>1040.0</ele><time>2026-04-30T08:27:03Z</time></trkpt><trkpt lat="31.83831007987846" lon="-4.595314756003314"><ele>1040.0</ele><time>2026-04-30T08:27:04Z</time></trkpt><trkpt lat="31.838196037323613" lon="-4.595555851066514"><ele>1041.0</ele><time>2026-04-30T08:27:05Z</time></trkpt><trkpt lat="31.838079754521043" lon="-4.595797229423513"><ele>1042.0</ele><time>2026-04-30T08:27:06Z</time></trkpt><trkpt lat="31.837962258008968" lon="-4.5960408188564426"><ele>1042.0</ele><time>2026-04-30T08:27:07Z</time></trkpt><trkpt lat="31.8378462923662" lon="-4.596288421951455"><ele>1042.0</ele><time>2026-04-30T08:27:08Z</time></trkpt><trkpt lat="31.83772793080526" lon="-4.5965398883709"><ele>1042.5</ele><time>2026-04-30T08:27:09Z</time></trkpt><trkpt lat="31.83760986098091" lon="-4.596784759557959"><ele>1043.0</ele><time>2026-04-30T08:27:10Z</time></trkpt><trkpt lat="31.83749336205151" lon="-4.597030344941034"><ele>1043.0</ele><time>2026-04-30T08:27:11Z</time></trkpt><trkpt lat="31.837375687807842" lon="-4.597272564086856"><ele>1043.0</ele><time>2026-04-30T08:27:12Z</time></trkpt><trkpt lat="31.837259645328302" lon="-4.597515696397583"><ele>1043.0</ele><time>2026-04-30T08:27:13Z</time></trkpt><trkpt lat="31.837141671807004" lon="-4.5977604625311175"><ele>1043.0</ele><time>2026-04-30T08:27:13.999Z</time></trkpt><trkpt lat="31.83702513607527" lon="-4.598004976694708"><ele>1042.5</ele><time>2026-04-30T08:27:14.999Z</time></trkpt><trkpt lat="31.836908162378254" lon="-4.598250567600545"><ele>1042.0</ele><time>2026-04-30T08:27:15.999Z</time></trkpt><trkpt lat="31.836791343022313" lon="-4.5984999996985785"><ele>1044.0</ele><time>2026-04-30T08:27:16.999Z</time></trkpt><trkpt lat="31.836672839062526" lon="-4.598747779559961"><ele>1046.0</ele><time>2026-04-30T08:27:17.999Z</time></trkpt><trkpt lat="31.836553216229316" lon="-4.5989979440744175"><ele>1046.0</ele><time>2026-04-30T08:27:18.999Z</time></trkpt><trkpt lat="31.83643352484228" lon="-4.599248785697016"><ele>1046.0</ele><time>2026-04-30T08:27:19.999Z</time></trkpt><trkpt lat="31.836315747617178" lon="-4.599502407993518"><ele>1045.5</ele><time>2026-04-30T08:27:20.999Z</time></trkpt><trkpt lat="31.83619543069529" lon="-4.599755946755942"><ele>1045.0</ele><time>2026-04-30T08:27:21.999Z</time></trkpt><trkpt lat="31.836072584041688" lon="-4.600010193797164"><ele>1044.0</ele><time>2026-04-30T08:27:22.999Z</time></trkpt><trkpt lat="31.83595148380515" lon="-4.600263965494263"><ele>1043.0</ele><time>2026-04-30T08:27:23.999Z</time></trkpt><trkpt lat="31.835828959329294" lon="-4.600521697557997"><ele>1043.0</ele><time>2026-04-30T08:27:24.999Z</time></trkpt><trkpt lat="31.835708086341644" lon="-4.600779210076746"><ele>1043.0</ele><time>2026-04-30T08:27:25.999Z</time></trkpt><trkpt lat="31.835585542475975" lon="-4.601036741429907"><ele>1042.0</ele><time>2026-04-30T08:27:26.999Z</time></trkpt><trkpt lat="31.835461426100355" lon="-4.601293608282683"><ele>1041.0</ele><time>2026-04-30T08:27:27.999Z</time></trkpt><trkpt lat="31.835337992232628" lon="-4.6015522621414195"><ele>1041.0</ele><time>2026-04-30T08:27:28.999Z</time></trkpt><trkpt lat="31.83521506752306" lon="-4.601811389870883"><ele>1041.0</ele><time>2026-04-30T08:27:29.999Z</time></trkpt><trkpt lat="31.835091416734137" lon="-4.602071971748078"><ele>1040.0</ele><time>2026-04-30T08:27:30.999Z</time></trkpt><trkpt lat="31.834970735354222" lon="-4.602330417895599"><ele>1039.0</ele><time>2026-04-30T08:27:31.999Z</time></trkpt><trkpt lat="31.834848503873697" lon="-4.6025866692069"><ele>1038.5</ele><time>2026-04-30T08:27:32.999Z</time></trkpt><trkpt lat="31.83472707380469" lon="-4.6028404239408625"><ele>1038.0</ele><time>2026-04-30T08:27:33.999Z</time></trkpt><trkpt lat="31.8346058363532" lon="-4.603091429176236"><ele>1038.0</ele><time>2026-04-30T08:27:34.999Z</time></trkpt><trkpt lat="31.834487838912477" lon="-4.603343288472326"><ele>1038.0</ele><time>2026-04-30T08:27:35.999Z</time></trkpt><trkpt lat="31.834368969688587" lon="-4.603596361693774"><ele>1039.0</ele><time>2026-04-30T08:27:36.999Z</time></trkpt><trkpt lat="31.834251832594315" lon="-4.603849033124498"><ele>1040.0</ele><time>2026-04-30T08:27:37.999Z</time></trkpt><trkpt lat="31.834132097724968" lon="-4.60410286675187"><ele>1040.0</ele><time>2026-04-30T08:27:38.999Z</time></trkpt><trkpt lat="31.83401211656421" lon="-4.604356714165977"><ele>1040.0</ele><time>2026-04-30T08:27:39.999Z</time></trkpt><trkpt lat="31.83389112366925" lon="-4.6046121731294525"><ele>1041.0</ele><time>2026-04-30T08:27:40.999Z</time></trkpt><trkpt lat="31.833770545033897" lon="-4.604871466775087"><ele>1042.0</ele><time>2026-04-30T08:27:41.999Z</time></trkpt><trkpt lat="31.83365120952852" lon="-4.605118827523463"><ele>1039.5</ele><time>2026-04-30T08:27:42.999Z</time></trkpt><trkpt lat="31.83353401153281" lon="-4.60537263093971"><ele>1037.0</ele><time>2026-04-30T08:27:43.999Z</time></trkpt><trkpt lat="31.83341412977425" lon="-4.6056214419447885"><ele>1037.0</ele><time>2026-04-30T08:27:44.999Z</time></trkpt><trkpt lat="31.833292395998892" lon="-4.605871258885574"><ele>1037.0</ele><time>2026-04-30T08:27:45.999Z</time></trkpt><trkpt lat="31.83317177619634" lon="-4.6061223972248335"><ele>1036.0</ele><time>2026-04-30T08:27:46.999Z</time></trkpt><trkpt lat="31.833051065950393" lon="-4.606374711979165"><ele>1035.0</ele><time>2026-04-30T08:27:47.999Z</time></trkpt><trkpt lat="31.832930169683635" lon="-4.60662526550137"><ele>1035.0</ele><time>2026-04-30T08:27:48.999Z</time></trkpt><trkpt lat="31.83281082150112" lon="-4.606874853005114"><ele>1035.0</ele><time>2026-04-30T08:27:49.999Z</time></trkpt><trkpt lat="31.83269166555752" lon="-4.607123410035278"><ele>1034.0</ele><time>2026-04-30T08:27:50.999Z</time></trkpt><trkpt lat="31.832573882611868" lon="-4.607368993942883"><ele>1033.0</ele><time>2026-04-30T08:27:51.999Z</time></trkpt><trkpt lat="31.832458554144953" lon="-4.607611728927353"><ele>1033.0</ele><time>2026-04-30T08:27:52.999Z</time></trkpt><trkpt lat="31.83233977169507" lon="-4.607853635625469"><ele>1033.0</ele><time>2026-04-30T08:27:53.999Z</time></trkpt><trkpt lat="31.83222186154623" lon="-4.608100335154898"><ele>1033.0</ele><time>2026-04-30T08:27:54.999Z</time></trkpt><trkpt lat="31.83210541110273" lon="-4.60834796961107"><ele>1033.0</ele><time>2026-04-30T08:27:55.999Z</time></trkpt><trkpt lat="31.83198856550514" lon="-4.608595061143806"><ele>1034.0</ele><time>2026-04-30T08:27:56.999Z</time></trkpt><trkpt lat="31.83187098198692" lon="-4.608839373743369"><ele>1035.0</ele><time>2026-04-30T08:27:57.999Z</time></trkpt><trkpt lat="31.83175610229211" lon="-4.6090821521592655"><ele>1035.0</ele><time>2026-04-30T08:27:58.999Z</time></trkpt><trkpt lat="31.83164253410347" lon="-4.609325012622236"><ele>1035.0</ele><time>2026-04-30T08:27:59.999Z</time></trkpt><trkpt lat="31.831528847483447" lon="-4.60956695771735"><ele>1035.0</ele><time>2026-04-30T08:28:00.999Z</time></trkpt><trkpt lat="31.831414244852883" lon="-4.609810403277168"><ele>1035.0</ele><time>2026-04-30T08:28:01.999Z</time></trkpt><trkpt lat="31.831298961730646" lon="-4.610054921618984"><ele>1035.0</ele><time>2026-04-30T08:28:02.999Z</time></trkpt><trkpt lat="31.83118191995378" lon="-4.610303317629791"><ele>1035.0</ele><time>2026-04-30T08:28:03.999Z</time></trkpt><trkpt lat="31.831063976186318" lon="-4.610553469299513"><ele>1036.0</ele><time>2026-04-30T08:28:04.999Z</time></trkpt><trkpt lat="31.830946728766854" lon="-4.610800635619543"><ele>1037.0</ele><time>2026-04-30T08:28:06Z</time></trkpt><trkpt lat="31.830830257509334" lon="-4.61104323634709"><ele>1037.5</ele><time>2026-04-30T08:28:07Z</time></trkpt><trkpt lat="31.83071702082434" lon="-4.611279277419901"><ele>1038.0</ele><time>2026-04-30T08:28:08Z</time></trkpt><trkpt lat="31.830609281906195" lon="-4.611505458512288"><ele>1038.0</ele><time>2026-04-30T08:28:09Z</time></trkpt><trkpt lat="31.830504651028463" lon="-4.611724237460925"><ele>1038.0</ele><time>2026-04-30T08:28:10Z</time></trkpt><trkpt lat="31.830401124618362" lon="-4.611941564283812"><ele>1038.0</ele><time>2026-04-30T08:28:11Z</time></trkpt><trkpt lat="31.83029823522134" lon="-4.612157890348329"><ele>1038.3333333333333</ele><time>2026-04-30T08:28:12Z</time></trkpt><trkpt lat="31.830194403932545" lon="-4.612368679208177"><ele>1038.6666666666665</ele><time>2026-04-30T08:28:13Z</time></trkpt><trkpt lat="31.83009350528033" lon="-4.612577868043364"><ele>1039.0</ele><time>2026-04-30T08:28:14Z</time></trkpt><trkpt lat="31.829995734079684" lon="-4.6127876035705615"><ele>1039.3333333333333</ele><time>2026-04-30T08:28:15Z</time></trkpt><trkpt lat="31.829897222055703" lon="-4.612998797333336"><ele>1039.6666666666667</ele><time>2026-04-30T08:28:16Z</time></trkpt><trkpt lat="31.829797140287546" lon="-4.613212208236638"><ele>1040.0</ele><time>2026-04-30T08:28:17Z</time></trkpt><trkpt lat="31.82969652047538" lon="-4.613424783048108"><ele>1040.0</ele><time>2026-04-30T08:28:18Z</time></trkpt><trkpt lat="31.82959568252949" lon="-4.613638447432567"><ele>1040.0</ele><time>2026-04-30T08:28:19Z</time></trkpt><trkpt lat="31.82949483625803" lon="-4.613853524156612"><ele>1040.0</ele><time>2026-04-30T08:28:20Z</time></trkpt><trkpt lat="31.829393054711097" lon="-4.614068405421277"><ele>1039.0</ele><time>2026-04-30T08:28:21Z</time></trkpt><trkpt lat="31.829299225823224" lon="-4.614288963561875"><ele>1038.0</ele><time>2026-04-30T08:28:22Z</time></trkpt><trkpt lat="31.829227857878358" lon="-4.614523122811618"><ele>1037.0</ele><time>2026-04-30T08:28:23Z</time></trkpt><trkpt lat="31.829183260986227" lon="-4.614765627484079"><ele>1036.6666666666667</ele><time>2026-04-30T08:28:24Z</time></trkpt><trkpt lat="31.82913859554249" lon="-4.615003817273557"><ele>1036.3333333333333</ele><time>2026-04-30T08:28:25Z</time></trkpt><trkpt lat="31.829144347593157" lon="-4.61525699707224"><ele>1036.0</ele><time>2026-04-30T08:28:26Z</time></trkpt><trkpt lat="31.82917264163801" lon="-4.6155064246708"><ele>1036.0</ele><time>2026-04-30T08:28:27Z</time></trkpt><trkpt lat="31.829221710033327" lon="-4.61575439968709"><ele>1036.0</ele><time>2026-04-30T08:28:28Z</time></trkpt><trkpt lat="31.829302653139816" lon="-4.6159874961369844"><ele>1036.0</ele><time>2026-04-30T08:28:29Z</time></trkpt><trkpt lat="31.829410947848228" lon="-4.616206760103683"><ele>1036.0</ele><time>2026-04-30T08:28:30Z</time></trkpt><trkpt lat="31.82952715189025" lon="-4.616428200680844"><ele>1036.0</ele><time>2026-04-30T08:28:31Z</time></trkpt><trkpt lat="31.829640780960826" lon="-4.6166580056003355"><ele>1036.0</ele><time>2026-04-30T08:28:32Z</time></trkpt><trkpt lat="31.829751802929007" lon="-4.616891368432723"><ele>1036.0</ele><time>2026-04-30T08:28:33Z</time></trkpt><trkpt lat="31.829859825960835" lon="-4.617121318574686"><ele>1036.0</ele><time>2026-04-30T08:28:34Z</time></trkpt><trkpt lat="31.829973095347928" lon="-4.617360177378708"><ele>1036.0</ele><time>2026-04-30T08:28:35Z</time></trkpt><trkpt lat="31.830080122886937" lon="-4.617594837888955"><ele>1036.0</ele><time>2026-04-30T08:28:36Z</time></trkpt><trkpt lat="31.83018505731945" lon="-4.6178288611811"><ele>1037.0</ele><time>2026-04-30T08:28:37Z</time></trkpt><trkpt lat="31.83029213057576" lon="-4.618062888351285"><ele>1038.0</ele><time>2026-04-30T08:28:38Z</time></trkpt><trkpt lat="31.830401532807308" lon="-4.618296732984285"><ele>1038.0</ele><time>2026-04-30T08:28:39Z</time></trkpt><trkpt lat="31.830509449043117" lon="-4.618530625908882"><ele>1038.0</ele><time>2026-04-30T08:28:40Z</time></trkpt><trkpt lat="31.83061629831255" lon="-4.618768296112022"><ele>1037.5</ele><time>2026-04-30T08:28:41Z</time></trkpt><trkpt lat="31.830722292530197" lon="-4.619003874636841"><ele>1037.0</ele><time>2026-04-30T08:28:42Z</time></trkpt><trkpt lat="31.830832032704212" lon="-4.619237966995324"><ele>1037.0</ele><time>2026-04-30T08:28:43Z</time></trkpt><trkpt lat="31.830941526294268" lon="-4.619474100889181"><ele>1037.0</ele><time>2026-04-30T08:28:44Z</time></trkpt><trkpt lat="31.83105309484408" lon="-4.619709984752292"><ele>1037.0</ele><time>2026-04-30T08:28:45Z</time></trkpt><trkpt lat="31.831163618286748" lon="-4.619950778272186"><ele>1037.0</ele><time>2026-04-30T08:28:46Z</time></trkpt><trkpt lat="31.831273470935376" lon="-4.620188609966508"><ele>1036.5</ele><time>2026-04-30T08:28:47Z</time></trkpt><trkpt lat="31.8313809941665" lon="-4.620428739356361"><ele>1036.0</ele><time>2026-04-30T08:28:48Z</time></trkpt><trkpt lat="31.831490050776225" lon="-4.620669959319829"><ele>1036.0</ele><time>2026-04-30T08:28:49Z</time></trkpt><trkpt lat="31.831599576478467" lon="-4.62091046833202"><ele>1036.0</ele><time>2026-04-30T08:28:50Z</time></trkpt><trkpt lat="31.83170709869629" lon="-4.6211505710569005"><ele>1037.5</ele><time>2026-04-30T08:28:51Z</time></trkpt><trkpt lat="31.83181605088397" lon="-4.621392694358904"><ele>1039.0</ele><time>2026-04-30T08:28:52Z</time></trkpt><trkpt lat="31.83192637715135" lon="-4.621631326526779"><ele>1039.0</ele><time>2026-04-30T08:28:53Z</time></trkpt><trkpt lat="31.83203822630213" lon="-4.621870596084948"><ele>1039.0</ele><time>2026-04-30T08:28:54Z</time></trkpt><trkpt lat="31.832148740271492" lon="-4.622111063872722"><ele>1039.5</ele><time>2026-04-30T08:28:55Z</time></trkpt><trkpt lat="31.832256219145833" lon="-4.622353031880219"><ele>1040.0</ele><time>2026-04-30T08:28:56Z</time></trkpt><trkpt lat="31.832363507660098" lon="-4.622594433766788"><ele>1040.0</ele><time>2026-04-30T08:28:57Z</time></trkpt><trkpt lat="31.832473149512474" lon="-4.622834701229633"><ele>1040.0</ele><time>2026-04-30T08:28:58Z</time></trkpt><trkpt lat="31.832583575001834" lon="-4.623072532181535"><ele>1040.0</ele><time>2026-04-30T08:28:59Z</time></trkpt><trkpt lat="31.832696130709973" lon="-4.623313171589691"><ele>1040.0</ele><time>2026-04-30T08:29:00Z</time></trkpt><trkpt lat="31.83280746580045" lon="-4.623553504690498"><ele>1040.0</ele><time>2026-04-30T08:29:01Z</time></trkpt><trkpt lat="31.832918294714737" lon="-4.623796164949686"><ele>1040.0</ele><time>2026-04-30T08:29:02Z</time></trkpt><trkpt lat="31.83302915568598" lon="-4.624040550930765"><ele>1040.0</ele><time>2026-04-30T08:29:03Z</time></trkpt><trkpt lat="31.833140255205535" lon="-4.624285948571188"><ele>1040.0</ele><time>2026-04-30T08:29:04Z</time></trkpt><trkpt lat="31.833252458231236" lon="-4.624532363646754"><ele>1039.0</ele><time>2026-04-30T08:29:05Z</time></trkpt><trkpt lat="31.833367938045907" lon="-4.6247816604559615"><ele>1038.0</ele><time>2026-04-30T08:29:06Z</time></trkpt><trkpt lat="31.833492096766793" lon="-4.625019221461949"><ele>1038.5</ele><time>2026-04-30T08:29:07Z</time></trkpt><trkpt lat="31.833607520233095" lon="-4.625265556738198"><ele>1039.0</ele><time>2026-04-30T08:29:08Z</time></trkpt><trkpt lat="31.8337213593973" lon="-4.625502978852737"><ele>1039.0</ele><time>2026-04-30T08:29:09Z</time></trkpt><trkpt lat="31.833830696936626" lon="-4.625739193718102"><ele>1039.0</ele><time>2026-04-30T08:29:10Z</time></trkpt><trkpt lat="31.833908402075718" lon="-4.625974272376715"><ele>1039.0</ele><time>2026-04-30T08:29:10.999Z</time></trkpt><trkpt lat="31.833992250964258" lon="-4.626207435601621"><ele>1039.3333333333333</ele><time>2026-04-30T08:29:11.999Z</time></trkpt><trkpt lat="31.83406330467312" lon="-4.626446714719111"><ele>1039.6666666666667</ele><time>2026-04-30T08:29:12.999Z</time></trkpt><trkpt lat="31.834113927954032" lon="-4.626691484440896"><ele>1040.0</ele><time>2026-04-30T08:29:13.999Z</time></trkpt><trkpt lat="31.834151574033005" lon="-4.6269385087516826"><ele>1039.3333333333335</ele><time>2026-04-30T08:29:14.999Z</time></trkpt><trkpt lat="31.834175606282315" lon="-4.627188494632057"><ele>1038.6666666666667</ele><time>2026-04-30T08:29:15.999Z</time></trkpt><trkpt lat="31.83418894387033" lon="-4.627441535219035"><ele>1038.0</ele><time>2026-04-30T08:29:16.999Z</time></trkpt><trkpt lat="31.83417916165833" lon="-4.627700700656351"><ele>1037.5</ele><time>2026-04-30T08:29:17.999Z</time></trkpt><trkpt lat="31.83413920627129" lon="-4.627961456151076"><ele>1037.0</ele><time>2026-04-30T08:29:18.999Z</time></trkpt><trkpt lat="31.834084248098343" lon="-4.628219759261373"><ele>1037.0</ele><time>2026-04-30T08:29:19.999Z</time></trkpt><trkpt lat="31.834009608548484" lon="-4.628476569608554"><ele>1037.0</ele><time>2026-04-30T08:29:20.999Z</time></trkpt><trkpt lat="31.83392340168827" lon="-4.628731488428081"><ele>1036.5</ele><time>2026-04-30T08:29:21.999Z</time></trkpt><trkpt lat="31.8338314441586" lon="-4.628986833605789"><ele>1036.0</ele><time>2026-04-30T08:29:22.999Z</time></trkpt><trkpt lat="31.83374125588007" lon="-4.629242600592049"><ele>1036.5</ele><time>2026-04-30T08:29:23.999Z</time></trkpt><trkpt lat="31.83365105873227" lon="-4.629502416732905"><ele>1037.0</ele><time>2026-04-30T08:29:24.999Z</time></trkpt><trkpt lat="31.833560668068486" lon="-4.629762801116994"><ele>1039.0</ele><time>2026-04-30T08:29:25.999Z</time></trkpt><trkpt lat="31.833468453258273" lon="-4.630022570110949"><ele>1041.0</ele><time>2026-04-30T08:29:26.999Z</time></trkpt><trkpt lat="31.833376803109637" lon="-4.6302821563167464"><ele>1043.0</ele><time>2026-04-30T08:29:27.999Z</time></trkpt><trkpt lat="31.83328721515918" lon="-4.630545994552448"><ele>1045.0</ele><time>2026-04-30T08:29:28.999Z</time></trkpt><trkpt lat="31.833197762958022" lon="-4.630810773184287"><ele>1045.0</ele><time>2026-04-30T08:29:29.999Z</time></trkpt><trkpt lat="31.83310583558474" lon="-4.631077213052867"><ele>1045.0</ele><time>2026-04-30T08:29:30.999Z</time></trkpt><trkpt lat="31.83301239355713" lon="-4.631342721027582"><ele>1044.0</ele><time>2026-04-30T08:29:31.999Z</time></trkpt><trkpt lat="31.832918752318847" lon="-4.631611568519813"><ele>1043.0</ele><time>2026-04-30T08:29:32.999Z</time></trkpt><trkpt lat="31.832825558496786" lon="-4.631879501032876"><ele>1042.0</ele><time>2026-04-30T08:29:33.999Z</time></trkpt><trkpt lat="31.8327330146701" lon="-4.632149603593723"><ele>1041.0</ele><time>2026-04-30T08:29:34.999Z</time></trkpt><trkpt lat="31.832640769329497" lon="-4.63241651104529"><ele>1040.5</ele><time>2026-04-30T08:29:35.999Z</time></trkpt><trkpt lat="31.83254912719822" lon="-4.632685686665547"><ele>1040.0</ele><time>2026-04-30T08:29:36.999Z</time></trkpt><trkpt lat="31.832456278095464" lon="-4.632954519783085"><ele>1039.5</ele><time>2026-04-30T08:29:37.999Z</time></trkpt><trkpt lat="31.832362488803756" lon="-4.633224536322161"><ele>1039.0</ele><time>2026-04-30T08:29:38.999Z</time></trkpt><trkpt lat="31.83226808198555" lon="-4.633495073021827"><ele>1039.5</ele><time>2026-04-30T08:29:39.999Z</time></trkpt><trkpt lat="31.83217308736355" lon="-4.633771435714847"><ele>1040.0</ele><time>2026-04-30T08:29:40.999Z</time></trkpt><trkpt lat="31.83207824221333" lon="-4.634049291062714"><ele>1040.0</ele><time>2026-04-30T08:29:41.999Z</time></trkpt><trkpt lat="31.831981311814697" lon="-4.634329604172889"><ele>1040.0</ele><time>2026-04-30T08:29:42.999Z</time></trkpt><trkpt lat="31.831884073690787" lon="-4.634611815814524"><ele>1038.0</ele><time>2026-04-30T08:29:43.999Z</time></trkpt><trkpt lat="31.831786189072016" lon="-4.634890201454762"><ele>1036.0</ele><time>2026-04-30T08:29:44.999Z</time></trkpt><trkpt lat="31.831690650528515" lon="-4.635169554728506"><ele>1036.0</ele><time>2026-04-30T08:29:45.999Z</time></trkpt><trkpt lat="31.831593748122682" lon="-4.635446863257624"><ele>1036.0</ele><time>2026-04-30T08:29:46.999Z</time></trkpt><trkpt lat="31.831495321258586" lon="-4.6357236271911235"><ele>1036.0</ele><time>2026-04-30T08:29:47.999Z</time></trkpt><trkpt lat="31.831400561682592" lon="-4.635997211864396"><ele>1036.0</ele><time>2026-04-30T08:29:48.999Z</time></trkpt><trkpt lat="31.83130966779986" lon="-4.636271963318688"><ele>1036.5</ele><time>2026-04-30T08:29:49.999Z</time></trkpt><trkpt lat="31.831218542014135" lon="-4.636543085155051"><ele>1037.0</ele><time>2026-04-30T08:29:50.999Z</time></trkpt><trkpt lat="31.831125239140963" lon="-4.636813394168759"><ele>1036.5</ele><time>2026-04-30T08:29:51.999Z</time></trkpt><trkpt lat="31.83103372212924" lon="-4.637082456386137"><ele>1036.0</ele><time>2026-04-30T08:29:52.999Z</time></trkpt><trkpt lat="31.83094297619802" lon="-4.637353246043347"><ele>1035.5</ele><time>2026-04-30T08:29:53.999Z</time></trkpt><trkpt lat="31.83085129118918" lon="-4.637621138777416"><ele>1035.0</ele><time>2026-04-30T08:29:54.999Z</time></trkpt><trkpt lat="31.830758746943943" lon="-4.637888786076848"><ele>1037.5</ele><time>2026-04-30T08:29:55.999Z</time></trkpt><trkpt lat="31.830665701521387" lon="-4.638156236475648"><ele>1040.0</ele><time>2026-04-30T08:29:56.999Z</time></trkpt><trkpt lat="31.830572574798445" lon="-4.638425225548204"><ele>1041.0</ele><time>2026-04-30T08:29:57.999Z</time></trkpt><trkpt lat="31.830478579182092" lon="-4.638696134538714"><ele>1042.0</ele><time>2026-04-30T08:29:58.999Z</time></trkpt><trkpt lat="31.83038471601083" lon="-4.638969010555526"><ele>1042.0</ele><time>2026-04-30T08:29:59.999Z</time></trkpt><trkpt lat="31.830292974293492" lon="-4.639241221297189"><ele>1042.0</ele><time>2026-04-30T08:30:00.999Z</time></trkpt><trkpt lat="31.83020022497934" lon="-4.639513026122176"><ele>1041.0</ele><time>2026-04-30T08:30:01.999Z</time></trkpt><trkpt lat="31.83010611933864" lon="-4.6397873754410135"><ele>1040.0</ele><time>2026-04-30T08:30:02.999Z</time></trkpt><trkpt lat="31.83001257377753" lon="-4.640060553770593"><ele>1040.0</ele><time>2026-04-30T08:30:03.999Z</time></trkpt><trkpt lat="31.829920447848913" lon="-4.640333886723224"><ele>1040.0</ele><time>2026-04-30T08:30:04.999Z</time></trkpt><trkpt lat="31.8298277628082" lon="-4.640606577306827"><ele>1040.0</ele><time>2026-04-30T08:30:05.999Z</time></trkpt><trkpt lat="31.82973547869878" lon="-4.640873596972047"><ele>1040.0</ele><time>2026-04-30T08:30:06.999Z</time></trkpt><trkpt lat="31.829643337297263" lon="-4.641132605232752"><ele>1038.5</ele><time>2026-04-30T08:30:07.999Z</time></trkpt><trkpt lat="31.829556932081314" lon="-4.641387631212228"><ele>1037.0</ele><time>2026-04-30T08:30:08.999Z</time></trkpt><trkpt lat="31.829475111671975" lon="-4.641629278107861"><ele>1037.0</ele><time>2026-04-30T08:30:09.999Z</time></trkpt><trkpt lat="31.829395156548426" lon="-4.641860408566234"><ele>1037.0</ele><time>2026-04-30T08:30:10.999Z</time></trkpt><trkpt lat="31.82931657075142" lon="-4.642086219574135"><ele>1037.0</ele><time>2026-04-30T08:30:12Z</time></trkpt><trkpt lat="31.829231022016764" lon="-4.642305649052075"><ele>1037.3333333333335</ele><time>2026-04-30T08:30:13Z</time></trkpt><trkpt lat="31.829128535980185" lon="-4.6425169823358825"><ele>1037.6666666666667</ele><time>2026-04-30T08:30:14Z</time></trkpt><trkpt lat="31.82901367506234" lon="-4.6427230620813065"><ele>1038.0</ele><time>2026-04-30T08:30:15Z</time></trkpt><trkpt lat="31.82888693962675" lon="-4.6429176902524425"><ele>1038.0</ele><time>2026-04-30T08:30:16Z</time></trkpt><trkpt lat="31.82874666515334" lon="-4.643099988702765"><ele>1038.0</ele><time>2026-04-30T08:30:17Z</time></trkpt><trkpt lat="31.828594371464746" lon="-4.6432736693897"><ele>1038.0</ele><time>2026-04-30T08:30:18Z</time></trkpt><trkpt lat="31.828432085420875" lon="-4.6434371581545255"><ele>1037.0</ele><time>2026-04-30T08:30:19Z</time></trkpt><trkpt lat="31.828265049769826" lon="-4.643589940598609"><ele>1036.0</ele><time>2026-04-30T08:30:20Z</time></trkpt><trkpt lat="31.828090744537555" lon="-4.6437421603216515"><ele>1035.0</ele><time>2026-04-30T08:30:21Z</time></trkpt><trkpt lat="31.827915642574784" lon="-4.643891815175197"><ele>1034.3333333333333</ele><time>2026-04-30T08:30:22Z</time></trkpt><trkpt lat="31.82773944083609" lon="-4.644043844123143"><ele>1033.6666666666665</ele><time>2026-04-30T08:30:23Z</time></trkpt><trkpt lat="31.827563392534376" lon="-4.644201131052778"><ele>1033.0</ele><time>2026-04-30T08:30:24Z</time></trkpt><trkpt lat="31.827384078083988" lon="-4.644357048791703"><ele>1033.3333333333333</ele><time>2026-04-30T08:30:25Z</time></trkpt><trkpt lat="31.827204419733704" lon="-4.6445094568323055"><ele>1033.6666666666667</ele><time>2026-04-30T08:30:26Z</time></trkpt><trkpt lat="31.827025785911133" lon="-4.644668452883726"><ele>1034.0</ele><time>2026-04-30T08:30:27Z</time></trkpt><trkpt lat="31.826847947501406" lon="-4.644825268125316"><ele>1034.5</ele><time>2026-04-30T08:30:28Z</time></trkpt><trkpt lat="31.826669023483728" lon="-4.644983034938531"><ele>1035.0</ele><time>2026-04-30T08:30:29Z</time></trkpt><trkpt lat="31.826489389005808" lon="-4.6451457514603245"><ele>1036.0</ele><time>2026-04-30T08:30:30Z</time></trkpt><trkpt lat="31.82631738500328" lon="-4.645312239023075"><ele>1037.0</ele><time>2026-04-30T08:30:31Z</time></trkpt><trkpt lat="31.826147801110707" lon="-4.645487176828756"><ele>1038.0</ele><time>2026-04-30T08:30:32Z</time></trkpt><trkpt lat="31.82598938810042" lon="-4.645677285799945"><ele>1035.5</ele><time>2026-04-30T08:30:33Z</time></trkpt><trkpt lat="31.82583637387252" lon="-4.645876041691109"><ele>1033.0</ele><time>2026-04-30T08:30:34Z</time></trkpt><trkpt lat="31.82569141086174" lon="-4.6460850289399405"><ele>1033.5</ele><time>2026-04-30T08:30:35Z</time></trkpt><trkpt lat="31.82555732462502" lon="-4.646304824191207"><ele>1034.0</ele><time>2026-04-30T08:30:36Z</time></trkpt><trkpt lat="31.825424537481403" lon="-4.646531926208529"><ele>1034.0</ele><time>2026-04-30T08:30:37Z</time></trkpt><trkpt lat="31.825293487052395" lon="-4.646762970325178"><ele>1034.0</ele><time>2026-04-30T08:30:38Z</time></trkpt><trkpt lat="31.82516539536649" lon="-4.646995465421192"><ele>1034.0</ele><time>2026-04-30T08:30:39Z</time></trkpt><trkpt lat="31.825035721531822" lon="-4.647231800123335"><ele>1034.0</ele><time>2026-04-30T08:30:40Z</time></trkpt><trkpt lat="31.824903473524394" lon="-4.647467381879455"><ele>1034.0</ele><time>2026-04-30T08:30:41Z</time></trkpt><trkpt lat="31.824769384342034" lon="-4.647701941161835"><ele>1034.0</ele><time>2026-04-30T08:30:42Z</time></trkpt><trkpt lat="31.824634641149107" lon="-4.647935184202251"><ele>1035.5</ele><time>2026-04-30T08:30:43Z</time></trkpt><trkpt lat="31.824501813222646" lon="-4.648171073644397"><ele>1037.0</ele><time>2026-04-30T08:30:44Z</time></trkpt><trkpt lat="31.824368878414116" lon="-4.64840950930081"><ele>1037.0</ele><time>2026-04-30T08:30:45Z</time></trkpt><trkpt lat="31.82423679550855" lon="-4.64864730682321"><ele>1037.0</ele><time>2026-04-30T08:30:46Z</time></trkpt><trkpt lat="31.824103163812836" lon="-4.648883587023025"><ele>1037.0</ele><time>2026-04-30T08:30:47Z</time></trkpt><trkpt lat="31.82396924938901" lon="-4.649118170922514"><ele>1037.0</ele><time>2026-04-30T08:30:48Z</time></trkpt><trkpt lat="31.823835179706094" lon="-4.649351347813134"><ele>1037.5</ele><time>2026-04-30T08:30:49Z</time></trkpt><trkpt lat="31.823700131000702" lon="-4.649583069947457"><ele>1038.0</ele><time>2026-04-30T08:30:50Z</time></trkpt><trkpt lat="31.823566826245788" lon="-4.649816065183997"><ele>1037.5</ele><time>2026-04-30T08:30:51Z</time></trkpt><trkpt lat="31.823436857563212" lon="-4.650052781971121"><ele>1037.0</ele><time>2026-04-30T08:30:52Z</time></trkpt><trkpt lat="31.82330719333637" lon="-4.650287756490641"><ele>1037.5</ele><time>2026-04-30T08:30:53Z</time></trkpt><trkpt lat="31.823174771157237" lon="-4.6505192152688295"><ele>1038.0</ele><time>2026-04-30T08:30:54Z</time></trkpt><trkpt lat="31.823041938468332" lon="-4.650748757940971"><ele>1038.0</ele><time>2026-04-30T08:30:55Z</time></trkpt><trkpt lat="31.822911150847222" lon="-4.650977893522286"><ele>1038.0</ele><time>2026-04-30T08:30:56Z</time></trkpt><trkpt lat="31.822780907483054" lon="-4.6512064897787"><ele>1039.0</ele><time>2026-04-30T08:30:57Z</time></trkpt><trkpt lat="31.82265257138288" lon="-4.65143535134368"><ele>1040.0</ele><time>2026-04-30T08:30:58Z</time></trkpt><trkpt lat="31.822523847531574" lon="-4.651662762381933"><ele>1040.0</ele><time>2026-04-30T08:30:59Z</time></trkpt><trkpt lat="31.822393914797196" lon="-4.651892025104198"><ele>1040.0</ele><time>2026-04-30T08:31:00Z</time></trkpt><trkpt lat="31.822263773519534" lon="-4.652119751068824"><ele>1040.5</ele><time>2026-04-30T08:31:01Z</time></trkpt><trkpt lat="31.822134359430294" lon="-4.652349237664184"><ele>1041.0</ele><time>2026-04-30T08:31:02Z</time></trkpt><trkpt lat="31.822004402991706" lon="-4.652579542979971"><ele>1040.5</ele><time>2026-04-30T08:31:03Z</time></trkpt><trkpt lat="31.82187452857316" lon="-4.6528094471530625"><ele>1040.0</ele><time>2026-04-30T08:31:04Z</time></trkpt><trkpt lat="31.821742877315526" lon="-4.653038305491287"><ele>1039.5</ele><time>2026-04-30T08:31:05Z</time></trkpt><trkpt lat="31.821614824117397" lon="-4.6532654985881585"><ele>1039.0</ele><time>2026-04-30T08:31:06Z</time></trkpt><trkpt lat="31.821487839268556" lon="-4.653493501444741"><ele>1041.0</ele><time>2026-04-30T08:31:07Z</time></trkpt><trkpt lat="31.821361171579728" lon="-4.653722360627781"><ele>1043.0</ele><time>2026-04-30T08:31:08Z</time></trkpt><trkpt lat="31.821234381046416" lon="-4.6539518093776495"><ele>1043.0</ele><time>2026-04-30T08:31:09Z</time></trkpt><trkpt lat="31.821105565730754" lon="-4.6541793878954385"><ele>1043.0</ele><time>2026-04-30T08:31:10Z</time></trkpt><trkpt lat="31.82097362853521" lon="-4.654405633888514"><ele>1042.0</ele><time>2026-04-30T08:31:10.999Z</time></trkpt><trkpt lat="31.820846566961485" lon="-4.654634016995564"><ele>1041.0</ele><time>2026-04-30T08:31:11.999Z</time></trkpt><trkpt lat="31.82072967964748" lon="-4.654868994985144"><ele>1041.0</ele><time>2026-04-30T08:31:12.999Z</time></trkpt><trkpt lat="31.82062889829028" lon="-4.655114485366125"><ele>1041.0</ele><time>2026-04-30T08:31:13.999Z</time></trkpt><trkpt lat="31.82054192600204" lon="-4.655368384234798"><ele>1041.5</ele><time>2026-04-30T08:31:14.999Z</time></trkpt><trkpt lat="31.82046423615074" lon="-4.655628027940806"><ele>1042.0</ele><time>2026-04-30T08:31:15.999Z</time></trkpt><trkpt lat="31.820401488637142" lon="-4.6558956805927245"><ele>1041.5</ele><time>2026-04-30T08:31:16.999Z</time></trkpt><trkpt lat="31.820346706044436" lon="-4.656166545513062"><ele>1041.0</ele><time>2026-04-30T08:31:17.999Z</time></trkpt><trkpt lat="31.820303525968622" lon="-4.656443912028481"><ele>1041.0</ele><time>2026-04-30T08:31:18.999Z</time></trkpt><trkpt lat="31.820276740601567" lon="-4.656725025485848"><ele>1041.0</ele><time>2026-04-30T08:31:19.999Z</time></trkpt><trkpt lat="31.82026986135352" lon="-4.657013018964261"><ele>1041.0</ele><time>2026-04-30T08:31:20.999Z</time></trkpt><trkpt lat="31.820264992338842" lon="-4.657302520875295"><ele>1041.0</ele><time>2026-04-30T08:31:21.999Z</time></trkpt><trkpt lat="31.820266341553097" lon="-4.657593309979996"><ele>1040.5</ele><time>2026-04-30T08:31:22.999Z</time></trkpt><trkpt lat="31.820306274938844" lon="-4.657873420719742"><ele>1040.0</ele><time>2026-04-30T08:31:23.999Z</time></trkpt><trkpt lat="31.820355068328606" lon="-4.658151344019734"><ele>1040.0</ele><time>2026-04-30T08:31:24.999Z</time></trkpt><trkpt lat="31.820406832016335" lon="-4.658424865709369"><ele>1040.0</ele><time>2026-04-30T08:31:25.999Z</time></trkpt><trkpt lat="31.82046697925725" lon="-4.658693354719596"><ele>1040.0</ele><time>2026-04-30T08:31:26.999Z</time></trkpt><trkpt lat="31.820527619086644" lon="-4.6589621274506445"><ele>1040.0</ele><time>2026-04-30T08:31:27.999Z</time></trkpt><trkpt lat="31.820576060829595" lon="-4.659235622090419"><ele>1041.0</ele><time>2026-04-30T08:31:28.999Z</time></trkpt><trkpt lat="31.82062058179585" lon="-4.659506034892309"><ele>1042.0</ele><time>2026-04-30T08:31:29.999Z</time></trkpt><trkpt lat="31.820665188368967" lon="-4.65977696792528"><ele>1042.0</ele><time>2026-04-30T08:31:30.999Z</time></trkpt><trkpt lat="31.820674999339733" lon="-4.660056999967132"><ele>1042.0</ele><time>2026-04-30T08:31:31.999Z</time></trkpt><trkpt lat="31.820717992083114" lon="-4.660332579725737"><ele>1042.5</ele><time>2026-04-30T08:31:32.999Z</time></trkpt><trkpt lat="31.820694340166565" lon="-4.660618152312475"><ele>1043.0</ele><time>2026-04-30T08:31:33.999Z</time></trkpt><trkpt lat="31.8206835913367" lon="-4.660901688742898"><ele>1043.5</ele><time>2026-04-30T08:31:34.999Z</time></trkpt><trkpt lat="31.820663505219375" lon="-4.66118809221858"><ele>1044.0</ele><time>2026-04-30T08:31:35.999Z</time></trkpt><trkpt lat="31.820628894285136" lon="-4.661473275385922"><ele>1044.0</ele><time>2026-04-30T08:31:36.999Z</time></trkpt><trkpt lat="31.82057520129584" lon="-4.661755590542618"><ele>1044.0</ele><time>2026-04-30T08:31:37.999Z</time></trkpt><trkpt lat="31.820506840045052" lon="-4.662029914966123"><ele>1043.5</ele><time>2026-04-30T08:31:38.999Z</time></trkpt><trkpt lat="31.82042703863523" lon="-4.662299484461318"><ele>1043.0</ele><time>2026-04-30T08:31:39.999Z</time></trkpt><trkpt lat="31.82034019933215" lon="-4.662565498507008"><ele>1043.0</ele><time>2026-04-30T08:31:40.999Z</time></trkpt><trkpt lat="31.82024409584023" lon="-4.6628291718306"><ele>1043.0</ele><time>2026-04-30T08:31:41.999Z</time></trkpt><trkpt lat="31.820134616777203" lon="-4.663086169747487"><ele>1042.5</ele><time>2026-04-30T08:31:42.999Z</time></trkpt><trkpt lat="31.820010192230576" lon="-4.663337644769454"><ele>1042.0</ele><time>2026-04-30T08:31:43.999Z</time></trkpt><trkpt lat="31.819879685759375" lon="-4.663583715946078"><ele>1042.5</ele><time>2026-04-30T08:31:44.999Z</time></trkpt><trkpt lat="31.819736463854873" lon="-4.663832593742985"><ele>1043.0</ele><time>2026-04-30T08:31:45.999Z</time></trkpt><trkpt lat="31.819591684179585" lon="-4.66408508034201"><ele>1043.0</ele><time>2026-04-30T08:31:46.999Z</time></trkpt><trkpt lat="31.81944660160176" lon="-4.664349962926559"><ele>1043.0</ele><time>2026-04-30T08:31:47.999Z</time></trkpt><trkpt lat="31.8193100351513" lon="-4.6646218329037"><ele>1042.0</ele><time>2026-04-30T08:31:48.999Z</time></trkpt><trkpt lat="31.819178988022664" lon="-4.6648904320612266"><ele>1041.0</ele><time>2026-04-30T08:31:49.999Z</time></trkpt><trkpt lat="31.819048915199534" lon="-4.665159043951037"><ele>1041.0</ele><time>2026-04-30T08:31:50.999Z</time></trkpt><trkpt lat="31.818916406161904" lon="-4.665423800704981"><ele>1041.0</ele><time>2026-04-30T08:31:51.999Z</time></trkpt><trkpt lat="31.81878111015732" lon="-4.66568629013011"><ele>1041.0</ele><time>2026-04-30T08:31:52.999Z</time></trkpt><trkpt lat="31.81864716579137" lon="-4.665947078763631"><ele>1041.0</ele><time>2026-04-30T08:31:53.999Z</time></trkpt><trkpt lat="31.81851401612542" lon="-4.666207047383931"><ele>1041.5</ele><time>2026-04-30T08:31:54.999Z</time></trkpt><trkpt lat="31.81837959801477" lon="-4.666466241437228"><ele>1042.0</ele><time>2026-04-30T08:31:55.999Z</time></trkpt><trkpt lat="31.81824506303323" lon="-4.666726572652109"><ele>1042.0</ele><time>2026-04-30T08:31:56.999Z</time></trkpt><trkpt lat="31.818111491477925" lon="-4.666986680570241"><ele>1042.0</ele><time>2026-04-30T08:31:57.999Z</time></trkpt><trkpt lat="31.817977232561333" lon="-4.6672442156836045"><ele>1042.0</ele><time>2026-04-30T08:31:58.999Z</time></trkpt><trkpt lat="31.817843282345258" lon="-4.667502754760479"><ele>1042.0</ele><time>2026-04-30T08:31:59.999Z</time></trkpt><trkpt lat="31.817709399003732" lon="-4.667760353685754"><ele>1043.0</ele><time>2026-04-30T08:32:00.999Z</time></trkpt><trkpt lat="31.81757583970748" lon="-4.668017308359132"><ele>1044.0</ele><time>2026-04-30T08:32:01.999Z</time></trkpt><trkpt lat="31.817442913136766" lon="-4.668275006861689"><ele>1044.0</ele><time>2026-04-30T08:32:02.999Z</time></trkpt><trkpt lat="31.817309462171874" lon="-4.668531668879229"><ele>1044.0</ele><time>2026-04-30T08:32:03.999Z</time></trkpt><trkpt lat="31.817175367750025" lon="-4.668786969714085"><ele>1044.5</ele><time>2026-04-30T08:32:04.999Z</time></trkpt><trkpt lat="31.817041927978885" lon="-4.66904374989556"><ele>1045.0</ele><time>2026-04-30T08:32:05.999Z</time></trkpt><trkpt lat="31.81690931873592" lon="-4.669301095959303"><ele>1043.5</ele><time>2026-04-30T08:32:06.999Z</time></trkpt><trkpt lat="31.81677537655395" lon="-4.669558881112797"><ele>1042.0</ele><time>2026-04-30T08:32:07.999Z</time></trkpt><trkpt lat="31.816642403858708" lon="-4.669817095518288"><ele>1042.0</ele><time>2026-04-30T08:32:08.999Z</time></trkpt><trkpt lat="31.81651008916777" lon="-4.670077903328711"><ele>1042.0</ele><time>2026-04-30T08:32:09.999Z</time></trkpt><trkpt lat="31.816375718274948" lon="-4.670338326849311"><ele>1042.5</ele><time>2026-04-30T08:32:10.999Z</time></trkpt><trkpt lat="31.816240639740894" lon="-4.670598428638507"><ele>1043.0</ele><time>2026-04-30T08:32:11.999Z</time></trkpt><trkpt lat="31.816105488502746" lon="-4.670859353669272"><ele>1042.0</ele><time>2026-04-30T08:32:12.999Z</time></trkpt><trkpt lat="31.815969067757955" lon="-4.6711212356181795"><ele>1041.0</ele><time>2026-04-30T08:32:13.999Z</time></trkpt><trkpt lat="31.81583266984813" lon="-4.671383073192412"><ele>1041.0</ele><time>2026-04-30T08:32:14.999Z</time></trkpt><trkpt lat="31.81569458397071" lon="-4.671647098089592"><ele>1041.0</ele><time>2026-04-30T08:32:15.999Z</time></trkpt><trkpt lat="31.815556647647135" lon="-4.671910614901122"><ele>1040.5</ele><time>2026-04-30T08:32:16.999Z</time></trkpt><trkpt lat="31.815419316828812" lon="-4.67217265415826"><ele>1040.0</ele><time>2026-04-30T08:32:18Z</time></trkpt><trkpt lat="31.81528271525189" lon="-4.672431171224939"><ele>1039.5</ele><time>2026-04-30T08:32:19Z</time></trkpt><trkpt lat="31.815149242097565" lon="-4.672693455744227"><ele>1039.0</ele><time>2026-04-30T08:32:20Z</time></trkpt><trkpt lat="31.815015243092365" lon="-4.672958165218383"><ele>1040.0</ele><time>2026-04-30T08:32:21Z</time></trkpt><trkpt lat="31.81488103426692" lon="-4.673221626168293"><ele>1041.0</ele><time>2026-04-30T08:32:22Z</time></trkpt><trkpt lat="31.81474367832988" lon="-4.6734863977225505"><ele>1042.5</ele><time>2026-04-30T08:32:23Z</time></trkpt><trkpt lat="31.8146038066889" lon="-4.673749790426865"><ele>1044.0</ele><time>2026-04-30T08:32:24Z</time></trkpt><trkpt lat="31.81446571013915" lon="-4.674013208873742"><ele>1044.0</ele><time>2026-04-30T08:32:25Z</time></trkpt><trkpt lat="31.81432775094362" lon="-4.674277767081239"><ele>1044.0</ele><time>2026-04-30T08:32:26Z</time></trkpt><trkpt lat="31.814188609417272" lon="-4.6745407796344765"><ele>1044.0</ele><time>2026-04-30T08:32:27Z</time></trkpt><trkpt lat="31.814049621566067" lon="-4.674803232436477"><ele>1044.0</ele><time>2026-04-30T08:32:28Z</time></trkpt><trkpt lat="31.813908565618007" lon="-4.67506840260011"><ele>1043.5</ele><time>2026-04-30T08:32:29Z</time></trkpt><trkpt lat="31.81377033370678" lon="-4.675334237295264"><ele>1043.0</ele><time>2026-04-30T08:32:30Z</time></trkpt><trkpt lat="31.813632453777597" lon="-4.675602967789861"><ele>1043.0</ele><time>2026-04-30T08:32:31Z</time></trkpt><trkpt lat="31.813493974411603" lon="-4.675871238241424"><ele>1043.0</ele><time>2026-04-30T08:32:32Z</time></trkpt><trkpt lat="31.81335576274379" lon="-4.676140180740962"><ele>1043.0</ele><time>2026-04-30T08:32:33Z</time></trkpt><trkpt lat="31.813218087072972" lon="-4.676409576464924"><ele>1043.0</ele><time>2026-04-30T08:32:34Z</time></trkpt><trkpt lat="31.813079913144854" lon="-4.676678734921576"><ele>1043.5</ele><time>2026-04-30T08:32:35Z</time></trkpt><trkpt lat="31.8129400559086" lon="-4.676947615768731"><ele>1044.0</ele><time>2026-04-30T08:32:36Z</time></trkpt><trkpt lat="31.812800304767023" lon="-4.677214772718736"><ele>1044.0</ele><time>2026-04-30T08:32:37Z</time></trkpt><trkpt lat="31.81266028052782" lon="-4.677480996152094"><ele>1044.0</ele><time>2026-04-30T08:32:38Z</time></trkpt><trkpt lat="31.81252159769713" lon="-4.677746225188875"><ele>1044.5</ele><time>2026-04-30T08:32:39Z</time></trkpt><trkpt lat="31.812382866002363" lon="-4.678012370542093"><ele>1045.0</ele><time>2026-04-30T08:32:40Z</time></trkpt><trkpt lat="31.81224378163107" lon="-4.678279555622751"><ele>1045.0</ele><time>2026-04-30T08:32:41Z</time></trkpt><trkpt lat="31.812103736544806" lon="-4.678546128883657"><ele>1045.0</ele><time>2026-04-30T08:32:42Z</time></trkpt><trkpt lat="31.81196151607608" lon="-4.678814656689675"><ele>1045.0</ele><time>2026-04-30T08:32:43Z</time></trkpt><trkpt lat="31.81182138408255" lon="-4.679081791390336"><ele>1045.0</ele><time>2026-04-30T08:32:44Z</time></trkpt><trkpt lat="31.811681549501383" lon="-4.679351722294464"><ele>1045.5</ele><time>2026-04-30T08:32:45Z</time></trkpt><trkpt lat="31.811543691886023" lon="-4.679617875249677"><ele>1046.0</ele><time>2026-04-30T08:32:46Z</time></trkpt><trkpt lat="31.811406747723247" lon="-4.679884252726832"><ele>1046.0</ele><time>2026-04-30T08:32:47Z</time></trkpt><trkpt lat="31.811272948795768" lon="-4.680149425989185"><ele>1046.0</ele><time>2026-04-30T08:32:48Z</time></trkpt><trkpt lat="31.8111351495821" lon="-4.680413978376012"><ele>1046.0</ele><time>2026-04-30T08:32:49Z</time></trkpt><trkpt lat="31.810995275872116" lon="-4.68067738313753"><ele>1046.0</ele><time>2026-04-30T08:32:50Z</time></trkpt><trkpt lat="31.810857842667" lon="-4.680939949164907"><ele>1045.5</ele><time>2026-04-30T08:32:51Z</time></trkpt><trkpt lat="31.810721577945436" lon="-4.681202130705812"><ele>1045.0</ele><time>2026-04-30T08:32:52Z</time></trkpt><trkpt lat="31.81058620415276" lon="-4.681465751665039"><ele>1045.0</ele><time>2026-04-30T08:32:53Z</time></trkpt><trkpt lat="31.81045195722446" lon="-4.681729973469309"><ele>1045.0</ele><time>2026-04-30T08:32:54Z</time></trkpt><trkpt lat="31.810316135814084" lon="-4.68199180139252"><ele>1046.5</ele><time>2026-04-30T08:32:55Z</time></trkpt><trkpt lat="31.81017924600513" lon="-4.682251948864429"><ele>1048.0</ele><time>2026-04-30T08:32:56Z</time></trkpt><trkpt lat="31.810041140096477" lon="-4.682512935281087"><ele>1048.0</ele><time>2026-04-30T08:32:57Z</time></trkpt><trkpt lat="31.80990356301093" lon="-4.6827742149651685"><ele>1048.0</ele><time>2026-04-30T08:32:58Z</time></trkpt><trkpt lat="31.809767044907474" lon="-4.6830360167635"><ele>1048.0</ele><time>2026-04-30T08:32:59Z</time></trkpt><trkpt lat="31.809631914857107" lon="-4.683300169410945"><ele>1048.0</ele><time>2026-04-30T08:33:00Z</time></trkpt><trkpt lat="31.809495508542025" lon="-4.683565413025642"><ele>1048.0</ele><time>2026-04-30T08:33:01Z</time></trkpt><trkpt lat="31.809358197366084" lon="-4.683831751776127"><ele>1048.0</ele><time>2026-04-30T08:33:02Z</time></trkpt><trkpt lat="31.809218804553105" lon="-4.684098303726734"><ele>1048.0</ele><time>2026-04-30T08:33:03Z</time></trkpt><trkpt lat="31.80907943013393" lon="-4.684367225578679"><ele>1048.0</ele><time>2026-04-30T08:33:04Z</time></trkpt><trkpt lat="31.808939793123244" lon="-4.684636506377665"><ele>1049.0</ele><time>2026-04-30T08:33:05Z</time></trkpt><trkpt lat="31.808800143366103" lon="-4.684906756875352"><ele>1050.0</ele><time>2026-04-30T08:33:06Z</time></trkpt><trkpt lat="31.80865955565146" lon="-4.685178581658463"><ele>1051.5</ele><time>2026-04-30T08:33:07Z</time></trkpt><trkpt lat="31.808517949056597" lon="-4.685449445750639"><ele>1053.0</ele><time>2026-04-30T08:33:08Z</time></trkpt><trkpt lat="31.80837631037148" lon="-4.685719677908838"><ele>1053.0</ele><time>2026-04-30T08:33:09Z</time></trkpt><trkpt lat="31.808238035814163" lon="-4.685983608746534"><ele>1053.0</ele><time>2026-04-30T08:33:10Z</time></trkpt><trkpt lat="31.80810491664923" lon="-4.68623870154546"><ele>1052.0</ele><time>2026-04-30T08:33:11Z</time></trkpt><trkpt lat="31.807973975903167" lon="-4.686492192728091"><ele>1051.0</ele><time>2026-04-30T08:33:11.999Z</time></trkpt><trkpt lat="31.807843540851856" lon="-4.686745980658075"><ele>1052.0</ele><time>2026-04-30T08:33:12.999Z</time></trkpt><trkpt lat="31.807712846479138" lon="-4.686999832878279"><ele>1053.0</ele><time>2026-04-30T08:33:13.999Z</time></trkpt><trkpt lat="31.80757870879571" lon="-4.687257117688005"><ele>1053.0</ele><time>2026-04-30T08:33:14.999Z</time></trkpt><trkpt lat="31.807445282844537" lon="-4.687513673244805"><ele>1053.0</ele><time>2026-04-30T08:33:15.999Z</time></trkpt><trkpt lat="31.807308510208372" lon="-4.687771346971651"><ele>1054.5</ele><time>2026-04-30T08:33:16.999Z</time></trkpt><trkpt lat="31.807187036938952" lon="-4.688039668484809"><ele>1056.0</ele><time>2026-04-30T08:33:17.999Z</time></trkpt><trkpt lat="31.807049600484692" lon="-4.6883045111132855"><ele>1056.0</ele><time>2026-04-30T08:33:18.999Z</time></trkpt><trkpt lat="31.806908858726075" lon="-4.68857572304414"><ele>1056.0</ele><time>2026-04-30T08:33:19.999Z</time></trkpt><trkpt lat="31.80676935215117" lon="-4.688844554734405"><ele>1055.5</ele><time>2026-04-30T08:33:20.999Z</time></trkpt><trkpt lat="31.806631141282168" lon="-4.689111504425307"><ele>1055.0</ele><time>2026-04-30T08:33:21.999Z</time></trkpt><trkpt lat="31.806492428775577" lon="-4.689379605662354"><ele>1055.0</ele><time>2026-04-30T08:33:22.999Z</time></trkpt><trkpt lat="31.806353498126448" lon="-4.689647510759656"><ele>1055.0</ele><time>2026-04-30T08:33:23.999Z</time></trkpt><trkpt lat="31.80621386152446" lon="-4.689915285906285"><ele>1055.0</ele><time>2026-04-30T08:33:24.999Z</time></trkpt><trkpt lat="31.806073837908627" lon="-4.690184852848166"><ele>1055.0</ele><time>2026-04-30T08:33:25.999Z</time></trkpt><trkpt lat="31.805933562080778" lon="-4.6904546766692565"><ele>1056.5</ele><time>2026-04-30T08:33:26.999Z</time></trkpt><trkpt lat="31.80579232603636" lon="-4.690726033651124"><ele>1058.0</ele><time>2026-04-30T08:33:27.999Z</time></trkpt><trkpt lat="31.805650434434284" lon="-4.690996523349262"><ele>1057.5</ele><time>2026-04-30T08:33:28.999Z</time></trkpt><trkpt lat="31.80549480022408" lon="-4.691256289795604"><ele>1057.0</ele><time>2026-04-30T08:33:29.999Z</time></trkpt><trkpt lat="31.80536817178238" lon="-4.691535638262155"><ele>1057.0</ele><time>2026-04-30T08:33:30.999Z</time></trkpt><trkpt lat="31.80521350217649" lon="-4.691795014483256"><ele>1057.0</ele><time>2026-04-30T08:33:31.999Z</time></trkpt><trkpt lat="31.805075241706504" lon="-4.692063272745252"><ele>1056.5</ele><time>2026-04-30T08:33:32.999Z</time></trkpt><trkpt lat="31.804935611782145" lon="-4.692332230244009"><ele>1056.0</ele><time>2026-04-30T08:33:33.999Z</time></trkpt><trkpt lat="31.804794869249907" lon="-4.692600733919385"><ele>1055.0</ele><time>2026-04-30T08:33:34.999Z</time></trkpt><trkpt lat="31.804666701778515" lon="-4.6928779296595255"><ele>1054.0</ele><time>2026-04-30T08:33:35.999Z</time></trkpt><trkpt lat="31.804527866349897" lon="-4.693143147184437"><ele>1054.0</ele><time>2026-04-30T08:33:36.999Z</time></trkpt><trkpt lat="31.80437706809249" lon="-4.6933942146964505"><ele>1054.0</ele><time>2026-04-30T08:33:37.999Z</time></trkpt><trkpt lat="31.804243529427147" lon="-4.693652217982084"><ele>1055.0</ele><time>2026-04-30T08:33:38.999Z</time></trkpt><trkpt lat="31.80411335881596" lon="-4.693905527374686"><ele>1056.0</ele><time>2026-04-30T08:33:39.999Z</time></trkpt><trkpt lat="31.80398146172853" lon="-4.694159564786299"><ele>1056.0</ele><time>2026-04-30T08:33:40.999Z</time></trkpt><trkpt lat="31.803850738302756" lon="-4.694410775736317"><ele>1056.0</ele><time>2026-04-30T08:33:41.999Z</time></trkpt><trkpt lat="31.80372123816733" lon="-4.694661993078184"><ele>1056.5</ele><time>2026-04-30T08:33:42.999Z</time></trkpt><trkpt lat="31.80359183447628" lon="-4.694912173568709"><ele>1057.0</ele><time>2026-04-30T08:33:43.999Z</time></trkpt><trkpt lat="31.803461460658532" lon="-4.695161287723424"><ele>1056.0</ele><time>2026-04-30T08:33:44.999Z</time></trkpt><trkpt lat="31.803328736661676" lon="-4.695408159268894"><ele>1055.0</ele><time>2026-04-30T08:33:45.999Z</time></trkpt><trkpt lat="31.803197646407806" lon="-4.695655193397654"><ele>1055.0</ele><time>2026-04-30T08:33:46.999Z</time></trkpt><trkpt lat="31.803070211199888" lon="-4.695902340717017"><ele>1055.0</ele><time>2026-04-30T08:33:47.999Z</time></trkpt><trkpt lat="31.80295464220876" lon="-4.696160721113646"><ele>1056.0</ele><time>2026-04-30T08:33:48.999Z</time></trkpt><trkpt lat="31.802827864281223" lon="-4.6964099910569335"><ele>1057.0</ele><time>2026-04-30T08:33:49.999Z</time></trkpt><trkpt lat="31.802700330213952" lon="-4.696659500389133"><ele>1056.5</ele><time>2026-04-30T08:33:50.999Z</time></trkpt><trkpt lat="31.802574296370103" lon="-4.696905767056632"><ele>1056.0</ele><time>2026-04-30T08:33:51.999Z</time></trkpt><trkpt lat="31.802449556557686" lon="-4.697149505531497"><ele>1055.0</ele><time>2026-04-30T08:33:52.999Z</time></trkpt><trkpt lat="31.802326128221928" lon="-4.697390744340198"><ele>1054.0</ele><time>2026-04-30T08:33:53.999Z</time></trkpt><trkpt lat="31.80220427979385" lon="-4.697629180128517"><ele>1054.5</ele><time>2026-04-30T08:33:54.999Z</time></trkpt><trkpt lat="31.802084187811666" lon="-4.6978641793606055"><ele>1055.0</ele><time>2026-04-30T08:33:55.999Z</time></trkpt><trkpt lat="31.801968407562356" lon="-4.698101079831764"><ele>1055.0</ele><time>2026-04-30T08:33:56.999Z</time></trkpt><trkpt lat="31.80185340317382" lon="-4.698336741393942"><ele>1055.0</ele><time>2026-04-30T08:33:57.999Z</time></trkpt><trkpt lat="31.80173734484024" lon="-4.69857310026033"><ele>1055.0</ele><time>2026-04-30T08:33:58.999Z</time></trkpt><trkpt lat="31.801639594586103" lon="-4.698821615772138"><ele>1055.0</ele><time>2026-04-30T08:33:59.999Z</time></trkpt><trkpt lat="31.80154795114467" lon="-4.699076300346236"><ele>1055.0</ele><time>2026-04-30T08:34:00.999Z</time></trkpt><trkpt lat="31.801462160560785" lon="-4.6993352563374025"><ele>1055.0</ele><time>2026-04-30T08:34:01.999Z</time></trkpt><trkpt lat="31.80137782637273" lon="-4.69959847239256"><ele>1055.5</ele><time>2026-04-30T08:34:02.999Z</time></trkpt><trkpt lat="31.801297438383543" lon="-4.699865740732202"><ele>1056.0</ele><time>2026-04-30T08:34:03.999Z</time></trkpt><trkpt lat="31.801240525881337" lon="-4.700145473719187"><ele>1055.5</ele><time>2026-04-30T08:34:04.999Z</time></trkpt><trkpt lat="31.801155606781762" lon="-4.7004156587010195"><ele>1055.0</ele><time>2026-04-30T08:34:05.999Z</time></trkpt><trkpt lat="31.80109584686646" lon="-4.700696263465252"><ele>1055.0</ele><time>2026-04-30T08:34:06.999Z</time></trkpt><trkpt lat="31.801042065215352" lon="-4.700979256943088"><ele>1055.0</ele><time>2026-04-30T08:34:07.999Z</time></trkpt><trkpt lat="31.80099466989223" lon="-4.701265044401893"><ele>1055.5</ele><time>2026-04-30T08:34:08.999Z</time></trkpt><trkpt lat="31.80095424259221" lon="-4.701556188523724"><ele>1056.0</ele><time>2026-04-30T08:34:09.999Z</time></trkpt><trkpt lat="31.800916143213808" lon="-4.7018489776541506"><ele>1056.5</ele><time>2026-04-30T08:34:10.999Z</time></trkpt><trkpt lat="31.800875413959496" lon="-4.702137439233429"><ele>1057.0</ele><time>2026-04-30T08:34:11.999Z</time></trkpt><trkpt lat="31.800836691608243" lon="-4.702426716880746"><ele>1057.0</ele><time>2026-04-30T08:34:12.999Z</time></trkpt><trkpt lat="31.800798511388603" lon="-4.702718782958425"><ele>1057.0</ele><time>2026-04-30T08:34:13.999Z</time></trkpt><trkpt lat="31.800760379252225" lon="-4.703013636004691"><ele>1058.0</ele><time>2026-04-30T08:34:14.999Z</time></trkpt><trkpt lat="31.800722157185117" lon="-4.703309696764038"><ele>1059.0</ele><time>2026-04-30T08:34:15.999Z</time></trkpt><trkpt lat="31.80068042299386" lon="-4.703609578786009"><ele>1059.0</ele><time>2026-04-30T08:34:16.999Z</time></trkpt><trkpt lat="31.800637580922707" lon="-4.703907133525726"><ele>1059.0</ele><time>2026-04-30T08:34:17.999Z</time></trkpt><trkpt lat="31.800597816558383" lon="-4.70420591037847"><ele>1059.5</ele><time>2026-04-30T08:34:18.999Z</time></trkpt><trkpt lat="31.80055754358787" lon="-4.70450609877745"><ele>1060.0</ele><time>2026-04-30T08:34:19.999Z</time></trkpt><trkpt lat="31.80051829022562" lon="-4.70480813121509"><ele>1060.0</ele><time>2026-04-30T08:34:20.999Z</time></trkpt><trkpt lat="31.800479414428857" lon="-4.705112582821657"><ele>1060.0</ele><time>2026-04-30T08:34:21.999Z</time></trkpt><trkpt lat="31.800439136709578" lon="-4.705418898605159"><ele>1059.5</ele><time>2026-04-30T08:34:23Z</time></trkpt><trkpt lat="31.800396824554355" lon="-4.705725562312109"><ele>1059.0</ele><time>2026-04-30T08:34:24Z</time></trkpt><trkpt lat="31.800356667479534" lon="-4.706033311401836"><ele>1059.5</ele><time>2026-04-30T08:34:25Z</time></trkpt><trkpt lat="31.8003194179483" lon="-4.706342033964891"><ele>1060.0</ele><time>2026-04-30T08:34:26Z</time></trkpt><trkpt lat="31.800278807519323" lon="-4.706650462824532"><ele>1060.5</ele><time>2026-04-30T08:34:27Z</time></trkpt><trkpt lat="31.80023430994142" lon="-4.706956619040521"><ele>1061.0</ele><time>2026-04-30T08:34:28Z</time></trkpt><trkpt lat="31.800194113805855" lon="-4.707262079110976"><ele>1059.5</ele><time>2026-04-30T08:34:29Z</time></trkpt><trkpt lat="31.800155347977352" lon="-4.707566935948221"><ele>1058.0</ele><time>2026-04-30T08:34:30Z</time></trkpt><trkpt lat="31.800115100817234" lon="-4.707867274571071"><ele>1058.0</ele><time>2026-04-30T08:34:31Z</time></trkpt><trkpt lat="31.80007506290562" lon="-4.708165356772339"><ele>1058.0</ele><time>2026-04-30T08:34:32Z</time></trkpt><trkpt lat="31.800036053148542" lon="-4.708460033676005"><ele>1058.0</ele><time>2026-04-30T08:34:33Z</time></trkpt><trkpt lat="31.799999366354438" lon="-4.708753800857447"><ele>1058.0</ele><time>2026-04-30T08:34:34Z</time></trkpt><trkpt lat="31.799961948161126" lon="-4.709045801684826"><ele>1058.0</ele><time>2026-04-30T08:34:35Z</time></trkpt><trkpt lat="31.79992325712866" lon="-4.709335019933459"><ele>1058.0</ele><time>2026-04-30T08:34:36Z</time></trkpt><trkpt lat="31.799886726448644" lon="-4.709608043912339"><ele>1058.5</ele><time>2026-04-30T08:34:37Z</time></trkpt><trkpt lat="31.799848125394554" lon="-4.70987698426979"><ele>1059.0</ele><time>2026-04-30T08:34:38Z</time></trkpt><trkpt lat="31.79980577087768" lon="-4.710147544614985"><ele>1060.0</ele><time>2026-04-30T08:34:39Z</time></trkpt><trkpt lat="31.79975139867105" lon="-4.710421739717555"><ele>1061.0</ele><time>2026-04-30T08:34:40Z</time></trkpt><trkpt lat="31.799677313466145" lon="-4.71069465666381"><ele>1061.0</ele><time>2026-04-30T08:34:41Z</time></trkpt><trkpt lat="31.799586308470502" lon="-4.710965365468594"><ele>1061.0</ele><time>2026-04-30T08:34:42Z</time></trkpt><trkpt lat="31.799487190337658" lon="-4.7112359729207824"><ele>1061.0</ele><time>2026-04-30T08:34:43Z</time></trkpt><trkpt lat="31.799380277672256" lon="-4.711505280709498"><ele>1061.0</ele><time>2026-04-30T08:34:44Z</time></trkpt><trkpt lat="31.799255434895212" lon="-4.7117637634091185"><ele>1060.5</ele><time>2026-04-30T08:34:45Z</time></trkpt><trkpt lat="31.799119147139454" lon="-4.712015878345509"><ele>1060.0</ele><time>2026-04-30T08:34:46Z</time></trkpt><trkpt lat="31.798968052107195" lon="-4.712252730188909"><ele>1060.0</ele><time>2026-04-30T08:34:47Z</time></trkpt><trkpt lat="31.798804791078403" lon="-4.712481244345884"><ele>1060.0</ele><time>2026-04-30T08:34:48Z</time></trkpt><trkpt lat="31.798636698537084" lon="-4.7127062853842405"><ele>1065.0</ele><time>2026-04-30T08:34:48.999Z</time></trkpt><trkpt lat="31.79846597763783" lon="-4.712926807467678"><ele>1070.0</ele><time>2026-04-30T08:34:49.999Z</time></trkpt><trkpt lat="31.798294080779794" lon="-4.713147341056923"><ele>1070.0</ele><time>2026-04-30T08:34:50.999Z</time></trkpt><trkpt lat="31.798120365170497" lon="-4.713369838504774"><ele>1070.0</ele><time>2026-04-30T08:34:51.999Z</time></trkpt><trkpt lat="31.79794623870948" lon="-4.71359512223474"><ele>1070.5</ele><time>2026-04-30T08:34:52.999Z</time></trkpt><trkpt lat="31.797774209885517" lon="-4.713824390351849"><ele>1071.0</ele><time>2026-04-30T08:34:53.999Z</time></trkpt><trkpt lat="31.79760102765751" lon="-4.714054863805208"><ele>1069.5</ele><time>2026-04-30T08:34:54.999Z</time></trkpt><trkpt lat="31.797421985810086" lon="-4.7142847404481"><ele>1068.0</ele><time>2026-04-30T08:34:55.999Z</time></trkpt><trkpt lat="31.797242054343325" lon="-4.714516912891602"><ele>1066.5</ele><time>2026-04-30T08:34:56.999Z</time></trkpt><trkpt lat="31.797064124673653" lon="-4.714752921922808"><ele>1065.0</ele><time>2026-04-30T08:34:57.999Z</time></trkpt><trkpt lat="31.796882533016316" lon="-4.714990931447578"><ele>1065.0</ele><time>2026-04-30T08:34:58.999Z</time></trkpt><trkpt lat="31.796697951910353" lon="-4.715228574117799"><ele>1065.0</ele><time>2026-04-30T08:34:59.999Z</time></trkpt><trkpt lat="31.796513665393352" lon="-4.715469994851182"><ele>1065.0</ele><time>2026-04-30T08:35:00.999Z</time></trkpt><trkpt lat="31.796330866426736" lon="-4.715712418928117"><ele>1065.0</ele><time>2026-04-30T08:35:01.999Z</time></trkpt><trkpt lat="31.796146603202814" lon="-4.7159540546602035"><ele>1064.0</ele><time>2026-04-30T08:35:02.999Z</time></trkpt><trkpt lat="31.795962151863776" lon="-4.716194136276605"><ele>1063.0</ele><time>2026-04-30T08:35:03.999Z</time></trkpt><trkpt lat="31.795779962301847" lon="-4.716432115165945"><ele>1063.0</ele><time>2026-04-30T08:35:04.999Z</time></trkpt><trkpt lat="31.795598849093867" lon="-4.716667417560358"><ele>1063.0</ele><time>2026-04-30T08:35:05.999Z</time></trkpt><trkpt lat="31.795425352085527" lon="-4.716895802590757"><ele>1064.0</ele><time>2026-04-30T08:35:06.999Z</time></trkpt><trkpt lat="31.795250628066377" lon="-4.7171298632417065"><ele>1065.0</ele><time>2026-04-30T08:35:07.999Z</time></trkpt><trkpt lat="31.795078516482576" lon="-4.717356795483545"><ele>1065.5</ele><time>2026-04-30T08:35:08.999Z</time></trkpt><trkpt lat="31.79490435308598" lon="-4.717582389538855"><ele>1066.0</ele><time>2026-04-30T08:35:09.999Z</time></trkpt><trkpt lat="31.794729902030955" lon="-4.717808156048526"><ele>1066.5</ele><time>2026-04-30T08:35:10.999Z</time></trkpt><trkpt lat="31.794556063213168" lon="-4.718034968576248"><ele>1067.0</ele><time>2026-04-30T08:35:11.999Z</time></trkpt><trkpt lat="31.794383692079148" lon="-4.7182627598587334"><ele>1066.0</ele><time>2026-04-30T08:35:12.999Z</time></trkpt><trkpt lat="31.794212267078983" lon="-4.718490764691007"><ele>1065.0</ele><time>2026-04-30T08:35:13.999Z</time></trkpt><trkpt lat="31.794038355275788" lon="-4.7187170331781765"><ele>1065.0</ele><time>2026-04-30T08:35:14.999Z</time></trkpt><trkpt lat="31.793863808434853" lon="-4.718943887176915"><ele>1065.0</ele><time>2026-04-30T08:35:15.999Z</time></trkpt><trkpt lat="31.79369095734789" lon="-4.719172839664373"><ele>1066.0</ele><time>2026-04-30T08:35:16.999Z</time></trkpt><trkpt lat="31.793516913794427" lon="-4.719401272344545"><ele>1067.0</ele><time>2026-04-30T08:35:17.999Z</time></trkpt><trkpt lat="31.79334229768189" lon="-4.719630350853826"><ele>1067.0</ele><time>2026-04-30T08:35:18.999Z</time></trkpt><trkpt lat="31.793167043422624" lon="-4.719860513806243"><ele>1067.0</ele><time>2026-04-30T08:35:19.999Z</time></trkpt><trkpt lat="31.79299180127024" lon="-4.720089006087499"><ele>1067.5</ele><time>2026-04-30T08:35:20.999Z</time></trkpt><trkpt lat="31.79281742630274" lon="-4.720319398748871"><ele>1068.0</ele><time>2026-04-30T08:35:21.999Z</time></trkpt><trkpt lat="31.792644752482577" lon="-4.720548985854325"><ele>1068.0</ele><time>2026-04-30T08:35:22.999Z</time></trkpt><trkpt lat="31.79247136799869" lon="-4.720778564796944"><ele>1068.0</ele><time>2026-04-30T08:35:23.999Z</time></trkpt><trkpt lat="31.792299934065625" lon="-4.721006370213208"><ele>1068.0</ele><time>2026-04-30T08:35:24.999Z</time></trkpt><trkpt lat="31.79212759335772" lon="-4.721232149245296"><ele>1068.0</ele><time>2026-04-30T08:35:25.999Z</time></trkpt><trkpt lat="31.79195461692924" lon="-4.72145608759713"><ele>1069.0</ele><time>2026-04-30T08:35:26.999Z</time></trkpt><trkpt lat="31.791781944324363" lon="-4.721681143528929"><ele>1070.0</ele><time>2026-04-30T08:35:27.999Z</time></trkpt><trkpt lat="31.79161167334969" lon="-4.721904934054765"><ele>1072.5</ele><time>2026-04-30T08:35:28.999Z</time></trkpt><trkpt lat="31.791442822449888" lon="-4.722129445601657"><ele>1075.0</ele><time>2026-04-30T08:35:29.999Z</time></trkpt><trkpt lat="31.791275304346836" lon="-4.722353343471229"><ele>1075.0</ele><time>2026-04-30T08:35:30.999Z</time></trkpt><trkpt lat="31.791106463442137" lon="-4.7225772303666265"><ele>1075.0</ele><time>2026-04-30T08:35:31.999Z</time></trkpt><trkpt lat="31.790933575908443" lon="-4.72280082002548"><ele>1075.0</ele><time>2026-04-30T08:35:32.999Z</time></trkpt><trkpt lat="31.790759668764895" lon="-4.7230252690470165"><ele>1075.0</ele><time>2026-04-30T08:35:33.999Z</time></trkpt><trkpt lat="31.790585417197725" lon="-4.723250838269523"><ele>1075.0</ele><time>2026-04-30T08:35:34.999Z</time></trkpt><trkpt lat="31.79041043356446" lon="-4.723477628084596"><ele>1075.0</ele><time>2026-04-30T08:35:35.999Z</time></trkpt><trkpt lat="31.790235400065672" lon="-4.723707339564009"><ele>1073.0</ele><time>2026-04-30T08:35:36.999Z</time></trkpt><trkpt lat="31.790060693342376" lon="-4.72393680026132"><ele>1071.0</ele><time>2026-04-30T08:35:37.999Z</time></trkpt><trkpt lat="31.78988587373114" lon="-4.724166471987812"><ele>1071.0</ele><time>2026-04-30T08:35:38.999Z</time></trkpt><trkpt lat="31.78971019176312" lon="-4.724395693259796"><ele>1071.0</ele><time>2026-04-30T08:35:39.999Z</time></trkpt><trkpt lat="31.789532495316173" lon="-4.724624471609168"><ele>1071.0</ele><time>2026-04-30T08:35:40.999Z</time></trkpt><trkpt lat="31.789356274841424" lon="-4.7248555974666075"><ele>1071.0</ele><time>2026-04-30T08:35:41.999Z</time></trkpt><trkpt lat="31.78918114288509" lon="-4.725089712937904"><ele>1072.5</ele><time>2026-04-30T08:35:42.999Z</time></trkpt><trkpt lat="31.789005708682648" lon="-4.725322961059428"><ele>1074.0</ele><time>2026-04-30T08:35:43.999Z</time></trkpt><trkpt lat="31.788827814242985" lon="-4.725555199794843"><ele>1074.0</ele><time>2026-04-30T08:35:44.999Z</time></trkpt><trkpt lat="31.788649428904787" lon="-4.72578846148274"><ele>1074.0</ele><time>2026-04-30T08:35:45.999Z</time></trkpt><trkpt lat="31.788473054397855" lon="-4.726017398000411"><ele>1073.5</ele><time>2026-04-30T08:35:46.999Z</time></trkpt><trkpt lat="31.788295095519604" lon="-4.726248263591069"><ele>1073.0</ele><time>2026-04-30T08:35:47.999Z</time></trkpt><trkpt lat="31.788118720405866" lon="-4.726477173490197"><ele>1073.0</ele><time>2026-04-30T08:35:48.999Z</time></trkpt><trkpt lat="31.787940223782183" lon="-4.726708516524061"><ele>1073.0</ele><time>2026-04-30T08:35:49.999Z</time></trkpt><trkpt lat="31.787763150426805" lon="-4.726941153695132"><ele>1073.5</ele><time>2026-04-30T08:35:50.999Z</time></trkpt><trkpt lat="31.787584755901257" lon="-4.727171855732651"><ele>1074.0</ele><time>2026-04-30T08:35:51.999Z</time></trkpt><trkpt lat="31.78740887559239" lon="-4.727405390649587"><ele>1074.0</ele><time>2026-04-30T08:35:52.999Z</time></trkpt><trkpt lat="31.78723335601481" lon="-4.727636076380255"><ele>1074.0</ele><time>2026-04-30T08:35:53.999Z</time></trkpt><trkpt lat="31.78705770434337" lon="-4.727865770359711"><ele>1074.0</ele><time>2026-04-30T08:35:54.999Z</time></trkpt><trkpt lat="31.786881469313244" lon="-4.728096440307036"><ele>1074.0</ele><time>2026-04-30T08:35:55.999Z</time></trkpt><trkpt lat="31.786704579800457" lon="-4.728327307783273"><ele>1074.0</ele><time>2026-04-30T08:35:56.999Z</time></trkpt><trkpt lat="31.786528746525363" lon="-4.728558551574764"><ele>1074.0</ele><time>2026-04-30T08:35:57.999Z</time></trkpt><trkpt lat="31.786354539102827" lon="-4.728788689244376"><ele>1073.5</ele><time>2026-04-30T08:35:58.999Z</time></trkpt><trkpt lat="31.78618010985553" lon="-4.729018251608965"><ele>1073.0</ele><time>2026-04-30T08:35:59.999Z</time></trkpt><trkpt lat="31.786006682213753" lon="-4.729246526978642"><ele>1073.5</ele><time>2026-04-30T08:36:00.999Z</time></trkpt><trkpt lat="31.785833173650772" lon="-4.729475051196368"><ele>1074.0</ele><time>2026-04-30T08:36:01.999Z</time></trkpt><trkpt lat="31.78565946570864" lon="-4.729703172275807"><ele>1074.0</ele><time>2026-04-30T08:36:02.999Z</time></trkpt><trkpt lat="31.785486285868036" lon="-4.729931121768277"><ele>1074.0</ele><time>2026-04-30T08:36:03.999Z</time></trkpt><trkpt lat="31.785313172773733" lon="-4.730159267763389"><ele>1074.5</ele><time>2026-04-30T08:36:04.999Z</time></trkpt><trkpt lat="31.785140086981606" lon="-4.730386763661212"><ele>1075.0</ele><time>2026-04-30T08:36:05.999Z</time></trkpt><trkpt lat="31.784966722176236" lon="-4.730613135811509"><ele>1075.0</ele><time>2026-04-30T08:36:06.999Z</time></trkpt><trkpt lat="31.784791018645635" lon="-4.73083773350471"><ele>1075.0</ele><time>2026-04-30T08:36:07.999Z</time></trkpt><trkpt lat="31.784615064000118" lon="-4.731062528702048"><ele>1075.0</ele><time>2026-04-30T08:36:08.999Z</time></trkpt><trkpt lat="31.784437564226312" lon="-4.731287994460957"><ele>1075.0</ele><time>2026-04-30T08:36:09.999Z</time></trkpt><trkpt lat="31.784257252311928" lon="-4.731508718359414"><ele>1074.5</ele><time>2026-04-30T08:36:10.999Z</time></trkpt><trkpt lat="31.784072132055346" lon="-4.731728044159886"><ele>1074.0</ele><time>2026-04-30T08:36:11.999Z</time></trkpt><trkpt lat="31.783882431020956" lon="-4.731949016775127"><ele>1075.0</ele><time>2026-04-30T08:36:12.999Z</time></trkpt><trkpt lat="31.78369450611355" lon="-4.732170196569389"><ele>1076.0</ele><time>2026-04-30T08:36:13.999Z</time></trkpt><trkpt lat="31.783506841600598" lon="-4.732392474724957"><ele>1074.5</ele><time>2026-04-30T08:36:14.999Z</time></trkpt><trkpt lat="31.783320291246177" lon="-4.732613722513454"><ele>1073.0</ele><time>2026-04-30T08:36:15.999Z</time></trkpt><trkpt lat="31.783134007860138" lon="-4.732835268884524"><ele>1073.0</ele><time>2026-04-30T08:36:16.999Z</time></trkpt><trkpt lat="31.78294970869335" lon="-4.733055912388341"><ele>1073.0</ele><time>2026-04-30T08:36:17.999Z</time></trkpt><trkpt lat="31.78276540894614" lon="-4.733277854686849"><ele>1073.5</ele><time>2026-04-30T08:36:18.999Z</time></trkpt><trkpt lat="31.782582070942272" lon="-4.733496850157036"><ele>1074.0</ele><time>2026-04-30T08:36:19.999Z</time></trkpt><trkpt lat="31.782397200856693" lon="-4.733714017741036"><ele>1075.0</ele><time>2026-04-30T08:36:20.999Z</time></trkpt><trkpt lat="31.782212910390122" lon="-4.733933916809043"><ele>1076.0</ele><time>2026-04-30T08:36:21.999Z</time></trkpt><trkpt lat="31.782028925668303" lon="-4.734152922560282"><ele>1075.5</ele><time>2026-04-30T08:36:22.999Z</time></trkpt><trkpt lat="31.78184562178778" lon="-4.7343737160690145"><ele>1075.0</ele><time>2026-04-30T08:36:23.999Z</time></trkpt><trkpt lat="31.781660343743678" lon="-4.734593564237473"><ele>1074.0</ele><time>2026-04-30T08:36:24.999Z</time></trkpt><trkpt lat="31.781476276454907" lon="-4.73481389776947"><ele>1073.0</ele><time>2026-04-30T08:36:25.999Z</time></trkpt><trkpt lat="31.781290936227773" lon="-4.735032488253207"><ele>1073.5</ele><time>2026-04-30T08:36:26.999Z</time></trkpt><trkpt lat="31.78110663807553" lon="-4.735250571612711"><ele>1074.0</ele><time>2026-04-30T08:36:27.999Z</time></trkpt><trkpt lat="31.78092356878491" lon="-4.735468712368948"><ele>1075.5</ele><time>2026-04-30T08:36:28.999Z</time></trkpt><trkpt lat="31.78074344235808" lon="-4.735686112295152"><ele>1077.0</ele><time>2026-04-30T08:36:29.999Z</time></trkpt><trkpt lat="31.780562838582117" lon="-4.73590104108368"><ele>1077.5</ele><time>2026-04-30T08:36:30.999Z</time></trkpt><trkpt lat="31.780383333891173" lon="-4.7361165295917145"><ele>1078.0</ele><time>2026-04-30T08:36:31.999Z</time></trkpt><trkpt lat="31.78020360653183" lon="-4.73633152986606"><ele>1077.5</ele><time>2026-04-30T08:36:32.999Z</time></trkpt><trkpt lat="31.78002287512736" lon="-4.736545186060687"><ele>1077.0</ele><time>2026-04-30T08:36:33.999Z</time></trkpt><trkpt lat="31.779841856142735" lon="-4.736759838583064"><ele>1077.0</ele><time>2026-04-30T08:36:34.999Z</time></trkpt><trkpt lat="31.779664276361256" lon="-4.736969496904245"><ele>1077.0</ele><time>2026-04-30T08:36:35.999Z</time></trkpt><trkpt lat="31.779486472650728" lon="-4.737182802414475"><ele>1077.0</ele><time>2026-04-30T08:36:36.999Z</time></trkpt><trkpt lat="31.779306675821026" lon="-4.737395339106908"><ele>1077.0</ele><time>2026-04-30T08:36:37.999Z</time></trkpt><trkpt lat="31.779128708305898" lon="-4.737608239262442"><ele>1077.5</ele><time>2026-04-30T08:36:38.999Z</time></trkpt><trkpt lat="31.778949311762435" lon="-4.737822853747249"><ele>1078.0</ele><time>2026-04-30T08:36:39.999Z</time></trkpt><trkpt lat="31.778771007560557" lon="-4.7380352480135075"><ele>1078.0</ele><time>2026-04-30T08:36:40.999Z</time></trkpt><trkpt lat="31.778592858002156" lon="-4.738246932074278"><ele>1078.0</ele><time>2026-04-30T08:36:41.999Z</time></trkpt><trkpt lat="31.77841412172897" lon="-4.738458220824655"><ele>1079.5</ele><time>2026-04-30T08:36:42.999Z</time></trkpt><trkpt lat="31.77823544882991" lon="-4.738668726495833"><ele>1081.0</ele><time>2026-04-30T08:36:43.999Z</time></trkpt><trkpt lat="31.77805498406859" lon="-4.738873051675803"><ele>1081.0</ele><time>2026-04-30T08:36:44.999Z</time></trkpt><trkpt lat="31.777877976237804" lon="-4.739080032288596"><ele>1081.0</ele><time>2026-04-30T08:36:45.999Z</time></trkpt><trkpt lat="31.77770725686167" lon="-4.739292975792974"><ele>1080.5</ele><time>2026-04-30T08:36:46.999Z</time></trkpt><trkpt lat="31.777547550498053" lon="-4.73951908225939"><ele>1080.0</ele><time>2026-04-30T08:36:47.999Z</time></trkpt><trkpt lat="31.777397607437724" lon="-4.73975417005887"><ele>1080.0</ele><time>2026-04-30T08:36:48.999Z</time></trkpt><trkpt lat="31.77725952945049" lon="-4.740002471245481"><ele>1080.0</ele><time>2026-04-30T08:36:49.999Z</time></trkpt><trkpt lat="31.777129103530168" lon="-4.740256477724069"><ele>1080.0</ele><time>2026-04-30T08:36:50.999Z</time></trkpt><trkpt lat="31.777011670180773" lon="-4.740520724659356"><ele>1080.0</ele><time>2026-04-30T08:36:51.999Z</time></trkpt><trkpt lat="31.77690960728765" lon="-4.740795033193819"><ele>1080.0</ele><time>2026-04-30T08:36:52.999Z</time></trkpt><trkpt lat="31.776820183909038" lon="-4.741076421702709"><ele>1080.0</ele><time>2026-04-30T08:36:53.999Z</time></trkpt><trkpt lat="31.776744066301298" lon="-4.7413626880431385"><ele>1080.0</ele><time>2026-04-30T08:36:54.999Z</time></trkpt><trkpt lat="31.776678816545232" lon="-4.741654890335341"><ele>1080.0</ele><time>2026-04-30T08:36:55.999Z</time></trkpt><trkpt lat="31.776619418013404" lon="-4.741948814803546"><ele>1080.5</ele><time>2026-04-30T08:36:56.999Z</time></trkpt><trkpt lat="31.776567733418624" lon="-4.7422453305325805"><ele>1081.0</ele><time>2026-04-30T08:36:57.999Z</time></trkpt><trkpt lat="31.776514721743187" lon="-4.742542859598252"><ele>1081.0</ele><time>2026-04-30T08:36:58.999Z</time></trkpt><trkpt lat="31.77645639849126" lon="-4.74284264893955"><ele>1081.0</ele><time>2026-04-30T08:36:59.999Z</time></trkpt><trkpt lat="31.77640035993978" lon="-4.7431409967479325"><ele>1081.0</ele><time>2026-04-30T08:37:00.999Z</time></trkpt><trkpt lat="31.77634402128572" lon="-4.743441229616595"><ele>1081.0</ele><time>2026-04-30T08:37:01.999Z</time></trkpt><trkpt lat="31.77628714003295" lon="-4.7437390539635675"><ele>1081.5</ele><time>2026-04-30T08:37:02.999Z</time></trkpt><trkpt lat="31.77623240321851" lon="-4.744035952848234"><ele>1082.0</ele><time>2026-04-30T08:37:03.999Z</time></trkpt><trkpt lat="31.776178059860097" lon="-4.744333114891892"><ele>1082.0</ele><time>2026-04-30T08:37:04.999Z</time></trkpt><trkpt lat="31.77612206086509" lon="-4.744631576661132"><ele>1082.0</ele><time>2026-04-30T08:37:05.999Z</time></trkpt><trkpt lat="31.776064097060093" lon="-4.744929954597967"><ele>1082.0</ele><time>2026-04-30T08:37:06.999Z</time></trkpt><trkpt lat="31.776005955888987" lon="-4.745224831639877"><ele>1082.0</ele><time>2026-04-30T08:37:07.999Z</time></trkpt><trkpt lat="31.775952272067485" lon="-4.745512622843625"><ele>1082.0</ele><time>2026-04-30T08:37:08.999Z</time></trkpt><trkpt lat="31.77590210185232" lon="-4.745796101288956"><ele>1082.0</ele><time>2026-04-30T08:37:09.999Z</time></trkpt><trkpt lat="31.775853838516763" lon="-4.746073459968398"><ele>1082.0</ele><time>2026-04-30T08:37:10.999Z</time></trkpt><trkpt lat="31.775801136798005" lon="-4.74634764009164"><ele>1082.0</ele><time>2026-04-30T08:37:11.999Z</time></trkpt><trkpt lat="31.775748518002846" lon="-4.746622297614411"><ele>1083.0</ele><time>2026-04-30T08:37:12.999Z</time></trkpt><trkpt lat="31.775697295851376" lon="-4.74689990012807"><ele>1084.0</ele><time>2026-04-30T08:37:13.999Z</time></trkpt><trkpt lat="31.77564285291366" lon="-4.7471810075294085"><ele>1084.0</ele><time>2026-04-30T08:37:14.999Z</time></trkpt><trkpt lat="31.77558740796802" lon="-4.747467009701321"><ele>1084.0</ele><time>2026-04-30T08:37:15.999Z</time></trkpt><trkpt lat="31.775534030119466" lon="-4.747757544778196"><ele>1085.0</ele><time>2026-04-30T08:37:16.999Z</time></trkpt><trkpt lat="31.77547951537561" lon="-4.748050190986339"><ele>1086.0</ele><time>2026-04-30T08:37:17.999Z</time></trkpt><trkpt lat="31.775422056988063" lon="-4.748345982801398"><ele>1085.5</ele><time>2026-04-30T08:37:18.999Z</time></trkpt><trkpt lat="31.775366238089504" lon="-4.74864354063113"><ele>1085.0</ele><time>2026-04-30T08:37:19.999Z</time></trkpt><trkpt lat="31.775307640127807" lon="-4.748945031505553"><ele>1085.0</ele><time>2026-04-30T08:37:20.999Z</time></trkpt><trkpt lat="31.775249508958797" lon="-4.749250197815815"><ele>1085.0</ele><time>2026-04-30T08:37:21.999Z</time></trkpt><trkpt lat="31.775190428518233" lon="-4.749557063593566"><ele>1084.5</ele><time>2026-04-30T08:37:22.999Z</time></trkpt><trkpt lat="31.775133042009262" lon="-4.749866847856392"><ele>1084.0</ele><time>2026-04-30T08:37:23.999Z</time></trkpt><trkpt lat="31.775076732707955" lon="-4.7501769356982155"><ele>1084.0</ele><time>2026-04-30T08:37:24.999Z</time></trkpt><trkpt lat="31.77501786177701" lon="-4.75048655733285"><ele>1084.0</ele><time>2026-04-30T08:37:25.999Z</time></trkpt><trkpt lat="31.77495783750505" lon="-4.750797135591284"><ele>1084.0</ele><time>2026-04-30T08:37:26.999Z</time></trkpt><trkpt lat="31.77489843784756" lon="-4.751107734088504"><ele>1084.0</ele><time>2026-04-30T08:37:27.999Z</time></trkpt><trkpt lat="31.77483798763715" lon="-4.751418219891239"><ele>1084.0</ele><time>2026-04-30T08:37:28.999Z</time></trkpt><trkpt lat="31.7747801385852" lon="-4.751730364445354"><ele>1084.0</ele><time>2026-04-30T08:37:29.999Z</time></trkpt><trkpt lat="31.77472188082883" lon="-4.752042432671175"><ele>1083.5</ele><time>2026-04-30T08:37:30.999Z</time></trkpt><trkpt lat="31.77466343885815" lon="-4.752355957534697"><ele>1083.0</ele><time>2026-04-30T08:37:31.999Z</time></trkpt><trkpt lat="31.77460421507776" lon="-4.752673016930665"><ele>1084.0</ele><time>2026-04-30T08:37:32.999Z</time></trkpt><trkpt lat="31.774543335762598" lon="-4.752988801535695"><ele>1085.0</ele><time>2026-04-30T08:37:33.999Z</time></trkpt><trkpt lat="31.774481379450084" lon="-4.753304101989961"><ele>1086.0</ele><time>2026-04-30T08:37:34.999Z</time></trkpt><trkpt lat="31.774424067618167" lon="-4.753621778092149"><ele>1087.0</ele><time>2026-04-30T08:37:35.999Z</time></trkpt><trkpt lat="31.77436635625472" lon="-4.753938981428132"><ele>1086.0</ele><time>2026-04-30T08:37:36.999Z</time></trkpt><trkpt lat="31.774307271771008" lon="-4.754258267042092"><ele>1085.0</ele><time>2026-04-30T08:37:37.999Z</time></trkpt><trkpt lat="31.77424643166367" lon="-4.754577598613677"><ele>1085.0</ele><time>2026-04-30T08:37:38.999Z</time></trkpt><trkpt lat="31.774185274131174" lon="-4.754897149250026"><ele>1085.0</ele><time>2026-04-30T08:37:39.999Z</time></trkpt><trkpt lat="31.774124566148114" lon="-4.755215616832554"><ele>1085.5</ele><time>2026-04-30T08:37:40.999Z</time></trkpt><trkpt lat="31.774062880468705" lon="-4.755536733104568"><ele>1086.0</ele><time>2026-04-30T08:37:41.999Z</time></trkpt><trkpt lat="31.774000985934304" lon="-4.755856200907523"><ele>1085.0</ele><time>2026-04-30T08:37:42.999Z</time></trkpt><trkpt lat="31.77394489870346" lon="-4.756175497632485"><ele>1084.0</ele><time>2026-04-30T08:37:43.999Z</time></trkpt><trkpt lat="31.773889805737767" lon="-4.756495572713015"><ele>1084.0</ele><time>2026-04-30T08:37:44.999Z</time></trkpt><trkpt lat="31.77383089182762" lon="-4.75681186604465"><ele>1084.0</ele><time>2026-04-30T08:37:45.999Z</time></trkpt><trkpt lat="31.773767485158196" lon="-4.75712732194452"><ele>1083.5</ele><time>2026-04-30T08:37:46.999Z</time></trkpt><trkpt lat="31.773705735496446" lon="-4.757441906160611"><ele>1083.0</ele><time>2026-04-30T08:37:47.999Z</time></trkpt><trkpt lat="31.773646923054656" lon="-4.757758969981621"><ele>1084.0</ele><time>2026-04-30T08:37:48.999Z</time></trkpt><trkpt lat="31.773587402906752" lon="-4.758074955771815"><ele>1085.0</ele><time>2026-04-30T08:37:49.999Z</time></trkpt><trkpt lat="31.773527113845606" lon="-4.75839032244267"><ele>1084.5</ele><time>2026-04-30T08:37:50.999Z</time></trkpt><trkpt lat="31.773468866512957" lon="-4.758704252412683"><ele>1084.0</ele><time>2026-04-30T08:37:51.999Z</time></trkpt><trkpt lat="31.773410013619102" lon="-4.759017273220969"><ele>1084.0</ele><time>2026-04-30T08:37:52.999Z</time></trkpt><trkpt lat="31.773352685793224" lon="-4.7593259680603035"><ele>1084.0</ele><time>2026-04-30T08:37:53.999Z</time></trkpt><trkpt lat="31.77329389790513" lon="-4.759635080919272"><ele>1085.0</ele><time>2026-04-30T08:37:54.999Z</time></trkpt><trkpt lat="31.773236236854864" lon="-4.759944545217871"><ele>1086.0</ele><time>2026-04-30T08:37:55.999Z</time></trkpt><trkpt lat="31.77317907800112" lon="-4.76025429174508"><ele>1086.0</ele><time>2026-04-30T08:37:56.999Z</time></trkpt><trkpt lat="31.77312030831399" lon="-4.760566318500052"><ele>1086.0</ele><time>2026-04-30T08:37:57.999Z</time></trkpt><trkpt lat="31.77306018829693" lon="-4.760873919686833"><ele>1086.0</ele><time>2026-04-30T08:37:58.999Z</time></trkpt><trkpt lat="31.773001545734623" lon="-4.761184504137206"><ele>1086.0</ele><time>2026-04-30T08:37:59.999Z</time></trkpt><trkpt lat="31.772944871039588" lon="-4.761492037488644"><ele>1086.0</ele><time>2026-04-30T08:38:00.999Z</time></trkpt><trkpt lat="31.77288661646575" lon="-4.761800666203557"><ele>1086.0</ele><time>2026-04-30T08:38:01.999Z</time></trkpt><trkpt lat="31.772827495373882" lon="-4.762108781776357"><ele>1086.0</ele><time>2026-04-30T08:38:02.999Z</time></trkpt><trkpt lat="31.772769467120227" lon="-4.762414061008632"><ele>1086.0</ele><time>2026-04-30T08:38:03.999Z</time></trkpt><trkpt lat="31.772712811618085" lon="-4.762723731519445"><ele>1086.0</ele><time>2026-04-30T08:38:04.999Z</time></trkpt><trkpt lat="31.772654828115922" lon="-4.763034987918518"><ele>1086.0</ele><time>2026-04-30T08:38:05.999Z</time></trkpt><trkpt lat="31.77259572524823" lon="-4.763343990842999"><ele>1086.5</ele><time>2026-04-30T08:38:06.999Z</time></trkpt><trkpt lat="31.772537727103966" lon="-4.763657424437715"><ele>1087.0</ele><time>2026-04-30T08:38:07.999Z</time></trkpt><trkpt lat="31.772476804094147" lon="-4.763972262021424"><ele>1087.0</ele><time>2026-04-30T08:38:08.999Z</time></trkpt><trkpt lat="31.772416728830322" lon="-4.764290883884802"><ele>1087.0</ele><time>2026-04-30T08:38:09.999Z</time></trkpt><trkpt lat="31.772357448873798" lon="-4.764609562124681"><ele>1087.0</ele><time>2026-04-30T08:38:10.999Z</time></trkpt><trkpt lat="31.772297760948845" lon="-4.764929466976875"><ele>1087.0</ele><time>2026-04-30T08:38:11.999Z</time></trkpt><trkpt lat="31.772236380241498" lon="-4.765249518266688"><ele>1087.0</ele><time>2026-04-30T08:38:12.999Z</time></trkpt><trkpt lat="31.772174181878714" lon="-4.765570327618974"><ele>1087.0</ele><time>2026-04-30T08:38:13.999Z</time></trkpt><trkpt lat="31.77211466347576" lon="-4.765888485799496"><ele>1087.5</ele><time>2026-04-30T08:38:14.999Z</time></trkpt><trkpt lat="31.772055784810973" lon="-4.766205339831377"><ele>1088.0</ele><time>2026-04-30T08:38:15.999Z</time></trkpt><trkpt lat="31.771996464967714" lon="-4.766522092199136"><ele>1088.0</ele><time>2026-04-30T08:38:16.999Z</time></trkpt><trkpt lat="31.77193493099064" lon="-4.766839386627601"><ele>1088.0</ele><time>2026-04-30T08:38:17.999Z</time></trkpt><trkpt lat="31.77187369877225" lon="-4.767155281236004"><ele>1086.5</ele><time>2026-04-30T08:38:18.999Z</time></trkpt><trkpt lat="31.771815801706722" lon="-4.767470905597227"><ele>1085.0</ele><time>2026-04-30T08:38:19.999Z</time></trkpt><trkpt lat="31.771760658469397" lon="-4.767786770032338"><ele>1084.5</ele><time>2026-04-30T08:38:20.999Z</time></trkpt><trkpt lat="31.771711799108147" lon="-4.768103686568454"><ele>1084.0</ele><time>2026-04-30T08:38:21.999Z</time></trkpt><trkpt lat="31.77167819521784" lon="-4.768421681595902"><ele>1084.0</ele><time>2026-04-30T08:38:22.999Z</time></trkpt><trkpt lat="31.771663273077564" lon="-4.768743771205633"><ele>1084.0</ele><time>2026-04-30T08:38:23.999Z</time></trkpt><trkpt lat="31.77165851107468" lon="-4.769064898881488"><ele>1084.5</ele><time>2026-04-30T08:38:24.999Z</time></trkpt><trkpt lat="31.771651977996008" lon="-4.769388236614799"><ele>1085.0</ele><time>2026-04-30T08:38:25.999Z</time></trkpt><trkpt lat="31.771646309339573" lon="-4.769707153707934"><ele>1085.0</ele><time>2026-04-30T08:38:26.999Z</time></trkpt><trkpt lat="31.77163754901624" lon="-4.770020388888183"><ele>1085.0</ele><time>2026-04-30T08:38:27.999Z</time></trkpt><trkpt lat="31.771629743664466" lon="-4.770328905975894"><ele>1086.0</ele><time>2026-04-30T08:38:28.999Z</time></trkpt><trkpt lat="31.771621972863333" lon="-4.770634366467275"><ele>1087.0</ele><time>2026-04-30T08:38:29.999Z</time></trkpt><trkpt lat="31.77161367014752" lon="-4.770936844659491"><ele>1086.5</ele><time>2026-04-30T08:38:30.999Z</time></trkpt><trkpt lat="31.771604931371066" lon="-4.771235585993568"><ele>1086.0</ele><time>2026-04-30T08:38:31.999Z</time></trkpt><trkpt lat="31.771600708942096" lon="-4.771535861025832"><ele>1086.0</ele><time>2026-04-30T08:38:32.999Z</time></trkpt><trkpt lat="31.771605116487947" lon="-4.771837205276398"><ele>1086.0</ele><time>2026-04-30T08:38:33.999Z</time></trkpt><trkpt lat="31.771622126843948" lon="-4.7721414039011805"><ele>1086.0</ele><time>2026-04-30T08:38:35Z</time></trkpt><trkpt lat="31.77165743110896" lon="-4.772446792831995"><ele>1086.0</ele><time>2026-04-30T08:38:36Z</time></trkpt><trkpt lat="31.77171544110047" lon="-4.7727436767334375"><ele>1086.0</ele><time>2026-04-30T08:38:37Z</time></trkpt><trkpt lat="31.771780197442396" lon="-4.773040278789235"><ele>1086.0</ele><time>2026-04-30T08:38:38Z</time></trkpt><trkpt lat="31.771858658199324" lon="-4.7733299496830135"><ele>1085.0</ele><time>2026-04-30T08:38:39Z</time></trkpt><trkpt lat="31.771944267690888" lon="-4.773616703067176"><ele>1084.0</ele><time>2026-04-30T08:38:40Z</time></trkpt><trkpt lat="31.77203306992915" lon="-4.77390248127833"><ele>1084.0</ele><time>2026-04-30T08:38:41Z</time></trkpt><trkpt lat="31.772119544339162" lon="-4.774191069191997"><ele>1084.0</ele><time>2026-04-30T08:38:42Z</time></trkpt><trkpt lat="31.772204461784" lon="-4.774481708719991"><ele>1084.0</ele><time>2026-04-30T08:38:43Z</time></trkpt><trkpt lat="31.772292464124835" lon="-4.774772020605233"><ele>1084.0</ele><time>2026-04-30T08:38:44Z</time></trkpt><trkpt lat="31.772381627511496" lon="-4.775062657640063"><ele>1084.5</ele><time>2026-04-30T08:38:45Z</time></trkpt><trkpt lat="31.772468860349605" lon="-4.775355181660089"><ele>1085.0</ele><time>2026-04-30T08:38:46Z</time></trkpt><trkpt lat="31.772554652867136" lon="-4.775647145708099"><ele>1085.0</ele><time>2026-04-30T08:38:47Z</time></trkpt><trkpt lat="31.772640248588182" lon="-4.775941480999831"><ele>1085.0</ele><time>2026-04-30T08:38:48Z</time></trkpt><trkpt lat="31.772729731513184" lon="-4.776235795085773"><ele>1083.0</ele><time>2026-04-30T08:38:49Z</time></trkpt><trkpt lat="31.772818078444228" lon="-4.7765308999810605"><ele>1081.0</ele><time>2026-04-30T08:38:50Z</time></trkpt><trkpt lat="31.772904520572926" lon="-4.776828404376664"><ele>1081.5</ele><time>2026-04-30T08:38:51Z</time></trkpt><trkpt lat="31.7729932205534" lon="-4.777127837260187"><ele>1082.0</ele><time>2026-04-30T08:38:52Z</time></trkpt><trkpt lat="31.773081333622734" lon="-4.777427775971357"><ele>1082.5</ele><time>2026-04-30T08:38:53Z</time></trkpt><trkpt lat="31.77316862462294" lon="-4.777728656375672"><ele>1083.0</ele><time>2026-04-30T08:38:54Z</time></trkpt><trkpt lat="31.773254808200196" lon="-4.778029499588706"><ele>1083.0</ele><time>2026-04-30T08:38:55Z</time></trkpt><trkpt lat="31.7733417359014" lon="-4.778331563775121"><ele>1083.0</ele><time>2026-04-30T08:38:56Z</time></trkpt><trkpt lat="31.77343222270427" lon="-4.778632378538771"><ele>1082.0</ele><time>2026-04-30T08:38:57Z</time></trkpt><trkpt lat="31.77352606509962" lon="-4.778933568014816"><ele>1081.0</ele><time>2026-04-30T08:38:58Z</time></trkpt><trkpt lat="31.773618268068592" lon="-4.779233485533139"><ele>1081.5</ele><time>2026-04-30T08:38:59Z</time></trkpt><trkpt lat="31.773707440326298" lon="-4.779536642463532"><ele>1082.0</ele><time>2026-04-30T08:39:00Z</time></trkpt><trkpt lat="31.773796178671585" lon="-4.779840327331066"><ele>1082.0</ele><time>2026-04-30T08:39:01Z</time></trkpt><trkpt lat="31.773885032065355" lon="-4.780141757504193"><ele>1082.0</ele><time>2026-04-30T08:39:02Z</time></trkpt><trkpt lat="31.773973848703797" lon="-4.7804387932107995"><ele>1082.5</ele><time>2026-04-30T08:39:03Z</time></trkpt><trkpt lat="31.77406217000446" lon="-4.780735167319511"><ele>1083.0</ele><time>2026-04-30T08:39:04Z</time></trkpt><trkpt lat="31.7741500567947" lon="-4.781028590452928"><ele>1083.5</ele><time>2026-04-30T08:39:05Z</time></trkpt><trkpt lat="31.7742351807972" lon="-4.7813196437331875"><ele>1084.0</ele><time>2026-04-30T08:39:06Z</time></trkpt><trkpt lat="31.774314810491806" lon="-4.7816088659353495"><ele>1083.5</ele><time>2026-04-30T08:39:07Z</time></trkpt><trkpt lat="31.7743801807238" lon="-4.781898203124054"><ele>1083.0</ele><time>2026-04-30T08:39:08Z</time></trkpt><trkpt lat="31.77442749759263" lon="-4.7821894896725246"><ele>1083.0</ele><time>2026-04-30T08:39:09Z</time></trkpt><trkpt lat="31.774457963470773" lon="-4.782484575179292"><ele>1083.0</ele><time>2026-04-30T08:39:09.999Z</time></trkpt><trkpt lat="31.77447529565675" lon="-4.782781461821398"><ele>1083.0</ele><time>2026-04-30T08:39:10.999Z</time></trkpt><trkpt lat="31.774476838841665" lon="-4.783079643199329"><ele>1083.0</ele><time>2026-04-30T08:39:11.999Z</time></trkpt><trkpt lat="31.774464505882026" lon="-4.78337714629633"><ele>1083.5</ele><time>2026-04-30T08:39:12.999Z</time></trkpt><trkpt lat="31.774440378505997" lon="-4.783672681378021"><ele>1084.0</ele><time>2026-04-30T08:39:13.999Z</time></trkpt><trkpt lat="31.774403801728248" lon="-4.78396485675486"><ele>1084.5</ele><time>2026-04-30T08:39:14.999Z</time></trkpt><trkpt lat="31.774353813188345" lon="-4.784253744055534"><ele>1085.0</ele><time>2026-04-30T08:39:15.999Z</time></trkpt><trkpt lat="31.774292685658057" lon="-4.78453905387694"><ele>1085.5</ele><time>2026-04-30T08:39:16.999Z</time></trkpt><trkpt lat="31.774212284597002" lon="-4.784821396964656"><ele>1086.0</ele><time>2026-04-30T08:39:17.999Z</time></trkpt><trkpt lat="31.77411562447248" lon="-4.785101322009155"><ele>1086.5</ele><time>2026-04-30T08:39:18.999Z</time></trkpt><trkpt lat="31.774012016421803" lon="-4.7853812557713145"><ele>1087.0</ele><time>2026-04-30T08:39:19.999Z</time></trkpt><trkpt lat="31.773903504739902" lon="-4.78565843492244"><ele>1087.0</ele><time>2026-04-30T08:39:20.999Z</time></trkpt><trkpt lat="31.773789958246056" lon="-4.785932136404524"><ele>1087.0</ele><time>2026-04-30T08:39:21.999Z</time></trkpt><trkpt lat="31.773676819188736" lon="-4.786203730885114"><ele>1087.0</ele><time>2026-04-30T08:39:22.999Z</time></trkpt><trkpt lat="31.77356620911768" lon="-4.786474611072884"><ele>1087.0</ele><time>2026-04-30T08:39:23.999Z</time></trkpt><trkpt lat="31.773456920480815" lon="-4.7867467967663435"><ele>1088.5</ele><time>2026-04-30T08:39:24.999Z</time></trkpt><trkpt lat="31.773345233938294" lon="-4.787019215405859"><ele>1090.0</ele><time>2026-04-30T08:39:25.999Z</time></trkpt><trkpt lat="31.77323252669836" lon="-4.787289974380603"><ele>1090.0</ele><time>2026-04-30T08:39:26.999Z</time></trkpt><trkpt lat="31.773120412018574" lon="-4.787560618875817"><ele>1090.0</ele><time>2026-04-30T08:39:27.999Z</time></trkpt><trkpt lat="31.77301085371039" lon="-4.7878338539479595"><ele>1090.0</ele><time>2026-04-30T08:39:28.999Z</time></trkpt><trkpt lat="31.77289927088785" lon="-4.788104398915395"><ele>1090.0</ele><time>2026-04-30T08:39:29.999Z</time></trkpt><trkpt lat="31.772787148368117" lon="-4.788373572546329"><ele>1090.5</ele><time>2026-04-30T08:39:30.999Z</time></trkpt><trkpt lat="31.7726760832391" lon="-4.788645025510372"><ele>1091.0</ele><time>2026-04-30T08:39:31.999Z</time></trkpt><trkpt lat="31.77256736607009" lon="-4.788916260006619"><ele>1091.0</ele><time>2026-04-30T08:39:32.999Z</time></trkpt><trkpt lat="31.77246774515804" lon="-4.789174354172476"><ele>1091.0</ele><time>2026-04-30T08:39:33.999Z</time></trkpt><trkpt lat="31.77237314878986" lon="-4.789416989473295"><ele>1092.0</ele><time>2026-04-30T08:39:34.999Z</time></trkpt><trkpt lat="31.772277434060193" lon="-4.7896515781690345"><ele>1093.0</ele><time>2026-04-30T08:39:35.999Z</time></trkpt><trkpt lat="31.77217624063181" lon="-4.789886508222728"><ele>1094.0</ele><time>2026-04-30T08:39:36.999Z</time></trkpt><trkpt lat="31.772076183692935" lon="-4.790125557432921"><ele>1094.0</ele><time>2026-04-30T08:39:37.999Z</time></trkpt><trkpt lat="31.771977879390878" lon="-4.790369409223002"><ele>1094.0</ele><time>2026-04-30T08:39:38.999Z</time></trkpt><trkpt lat="31.771878375122103" lon="-4.79061537529696"><ele>1095.0</ele><time>2026-04-30T08:39:39.999Z</time></trkpt><trkpt lat="31.771777474024482" lon="-4.790865367552827"><ele>1096.0</ele><time>2026-04-30T08:39:40.999Z</time></trkpt><trkpt lat="31.77167600590492" lon="-4.79111811721249"><ele>1096.0</ele><time>2026-04-30T08:39:41.999Z</time></trkpt><trkpt lat="31.77157201931492" lon="-4.791369223690485"><ele>1096.0</ele><time>2026-04-30T08:39:42.999Z</time></trkpt><trkpt lat="31.771466274206386" lon="-4.791621254378757"><ele>1097.0</ele><time>2026-04-30T08:39:43.999Z</time></trkpt><trkpt lat="31.771361329528926" lon="-4.791876745680302"><ele>1098.0</ele><time>2026-04-30T08:39:44.999Z</time></trkpt><trkpt lat="31.771257859708165" lon="-4.792134448293812"><ele>1098.0</ele><time>2026-04-30T08:39:45.999Z</time></trkpt><trkpt lat="31.771152603706163" lon="-4.792392793806842"><ele>1098.0</ele><time>2026-04-30T08:39:46.999Z</time></trkpt><trkpt lat="31.771046615226158" lon="-4.7926514868650285"><ele>1098.0</ele><time>2026-04-30T08:39:47.999Z</time></trkpt><trkpt lat="31.770941251257778" lon="-4.792909982333785"><ele>1098.0</ele><time>2026-04-30T08:39:48.999Z</time></trkpt><trkpt lat="31.770836062137118" lon="-4.79316842075819"><ele>1098.0</ele><time>2026-04-30T08:39:49.999Z</time></trkpt><trkpt lat="31.77072879564868" lon="-4.793427489667277"><ele>1098.0</ele><time>2026-04-30T08:39:50.999Z</time></trkpt><trkpt lat="31.77062070958627" lon="-4.793686391798795"><ele>1097.5</ele><time>2026-04-30T08:39:51.999Z</time></trkpt><trkpt lat="31.770512626014735" lon="-4.7939485583307935"><ele>1097.0</ele><time>2026-04-30T08:39:52.999Z</time></trkpt><trkpt lat="31.770405193275618" lon="-4.794213080950191"><ele>1097.0</ele><time>2026-04-30T08:39:53.999Z</time></trkpt><trkpt lat="31.770296514151863" lon="-4.794479020405971"><ele>1097.0</ele><time>2026-04-30T08:39:54.999Z</time></trkpt><trkpt lat="31.77018613306876" lon="-4.794744298061412"><ele>1098.0</ele><time>2026-04-30T08:39:55.999Z</time></trkpt><trkpt lat="31.770074131499115" lon="-4.795011440439684"><ele>1099.0</ele><time>2026-04-30T08:39:56.999Z</time></trkpt><trkpt lat="31.769962861785412" lon="-4.795280387413578"><ele>1099.0</ele><time>2026-04-30T08:39:57.999Z</time></trkpt><trkpt lat="31.769853619173333" lon="-4.795550036330668"><ele>1099.0</ele><time>2026-04-30T08:39:58.999Z</time></trkpt><trkpt lat="31.769744233636768" lon="-4.79582114555799"><ele>1098.5</ele><time>2026-04-30T08:39:59.999Z</time></trkpt><trkpt lat="31.769633917029168" lon="-4.796092052102154"><ele>1098.0</ele><time>2026-04-30T08:40:00.999Z</time></trkpt><trkpt lat="31.769524986245475" lon="-4.796364136465703"><ele>1098.0</ele><time>2026-04-30T08:40:01.999Z</time></trkpt><trkpt lat="31.769414762653998" lon="-4.796634038527009"><ele>1098.0</ele><time>2026-04-30T08:40:02.999Z</time></trkpt><trkpt lat="31.769304614436052" lon="-4.796904548688385"><ele>1099.5</ele><time>2026-04-30T08:40:03.999Z</time></trkpt><trkpt lat="31.76919399588189" lon="-4.797175773593043"><ele>1101.0</ele><time>2026-04-30T08:40:04.999Z</time></trkpt><trkpt lat="31.769084471901753" lon="-4.797447975288313"><ele>1101.0</ele><time>2026-04-30T08:40:05.999Z</time></trkpt><trkpt lat="31.768973439211702" lon="-4.797721201066794"><ele>1101.0</ele><time>2026-04-30T08:40:06.999Z</time></trkpt><trkpt lat="31.76886184521743" lon="-4.797994795914684"><ele>1101.0</ele><time>2026-04-30T08:40:07.999Z</time></trkpt><trkpt lat="31.76875028109546" lon="-4.798266454116368"><ele>1101.0</ele><time>2026-04-30T08:40:08.999Z</time></trkpt><trkpt lat="31.768640002080936" lon="-4.798540230256356"><ele>1101.5</ele><time>2026-04-30T08:40:09.999Z</time></trkpt><trkpt lat="31.76852686973019" lon="-4.798815799327769"><ele>1102.0</ele><time>2026-04-30T08:40:10.999Z</time></trkpt><trkpt lat="31.76841267504802" lon="-4.79909136027551"><ele>1101.5</ele><time>2026-04-30T08:40:11.999Z</time></trkpt><trkpt lat="31.768298381881234" lon="-4.799368862122718"><ele>1101.0</ele><time>2026-04-30T08:40:12.999Z</time></trkpt><trkpt lat="31.768185250690724" lon="-4.799645414266985"><ele>1101.0</ele><time>2026-04-30T08:40:13.999Z</time></trkpt><trkpt lat="31.76807125623053" lon="-4.799925418765579"><ele>1101.0</ele><time>2026-04-30T08:40:14.999Z</time></trkpt><trkpt lat="31.767957555361196" lon="-4.800207298775355"><ele>1100.0</ele><time>2026-04-30T08:40:15.999Z</time></trkpt><trkpt lat="31.767843897436705" lon="-4.800490787735187"><ele>1099.0</ele><time>2026-04-30T08:40:16.999Z</time></trkpt><trkpt lat="31.767728996404013" lon="-4.800773419085778"><ele>1100.0</ele><time>2026-04-30T08:40:17.999Z</time></trkpt><trkpt lat="31.76761258857999" lon="-4.801056148856168"><ele>1101.0</ele><time>2026-04-30T08:40:18.999Z</time></trkpt><trkpt lat="31.767494875469243" lon="-4.80133785120738"><ele>1101.0</ele><time>2026-04-30T08:40:19.999Z</time></trkpt><trkpt lat="31.76737816534097" lon="-4.801619720859469"><ele>1101.0</ele><time>2026-04-30T08:40:20.999Z</time></trkpt><trkpt lat="31.767262717979968" lon="-4.801904071755473"><ele>1101.0</ele><time>2026-04-30T08:40:21.999Z</time></trkpt><trkpt lat="31.76714659874027" lon="-4.802189955154606"><ele>1101.0</ele><time>2026-04-30T08:40:22.999Z</time></trkpt><trkpt lat="31.767030314708872" lon="-4.802477149153722"><ele>1101.0</ele><time>2026-04-30T08:40:23.999Z</time></trkpt><trkpt lat="31.766914678331688" lon="-4.802763041948411"><ele>1101.0</ele><time>2026-04-30T08:40:24.999Z</time></trkpt><trkpt lat="31.766797175603063" lon="-4.803050065936676"><ele>1100.5</ele><time>2026-04-30T08:40:25.999Z</time></trkpt><trkpt lat="31.766679477848843" lon="-4.803338994306093"><ele>1100.0</ele><time>2026-04-30T08:40:26.999Z</time></trkpt><trkpt lat="31.76656021071707" lon="-4.803628424769042"><ele>1100.0</ele><time>2026-04-30T08:40:27.999Z</time></trkpt><trkpt lat="31.76644046947109" lon="-4.803918507772997"><ele>1100.0</ele><time>2026-04-30T08:40:28.999Z</time></trkpt><trkpt lat="31.766321440632268" lon="-4.804211046508167"><ele>1101.0</ele><time>2026-04-30T08:40:29.999Z</time></trkpt><trkpt lat="31.766203295461008" lon="-4.804503033484907"><ele>1102.0</ele><time>2026-04-30T08:40:30.999Z</time></trkpt><trkpt lat="31.766084062711137" lon="-4.804796173068041"><ele>1101.5</ele><time>2026-04-30T08:40:31.999Z</time></trkpt><trkpt lat="31.765963988573542" lon="-4.8050880211690075"><ele>1101.0</ele><time>2026-04-30T08:40:32.999Z</time></trkpt><trkpt lat="31.76584554738026" lon="-4.80537832899865"><ele>1103.0</ele><time>2026-04-30T08:40:33.999Z</time></trkpt><trkpt lat="31.765727565195103" lon="-4.805670136170621"><ele>1105.0</ele><time>2026-04-30T08:40:34.999Z</time></trkpt><trkpt lat="31.76560978877698" lon="-4.805961831839214"><ele>1102.5</ele><time>2026-04-30T08:40:35.999Z</time></trkpt><trkpt lat="31.765491234327147" lon="-4.806252972700246"><ele>1100.0</ele><time>2026-04-30T08:40:36.999Z</time></trkpt><trkpt lat="31.76537230477572" lon="-4.806544287711139"><ele>1100.0</ele><time>2026-04-30T08:40:37.999Z</time></trkpt><trkpt lat="31.765252699767647" lon="-4.806835139024783"><ele>1100.0</ele><time>2026-04-30T08:40:38.999Z</time></trkpt><trkpt lat="31.765133159421982" lon="-4.807127617049563"><ele>1099.5</ele><time>2026-04-30T08:40:39.999Z</time></trkpt><trkpt lat="31.765014685982873" lon="-4.807422886803268"><ele>1099.0</ele><time>2026-04-30T08:40:41Z</time></trkpt><trkpt lat="31.764894401858882" lon="-4.807717478218649"><ele>1098.0</ele><time>2026-04-30T08:40:42Z</time></trkpt><trkpt lat="31.764774487880178" lon="-4.808012956642122"><ele>1097.0</ele><time>2026-04-30T08:40:43Z</time></trkpt><trkpt lat="31.764655073651276" lon="-4.808308526872663"><ele>1097.0</ele><time>2026-04-30T08:40:44Z</time></trkpt><trkpt lat="31.764534936403635" lon="-4.8086028736243"><ele>1097.0</ele><time>2026-04-30T08:40:45Z</time></trkpt><trkpt lat="31.764414487946738" lon="-4.808897684396032"><ele>1096.5</ele><time>2026-04-30T08:40:46Z</time></trkpt><trkpt lat="31.764293664783285" lon="-4.80919246271933"><ele>1096.0</ele><time>2026-04-30T08:40:47Z</time></trkpt><trkpt lat="31.7641739687128" lon="-4.809486142319133"><ele>1097.0</ele><time>2026-04-30T08:40:48Z</time></trkpt><trkpt lat="31.76405599682819" lon="-4.809777631990095"><ele>1098.0</ele><time>2026-04-30T08:40:49Z</time></trkpt><trkpt lat="31.763937236551165" lon="-4.810067346095294"><ele>1097.5</ele><time>2026-04-30T08:40:50Z</time></trkpt><trkpt lat="31.76382055846317" lon="-4.8103556696231875"><ele>1097.0</ele><time>2026-04-30T08:40:51Z</time></trkpt><trkpt lat="31.763704041532236" lon="-4.810641247461543"><ele>1097.0</ele><time>2026-04-30T08:40:52Z</time></trkpt><trkpt lat="31.76358682699164" lon="-4.810927871391644"><ele>1097.0</ele><time>2026-04-30T08:40:53Z</time></trkpt><trkpt lat="31.763470747198205" lon="-4.811213960778081"><ele>1096.0</ele><time>2026-04-30T08:40:54Z</time></trkpt><trkpt lat="31.763354872123227" lon="-4.8114996887195565"><ele>1095.0</ele><time>2026-04-30T08:40:55Z</time></trkpt><trkpt lat="31.76323803740641" lon="-4.811786938481627"><ele>1094.0</ele><time>2026-04-30T08:40:56Z</time></trkpt><trkpt lat="31.763121707428574" lon="-4.812072657070754"><ele>1093.0</ele><time>2026-04-30T08:40:57Z</time></trkpt><trkpt lat="31.76300575112143" lon="-4.812359397541666"><ele>1093.0</ele><time>2026-04-30T08:40:58Z</time></trkpt><trkpt lat="31.76289096609057" lon="-4.812647882348647"><ele>1093.0</ele><time>2026-04-30T08:40:59Z</time></trkpt><trkpt lat="31.762775805642338" lon="-4.812933880714255"><ele>1093.5</ele><time>2026-04-30T08:41:00Z</time></trkpt><trkpt lat="31.762661171349894" lon="-4.81321890242115"><ele>1094.0</ele><time>2026-04-30T08:41:01Z</time></trkpt><trkpt lat="31.762545564641922" lon="-4.813502480319238"><ele>1094.0</ele><time>2026-04-30T08:41:02Z</time></trkpt><trkpt lat="31.76242924492667" lon="-4.813787977541715"><ele>1094.0</ele><time>2026-04-30T08:41:03Z</time></trkpt><trkpt lat="31.762315764299206" lon="-4.81406846046979"><ele>1093.0</ele><time>2026-04-30T08:41:04Z</time></trkpt><trkpt lat="31.762207936863128" lon="-4.814336423020955"><ele>1092.0</ele><time>2026-04-30T08:41:05Z</time></trkpt><trkpt lat="31.762104538797345" lon="-4.814592344020971"><ele>1092.0</ele><time>2026-04-30T08:41:06Z</time></trkpt><trkpt lat="31.76199983994537" lon="-4.814849476948967"><ele>1092.0</ele><time>2026-04-30T08:41:07Z</time></trkpt><trkpt lat="31.761891635753816" lon="-4.815108246125195"><ele>1092.5</ele><time>2026-04-30T08:41:08Z</time></trkpt><trkpt lat="31.76178345824673" lon="-4.815368657140418"><ele>1093.0</ele><time>2026-04-30T08:41:09Z</time></trkpt><trkpt lat="31.761675462443787" lon="-4.81563052322478"><ele>1093.0</ele><time>2026-04-30T08:41:10Z</time></trkpt><trkpt lat="31.761567436899753" lon="-4.815895783626791"><ele>1093.0</ele><time>2026-04-30T08:41:11Z</time></trkpt><trkpt lat="31.761458901125252" lon="-4.816161935659324"><ele>1093.0</ele><time>2026-04-30T08:41:12Z</time></trkpt><trkpt lat="31.76135045433844" lon="-4.816430231424081"><ele>1093.0</ele><time>2026-04-30T08:41:13Z</time></trkpt><trkpt lat="31.761241151449337" lon="-4.81669850710033"><ele>1092.5</ele><time>2026-04-30T08:41:14Z</time></trkpt><trkpt lat="31.761131446594884" lon="-4.81696623508436"><ele>1092.0</ele><time>2026-04-30T08:41:15Z</time></trkpt><trkpt lat="31.761021936677814" lon="-4.817233233076598"><ele>1092.0</ele><time>2026-04-30T08:41:16Z</time></trkpt><trkpt lat="31.76091259028377" lon="-4.8175001579583725"><ele>1092.0</ele><time>2026-04-30T08:41:17Z</time></trkpt><trkpt lat="31.76080310961577" lon="-4.81776714165372"><ele>1091.5</ele><time>2026-04-30T08:41:18Z</time></trkpt><trkpt lat="31.76069408112547" lon="-4.818032672297122"><ele>1091.0</ele><time>2026-04-30T08:41:19Z</time></trkpt><trkpt lat="31.760584960635597" lon="-4.818299704112719"><ele>1091.0</ele><time>2026-04-30T08:41:20Z</time></trkpt><trkpt lat="31.76047745109704" lon="-4.818568417025131"><ele>1091.0</ele><time>2026-04-30T08:41:21Z</time></trkpt><trkpt lat="31.760368982178274" lon="-4.818834665191319"><ele>1091.0</ele><time>2026-04-30T08:41:22Z</time></trkpt><trkpt lat="31.760260719548146" lon="-4.819101586236929"><ele>1091.0</ele><time>2026-04-30T08:41:23Z</time></trkpt><trkpt lat="31.7601513425555" lon="-4.819368638253772"><ele>1090.5</ele><time>2026-04-30T08:41:24Z</time></trkpt><trkpt lat="31.760042023180052" lon="-4.819638504145331"><ele>1090.0</ele><time>2026-04-30T08:41:25Z</time></trkpt><trkpt lat="31.759931100735294" lon="-4.8199096633954195"><ele>1091.0</ele><time>2026-04-30T08:41:25.999Z</time></trkpt><trkpt lat="31.75981584507403" lon="-4.820180975328471"><ele>1092.0</ele><time>2026-04-30T08:41:26.999Z</time></trkpt><trkpt lat="31.75970464802254" lon="-4.8204549173788545"><ele>1092.0</ele><time>2026-04-30T08:41:27.999Z</time></trkpt><trkpt lat="31.759595790493957" lon="-4.820731772882832"><ele>1092.0</ele><time>2026-04-30T08:41:28.999Z</time></trkpt><trkpt lat="31.7594844897533" lon="-4.821006185818963"><ele>1092.0</ele><time>2026-04-30T08:41:29.999Z</time></trkpt><trkpt lat="31.75937060718526" lon="-4.821281827769709"><ele>1092.0</ele><time>2026-04-30T08:41:30.999Z</time></trkpt><trkpt lat="31.759258041797885" lon="-4.82155707186226"><ele>1093.5</ele><time>2026-04-30T08:41:31.999Z</time></trkpt><trkpt lat="31.759146763615668" lon="-4.8218314240748725"><ele>1095.0</ele><time>2026-04-30T08:41:32.999Z</time></trkpt><trkpt lat="31.75903354321768" lon="-4.82210563982165"><ele>1095.0</ele><time>2026-04-30T08:41:33.999Z</time></trkpt><trkpt lat="31.7589221934664" lon="-4.822381721752103"><ele>1095.0</ele><time>2026-04-30T08:41:34.999Z</time></trkpt><trkpt lat="31.758808835942308" lon="-4.822655095910837"><ele>1094.5</ele><time>2026-04-30T08:41:35.999Z</time></trkpt><trkpt lat="31.758695099291963" lon="-4.822928565640285"><ele>1094.0</ele><time>2026-04-30T08:41:36.999Z</time></trkpt><trkpt lat="31.75858447680867" lon="-4.8232038410617255"><ele>1093.5</ele><time>2026-04-30T08:41:37.999Z</time></trkpt><trkpt lat="31.75847548236813" lon="-4.8234803017884325"><ele>1093.0</ele><time>2026-04-30T08:41:38.999Z</time></trkpt><trkpt lat="31.758361354514406" lon="-4.823756282383956"><ele>1092.5</ele><time>2026-04-30T08:41:39.999Z</time></trkpt><trkpt lat="31.758247861751062" lon="-4.8240324041998965"><ele>1092.0</ele><time>2026-04-30T08:41:40.999Z</time></trkpt><trkpt lat="31.758133656922094" lon="-4.824312209817958"><ele>1091.5</ele><time>2026-04-30T08:41:41.999Z</time></trkpt><trkpt lat="31.7580202052316" lon="-4.824594627627048"><ele>1091.0</ele><time>2026-04-30T08:41:42.999Z</time></trkpt><trkpt lat="31.75790598080308" lon="-4.824878315336761"><ele>1091.0</ele><time>2026-04-30T08:41:43.999Z</time></trkpt><trkpt lat="31.75778932412991" lon="-4.825163266354278"><ele>1091.0</ele><time>2026-04-30T08:41:44.999Z</time></trkpt><trkpt lat="31.757672130427427" lon="-4.825448983968114"><ele>1091.5</ele><time>2026-04-30T08:41:45.999Z</time></trkpt><trkpt lat="31.7575550501612" lon="-4.825735854491584"><ele>1092.0</ele><time>2026-04-30T08:41:46.999Z</time></trkpt><trkpt lat="31.757437484387506" lon="-4.82602093329209"><ele>1092.0</ele><time>2026-04-30T08:41:47.999Z</time></trkpt><trkpt lat="31.757319122783112" lon="-4.826304941658877"><ele>1092.0</ele><time>2026-04-30T08:41:48.999Z</time></trkpt><trkpt lat="31.757202216501625" lon="-4.826589459827454"><ele>1091.5</ele><time>2026-04-30T08:41:49.999Z</time></trkpt><trkpt lat="31.75708701260073" lon="-4.8268749692248525"><ele>1091.0</ele><time>2026-04-30T08:41:50.999Z</time></trkpt><trkpt lat="31.756971138653494" lon="-4.827158226142528"><ele>1090.5</ele><time>2026-04-30T08:41:51.999Z</time></trkpt><trkpt lat="31.756851863041387" lon="-4.827440447952255"><ele>1090.0</ele><time>2026-04-30T08:41:52.999Z</time></trkpt><trkpt lat="31.75673578368912" lon="-4.827725254544153"><ele>1090.0</ele><time>2026-04-30T08:41:53.999Z</time></trkpt><trkpt lat="31.756618495547734" lon="-4.828009481312321"><ele>1090.0</ele><time>2026-04-30T08:41:54.999Z</time></trkpt><trkpt lat="31.756506216096394" lon="-4.828292662097283"><ele>1089.5</ele><time>2026-04-30T08:41:55.999Z</time></trkpt><trkpt lat="31.756393752436335" lon="-4.828571174227571"><ele>1089.0</ele><time>2026-04-30T08:41:56.999Z</time></trkpt><trkpt lat="31.756278176998293" lon="-4.8288455307201525"><ele>1089.0</ele><time>2026-04-30T08:41:57.999Z</time></trkpt><trkpt lat="31.75617296532503" lon="-4.829122200264144"><ele>1089.0</ele><time>2026-04-30T08:41:58.999Z</time></trkpt><trkpt lat="31.756062636810917" lon="-4.829393076629932"><ele>1088.0</ele><time>2026-04-30T08:41:59.999Z</time></trkpt><trkpt lat="31.755954997768974" lon="-4.829661904465376"><ele>1087.0</ele><time>2026-04-30T08:42:00.999Z</time></trkpt><trkpt lat="31.755848229352925" lon="-4.829933503806662"><ele>1087.5</ele><time>2026-04-30T08:42:01.999Z</time></trkpt><trkpt lat="31.75573717065207" lon="-4.830202451973438"><ele>1088.0</ele><time>2026-04-30T08:42:02.999Z</time></trkpt><trkpt lat="31.75562763424747" lon="-4.830476518388652"><ele>1088.0</ele><time>2026-04-30T08:42:03.999Z</time></trkpt><trkpt lat="31.755513591545483" lon="-4.8307480461311885"><ele>1088.0</ele><time>2026-04-30T08:42:04.999Z</time></trkpt><trkpt lat="31.75539993360117" lon="-4.831024756339928"><ele>1088.5</ele><time>2026-04-30T08:42:05.999Z</time></trkpt><trkpt lat="31.755287554457592" lon="-4.8313023247943425"><ele>1089.0</ele><time>2026-04-30T08:42:06.999Z</time></trkpt><trkpt lat="31.75517717349392" lon="-4.831582910819253"><ele>1087.5</ele><time>2026-04-30T08:42:07.999Z</time></trkpt><trkpt lat="31.75506511167675" lon="-4.8318599898665635"><ele>1086.0</ele><time>2026-04-30T08:42:08.999Z</time></trkpt><trkpt lat="31.754954301254042" lon="-4.832137069382295"><ele>1086.0</ele><time>2026-04-30T08:42:09.999Z</time></trkpt><trkpt lat="31.7548441479203" lon="-4.832413617098128"><ele>1086.0</ele><time>2026-04-30T08:42:10.999Z</time></trkpt><trkpt lat="31.754730214713767" lon="-4.8326878519642165"><ele>1085.0</ele><time>2026-04-30T08:42:11.999Z</time></trkpt><trkpt lat="31.754619027016837" lon="-4.8329630357197395"><ele>1084.0</ele><time>2026-04-30T08:42:12.999Z</time></trkpt><trkpt lat="31.754505205791084" lon="-4.833235572095733"><ele>1083.5</ele><time>2026-04-30T08:42:13.999Z</time></trkpt><trkpt lat="31.754394564804386" lon="-4.833507593733969"><ele>1083.0</ele><time>2026-04-30T08:42:14.999Z</time></trkpt><trkpt lat="31.754282744325156" lon="-4.833778603298271"><ele>1084.5</ele><time>2026-04-30T08:42:15.999Z</time></trkpt><trkpt lat="31.75417448584502" lon="-4.834050566150777"><ele>1086.0</ele><time>2026-04-30T08:42:16.999Z</time></trkpt><trkpt lat="31.754063124933275" lon="-4.834321827142838"><ele>1086.0</ele><time>2026-04-30T08:42:17.999Z</time></trkpt><trkpt lat="31.753952358830816" lon="-4.834594654453125"><ele>1086.0</ele><time>2026-04-30T08:42:18.999Z</time></trkpt><trkpt lat="31.753841596398797" lon="-4.83486516036555"><ele>1086.0</ele><time>2026-04-30T08:42:19.999Z</time></trkpt><trkpt lat="31.75372917869877" lon="-4.8351358440696695"><ele>1086.0</ele><time>2026-04-30T08:42:20.999Z</time></trkpt><trkpt lat="31.7536193357037" lon="-4.835410108928616"><ele>1086.5</ele><time>2026-04-30T08:42:21.999Z</time></trkpt><trkpt lat="31.75351235323177" lon="-4.835686158822237"><ele>1087.0</ele><time>2026-04-30T08:42:22.999Z</time></trkpt><trkpt lat="31.753398449523235" lon="-4.835957513677274"><ele>1087.5</ele><time>2026-04-30T08:42:23.999Z</time></trkpt><trkpt lat="31.753290433602885" lon="-4.836230765788364"><ele>1088.0</ele><time>2026-04-30T08:42:24.999Z</time></trkpt><trkpt lat="31.75318305880543" lon="-4.8365081899400035"><ele>1088.0</ele><time>2026-04-30T08:42:25.999Z</time></trkpt><trkpt lat="31.753071799714156" lon="-4.836780862231178"><ele>1088.0</ele><time>2026-04-30T08:42:26.999Z</time></trkpt><trkpt lat="31.752956973988994" lon="-4.837055196012024"><ele>1088.0</ele><time>2026-04-30T08:42:27.999Z</time></trkpt><trkpt lat="31.752850761121678" lon="-4.837330967144502"><ele>1088.0</ele><time>2026-04-30T08:42:28.999Z</time></trkpt><trkpt lat="31.752739615262414" lon="-4.83760631975296"><ele>1088.0</ele><time>2026-04-30T08:42:29.999Z</time></trkpt><trkpt lat="31.752628860977463" lon="-4.837879841917602"><ele>1088.0</ele><time>2026-04-30T08:42:30.999Z</time></trkpt><trkpt lat="31.752518117064255" lon="-4.838151779142103"><ele>1088.0</ele><time>2026-04-30T08:42:31.999Z</time></trkpt><trkpt lat="31.752408285268398" lon="-4.8384241629045635"><ele>1088.0</ele><time>2026-04-30T08:42:32.999Z</time></trkpt><trkpt lat="31.752295106289825" lon="-4.83869419457611"><ele>1087.5</ele><time>2026-04-30T08:42:33.999Z</time></trkpt><trkpt lat="31.75218319178757" lon="-4.8389673351282445"><ele>1087.0</ele><time>2026-04-30T08:42:34.999Z</time></trkpt><trkpt lat="31.75207380128626" lon="-4.839242517803408"><ele>1087.0</ele><time>2026-04-30T08:42:35.999Z</time></trkpt><trkpt lat="31.75196513701502" lon="-4.83951441079194"><ele>1087.0</ele><time>2026-04-30T08:42:36.999Z</time></trkpt><trkpt lat="31.751854813758623" lon="-4.839784461802148"><ele>1087.0</ele><time>2026-04-30T08:42:37.999Z</time></trkpt><trkpt lat="31.7517446201837" lon="-4.840055047782421"><ele>1087.0</ele><time>2026-04-30T08:42:38.999Z</time></trkpt><trkpt lat="31.75163177188558" lon="-4.8403222612904235"><ele>1088.5</ele><time>2026-04-30T08:42:39.999Z</time></trkpt><trkpt lat="31.75152263343601" lon="-4.840592874758843"><ele>1090.0</ele><time>2026-04-30T08:42:40.999Z</time></trkpt><trkpt lat="31.751413262033832" lon="-4.840859404137424"><ele>1087.5</ele><time>2026-04-30T08:42:41.999Z</time></trkpt><trkpt lat="31.751301240080274" lon="-4.841125496571072"><ele>1085.0</ele><time>2026-04-30T08:42:42.999Z</time></trkpt><trkpt lat="31.751191665094197" lon="-4.841391478354133"><ele>1085.0</ele><time>2026-04-30T08:42:43.999Z</time></trkpt><trkpt lat="31.75107972828489" lon="-4.84165647052539"><ele>1085.0</ele><time>2026-04-30T08:42:44.999Z</time></trkpt><trkpt lat="31.75097011959323" lon="-4.841924332229278"><ele>1086.0</ele><time>2026-04-30T08:42:45.999Z</time></trkpt><trkpt lat="31.750860803680833" lon="-4.842192264095883"><ele>1087.0</ele><time>2026-04-30T08:42:47Z</time></trkpt><trkpt lat="31.750752656907515" lon="-4.842460316931712"><ele>1087.5</ele><time>2026-04-30T08:42:48Z</time></trkpt><trkpt lat="31.750642366516853" lon="-4.8427287370919085"><ele>1088.0</ele><time>2026-04-30T08:42:49Z</time></trkpt><trkpt lat="31.750533814998256" lon="-4.842998844986408"><ele>1088.0</ele><time>2026-04-30T08:42:50Z</time></trkpt><trkpt lat="31.75042372539799" lon="-4.843268494410912"><ele>1088.0</ele><time>2026-04-30T08:42:51Z</time></trkpt><trkpt lat="31.750311461562184" lon="-4.843537112197775"><ele>1088.5</ele><time>2026-04-30T08:42:52Z</time></trkpt><trkpt lat="31.750201744600634" lon="-4.843806984413526"><ele>1089.0</ele><time>2026-04-30T08:42:53Z</time></trkpt><trkpt lat="31.75009048985825" lon="-4.844076442043336"><ele>1090.0</ele><time>2026-04-30T08:42:54Z</time></trkpt><trkpt lat="31.74998174811032" lon="-4.844347249394263"><ele>1091.0</ele><time>2026-04-30T08:42:55Z</time></trkpt><trkpt lat="31.749873210990234" lon="-4.844618274440203"><ele>1091.0</ele><time>2026-04-30T08:42:56Z</time></trkpt><trkpt lat="31.749762073123208" lon="-4.844890417203473"><ele>1091.0</ele><time>2026-04-30T08:42:57Z</time></trkpt><trkpt lat="31.74964925733909" lon="-4.845162966733613"><ele>1091.0</ele><time>2026-04-30T08:42:58Z</time></trkpt><trkpt lat="31.749537864741026" lon="-4.845436188458193"><ele>1091.0</ele><time>2026-04-30T08:42:59Z</time></trkpt><trkpt lat="31.749426417095307" lon="-4.845708771625169"><ele>1091.0</ele><time>2026-04-30T08:43:00Z</time></trkpt><trkpt lat="31.749313137360094" lon="-4.8459828025135945"><ele>1091.0</ele><time>2026-04-30T08:43:01Z</time></trkpt><trkpt lat="31.74920316605473" lon="-4.8462574314049744"><ele>1091.0</ele><time>2026-04-30T08:43:02Z</time></trkpt><trkpt lat="31.74909261728432" lon="-4.846532790680297"><ele>1091.0</ele><time>2026-04-30T08:43:03Z</time></trkpt><trkpt lat="31.74898872065191" lon="-4.846810512452573"><ele>1090.5</ele><time>2026-04-30T08:43:04Z</time></trkpt><trkpt lat="31.748877345984468" lon="-4.847087126506599"><ele>1090.0</ele><time>2026-04-30T08:43:05Z</time></trkpt><trkpt lat="31.748764434269045" lon="-4.8473629974024215"><ele>1090.5</ele><time>2026-04-30T08:43:06Z</time></trkpt><trkpt lat="31.74865020363118" lon="-4.847638833270222"><ele>1091.0</ele><time>2026-04-30T08:43:07Z</time></trkpt><trkpt lat="31.74853737354804" lon="-4.847912846695277"><ele>1091.0</ele><time>2026-04-30T08:43:08Z</time></trkpt><trkpt lat="31.748424645935643" lon="-4.8481892279897085"><ele>1091.0</ele><time>2026-04-30T08:43:09Z</time></trkpt><trkpt lat="31.748312672108742" lon="-4.848467255224532"><ele>1090.0</ele><time>2026-04-30T08:43:10Z</time></trkpt><trkpt lat="31.74820045352566" lon="-4.848745418620799"><ele>1089.0</ele><time>2026-04-30T08:43:11Z</time></trkpt><trkpt lat="31.748087932936492" lon="-4.8490230046503155"><ele>1088.5</ele><time>2026-04-30T08:43:12Z</time></trkpt><trkpt lat="31.747974713303012" lon="-4.8492993131613655"><ele>1088.0</ele><time>2026-04-30T08:43:13Z</time></trkpt><trkpt lat="31.747862066080835" lon="-4.849574158770766"><ele>1088.0</ele><time>2026-04-30T08:43:14Z</time></trkpt><trkpt lat="31.747750637589952" lon="-4.849846189330093"><ele>1088.0</ele><time>2026-04-30T08:43:15Z</time></trkpt><trkpt lat="31.747637145136824" lon="-4.85011892283837"><ele>1089.0</ele><time>2026-04-30T08:43:16Z</time></trkpt><trkpt lat="31.747524602717622" lon="-4.850392749024131"><ele>1090.0</ele><time>2026-04-30T08:43:17Z</time></trkpt><trkpt lat="31.74741512584426" lon="-4.850663985484083"><ele>1090.0</ele><time>2026-04-30T08:43:18Z</time></trkpt><trkpt lat="31.747305584029917" lon="-4.850936569636306"><ele>1090.0</ele><time>2026-04-30T08:43:19Z</time></trkpt><trkpt lat="31.747196489356586" lon="-4.851208327722316"><ele>1090.5</ele><time>2026-04-30T08:43:20Z</time></trkpt><trkpt lat="31.74708725800999" lon="-4.851480106095391"><ele>1091.0</ele><time>2026-04-30T08:43:21Z</time></trkpt><trkpt lat="31.746977949887373" lon="-4.851750617408419"><ele>1091.0</ele><time>2026-04-30T08:43:22Z</time></trkpt><trkpt lat="31.74686707200417" lon="-4.852019076817161"><ele>1091.0</ele><time>2026-04-30T08:43:23Z</time></trkpt><trkpt lat="31.74675640103667" lon="-4.852287317917021"><ele>1091.0</ele><time>2026-04-30T08:43:24Z</time></trkpt><trkpt lat="31.746645183035643" lon="-4.852557246514252"><ele>1091.0</ele><time>2026-04-30T08:43:25Z</time></trkpt><trkpt lat="31.746538913040144" lon="-4.852823488167424"><ele>1092.0</ele><time>2026-04-30T08:43:26Z</time></trkpt><trkpt lat="31.74643121849791" lon="-4.853092502246758"><ele>1093.0</ele><time>2026-04-30T08:43:27Z</time></trkpt><trkpt lat="31.74632031394959" lon="-4.853361128030247"><ele>1092.5</ele><time>2026-04-30T08:43:28Z</time></trkpt><trkpt lat="31.746211484419" lon="-4.853633002687388"><ele>1092.0</ele><time>2026-04-30T08:43:29Z</time></trkpt><trkpt lat="31.74610286078865" lon="-4.853908137843745"><ele>1092.0</ele><time>2026-04-30T08:43:30Z</time></trkpt><trkpt lat="31.745991156777208" lon="-4.854179330427939"><ele>1092.0</ele><time>2026-04-30T08:43:31Z</time></trkpt><trkpt lat="31.74587771715515" lon="-4.85445068254613"><ele>1092.0</ele><time>2026-04-30T08:43:32Z</time></trkpt><trkpt lat="31.745763584731066" lon="-4.854724147940381"><ele>1092.0</ele><time>2026-04-30T08:43:33Z</time></trkpt><trkpt lat="31.74565115611597" lon="-4.854998747031406"><ele>1092.0</ele><time>2026-04-30T08:43:33.999Z</time></trkpt><trkpt lat="31.745538808326174" lon="-4.855273065561678"><ele>1092.0</ele><time>2026-04-30T08:43:34.999Z</time></trkpt><trkpt lat="31.74542745027211" lon="-4.855548917382093"><ele>1092.0</ele><time>2026-04-30T08:43:35.999Z</time></trkpt><trkpt lat="31.745316226704162" lon="-4.855823504153526"><ele>1092.0</ele><time>2026-04-30T08:43:36.999Z</time></trkpt><trkpt lat="31.745202393160803" lon="-4.856098633211977"><ele>1092.5</ele><time>2026-04-30T08:43:37.999Z</time></trkpt><trkpt lat="31.745087840207955" lon="-4.8563740292433755"><ele>1093.0</ele><time>2026-04-30T08:43:38.999Z</time></trkpt><trkpt lat="31.74497408456585" lon="-4.856649909871431"><ele>1093.0</ele><time>2026-04-30T08:43:39.999Z</time></trkpt><trkpt lat="31.744863402494197" lon="-4.8569263816460335"><ele>1093.0</ele><time>2026-04-30T08:43:40.999Z</time></trkpt><trkpt lat="31.744751313666836" lon="-4.857204438662912"><ele>1093.0</ele><time>2026-04-30T08:43:41.999Z</time></trkpt><trkpt lat="31.74463823227408" lon="-4.857484394831472"><ele>1093.0</ele><time>2026-04-30T08:43:42.999Z</time></trkpt><trkpt lat="31.74452540439887" lon="-4.857762323439482"><ele>1093.5</ele><time>2026-04-30T08:43:43.999Z</time></trkpt><trkpt lat="31.744411767850146" lon="-4.858039452672202"><ele>1094.0</ele><time>2026-04-30T08:43:44.999Z</time></trkpt><trkpt lat="31.744297096898325" lon="-4.858317848657885"><ele>1094.5</ele><time>2026-04-30T08:43:45.999Z</time></trkpt><trkpt lat="31.74418526259835" lon="-4.8585951882487155"><ele>1095.0</ele><time>2026-04-30T08:43:46.999Z</time></trkpt><trkpt lat="31.74407307308814" lon="-4.858873378775899"><ele>1095.0</ele><time>2026-04-30T08:43:47.999Z</time></trkpt><trkpt lat="31.743959646027182" lon="-4.8591499492548476"><ele>1095.0</ele><time>2026-04-30T08:43:48.999Z</time></trkpt><trkpt lat="31.743846623163524" lon="-4.859427338566983"><ele>1095.0</ele><time>2026-04-30T08:43:49.999Z</time></trkpt><trkpt lat="31.74373302808438" lon="-4.8597042875500085"><ele>1095.0</ele><time>2026-04-30T08:43:50.999Z</time></trkpt><trkpt lat="31.743620555709736" lon="-4.859981499620495"><ele>1095.5</ele><time>2026-04-30T08:43:51.999Z</time></trkpt><trkpt lat="31.74350854689296" lon="-4.860257214084857"><ele>1096.0</ele><time>2026-04-30T08:43:52.999Z</time></trkpt><trkpt lat="31.743395545520055" lon="-4.860535071376729"><ele>1096.0</ele><time>2026-04-30T08:43:53.999Z</time></trkpt><trkpt lat="31.743282400322528" lon="-4.860810791462107"><ele>1096.0</ele><time>2026-04-30T08:43:54.999Z</time></trkpt><trkpt lat="31.743167598665337" lon="-4.861086213329352"><ele>1095.5</ele><time>2026-04-30T08:43:55.999Z</time></trkpt><trkpt lat="31.743054407770092" lon="-4.86136206834281"><ele>1095.0</ele><time>2026-04-30T08:43:56.999Z</time></trkpt><trkpt lat="31.742943136914107" lon="-4.861640729581033"><ele>1094.0</ele><time>2026-04-30T08:43:57.999Z</time></trkpt><trkpt lat="31.742829447602595" lon="-4.861920865657943"><ele>1093.0</ele><time>2026-04-30T08:43:58.999Z</time></trkpt><trkpt lat="31.742716307135186" lon="-4.862200509413583"><ele>1092.0</ele><time>2026-04-30T08:43:59.999Z</time></trkpt><trkpt lat="31.74260273338177" lon="-4.862483706231548"><ele>1091.0</ele><time>2026-04-30T08:44:00.999Z</time></trkpt><trkpt lat="31.742487507698126" lon="-4.862767496826684"><ele>1089.5</ele><time>2026-04-30T08:44:01.999Z</time></trkpt><trkpt lat="31.742370037431463" lon="-4.863049450618607"><ele>1088.0</ele><time>2026-04-30T08:44:02.999Z</time></trkpt><trkpt lat="31.74225277767978" lon="-4.863336119246082"><ele>1088.5</ele><time>2026-04-30T08:44:03.999Z</time></trkpt><trkpt lat="31.742135006581513" lon="-4.863625497971505"><ele>1089.0</ele><time>2026-04-30T08:44:04.999Z</time></trkpt><trkpt lat="31.742018511745492" lon="-4.863912032354771"><ele>1089.0</ele><time>2026-04-30T08:44:05.999Z</time></trkpt><trkpt lat="31.74190074964023" lon="-4.864200893138058"><ele>1089.0</ele><time>2026-04-30T08:44:06.999Z</time></trkpt><trkpt lat="31.741783423675976" lon="-4.864487730112712"><ele>1090.0</ele><time>2026-04-30T08:44:07.999Z</time></trkpt><trkpt lat="31.74166720548028" lon="-4.864774145321226"><ele>1091.0</ele><time>2026-04-30T08:44:08.999Z</time></trkpt><trkpt lat="31.74155202864227" lon="-4.865059203436887"><ele>1091.5</ele><time>2026-04-30T08:44:09.999Z</time></trkpt><trkpt lat="31.74143686240346" lon="-4.865344146271282"><ele>1092.0</ele><time>2026-04-30T08:44:10.999Z</time></trkpt><trkpt lat="31.74132411233116" lon="-4.865628650228017"><ele>1092.0</ele><time>2026-04-30T08:44:11.999Z</time></trkpt><trkpt lat="31.741210611959144" lon="-4.8659130888899655"><ele>1092.0</ele><time>2026-04-30T08:44:12.999Z</time></trkpt><trkpt lat="31.74109512535729" lon="-4.866191930501149"><ele>1093.0</ele><time>2026-04-30T08:44:13.999Z</time></trkpt><trkpt lat="31.740980146249058" lon="-4.866471128879327"><ele>1094.0</ele><time>2026-04-30T08:44:14.999Z</time></trkpt><trkpt lat="31.740867230126327" lon="-4.866750041068673"><ele>1094.0</ele><time>2026-04-30T08:44:15.999Z</time></trkpt><trkpt lat="31.740756210305232" lon="-4.8670297717156625"><ele>1094.0</ele><time>2026-04-30T08:44:16.999Z</time></trkpt><trkpt lat="31.74064502648562" lon="-4.8673074268713235"><ele>1094.0</ele><time>2026-04-30T08:44:17.999Z</time></trkpt><trkpt lat="31.740531140009992" lon="-4.867584762493424"><ele>1094.0</ele><time>2026-04-30T08:44:18.999Z</time></trkpt><trkpt lat="31.740417740441227" lon="-4.867859511319386"><ele>1094.5</ele><time>2026-04-30T08:44:19.999Z</time></trkpt><trkpt lat="31.740303440439657" lon="-4.868132869611074"><ele>1095.0</ele><time>2026-04-30T08:44:20.999Z</time></trkpt><trkpt lat="31.740191233413075" lon="-4.868407397250425"><ele>1096.0</ele><time>2026-04-30T08:44:21.999Z</time></trkpt><trkpt lat="31.740079943272423" lon="-4.868684674724814"><ele>1097.0</ele><time>2026-04-30T08:44:22.999Z</time></trkpt><trkpt lat="31.739968854748344" lon="-4.868962146045051"><ele>1097.0</ele><time>2026-04-30T08:44:23.999Z</time></trkpt><trkpt lat="31.73985646679645" lon="-4.869239146734829"><ele>1097.0</ele><time>2026-04-30T08:44:24.999Z</time></trkpt><trkpt lat="31.739745449795613" lon="-4.869517261791286"><ele>1096.5</ele><time>2026-04-30T08:44:25.999Z</time></trkpt><trkpt lat="31.739630992958674" lon="-4.86979693824311"><ele>1096.0</ele><time>2026-04-30T08:44:26.999Z</time></trkpt><trkpt lat="31.73951428954402" lon="-4.8700720812010365"><ele>1096.0</ele><time>2026-04-30T08:44:27.999Z</time></trkpt><trkpt lat="31.739399185517822" lon="-4.870350276055262"><ele>1096.0</ele><time>2026-04-30T08:44:28.999Z</time></trkpt><trkpt lat="31.739285281407508" lon="-4.870630320274732"><ele>1096.0</ele><time>2026-04-30T08:44:29.999Z</time></trkpt><trkpt lat="31.73917212020631" lon="-4.870909694243959"><ele>1096.0</ele><time>2026-04-30T08:44:30.999Z</time></trkpt><trkpt lat="31.73905847293964" lon="-4.871191037292159"><ele>1096.0</ele><time>2026-04-30T08:44:31.999Z</time></trkpt><trkpt lat="31.738943794640477" lon="-4.871469745730845"><ele>1096.0</ele><time>2026-04-30T08:44:32.999Z</time></trkpt><trkpt lat="31.738827874925903" lon="-4.871749774552473"><ele>1095.5</ele><time>2026-04-30T08:44:33.999Z</time></trkpt><trkpt lat="31.738713313645746" lon="-4.8720296889103105"><ele>1095.0</ele><time>2026-04-30T08:44:34.999Z</time></trkpt><trkpt lat="31.73860198746418" lon="-4.8723109217682685"><ele>1096.5</ele><time>2026-04-30T08:44:35.999Z</time></trkpt><trkpt lat="31.738488203850398" lon="-4.872593578660251"><ele>1098.0</ele><time>2026-04-30T08:44:36.999Z</time></trkpt><trkpt lat="31.738374824706977" lon="-4.872874900574809"><ele>1098.0</ele><time>2026-04-30T08:44:37.999Z</time></trkpt><trkpt lat="31.738259584112463" lon="-4.8731554286760765"><ele>1098.0</ele><time>2026-04-30T08:44:38.999Z</time></trkpt><trkpt lat="31.7381457675449" lon="-4.873436607250157"><ele>1097.5</ele><time>2026-04-30T08:44:39.999Z</time></trkpt><trkpt lat="31.738032407078553" lon="-4.873717250728433"><ele>1097.0</ele><time>2026-04-30T08:44:40.999Z</time></trkpt><trkpt lat="31.737916874356912" lon="-4.87399578155199"><ele>1096.5</ele><time>2026-04-30T08:44:41.999Z</time></trkpt><trkpt lat="31.737798759071428" lon="-4.874275740359343"><ele>1096.0</ele><time>2026-04-30T08:44:42.999Z</time></trkpt><trkpt lat="31.737683539751696" lon="-4.874556479923779"><ele>1096.0</ele><time>2026-04-30T08:44:43.999Z</time></trkpt><trkpt lat="31.737572685270955" lon="-4.874835244655412"><ele>1096.0</ele><time>2026-04-30T08:44:44.999Z</time></trkpt><trkpt lat="31.737459856090375" lon="-4.8751108116712345"><ele>1096.5</ele><time>2026-04-30T08:44:45.999Z</time></trkpt><trkpt lat="31.737347019709386" lon="-4.875385806753903"><ele>1097.0</ele><time>2026-04-30T08:44:46.999Z</time></trkpt><trkpt lat="31.737235015211688" lon="-4.875659633382564"><ele>1097.0</ele><time>2026-04-30T08:44:47.999Z</time></trkpt><trkpt lat="31.737124703507156" lon="-4.87593278695782"><ele>1097.0</ele><time>2026-04-30T08:44:48.999Z</time></trkpt><trkpt lat="31.73701269475389" lon="-4.876208136126779"><ele>1097.0</ele><time>2026-04-30T08:44:49.999Z</time></trkpt><trkpt lat="31.73689936437932" lon="-4.876481024895088"><ele>1097.0</ele><time>2026-04-30T08:44:50.999Z</time></trkpt><trkpt lat="31.736788048864145" lon="-4.87675263311978"><ele>1097.5</ele><time>2026-04-30T08:44:51.999Z</time></trkpt><trkpt lat="31.73667909280386" lon="-4.877024091422506"><ele>1098.0</ele><time>2026-04-30T08:44:53Z</time></trkpt><trkpt lat="31.73657319923052" lon="-4.877296361714756"><ele>1098.0</ele><time>2026-04-30T08:44:54Z</time></trkpt><trkpt lat="31.736465336933545" lon="-4.8775658851357555"><ele>1098.0</ele><time>2026-04-30T08:44:55Z</time></trkpt><trkpt lat="31.73635565325247" lon="-4.877833360720135"><ele>1097.5</ele><time>2026-04-30T08:44:56Z</time></trkpt><trkpt lat="31.736246284770626" lon="-4.878094832403926"><ele>1097.0</ele><time>2026-04-30T08:44:57Z</time></trkpt><trkpt lat="31.736139829953867" lon="-4.8783557888243125"><ele>1096.5</ele><time>2026-04-30T08:44:58Z</time></trkpt><trkpt lat="31.7360351669439" lon="-4.878612878332749"><ele>1096.0</ele><time>2026-04-30T08:44:59Z</time></trkpt><trkpt lat="31.73592987244899" lon="-4.878869213342086"><ele>1096.0</ele><time>2026-04-30T08:45:00Z</time></trkpt><trkpt lat="31.735823223455913" lon="-4.879126998295891"><ele>1096.0</ele><time>2026-04-30T08:45:01Z</time></trkpt><trkpt lat="31.73572033296703" lon="-4.879383616158523"><ele>1097.0</ele><time>2026-04-30T08:45:02Z</time></trkpt><trkpt lat="31.73561616660899" lon="-4.879642206542073"><ele>1098.0</ele><time>2026-04-30T08:45:03Z</time></trkpt><trkpt lat="31.735510989938604" lon="-4.879899873716439"><ele>1097.5</ele><time>2026-04-30T08:45:04Z</time></trkpt><trkpt lat="31.73540920287986" lon="-4.880155654869186"><ele>1097.0</ele><time>2026-04-30T08:45:05Z</time></trkpt><trkpt lat="31.735303895905016" lon="-4.880411997182537"><ele>1098.0</ele><time>2026-04-30T08:45:06Z</time></trkpt><trkpt lat="31.73519792124822" lon="-4.880670497365647"><ele>1099.0</ele><time>2026-04-30T08:45:07Z</time></trkpt><trkpt lat="31.73509259312004" lon="-4.880932693095369"><ele>1099.0</ele><time>2026-04-30T08:45:08Z</time></trkpt><trkpt lat="31.73498457047056" lon="-4.881197237918635"><ele>1099.0</ele><time>2026-04-30T08:45:09Z</time></trkpt><trkpt lat="31.734872694534776" lon="-4.881463723525561"><ele>1099.0</ele><time>2026-04-30T08:45:10Z</time></trkpt><trkpt lat="31.73475823193558" lon="-4.8817330979349"><ele>1099.0</ele><time>2026-04-30T08:45:11Z</time></trkpt><trkpt lat="31.73464509207386" lon="-4.882007384896771"><ele>1099.0</ele><time>2026-04-30T08:45:12Z</time></trkpt><trkpt lat="31.73453344746376" lon="-4.882284603612437"><ele>1099.0</ele><time>2026-04-30T08:45:13Z</time></trkpt><trkpt lat="31.73441961608344" lon="-4.882564926265818"><ele>1099.5</ele><time>2026-04-30T08:45:14Z</time></trkpt><trkpt lat="31.734307163286736" lon="-4.882844420317386"><ele>1100.0</ele><time>2026-04-30T08:45:15Z</time></trkpt><trkpt lat="31.734192429864507" lon="-4.883123053003245"><ele>1100.0</ele><time>2026-04-30T08:45:16Z</time></trkpt><trkpt lat="31.734079011899507" lon="-4.883400054398501"><ele>1100.0</ele><time>2026-04-30T08:45:17Z</time></trkpt><trkpt lat="31.733967110383304" lon="-4.883676038327242"><ele>1100.5</ele><time>2026-04-30T08:45:18Z</time></trkpt><trkpt lat="31.73385706713711" lon="-4.883948720976547"><ele>1101.0</ele><time>2026-04-30T08:45:19Z</time></trkpt><trkpt lat="31.733749945653372" lon="-4.884219346680933"><ele>1101.0</ele><time>2026-04-30T08:45:20Z</time></trkpt><trkpt lat="31.7336410886843" lon="-4.884487208736222"><ele>1101.0</ele><time>2026-04-30T08:45:21Z</time></trkpt><trkpt lat="31.733530593318022" lon="-4.88475331355818"><ele>1101.5</ele><time>2026-04-30T08:45:22Z</time></trkpt><trkpt lat="31.73341951744722" lon="-4.885021743382504"><ele>1102.0</ele><time>2026-04-30T08:45:23Z</time></trkpt><trkpt lat="31.733310883297477" lon="-4.88528906582765"><ele>1102.0</ele><time>2026-04-30T08:45:24Z</time></trkpt><trkpt lat="31.733201295910394" lon="-4.885559263903552"><ele>1102.0</ele><time>2026-04-30T08:45:25Z</time></trkpt><trkpt lat="31.733091033850503" lon="-4.885830123344298"><ele>1102.0</ele><time>2026-04-30T08:45:26Z</time></trkpt><trkpt lat="31.732981174833295" lon="-4.886102889591062"><ele>1102.0</ele><time>2026-04-30T08:45:26.999Z</time></trkpt><trkpt lat="31.732871643327318" lon="-4.8863759901651145"><ele>1102.0</ele><time>2026-04-30T08:45:27.999Z</time></trkpt><trkpt lat="31.73276078626553" lon="-4.8866489210573665"><ele>1102.0</ele><time>2026-04-30T08:45:28.999Z</time></trkpt><trkpt lat="31.73264986508269" lon="-4.886922036860463"><ele>1101.5</ele><time>2026-04-30T08:45:29.999Z</time></trkpt><trkpt lat="31.73253597915275" lon="-4.8871944065800355"><ele>1101.0</ele><time>2026-04-30T08:45:30.999Z</time></trkpt><trkpt lat="31.732423173332368" lon="-4.887465429059143"><ele>1101.0</ele><time>2026-04-30T08:45:31.999Z</time></trkpt><trkpt lat="31.73231133933284" lon="-4.88773702822318"><ele>1101.0</ele><time>2026-04-30T08:45:32.999Z</time></trkpt><trkpt lat="31.732200807738625" lon="-4.88801085907043"><ele>1101.0</ele><time>2026-04-30T08:45:33.999Z</time></trkpt><trkpt lat="31.73209022332713" lon="-4.888283009934811"><ele>1101.0</ele><time>2026-04-30T08:45:34.999Z</time></trkpt><trkpt lat="31.731979819606874" lon="-4.888556113267783"><ele>1101.0</ele><time>2026-04-30T08:45:35.999Z</time></trkpt><trkpt lat="31.73186959590776" lon="-4.88883135626324"><ele>1101.0</ele><time>2026-04-30T08:45:36.999Z</time></trkpt><trkpt lat="31.731759218118626" lon="-4.889104890557187"><ele>1101.5</ele><time>2026-04-30T08:45:37.999Z</time></trkpt><trkpt lat="31.731647146442004" lon="-4.889376307078013"><ele>1102.0</ele><time>2026-04-30T08:45:38.999Z</time></trkpt><trkpt lat="31.731532916930817" lon="-4.8896454622367695"><ele>1102.0</ele><time>2026-04-30T08:45:39.999Z</time></trkpt><trkpt lat="31.731422529816104" lon="-4.889917886691517"><ele>1102.0</ele><time>2026-04-30T08:45:40.999Z</time></trkpt><trkpt lat="31.7313124532406" lon="-4.890192473100989"><ele>1102.0</ele><time>2026-04-30T08:45:41.999Z</time></trkpt><trkpt lat="31.731203772789286" lon="-4.890467324402431"><ele>1102.0</ele><time>2026-04-30T08:45:42.999Z</time></trkpt><trkpt lat="31.73109360741247" lon="-4.890743208566198"><ele>1102.0</ele><time>2026-04-30T08:45:43.999Z</time></trkpt><trkpt lat="31.73098140886192" lon="-4.891019475990935"><ele>1102.0</ele><time>2026-04-30T08:45:44.999Z</time></trkpt><trkpt lat="31.73086753856797" lon="-4.891295944450297"><ele>1102.0</ele><time>2026-04-30T08:45:45.999Z</time></trkpt><trkpt lat="31.730752439185622" lon="-4.891572286247304"><ele>1102.0</ele><time>2026-04-30T08:45:46.999Z</time></trkpt><trkpt lat="31.73063716840516" lon="-4.891850297071123"><ele>1100.5</ele><time>2026-04-30T08:45:47.999Z</time></trkpt><trkpt lat="31.73052179515611" lon="-4.892129917727632"><ele>1099.0</ele><time>2026-04-30T08:45:48.999Z</time></trkpt><trkpt lat="31.7304078681331" lon="-4.892412330968406"><ele>1098.5</ele><time>2026-04-30T08:45:49.999Z</time></trkpt><trkpt lat="31.730291901064803" lon="-4.892697415336836"><ele>1098.0</ele><time>2026-04-30T08:45:50.999Z</time></trkpt><trkpt lat="31.73017558366477" lon="-4.892983142170011"><ele>1097.5</ele><time>2026-04-30T08:45:51.999Z</time></trkpt><trkpt lat="31.73005863068185" lon="-4.893269590186882"><ele>1097.0</ele><time>2026-04-30T08:45:52.999Z</time></trkpt><trkpt lat="31.72994162599057" lon="-4.8935537360844545"><ele>1096.5</ele><time>2026-04-30T08:45:53.999Z</time></trkpt><trkpt lat="31.729825749632713" lon="-4.893835693523167"><ele>1096.0</ele><time>2026-04-30T08:45:54.999Z</time></trkpt><trkpt lat="31.729710972147043" lon="-4.894120155908392"><ele>1096.5</ele><time>2026-04-30T08:45:55.999Z</time></trkpt><trkpt lat="31.729596130410933" lon="-4.894404427060319"><ele>1097.0</ele><time>2026-04-30T08:45:56.999Z</time></trkpt><trkpt lat="31.72948040165098" lon="-4.89468947260273"><ele>1098.0</ele><time>2026-04-30T08:45:57.999Z</time></trkpt><trkpt lat="31.729364780451775" lon="-4.894971852129785"><ele>1099.0</ele><time>2026-04-30T08:45:58.999Z</time></trkpt><trkpt lat="31.72924962433108" lon="-4.895255075144583"><ele>1099.0</ele><time>2026-04-30T08:45:59.999Z</time></trkpt><trkpt lat="31.729134157748405" lon="-4.895536438665787"><ele>1099.0</ele><time>2026-04-30T08:46:00.999Z</time></trkpt><trkpt lat="31.729017277706237" lon="-4.895818512964843"><ele>1099.0</ele><time>2026-04-30T08:46:01.999Z</time></trkpt><trkpt lat="31.728902924062023" lon="-4.896100328105168"><ele>1099.0</ele><time>2026-04-30T08:46:02.999Z</time></trkpt><trkpt lat="31.728792633056425" lon="-4.896381734747678"><ele>1099.0</ele><time>2026-04-30T08:46:03.999Z</time></trkpt><trkpt lat="31.728679417390033" lon="-4.8966618450313675"><ele>1099.0</ele><time>2026-04-30T08:46:04.999Z</time></trkpt><trkpt lat="31.72856570817817" lon="-4.896939567447974"><ele>1100.5</ele><time>2026-04-30T08:46:05.999Z</time></trkpt><trkpt lat="31.72845261028764" lon="-4.897215172419274"><ele>1102.0</ele><time>2026-04-30T08:46:06.999Z</time></trkpt><trkpt lat="31.7283394817445" lon="-4.897489362349905"><ele>1103.0</ele><time>2026-04-30T08:46:07.999Z</time></trkpt><trkpt lat="31.728228107027938" lon="-4.897760917430212"><ele>1104.0</ele><time>2026-04-30T08:46:08.999Z</time></trkpt><trkpt lat="31.72811712586917" lon="-4.898035357878877"><ele>1104.0</ele><time>2026-04-30T08:46:09.999Z</time></trkpt><trkpt lat="31.728007828297898" lon="-4.898309980066227"><ele>1104.0</ele><time>2026-04-30T08:46:10.999Z</time></trkpt><trkpt lat="31.72789748871421" lon="-4.898582996271167"><ele>1104.0</ele><time>2026-04-30T08:46:11.999Z</time></trkpt><trkpt lat="31.727783831900346" lon="-4.898855823387187"><ele>1104.0</ele><time>2026-04-30T08:46:12.999Z</time></trkpt><trkpt lat="31.727672354773635" lon="-4.899126630691514"><ele>1104.5</ele><time>2026-04-30T08:46:13.999Z</time></trkpt><trkpt lat="31.72756374384735" lon="-4.899391534851659"><ele>1105.0</ele><time>2026-04-30T08:46:14.999Z</time></trkpt><trkpt lat="31.727458544282772" lon="-4.899652960815024"><ele>1105.0</ele><time>2026-04-30T08:46:15.999Z</time></trkpt><trkpt lat="31.72735480022254" lon="-4.899911745950115"><ele>1105.0</ele><time>2026-04-30T08:46:16.999Z</time></trkpt><trkpt lat="31.727251313983665" lon="-4.900168530138866"><ele>1104.6666666666665</ele><time>2026-04-30T08:46:17.999Z</time></trkpt><trkpt lat="31.72715226374395" lon="-4.900412713683422"><ele>1104.3333333333333</ele><time>2026-04-30T08:46:18.999Z</time></trkpt><trkpt lat="31.727057756685824" lon="-4.900645374994021"><ele>1104.0</ele><time>2026-04-30T08:46:19.999Z</time></trkpt><trkpt lat="31.726968190979715" lon="-4.900869997901693"><ele>1103.0</ele><time>2026-04-30T08:46:20.999Z</time></trkpt><trkpt lat="31.726875583325842" lon="-4.9010956002022805"><ele>1102.0</ele><time>2026-04-30T08:46:21.999Z</time></trkpt><trkpt lat="31.72677953457011" lon="-4.901325749736171"><ele>1101.0</ele><time>2026-04-30T08:46:22.999Z</time></trkpt><trkpt lat="31.726681849935307" lon="-4.901563802633962"><ele>1100.0</ele><time>2026-04-30T08:46:23.999Z</time></trkpt><trkpt lat="31.726582248270386" lon="-4.901809521601391"><ele>1099.0</ele><time>2026-04-30T08:46:24.999Z</time></trkpt><trkpt lat="31.726481023568212" lon="-4.902062803822108"><ele>1099.0</ele><time>2026-04-30T08:46:25.999Z</time></trkpt><trkpt lat="31.726376710502095" lon="-4.90231822461444"><ele>1099.0</ele><time>2026-04-30T08:46:26.999Z</time></trkpt><trkpt lat="31.726275056163598" lon="-4.90257023681701"><ele>1099.0</ele><time>2026-04-30T08:46:27.999Z</time></trkpt><trkpt lat="31.726178463745452" lon="-4.902814394997752"><ele>1099.0</ele><time>2026-04-30T08:46:28.999Z</time></trkpt><trkpt lat="31.72608019579468" lon="-4.903060901381287"><ele>1097.0</ele><time>2026-04-30T08:46:29.999Z</time></trkpt><trkpt lat="31.725977135073716" lon="-4.9032981321416695"><ele>1095.0</ele><time>2026-04-30T08:46:30.999Z</time></trkpt><trkpt lat="31.725876065168478" lon="-4.903540444941455"><ele>1094.6666666666667</ele><time>2026-04-30T08:46:31.999Z</time></trkpt><trkpt lat="31.725782096691862" lon="-4.9037715118040595"><ele>1094.3333333333335</ele><time>2026-04-30T08:46:32.999Z</time></trkpt><trkpt lat="31.725684486238276" lon="-4.904003348646324"><ele>1094.0</ele><time>2026-04-30T08:46:33.999Z</time></trkpt><trkpt lat="31.72559290831757" lon="-4.904229443104013"><ele>1093.6666666666667</ele><time>2026-04-30T08:46:34.999Z</time></trkpt><trkpt lat="31.72550294916312" lon="-4.90444720735842"><ele>1093.3333333333333</ele><time>2026-04-30T08:46:35.999Z</time></trkpt><trkpt lat="31.725417091385292" lon="-4.904656077670784"><ele>1093.0</ele><time>2026-04-30T08:46:36.999Z</time></trkpt><trkpt lat="31.725337649860947" lon="-4.904852952971842"><ele>1093.0</ele><time>2026-04-30T08:46:37.999Z</time></trkpt><trkpt lat="31.725259454814445" lon="-4.905040862781335"><ele>1093.0</ele><time>2026-04-30T08:46:38.999Z</time></trkpt><trkpt lat="31.725183178330767" lon="-4.905225864001802"><ele>1093.0</ele><time>2026-04-30T08:46:39.999Z</time></trkpt><trkpt lat="31.725106193044056" lon="-4.905415519485379"><ele>1093.0</ele><time>2026-04-30T08:46:40.999Z</time></trkpt><trkpt lat="31.72502909366975" lon="-4.905607753060712"><ele>1093.0</ele><time>2026-04-30T08:46:41.999Z</time></trkpt><trkpt lat="31.724948278357303" lon="-4.9058069539650475"><ele>1093.0</ele><time>2026-04-30T08:46:42.999Z</time></trkpt><trkpt lat="31.72486720227037" lon="-4.9060082727982355"><ele>1093.0</ele><time>2026-04-30T08:46:43.999Z</time></trkpt><trkpt lat="31.724781023843523" lon="-4.906217303805613"><ele>1093.0</ele><time>2026-04-30T08:46:44.999Z</time></trkpt><trkpt lat="31.724691968318027" lon="-4.9064370163384865"><ele>1093.0</ele><time>2026-04-30T08:46:45.999Z</time></trkpt><trkpt lat="31.724601515441293" lon="-4.906663449710522"><ele>1093.0</ele><time>2026-04-30T08:46:46.999Z</time></trkpt><trkpt lat="31.72450793419704" lon="-4.906891725906197"><ele>1093.0</ele><time>2026-04-30T08:46:47.999Z</time></trkpt><trkpt lat="31.72441313671646" lon="-4.907125796330762"><ele>1093.0</ele><time>2026-04-30T08:46:48.999Z</time></trkpt><trkpt lat="31.72431617296199" lon="-4.907361996411536"><ele>1095.0</ele><time>2026-04-30T08:46:49.999Z</time></trkpt><trkpt lat="31.72421893971706" lon="-4.907599349657985"><ele>1097.0</ele><time>2026-04-30T08:46:50.999Z</time></trkpt><trkpt lat="31.724119389631365" lon="-4.907842203040984"><ele>1097.0</ele><time>2026-04-30T08:46:51.999Z</time></trkpt><trkpt lat="31.724020690290647" lon="-4.90808438587578"><ele>1097.0</ele><time>2026-04-30T08:46:52.999Z</time></trkpt><trkpt lat="31.723921641378382" lon="-4.908325536668164"><ele>1099.0</ele><time>2026-04-30T08:46:53.999Z</time></trkpt><trkpt lat="31.723820456123672" lon="-4.908566226594794"><ele>1101.0</ele><time>2026-04-30T08:46:54.999Z</time></trkpt><trkpt lat="31.723719201487253" lon="-4.908810130811397"><ele>1101.0</ele><time>2026-04-30T08:46:55.999Z</time></trkpt><trkpt lat="31.723620956229123" lon="-4.909053212541487"><ele>1101.0</ele><time>2026-04-30T08:46:56.999Z</time></trkpt><trkpt lat="31.723522082803992" lon="-4.909294678379287"><ele>1103.0</ele><time>2026-04-30T08:46:57.999Z</time></trkpt><trkpt lat="31.723420776478175" lon="-4.9095386017556075"><ele>1105.0</ele><time>2026-04-30T08:46:59Z</time></trkpt><trkpt lat="31.723324180636492" lon="-4.909785467160643"><ele>1105.0</ele><time>2026-04-30T08:47:00Z</time></trkpt><trkpt lat="31.723229816818446" lon="-4.91003214850843"><ele>1105.0</ele><time>2026-04-30T08:47:01Z</time></trkpt><trkpt lat="31.72313425577878" lon="-4.910273939586871"><ele>1103.0</ele><time>2026-04-30T08:47:02Z</time></trkpt><trkpt lat="31.72303391563893" lon="-4.910517941349619"><ele>1101.0</ele><time>2026-04-30T08:47:03Z</time></trkpt><trkpt lat="31.722935627295527" lon="-4.91076384937976"><ele>1102.0</ele><time>2026-04-30T08:47:04Z</time></trkpt><trkpt lat="31.722834897841995" lon="-4.911009969935397"><ele>1103.0</ele><time>2026-04-30T08:47:05Z</time></trkpt><trkpt lat="31.72273390277156" lon="-4.911258541093468"><ele>1104.0</ele><time>2026-04-30T08:47:06Z</time></trkpt><trkpt lat="31.722631708208368" lon="-4.911509284192495"><ele>1105.0</ele><time>2026-04-30T08:47:07Z</time></trkpt><trkpt lat="31.722530360566136" lon="-4.911757162750099"><ele>1105.0</ele><time>2026-04-30T08:47:08Z</time></trkpt><trkpt lat="31.722430072331438" lon="-4.912005269919403"><ele>1105.0</ele><time>2026-04-30T08:47:09Z</time></trkpt><trkpt lat="31.722331066282543" lon="-4.912248497941597"><ele>1105.0</ele><time>2026-04-30T08:47:10Z</time></trkpt><trkpt lat="31.722232279603162" lon="-4.912475337449755"><ele>1105.0</ele><time>2026-04-30T08:47:11Z</time></trkpt><trkpt lat="31.722135676778247" lon="-4.91270473370867"><ele>1105.0</ele><time>2026-04-30T08:47:12Z</time></trkpt><trkpt lat="31.72204519261336" lon="-4.912936278611765"><ele>1105.3333333333333</ele><time>2026-04-30T08:47:13Z</time></trkpt><trkpt lat="31.72194795176456" lon="-4.913163334320549"><ele>1105.6666666666667</ele><time>2026-04-30T08:47:14Z</time></trkpt><trkpt lat="31.721850838905667" lon="-4.913384378906659"><ele>1106.0</ele><time>2026-04-30T08:47:15Z</time></trkpt><trkpt lat="31.721761928078926" lon="-4.913606494066595"><ele>1105.0</ele><time>2026-04-30T08:47:16Z</time></trkpt><trkpt lat="31.72166897406648" lon="-4.913832279762345"><ele>1104.0</ele><time>2026-04-30T08:47:17Z</time></trkpt><trkpt lat="31.72157413699609" lon="-4.914057269884371"><ele>1103.0</ele><time>2026-04-30T08:47:18Z</time></trkpt><trkpt lat="31.72147717635279" lon="-4.914278476587208"><ele>1101.0</ele><time>2026-04-30T08:47:19Z</time></trkpt><trkpt lat="31.721375735726006" lon="-4.914497379438311"><ele>1099.0</ele><time>2026-04-30T08:47:20Z</time></trkpt><trkpt lat="31.721260539637225" lon="-4.914718470098804"><ele>1097.0</ele><time>2026-04-30T08:47:21Z</time></trkpt><trkpt lat="31.72114547790454" lon="-4.9149355862223425"><ele>1097.6666666666667</ele><time>2026-04-30T08:47:22Z</time></trkpt><trkpt lat="31.721033525201744" lon="-4.915156234114119"><ele>1098.3333333333333</ele><time>2026-04-30T08:47:22.999Z</time></trkpt><trkpt lat="31.720921932651603" lon="-4.91537546741197"><ele>1099.0</ele><time>2026-04-30T08:47:23.999Z</time></trkpt><trkpt lat="31.720807821533924" lon="-4.915598278781205"><ele>1099.0</ele><time>2026-04-30T08:47:24.999Z</time></trkpt><trkpt lat="31.720697002584252" lon="-4.915822566808255"><ele>1099.0</ele><time>2026-04-30T08:47:25.999Z</time></trkpt><trkpt lat="31.720580537737646" lon="-4.916040784801531"><ele>1099.0</ele><time>2026-04-30T08:47:26.999Z</time></trkpt><trkpt lat="31.720469762415053" lon="-4.916257434849715"><ele>1099.3333333333333</ele><time>2026-04-30T08:47:27.999Z</time></trkpt><trkpt lat="31.72035927628838" lon="-4.916471619996154"><ele>1099.6666666666667</ele><time>2026-04-30T08:47:28.999Z</time></trkpt><trkpt lat="31.72024566982979" lon="-4.9166851979579835"><ele>1100.0</ele><time>2026-04-30T08:47:29.999Z</time></trkpt><trkpt lat="31.720137173842968" lon="-4.916898996321069"><ele>1100.0</ele><time>2026-04-30T08:47:30.999Z</time></trkpt><trkpt lat="31.720031648100655" lon="-4.9171153396845275"><ele>1100.0</ele><time>2026-04-30T08:47:31.999Z</time></trkpt><trkpt lat="31.719923754316437" lon="-4.917323434095738"><ele>1100.0</ele><time>2026-04-30T08:47:32.999Z</time></trkpt><trkpt lat="31.719817500556637" lon="-4.917533011604027"><ele>1101.0</ele><time>2026-04-30T08:47:33.999Z</time></trkpt><trkpt lat="31.719710387905966" lon="-4.917742289091733"><ele>1102.0</ele><time>2026-04-30T08:47:34.999Z</time></trkpt><trkpt lat="31.7196009548298" lon="-4.917952613914192"><ele>1103.0</ele><time>2026-04-30T08:47:35.999Z</time></trkpt><trkpt lat="31.71949129512988" lon="-4.918164170593155"><ele>1104.3333333333335</ele><time>2026-04-30T08:47:36.999Z</time></trkpt><trkpt lat="31.719384799857824" lon="-4.918373013015294"><ele>1105.6666666666667</ele><time>2026-04-30T08:47:37.999Z</time></trkpt><trkpt lat="31.719277840589633" lon="-4.918583895401251"><ele>1107.0</ele><time>2026-04-30T08:47:38.999Z</time></trkpt><trkpt lat="31.71916566947703" lon="-4.918790119150983"><ele>1107.3333333333333</ele><time>2026-04-30T08:47:39.999Z</time></trkpt><trkpt lat="31.71905065922483" lon="-4.918991935352299"><ele>1107.6666666666665</ele><time>2026-04-30T08:47:40.999Z</time></trkpt><trkpt lat="31.71892691740972" lon="-4.9191930795000856"><ele>1108.0</ele><time>2026-04-30T08:47:41.999Z</time></trkpt><trkpt lat="31.718789452371546" lon="-4.919383910804524"><ele>1108.6666666666665</ele><time>2026-04-30T08:47:42.999Z</time></trkpt><trkpt lat="31.71864319636568" lon="-4.9195738841313865"><ele>1109.3333333333333</ele><time>2026-04-30T08:47:43.999Z</time></trkpt><trkpt lat="31.71848844959048" lon="-4.9197551757292635"><ele>1110.0</ele><time>2026-04-30T08:47:44.999Z</time></trkpt><trkpt lat="31.71832420866959" lon="-4.919929355558076"><ele>1111.6666666666667</ele><time>2026-04-30T08:47:45.999Z</time></trkpt><trkpt lat="31.718149979012956" lon="-4.920091355507104"><ele>1113.3333333333335</ele><time>2026-04-30T08:47:46.999Z</time></trkpt><trkpt lat="31.717968841556694" lon="-4.920242516343292"><ele>1115.0</ele><time>2026-04-30T08:47:47.999Z</time></trkpt><trkpt lat="31.717782962291928" lon="-4.920389126108267"><ele>1116.5</ele><time>2026-04-30T08:47:48.999Z</time></trkpt><trkpt lat="31.717590124376265" lon="-4.9205265222961225"><ele>1118.0</ele><time>2026-04-30T08:47:49.999Z</time></trkpt><trkpt lat="31.71738855822491" lon="-4.920648503685911"><ele>1118.0</ele><time>2026-04-30T08:47:50.999Z</time></trkpt><trkpt lat="31.717182912350882" lon="-4.920757424105707"><ele>1118.0</ele><time>2026-04-30T08:47:51.999Z</time></trkpt><trkpt lat="31.71697434561783" lon="-4.920854998614846"><ele>1119.3333333333335</ele><time>2026-04-30T08:47:52.999Z</time></trkpt><trkpt lat="31.716768525178143" lon="-4.9209476386267"><ele>1120.6666666666667</ele><time>2026-04-30T08:47:53.999Z</time></trkpt><trkpt lat="31.71656354079586" lon="-4.921042326278846"><ele>1122.0</ele><time>2026-04-30T08:47:54.999Z</time></trkpt><trkpt lat="31.716360230741056" lon="-4.9211395445051895"><ele>1122.0</ele><time>2026-04-30T08:47:55.999Z</time></trkpt><trkpt lat="31.716159466496354" lon="-4.921235259755622"><ele>1122.0</ele><time>2026-04-30T08:47:56.999Z</time></trkpt><trkpt lat="31.715955059573492" lon="-4.921331124346057"><ele>1122.0</ele><time>2026-04-30T08:47:57.999Z</time></trkpt><trkpt lat="31.715752238012424" lon="-4.921425484816322"><ele>1122.6666666666667</ele><time>2026-04-30T08:47:58.999Z</time></trkpt><trkpt lat="31.715548545116544" lon="-4.921520050920193"><ele>1123.3333333333335</ele><time>2026-04-30T08:47:59.999Z</time></trkpt><trkpt lat="31.715342744402356" lon="-4.921616161357638"><ele>1124.0</ele><time>2026-04-30T08:48:00.999Z</time></trkpt><trkpt lat="31.715136479091854" lon="-4.921715933071204"><ele>1125.0</ele><time>2026-04-30T08:48:01.999Z</time></trkpt><trkpt lat="31.714931115404447" lon="-4.921814461038687"><ele>1126.0</ele><time>2026-04-30T08:48:02.999Z</time></trkpt><trkpt lat="31.714722927145175" lon="-4.921910443979476"><ele>1127.0</ele><time>2026-04-30T08:48:03.999Z</time></trkpt><trkpt lat="31.71451322515702" lon="-4.922007259419492"><ele>1128.0</ele><time>2026-04-30T08:48:04.999Z</time></trkpt><trkpt lat="31.714303856585992" lon="-4.922107605856296"><ele>1129.0</ele><time>2026-04-30T08:48:05.999Z</time></trkpt><trkpt lat="31.7140922357229" lon="-4.922208601576605"><ele>1129.0</ele><time>2026-04-30T08:48:06.999Z</time></trkpt><trkpt lat="31.713879915749" lon="-4.922305941181487"><ele>1129.0</ele><time>2026-04-30T08:48:07.999Z</time></trkpt><trkpt lat="31.713666631481484" lon="-4.922403400506629"><ele>1130.5</ele><time>2026-04-30T08:48:08.999Z</time></trkpt><trkpt lat="31.713451353692673" lon="-4.922503299387152"><ele>1132.0</ele><time>2026-04-30T08:48:09.999Z</time></trkpt><trkpt lat="31.713238691996498" lon="-4.92260579269029"><ele>1132.0</ele><time>2026-04-30T08:48:10.999Z</time></trkpt><trkpt lat="31.713023459012238" lon="-4.92271061359239"><ele>1132.0</ele><time>2026-04-30T08:48:11.999Z</time></trkpt><trkpt lat="31.712808847317415" lon="-4.922813963859569"><ele>1132.5</ele><time>2026-04-30T08:48:12.999Z</time></trkpt><trkpt lat="31.71259364764205" lon="-4.922915794476623"><ele>1133.0</ele><time>2026-04-30T08:48:13.999Z</time></trkpt><trkpt lat="31.7123823727821" lon="-4.923015762803445"><ele>1133.0</ele><time>2026-04-30T08:48:14.999Z</time></trkpt><trkpt lat="31.712171789915388" lon="-4.923116769614941"><ele>1133.0</ele><time>2026-04-30T08:48:15.999Z</time></trkpt><trkpt lat="31.711965546774277" lon="-4.923215726046605"><ele>1133.3333333333335</ele><time>2026-04-30T08:48:16.999Z</time></trkpt><trkpt lat="31.711759946902145" lon="-4.923314312401854"><ele>1133.6666666666667</ele><time>2026-04-30T08:48:17.999Z</time></trkpt><trkpt lat="31.711557706868046" lon="-4.923409350142702"><ele>1134.0</ele><time>2026-04-30T08:48:18.999Z</time></trkpt><trkpt lat="31.711355455222296" lon="-4.92350069684138"><ele>1134.3333333333333</ele><time>2026-04-30T08:48:19.999Z</time></trkpt><trkpt lat="31.71115505712439" lon="-4.923595773160599"><ele>1134.6666666666665</ele><time>2026-04-30T08:48:20.999Z</time></trkpt><trkpt lat="31.710957538059816" lon="-4.9236900882501535"><ele>1135.0</ele><time>2026-04-30T08:48:21.999Z</time></trkpt><trkpt lat="31.710764641784827" lon="-4.9237844138188525"><ele>1135.6666666666665</ele><time>2026-04-30T08:48:22.999Z</time></trkpt><trkpt lat="31.71058079816767" lon="-4.923894862134226"><ele>1136.3333333333333</ele><time>2026-04-30T08:48:23.999Z</time></trkpt><trkpt lat="31.71040752394024" lon="-4.924026673087387"><ele>1137.0</ele><time>2026-04-30T08:48:24.999Z</time></trkpt><trkpt lat="31.71024039883841" lon="-4.92416669595158"><ele>1137.3333333333333</ele><time>2026-04-30T08:48:25.999Z</time></trkpt><trkpt lat="31.710078133797605" lon="-4.9243132475870715"><ele>1137.6666666666665</ele><time>2026-04-30T08:48:26.999Z</time></trkpt><trkpt lat="31.709930220356835" lon="-4.924460474856224"><ele>1138.0</ele><time>2026-04-30T08:48:27.999Z</time></trkpt><trkpt lat="31.709795845633593" lon="-4.9246111632499545"><ele>1138.0</ele><time>2026-04-30T08:48:28.999Z</time></trkpt><trkpt lat="31.70966885978549" lon="-4.9247676465938826"><ele>1138.0</ele><time>2026-04-30T08:48:29.999Z</time></trkpt><trkpt lat="31.709547099478097" lon="-4.9249385269741275"><ele>1138.0</ele><time>2026-04-30T08:48:30.999Z</time></trkpt><trkpt lat="31.70943126790563" lon="-4.925122883296979"><ele>1138.6666666666665</ele><time>2026-04-30T08:48:31.999Z</time></trkpt><trkpt lat="31.709317828580197" lon="-4.9253189888466204"><ele>1139.3333333333333</ele><time>2026-04-30T08:48:32.999Z</time></trkpt><trkpt lat="31.709216246861082" lon="-4.925527464802908"><ele>1140.0</ele><time>2026-04-30T08:48:33.999Z</time></trkpt><trkpt lat="31.70912917941559" lon="-4.92574465352936"><ele>1139.3333333333333</ele><time>2026-04-30T08:48:34.999Z</time></trkpt><trkpt lat="31.70904380248296" lon="-4.9259720578024515"><ele>1138.6666666666665</ele><time>2026-04-30T08:48:35.999Z</time></trkpt><trkpt lat="31.708967145844085" lon="-4.926209879176535"><ele>1138.0</ele><time>2026-04-30T08:48:36.999Z</time></trkpt><trkpt lat="31.708900741244776" lon="-4.926451897943944"><ele>1138.0</ele><time>2026-04-30T08:48:37.999Z</time></trkpt><trkpt lat="31.708848149558904" lon="-4.926698158676141"><ele>1138.0</ele><time>2026-04-30T08:48:38.999Z</time></trkpt><trkpt lat="31.70881062283805" lon="-4.926949463387863"><ele>1138.0</ele><time>2026-04-30T08:48:39.999Z</time></trkpt><trkpt lat="31.70878870430016" lon="-4.927203489930646"><ele>1137.6666666666665</ele><time>2026-04-30T08:48:40.999Z</time></trkpt><trkpt lat="31.7087761202838" lon="-4.92745303997442"><ele>1137.3333333333333</ele><time>2026-04-30T08:48:41.999Z</time></trkpt><trkpt lat="31.708775480335902" lon="-4.927693946452101"><ele>1137.0</ele><time>2026-04-30T08:48:42.999Z</time></trkpt><trkpt lat="31.70878617706779" lon="-4.927929344639804"><ele>1135.3333333333333</ele><time>2026-04-30T08:48:43.999Z</time></trkpt><trkpt lat="31.708813471773833" lon="-4.928161592784242"><ele>1133.6666666666665</ele><time>2026-04-30T08:48:44.999Z</time></trkpt><trkpt lat="31.708852520035013" lon="-4.928386888220179"><ele>1132.0</ele><time>2026-04-30T08:48:45.999Z</time></trkpt><trkpt lat="31.708897802764543" lon="-4.9286050668630335"><ele>1129.0</ele><time>2026-04-30T08:48:46.999Z</time></trkpt><trkpt lat="31.708949109226747" lon="-4.928808233944748"><ele>1126.0</ele><time>2026-04-30T08:48:47.999Z</time></trkpt><trkpt lat="31.70899632370653" lon="-4.929006136745266"><ele>1123.0</ele><time>2026-04-30T08:48:48.999Z</time></trkpt><trkpt lat="31.70903846265607" lon="-4.92920758829397"><ele>1121.0</ele><time>2026-04-30T08:48:49.999Z</time></trkpt><trkpt lat="31.709077182328407" lon="-4.929404824810606"><ele>1119.0</ele><time>2026-04-30T08:48:50.999Z</time></trkpt><trkpt lat="31.709117299512688" lon="-4.929600128278188"><ele>1117.0</ele><time>2026-04-30T08:48:51.999Z</time></trkpt><trkpt lat="31.70915956236461" lon="-4.9297924400026805"><ele>1117.0</ele><time>2026-04-30T08:48:52.999Z</time></trkpt><trkpt lat="31.709197710660224" lon="-4.929982183310502"><ele>1117.0</ele><time>2026-04-30T08:48:53.999Z</time></trkpt><trkpt lat="31.709235340502946" lon="-4.930169142113748"><ele>1117.0</ele><time>2026-04-30T08:48:54.999Z</time></trkpt><trkpt lat="31.709279859907788" lon="-4.930353717832996"><ele>1113.3333333333333</ele><time>2026-04-30T08:48:55.999Z</time></trkpt><trkpt lat="31.709320449109487" lon="-4.930538601770752"><ele>1109.6666666666667</ele><time>2026-04-30T08:48:56.999Z</time></trkpt><trkpt lat="31.709359128708318" lon="-4.930724525448367"><ele>1106.0</ele><time>2026-04-30T08:48:57.999Z</time></trkpt><trkpt lat="31.70939572291284" lon="-4.930910606310946"><ele>1112.6666666666667</ele><time>2026-04-30T08:48:58.999Z</time></trkpt><trkpt lat="31.70942840758848" lon="-4.931092428088328"><ele>1119.3333333333333</ele><time>2026-04-30T08:48:59.999Z</time></trkpt><trkpt lat="31.70947640068955" lon="-4.931275237617156"><ele>1126.0</ele><time>2026-04-30T08:49:00.999Z</time></trkpt><trkpt lat="31.709519858805695" lon="-4.931461460456049"><ele>1126.0</ele><time>2026-04-30T08:49:01.999Z</time></trkpt><trkpt lat="31.709563890200528" lon="-4.931656405506609"><ele>1126.0</ele><time>2026-04-30T08:49:02.999Z</time></trkpt><trkpt lat="31.709604640686596" lon="-4.931855798277754"><ele>1126.0</ele><time>2026-04-30T08:49:03.999Z</time></trkpt><trkpt lat="31.709652447122114" lon="-4.932062407048716"><ele>1121.6666666666665</ele><time>2026-04-30T08:49:04.999Z</time></trkpt><trkpt lat="31.709700883731117" lon="-4.93226754144091"><ele>1117.3333333333333</ele><time>2026-04-30T08:49:05.999Z</time></trkpt><trkpt lat="31.709746454031666" lon="-4.932471068010283"><ele>1113.0</ele><time>2026-04-30T08:49:06.999Z</time></trkpt><trkpt lat="31.709792037707057" lon="-4.932670609952413"><ele>1109.3333333333333</ele><time>2026-04-30T08:49:07.999Z</time></trkpt><trkpt lat="31.70983526518461" lon="-4.932867130937546"><ele>1105.6666666666665</ele><time>2026-04-30T08:49:08.999Z</time></trkpt><trkpt lat="31.709866281673857" lon="-4.933067061529737"><ele>1102.0</ele><time>2026-04-30T08:49:09.999Z</time></trkpt><trkpt lat="31.70988912580871" lon="-4.933268363606903"><ele>1100.3333333333333</ele><time>2026-04-30T08:49:10.999Z</time></trkpt><trkpt lat="31.709906190488066" lon="-4.933465205171699"><ele>1098.6666666666667</ele><time>2026-04-30T08:49:11.999Z</time></trkpt><trkpt lat="31.709917529815783" lon="-4.93366354745992"><ele>1097.0</ele><time>2026-04-30T08:49:12.999Z</time></trkpt><trkpt lat="31.709921349417677" lon="-4.933857967491687"><ele>1097.0</ele><time>2026-04-30T08:49:13.999Z</time></trkpt><trkpt lat="31.709910157731606" lon="-4.934054591172028"><ele>1097.0</ele><time>2026-04-30T08:49:14.999Z</time></trkpt><trkpt lat="31.709892668225542" lon="-4.934247060177609"><ele>1097.0</ele><time>2026-04-30T08:49:15.999Z</time></trkpt><trkpt lat="31.70987767832057" lon="-4.934442227848483"><ele>1094.3333333333335</ele><time>2026-04-30T08:49:16.999Z</time></trkpt><trkpt lat="31.70986238820635" lon="-4.9346319634376385"><ele>1091.6666666666667</ele><time>2026-04-30T08:49:17.999Z</time></trkpt><trkpt lat="31.709839149511044" lon="-4.934824479095701"><ele>1089.0</ele><time>2026-04-30T08:49:18.999Z</time></trkpt><trkpt lat="31.709810748855283" lon="-4.935014857051315"><ele>1087.0</ele><time>2026-04-30T08:49:19.999Z</time></trkpt><trkpt lat="31.70977622260594" lon="-4.9352027847017315"><ele>1085.0</ele><time>2026-04-30T08:49:20.999Z</time></trkpt><trkpt lat="31.709749150781203" lon="-4.9353969048184965"><ele>1083.0</ele><time>2026-04-30T08:49:21.999Z</time></trkpt><trkpt lat="31.709703136545272" lon="-4.935591697036372"><ele>1083.0</ele><time>2026-04-30T08:49:22.999Z</time></trkpt><trkpt lat="31.7096328585402" lon="-4.935779158545628"><ele>1083.0</ele><time>2026-04-30T08:49:23.999Z</time></trkpt><trkpt lat="31.70954104329266" lon="-4.935954703086195"><ele>1083.0</ele><time>2026-04-30T08:49:24.999Z</time></trkpt><trkpt lat="31.70942511702899" lon="-4.936111329017"><ele>1080.3333333333333</ele><time>2026-04-30T08:49:25.999Z</time></trkpt><trkpt lat="31.70929413341427" lon="-4.936265722007596"><ele>1077.6666666666665</ele><time>2026-04-30T08:49:26.999Z</time></trkpt><trkpt lat="31.709161565970515" lon="-4.936427762423501"><ele>1075.0</ele><time>2026-04-30T08:49:27.999Z</time></trkpt><trkpt lat="31.70902440270013" lon="-4.936590709773206"><ele>1079.3333333333333</ele><time>2026-04-30T08:49:28.999Z</time></trkpt><trkpt lat="31.70888076485604" lon="-4.936756593570836"><ele>1083.6666666666667</ele><time>2026-04-30T08:49:29.999Z</time></trkpt><trkpt lat="31.708735186084876" lon="-4.936921134003766"><ele>1088.0</ele><time>2026-04-30T08:49:30.999Z</time></trkpt><trkpt lat="31.708585680150357" lon="-4.937076977205339"><ele>1079.3333333333335</ele><time>2026-04-30T08:49:31.999Z</time></trkpt><trkpt lat="31.70842797383904" lon="-4.9372193539634255"><ele>1070.6666666666667</ele><time>2026-04-30T08:49:32.999Z</time></trkpt><trkpt lat="31.708261896949434" lon="-4.937350174562275"><ele>1062.0</ele><time>2026-04-30T08:49:33.999Z</time></trkpt><trkpt lat="31.708087415598563" lon="-4.937469598395667"><ele>1058.6666666666667</ele><time>2026-04-30T08:49:34.999Z</time></trkpt><trkpt lat="31.707904932252006" lon="-4.937582268359919"><ele>1055.3333333333335</ele><time>2026-04-30T08:49:35.999Z</time></trkpt><trkpt lat="31.707713840829744" lon="-4.9376814385492285"><ele>1052.0</ele><time>2026-04-30T08:49:36.999Z</time></trkpt><trkpt lat="31.707522178375015" lon="-4.937771927677762"><ele>1052.0</ele><time>2026-04-30T08:49:37.999Z</time></trkpt><trkpt lat="31.707328682054076" lon="-4.937865850101804"><ele>1052.0</ele><time>2026-04-30T08:49:38.999Z</time></trkpt><trkpt lat="31.707132387803856" lon="-4.937962768963595"><ele>1052.0</ele><time>2026-04-30T08:49:39.999Z</time></trkpt><trkpt lat="31.706933600673434" lon="-4.938056957693961"><ele>1047.3333333333335</ele><time>2026-04-30T08:49:40.999Z</time></trkpt><trkpt lat="31.706734023889528" lon="-4.938148436443922"><ele>1042.6666666666667</ele><time>2026-04-30T08:49:41.999Z</time></trkpt><trkpt lat="31.706531501291202" lon="-4.938242263726671"><ele>1038.0</ele><time>2026-04-30T08:49:42.999Z</time></trkpt><trkpt lat="31.706331117272153" lon="-4.938335446479299"><ele>1038.3333333333333</ele><time>2026-04-30T08:49:43.999Z</time></trkpt><trkpt lat="31.706130628849085" lon="-4.9384303418950735"><ele>1038.6666666666665</ele><time>2026-04-30T08:49:44.999Z</time></trkpt><trkpt lat="31.705932005205" lon="-4.93852834035594"><ele>1039.0</ele><time>2026-04-30T08:49:45.999Z</time></trkpt><trkpt lat="31.70573842390493" lon="-4.938630559617738"><ele>1039.0</ele><time>2026-04-30T08:49:46.999Z</time></trkpt><trkpt lat="31.70555136532022" lon="-4.938744221519465"><ele>1039.0</ele><time>2026-04-30T08:49:47.999Z</time></trkpt><trkpt lat="31.705374600595878" lon="-4.938873917485478"><ele>1039.0</ele><time>2026-04-30T08:49:48.999Z</time></trkpt><trkpt lat="31.70520797255674" lon="-4.9390134262164445"><ele>1037.0</ele><time>2026-04-30T08:49:49.999Z</time></trkpt><trkpt lat="31.70504014020256" lon="-4.939149360031062"><ele>1035.0</ele><time>2026-04-30T08:49:50.999Z</time></trkpt><trkpt lat="31.704881107366983" lon="-4.939290219239315"><ele>1033.0</ele><time>2026-04-30T08:49:51.999Z</time></trkpt><trkpt lat="31.70473527205851" lon="-4.939446144385527"><ele>1033.0</ele><time>2026-04-30T08:49:52.999Z</time></trkpt><trkpt lat="31.704596403527606" lon="-4.939604582149864"><ele>1033.0</ele><time>2026-04-30T08:49:53.999Z</time></trkpt><trkpt lat="31.704463549569176" lon="-4.939762120786929"><ele>1033.0</ele><time>2026-04-30T08:49:54.999Z</time></trkpt><trkpt lat="31.704334681896338" lon="-4.9399207882133584"><ele>1033.6666666666665</ele><time>2026-04-30T08:49:55.999Z</time></trkpt><trkpt lat="31.704205146567332" lon="-4.9400851175741165"><ele>1034.3333333333333</ele><time>2026-04-30T08:49:56.999Z</time></trkpt><trkpt lat="31.704078937303944" lon="-4.9402477382444205"><ele>1035.0</ele><time>2026-04-30T08:49:57.999Z</time></trkpt><trkpt lat="31.703946399901927" lon="-4.940412733920454"><ele>1035.0</ele><time>2026-04-30T08:49:58.999Z</time></trkpt><trkpt lat="31.703812846636122" lon="-4.9405809526900315"><ele>1035.0</ele><time>2026-04-30T08:49:59.999Z</time></trkpt><trkpt lat="31.703683227787167" lon="-4.940753546207948"><ele>1035.0</ele><time>2026-04-30T08:50:00.999Z</time></trkpt><trkpt lat="31.7035507219412" lon="-4.94092669046337"><ele>1035.3333333333333</ele><time>2026-04-30T08:50:01.999Z</time></trkpt><trkpt lat="31.703413380197414" lon="-4.941100546606516"><ele>1035.6666666666665</ele><time>2026-04-30T08:50:02.999Z</time></trkpt><trkpt lat="31.7032776126664" lon="-4.941273642225586"><ele>1036.0</ele><time>2026-04-30T08:50:03.999Z</time></trkpt><trkpt lat="31.703142584834797" lon="-4.941445425073869"><ele>1036.0</ele><time>2026-04-30T08:50:04.999Z</time></trkpt><trkpt lat="31.703008965376064" lon="-4.941621029238814"><ele>1036.0</ele><time>2026-04-30T08:50:05.999Z</time></trkpt><trkpt lat="31.70287578685026" lon="-4.941796616805299"><ele>1036.0</ele><time>2026-04-30T08:50:06.999Z</time></trkpt><trkpt lat="31.702749139192242" lon="-4.9419647280444075"><ele>1034.6666666666665</ele><time>2026-04-30T08:50:07.999Z</time></trkpt><trkpt lat="31.70262520912769" lon="-4.942123320050614"><ele>1033.3333333333333</ele><time>2026-04-30T08:50:08.999Z</time></trkpt><trkpt lat="31.70250709213767" lon="-4.942276020583046"><ele>1032.0</ele><time>2026-04-30T08:50:09.999Z</time></trkpt><trkpt lat="31.702390254050837" lon="-4.9424247843559685"><ele>1032.0</ele><time>2026-04-30T08:50:10.999Z</time></trkpt><trkpt lat="31.70227789511029" lon="-4.942567839951846"><ele>1032.0</ele><time>2026-04-30T08:50:11.999Z</time></trkpt><trkpt lat="31.70216947595127" lon="-4.942704612652178"><ele>1032.0</ele><time>2026-04-30T08:50:12.999Z</time></trkpt><trkpt lat="31.702055905339396" lon="-4.942829300290583"><ele>1032.0</ele><time>2026-04-30T08:50:13.999Z</time></trkpt><trkpt lat="31.701942820588478" lon="-4.9429408431685"><ele>1032.0</ele><time>2026-04-30T08:50:14.999Z</time></trkpt><trkpt lat="31.701848275049755" lon="-4.943119414986413"><ele>1032.0</ele><time>2026-04-30T08:50:15.999Z</time></trkpt><trkpt lat="31.701745274673293" lon="-4.943251173131138"><ele>1031.0</ele><time>2026-04-30T08:50:16.999Z</time></trkpt><trkpt lat="31.701644362952827" lon="-4.943379540201907"><ele>1030.0</ele><time>2026-04-30T08:50:17.999Z</time></trkpt><trkpt lat="31.7015442173531" lon="-4.943507158722536"><ele>1029.0</ele><time>2026-04-30T08:50:18.999Z</time></trkpt><trkpt lat="31.701446333532033" lon="-4.94363939636135"><ele>1028.0</ele><time>2026-04-30T08:50:19.999Z</time></trkpt><trkpt lat="31.7013404699191" lon="-4.943763775193601"><ele>1028.0</ele><time>2026-04-30T08:50:20.999Z</time></trkpt><trkpt lat="31.701240045089545" lon="-4.943896439837473"><ele>1028.0</ele><time>2026-04-30T08:50:21.999Z</time></trkpt><trkpt lat="31.701141324580416" lon="-4.944023049907069"><ele>1028.0</ele><time>2026-04-30T08:50:22.999Z</time></trkpt><trkpt lat="31.701043829875406" lon="-4.944153475201258"><ele>1028.0</ele><time>2026-04-30T08:50:23.999Z</time></trkpt><trkpt lat="31.70094951574998" lon="-4.944268927127151"><ele>1028.25</ele><time>2026-04-30T08:50:24.999Z</time></trkpt><trkpt lat="31.7008610842989" lon="-4.944385575073886"><ele>1028.5</ele><time>2026-04-30T08:50:25.999Z</time></trkpt><trkpt lat="31.700778157646116" lon="-4.944500312373052"><ele>1028.75</ele><time>2026-04-30T08:50:26.999Z</time></trkpt><trkpt lat="31.700690710419355" lon="-4.944608303850471"><ele>1029.0</ele><time>2026-04-30T08:50:27.999Z</time></trkpt><trkpt lat="31.700593515860543" lon="-4.944716111457849"><ele>1029.0</ele><time>2026-04-30T08:50:28.999Z</time></trkpt><trkpt lat="31.700502838442127" lon="-4.944831890023033"><ele>1029.0</ele><time>2026-04-30T08:50:29.999Z</time></trkpt><trkpt lat="31.700409455402177" lon="-4.944950029684303"><ele>1029.0</ele><time>2026-04-30T08:50:30.999Z</time></trkpt><trkpt lat="31.7003144859106" lon="-4.945072031038545"><ele>1029.0</ele><time>2026-04-30T08:50:31.999Z</time></trkpt><trkpt lat="31.700218365952367" lon="-4.9451937498430745"><ele>1028.0</ele><time>2026-04-30T08:50:32.999Z</time></trkpt><trkpt lat="31.70012122206526" lon="-4.9453160849036575"><ele>1027.0</ele><time>2026-04-30T08:50:33.999Z</time></trkpt><trkpt lat="31.70002560030187" lon="-4.945441703573121"><ele>1026.0</ele><time>2026-04-30T08:50:34.999Z</time></trkpt><trkpt lat="31.699931569354753" lon="-4.9455669207398"><ele>1025.0</ele><time>2026-04-30T08:50:35.999Z</time></trkpt><trkpt lat="31.699833854792715" lon="-4.945691422398055"><ele>1025.0</ele><time>2026-04-30T08:50:36.999Z</time></trkpt><trkpt lat="31.69973983255022" lon="-4.945814368846901"><ele>1025.0</ele><time>2026-04-30T08:50:37.999Z</time></trkpt><trkpt lat="31.69963858620682" lon="-4.945935725437612"><ele>1025.0</ele><time>2026-04-30T08:50:38.999Z</time></trkpt><trkpt lat="31.699542359561708" lon="-4.946060241214341"><ele>1025.0</ele><time>2026-04-30T08:50:39.999Z</time></trkpt><trkpt lat="31.699452733505357" lon="-4.946181951289184"><ele>1024.75</ele><time>2026-04-30T08:50:40.999Z</time></trkpt><trkpt lat="31.69936975758558" lon="-4.9463085546714645"><ele>1024.5</ele><time>2026-04-30T08:50:41.999Z</time></trkpt><trkpt lat="31.699281455884464" lon="-4.946443768029896"><ele>1024.25</ele><time>2026-04-30T08:50:42.999Z</time></trkpt><trkpt lat="31.699195491164915" lon="-4.94658446104697"><ele>1024.0</ele><time>2026-04-30T08:50:43.999Z</time></trkpt><trkpt lat="31.699128169320964" lon="-4.946740626721403"><ele>1023.75</ele><time>2026-04-30T08:50:44.999Z</time></trkpt><trkpt lat="31.69906376376243" lon="-4.94688919936491"><ele>1023.5</ele><time>2026-04-30T08:50:45.999Z</time></trkpt><trkpt lat="31.699011020678892" lon="-4.947041443004756"><ele>1023.25</ele><time>2026-04-30T08:50:46.999Z</time></trkpt><trkpt lat="31.69896513391734" lon="-4.947196178690214"><ele>1023.0</ele><time>2026-04-30T08:50:47.999Z</time></trkpt><trkpt lat="31.698925950028183" lon="-4.947352030559237"><ele>1023.0</ele><time>2026-04-30T08:50:48.999Z</time></trkpt><trkpt lat="31.69889566301182" lon="-4.94750518443721"><ele>1023.0</ele><time>2026-04-30T08:50:49.999Z</time></trkpt><trkpt lat="31.698873399110553" lon="-4.947644488637686"><ele>1023.0</ele><time>2026-04-30T08:50:50.999Z</time></trkpt><trkpt lat="31.698857298917222" lon="-4.947769840350214"><ele>1023.0</ele><time>2026-04-30T08:50:51.999Z</time></trkpt><trkpt lat="31.698844378979608" lon="-4.947893116029242"><ele>1023.4</ele><time>2026-04-30T08:50:52.999Z</time></trkpt><trkpt lat="31.69883664288699" lon="-4.9480149003962115"><ele>1023.8</ele><time>2026-04-30T08:50:53.999Z</time></trkpt><trkpt lat="31.698826821206573" lon="-4.948130968035307"><ele>1024.2</ele><time>2026-04-30T08:50:54.999Z</time></trkpt><trkpt lat="31.6988151158389" lon="-4.948246883990642"><ele>1024.6</ele><time>2026-04-30T08:50:55.999Z</time></trkpt><trkpt lat="31.698806136902814" lon="-4.948360896462204"><ele>1025.0</ele><time>2026-04-30T08:50:56.999Z</time></trkpt><trkpt lat="31.69879844125478" lon="-4.948475080200284"><ele>1025.0</ele><time>2026-04-30T08:50:57.999Z</time></trkpt><trkpt lat="31.69878900241008" lon="-4.948589356901876"><ele>1025.0</ele><time>2026-04-30T08:50:58.999Z</time></trkpt><trkpt lat="31.698781157940367" lon="-4.94869965229158"><ele>1025.0</ele><time>2026-04-30T08:50:59.999Z</time></trkpt><trkpt lat="31.698776733725744" lon="-4.94880460456557"><ele>1025.0</ele><time>2026-04-30T08:51:00.999Z</time></trkpt><trkpt lat="31.698771442608223" lon="-4.9489037177052"><ele>1025.0</ele><time>2026-04-30T08:51:01.999Z</time></trkpt><trkpt lat="31.698765413496243" lon="-4.948998167273971"><ele>1025.0</ele><time>2026-04-30T08:51:02.999Z</time></trkpt><trkpt lat="31.698755415282836" lon="-4.949079651550693"><ele>1025.0</ele><time>2026-04-30T08:51:03.999Z</time></trkpt><trkpt lat="31.69874443580259" lon="-4.949222013920471"><ele>1025.0</ele><time>2026-04-30T08:51:05.999Z</time></trkpt><trkpt lat="31.698740049706032" lon="-4.949299779977066"><ele>1025.0</ele><time>2026-04-30T08:51:06.999Z</time></trkpt><trkpt lat="31.69873349424319" lon="-4.949389081487209"><ele>1025.0</ele><time>2026-04-30T08:51:07.999Z</time></trkpt><trkpt lat="31.698727433409097" lon="-4.949491855911726"><ele>1025.0</ele><time>2026-04-30T08:51:08.999Z</time></trkpt><trkpt lat="31.698721865396628" lon="-4.949604864824933"><ele>1025.0</ele><time>2026-04-30T08:51:09.999Z</time></trkpt><trkpt lat="31.69871539490333" lon="-4.949727656548445"><ele>1025.0</ele><time>2026-04-30T08:51:10.999Z</time></trkpt><trkpt lat="31.69871056849843" lon="-4.949858916437397"><ele>1025.0</ele><time>2026-04-30T08:51:12Z</time></trkpt><trkpt lat="31.69869834378997" lon="-4.949999434203981"><ele>1025.0</ele><time>2026-04-30T08:51:12.999Z</time></trkpt><trkpt lat="31.698683623554537" lon="-4.950148098660998"><ele>1025.0</ele><time>2026-04-30T08:51:14Z</time></trkpt><trkpt lat="31.698673155424217" lon="-4.950296797570178"><ele>1024.75</ele><time>2026-04-30T08:51:15Z</time></trkpt><trkpt lat="31.69866211891605" lon="-4.950445757781957"><ele>1024.5</ele><time>2026-04-30T08:51:15.999Z</time></trkpt><trkpt lat="31.698652371466125" lon="-4.950602403475934"><ele>1024.25</ele><time>2026-04-30T08:51:16.999Z</time></trkpt><trkpt lat="31.69864346536598" lon="-4.950763781040439"><ele>1024.0</ele><time>2026-04-30T08:51:18Z</time></trkpt><trkpt lat="31.69862967886748" lon="-4.950922047377435"><ele>1023.75</ele><time>2026-04-30T08:51:18.999Z</time></trkpt><trkpt lat="31.698614115825105" lon="-4.951077330460776"><ele>1023.5</ele><time>2026-04-30T08:51:19.999Z</time></trkpt><trkpt lat="31.69859880249961" lon="-4.951235020070571"><ele>1023.25</ele><time>2026-04-30T08:51:21Z</time></trkpt><trkpt lat="31.69857285369229" lon="-4.951390989422331"><ele>1023.0</ele><time>2026-04-30T08:51:22Z</time></trkpt><trkpt lat="31.69853578621029" lon="-4.951544889966815"><ele>1022.0</ele><time>2026-04-30T08:51:23Z</time></trkpt><trkpt lat="31.698487954945346" lon="-4.951682634032761"><ele>1021.0</ele><time>2026-04-30T08:51:24Z</time></trkpt><trkpt lat="31.698424345489542" lon="-4.951811914408852"><ele>1020.0</ele><time>2026-04-30T08:51:25Z</time></trkpt><trkpt lat="31.698348476621614" lon="-4.951929383836078"><ele>1019.0</ele><time>2026-04-30T08:51:26Z</time></trkpt><trkpt lat="31.698264916307384" lon="-4.952048003214971"><ele>1018.5</ele><time>2026-04-30T08:51:26.999Z</time></trkpt><trkpt lat="31.698182825971106" lon="-4.952167401423922"><ele>1018.0</ele><time>2026-04-30T08:51:27.999Z</time></trkpt><trkpt lat="31.698100560620503" lon="-4.952290893988878"><ele>1017.5</ele><time>2026-04-30T08:51:28.999Z</time></trkpt><trkpt lat="31.69801731460656" lon="-4.952412006364504"><ele>1017.0</ele><time>2026-04-30T08:51:29.999Z</time></trkpt><trkpt lat="31.697934388893927" lon="-4.952531311489422"><ele>1017.0</ele><time>2026-04-30T08:51:30.999Z</time></trkpt><trkpt lat="31.697851805206547" lon="-4.952653526759493"><ele>1017.0</ele><time>2026-04-30T08:51:31.999Z</time></trkpt><trkpt lat="31.697765568653445" lon="-4.952773871583309"><ele>1017.0</ele><time>2026-04-30T08:51:32.999Z</time></trkpt><trkpt lat="31.697677806598527" lon="-4.952892836158632"><ele>1017.0</ele><time>2026-04-30T08:51:33.999Z</time></trkpt><trkpt lat="31.697590867128536" lon="-4.953012276244479"><ele>1017.0</ele><time>2026-04-30T08:51:34.999Z</time></trkpt><trkpt lat="31.69750149252007" lon="-4.953130665637728"><ele>1017.0</ele><time>2026-04-30T08:51:35.999Z</time></trkpt><trkpt lat="31.697408194803078" lon="-4.953243288347352"><ele>1017.0</ele><time>2026-04-30T08:51:36.999Z</time></trkpt><trkpt lat="31.69730631447109" lon="-4.9533470535883755"><ele>1017.0</ele><time>2026-04-30T08:51:37.999Z</time></trkpt><trkpt lat="31.697195829825002" lon="-4.9534386563310155"><ele>1017.5</ele><time>2026-04-30T08:51:38.999Z</time></trkpt><trkpt lat="31.69708238837476" lon="-4.953527281908197"><ele>1018.0</ele><time>2026-04-30T08:51:39.999Z</time></trkpt><trkpt lat="31.696962874294925" lon="-4.9536134354475205"><ele>1018.5</ele><time>2026-04-30T08:51:40.999Z</time></trkpt><trkpt lat="31.696844497832775" lon="-4.95370168218597"><ele>1019.0</ele><time>2026-04-30T08:51:41.999Z</time></trkpt><trkpt lat="31.696726312549533" lon="-4.953788249402654"><ele>1019.75</ele><time>2026-04-30T08:51:42.999Z</time></trkpt><trkpt lat="31.696611074191054" lon="-4.953872167385484"><ele>1020.5</ele><time>2026-04-30T08:51:43.999Z</time></trkpt><trkpt lat="31.696498684872182" lon="-4.953953602542548"><ele>1021.25</ele><time>2026-04-30T08:51:44.999Z</time></trkpt><trkpt lat="31.696392827518963" lon="-4.954031352626396"><ele>1022.0</ele><time>2026-04-30T08:51:45.999Z</time></trkpt><trkpt lat="31.696294043621705" lon="-4.9541044583731"><ele>1022.0</ele><time>2026-04-30T08:51:46.999Z</time></trkpt><trkpt lat="31.696197995280006" lon="-4.954171832497123"><ele>1022.0</ele><time>2026-04-30T08:51:47.999Z</time></trkpt><trkpt lat="31.69610858340289" lon="-4.954238823533504"><ele>1022.0</ele><time>2026-04-30T08:51:48.999Z</time></trkpt><trkpt lat="31.69602261768606" lon="-4.9543041104746095"><ele>1022.0</ele><time>2026-04-30T08:51:49.999Z</time></trkpt><trkpt lat="31.695939665287053" lon="-4.954363773061216"><ele>1022.0</ele><time>2026-04-30T08:51:50.999Z</time></trkpt><trkpt lat="31.695849871697025" lon="-4.954407632151684"><ele>1023.0</ele><time>2026-04-30T08:51:51.999Z</time></trkpt><trkpt lat="31.695754016925726" lon="-4.954430939237851"><ele>1024.0</ele><time>2026-04-30T08:51:52.999Z</time></trkpt><trkpt lat="31.695649641278" lon="-4.954430875958621"><ele>1025.0</ele><time>2026-04-30T08:51:53.999Z</time></trkpt><trkpt lat="31.695547537658513" lon="-4.9544054080598094"><ele>1026.0</ele><time>2026-04-30T08:51:54.999Z</time></trkpt><trkpt lat="31.695447499068365" lon="-4.954351502591615"><ele>1027.0</ele><time>2026-04-30T08:51:55.999Z</time></trkpt><trkpt lat="31.695354362677946" lon="-4.954281933881401"><ele>1027.0</ele><time>2026-04-30T08:51:56.999Z</time></trkpt><trkpt lat="31.695262108557827" lon="-4.95421123365398"><ele>1027.0</ele><time>2026-04-30T08:51:57.999Z</time></trkpt><trkpt lat="31.695167632890847" lon="-4.9541452465958535"><ele>1027.0</ele><time>2026-04-30T08:51:58.999Z</time></trkpt><trkpt lat="31.69506780379124" lon="-4.954085874469481"><ele>1027.0</ele><time>2026-04-30T08:51:59.999Z</time></trkpt><trkpt lat="31.69496690193102" lon="-4.954024834183192"><ele>1027.0</ele><time>2026-04-30T08:52:00.999Z</time></trkpt><trkpt lat="31.694866207168722" lon="-4.9539580169574755"><ele>1027.0</ele><time>2026-04-30T08:52:01.999Z</time></trkpt><trkpt lat="31.694765575733474" lon="-4.953893365416734"><ele>1027.0</ele><time>2026-04-30T08:52:02.999Z</time></trkpt><trkpt lat="31.69466669811199" lon="-4.953830112233092"><ele>1027.0</ele><time>2026-04-30T08:52:03.999Z</time></trkpt><trkpt lat="31.694567012812865" lon="-4.9537648685064655"><ele>1027.0</ele><time>2026-04-30T08:52:04.999Z</time></trkpt><trkpt lat="31.694466419314526" lon="-4.95369940118342"><ele>1026.75</ele><time>2026-04-30T08:52:05.999Z</time></trkpt><trkpt lat="31.694363962006058" lon="-4.953635101718834"><ele>1026.5</ele><time>2026-04-30T08:52:06.999Z</time></trkpt><trkpt lat="31.694258543011394" lon="-4.953566896801718"><ele>1026.25</ele><time>2026-04-30T08:52:07.999Z</time></trkpt><trkpt lat="31.694154348419836" lon="-4.9535004697840455"><ele>1026.0</ele><time>2026-04-30T08:52:08.999Z</time></trkpt><trkpt lat="31.694050496583923" lon="-4.953432287579714"><ele>1026.25</ele><time>2026-04-30T08:52:09.999Z</time></trkpt><trkpt lat="31.693946723772914" lon="-4.9533676585697926"><ele>1026.5</ele><time>2026-04-30T08:52:10.999Z</time></trkpt><trkpt lat="31.693842365202837" lon="-4.953302125185118"><ele>1026.75</ele><time>2026-04-30T08:52:11.999Z</time></trkpt><trkpt lat="31.693739517417217" lon="-4.953237700992206"><ele>1027.0</ele><time>2026-04-30T08:52:12.999Z</time></trkpt><trkpt lat="31.693638355795265" lon="-4.953173285320756"><ele>1027.0</ele><time>2026-04-30T08:52:13.999Z</time></trkpt><trkpt lat="31.693541283499055" lon="-4.953108123405197"><ele>1027.0</ele><time>2026-04-30T08:52:14.999Z</time></trkpt><trkpt lat="31.69344671872772" lon="-4.953043548487402"><ele>1027.0</ele><time>2026-04-30T08:52:15.999Z</time></trkpt><trkpt lat="31.693359203166466" lon="-4.9529849969263635"><ele>1027.0</ele><time>2026-04-30T08:52:16.999Z</time></trkpt><trkpt lat="31.69327395309593" lon="-4.952931129519273"><ele>1027.0</ele><time>2026-04-30T08:52:17.999Z</time></trkpt><trkpt lat="31.693188150749315" lon="-4.952887589572827"><ele>1027.0</ele><time>2026-04-30T08:52:18.999Z</time></trkpt><trkpt lat="31.693103887923463" lon="-4.952860670072076"><ele>1027.0</ele><time>2026-04-30T08:52:19.999Z</time></trkpt><trkpt lat="31.693016076103756" lon="-4.952839478015193"><ele>1027.0</ele><time>2026-04-30T08:52:20.999Z</time></trkpt><trkpt lat="31.692926859507747" lon="-4.952831309648516"><ele>1027.0</ele><time>2026-04-30T08:52:21.999Z</time></trkpt><trkpt lat="31.69283604031831" lon="-4.95283947800946"><ele>1027.0</ele><time>2026-04-30T08:52:22.999Z</time></trkpt><trkpt lat="31.692743927305195" lon="-4.952862994562216"><ele>1026.6</ele><time>2026-04-30T08:52:23.999Z</time></trkpt><trkpt lat="31.692653744926872" lon="-4.952916931733245"><ele>1026.2</ele><time>2026-04-30T08:52:24.999Z</time></trkpt><trkpt lat="31.692566538306437" lon="-4.952985353232733"><ele>1025.8</ele><time>2026-04-30T08:52:25.999Z</time></trkpt><trkpt lat="31.692477245902765" lon="-4.95305690600957"><ele>1025.4</ele><time>2026-04-30T08:52:26.999Z</time></trkpt><trkpt lat="31.692383702602527" lon="-4.953132986588914"><ele>1025.0</ele><time>2026-04-30T08:52:28Z</time></trkpt><trkpt lat="31.692286326612006" lon="-4.95320787919865"><ele>1025.0</ele><time>2026-04-30T08:52:29Z</time></trkpt><trkpt lat="31.692187032702694" lon="-4.953286376285522"><ele>1025.0</ele><time>2026-04-30T08:52:30Z</time></trkpt><trkpt lat="31.692086172187608" lon="-4.953367799327449"><ele>1025.0</ele><time>2026-04-30T08:52:31Z</time></trkpt><trkpt lat="31.6919829534771" lon="-4.95345394539985"><ele>1025.0</ele><time>2026-04-30T08:52:32Z</time></trkpt><trkpt lat="31.691879379769965" lon="-4.953543464022824"><ele>1025.75</ele><time>2026-04-30T08:52:33Z</time></trkpt><trkpt lat="31.691771735656758" lon="-4.953632298345856"><ele>1026.5</ele><time>2026-04-30T08:52:34Z</time></trkpt><trkpt lat="31.691662766265296" lon="-4.953721403295887"><ele>1027.25</ele><time>2026-04-30T08:52:35Z</time></trkpt><trkpt lat="31.69155901721206" lon="-4.953803490252754"><ele>1028.0</ele><time>2026-04-30T08:52:36Z</time></trkpt><trkpt lat="31.69145610460242" lon="-4.953881989283583"><ele>1028.0</ele><time>2026-04-30T08:52:37Z</time></trkpt><trkpt lat="31.691356661294805" lon="-4.953959510747927"><ele>1028.0</ele><time>2026-04-30T08:52:38Z</time></trkpt><trkpt lat="31.691256267686263" lon="-4.954040431609181"><ele>1028.0</ele><time>2026-04-30T08:52:39Z</time></trkpt><trkpt lat="31.691153116196748" lon="-4.954120394245918"><ele>1028.0</ele><time>2026-04-30T08:52:40Z</time></trkpt><trkpt lat="31.691055933622952" lon="-4.954202350556625"><ele>1027.5</ele><time>2026-04-30T08:52:41Z</time></trkpt><trkpt lat="31.690952782173234" lon="-4.954288795406752"><ele>1027.0</ele><time>2026-04-30T08:52:42Z</time></trkpt><trkpt lat="31.690847098199217" lon="-4.95436621407193"><ele>1026.5</ele><time>2026-04-30T08:52:43Z</time></trkpt><trkpt lat="31.690746589071537" lon="-4.954452230129848"><ele>1026.0</ele><time>2026-04-30T08:52:44Z</time></trkpt><trkpt lat="31.690648131343245" lon="-4.9545413609629945"><ele>1026.0</ele><time>2026-04-30T08:52:45Z</time></trkpt><trkpt lat="31.69054906616618" lon="-4.954627766993232"><ele>1026.0</ele><time>2026-04-30T08:52:46Z</time></trkpt><trkpt lat="31.69044861582147" lon="-4.95471230349357"><ele>1026.0</ele><time>2026-04-30T08:52:47Z</time></trkpt><trkpt lat="31.69034640485564" lon="-4.9547974836154385"><ele>1026.0</ele><time>2026-04-30T08:52:48Z</time></trkpt><trkpt lat="31.690244914621015" lon="-4.954881258847213"><ele>1025.75</ele><time>2026-04-30T08:52:49Z</time></trkpt><trkpt lat="31.690143314388447" lon="-4.954968695482056"><ele>1025.5</ele><time>2026-04-30T08:52:50Z</time></trkpt><trkpt lat="31.69004158995751" lon="-4.955053053514973"><ele>1025.25</ele><time>2026-04-30T08:52:51Z</time></trkpt><trkpt lat="31.68993979356655" lon="-4.955139376818672"><ele>1025.0</ele><time>2026-04-30T08:52:52Z</time></trkpt><trkpt lat="31.689838501956515" lon="-4.955227174495545"><ele>1025.0</ele><time>2026-04-30T08:52:53Z</time></trkpt><trkpt lat="31.689736427638056" lon="-4.955317465875082"><ele>1025.0</ele><time>2026-04-30T08:52:54Z</time></trkpt><trkpt lat="31.689637388418717" lon="-4.955401921339069"><ele>1025.0</ele><time>2026-04-30T08:52:55Z</time></trkpt><trkpt lat="31.689539143568894" lon="-4.955490837137"><ele>1025.0</ele><time>2026-04-30T08:52:56Z</time></trkpt><trkpt lat="31.689437802206825" lon="-4.955572274183183"><ele>1024.75</ele><time>2026-04-30T08:52:57Z</time></trkpt><trkpt lat="31.68934034068636" lon="-4.955655894767556"><ele>1024.5</ele><time>2026-04-30T08:52:58Z</time></trkpt><trkpt lat="31.689246122949516" lon="-4.955729215403579"><ele>1024.25</ele><time>2026-04-30T08:52:59Z</time></trkpt><trkpt lat="31.68914664315472" lon="-4.955805712893433"><ele>1024.0</ele><time>2026-04-30T08:53:00Z</time></trkpt><trkpt lat="31.689049286649684" lon="-4.955881626645118"><ele>1024.0</ele><time>2026-04-30T08:53:01Z</time></trkpt><trkpt lat="31.688958835296535" lon="-4.955961840949155"><ele>1024.0</ele><time>2026-04-30T08:53:02Z</time></trkpt><trkpt lat="31.688872297928974" lon="-4.956039705244954"><ele>1024.0</ele><time>2026-04-30T08:53:03Z</time></trkpt><trkpt lat="31.688781178579447" lon="-4.956115480044238"><ele>1024.0</ele><time>2026-04-30T08:53:04Z</time></trkpt><trkpt lat="31.688694342127956" lon="-4.9561869905279226"><ele>1024.0</ele><time>2026-04-30T08:53:05Z</time></trkpt><trkpt lat="31.688605120324596" lon="-4.95625990753572"><ele>1024.0</ele><time>2026-04-30T08:53:06Z</time></trkpt><trkpt lat="31.688515510166237" lon="-4.956331406874605"><ele>1024.0</ele><time>2026-04-30T08:53:07Z</time></trkpt><trkpt lat="31.68842706647356" lon="-4.956393541537283"><ele>1024.0</ele><time>2026-04-30T08:53:08Z</time></trkpt><trkpt lat="31.688344513529128" lon="-4.95645822474348"><ele>1024.0</ele><time>2026-04-30T08:53:09Z</time></trkpt><trkpt lat="31.68826830857572" lon="-4.9565258615148995"><ele>1024.0</ele><time>2026-04-30T08:53:10Z</time></trkpt><trkpt lat="31.68819001843511" lon="-4.956596153742146"><ele>1024.0</ele><time>2026-04-30T08:53:11Z</time></trkpt><trkpt lat="31.68810859389478" lon="-4.956668232597798"><ele>1024.0</ele><time>2026-04-30T08:53:12Z</time></trkpt><trkpt lat="31.688026145454067" lon="-4.956737426177404"><ele>1024.0</ele><time>2026-04-30T08:53:13Z</time></trkpt><trkpt lat="31.687945618025175" lon="-4.9568071462375825"><ele>1024.0</ele><time>2026-04-30T08:53:14Z</time></trkpt><trkpt lat="31.687862622844616" lon="-4.956873031613012"><ele>1024.0</ele><time>2026-04-30T08:53:15Z</time></trkpt><trkpt lat="31.68777864592537" lon="-4.956933695396858"><ele>1023.4000000000001</ele><time>2026-04-30T08:53:16Z</time></trkpt><trkpt lat="31.687694764884164" lon="-4.956999425335143"><ele>1022.8000000000001</ele><time>2026-04-30T08:53:17.001Z</time></trkpt><trkpt lat="31.68761140139296" lon="-4.95707661624354"><ele>1022.1999999999999</ele><time>2026-04-30T08:53:18.001Z</time></trkpt><trkpt lat="31.687529106611475" lon="-4.957148789668955"><ele>1021.5999999999999</ele><time>2026-04-30T08:53:19.001Z</time></trkpt><trkpt lat="31.687442853073208" lon="-4.957231359655735"><ele>1021.0</ele><time>2026-04-30T08:53:20.001Z</time></trkpt><trkpt lat="31.687353508630625" lon="-4.95730766997524"><ele>1021.0</ele><time>2026-04-30T08:53:21.001Z</time></trkpt><trkpt lat="31.687266661597782" lon="-4.957383728678548"><ele>1020.9999999999999</ele><time>2026-04-30T08:53:22.001Z</time></trkpt><trkpt lat="31.687176895009554" lon="-4.957456023257456"><ele>1020.9999999999999</ele><time>2026-04-30T08:53:23.001Z</time></trkpt><trkpt lat="31.687087448510596" lon="-4.957531291946864"><ele>1021.0</ele><time>2026-04-30T08:53:24.001Z</time></trkpt><trkpt lat="31.686997393603086" lon="-4.95760791315072"><ele>1021.0</ele><time>2026-04-30T08:53:25.001Z</time></trkpt><trkpt lat="31.68690631116092" lon="-4.957686043017893"><ele>1020.5999999999999</ele><time>2026-04-30T08:53:26.001Z</time></trkpt><trkpt lat="31.686814802932076" lon="-4.957762534378268"><ele>1020.1999999999999</ele><time>2026-04-30T08:53:27.001Z</time></trkpt><trkpt lat="31.686723940378986" lon="-4.957835850847638"><ele>1019.8000000000001</ele><time>2026-04-30T08:53:28.001Z</time></trkpt><trkpt lat="31.686631822920706" lon="-4.95790826985401"><ele>1019.4000000000001</ele><time>2026-04-30T08:53:29.001Z</time></trkpt><trkpt lat="31.686540864650027" lon="-4.957980172896181"><ele>1019.0</ele><time>2026-04-30T08:53:30.001Z</time></trkpt><trkpt lat="31.68645226219174" lon="-4.958053144386025"><ele>1019.0</ele><time>2026-04-30T08:53:31.001Z</time></trkpt><trkpt lat="31.686365483239808" lon="-4.95812525629053"><ele>1019.0000000000001</ele><time>2026-04-30T08:53:32.001Z</time></trkpt><trkpt lat="31.686279965124267" lon="-4.958195191997796"><ele>1019.0000000000001</ele><time>2026-04-30T08:53:33.001Z</time></trkpt><trkpt lat="31.686194720838433" lon="-4.958263746885718"><ele>1019.0</ele><time>2026-04-30T08:53:34.001Z</time></trkpt><trkpt lat="31.68611210824953" lon="-4.95833048524989"><ele>1019.0</ele><time>2026-04-30T08:53:35.001Z</time></trkpt><trkpt lat="31.686035963332785" lon="-4.958389709445144"><ele>1019.0000000000001</ele><time>2026-04-30T08:53:36.001Z</time></trkpt><trkpt lat="31.685971093356752" lon="-4.958443201269538"><ele>1019.0</ele><time>2026-04-30T08:53:37.001Z</time></trkpt><trkpt lat="31.685918699965075" lon="-4.958487939808654"><ele>1019.0</ele><time>2026-04-30T08:53:38.001Z</time></trkpt><trkpt lat="31.68583467587554" lon="-4.9585342493766404"><ele>1019.0</ele><time>2026-04-30T08:53:40.001Z</time></trkpt><trkpt lat="31.685747623119386" lon="-4.958478383933543"><ele>1019.0000000000001</ele><time>2026-04-30T08:53:42.001Z</time></trkpt><trkpt lat="31.685728952605132" lon="-4.958406402120009"><ele>1019.0</ele><time>2026-04-30T08:53:43Z</time></trkpt><trkpt lat="31.685696458788218" lon="-4.958332252833584"><ele>1019.0</ele><time>2026-04-30T08:53:44Z</time></trkpt><trkpt lat="31.685642300885462" lon="-4.958247746325451"><ele>1019.0000000000001</ele><time>2026-04-30T08:53:45Z</time></trkpt><trkpt lat="31.685578892716553" lon="-4.958165345338222"><ele>1019.0000000000001</ele><time>2026-04-30T08:53:46Z</time></trkpt><trkpt lat="31.68551153627272" lon="-4.958076196233603"><ele>1019.0</ele><time>2026-04-30T08:53:47Z</time></trkpt><trkpt lat="31.685427767500073" lon="-4.957970420183296"><ele>1019.0</ele><time>2026-04-30T08:53:48Z</time></trkpt><trkpt lat="31.685345043647093" lon="-4.9578632729142065"><ele>1019.0</ele><time>2026-04-30T08:53:49Z</time></trkpt><trkpt lat="31.6852718128646" lon="-4.9577704439522225"><ele>1019.0000000000001</ele><time>2026-04-30T08:53:50Z</time></trkpt><trkpt lat="31.68520448348959" lon="-4.957687219380053"><ele>1019.0000000000001</ele><time>2026-04-30T08:53:51Z</time></trkpt><trkpt lat="31.685134632361834" lon="-4.9576112291107695"><ele>1019.0</ele><time>2026-04-30T08:53:52Z</time></trkpt><trkpt lat="31.685074657097612" lon="-4.957534307984052"><ele>1019.0</ele><time>2026-04-30T08:53:53Z</time></trkpt><trkpt lat="31.685018263125606" lon="-4.957458398805616"><ele>1019.0</ele><time>2026-04-30T08:53:54Z</time></trkpt><trkpt lat="31.684950526042982" lon="-4.957385326203282"><ele>1019.0</ele><time>2026-04-30T08:53:55Z</time></trkpt><trkpt lat="31.684864541008622" lon="-4.957310991086983"><ele>1019.0</ele><time>2026-04-30T08:53:56Z</time></trkpt><trkpt lat="31.684761652840606" lon="-4.95722984258852"><ele>1019.0</ele><time>2026-04-30T08:53:57Z</time></trkpt><trkpt lat="31.68465136026023" lon="-4.957139437231382"><ele>1019.0</ele><time>2026-04-30T08:53:58Z</time></trkpt><trkpt lat="31.684549681868315" lon="-4.957037548212336"><ele>1019.0</ele><time>2026-04-30T08:53:59Z</time></trkpt><trkpt lat="31.684439643389428" lon="-4.956919021025419"><ele>1019.0</ele><time>2026-04-30T08:54:00Z</time></trkpt><trkpt lat="31.68431677156004" lon="-4.956806158184302"><ele>1019.0</ele><time>2026-04-30T08:54:01Z</time></trkpt><trkpt lat="31.68419551163427" lon="-4.956696818477912"><ele>1019.25</ele><time>2026-04-30T08:54:02Z</time></trkpt><trkpt lat="31.68408251767826" lon="-4.95658622909411"><ele>1019.5</ele><time>2026-04-30T08:54:03Z</time></trkpt><trkpt lat="31.683977341791906" lon="-4.956479802441014"><ele>1019.75</ele><time>2026-04-30T08:54:04Z</time></trkpt><trkpt lat="31.683872429959163" lon="-4.956376452971702"><ele>1020.0</ele><time>2026-04-30T08:54:05Z</time></trkpt><trkpt lat="31.683766491831708" lon="-4.956267813304962"><ele>1020.0</ele><time>2026-04-30T08:54:06Z</time></trkpt><trkpt lat="31.683659487385118" lon="-4.956159019596747"><ele>1020.0</ele><time>2026-04-30T08:54:07Z</time></trkpt><trkpt lat="31.68355130982034" lon="-4.956054416333295"><ele>1020.0</ele><time>2026-04-30T08:54:08Z</time></trkpt><trkpt lat="31.683447118232515" lon="-4.955949726301686"><ele>1020.0</ele><time>2026-04-30T08:54:09Z</time></trkpt><trkpt lat="31.683346698240733" lon="-4.955841899676229"><ele>1019.25</ele><time>2026-04-30T08:54:10Z</time></trkpt><trkpt lat="31.68324295217263" lon="-4.955733767589996"><ele>1018.5</ele><time>2026-04-30T08:54:11Z</time></trkpt><trkpt lat="31.683136153454765" lon="-4.955625237311299"><ele>1017.75</ele><time>2026-04-30T08:54:12Z</time></trkpt><trkpt lat="31.683027368951084" lon="-4.955516918777213"><ele>1017.0</ele><time>2026-04-30T08:54:13Z</time></trkpt><trkpt lat="31.682922827367406" lon="-4.955405300644659"><ele>1017.0</ele><time>2026-04-30T08:54:14Z</time></trkpt><trkpt lat="31.68281829793952" lon="-4.955286957419389"><ele>1017.0</ele><time>2026-04-30T08:54:15Z</time></trkpt><trkpt lat="31.6827112297133" lon="-4.955158514683762"><ele>1017.0</ele><time>2026-04-30T08:54:16Z</time></trkpt><trkpt lat="31.68259930945889" lon="-4.955023886289953"><ele>1017.3333333333333</ele><time>2026-04-30T08:54:17Z</time></trkpt><trkpt lat="31.682478621150125" lon="-4.954888658038986"><ele>1017.6666666666666</ele><time>2026-04-30T08:54:18Z</time></trkpt><trkpt lat="31.682357058104234" lon="-4.954763157987317"><ele>1018.0</ele><time>2026-04-30T08:54:19Z</time></trkpt><trkpt lat="31.682224611908325" lon="-4.954644903600196"><ele>1018.0</ele><time>2026-04-30T08:54:20Z</time></trkpt><trkpt lat="31.682080122784352" lon="-4.954522283680125"><ele>1018.0</ele><time>2026-04-30T08:54:21Z</time></trkpt><trkpt lat="31.681928782265118" lon="-4.954393463971648"><ele>1018.0</ele><time>2026-04-30T08:54:22Z</time></trkpt><trkpt lat="31.68177884979503" lon="-4.9542625405848595"><ele>1018.3333333333333</ele><time>2026-04-30T08:54:23Z</time></trkpt><trkpt lat="31.681634226788706" lon="-4.954128346386175"><ele>1018.6666666666667</ele><time>2026-04-30T08:54:24Z</time></trkpt><trkpt lat="31.681495419375043" lon="-4.953989529218072"><ele>1019.0</ele><time>2026-04-30T08:54:25Z</time></trkpt><trkpt lat="31.681357821248625" lon="-4.953847909914012"><ele>1019.0</ele><time>2026-04-30T08:54:26Z</time></trkpt><trkpt lat="31.681229951988495" lon="-4.9537022184258"><ele>1019.0</ele><time>2026-04-30T08:54:27Z</time></trkpt><trkpt lat="31.681110584875007" lon="-4.953547989382586"><ele>1019.0</ele><time>2026-04-30T08:54:28Z</time></trkpt><trkpt lat="31.680998059546532" lon="-4.953384340104823"><ele>1018.3333333333334</ele><time>2026-04-30T08:54:29Z</time></trkpt><trkpt lat="31.680888256504097" lon="-4.953207400275215"><ele>1017.6666666666667</ele><time>2026-04-30T08:54:30Z</time></trkpt><trkpt lat="31.680783557577463" lon="-4.9530169469901315"><ele>1017.0</ele><time>2026-04-30T08:54:31Z</time></trkpt><trkpt lat="31.680676867464925" lon="-4.952825008362975"><ele>1017.0</ele><time>2026-04-30T08:54:32Z</time></trkpt><trkpt lat="31.68056966463636" lon="-4.9526321728282765"><ele>1017.0</ele><time>2026-04-30T08:54:33Z</time></trkpt><trkpt lat="31.68046184278715" lon="-4.95244017154989"><ele>1017.0</ele><time>2026-04-30T08:54:34Z</time></trkpt><trkpt lat="31.68035105278595" lon="-4.952249909095066"><ele>1017.0</ele><time>2026-04-30T08:54:35Z</time></trkpt><trkpt lat="31.680243504773763" lon="-4.952058969782285"><ele>1017.0</ele><time>2026-04-30T08:54:36Z</time></trkpt><trkpt lat="31.68013239529386" lon="-4.951866939651654"><ele>1017.0</ele><time>2026-04-30T08:54:37Z</time></trkpt><trkpt lat="31.68001684967741" lon="-4.9516750766148245"><ele>1017.0</ele><time>2026-04-30T08:54:38Z</time></trkpt><trkpt lat="31.679900518546166" lon="-4.951479327221946"><ele>1017.0</ele><time>2026-04-30T08:54:39Z</time></trkpt><trkpt lat="31.67978894938044" lon="-4.951281631277639"><ele>1017.0</ele><time>2026-04-30T08:54:40Z</time></trkpt><trkpt lat="31.679673386340074" lon="-4.951081727993529"><ele>1017.0</ele><time>2026-04-30T08:54:41Z</time></trkpt><trkpt lat="31.679563967718025" lon="-4.950879601074603"><ele>1017.0</ele><time>2026-04-30T08:54:42Z</time></trkpt><trkpt lat="31.679457579807597" lon="-4.950674825090105"><ele>1017.0</ele><time>2026-04-30T08:54:43Z</time></trkpt><trkpt lat="31.679351496089375" lon="-4.950467737709269"><ele>1016.3333333333333</ele><time>2026-04-30T08:54:44Z</time></trkpt><trkpt lat="31.679247773979842" lon="-4.950263258900624"><ele>1015.6666666666666</ele><time>2026-04-30T08:54:45Z</time></trkpt><trkpt lat="31.67914523015701" lon="-4.950057315356428"><ele>1015.0</ele><time>2026-04-30T08:54:46Z</time></trkpt><trkpt lat="31.67904353497836" lon="-4.949853220829401"><ele>1015.0</ele><time>2026-04-30T08:54:47Z</time></trkpt><trkpt lat="31.67894186324933" lon="-4.9496468638159445"><ele>1015.0</ele><time>2026-04-30T08:54:48Z</time></trkpt><trkpt lat="31.678840743600905" lon="-4.949442919585646"><ele>1015.0</ele><time>2026-04-30T08:54:49Z</time></trkpt><trkpt lat="31.67873769118806" lon="-4.94923913956318"><ele>1015.6666666666666</ele><time>2026-04-30T08:54:50Z</time></trkpt><trkpt lat="31.678641339396677" lon="-4.949031073708968"><ele>1016.3333333333333</ele><time>2026-04-30T08:54:51Z</time></trkpt><trkpt lat="31.678551063984855" lon="-4.948817814461695"><ele>1017.0</ele><time>2026-04-30T08:54:52Z</time></trkpt><trkpt lat="31.678463199036536" lon="-4.948602042120937"><ele>1015.6666666666667</ele><time>2026-04-30T08:54:53Z</time></trkpt><trkpt lat="31.678377734378852" lon="-4.948382427583966"><ele>1014.3333333333334</ele><time>2026-04-30T08:54:54Z</time></trkpt><trkpt lat="31.67829535749938" lon="-4.948167280783059"><ele>1013.0</ele><time>2026-04-30T08:54:55Z</time></trkpt><trkpt lat="31.67821092039455" lon="-4.947945031407457"><ele>1013.0</ele><time>2026-04-30T08:54:56Z</time></trkpt><trkpt lat="31.67812972522788" lon="-4.94772339327326"><ele>1013.0</ele><time>2026-04-30T08:54:57Z</time></trkpt><trkpt lat="31.67804429732022" lon="-4.947500679642308"><ele>1013.0</ele><time>2026-04-30T08:54:58Z</time></trkpt><trkpt lat="31.6779568922797" lon="-4.947279636370209"><ele>1013.0</ele><time>2026-04-30T08:54:59Z</time></trkpt><trkpt lat="31.677869471628224" lon="-4.947057076943355"><ele>1013.0</ele><time>2026-04-30T08:55:00Z</time></trkpt><trkpt lat="31.677788927783624" lon="-4.946844926604842"><ele>1013.0</ele><time>2026-04-30T08:55:01Z</time></trkpt><trkpt lat="31.67771234872753" lon="-4.9466411568569"><ele>1013.0</ele><time>2026-04-30T08:55:02Z</time></trkpt><trkpt lat="31.677638597821467" lon="-4.94644639664852"><ele>1013.0</ele><time>2026-04-30T08:55:03Z</time></trkpt><trkpt lat="31.67756615756249" lon="-4.946259247473135"><ele>1013.0</ele><time>2026-04-30T08:55:04Z</time></trkpt><trkpt lat="31.67749607564495" lon="-4.946068667514051"><ele>1013.0</ele><time>2026-04-30T08:55:05Z</time></trkpt><trkpt lat="31.6774239091554" lon="-4.945873421710694"><ele>1013.0</ele><time>2026-04-30T08:55:06Z</time></trkpt><trkpt lat="31.677349291337947" lon="-4.945670419242606"><ele>1013.0</ele><time>2026-04-30T08:55:07Z</time></trkpt><trkpt lat="31.677265267411947" lon="-4.945466701194812"><ele>1013.0</ele><time>2026-04-30T08:55:08Z</time></trkpt><trkpt lat="31.677177169113627" lon="-4.94526619623104"><ele>1013.0</ele><time>2026-04-30T08:55:09Z</time></trkpt><trkpt lat="31.67709153477376" lon="-4.94505364825964"><ele>1013.0</ele><time>2026-04-30T08:55:10Z</time></trkpt><trkpt lat="31.677008171754206" lon="-4.944834797770036"><ele>1013.0</ele><time>2026-04-30T08:55:11Z</time></trkpt><trkpt lat="31.676931140584923" lon="-4.944618043513868"><ele>1013.0</ele><time>2026-04-30T08:55:12Z</time></trkpt><trkpt lat="31.676845580493513" lon="-4.944394639289434"><ele>1013.0</ele><time>2026-04-30T08:55:13Z</time></trkpt><trkpt lat="31.676762847237455" lon="-4.94417167451362"><ele>1013.0</ele><time>2026-04-30T08:55:14Z</time></trkpt><trkpt lat="31.67667985338422" lon="-4.943950064062347"><ele>1013.0</ele><time>2026-04-30T08:55:15Z</time></trkpt><trkpt lat="31.676593622338604" lon="-4.943726353289605"><ele>1013.0</ele><time>2026-04-30T08:55:16Z</time></trkpt><trkpt lat="31.676508088652152" lon="-4.943502313954586"><ele>1013.6666666666667</ele><time>2026-04-30T08:55:17Z</time></trkpt><trkpt lat="31.67642318075174" lon="-4.9432814846987485"><ele>1014.3333333333333</ele><time>2026-04-30T08:55:18Z</time></trkpt><trkpt lat="31.67633889276997" lon="-4.9430585668590465"><ele>1015.0</ele><time>2026-04-30T08:55:19Z</time></trkpt><trkpt lat="31.676251739249643" lon="-4.94283372105305"><ele>1015.0</ele><time>2026-04-30T08:55:20Z</time></trkpt><trkpt lat="31.67616685013838" lon="-4.942614912007769"><ele>1015.0</ele><time>2026-04-30T08:55:21Z</time></trkpt><trkpt lat="31.67607948666617" lon="-4.94239137013177"><ele>1015.0</ele><time>2026-04-30T08:55:22Z</time></trkpt><trkpt lat="31.675993832657362" lon="-4.942169798429422"><ele>1013.3333333333333</ele><time>2026-04-30T08:55:23.001Z</time></trkpt><trkpt lat="31.67590905289832" lon="-4.941947123317603"><ele>1011.6666666666667</ele><time>2026-04-30T08:55:24.001Z</time></trkpt><trkpt lat="31.67582638462036" lon="-4.9417254303373035"><ele>1010.0</ele><time>2026-04-30T08:55:25.001Z</time></trkpt><trkpt lat="31.675738796190938" lon="-4.941502578927961"><ele>1010.0</ele><time>2026-04-30T08:55:26.001Z</time></trkpt><trkpt lat="31.675655018087912" lon="-4.941280967245601"><ele>1010.0</ele><time>2026-04-30T08:55:27.001Z</time></trkpt><trkpt lat="31.67556978406359" lon="-4.941058879723939"><ele>1010.0</ele><time>2026-04-30T08:55:28.001Z</time></trkpt><trkpt lat="31.675485282696464" lon="-4.940841558929044"><ele>1010.3333333333334</ele><time>2026-04-30T08:55:29.001Z</time></trkpt><trkpt lat="31.67539787680153" lon="-4.940620672484021"><ele>1010.6666666666667</ele><time>2026-04-30T08:55:30.001Z</time></trkpt><trkpt lat="31.675315275802806" lon="-4.940400428967707"><ele>1011.0</ele><time>2026-04-30T08:55:31.001Z</time></trkpt><trkpt lat="31.67523342343799" lon="-4.9401817927807015"><ele>1010.3333333333333</ele><time>2026-04-30T08:55:32.001Z</time></trkpt><trkpt lat="31.67514567641281" lon="-4.939960578852912"><ele>1009.6666666666666</ele><time>2026-04-30T08:55:33.001Z</time></trkpt><trkpt lat="31.67506124200441" lon="-4.93974162933163"><ele>1009.0</ele><time>2026-04-30T08:55:34.001Z</time></trkpt><trkpt lat="31.67497328672907" lon="-4.939517513192414"><ele>1009.0</ele><time>2026-04-30T08:55:35.001Z</time></trkpt><trkpt lat="31.674890536957072" lon="-4.939295083656546"><ele>1009.0</ele><time>2026-04-30T08:55:36.001Z</time></trkpt><trkpt lat="31.674808148584166" lon="-4.939073000144578"><ele>1009.0</ele><time>2026-04-30T08:55:37.001Z</time></trkpt><trkpt lat="31.6747207886461" lon="-4.938848413046831"><ele>1008.3333333333333</ele><time>2026-04-30T08:55:38.001Z</time></trkpt><trkpt lat="31.67463381137319" lon="-4.938623728409623"><ele>1007.6666666666667</ele><time>2026-04-30T08:55:39.001Z</time></trkpt><trkpt lat="31.67454605581084" lon="-4.938399603413779"><ele>1007.0</ele><time>2026-04-30T08:55:40.001Z</time></trkpt><trkpt lat="31.674459016184628" lon="-4.938174360764638"><ele>1006.3333333333334</ele><time>2026-04-30T08:55:41.001Z</time></trkpt><trkpt lat="31.674372531000294" lon="-4.937948843088737"><ele>1005.6666666666667</ele><time>2026-04-30T08:55:42.001Z</time></trkpt><trkpt lat="31.674285269005118" lon="-4.937723944125655"><ele>1005.0</ele><time>2026-04-30T08:55:43.001Z</time></trkpt><trkpt lat="31.674196249299158" lon="-4.9374964674435375"><ele>1005.0</ele><time>2026-04-30T08:55:44.001Z</time></trkpt><trkpt lat="31.674105116376108" lon="-4.937268869004858"><ele>1005.0</ele><time>2026-04-30T08:55:45.001Z</time></trkpt><trkpt lat="31.67401559695642" lon="-4.937043454215558"><ele>1005.0</ele><time>2026-04-30T08:55:46.001Z</time></trkpt><trkpt lat="31.673925232998275" lon="-4.936820906869194"><ele>1005.6666666666667</ele><time>2026-04-30T08:55:47.001Z</time></trkpt><trkpt lat="31.6738338404445" lon="-4.936597417156346"><ele>1006.3333333333334</ele><time>2026-04-30T08:55:48.001Z</time></trkpt><trkpt lat="31.67374381887408" lon="-4.936372782744249"><ele>1007.0</ele><time>2026-04-30T08:55:49Z</time></trkpt><trkpt lat="31.673654060299555" lon="-4.936148773476604"><ele>1007.0</ele><time>2026-04-30T08:55:50Z</time></trkpt><trkpt lat="31.673561207309323" lon="-4.935923369919703"><ele>1007.0</ele><time>2026-04-30T08:55:51Z</time></trkpt><trkpt lat="31.673462724198437" lon="-4.935702167298853"><ele>1007.0</ele><time>2026-04-30T08:55:52Z</time></trkpt><trkpt lat="31.673357957064614" lon="-4.935484816057869"><ele>1007.0</ele><time>2026-04-30T08:55:53Z</time></trkpt><trkpt lat="31.67325057304692" lon="-4.935267604965464"><ele>1007.0</ele><time>2026-04-30T08:55:54Z</time></trkpt><trkpt lat="31.67314191522448" lon="-4.93505154402626"><ele>1007.0</ele><time>2026-04-30T08:55:55Z</time></trkpt><trkpt lat="31.673035383654536" lon="-4.934828931086076"><ele>1007.0</ele><time>2026-04-30T08:55:56Z</time></trkpt><trkpt lat="31.672930502413475" lon="-4.934608919328887"><ele>1007.0</ele><time>2026-04-30T08:55:57Z</time></trkpt><trkpt lat="31.672821761004748" lon="-4.934388813674719"><ele>1007.0</ele><time>2026-04-30T08:55:58Z</time></trkpt><trkpt lat="31.6727092307138" lon="-4.934172991029775"><ele>1006.6666666666667</ele><time>2026-04-30T08:55:59Z</time></trkpt><trkpt lat="31.672597532419573" lon="-4.933954783886675"><ele>1006.3333333333333</ele><time>2026-04-30T08:56:00Z</time></trkpt><trkpt lat="31.67248734714571" lon="-4.933737017399345"><ele>1006.0</ele><time>2026-04-30T08:56:01Z</time></trkpt><trkpt lat="31.672379087295038" lon="-4.933527598242936"><ele>1005.6666666666666</ele><time>2026-04-30T08:56:02Z</time></trkpt><trkpt lat="31.67227708359154" lon="-4.933329795628261"><ele>1005.3333333333333</ele><time>2026-04-30T08:56:03Z</time></trkpt><trkpt lat="31.67218162726238" lon="-4.933141823801373"><ele>1005.0</ele><time>2026-04-30T08:56:04Z</time></trkpt><trkpt lat="31.672091346747813" lon="-4.932957394217492"><ele>1005.0</ele><time>2026-04-30T08:56:05Z</time></trkpt><trkpt lat="31.672002234129017" lon="-4.932771129847701"><ele>1005.0</ele><time>2026-04-30T08:56:06Z</time></trkpt><trkpt lat="31.671914437354015" lon="-4.932587835869179"><ele>1005.0</ele><time>2026-04-30T08:56:07Z</time></trkpt><trkpt lat="31.671824337304944" lon="-4.932406133132357"><ele>1005.0</ele><time>2026-04-30T08:56:08Z</time></trkpt><trkpt lat="31.6717362020815" lon="-4.93223480689208"><ele>1005.0</ele><time>2026-04-30T08:56:09Z</time></trkpt><trkpt lat="31.671654090165198" lon="-4.932074159619277"><ele>1005.0</ele><time>2026-04-30T08:56:10Z</time></trkpt><trkpt lat="31.67157708793937" lon="-4.931926972012478"><ele>1005.0</ele><time>2026-04-30T08:56:11Z</time></trkpt><trkpt lat="31.671505814940396" lon="-4.9317810050456306"><ele>1005.0</ele><time>2026-04-30T08:56:12Z</time></trkpt><trkpt lat="31.671432719937872" lon="-4.931621112570716"><ele>1005.0</ele><time>2026-04-30T08:56:13Z</time></trkpt><trkpt lat="31.671352725381706" lon="-4.931444413511309"><ele>1004.6666666666667</ele><time>2026-04-30T08:56:14Z</time></trkpt><trkpt lat="31.671266541674754" lon="-4.931265847614665"><ele>1004.3333333333334</ele><time>2026-04-30T08:56:15Z</time></trkpt><trkpt lat="31.671171906364165" lon="-4.931078068662672"><ele>1004.0</ele><time>2026-04-30T08:56:16Z</time></trkpt><trkpt lat="31.671075148304865" lon="-4.930884537017916"><ele>1004.0</ele><time>2026-04-30T08:56:17Z</time></trkpt><trkpt lat="31.670979303108062" lon="-4.930687612822882"><ele>1004.0</ele><time>2026-04-30T08:56:18Z</time></trkpt><trkpt lat="31.670880485851267" lon="-4.930482409400691"><ele>1004.0</ele><time>2026-04-30T08:56:19Z</time></trkpt><trkpt lat="31.670775985890916" lon="-4.93027095404243"><ele>1004.0</ele><time>2026-04-30T08:56:20Z</time></trkpt><trkpt lat="31.670669292733603" lon="-4.9300595940562015"><ele>1004.0</ele><time>2026-04-30T08:56:21Z</time></trkpt><trkpt lat="31.67056110133599" lon="-4.929844647812533"><ele>1004.0</ele><time>2026-04-30T08:56:22Z</time></trkpt><trkpt lat="31.670454525200903" lon="-4.929629664150152"><ele>1004.3333333333334</ele><time>2026-04-30T08:56:23Z</time></trkpt><trkpt lat="31.670348677423387" lon="-4.929410073964977"><ele>1004.6666666666667</ele><time>2026-04-30T08:56:24Z</time></trkpt><trkpt lat="31.670239952017035" lon="-4.929189004120997"><ele>1005.0</ele><time>2026-04-30T08:56:25Z</time></trkpt><trkpt lat="31.670128838936957" lon="-4.928968227505889"><ele>1005.0</ele><time>2026-04-30T08:56:26Z</time></trkpt><trkpt lat="31.670016634372878" lon="-4.928747466509087"><ele>1005.0</ele><time>2026-04-30T08:56:27Z</time></trkpt><trkpt lat="31.669906268752488" lon="-4.928523063299013"><ele>1005.0</ele><time>2026-04-30T08:56:28Z</time></trkpt><trkpt lat="31.669796423898713" lon="-4.928295907763849"><ele>1003.3333333333333</ele><time>2026-04-30T08:56:29Z</time></trkpt><trkpt lat="31.66968592702514" lon="-4.928067635259652"><ele>1001.6666666666666</ele><time>2026-04-30T08:56:30Z</time></trkpt><trkpt lat="31.6695722193271" lon="-4.927839795192925"><ele>1000.0</ele><time>2026-04-30T08:56:31Z</time></trkpt><trkpt lat="31.669459472002846" lon="-4.927613339147075"><ele>1001.0</ele><time>2026-04-30T08:56:32Z</time></trkpt><trkpt lat="31.669343789317033" lon="-4.92738742770501"><ele>1002.0</ele><time>2026-04-30T08:56:33Z</time></trkpt><trkpt lat="31.669237295097226" lon="-4.927152719824671"><ele>1002.0</ele><time>2026-04-30T08:56:34Z</time></trkpt><trkpt lat="31.669123678745745" lon="-4.926925694112732"><ele>1002.0</ele><time>2026-04-30T08:56:35Z</time></trkpt><trkpt lat="31.669009718262828" lon="-4.926697430466236"><ele>1002.0</ele><time>2026-04-30T08:56:36Z</time></trkpt><trkpt lat="31.668892077438095" lon="-4.9264664091725905"><ele>1001.5</ele><time>2026-04-30T08:56:37Z</time></trkpt><trkpt lat="31.668774764612543" lon="-4.9262380559974694"><ele>1001.0</ele><time>2026-04-30T08:56:38Z</time></trkpt><trkpt lat="31.668665529662277" lon="-4.926004053096034"><ele>1001.0</ele><time>2026-04-30T08:56:39Z</time></trkpt><trkpt lat="31.668554748776263" lon="-4.9257765731210945"><ele>1001.0</ele><time>2026-04-30T08:56:40Z</time></trkpt><trkpt lat="31.6684435294632" lon="-4.92555159285631"><ele>1001.0</ele><time>2026-04-30T08:56:41Z</time></trkpt><trkpt lat="31.668331711428085" lon="-4.925329940330388"><ele>1001.0</ele><time>2026-04-30T08:56:42Z</time></trkpt><trkpt lat="31.66821773958457" lon="-4.925109388436443"><ele>1001.0</ele><time>2026-04-30T08:56:43Z</time></trkpt><trkpt lat="31.668108635247858" lon="-4.924885597186234"><ele>1001.0</ele><time>2026-04-30T08:56:44Z</time></trkpt><trkpt lat="31.66800177752229" lon="-4.9246695013397614"><ele>1001.0</ele><time>2026-04-30T08:56:45Z</time></trkpt><trkpt lat="31.667897968182295" lon="-4.924449067899834"><ele>1001.0</ele><time>2026-04-30T08:56:46Z</time></trkpt><trkpt lat="31.667791900387794" lon="-4.924242796269486"><ele>1001.0</ele><time>2026-04-30T08:56:47Z</time></trkpt><trkpt lat="31.66769767272182" lon="-4.924049348506955"><ele>1001.6666666666667</ele><time>2026-04-30T08:56:48Z</time></trkpt><trkpt lat="31.667607933390983" lon="-4.923869480396833"><ele>1002.3333333333333</ele><time>2026-04-30T08:56:49Z</time></trkpt><trkpt lat="31.667517875029954" lon="-4.923696034472083"><ele>1003.0</ele><time>2026-04-30T08:56:50Z</time></trkpt><trkpt lat="31.667430945439122" lon="-4.923522238715965"><ele>1003.0</ele><time>2026-04-30T08:56:51Z</time></trkpt><trkpt lat="31.66734191375232" lon="-4.923342462921773"><ele>1003.0</ele><time>2026-04-30T08:56:52Z</time></trkpt><trkpt lat="31.667255470813025" lon="-4.923152044915593"><ele>1003.0</ele><time>2026-04-30T08:56:53Z</time></trkpt><trkpt lat="31.66715505982234" lon="-4.922956756399444"><ele>1003.0</ele><time>2026-04-30T08:56:54Z</time></trkpt><trkpt lat="31.667053622801674" lon="-4.922762272036747"><ele>1003.0</ele><time>2026-04-30T08:56:55Z</time></trkpt><trkpt lat="31.666954967363186" lon="-4.922554056388437"><ele>1003.0</ele><time>2026-04-30T08:56:56Z</time></trkpt><trkpt lat="31.666854853769433" lon="-4.922346622623447"><ele>1002.6666666666666</ele><time>2026-04-30T08:56:57Z</time></trkpt><trkpt lat="31.66675314587589" lon="-4.9221327040644605"><ele>1002.3333333333333</ele><time>2026-04-30T08:56:58Z</time></trkpt><trkpt lat="31.66665578311679" lon="-4.9219162883043905"><ele>1002.0</ele><time>2026-04-30T08:56:59Z</time></trkpt><trkpt lat="31.66656783378366" lon="-4.921689656618885"><ele>1001.6666666666667</ele><time>2026-04-30T08:57:00Z</time></trkpt><trkpt lat="31.666488046556942" lon="-4.9214599511274"><ele>1001.3333333333334</ele><time>2026-04-30T08:57:01Z</time></trkpt><trkpt lat="31.66641846540952" lon="-4.9212226000447465"><ele>1001.0</ele><time>2026-04-30T08:57:02Z</time></trkpt><trkpt lat="31.666354400227064" lon="-4.920979222161975"><ele>1000.6666666666667</ele><time>2026-04-30T08:57:03Z</time></trkpt><trkpt lat="31.66630242662321" lon="-4.920731049379646"><ele>1000.3333333333333</ele><time>2026-04-30T08:57:04Z</time></trkpt><trkpt lat="31.666262297471967" lon="-4.920478858904585"><ele>1000.0</ele><time>2026-04-30T08:57:05Z</time></trkpt><trkpt lat="31.6662272716426" lon="-4.920219237110874"><ele>1000.0</ele><time>2026-04-30T08:57:06Z</time></trkpt><trkpt lat="31.66620174550935" lon="-4.919961774563348"><ele>1000.0</ele><time>2026-04-30T08:57:07Z</time></trkpt><trkpt lat="31.666172747039003" lon="-4.919700670623312"><ele>1000.0</ele><time>2026-04-30T08:57:08Z</time></trkpt><trkpt lat="31.666140841755354" lon="-4.919442460035128"><ele>1000.0</ele><time>2026-04-30T08:57:09Z</time></trkpt><trkpt lat="31.666106882338855" lon="-4.919181340372259"><ele>1000.0</ele><time>2026-04-30T08:57:10Z</time></trkpt><trkpt lat="31.66607438359003" lon="-4.918920405583762"><ele>1000.0</ele><time>2026-04-30T08:57:11Z</time></trkpt><trkpt lat="31.66604080760385" lon="-4.918656992737864"><ele>1000.5</ele><time>2026-04-30T08:57:12Z</time></trkpt><trkpt lat="31.666006337514347" lon="-4.918392433058533"><ele>1001.0</ele><time>2026-04-30T08:57:13Z</time></trkpt><trkpt lat="31.66597120301707" lon="-4.9181280919915995"><ele>1001.0</ele><time>2026-04-30T08:57:14Z</time></trkpt><trkpt lat="31.665936355533592" lon="-4.917863861259408"><ele>1001.0</ele><time>2026-04-30T08:57:15Z</time></trkpt><trkpt lat="31.665901951083253" lon="-4.917596375561885"><ele>1000.5</ele><time>2026-04-30T08:57:16Z</time></trkpt><trkpt lat="31.665868622232992" lon="-4.91732842684154"><ele>1000.0</ele><time>2026-04-30T08:57:17Z</time></trkpt><trkpt lat="31.66583498516837" lon="-4.917060055350188"><ele>1000.0</ele><time>2026-04-30T08:57:18Z</time></trkpt><trkpt lat="31.665799985034624" lon="-4.916789555699253"><ele>1000.0</ele><time>2026-04-30T08:57:19Z</time></trkpt><trkpt lat="31.665766490201225" lon="-4.916519399467902"><ele>1001.0</ele><time>2026-04-30T08:57:20Z</time></trkpt><trkpt lat="31.665730401328492" lon="-4.916249013255393"><ele>1002.0</ele><time>2026-04-30T08:57:21Z</time></trkpt><trkpt lat="31.665694674862717" lon="-4.915978552937144"><ele>1001.5</ele><time>2026-04-30T08:57:22Z</time></trkpt><trkpt lat="31.665658046474686" lon="-4.915707999139078"><ele>1001.0</ele><time>2026-04-30T08:57:23Z</time></trkpt><trkpt lat="31.66562328677097" lon="-4.915439474328262"><ele>1001.0</ele><time>2026-04-30T08:57:24Z</time></trkpt><trkpt lat="31.66558837547016" lon="-4.915168250314713"><ele>1001.0</ele><time>2026-04-30T08:57:25Z</time></trkpt><trkpt lat="31.665553756219833" lon="-4.914901967420613"><ele>1000.0</ele><time>2026-04-30T08:57:26Z</time></trkpt><trkpt lat="31.665519730970026" lon="-4.9146303721298485"><ele>999.0</ele><time>2026-04-30T08:57:27Z</time></trkpt><trkpt lat="31.66548547440941" lon="-4.9143593559323655"><ele>999.5</ele><time>2026-04-30T08:57:28.001Z</time></trkpt><trkpt lat="31.665450326551355" lon="-4.914086813195861"><ele>1000.0</ele><time>2026-04-30T08:57:29.001Z</time></trkpt><trkpt lat="31.665414507821314" lon="-4.91381365800596"><ele>1000.0</ele><time>2026-04-30T08:57:30.001Z</time></trkpt><trkpt lat="31.665379066784226" lon="-4.913536549489487"><ele>1000.0</ele><time>2026-04-30T08:57:31.001Z</time></trkpt><trkpt lat="31.665346258582723" lon="-4.9132637983952065"><ele>998.0</ele><time>2026-04-30T08:57:32.001Z</time></trkpt><trkpt lat="31.665314845960058" lon="-4.912995685488435"><ele>996.0</ele><time>2026-04-30T08:57:33.001Z</time></trkpt><trkpt lat="31.665282252973817" lon="-4.912739528874152"><ele>996.0</ele><time>2026-04-30T08:57:34.001Z</time></trkpt><trkpt lat="31.6652493445444" lon="-4.912497603454655"><ele>996.0</ele><time>2026-04-30T08:57:35.001Z</time></trkpt><trkpt lat="31.665216194899052" lon="-4.9122670349886794"><ele>996.0</ele><time>2026-04-30T08:57:36.001Z</time></trkpt><trkpt lat="31.665186564637338" lon="-4.912046394419492"><ele>996.0</ele><time>2026-04-30T08:57:37.001Z</time></trkpt><trkpt lat="31.665161117902084" lon="-4.911835648717346"><ele>996.0</ele><time>2026-04-30T08:57:38.001Z</time></trkpt><trkpt lat="31.665137481357885" lon="-4.911642078813285"><ele>996.0</ele><time>2026-04-30T08:57:39.001Z</time></trkpt><trkpt lat="31.665114970899808" lon="-4.911457813160371"><ele>995.5</ele><time>2026-04-30T08:57:40.001Z</time></trkpt><trkpt lat="31.66509168131355" lon="-4.911291464729551"><ele>995.0</ele><time>2026-04-30T08:57:41.001Z</time></trkpt><trkpt lat="31.665073944764416" lon="-4.911137369389344"><ele>994.5</ele><time>2026-04-30T08:57:42.001Z</time></trkpt><trkpt lat="31.665056567679326" lon="-4.910994462946766"><ele>994.0</ele><time>2026-04-30T08:57:43.001Z</time></trkpt><trkpt lat="31.665045371419136" lon="-4.910845140552243"><ele>993.6666666666666</ele><time>2026-04-30T08:57:44.001Z</time></trkpt><trkpt lat="31.66503201364817" lon="-4.910662399031132"><ele>993.3333333333333</ele><time>2026-04-30T08:57:45.001Z</time></trkpt><trkpt lat="31.665003510156552" lon="-4.910475281946909"><ele>993.0</ele><time>2026-04-30T08:57:46.001Z</time></trkpt><trkpt lat="31.66496449488748" lon="-4.910306556371463"><ele>993.0</ele><time>2026-04-30T08:57:47.001Z</time></trkpt><trkpt lat="31.664935638734857" lon="-4.910154083309437"><ele>993.0</ele><time>2026-04-30T08:57:48Z</time></trkpt><trkpt lat="31.66491675181121" lon="-4.910009683053068"><ele>993.0</ele><time>2026-04-30T08:57:49Z</time></trkpt><trkpt lat="31.664897858535735" lon="-4.909872842204031"><ele>993.0</ele><time>2026-04-30T08:57:50Z</time></trkpt><trkpt lat="31.66487935995567" lon="-4.909733995845405"><ele>992.3333333333333</ele><time>2026-04-30T08:57:51Z</time></trkpt><trkpt lat="31.66486327940259" lon="-4.90957902362769"><ele>991.6666666666666</ele><time>2026-04-30T08:57:52Z</time></trkpt><trkpt lat="31.66484611957743" lon="-4.9093988209796375"><ele>991.0</ele><time>2026-04-30T08:57:53Z</time></trkpt><trkpt lat="31.66482557659768" lon="-4.909200102428509"><ele>991.0</ele><time>2026-04-30T08:57:54Z</time></trkpt><trkpt lat="31.664801872885" lon="-4.909005332624024"><ele>991.0</ele><time>2026-04-30T08:57:55Z</time></trkpt><trkpt lat="31.664775881532375" lon="-4.9088077848845595"><ele>991.0</ele><time>2026-04-30T08:57:56Z</time></trkpt><trkpt lat="31.66475043921455" lon="-4.908599513492728"><ele>990.3333333333333</ele><time>2026-04-30T08:57:57Z</time></trkpt><trkpt lat="31.664723302850803" lon="-4.9083897703964094"><ele>989.6666666666667</ele><time>2026-04-30T08:57:58Z</time></trkpt><trkpt lat="31.664692084343734" lon="-4.908187711619963"><ele>989.0</ele><time>2026-04-30T08:57:59Z</time></trkpt><trkpt lat="31.664660031694535" lon="-4.9079734750016915"><ele>989.0</ele><time>2026-04-30T08:58:00Z</time></trkpt><trkpt lat="31.66463151081342" lon="-4.90775411773154"><ele>989.0</ele><time>2026-04-30T08:58:01Z</time></trkpt><trkpt lat="31.664602577534087" lon="-4.907529295249788"><ele>989.0</ele><time>2026-04-30T08:58:02Z</time></trkpt><trkpt lat="31.66457294156861" lon="-4.9073020528644005"><ele>989.3333333333334</ele><time>2026-04-30T08:58:03Z</time></trkpt><trkpt lat="31.66454357281013" lon="-4.907066937257248"><ele>989.6666666666667</ele><time>2026-04-30T08:58:04Z</time></trkpt><trkpt lat="31.664514343232156" lon="-4.906827557709197"><ele>990.0</ele><time>2026-04-30T08:58:05Z</time></trkpt><trkpt lat="31.664482710284737" lon="-4.906584758175422"><ele>990.0</ele><time>2026-04-30T08:58:06Z</time></trkpt><trkpt lat="31.664452077580965" lon="-4.906337801159626"><ele>990.0</ele><time>2026-04-30T08:58:07Z</time></trkpt><trkpt lat="31.66442168136406" lon="-4.906087531643305"><ele>990.0</ele><time>2026-04-30T08:58:08Z</time></trkpt><trkpt lat="31.664390723592813" lon="-4.905833896188254"><ele>990.0</ele><time>2026-04-30T08:58:09Z</time></trkpt><trkpt lat="31.664359965548794" lon="-4.905582760298182"><ele>990.0</ele><time>2026-04-30T08:58:10Z</time></trkpt><trkpt lat="31.664328725811558" lon="-4.905328246358021"><ele>990.0</ele><time>2026-04-30T08:58:11Z</time></trkpt><trkpt lat="31.66429505093034" lon="-4.905072338317559"><ele>990.3333333333333</ele><time>2026-04-30T08:58:12Z</time></trkpt><trkpt lat="31.66425621624788" lon="-4.9048166187123075"><ele>990.6666666666666</ele><time>2026-04-30T08:58:13Z</time></trkpt><trkpt lat="31.66422026855798" lon="-4.904563478629717"><ele>991.0</ele><time>2026-04-30T08:58:14Z</time></trkpt><trkpt lat="31.6641889372364" lon="-4.904309859297459"><ele>991.0</ele><time>2026-04-30T08:58:15Z</time></trkpt><trkpt lat="31.66415806181083" lon="-4.904056919959907"><ele>991.0</ele><time>2026-04-30T08:58:16Z</time></trkpt><trkpt lat="31.664124912984104" lon="-4.903802576961962"><ele>991.0</ele><time>2026-04-30T08:58:17Z</time></trkpt><trkpt lat="31.6640903929706" lon="-4.903550698134886"><ele>990.0</ele><time>2026-04-30T08:58:18Z</time></trkpt><trkpt lat="31.664057263914216" lon="-4.903302117782337"><ele>989.0</ele><time>2026-04-30T08:58:19Z</time></trkpt><trkpt lat="31.664025212320876" lon="-4.903052521634749"><ele>988.0</ele><time>2026-04-30T08:58:20Z</time></trkpt><trkpt lat="31.663991345368178" lon="-4.902799429071169"><ele>988.0</ele><time>2026-04-30T08:58:21Z</time></trkpt><trkpt lat="31.663958251259746" lon="-4.902546172537013"><ele>988.0</ele><time>2026-04-30T08:58:22Z</time></trkpt><trkpt lat="31.663924677900255" lon="-4.90229097528369"><ele>988.0</ele><time>2026-04-30T08:58:23Z</time></trkpt><trkpt lat="31.663893396005157" lon="-4.902038288405863"><ele>988.0</ele><time>2026-04-30T08:58:24Z</time></trkpt><trkpt lat="31.663869465160946" lon="-4.901780706877929"><ele>988.0</ele><time>2026-04-30T08:58:25Z</time></trkpt><trkpt lat="31.663855762466184" lon="-4.901518027162529"><ele>988.0</ele><time>2026-04-30T08:58:26Z</time></trkpt><trkpt lat="31.663855561388406" lon="-4.901252170392245"><ele>988.5</ele><time>2026-04-30T08:58:27Z</time></trkpt><trkpt lat="31.66385899671765" lon="-4.900980232121814"><ele>989.0</ele><time>2026-04-30T08:58:28Z</time></trkpt><trkpt lat="31.66385588527483" lon="-4.900710555690277"><ele>989.0</ele><time>2026-04-30T08:58:29Z</time></trkpt><trkpt lat="31.663849252046777" lon="-4.900441978336946"><ele>989.0</ele><time>2026-04-30T08:58:30Z</time></trkpt><trkpt lat="31.6638444386091" lon="-4.900173595642272"><ele>989.0</ele><time>2026-04-30T08:58:31Z</time></trkpt><trkpt lat="31.663838409227736" lon="-4.899905594920422"><ele>989.0</ele><time>2026-04-30T08:58:32Z</time></trkpt><trkpt lat="31.663831378511087" lon="-4.899636319081104"><ele>989.0</ele><time>2026-04-30T08:58:33Z</time></trkpt><trkpt lat="31.6638235140092" lon="-4.899368481657517"><ele>989.0</ele><time>2026-04-30T08:58:34Z</time></trkpt><trkpt lat="31.6638185160001" lon="-4.8991040520138265"><ele>988.3333333333334</ele><time>2026-04-30T08:58:35Z</time></trkpt><trkpt lat="31.66381337404695" lon="-4.898838171152956"><ele>987.6666666666667</ele><time>2026-04-30T08:58:36Z</time></trkpt><trkpt lat="31.663810398987287" lon="-4.898591028265421"><ele>987.0</ele><time>2026-04-30T08:58:37Z</time></trkpt><trkpt lat="31.663804516733478" lon="-4.8983538478695525"><ele>987.0</ele><time>2026-04-30T08:58:38Z</time></trkpt><trkpt lat="31.663802106668214" lon="-4.898135359369572"><ele>987.0</ele><time>2026-04-30T08:58:39Z</time></trkpt><trkpt lat="31.663796821123928" lon="-4.8979202179468295"><ele>987.0</ele><time>2026-04-30T08:58:40Z</time></trkpt><trkpt lat="31.663777081616743" lon="-4.897706598734188"><ele>987.3333333333333</ele><time>2026-04-30T08:58:41Z</time></trkpt><trkpt lat="31.663725075957643" lon="-4.897497898726657"><ele>987.6666666666666</ele><time>2026-04-30T08:58:42Z</time></trkpt><trkpt lat="31.66364334096279" lon="-4.897286784451945"><ele>988.0</ele><time>2026-04-30T08:58:43Z</time></trkpt><trkpt lat="31.663547614942807" lon="-4.897069175743374"><ele>988.0</ele><time>2026-04-30T08:58:44Z</time></trkpt><trkpt lat="31.663443500307718" lon="-4.89684665830178"><ele>988.0</ele><time>2026-04-30T08:58:45Z</time></trkpt><trkpt lat="31.66333668130207" lon="-4.896617900824452"><ele>988.0</ele><time>2026-04-30T08:58:46Z</time></trkpt><trkpt lat="31.663226915823607" lon="-4.896382473984485"><ele>987.5</ele><time>2026-04-30T08:58:47Z</time></trkpt><trkpt lat="31.663117338839324" lon="-4.896141771555563"><ele>987.0</ele><time>2026-04-30T08:58:48Z</time></trkpt><trkpt lat="31.66301228615725" lon="-4.89590184853594"><ele>987.0</ele><time>2026-04-30T08:58:49Z</time></trkpt><trkpt lat="31.66290437651609" lon="-4.895660758829355"><ele>987.0</ele><time>2026-04-30T08:58:50Z</time></trkpt><trkpt lat="31.662793271865333" lon="-4.8954183950485985"><ele>987.5</ele><time>2026-04-30T08:58:51Z</time></trkpt><trkpt lat="31.662682492517057" lon="-4.895173426436224"><ele>988.0</ele><time>2026-04-30T08:58:52Z</time></trkpt><trkpt lat="31.662567788181462" lon="-4.894926642071283"><ele>986.5</ele><time>2026-04-30T08:58:53Z</time></trkpt><trkpt lat="31.662452440652974" lon="-4.894676852346326"><ele>985.0</ele><time>2026-04-30T08:58:54Z</time></trkpt><trkpt lat="31.662336912740667" lon="-4.894424841908885"><ele>986.5</ele><time>2026-04-30T08:58:55Z</time></trkpt><trkpt lat="31.662220250502067" lon="-4.894170691537995"><ele>988.0</ele><time>2026-04-30T08:58:56Z</time></trkpt><trkpt lat="31.6621044609016" lon="-4.893917078394382"><ele>988.0</ele><time>2026-04-30T08:58:57Z</time></trkpt><trkpt lat="31.66199052087511" lon="-4.893664785891905"><ele>988.0</ele><time>2026-04-30T08:58:58Z</time></trkpt><trkpt lat="31.66187626498523" lon="-4.893412768250631"><ele>986.5</ele><time>2026-04-30T08:58:59Z</time></trkpt><trkpt lat="31.661761530748926" lon="-4.8931607747775505"><ele>985.0</ele><time>2026-04-30T08:59:00Z</time></trkpt><trkpt lat="31.661646172991905" lon="-4.892907965437984"><ele>985.0</ele><time>2026-04-30T08:59:01Z</time></trkpt><trkpt lat="31.66153224170267" lon="-4.892655225449175"><ele>985.0</ele><time>2026-04-30T08:59:02Z</time></trkpt><trkpt lat="31.661417992413423" lon="-4.89239973575715"><ele>985.5</ele><time>2026-04-30T08:59:03Z</time></trkpt><trkpt lat="31.661304287272184" lon="-4.892143499008449"><ele>986.0</ele><time>2026-04-30T08:59:04Z</time></trkpt><trkpt lat="31.661191196384802" lon="-4.891887431197823"><ele>985.5</ele><time>2026-04-30T08:59:05Z</time></trkpt><trkpt lat="31.661073001389553" lon="-4.891630638512693"><ele>985.0</ele><time>2026-04-30T08:59:06Z</time></trkpt><trkpt lat="31.660955019694974" lon="-4.891375427564978"><ele>985.0</ele><time>2026-04-30T08:59:07Z</time></trkpt><trkpt lat="31.660838509768983" lon="-4.891117690541588"><ele>985.0</ele><time>2026-04-30T08:59:08Z</time></trkpt><trkpt lat="31.660719548151476" lon="-4.89085802990524"><ele>986.0</ele><time>2026-04-30T08:59:09Z</time></trkpt><trkpt lat="31.660602145817762" lon="-4.890600263992371"><ele>987.0</ele><time>2026-04-30T08:59:10Z</time></trkpt><trkpt lat="31.660484390240157" lon="-4.890339384985801"><ele>986.0</ele><time>2026-04-30T08:59:11Z</time></trkpt><trkpt lat="31.66036730446518" lon="-4.890079259343701"><ele>985.0</ele><time>2026-04-30T08:59:12Z</time></trkpt><trkpt lat="31.66024830944747" lon="-4.889818655610897"><ele>984.5</ele><time>2026-04-30T08:59:13Z</time></trkpt><trkpt lat="31.660128511346816" lon="-4.889557619708097"><ele>984.0</ele><time>2026-04-30T08:59:14Z</time></trkpt><trkpt lat="31.660009112869215" lon="-4.889294444377713"><ele>983.0</ele><time>2026-04-30T08:59:15Z</time></trkpt><trkpt lat="31.659888299121675" lon="-4.88903091456859"><ele>982.0</ele><time>2026-04-30T08:59:16Z</time></trkpt><trkpt lat="31.659767470077398" lon="-4.888768624123656"><ele>982.0</ele><time>2026-04-30T08:59:17Z</time></trkpt><trkpt lat="31.659646482645083" lon="-4.888504007316373"><ele>982.0</ele><time>2026-04-30T08:59:18Z</time></trkpt><trkpt lat="31.659526501071294" lon="-4.888238048140466"><ele>982.0</ele><time>2026-04-30T08:59:19Z</time></trkpt><trkpt lat="31.65940463614615" lon="-4.887972440873126"><ele>982.0</ele><time>2026-04-30T08:59:20Z</time></trkpt><trkpt lat="31.65928736445403" lon="-4.887708932708996"><ele>982.5</ele><time>2026-04-30T08:59:21Z</time></trkpt><trkpt lat="31.659169239559663" lon="-4.887445217729072"><ele>983.0</ele><time>2026-04-30T08:59:22Z</time></trkpt><trkpt lat="31.65904970719372" lon="-4.887183529430349"><ele>983.0</ele><time>2026-04-30T08:59:23Z</time></trkpt><trkpt lat="31.658931081648756" lon="-4.8869235851447685"><ele>983.0</ele><time>2026-04-30T08:59:24Z</time></trkpt><trkpt lat="31.658814219941203" lon="-4.886664753627956"><ele>983.0</ele><time>2026-04-30T08:59:25Z</time></trkpt><trkpt lat="31.658698397535222" lon="-4.886409458593098"><ele>983.0</ele><time>2026-04-30T08:59:26Z</time></trkpt><trkpt lat="31.6585848512537" lon="-4.886158682517659"><ele>983.0</ele><time>2026-04-30T08:59:27Z</time></trkpt><trkpt lat="31.658476302853558" lon="-4.885912454701882"><ele>983.0</ele><time>2026-04-30T08:59:28Z</time></trkpt><trkpt lat="31.658367498639457" lon="-4.88566379591261"><ele>983.0</ele><time>2026-04-30T08:59:29Z</time></trkpt><trkpt lat="31.658258419529783" lon="-4.885418381380365"><ele>983.0</ele><time>2026-04-30T08:59:30Z</time></trkpt><trkpt lat="31.65814689537747" lon="-4.885170475769831"><ele>983.0</ele><time>2026-04-30T08:59:31Z</time></trkpt><trkpt lat="31.65803521768497" lon="-4.884925874814587"><ele>983.0</ele><time>2026-04-30T08:59:32Z</time></trkpt><trkpt lat="31.657924686337854" lon="-4.88468081451929"><ele>983.0</ele><time>2026-04-30T08:59:33Z</time></trkpt><trkpt lat="31.657813702524543" lon="-4.884435640583782"><ele>983.0</ele><time>2026-04-30T08:59:34Z</time></trkpt><trkpt lat="31.657703725931903" lon="-4.884189396558051"><ele>982.0</ele><time>2026-04-30T08:59:35.001Z</time></trkpt><trkpt lat="31.65759184049521" lon="-4.883941177348812"><ele>981.0</ele><time>2026-04-30T08:59:36Z</time></trkpt><trkpt lat="31.657481690775622" lon="-4.883693479259733"><ele>981.0</ele><time>2026-04-30T08:59:37Z</time></trkpt><trkpt lat="31.657368847293657" lon="-4.883441021662277"><ele>981.0</ele><time>2026-04-30T08:59:38.001Z</time></trkpt><trkpt lat="31.657255342252633" lon="-4.883190489528711"><ele>980.5</ele><time>2026-04-30T08:59:39Z</time></trkpt><trkpt lat="31.65713889285667" lon="-4.882938410814646"><ele>980.0</ele><time>2026-04-30T08:59:40Z</time></trkpt><trkpt lat="31.65702512155716" lon="-4.882684801853767"><ele>980.0</ele><time>2026-04-30T08:59:41.001Z</time></trkpt><trkpt lat="31.65691117613627" lon="-4.882430321441023"><ele>980.0</ele><time>2026-04-30T08:59:42Z</time></trkpt><trkpt lat="31.656800159970388" lon="-4.882177584057983"><ele>980.0</ele><time>2026-04-30T08:59:43Z</time></trkpt><trkpt lat="31.656689058765306" lon="-4.881932680206203"><ele>980.0</ele><time>2026-04-30T08:59:44Z</time></trkpt><trkpt lat="31.65657971038209" lon="-4.8816930541749"><ele>979.3333333333334</ele><time>2026-04-30T08:59:45Z</time></trkpt><trkpt lat="31.65647296153918" lon="-4.881458706947052"><ele>978.6666666666667</ele><time>2026-04-30T08:59:46Z</time></trkpt><trkpt lat="31.656369324101934" lon="-4.8812325339517475"><ele>978.0</ele><time>2026-04-30T08:59:47Z</time></trkpt><trkpt lat="31.65627366631754" lon="-4.881019444400351"><ele>978.3333333333333</ele><time>2026-04-30T08:59:48Z</time></trkpt><trkpt lat="31.656179999505493" lon="-4.88080974341622"><ele>978.6666666666666</ele><time>2026-04-30T08:59:49Z</time></trkpt><trkpt lat="31.65608354854299" lon="-4.880587709574315"><ele>979.0</ele><time>2026-04-30T08:59:50Z</time></trkpt><trkpt lat="31.655984651227026" lon="-4.880346513795943"><ele>979.0</ele><time>2026-04-30T08:59:51Z</time></trkpt><trkpt lat="31.65587659655853" lon="-4.880102782675008"><ele>979.0</ele><time>2026-04-30T08:59:52Z</time></trkpt><trkpt lat="31.655763635296573" lon="-4.879855687626444"><ele>980.5</ele><time>2026-04-30T08:59:53Z</time></trkpt><trkpt lat="31.655648208313057" lon="-4.879601147230573"><ele>982.0</ele><time>2026-04-30T08:59:54Z</time></trkpt><trkpt lat="31.65553463460331" lon="-4.879347583980736"><ele>980.5</ele><time>2026-04-30T08:59:55Z</time></trkpt><trkpt lat="31.655418721567845" lon="-4.8790936102740545"><ele>979.0</ele><time>2026-04-30T08:59:56Z</time></trkpt><trkpt lat="31.655304930278646" lon="-4.878840674548709"><ele>979.0</ele><time>2026-04-30T08:59:57Z</time></trkpt><trkpt lat="31.6551890011966" lon="-4.878587014986947"><ele>979.0</ele><time>2026-04-30T08:59:58Z</time></trkpt><trkpt lat="31.65507694684556" lon="-4.878334365368771"><ele>979.0</ele><time>2026-04-30T08:59:59Z</time></trkpt><trkpt lat="31.654965419033662" lon="-4.878085302772677"><ele>979.0</ele><time>2026-04-30T09:00:00Z</time></trkpt><trkpt lat="31.654856271972076" lon="-4.877838647932214"><ele>980.0</ele><time>2026-04-30T09:00:01Z</time></trkpt><trkpt lat="31.654745342499435" lon="-4.87759133425401"><ele>981.0</ele><time>2026-04-30T09:00:02Z</time></trkpt><trkpt lat="31.654635479869842" lon="-4.877342293434406"><ele>981.0</ele><time>2026-04-30T09:00:03Z</time></trkpt><trkpt lat="31.654524001730085" lon="-4.87709682549759"><ele>981.0</ele><time>2026-04-30T09:00:04Z</time></trkpt><trkpt lat="31.654407810219073" lon="-4.87685332312366"><ele>981.5</ele><time>2026-04-30T09:00:05Z</time></trkpt><trkpt lat="31.654293171921964" lon="-4.876607486386039"><ele>982.0</ele><time>2026-04-30T09:00:06Z</time></trkpt><trkpt lat="31.654184672562753" lon="-4.876357476629383"><ele>982.0</ele><time>2026-04-30T09:00:07Z</time></trkpt><trkpt lat="31.65407837114833" lon="-4.876104350322715"><ele>982.0</ele><time>2026-04-30T09:00:08Z</time></trkpt><trkpt lat="31.653965959759518" lon="-4.875855592039186"><ele>982.0</ele><time>2026-04-30T09:00:09Z</time></trkpt><trkpt lat="31.653852106910534" lon="-4.875609438714438"><ele>982.0</ele><time>2026-04-30T09:00:10Z</time></trkpt><trkpt lat="31.653739786916553" lon="-4.875361387371724"><ele>982.0</ele><time>2026-04-30T09:00:11Z</time></trkpt><trkpt lat="31.653627103251964" lon="-4.875112618391791"><ele>982.0</ele><time>2026-04-30T09:00:12Z</time></trkpt><trkpt lat="31.65351678104959" lon="-4.874863945569841"><ele>980.5</ele><time>2026-04-30T09:00:13Z</time></trkpt><trkpt lat="31.65340414863679" lon="-4.874613839865163"><ele>979.0</ele><time>2026-04-30T09:00:14Z</time></trkpt><trkpt lat="31.65329163308014" lon="-4.874363261572839"><ele>981.5</ele><time>2026-04-30T09:00:15Z</time></trkpt><trkpt lat="31.653181041690665" lon="-4.874112291055266"><ele>984.0</ele><time>2026-04-30T09:00:16Z</time></trkpt><trkpt lat="31.65306911122219" lon="-4.8738616168063285"><ele>984.0</ele><time>2026-04-30T09:00:17Z</time></trkpt><trkpt lat="31.652957314756588" lon="-4.873612838996983"><ele>984.0</ele><time>2026-04-30T09:00:18Z</time></trkpt><trkpt lat="31.652846356974386" lon="-4.87336315297038"><ele>983.0</ele><time>2026-04-30T09:00:19Z</time></trkpt><trkpt lat="31.65273507266244" lon="-4.873113949754234"><ele>982.0</ele><time>2026-04-30T09:00:20Z</time></trkpt><trkpt lat="31.652623866946225" lon="-4.872864870894294"><ele>982.0</ele><time>2026-04-30T09:00:21Z</time></trkpt><trkpt lat="31.652511662144473" lon="-4.872618461939376"><ele>982.0</ele><time>2026-04-30T09:00:22Z</time></trkpt><trkpt lat="31.652398817959998" lon="-4.872374874727816"><ele>981.5</ele><time>2026-04-30T09:00:23Z</time></trkpt><trkpt lat="31.652288649908353" lon="-4.872131635939052"><ele>981.0</ele><time>2026-04-30T09:00:24Z</time></trkpt><trkpt lat="31.65217982369773" lon="-4.871889897055802"><ele>980.6666666666667</ele><time>2026-04-30T09:00:25Z</time></trkpt><trkpt lat="31.652079866784003" lon="-4.871664729567179"><ele>980.3333333333334</ele><time>2026-04-30T09:00:26Z</time></trkpt><trkpt lat="31.65198547726014" lon="-4.871450501128324"><ele>980.0</ele><time>2026-04-30T09:00:27Z</time></trkpt><trkpt lat="31.651889143285207" lon="-4.871232150460461"><ele>980.0</ele><time>2026-04-30T09:00:28Z</time></trkpt><trkpt lat="31.65179345236053" lon="-4.87101646137699"><ele>980.0</ele><time>2026-04-30T09:00:29Z</time></trkpt><trkpt lat="31.651699526332276" lon="-4.870812205118441"><ele>980.0</ele><time>2026-04-30T09:00:30Z</time></trkpt><trkpt lat="31.65160314857322" lon="-4.870609102715765"><ele>980.6666666666667</ele><time>2026-04-30T09:00:31Z</time></trkpt><trkpt lat="31.65150624381375" lon="-4.870399438033774"><ele>981.3333333333333</ele><time>2026-04-30T09:00:32Z</time></trkpt><trkpt lat="31.65140736572769" lon="-4.870181210826343"><ele>982.0</ele><time>2026-04-30T09:00:33Z</time></trkpt><trkpt lat="31.651306959995804" lon="-4.869958244531979"><ele>982.0</ele><time>2026-04-30T09:00:34Z</time></trkpt><trkpt lat="31.651202206498827" lon="-4.869732118827405"><ele>982.0</ele><time>2026-04-30T09:00:35Z</time></trkpt><trkpt lat="31.651091002940174" lon="-4.869505236328614"><ele>982.0</ele><time>2026-04-30T09:00:36Z</time></trkpt><trkpt lat="31.650969731829946" lon="-4.869281441201746"><ele>981.0</ele><time>2026-04-30T09:00:37Z</time></trkpt><trkpt lat="31.650845945784287" lon="-4.869054931543204"><ele>980.0</ele><time>2026-04-30T09:00:38Z</time></trkpt><trkpt lat="31.6507245800001" lon="-4.868828610390222"><ele>980.0</ele><time>2026-04-30T09:00:39Z</time></trkpt><trkpt lat="31.65060239978779" lon="-4.8685989142067605"><ele>980.0</ele><time>2026-04-30T09:00:40Z</time></trkpt><trkpt lat="31.650480054418477" lon="-4.868369039745508"><ele>979.5</ele><time>2026-04-30T09:00:41Z</time></trkpt><trkpt lat="31.6503601970419" lon="-4.868138980473998"><ele>979.0</ele><time>2026-04-30T09:00:42Z</time></trkpt><trkpt lat="31.650240188046393" lon="-4.867902740226756"><ele>979.0</ele><time>2026-04-30T09:00:43Z</time></trkpt><trkpt lat="31.65011818164089" lon="-4.867671536238424"><ele>979.0</ele><time>2026-04-30T09:00:44Z</time></trkpt><trkpt lat="31.649993271911065" lon="-4.86743927109272"><ele>979.0</ele><time>2026-04-30T09:00:45Z</time></trkpt><trkpt lat="31.64987151260168" lon="-4.867208740705867"><ele>979.0</ele><time>2026-04-30T09:00:46Z</time></trkpt><trkpt lat="31.649749971616806" lon="-4.86697537936805"><ele>978.0</ele><time>2026-04-30T09:00:47Z</time></trkpt><trkpt lat="31.649628848587405" lon="-4.866750242127623"><ele>977.0</ele><time>2026-04-30T09:00:48Z</time></trkpt><trkpt lat="31.649514997609465" lon="-4.8665390238921065"><ele>976.0</ele><time>2026-04-30T09:00:49Z</time></trkpt><trkpt lat="31.649407560356078" lon="-4.866329567044611"><ele>976.0</ele><time>2026-04-30T09:00:50Z</time></trkpt><trkpt lat="31.64931099158045" lon="-4.866112594710789"><ele>976.0</ele><time>2026-04-30T09:00:51Z</time></trkpt><trkpt lat="31.649236204275454" lon="-4.865879581687701"><ele>976.0</ele><time>2026-04-30T09:00:52Z</time></trkpt><trkpt lat="31.649172294497557" lon="-4.865636746368957"><ele>976.0</ele><time>2026-04-30T09:00:53Z</time></trkpt><trkpt lat="31.649126293892046" lon="-4.865382448787007"><ele>976.0</ele><time>2026-04-30T09:00:54Z</time></trkpt><trkpt lat="31.64907906311756" lon="-4.8651228844310985"><ele>976.0</ele><time>2026-04-30T09:00:55Z</time></trkpt><trkpt lat="31.649029890970507" lon="-4.864858793671137"><ele>975.6666666666666</ele><time>2026-04-30T09:00:56Z</time></trkpt><trkpt lat="31.648980953800912" lon="-4.864601746577615"><ele>975.3333333333333</ele><time>2026-04-30T09:00:57Z</time></trkpt><trkpt lat="31.648935896101246" lon="-4.864350148179206"><ele>975.0</ele><time>2026-04-30T09:00:58Z</time></trkpt><trkpt lat="31.64889705467665" lon="-4.864109871950327"><ele>974.6666666666667</ele><time>2026-04-30T09:00:59Z</time></trkpt><trkpt lat="31.64885679952494" lon="-4.863876303586196"><ele>974.3333333333334</ele><time>2026-04-30T09:01:00Z</time></trkpt><trkpt lat="31.648815669489274" lon="-4.8636385841497605"><ele>974.0</ele><time>2026-04-30T09:01:01Z</time></trkpt><trkpt lat="31.64877948660437" lon="-4.863398707836181"><ele>974.0</ele><time>2026-04-30T09:01:02Z</time></trkpt><trkpt lat="31.648742892234335" lon="-4.863162117200722"><ele>974.0</ele><time>2026-04-30T09:01:03Z</time></trkpt><trkpt lat="31.648695982150116" lon="-4.862937533461946"><ele>974.0</ele><time>2026-04-30T09:01:04Z</time></trkpt><trkpt lat="31.64861943914465" lon="-4.862725369376225"><ele>974.3333333333334</ele><time>2026-04-30T09:01:05Z</time></trkpt><trkpt lat="31.648510313763758" lon="-4.862519303872235"><ele>974.6666666666667</ele><time>2026-04-30T09:01:06Z</time></trkpt><trkpt lat="31.64838698390931" lon="-4.8623125703659404"><ele>975.0</ele><time>2026-04-30T09:01:07Z</time></trkpt><trkpt lat="31.648262236506092" lon="-4.862108191506497"><ele>975.0</ele><time>2026-04-30T09:01:08Z</time></trkpt><trkpt lat="31.64813922821473" lon="-4.861898615270318"><ele>975.0</ele><time>2026-04-30T09:01:09Z</time></trkpt><trkpt lat="31.648024809996453" lon="-4.861683618627705"><ele>975.0</ele><time>2026-04-30T09:01:10Z</time></trkpt><trkpt lat="31.647925236652725" lon="-4.861452087211584"><ele>975.3333333333333</ele><time>2026-04-30T09:01:11Z</time></trkpt><trkpt lat="31.647851522195875" lon="-4.861207104237377"><ele>975.6666666666666</ele><time>2026-04-30T09:01:12Z</time></trkpt><trkpt lat="31.647794057788957" lon="-4.860953819817365"><ele>976.0</ele><time>2026-04-30T09:01:13Z</time></trkpt><trkpt lat="31.64773204887202" lon="-4.860699346408458"><ele>975.0</ele><time>2026-04-30T09:01:14Z</time></trkpt><trkpt lat="31.647665809383245" lon="-4.860449141934671"><ele>974.0</ele><time>2026-04-30T09:01:15Z</time></trkpt><trkpt lat="31.647594675938187" lon="-4.86020156422443"><ele>973.0</ele><time>2026-04-30T09:01:16Z</time></trkpt><trkpt lat="31.64752389566241" lon="-4.85995249169797"><ele>973.0</ele><time>2026-04-30T09:01:17Z</time></trkpt><trkpt lat="31.64745483249013" lon="-4.859702276572133"><ele>973.0</ele><time>2026-04-30T09:01:18Z</time></trkpt><trkpt lat="31.647383427593546" lon="-4.8594545585943"><ele>973.0</ele><time>2026-04-30T09:01:19Z</time></trkpt><trkpt lat="31.647312909987843" lon="-4.8592017938382"><ele>972.0</ele><time>2026-04-30T09:01:20Z</time></trkpt><trkpt lat="31.64724398209794" lon="-4.858952635419272"><ele>971.0</ele><time>2026-04-30T09:01:21Z</time></trkpt><trkpt lat="31.64717403103842" lon="-4.858708741722918"><ele>970.0</ele><time>2026-04-30T09:01:22Z</time></trkpt><trkpt lat="31.6471084174656" lon="-4.858473830281449"><ele>971.0</ele><time>2026-04-30T09:01:23Z</time></trkpt><trkpt lat="31.647044664124294" lon="-4.858245837007809"><ele>972.0</ele><time>2026-04-30T09:01:24Z</time></trkpt><trkpt lat="31.6469827198968" lon="-4.8580226414830205"><ele>973.0</ele><time>2026-04-30T09:01:25Z</time></trkpt><trkpt lat="31.646929761210757" lon="-4.857795097002508"><ele>971.6666666666666</ele><time>2026-04-30T09:01:26Z</time></trkpt><trkpt lat="31.646893246604556" lon="-4.857553904892875"><ele>970.3333333333333</ele><time>2026-04-30T09:01:27Z</time></trkpt><trkpt lat="31.646877718647158" lon="-4.857303272906932"><ele>969.0</ele><time>2026-04-30T09:01:28Z</time></trkpt><trkpt lat="31.646876160610397" lon="-4.857045171165681"><ele>969.0</ele><time>2026-04-30T09:01:29Z</time></trkpt><trkpt lat="31.646879153398118" lon="-4.856786473449352"><ele>969.0</ele><time>2026-04-30T09:01:30Z</time></trkpt><trkpt lat="31.64688144069141" lon="-4.856528045289836"><ele>969.0</ele><time>2026-04-30T09:01:31Z</time></trkpt><trkpt lat="31.646888106306637" lon="-4.8562804115648595"><ele>969.0</ele><time>2026-04-30T09:01:32Z</time></trkpt><trkpt lat="31.646897389432652" lon="-4.856041677721889"><ele>969.0</ele><time>2026-04-30T09:01:33Z</time></trkpt><trkpt lat="31.6468995746545" lon="-4.8558101040407475"><ele>969.0</ele><time>2026-04-30T09:01:34Z</time></trkpt><trkpt lat="31.64687127958719" lon="-4.8555782869262405"><ele>969.3333333333333</ele><time>2026-04-30T09:01:35Z</time></trkpt><trkpt lat="31.646818322266487" lon="-4.855334618764761"><ele>969.6666666666666</ele><time>2026-04-30T09:01:36Z</time></trkpt><trkpt lat="31.646759470692082" lon="-4.855088752624294"><ele>970.0</ele><time>2026-04-30T09:01:37Z</time></trkpt><trkpt lat="31.646696852154367" lon="-4.854853044441682"><ele>970.0</ele><time>2026-04-30T09:01:38Z</time></trkpt><trkpt lat="31.64663733026079" lon="-4.8546331300077155"><ele>970.0</ele><time>2026-04-30T09:01:39Z</time></trkpt><trkpt lat="31.646581508032686" lon="-4.854423720230493"><ele>970.0</ele><time>2026-04-30T09:01:40Z</time></trkpt><trkpt lat="31.64652633414803" lon="-4.854226985860455"><ele>970.3333333333333</ele><time>2026-04-30T09:01:41Z</time></trkpt><trkpt lat="31.646459917678854" lon="-4.854030791554205"><ele>970.6666666666667</ele><time>2026-04-30T09:01:42Z</time></trkpt><trkpt lat="31.64636871528695" lon="-4.853862057544228"><ele>971.0</ele><time>2026-04-30T09:01:43Z</time></trkpt><trkpt lat="31.646253471856035" lon="-4.853711832259635"><ele>970.3333333333334</ele><time>2026-04-30T09:01:44Z</time></trkpt><trkpt lat="31.646118031761315" lon="-4.853564997813674"><ele>969.6666666666667</ele><time>2026-04-30T09:01:45Z</time></trkpt><trkpt lat="31.64596624531491" lon="-4.8534188351303875"><ele>969.0</ele><time>2026-04-30T09:01:46Z</time></trkpt><trkpt lat="31.645809301291774" lon="-4.853265032734056"><ele>969.0</ele><time>2026-04-30T09:01:47Z</time></trkpt><trkpt lat="31.645644790935883" lon="-4.853103960446475"><ele>969.0</ele><time>2026-04-30T09:01:48Z</time></trkpt><trkpt lat="31.645472248624475" lon="-4.852941183946041"><ele>969.0</ele><time>2026-04-30T09:01:49Z</time></trkpt><trkpt lat="31.64529873735642" lon="-4.852781242678776"><ele>970.0</ele><time>2026-04-30T09:01:50Z</time></trkpt><trkpt lat="31.64512718687467" lon="-4.852611345730468"><ele>971.0</ele><time>2026-04-30T09:01:51Z</time></trkpt><trkpt lat="31.644955251750208" lon="-4.852439127705217"><ele>971.0</ele><time>2026-04-30T09:01:52Z</time></trkpt><trkpt lat="31.64478572747908" lon="-4.852269129274703"><ele>971.0</ele><time>2026-04-30T09:01:53Z</time></trkpt><trkpt lat="31.644617005796608" lon="-4.852099660424401"><ele>971.0</ele><time>2026-04-30T09:01:54Z</time></trkpt><trkpt lat="31.64445781559982" lon="-4.851942503109684"><ele>970.0</ele><time>2026-04-30T09:01:55Z</time></trkpt><trkpt lat="31.64429973689697" lon="-4.851789196508669"><ele>969.0</ele><time>2026-04-30T09:01:56Z</time></trkpt><trkpt lat="31.644142164152736" lon="-4.851636139209193"><ele>968.0</ele><time>2026-04-30T09:01:57Z</time></trkpt><trkpt lat="31.643984728308155" lon="-4.8514841198988465"><ele>968.0</ele><time>2026-04-30T09:01:58Z</time></trkpt><trkpt lat="31.643827687086116" lon="-4.851333185730606"><ele>968.0</ele><time>2026-04-30T09:01:59Z</time></trkpt><trkpt lat="31.643676930496174" lon="-4.851186908952537"><ele>968.0</ele><time>2026-04-30T09:02:00Z</time></trkpt><trkpt lat="31.643534589083583" lon="-4.85104624278398"><ele>969.3333333333334</ele><time>2026-04-30T09:02:01Z</time></trkpt><trkpt lat="31.6433920472534" lon="-4.850905753544207"><ele>970.6666666666667</ele><time>2026-04-30T09:02:02Z</time></trkpt><trkpt lat="31.643255037903305" lon="-4.850760756710284"><ele>972.0</ele><time>2026-04-30T09:02:03Z</time></trkpt><trkpt lat="31.643137328460448" lon="-4.850610795088946"><ele>972.0</ele><time>2026-04-30T09:02:04Z</time></trkpt><trkpt lat="31.643040780487592" lon="-4.850446600796309"><ele>972.0</ele><time>2026-04-30T09:02:05Z</time></trkpt><trkpt lat="31.642968006855117" lon="-4.85026355048653"><ele>972.0</ele><time>2026-04-30T09:02:06Z</time></trkpt><trkpt lat="31.642923698280708" lon="-4.850066118535334"><ele>970.3333333333333</ele><time>2026-04-30T09:02:07Z</time></trkpt><trkpt lat="31.642888578188618" lon="-4.849851906379143"><ele>968.6666666666666</ele><time>2026-04-30T09:02:08Z</time></trkpt><trkpt lat="31.642857790249373" lon="-4.849624918574958"><ele>967.0</ele><time>2026-04-30T09:02:09Z</time></trkpt><trkpt lat="31.642824452535198" lon="-4.849385064781085"><ele>966.6666666666666</ele><time>2026-04-30T09:02:10Z</time></trkpt><trkpt lat="31.642790242395503" lon="-4.849143897217079"><ele>966.3333333333333</ele><time>2026-04-30T09:02:11Z</time></trkpt><trkpt lat="31.642755722961084" lon="-4.8488988943182205"><ele>966.0</ele><time>2026-04-30T09:02:12Z</time></trkpt><trkpt lat="31.64272758538578" lon="-4.8486648283075064"><ele>964.3333333333333</ele><time>2026-04-30T09:02:13Z</time></trkpt><trkpt lat="31.64270157295808" lon="-4.848430074769795"><ele>962.6666666666666</ele><time>2026-04-30T09:02:14Z</time></trkpt><trkpt lat="31.64267514587419" lon="-4.848193501624148"><ele>961.0</ele><time>2026-04-30T09:02:15Z</time></trkpt><trkpt lat="31.642648580183934" lon="-4.847954291601715"><ele>961.0</ele><time>2026-04-30T09:02:16Z</time></trkpt><trkpt lat="31.64262326987051" lon="-4.847722352765005"><ele>961.0</ele><time>2026-04-30T09:02:17Z</time></trkpt><trkpt lat="31.642594343944612" lon="-4.847492027323074"><ele>961.0</ele><time>2026-04-30T09:02:18Z</time></trkpt><trkpt lat="31.64256702986712" lon="-4.847261822140826"><ele>961.0</ele><time>2026-04-30T09:02:19Z</time></trkpt><trkpt lat="31.642539966810144" lon="-4.847041836932146"><ele>961.0</ele><time>2026-04-30T09:02:20Z</time></trkpt><trkpt lat="31.642487110418003" lon="-4.846819996394061"><ele>961.0</ele><time>2026-04-30T09:02:21Z</time></trkpt><trkpt lat="31.642411763964123" lon="-4.846596040657331"><ele>962.6666666666666</ele><time>2026-04-30T09:02:22Z</time></trkpt><trkpt lat="31.642322469657095" lon="-4.846370885771331"><ele>964.3333333333333</ele><time>2026-04-30T09:02:23Z</time></trkpt><trkpt lat="31.64222003986808" lon="-4.846144228695429"><ele>966.0</ele><time>2026-04-30T09:02:24Z</time></trkpt><trkpt lat="31.64212167430572" lon="-4.845911426856665"><ele>966.0</ele><time>2026-04-30T09:02:25Z</time></trkpt><trkpt lat="31.642026291117347" lon="-4.845665207604932"><ele>966.0</ele><time>2026-04-30T09:02:26Z</time></trkpt><trkpt lat="31.641934773228158" lon="-4.8454174424826775"><ele>966.0</ele><time>2026-04-30T09:02:27Z</time></trkpt><trkpt lat="31.641847682756534" lon="-4.845165411571702"><ele>966.0</ele><time>2026-04-30T09:02:28Z</time></trkpt><trkpt lat="31.6417642550964" lon="-4.8449102884029065"><ele>966.0</ele><time>2026-04-30T09:02:29Z</time></trkpt><trkpt lat="31.641684063964814" lon="-4.844652958364526"><ele>966.0</ele><time>2026-04-30T09:02:30Z</time></trkpt><trkpt lat="31.6416061971423" lon="-4.844391916288864"><ele>966.5</ele><time>2026-04-30T09:02:31Z</time></trkpt><trkpt lat="31.64153038041498" lon="-4.844128396253153"><ele>967.0</ele><time>2026-04-30T09:02:32Z</time></trkpt><trkpt lat="31.64145427308251" lon="-4.843865093587608"><ele>967.0</ele><time>2026-04-30T09:02:33Z</time></trkpt><trkpt lat="31.641373472720602" lon="-4.8435982488764"><ele>967.0</ele><time>2026-04-30T09:02:34Z</time></trkpt><trkpt lat="31.641294140294292" lon="-4.8433312593003714"><ele>965.0</ele><time>2026-04-30T09:02:35Z</time></trkpt><trkpt lat="31.641215683991934" lon="-4.843063143027281"><ele>963.0</ele><time>2026-04-30T09:02:36Z</time></trkpt><trkpt lat="31.64113676415948" lon="-4.8427957642957375"><ele>963.5</ele><time>2026-04-30T09:02:37Z</time></trkpt><trkpt lat="31.64105510935395" lon="-4.842528450034283"><ele>964.0</ele><time>2026-04-30T09:02:38Z</time></trkpt><trkpt lat="31.640974711920393" lon="-4.842262317371515"><ele>964.0</ele><time>2026-04-30T09:02:39Z</time></trkpt><trkpt lat="31.640895698934052" lon="-4.841994216276873"><ele>964.0</ele><time>2026-04-30T09:02:40Z</time></trkpt><trkpt lat="31.640815995644044" lon="-4.841724312333854"><ele>963.0</ele><time>2026-04-30T09:02:41Z</time></trkpt><trkpt lat="31.640736636900975" lon="-4.841459099783517"><ele>962.0</ele><time>2026-04-30T09:02:42Z</time></trkpt><trkpt lat="31.640662710951048" lon="-4.841200295010754"><ele>964.0</ele><time>2026-04-30T09:02:43Z</time></trkpt><trkpt lat="31.640587530561415" lon="-4.840938422118721"><ele>966.0</ele><time>2026-04-30T09:02:44Z</time></trkpt><trkpt lat="31.64051056484053" lon="-4.840678466901255"><ele>966.0</ele><time>2026-04-30T09:02:45Z</time></trkpt><trkpt lat="31.640432534556496" lon="-4.8404166227082195"><ele>966.0</ele><time>2026-04-30T09:02:46Z</time></trkpt><trkpt lat="31.640353469431787" lon="-4.84015365746793"><ele>966.0</ele><time>2026-04-30T09:02:47Z</time></trkpt><trkpt lat="31.640274775836247" lon="-4.839890332893811"><ele>966.0</ele><time>2026-04-30T09:02:48Z</time></trkpt><trkpt lat="31.64019742838674" lon="-4.839623842463194"><ele>966.0</ele><time>2026-04-30T09:02:49Z</time></trkpt><trkpt lat="31.64011838694471" lon="-4.839358046418059"><ele>966.0</ele><time>2026-04-30T09:02:50Z</time></trkpt><trkpt lat="31.640038970885964" lon="-4.839092288544362"><ele>965.0</ele><time>2026-04-30T09:02:51Z</time></trkpt><trkpt lat="31.639958878311806" lon="-4.838824189203683"><ele>964.0</ele><time>2026-04-30T09:02:52Z</time></trkpt><trkpt lat="31.639881050262208" lon="-4.838555386581442"><ele>963.5</ele><time>2026-04-30T09:02:53Z</time></trkpt><trkpt lat="31.63980025737901" lon="-4.838288764436035"><ele>963.0</ele><time>2026-04-30T09:02:54Z</time></trkpt><trkpt lat="31.639718708679798" lon="-4.83801883504682"><ele>963.0</ele><time>2026-04-30T09:02:55Z</time></trkpt><trkpt lat="31.639635804052727" lon="-4.837748273961898"><ele>963.0</ele><time>2026-04-30T09:02:56Z</time></trkpt><trkpt lat="31.63955525899901" lon="-4.837476151221864"><ele>962.5</ele><time>2026-04-30T09:02:57Z</time></trkpt><trkpt lat="31.63947451839025" lon="-4.837202541561717"><ele>962.0</ele><time>2026-04-30T09:02:58Z</time></trkpt><trkpt lat="31.639397879916412" lon="-4.836930891706836"><ele>962.0</ele><time>2026-04-30T09:02:59Z</time></trkpt><trkpt lat="31.63932562359078" lon="-4.83665661465642"><ele>962.0</ele><time>2026-04-30T09:03:00Z</time></trkpt><trkpt lat="31.63925934961281" lon="-4.836378074192237"><ele>962.0</ele><time>2026-04-30T09:03:01Z</time></trkpt><trkpt lat="31.63920105094325" lon="-4.836095613478118"><ele>962.0</ele><time>2026-04-30T09:03:02Z</time></trkpt><trkpt lat="31.639146488911372" lon="-4.835810316105659"><ele>961.5</ele><time>2026-04-30T09:03:03Z</time></trkpt><trkpt lat="31.6390939549806" lon="-4.8355276572612365"><ele>961.0</ele><time>2026-04-30T09:03:04Z</time></trkpt><trkpt lat="31.639038199715372" lon="-4.83524554937622"><ele>960.5</ele><time>2026-04-30T09:03:05Z</time></trkpt><trkpt lat="31.63898279229743" lon="-4.8349640704721395"><ele>960.0</ele><time>2026-04-30T09:03:06Z</time></trkpt><trkpt lat="31.638928552503824" lon="-4.834681500648999"><ele>960.0</ele><time>2026-04-30T09:03:07Z</time></trkpt><trkpt lat="31.638873185994463" lon="-4.834397095412733"><ele>960.0</ele><time>2026-04-30T09:03:08Z</time></trkpt><trkpt lat="31.6388181095901" lon="-4.834114490260352"><ele>961.0</ele><time>2026-04-30T09:03:09Z</time></trkpt><trkpt lat="31.638761242085238" lon="-4.833829890515257"><ele>962.0</ele><time>2026-04-30T09:03:10Z</time></trkpt><trkpt lat="31.6387052898461" lon="-4.833541577344167"><ele>961.5</ele><time>2026-04-30T09:03:11Z</time></trkpt><trkpt lat="31.638650286418354" lon="-4.833255045054526"><ele>961.0</ele><time>2026-04-30T09:03:12Z</time></trkpt><trkpt lat="31.638595031451672" lon="-4.832970301356457"><ele>961.5</ele><time>2026-04-30T09:03:13Z</time></trkpt><trkpt lat="31.638536297962986" lon="-4.832686421384751"><ele>962.0</ele><time>2026-04-30T09:03:14Z</time></trkpt><trkpt lat="31.63847573992962" lon="-4.832403692416582"><ele>962.0</ele><time>2026-04-30T09:03:15Z</time></trkpt><trkpt lat="31.63841056889734" lon="-4.832119833960947"><ele>962.0</ele><time>2026-04-30T09:03:16Z</time></trkpt><trkpt lat="31.63833877535032" lon="-4.831841208162884"><ele>960.5</ele><time>2026-04-30T09:03:17Z</time></trkpt><trkpt lat="31.63825945611583" lon="-4.831569820076966"><ele>959.0</ele><time>2026-04-30T09:03:18Z</time></trkpt><trkpt lat="31.638178473077872" lon="-4.831301287082549"><ele>959.0</ele><time>2026-04-30T09:03:19Z</time></trkpt><trkpt lat="31.638103619993192" lon="-4.831027874205788"><ele>959.0</ele><time>2026-04-30T09:03:20Z</time></trkpt><trkpt lat="31.63804143999157" lon="-4.8307452888852715"><ele>958.0</ele><time>2026-04-30T09:03:21Z</time></trkpt><trkpt lat="31.637993692567157" lon="-4.830463091711089"><ele>957.0</ele><time>2026-04-30T09:03:22Z</time></trkpt><trkpt lat="31.637966767725867" lon="-4.830172707591844"><ele>958.0</ele><time>2026-04-30T09:03:23Z</time></trkpt><trkpt lat="31.637947248187704" lon="-4.829883222113661"><ele>959.0</ele><time>2026-04-30T09:03:24Z</time></trkpt><trkpt lat="31.637927997613133" lon="-4.829592418566747"><ele>959.0</ele><time>2026-04-30T09:03:25Z</time></trkpt><trkpt lat="31.637906903915923" lon="-4.8292975081014"><ele>959.0</ele><time>2026-04-30T09:03:26Z</time></trkpt><trkpt lat="31.63788350308984" lon="-4.829001317979447"><ele>959.0</ele><time>2026-04-30T09:03:27Z</time></trkpt><trkpt lat="31.63786141401099" lon="-4.828712897182131"><ele>959.0</ele><time>2026-04-30T09:03:28Z</time></trkpt><trkpt lat="31.63783860995685" lon="-4.828432540143105"><ele>958.5</ele><time>2026-04-30T09:03:29Z</time></trkpt><trkpt lat="31.637817290357738" lon="-4.828158495435784"><ele>958.0</ele><time>2026-04-30T09:03:30Z</time></trkpt><trkpt lat="31.63779885901466" lon="-4.827890849642056"><ele>955.5</ele><time>2026-04-30T09:03:31Z</time></trkpt><trkpt lat="31.637777351504113" lon="-4.827624755749937"><ele>953.0</ele><time>2026-04-30T09:03:32Z</time></trkpt><trkpt lat="31.637745987494775" lon="-4.827361569299369"><ele>953.0</ele><time>2026-04-30T09:03:33Z</time></trkpt><trkpt lat="31.637692321095034" lon="-4.827104212862521"><ele>953.0</ele><time>2026-04-30T09:03:34Z</time></trkpt><trkpt lat="31.637618191747308" lon="-4.826847400958777"><ele>953.3333333333334</ele><time>2026-04-30T09:03:35Z</time></trkpt><trkpt lat="31.637536694291914" lon="-4.8265977876831245"><ele>953.6666666666667</ele><time>2026-04-30T09:03:36Z</time></trkpt><trkpt lat="31.63746091908066" lon="-4.826366427034864"><ele>954.0</ele><time>2026-04-30T09:03:37Z</time></trkpt><trkpt lat="31.63739009874552" lon="-4.826143259026053"><ele>953.6666666666667</ele><time>2026-04-30T09:03:38Z</time></trkpt><trkpt lat="31.637327977234623" lon="-4.825928649126661"><ele>953.3333333333334</ele><time>2026-04-30T09:03:39Z</time></trkpt><trkpt lat="31.637264519382803" lon="-4.825717483132822"><ele>953.0</ele><time>2026-04-30T09:03:40Z</time></trkpt><trkpt lat="31.63719497487938" lon="-4.825505269317476"><ele>953.0</ele><time>2026-04-30T09:03:41Z</time></trkpt><trkpt lat="31.63711216556111" lon="-4.825306817365196"><ele>953.0</ele><time>2026-04-30T09:03:42Z</time></trkpt><trkpt lat="31.63700564618417" lon="-4.825116033651238"><ele>953.0</ele><time>2026-04-30T09:03:43Z</time></trkpt><trkpt lat="31.636874650413723" lon="-4.824936338099914"><ele>952.3333333333334</ele><time>2026-04-30T09:03:44Z</time></trkpt><trkpt lat="31.636727412571574" lon="-4.824768325050137"><ele>951.6666666666667</ele><time>2026-04-30T09:03:45Z</time></trkpt><trkpt lat="31.63657493901154" lon="-4.82459948678072"><ele>951.0</ele><time>2026-04-30T09:03:46Z</time></trkpt><trkpt lat="31.636420925941337" lon="-4.824424259437638"><ele>951.3333333333333</ele><time>2026-04-30T09:03:47Z</time></trkpt><trkpt lat="31.636276546227634" lon="-4.824261626403805"><ele>951.6666666666666</ele><time>2026-04-30T09:03:48Z</time></trkpt><trkpt lat="31.63614233845476" lon="-4.8241126302957"><ele>952.0</ele><time>2026-04-30T09:03:49Z</time></trkpt><trkpt lat="31.63602317731673" lon="-4.823978181210787"><ele>951.3333333333333</ele><time>2026-04-30T09:03:50Z</time></trkpt><trkpt lat="31.635919303679717" lon="-4.823840986240541"><ele>950.6666666666667</ele><time>2026-04-30T09:03:51Z</time></trkpt><trkpt lat="31.635827723524606" lon="-4.8236805821097635"><ele>950.0</ele><time>2026-04-30T09:03:52Z</time></trkpt><trkpt lat="31.635752311463197" lon="-4.823493354390813"><ele>950.3333333333334</ele><time>2026-04-30T09:03:53Z</time></trkpt><trkpt lat="31.63569223940058" lon="-4.823276114598472"><ele>950.6666666666667</ele><time>2026-04-30T09:03:54Z</time></trkpt><trkpt lat="31.63563085981945" lon="-4.823053255480142"><ele>951.0</ele><time>2026-04-30T09:03:55Z</time></trkpt><trkpt lat="31.635576155376953" lon="-4.822828728626521"><ele>951.3333333333333</ele><time>2026-04-30T09:03:56Z</time></trkpt><trkpt lat="31.63551905956613" lon="-4.822589148309018"><ele>951.6666666666666</ele><time>2026-04-30T09:03:57Z</time></trkpt><trkpt lat="31.635456562101528" lon="-4.822347470355181"><ele>952.0</ele><time>2026-04-30T09:03:58Z</time></trkpt><trkpt lat="31.635393728534968" lon="-4.822108774831568"><ele>952.0</ele><time>2026-04-30T09:03:59Z</time></trkpt><trkpt lat="31.63533206128313" lon="-4.821876431733219"><ele>952.0</ele><time>2026-04-30T09:04:00Z</time></trkpt><trkpt lat="31.635271160185717" lon="-4.821640997528741"><ele>952.0</ele><time>2026-04-30T09:04:01Z</time></trkpt><trkpt lat="31.635212054311484" lon="-4.821405064680446"><ele>951.6666666666666</ele><time>2026-04-30T09:04:02Z</time></trkpt><trkpt lat="31.635151213076625" lon="-4.821175610536154"><ele>951.3333333333333</ele><time>2026-04-30T09:04:03Z</time></trkpt><trkpt lat="31.6350936165557" lon="-4.820955557181927"><ele>951.0</ele><time>2026-04-30T09:04:04Z</time></trkpt><trkpt lat="31.635036703239603" lon="-4.8207316803598745"><ele>951.0</ele><time>2026-04-30T09:04:05Z</time></trkpt><trkpt lat="31.634977451557237" lon="-4.820507406073694"><ele>951.0</ele><time>2026-04-30T09:04:06Z</time></trkpt><trkpt lat="31.634919503563815" lon="-4.820290956930081"><ele>951.0</ele><time>2026-04-30T09:04:07Z</time></trkpt><trkpt lat="31.634862343384647" lon="-4.820085345231937"><ele>950.3333333333333</ele><time>2026-04-30T09:04:08Z</time></trkpt><trkpt lat="31.63479909744601" lon="-4.819879160310334"><ele>949.6666666666666</ele><time>2026-04-30T09:04:09Z</time></trkpt><trkpt lat="31.634719808985242" lon="-4.819678989236808"><ele>949.0</ele><time>2026-04-30T09:04:10Z</time></trkpt><trkpt lat="31.63461928603305" lon="-4.819485620034144"><ele>949.0</ele><time>2026-04-30T09:04:11Z</time></trkpt><trkpt lat="31.63451010533477" lon="-4.819290434465346"><ele>949.0</ele><time>2026-04-30T09:04:12Z</time></trkpt><trkpt lat="31.634391157696044" lon="-4.819085426491254"><ele>949.0</ele><time>2026-04-30T09:04:13Z</time></trkpt><trkpt lat="31.634272068880115" lon="-4.818871893696235"><ele>948.6666666666666</ele><time>2026-04-30T09:04:14Z</time></trkpt><trkpt lat="31.634160579276514" lon="-4.818665203215238"><ele>948.3333333333333</ele><time>2026-04-30T09:04:15Z</time></trkpt><trkpt lat="31.63404909400302" lon="-4.818468161729719"><ele>948.0</ele><time>2026-04-30T09:04:16Z</time></trkpt><trkpt lat="31.633938354746654" lon="-4.818281573896047"><ele>948.0</ele><time>2026-04-30T09:04:17Z</time></trkpt><trkpt lat="31.6338301816942" lon="-4.818103959021158"><ele>948.0</ele><time>2026-04-30T09:04:18Z</time></trkpt><trkpt lat="31.63373691604184" lon="-4.817942671679353"><ele>948.0</ele><time>2026-04-30T09:04:19Z</time></trkpt><trkpt lat="31.633670431453318" lon="-4.817815316063587"><ele>948.0</ele><time>2026-04-30T09:04:20Z</time></trkpt><trkpt lat="31.633630802213414" lon="-4.817695498678065"><ele>948.0</ele><time>2026-04-30T09:04:21Z</time></trkpt><trkpt lat="31.633624846197687" lon="-4.817564298376939"><ele>948.0</ele><time>2026-04-30T09:04:22Z</time></trkpt><trkpt lat="31.633644296630056" lon="-4.817427326986461"><ele>948.0</ele><time>2026-04-30T09:04:23Z</time></trkpt><trkpt lat="31.633696253129425" lon="-4.817283219421296"><ele>948.0</ele><time>2026-04-30T09:04:24Z</time></trkpt><trkpt lat="31.63375867922306" lon="-4.817135790226087"><ele>948.0</ele><time>2026-04-30T09:04:25Z</time></trkpt><trkpt lat="31.633825329720892" lon="-4.816996395679086"><ele>948.0</ele><time>2026-04-30T09:04:26Z</time></trkpt><trkpt lat="31.633894363691965" lon="-4.816851487669387"><ele>948.0</ele><time>2026-04-30T09:04:27Z</time></trkpt><trkpt lat="31.633963493647272" lon="-4.816690951902366"><ele>948.3333333333333</ele><time>2026-04-30T09:04:28Z</time></trkpt><trkpt lat="31.634034875981694" lon="-4.816526379593623"><ele>948.6666666666666</ele><time>2026-04-30T09:04:29Z</time></trkpt><trkpt lat="31.63410543536122" lon="-4.816359294458133"><ele>949.0</ele><time>2026-04-30T09:04:30Z</time></trkpt><trkpt lat="31.6341759989249" lon="-4.816191835796124"><ele>949.0</ele><time>2026-04-30T09:04:31Z</time></trkpt><trkpt lat="31.634247326019626" lon="-4.8160251394422335"><ele>949.0</ele><time>2026-04-30T09:04:32Z</time></trkpt><trkpt lat="31.634318970071128" lon="-4.815855532754716"><ele>949.0</ele><time>2026-04-30T09:04:33Z</time></trkpt><trkpt lat="31.634390219468848" lon="-4.815689385967423"><ele>949.6666666666666</ele><time>2026-04-30T09:04:34Z</time></trkpt><trkpt lat="31.634462974474026" lon="-4.815527312328909"><ele>950.3333333333333</ele><time>2026-04-30T09:04:35Z</time></trkpt><trkpt lat="31.634536468716654" lon="-4.815362024710405"><ele>951.0</ele><time>2026-04-30T09:04:36Z</time></trkpt><trkpt lat="31.63460923543973" lon="-4.81519699863704"><ele>951.3333333333333</ele><time>2026-04-30T09:04:37Z</time></trkpt><trkpt lat="31.63468003160127" lon="-4.81503070066726"><ele>951.6666666666666</ele><time>2026-04-30T09:04:38Z</time></trkpt><trkpt lat="31.634752193951098" lon="-4.814866131206713"><ele>952.0</ele><time>2026-04-30T09:04:39Z</time></trkpt><trkpt lat="31.634826886529446" lon="-4.814704810468728"><ele>952.0</ele><time>2026-04-30T09:04:40Z</time></trkpt><trkpt lat="31.634894549427056" lon="-4.814549493375907"><ele>952.0</ele><time>2026-04-30T09:04:41Z</time></trkpt><trkpt lat="31.634957907587797" lon="-4.814398332590027"><ele>952.0</ele><time>2026-04-30T09:04:42Z</time></trkpt><trkpt lat="31.6350226331008" lon="-4.814246489987432"><ele>952.0</ele><time>2026-04-30T09:04:43Z</time></trkpt><trkpt lat="31.635084574597755" lon="-4.8140937466827225"><ele>951.75</ele><time>2026-04-30T09:04:44Z</time></trkpt><trkpt lat="31.63514841773547" lon="-4.8139497662362585"><ele>951.5</ele><time>2026-04-30T09:04:45Z</time></trkpt><trkpt lat="31.635211876706876" lon="-4.81380277959744"><ele>951.25</ele><time>2026-04-30T09:04:46Z</time></trkpt><trkpt lat="31.63527380053727" lon="-4.813657953620911"><ele>951.0</ele><time>2026-04-30T09:04:47Z</time></trkpt><trkpt lat="31.63533052234759" lon="-4.813521860515547"><ele>951.0</ele><time>2026-04-30T09:04:48Z</time></trkpt><trkpt lat="31.63538098372102" lon="-4.813392754915907"><ele>950.9999999999999</ele><time>2026-04-30T09:04:49Z</time></trkpt><trkpt lat="31.635421376455728" lon="-4.813286361527972"><ele>950.9999999999999</ele><time>2026-04-30T09:04:50Z</time></trkpt><trkpt lat="31.635446859755106" lon="-4.813212525196826"><ele>951.0</ele><time>2026-04-30T09:04:51Z</time></trkpt><trkpt lat="31.635466488967257" lon="-4.813103979732561"><ele>951.0</ele><time>2026-04-30T09:04:53Z</time></trkpt><trkpt lat="31.635485196631745" lon="-4.813027523610013"><ele>951.0</ele><time>2026-04-30T09:04:56Z</time></trkpt><trkpt lat="31.635546054210984" lon="-4.812953964623708"><ele>951.0</ele><time>2026-04-30T09:05:40Z</time></trkpt><trkpt lat="31.63560052175923" lon="-4.812879623585879"><ele>951.0</ele><time>2026-04-30T09:05:42Z</time></trkpt><trkpt lat="31.635637508919316" lon="-4.812815953946595"><ele>951.0</ele><time>2026-04-30T09:05:43Z</time></trkpt><trkpt lat="31.6356687046121" lon="-4.812735043045387"><ele>951.0</ele><time>2026-04-30T09:05:44Z</time></trkpt><trkpt lat="31.635712634150494" lon="-4.812630006629101"><ele>951.0</ele><time>2026-04-30T09:05:45Z</time></trkpt><trkpt lat="31.635760346594687" lon="-4.812516803947772"><ele>950.0</ele><time>2026-04-30T09:05:46Z</time></trkpt><trkpt lat="31.635814725461213" lon="-4.812380252342933"><ele>949.0</ele><time>2026-04-30T09:05:47Z</time></trkpt><trkpt lat="31.635874158196017" lon="-4.812241916736746"><ele>948.0</ele><time>2026-04-30T09:05:48Z</time></trkpt><trkpt lat="31.63595042363387" lon="-4.812098999820584"><ele>947.0</ele><time>2026-04-30T09:05:49Z</time></trkpt><trkpt lat="31.636005458474678" lon="-4.8119381329080735"><ele>947.25</ele><time>2026-04-30T09:05:50Z</time></trkpt><trkpt lat="31.636072594589947" lon="-4.811784071319318"><ele>947.5</ele><time>2026-04-30T09:05:51Z</time></trkpt><trkpt lat="31.63614485039503" lon="-4.811635614563088"><ele>947.75</ele><time>2026-04-30T09:05:52Z</time></trkpt><trkpt lat="31.636211367792463" lon="-4.811495758322961"><ele>948.0</ele><time>2026-04-30T09:05:53Z</time></trkpt><trkpt lat="31.63627484127159" lon="-4.811357580080781"><ele>948.0</ele><time>2026-04-30T09:05:54Z</time></trkpt><trkpt lat="31.636338274403077" lon="-4.811227980288187"><ele>948.0</ele><time>2026-04-30T09:05:55Z</time></trkpt><trkpt lat="31.636399931687595" lon="-4.811101265973269"><ele>948.0</ele><time>2026-04-30T09:05:56Z</time></trkpt><trkpt lat="31.636459000661336" lon="-4.810976115989814"><ele>948.0</ele><time>2026-04-30T09:05:57Z</time></trkpt><trkpt lat="31.63651683448942" lon="-4.810853888297808"><ele>947.75</ele><time>2026-04-30T09:05:58Z</time></trkpt><trkpt lat="31.636578557027047" lon="-4.8107265623172735"><ele>947.5</ele><time>2026-04-30T09:05:59Z</time></trkpt><trkpt lat="31.6366486422366" lon="-4.810603017509002"><ele>947.25</ele><time>2026-04-30T09:06:00Z</time></trkpt><trkpt lat="31.636712475580943" lon="-4.81047456530524"><ele>947.0</ele><time>2026-04-30T09:06:01Z</time></trkpt><trkpt lat="31.636773779755426" lon="-4.810341198082126"><ele>947.0</ele><time>2026-04-30T09:06:02Z</time></trkpt><trkpt lat="31.63683907084597" lon="-4.810210532872306"><ele>947.0</ele><time>2026-04-30T09:06:03Z</time></trkpt><trkpt lat="31.636904067128825" lon="-4.810086836586267"><ele>947.0</ele><time>2026-04-30T09:06:04Z</time></trkpt><trkpt lat="31.63696454493557" lon="-4.80996972643323"><ele>947.0</ele><time>2026-04-30T09:06:05Z</time></trkpt><trkpt lat="31.63702049435915" lon="-4.80985644855823"><ele>947.2</ele><time>2026-04-30T09:06:06Z</time></trkpt><trkpt lat="31.63707331656087" lon="-4.809746786712538"><ele>947.4000000000001</ele><time>2026-04-30T09:06:07Z</time></trkpt><trkpt lat="31.63712678382891" lon="-4.809646708471065"><ele>947.5999999999999</ele><time>2026-04-30T09:06:08Z</time></trkpt><trkpt lat="31.637178150991836" lon="-4.809547841900768"><ele>947.8</ele><time>2026-04-30T09:06:09Z</time></trkpt><trkpt lat="31.63723183203782" lon="-4.8094405427168985"><ele>948.0</ele><time>2026-04-30T09:06:10Z</time></trkpt><trkpt lat="31.637290179235695" lon="-4.809330716369477"><ele>947.75</ele><time>2026-04-30T09:06:11Z</time></trkpt><trkpt lat="31.63734814926178" lon="-4.8092129119106115"><ele>947.5</ele><time>2026-04-30T09:06:12Z</time></trkpt><trkpt lat="31.637408848583284" lon="-4.809094774950736"><ele>947.25</ele><time>2026-04-30T09:06:13Z</time></trkpt><trkpt lat="31.637472606136633" lon="-4.80897457592918"><ele>947.0</ele><time>2026-04-30T09:06:14Z</time></trkpt><trkpt lat="31.637537738031174" lon="-4.808847331022068"><ele>947.0</ele><time>2026-04-30T09:06:15Z</time></trkpt><trkpt lat="31.637608257849088" lon="-4.808714188956631"><ele>947.0</ele><time>2026-04-30T09:06:16Z</time></trkpt><trkpt lat="31.637680377814913" lon="-4.808575219586781"><ele>947.0</ele><time>2026-04-30T09:06:17Z</time></trkpt><trkpt lat="31.637755198495523" lon="-4.8084339131388445"><ele>947.0</ele><time>2026-04-30T09:06:18Z</time></trkpt><trkpt lat="31.637833632004693" lon="-4.808294500415118"><ele>947.0</ele><time>2026-04-30T09:06:19Z</time></trkpt><trkpt lat="31.63791361005939" lon="-4.808166647650485"><ele>947.0</ele><time>2026-04-30T09:06:20Z</time></trkpt><trkpt lat="31.637995602107146" lon="-4.808051408586109"><ele>947.0</ele><time>2026-04-30T09:06:21Z</time></trkpt><trkpt lat="31.638079351290123" lon="-4.807934681534839"><ele>947.0</ele><time>2026-04-30T09:06:22Z</time></trkpt><trkpt lat="31.638163910924128" lon="-4.807826841147421"><ele>947.0000000000001</ele><time>2026-04-30T09:06:23Z</time></trkpt><trkpt lat="31.638235541384383" lon="-4.807726310623215"><ele>947.0</ele><time>2026-04-30T09:06:24Z</time></trkpt><trkpt lat="31.638293402895908" lon="-4.807647413090882"><ele>947.0</ele><time>2026-04-30T09:06:25Z</time></trkpt><trkpt lat="31.638326674817606" lon="-4.807573509784918"><ele>947.0</ele><time>2026-04-30T09:06:26Z</time></trkpt><trkpt lat="31.638380230675985" lon="-4.8075106316520895"><ele>947.0000000000001</ele><time>2026-04-30T09:06:27Z</time></trkpt><trkpt lat="31.63841018145165" lon="-4.807423237001134"><ele>947.0</ele><time>2026-04-30T09:06:28Z</time></trkpt><trkpt lat="31.638442148680824" lon="-4.807317515725118"><ele>947.2</ele><time>2026-04-30T09:06:29Z</time></trkpt><trkpt lat="31.638474114701953" lon="-4.80720416480804"><ele>947.4000000000001</ele><time>2026-04-30T09:06:30Z</time></trkpt><trkpt lat="31.6385055089633" lon="-4.807071375821144"><ele>947.5999999999999</ele><time>2026-04-30T09:06:31Z</time></trkpt><trkpt lat="31.638513690693678" lon="-4.806939340329097"><ele>947.8</ele><time>2026-04-30T09:06:32Z</time></trkpt><trkpt lat="31.638535044547837" lon="-4.806814020782299"><ele>948.0</ele><time>2026-04-30T09:06:33Z</time></trkpt><trkpt lat="31.63855765297374" lon="-4.806684670195544"><ele>948.25</ele><time>2026-04-30T09:06:34Z</time></trkpt><trkpt lat="31.638581275066603" lon="-4.806552056033053"><ele>948.5</ele><time>2026-04-30T09:06:35Z</time></trkpt><trkpt lat="31.638604648562584" lon="-4.806420134825187"><ele>948.75</ele><time>2026-04-30T09:06:36Z</time></trkpt><trkpt lat="31.638627712435653" lon="-4.806291066172317"><ele>949.0</ele><time>2026-04-30T09:06:37Z</time></trkpt><trkpt lat="31.63865129734132" lon="-4.80615908174717"><ele>949.0</ele><time>2026-04-30T09:06:38Z</time></trkpt><trkpt lat="31.63869077506644" lon="-4.806031285018096"><ele>949.0000000000001</ele><time>2026-04-30T09:06:39Z</time></trkpt><trkpt lat="31.638710352477986" lon="-4.805901805481476"><ele>949.0000000000001</ele><time>2026-04-30T09:06:40Z</time></trkpt><trkpt lat="31.6387298916418" lon="-4.805776259230855"><ele>949.0</ele><time>2026-04-30T09:06:41Z</time></trkpt><trkpt lat="31.638748648805997" lon="-4.805656795759487"><ele>949.0</ele><time>2026-04-30T09:06:42Z</time></trkpt><trkpt lat="31.638765352134868" lon="-4.8055416233232595"><ele>949.0</ele><time>2026-04-30T09:06:43Z</time></trkpt><trkpt lat="31.638782500095918" lon="-4.805427968640785"><ele>949.0000000000001</ele><time>2026-04-30T09:06:44Z</time></trkpt><trkpt lat="31.638799794470124" lon="-4.805312887778351"><ele>949.0000000000001</ele><time>2026-04-30T09:06:45Z</time></trkpt><trkpt lat="31.638817360364918" lon="-4.8051974106854525"><ele>949.0</ele><time>2026-04-30T09:06:46Z</time></trkpt><trkpt lat="31.638837133513114" lon="-4.805082950009181"><ele>949.0</ele><time>2026-04-30T09:06:47Z</time></trkpt><trkpt lat="31.638855984346364" lon="-4.804968141246329"><ele>949.0</ele><time>2026-04-30T09:06:48Z</time></trkpt><trkpt lat="31.63887429280933" lon="-4.804849956917505"><ele>949.0000000000001</ele><time>2026-04-30T09:06:49Z</time></trkpt><trkpt lat="31.638896192663026" lon="-4.8047300644494655"><ele>949.0000000000001</ele><time>2026-04-30T09:06:50Z</time></trkpt><trkpt lat="31.638914007742535" lon="-4.8046070554020766"><ele>949.0</ele><time>2026-04-30T09:06:51Z</time></trkpt><trkpt lat="31.638934017769373" lon="-4.804483701614942"><ele>949.0</ele><time>2026-04-30T09:06:52Z</time></trkpt><trkpt lat="31.638954832974253" lon="-4.804359279768712"><ele>948.6</ele><time>2026-04-30T09:06:53Z</time></trkpt><trkpt lat="31.63897727902114" lon="-4.8042368958799475"><ele>948.2</ele><time>2026-04-30T09:06:54Z</time></trkpt><trkpt lat="31.638998511610296" lon="-4.804113876551671"><ele>947.8000000000001</ele><time>2026-04-30T09:06:55Z</time></trkpt><trkpt lat="31.639020932464298" lon="-4.803990110848449"><ele>947.4000000000001</ele><time>2026-04-30T09:06:56Z</time></trkpt><trkpt lat="31.639041496308934" lon="-4.803865706548941"><ele>947.0</ele><time>2026-04-30T09:06:57Z</time></trkpt><trkpt lat="31.63906134201949" lon="-4.803741965872366"><ele>947.0</ele><time>2026-04-30T09:06:58Z</time></trkpt><trkpt lat="31.639080451483483" lon="-4.803616743571646"><ele>947.0</ele><time>2026-04-30T09:06:59Z</time></trkpt><trkpt lat="31.639085537066407" lon="-4.80349178198141"><ele>947.0</ele><time>2026-04-30T09:07:00Z</time></trkpt><trkpt lat="31.63910057850865" lon="-4.80336702449258"><ele>947.0</ele><time>2026-04-30T09:07:01Z</time></trkpt><trkpt lat="31.639116400567048" lon="-4.803237552205155"><ele>947.0</ele><time>2026-04-30T09:07:02Z</time></trkpt><trkpt lat="31.63913202894992" lon="-4.803109065438169"><ele>947.25</ele><time>2026-04-30T09:07:03Z</time></trkpt><trkpt lat="31.639147792586158" lon="-4.802977330262539"><ele>947.5</ele><time>2026-04-30T09:07:04Z</time></trkpt><trkpt lat="31.63916335448062" lon="-4.80284728110968"><ele>947.75</ele><time>2026-04-30T09:07:05Z</time></trkpt><trkpt lat="31.63918489285129" lon="-4.802714784694072"><ele>948.0</ele><time>2026-04-30T09:07:06Z</time></trkpt><trkpt lat="31.63920480060342" lon="-4.80258400384627"><ele>947.5</ele><time>2026-04-30T09:07:07Z</time></trkpt><trkpt lat="31.639224589055978" lon="-4.802454006718698"><ele>947.0</ele><time>2026-04-30T09:07:08Z</time></trkpt><trkpt lat="31.63924421410548" lon="-4.802325083033711"><ele>946.5</ele><time>2026-04-30T09:07:09Z</time></trkpt><trkpt lat="31.639264099874662" lon="-4.802194446589855"><ele>946.0</ele><time>2026-04-30T09:07:10Z</time></trkpt><trkpt lat="31.63928437851744" lon="-4.80206122923018"><ele>946.0</ele><time>2026-04-30T09:07:11Z</time></trkpt><trkpt lat="31.639302878151323" lon="-4.801939838710191"><ele>945.9999999999999</ele><time>2026-04-30T09:07:12Z</time></trkpt><trkpt lat="31.639320499363727" lon="-4.801824407592686"><ele>945.9999999999999</ele><time>2026-04-30T09:07:13Z</time></trkpt><trkpt lat="31.639337950955994" lon="-4.801710087602638"><ele>946.0</ele><time>2026-04-30T09:07:14Z</time></trkpt><trkpt lat="31.63937261796384" lon="-4.801586242953784"><ele>946.0</ele><time>2026-04-30T09:07:15Z</time></trkpt><trkpt lat="31.639405796034833" lon="-4.80147078179215"><ele>946.1666666666666</ele><time>2026-04-30T09:07:16Z</time></trkpt><trkpt lat="31.639436681336946" lon="-4.801362190547917"><ele>946.3333333333333</ele><time>2026-04-30T09:07:17Z</time></trkpt><trkpt lat="31.639464095834573" lon="-4.801262522585707"><ele>946.5</ele><time>2026-04-30T09:07:18Z</time></trkpt><trkpt lat="31.63948483169536" lon="-4.801172516953087"><ele>946.6666666666667</ele><time>2026-04-30T09:07:19Z</time></trkpt><trkpt lat="31.639502460460626" lon="-4.801095566092583"><ele>946.8333333333334</ele><time>2026-04-30T09:07:20Z</time></trkpt><trkpt lat="31.639424747169414" lon="-4.8010072187297"><ele>947.0</ele><time>2026-04-30T09:07:22Z</time></trkpt><trkpt lat="31.639310870374658" lon="-4.800949158375721"><ele>947.1666666666667</ele><time>2026-04-30T09:07:24Z</time></trkpt><trkpt lat="31.639234324907843" lon="-4.800919392680011"><ele>947.3333333333334</ele><time>2026-04-30T09:07:25Z</time></trkpt><trkpt lat="31.63914711819057" lon="-4.800886371676244"><ele>947.5</ele><time>2026-04-30T09:07:26Z</time></trkpt><trkpt lat="31.639070320224548" lon="-4.8008629573296835"><ele>947.6666666666667</ele><time>2026-04-30T09:07:27Z</time></trkpt><trkpt lat="31.63899480545932" lon="-4.800847419026429"><ele>947.8333333333334</ele><time>2026-04-30T09:07:28Z</time></trkpt><trkpt lat="31.63890893997082" lon="-4.800844671826928"><ele>948.0</ele><time>2026-04-30T09:07:29Z</time></trkpt><trkpt lat="31.638820369689853" lon="-4.80086503646742"><ele>948.0</ele><time>2026-04-30T09:07:30Z</time></trkpt><trkpt lat="31.638744775297702" lon="-4.800885266264313"><ele>948.0</ele><time>2026-04-30T09:07:31Z</time></trkpt><trkpt lat="31.638663310648194" lon="-4.80088406146568"><ele>948.0</ele><time>2026-04-30T09:07:32Z</time></trkpt><trkpt lat="31.63857254384732" lon="-4.800862361464201"><ele>948.0</ele><time>2026-04-30T09:07:33Z</time></trkpt><trkpt lat="31.63848639283099" lon="-4.800815012739395"><ele>948.0</ele><time>2026-04-30T09:07:34Z</time></trkpt><trkpt lat="31.638393263569657" lon="-4.800771132912125"><ele>948.0</ele><time>2026-04-30T09:07:35Z</time></trkpt><trkpt lat="31.638281581324083" lon="-4.800729776526202"><ele>947.5</ele><time>2026-04-30T09:07:36Z</time></trkpt><trkpt lat="31.638160073390694" lon="-4.800683212638449"><ele>947.0</ele><time>2026-04-30T09:07:37Z</time></trkpt><trkpt lat="31.63804580291728" lon="-4.800622838412561"><ele>946.5</ele><time>2026-04-30T09:07:38Z</time></trkpt><trkpt lat="31.637934113945008" lon="-4.800547805851658"><ele>946.0</ele><time>2026-04-30T09:07:39Z</time></trkpt><trkpt lat="31.6378233448094" lon="-4.80046960622954"><ele>946.0</ele><time>2026-04-30T09:07:40Z</time></trkpt><trkpt lat="31.63771683869968" lon="-4.80037866778897"><ele>946.0</ele><time>2026-04-30T09:07:41Z</time></trkpt><trkpt lat="31.637598650707016" lon="-4.800299968922772"><ele>946.0</ele><time>2026-04-30T09:07:42Z</time></trkpt><trkpt lat="31.637478530308535" lon="-4.800235784799031"><ele>946.0</ele><time>2026-04-30T09:07:43Z</time></trkpt><trkpt lat="31.637349927967925" lon="-4.800178605257472"><ele>946.0</ele><time>2026-04-30T09:07:44Z</time></trkpt><trkpt lat="31.637219536331507" lon="-4.8001188494325575"><ele>946.0</ele><time>2026-04-30T09:07:45Z</time></trkpt><trkpt lat="31.637102723215364" lon="-4.800043446506205"><ele>946.0</ele><time>2026-04-30T09:07:46Z</time></trkpt><trkpt lat="31.636984158882374" lon="-4.79999603861468"><ele>946.0</ele><time>2026-04-30T09:07:47Z</time></trkpt><trkpt lat="31.636871179284448" lon="-4.7999574858065905"><ele>945.75</ele><time>2026-04-30T09:07:48Z</time></trkpt><trkpt lat="31.636756115923394" lon="-4.799924022386482"><ele>945.5</ele><time>2026-04-30T09:07:49Z</time></trkpt><trkpt lat="31.63663501191941" lon="-4.799887442242579"><ele>945.25</ele><time>2026-04-30T09:07:50Z</time></trkpt><trkpt lat="31.636511917379448" lon="-4.799847842749325"><ele>945.0</ele><time>2026-04-30T09:07:51Z</time></trkpt><trkpt lat="31.636379892449373" lon="-4.799812699571712"><ele>945.0</ele><time>2026-04-30T09:07:52Z</time></trkpt><trkpt lat="31.636250358916076" lon="-4.799771483799494"><ele>945.0</ele><time>2026-04-30T09:07:53Z</time></trkpt><trkpt lat="31.636128427094615" lon="-4.799735081174338"><ele>945.0</ele><time>2026-04-30T09:07:54Z</time></trkpt><trkpt lat="31.63600994959876" lon="-4.799695414750336"><ele>945.0</ele><time>2026-04-30T09:07:55Z</time></trkpt><trkpt lat="31.63588953723519" lon="-4.799658850450944"><ele>945.0</ele><time>2026-04-30T09:07:56Z</time></trkpt><trkpt lat="31.635767385529107" lon="-4.799622705098248"><ele>945.0</ele><time>2026-04-30T09:07:57Z</time></trkpt><trkpt lat="31.635658967450784" lon="-4.799591097447933"><ele>945.0</ele><time>2026-04-30T09:07:58Z</time></trkpt><trkpt lat="31.63555037990434" lon="-4.799557641568529"><ele>945.0</ele><time>2026-04-30T09:07:59Z</time></trkpt><trkpt lat="31.635440622153144" lon="-4.799524835660808"><ele>945.0</ele><time>2026-04-30T09:08:00Z</time></trkpt><trkpt lat="31.635325062113246" lon="-4.799490040962698"><ele>945.0</ele><time>2026-04-30T09:08:01Z</time></trkpt><trkpt lat="31.63520679597602" lon="-4.799456182677763"><ele>945.0</ele><time>2026-04-30T09:08:02Z</time></trkpt><trkpt lat="31.63509662659818" lon="-4.7994244421398085"><ele>945.0</ele><time>2026-04-30T09:08:03Z</time></trkpt><trkpt lat="31.634989894745086" lon="-4.7994220009332995"><ele>944.5</ele><time>2026-04-30T09:08:04Z</time></trkpt><trkpt lat="31.6348760143135" lon="-4.799415650327136"><ele>944.0</ele><time>2026-04-30T09:08:05Z</time></trkpt><trkpt lat="31.63475648255589" lon="-4.7994165173958"><ele>943.5</ele><time>2026-04-30T09:08:06Z</time></trkpt><trkpt lat="31.63464816062046" lon="-4.799437613762163"><ele>943.0</ele><time>2026-04-30T09:08:07Z</time></trkpt><trkpt lat="31.634532093650623" lon="-4.799462423774852"><ele>943.0</ele><time>2026-04-30T09:08:08Z</time></trkpt><trkpt lat="31.63441984395905" lon="-4.799492511131479"><ele>943.0</ele><time>2026-04-30T09:08:09Z</time></trkpt><trkpt lat="31.634303407658756" lon="-4.79952288858442"><ele>943.0</ele><time>2026-04-30T09:08:10Z</time></trkpt><trkpt lat="31.63419974992234" lon="-4.799568392178359"><ele>943.0</ele><time>2026-04-30T09:08:11Z</time></trkpt><trkpt lat="31.634102263052533" lon="-4.79961293727513"><ele>943.0</ele><time>2026-04-30T09:08:12Z</time></trkpt><trkpt lat="31.633995964967173" lon="-4.799646103566944"><ele>943.0</ele><time>2026-04-30T09:08:13Z</time></trkpt><trkpt lat="31.63389583333961" lon="-4.799702417895635"><ele>943.0</ele><time>2026-04-30T09:08:14Z</time></trkpt><trkpt lat="31.63380958078045" lon="-4.7997571188117565"><ele>943.0</ele><time>2026-04-30T09:08:15Z</time></trkpt><trkpt lat="31.633725108251966" lon="-4.799793417467936"><ele>943.0</ele><time>2026-04-30T09:08:16Z</time></trkpt><trkpt lat="31.633634448038432" lon="-4.799809431763989"><ele>943.3333333333333</ele><time>2026-04-30T09:08:17Z</time></trkpt><trkpt lat="31.63355894173291" lon="-4.799833844609525"><ele>943.6666666666666</ele><time>2026-04-30T09:08:18Z</time></trkpt><trkpt lat="31.633493785196567" lon="-4.7998339028751005"><ele>944.0</ele><time>2026-04-30T09:08:19Z</time></trkpt><trkpt lat="31.63340819233744" lon="-4.799807616341276"><ele>944.3333333333333</ele><time>2026-04-30T09:08:20Z</time></trkpt><trkpt lat="31.633322278408027" lon="-4.799782786222261"><ele>944.6666666666666</ele><time>2026-04-30T09:08:21Z</time></trkpt><trkpt lat="31.633254345572993" lon="-4.79976773651155"><ele>945.0</ele><time>2026-04-30T09:08:22Z</time></trkpt><trkpt lat="31.633187865055117" lon="-4.799754432606452"><ele>945.0</ele><time>2026-04-30T09:08:24Z</time></trkpt><trkpt lat="31.633299112867785" lon="-4.799738496456292"><ele>945.0</ele><time>2026-04-30T09:08:31Z</time></trkpt><trkpt lat="31.63339882917229" lon="-4.799794844015383"><ele>945.0</ele><time>2026-04-30T09:08:32Z</time></trkpt><trkpt lat="31.633505813541273" lon="-4.799819305438537"><ele>945.0</ele><time>2026-04-30T09:08:33Z</time></trkpt><trkpt lat="31.633614264310328" lon="-4.799813916470251"><ele>945.0</ele><time>2026-04-30T09:08:34Z</time></trkpt><trkpt lat="31.633721943936504" lon="-4.799777613666867"><ele>944.5</ele><time>2026-04-30T09:08:35Z</time></trkpt><trkpt lat="31.633837834949734" lon="-4.799721733282583"><ele>944.0</ele><time>2026-04-30T09:08:36Z</time></trkpt><trkpt lat="31.633946963644938" lon="-4.799662908662512"><ele>943.5</ele><time>2026-04-30T09:08:37Z</time></trkpt><trkpt lat="31.634053501735643" lon="-4.799607479107754"><ele>943.0</ele><time>2026-04-30T09:08:38Z</time></trkpt><trkpt lat="31.634168755131913" lon="-4.799550801652792"><ele>943.0</ele><time>2026-04-30T09:08:39Z</time></trkpt><trkpt lat="31.63428667131577" lon="-4.799497328931403"><ele>943.0</ele><time>2026-04-30T09:08:40Z</time></trkpt><trkpt lat="31.63441121194163" lon="-4.799451591311667"><ele>943.0</ele><time>2026-04-30T09:08:41Z</time></trkpt><trkpt lat="31.6345372304849" lon="-4.799420862977813"><ele>943.0</ele><time>2026-04-30T09:08:42Z</time></trkpt><trkpt lat="31.63465230238739" lon="-4.799400464432512"><ele>943.0</ele><time>2026-04-30T09:08:43Z</time></trkpt><trkpt lat="31.63475892926094" lon="-4.7993838647375995"><ele>943.0</ele><time>2026-04-30T09:08:44Z</time></trkpt><trkpt lat="31.634870062602626" lon="-4.799373390580849"><ele>943.0</ele><time>2026-04-30T09:08:45Z</time></trkpt><trkpt lat="31.634989023128018" lon="-4.799379288328553"><ele>943.0</ele><time>2026-04-30T09:08:46Z</time></trkpt><trkpt lat="31.63510863488997" lon="-4.799404930610586"><ele>943.0</ele><time>2026-04-30T09:08:47Z</time></trkpt><trkpt lat="31.635226668677806" lon="-4.799450833122379"><ele>943.0</ele><time>2026-04-30T09:08:48Z</time></trkpt><trkpt lat="31.635347552418768" lon="-4.799470727211059"><ele>943.0</ele><time>2026-04-30T09:08:49Z</time></trkpt><trkpt lat="31.63546221199113" lon="-4.799504386379434"><ele>943.0</ele><time>2026-04-30T09:08:50Z</time></trkpt><trkpt lat="31.635567603700874" lon="-4.799535324917891"><ele>943.5</ele><time>2026-04-30T09:08:51Z</time></trkpt><trkpt lat="31.63566267067562" lon="-4.799582506182202"><ele>944.0</ele><time>2026-04-30T09:08:52Z</time></trkpt><trkpt lat="31.635771590208737" lon="-4.799610600469531"><ele>944.5</ele><time>2026-04-30T09:08:53Z</time></trkpt><trkpt lat="31.635885504151133" lon="-4.799643318735202"><ele>945.0</ele><time>2026-04-30T09:08:54Z</time></trkpt><trkpt lat="31.63600482817551" lon="-4.799675008769967"><ele>945.0</ele><time>2026-04-30T09:08:55Z</time></trkpt><trkpt lat="31.636127204344717" lon="-4.799708600432417"><ele>945.0</ele><time>2026-04-30T09:08:56Z</time></trkpt><trkpt lat="31.636247307142284" lon="-4.799745938486435"><ele>945.0</ele><time>2026-04-30T09:08:57Z</time></trkpt><trkpt lat="31.636364386747584" lon="-4.799786098760488"><ele>945.0</ele><time>2026-04-30T09:08:58Z</time></trkpt><trkpt lat="31.636479912534902" lon="-4.799826235344396"><ele>945.0</ele><time>2026-04-30T09:08:59Z</time></trkpt><trkpt lat="31.636594650392023" lon="-4.79986553915256"><ele>945.0</ele><time>2026-04-30T09:09:00Z</time></trkpt><trkpt lat="31.636705958057746" lon="-4.79989974605703"><ele>945.0</ele><time>2026-04-30T09:09:01Z</time></trkpt><trkpt lat="31.636813931409392" lon="-4.799927396100766"><ele>945.0</ele><time>2026-04-30T09:09:02Z</time></trkpt><trkpt lat="31.63692233573494" lon="-4.799955178212183"><ele>945.2</ele><time>2026-04-30T09:09:03Z</time></trkpt><trkpt lat="31.637028625588155" lon="-4.799988783351472"><ele>945.4</ele><time>2026-04-30T09:09:04Z</time></trkpt><trkpt lat="31.637131116782445" lon="-4.80003177497581"><ele>945.5999999999999</ele><time>2026-04-30T09:09:05Z</time></trkpt><trkpt lat="31.637220566613315" lon="-4.800081464493077"><ele>945.8</ele><time>2026-04-30T09:09:06Z</time></trkpt><trkpt lat="31.637305012263965" lon="-4.800129404485867"><ele>946.0</ele><time>2026-04-30T09:09:07Z</time></trkpt><trkpt lat="31.637384688833805" lon="-4.800169586086411"><ele>945.9999999999999</ele><time>2026-04-30T09:09:08Z</time></trkpt><trkpt lat="31.637454162369924" lon="-4.800195863398836"><ele>946.0</ele><time>2026-04-30T09:09:09Z</time></trkpt><trkpt lat="31.637541910517815" lon="-4.800206098082729"><ele>946.0</ele><time>2026-04-30T09:09:11Z</time></trkpt><trkpt lat="31.637480355489917" lon="-4.800167112075744"><ele>946.0</ele><time>2026-04-30T09:09:19Z</time></trkpt><trkpt lat="31.63738384570933" lon="-4.80016588828955"><ele>945.9999999999999</ele><time>2026-04-30T09:09:20Z</time></trkpt><trkpt lat="31.637313843275752" lon="-4.800127857111307"><ele>946.0</ele><time>2026-04-30T09:09:21Z</time></trkpt><trkpt lat="31.637225947128954" lon="-4.8000931396783"><ele>946.0</ele><time>2026-04-30T09:09:22Z</time></trkpt><trkpt lat="31.63712232212244" lon="-4.800072877562435"><ele>945.9999999999999</ele><time>2026-04-30T09:09:23Z</time></trkpt><trkpt lat="31.637030638413755" lon="-4.800014956332484"><ele>945.9999999999999</ele><time>2026-04-30T09:09:24Z</time></trkpt><trkpt lat="31.63692138430644" lon="-4.799976319128025"><ele>946.0</ele><time>2026-04-30T09:09:25Z</time></trkpt><trkpt lat="31.63680478471775" lon="-4.7999369177540565"><ele>946.0</ele><time>2026-04-30T09:09:26Z</time></trkpt><trkpt lat="31.63668650686733" lon="-4.799900342570682"><ele>945.8</ele><time>2026-04-30T09:09:27Z</time></trkpt><trkpt lat="31.63657485769975" lon="-4.799867255645502"><ele>945.5999999999999</ele><time>2026-04-30T09:09:28Z</time></trkpt><trkpt lat="31.636474495187123" lon="-4.799835326910273"><ele>945.4</ele><time>2026-04-30T09:09:29Z</time></trkpt><trkpt lat="31.636377000598632" lon="-4.79982372674403"><ele>945.2</ele><time>2026-04-30T09:09:30Z</time></trkpt><trkpt lat="31.636284977093116" lon="-4.799796313003001"><ele>945.0</ele><time>2026-04-30T09:09:31Z</time></trkpt><trkpt lat="31.636198959909994" lon="-4.79976979899106"><ele>945.0</ele><time>2026-04-30T09:09:32Z</time></trkpt><trkpt lat="31.636122987215224" lon="-4.799746381083595"><ele>945.0</ele><time>2026-04-30T09:09:33Z</time></trkpt><trkpt lat="31.63601802832156" lon="-4.799713736766748"><ele>945.0</ele><time>2026-04-30T09:09:35Z</time></trkpt><trkpt lat="31.63591402662441" lon="-4.799681450683669"><ele>945.0</ele><time>2026-04-30T09:10:03Z</time></trkpt><trkpt lat="31.6358408851723" lon="-4.799659162346274"><ele>945.0</ele><time>2026-04-30T09:10:04Z</time></trkpt><trkpt lat="31.63575091340789" lon="-4.799631187809046"><ele>945.0</ele><time>2026-04-30T09:10:05Z</time></trkpt><trkpt lat="31.635653878224456" lon="-4.799583368822245"><ele>945.0</ele><time>2026-04-30T09:10:06Z</time></trkpt><trkpt lat="31.63555405871074" lon="-4.799558256381006"><ele>945.0</ele><time>2026-04-30T09:10:07Z</time></trkpt><trkpt lat="31.635453116457366" lon="-4.799527783794161"><ele>945.0</ele><time>2026-04-30T09:10:08Z</time></trkpt><trkpt lat="31.63534560771835" lon="-4.799494582841433"><ele>945.0</ele><time>2026-04-30T09:10:09Z</time></trkpt><trkpt lat="31.63523480549815" lon="-4.799462790884313"><ele>944.5</ele><time>2026-04-30T09:10:10Z</time></trkpt><trkpt lat="31.635117461873755" lon="-4.799425328839268"><ele>944.0</ele><time>2026-04-30T09:10:11Z</time></trkpt><trkpt lat="31.634978519060766" lon="-4.799420529943571"><ele>943.5</ele><time>2026-04-30T09:10:12Z</time></trkpt><trkpt lat="31.63483012162884" lon="-4.799415983227998"><ele>943.0</ele><time>2026-04-30T09:10:13Z</time></trkpt><trkpt lat="31.63468610835955" lon="-4.79941702790297"><ele>943.0</ele><time>2026-04-30T09:10:14Z</time></trkpt><trkpt lat="31.634539165462876" lon="-4.799460951591701"><ele>943.0</ele><time>2026-04-30T09:10:15Z</time></trkpt><trkpt lat="31.634378076919234" lon="-4.799503481495324"><ele>943.0</ele><time>2026-04-30T09:10:16Z</time></trkpt><trkpt lat="31.63423197752207" lon="-4.79955362455105"><ele>943.0</ele><time>2026-04-30T09:10:17Z</time></trkpt><trkpt lat="31.634096443024507" lon="-4.79961559676583"><ele>943.0</ele><time>2026-04-30T09:10:18Z</time></trkpt><trkpt lat="31.63396523630025" lon="-4.799659001330529"><ele>943.0</ele><time>2026-04-30T09:10:19Z</time></trkpt><trkpt lat="31.633849950888965" lon="-4.799719984034987"><ele>943.0</ele><time>2026-04-30T09:10:20Z</time></trkpt><trkpt lat="31.633743568999563" lon="-4.79976801303703"><ele>942.9999999999999</ele><time>2026-04-30T09:10:21Z</time></trkpt><trkpt lat="31.633656871781866" lon="-4.799800689174353"><ele>943.0</ele><time>2026-04-30T09:10:22Z</time></trkpt><trkpt lat="31.633594900298696" lon="-4.7998276859919455"><ele>943.0</ele><time>2026-04-30T09:10:23Z</time></trkpt><trkpt lat="31.633503728865975" lon="-4.799828101154265"><ele>943.0</ele><time>2026-04-30T09:10:25Z</time></trkpt><trkpt lat="31.63344150690496" lon="-4.799811169674159"><ele>942.9999999999999</ele><time>2026-04-30T09:10:26Z</time></trkpt><trkpt lat="31.633370718274566" lon="-4.799794889733563"><ele>943.0</ele><time>2026-04-30T09:10:27Z</time></trkpt><trkpt lat="31.633285298785026" lon="-4.79976765390942"><ele>943.4</ele><time>2026-04-30T09:10:28Z</time></trkpt><trkpt lat="31.633197902653624" lon="-4.799721421633801"><ele>943.8</ele><time>2026-04-30T09:10:29Z</time></trkpt><trkpt lat="31.633120749337333" lon="-4.7996561214767715"><ele>944.2</ele><time>2026-04-30T09:10:30Z</time></trkpt><trkpt lat="31.63303250665538" lon="-4.799570973053205"><ele>944.6</ele><time>2026-04-30T09:10:31Z</time></trkpt><trkpt lat="31.632931559199932" lon="-4.799473781632372"><ele>945.0</ele><time>2026-04-30T09:10:32Z</time></trkpt><trkpt lat="31.632827427474233" lon="-4.799378690836193"><ele>944.5</ele><time>2026-04-30T09:10:33Z</time></trkpt><trkpt lat="31.632707970770728" lon="-4.7993179782677"><ele>944.0</ele><time>2026-04-30T09:10:34Z</time></trkpt><trkpt lat="31.63260495931133" lon="-4.799256481558231"><ele>943.5</ele><time>2026-04-30T09:10:35Z</time></trkpt><trkpt lat="31.632506053649728" lon="-4.799183400191327"><ele>943.0</ele><time>2026-04-30T09:10:36Z</time></trkpt><trkpt lat="31.632397312000403" lon="-4.799122735558079"><ele>943.0</ele><time>2026-04-30T09:10:37Z</time></trkpt><trkpt lat="31.632277708469374" lon="-4.7990956750114915"><ele>943.0</ele><time>2026-04-30T09:10:38Z</time></trkpt><trkpt lat="31.632166396895293" lon="-4.799064001601278"><ele>943.0</ele><time>2026-04-30T09:10:39Z</time></trkpt><trkpt lat="31.632054088212755" lon="-4.799034956591924"><ele>943.0</ele><time>2026-04-30T09:10:40Z</time></trkpt><trkpt lat="31.631940366692906" lon="-4.799005546148872"><ele>942.8</ele><time>2026-04-30T09:10:41Z</time></trkpt><trkpt lat="31.631833165967528" lon="-4.798977822134949"><ele>942.5999999999999</ele><time>2026-04-30T09:10:42Z</time></trkpt><trkpt lat="31.63173548543586" lon="-4.798935119854599"><ele>942.4000000000001</ele><time>2026-04-30T09:10:43Z</time></trkpt><trkpt lat="31.63163112555656" lon="-4.79891094283574"><ele>942.2</ele><time>2026-04-30T09:10:44Z</time></trkpt><trkpt lat="31.631526757875452" lon="-4.798878316135155"><ele>942.0</ele><time>2026-04-30T09:10:45Z</time></trkpt><trkpt lat="31.63141824080157" lon="-4.798859789404068"><ele>942.0</ele><time>2026-04-30T09:10:46Z</time></trkpt><trkpt lat="31.631311664606038" lon="-4.798825532745632"><ele>942.0</ele><time>2026-04-30T09:10:47Z</time></trkpt><trkpt lat="31.631211234202883" lon="-4.798799354794217"><ele>942.0</ele><time>2026-04-30T09:10:48Z</time></trkpt><trkpt lat="31.631100319039973" lon="-4.798769006737861"><ele>942.0</ele><time>2026-04-30T09:10:49Z</time></trkpt><trkpt lat="31.63097264813062" lon="-4.79879759792127"><ele>942.5</ele><time>2026-04-30T09:10:50Z</time></trkpt><trkpt lat="31.630846806635848" lon="-4.798847828936133"><ele>943.0</ele><time>2026-04-30T09:10:51Z</time></trkpt><trkpt lat="31.630718011083367" lon="-4.798836795498764"><ele>943.5</ele><time>2026-04-30T09:10:52Z</time></trkpt><trkpt lat="31.630595101959745" lon="-4.798816883787464"><ele>944.0</ele><time>2026-04-30T09:10:53Z</time></trkpt><trkpt lat="31.630479825438957" lon="-4.798784617846273"><ele>944.0000000000001</ele><time>2026-04-30T09:10:54Z</time></trkpt><trkpt lat="31.630370074158268" lon="-4.7987517711228405"><ele>944.0</ele><time>2026-04-30T09:10:55Z</time></trkpt><trkpt lat="31.630270712684478" lon="-4.798721372425595"><ele>944.0</ele><time>2026-04-30T09:10:56Z</time></trkpt><trkpt lat="31.63018936483594" lon="-4.7986898409710355"><ele>944.0</ele><time>2026-04-30T09:10:57Z</time></trkpt><trkpt lat="31.63012412517567" lon="-4.798662710485406"><ele>944.0000000000001</ele><time>2026-04-30T09:10:58Z</time></trkpt><trkpt lat="31.630063415947482" lon="-4.798637363765558"><ele>944.0</ele><time>2026-04-30T09:10:59Z</time></trkpt><trkpt lat="31.629958302673572" lon="-4.798586351077297"><ele>944.0</ele><time>2026-04-30T09:11:01Z</time></trkpt><trkpt lat="31.629843089037266" lon="-4.798584255936273"><ele>944.0000000000001</ele><time>2026-04-30T09:11:03Z</time></trkpt><trkpt lat="31.629766040268287" lon="-4.798581846195277"><ele>944.0000000000001</ele><time>2026-04-30T09:11:04Z</time></trkpt><trkpt lat="31.62966837136631" lon="-4.798585628037102"><ele>944.0</ele><time>2026-04-30T09:11:05Z</time></trkpt><trkpt lat="31.62956550832502" lon="-4.798588605844089"><ele>944.0</ele><time>2026-04-30T09:11:06Z</time></trkpt><trkpt lat="31.629440566435683" lon="-4.79859172697944"><ele>944.25</ele><time>2026-04-30T09:11:07Z</time></trkpt><trkpt lat="31.629308748016136" lon="-4.798594508697554"><ele>944.5</ele><time>2026-04-30T09:11:08Z</time></trkpt><trkpt lat="31.629190682578624" lon="-4.798597000185752"><ele>944.75</ele><time>2026-04-30T09:11:09Z</time></trkpt><trkpt lat="31.62908015256262" lon="-4.798603724336828"><ele>945.0</ele><time>2026-04-30T09:11:10Z</time></trkpt><trkpt lat="31.62897578064144" lon="-4.798616081145596"><ele>945.0</ele><time>2026-04-30T09:11:11Z</time></trkpt><trkpt lat="31.628869734727875" lon="-4.798638557906475"><ele>945.0</ele><time>2026-04-30T09:11:12Z</time></trkpt><trkpt lat="31.62876430294667" lon="-4.798683548607226"><ele>945.0</ele><time>2026-04-30T09:11:13Z</time></trkpt><trkpt lat="31.628651930894137" lon="-4.798733138427301"><ele>945.0</ele><time>2026-04-30T09:11:14Z</time></trkpt><trkpt lat="31.628543027066215" lon="-4.7987630434934285"><ele>944.0</ele><time>2026-04-30T09:11:15Z</time></trkpt><trkpt lat="31.628427165833454" lon="-4.798828936246615"><ele>943.0</ele><time>2026-04-30T09:11:16Z</time></trkpt><trkpt lat="31.628312134441344" lon="-4.798886437576147"><ele>942.0</ele><time>2026-04-30T09:11:17Z</time></trkpt><trkpt lat="31.628162732778772" lon="-4.798946567800076"><ele>941.0</ele><time>2026-04-30T09:11:18Z</time></trkpt><trkpt lat="31.62802514476631" lon="-4.798995926252072"><ele>941.0</ele><time>2026-04-30T09:11:19Z</time></trkpt><trkpt lat="31.627891781315494" lon="-4.79902779555664"><ele>941.0</ele><time>2026-04-30T09:11:20Z</time></trkpt><trkpt lat="31.627783931485347" lon="-4.799070840518638"><ele>941.0</ele><time>2026-04-30T09:11:21Z</time></trkpt><trkpt lat="31.627688697510283" lon="-4.799106503058283"><ele>941.0</ele><time>2026-04-30T09:11:22Z</time></trkpt><trkpt lat="31.627594379957625" lon="-4.799152921085257"><ele>940.8</ele><time>2026-04-30T09:11:23Z</time></trkpt><trkpt lat="31.62749481934536" lon="-4.799197558685877"><ele>940.5999999999999</ele><time>2026-04-30T09:11:24Z</time></trkpt><trkpt lat="31.627395084990034" lon="-4.7992436967941705"><ele>940.4</ele><time>2026-04-30T09:11:25Z</time></trkpt><trkpt lat="31.627293215850088" lon="-4.79928927563248"><ele>940.2</ele><time>2026-04-30T09:11:26Z</time></trkpt><trkpt lat="31.62718647722913" lon="-4.799330520005994"><ele>940.0</ele><time>2026-04-30T09:11:27Z</time></trkpt><trkpt lat="31.627082992424068" lon="-4.79937882110913"><ele>939.0</ele><time>2026-04-30T09:11:28Z</time></trkpt><trkpt lat="31.626975277355076" lon="-4.799422230921695"><ele>938.0</ele><time>2026-04-30T09:11:29Z</time></trkpt><trkpt lat="31.62686053563336" lon="-4.799470148453599"><ele>937.0</ele><time>2026-04-30T09:11:30Z</time></trkpt><trkpt lat="31.626739784591752" lon="-4.799527214533977"><ele>936.0</ele><time>2026-04-30T09:11:31Z</time></trkpt><trkpt lat="31.626615754774694" lon="-4.7995819769006145"><ele>936.0</ele><time>2026-04-30T09:11:32Z</time></trkpt><trkpt lat="31.62647925550359" lon="-4.799638518746813"><ele>936.0</ele><time>2026-04-30T09:11:33Z</time></trkpt><trkpt lat="31.626341681386762" lon="-4.799704769831693"><ele>936.0</ele><time>2026-04-30T09:11:34Z</time></trkpt><trkpt lat="31.626200304215683" lon="-4.799764128998891"><ele>936.0</ele><time>2026-04-30T09:11:35Z</time></trkpt><trkpt lat="31.62606290712692" lon="-4.799832861371429"><ele>936.6666666666667</ele><time>2026-04-30T09:11:36Z</time></trkpt><trkpt lat="31.625903519849246" lon="-4.7998993294691905"><ele>937.3333333333334</ele><time>2026-04-30T09:11:37Z</time></trkpt><trkpt lat="31.625734026154014" lon="-4.799970348934438"><ele>938.0</ele><time>2026-04-30T09:11:38Z</time></trkpt><trkpt lat="31.62556116290099" lon="-4.800042463665961"><ele>938.0</ele><time>2026-04-30T09:11:39Z</time></trkpt><trkpt lat="31.625389616285165" lon="-4.800113692947223"><ele>938.0</ele><time>2026-04-30T09:11:40Z</time></trkpt><trkpt lat="31.625208082753648" lon="-4.800189583437371"><ele>938.0</ele><time>2026-04-30T09:11:41Z</time></trkpt><trkpt lat="31.62502481888842" lon="-4.800266265607681"><ele>938.0</ele><time>2026-04-30T09:11:42Z</time></trkpt><trkpt lat="31.62483929920176" lon="-4.800343679587239"><ele>938.0</ele><time>2026-04-30T09:11:43Z</time></trkpt><trkpt lat="31.624662126202644" lon="-4.800417610676232"><ele>938.0</ele><time>2026-04-30T09:11:44Z</time></trkpt><trkpt lat="31.624478263088612" lon="-4.800494333407831"><ele>938.0</ele><time>2026-04-30T09:11:45Z</time></trkpt><trkpt lat="31.62429583512101" lon="-4.800570457184958"><ele>938.0</ele><time>2026-04-30T09:11:46Z</time></trkpt><trkpt lat="31.624114737323858" lon="-4.800646026039401"><ele>938.0</ele><time>2026-04-30T09:11:47Z</time></trkpt><trkpt lat="31.62393786965272" lon="-4.800719829737642"><ele>938.0</ele><time>2026-04-30T09:11:48Z</time></trkpt><trkpt lat="31.623773712518965" lon="-4.8007883294620655"><ele>938.0</ele><time>2026-04-30T09:11:49Z</time></trkpt><trkpt lat="31.623622150006483" lon="-4.800851573742782"><ele>938.0</ele><time>2026-04-30T09:11:50Z</time></trkpt><trkpt lat="31.623465787243735" lon="-4.800912943314986"><ele>938.0</ele><time>2026-04-30T09:11:51Z</time></trkpt><trkpt lat="31.623321254117844" lon="-4.800955395905887"><ele>938.0</ele><time>2026-04-30T09:11:52Z</time></trkpt><trkpt lat="31.62317502924175" lon="-4.800957780204737"><ele>938.0</ele><time>2026-04-30T09:11:53Z</time></trkpt><trkpt lat="31.62303764723531" lon="-4.800951812637616"><ele>938.0</ele><time>2026-04-30T09:11:54Z</time></trkpt><trkpt lat="31.622904766367455" lon="-4.8009167459405635"><ele>937.75</ele><time>2026-04-30T09:11:55Z</time></trkpt><trkpt lat="31.62278081154986" lon="-4.800849063031051"><ele>937.5</ele><time>2026-04-30T09:11:56Z</time></trkpt><trkpt lat="31.62266547477942" lon="-4.80076202841206"><ele>937.25</ele><time>2026-04-30T09:11:57Z</time></trkpt><trkpt lat="31.62255863106178" lon="-4.800663517601067"><ele>937.0</ele><time>2026-04-30T09:11:58Z</time></trkpt><trkpt lat="31.62245959567493" lon="-4.800550617693464"><ele>937.0</ele><time>2026-04-30T09:11:59Z</time></trkpt><trkpt lat="31.622364040442083" lon="-4.800423009456493"><ele>937.0</ele><time>2026-04-30T09:12:00Z</time></trkpt><trkpt lat="31.62226078366659" lon="-4.800284132864755"><ele>937.0</ele><time>2026-04-30T09:12:01Z</time></trkpt><trkpt lat="31.622145884596627" lon="-4.800143107981797"><ele>937.6666666666666</ele><time>2026-04-30T09:12:02Z</time></trkpt><trkpt lat="31.622019821192648" lon="-4.800000775926459"><ele>938.3333333333333</ele><time>2026-04-30T09:12:03Z</time></trkpt><trkpt lat="31.621890555083645" lon="-4.799856747802341"><ele>939.0</ele><time>2026-04-30T09:12:04Z</time></trkpt><trkpt lat="31.621757121421453" lon="-4.799705773789647"><ele>939.3333333333333</ele><time>2026-04-30T09:12:05Z</time></trkpt><trkpt lat="31.621620168645443" lon="-4.799545357636743"><ele>939.6666666666666</ele><time>2026-04-30T09:12:06Z</time></trkpt><trkpt lat="31.621481897576775" lon="-4.799382311956696"><ele>940.0</ele><time>2026-04-30T09:12:07Z</time></trkpt><trkpt lat="31.6213375641626" lon="-4.799218336674776"><ele>940.0</ele><time>2026-04-30T09:12:08Z</time></trkpt><trkpt lat="31.62119322006269" lon="-4.799052238462185"><ele>940.0</ele><time>2026-04-30T09:12:09Z</time></trkpt><trkpt lat="31.62104699233561" lon="-4.79888251564467"><ele>940.0</ele><time>2026-04-30T09:12:10Z</time></trkpt><trkpt lat="31.62090039752449" lon="-4.798709410268552"><ele>940.0</ele><time>2026-04-30T09:12:11Z</time></trkpt><trkpt lat="31.62075171934215" lon="-4.798536629137528"><ele>940.0</ele><time>2026-04-30T09:12:12Z</time></trkpt><trkpt lat="31.620599619759318" lon="-4.798359445300055"><ele>940.0</ele><time>2026-04-30T09:12:13Z</time></trkpt><trkpt lat="31.620447103042856" lon="-4.798182676809515"><ele>939.0</ele><time>2026-04-30T09:12:14Z</time></trkpt><trkpt lat="31.620293642554874" lon="-4.798002025204988"><ele>938.0</ele><time>2026-04-30T09:12:15Z</time></trkpt><trkpt lat="31.620138159261604" lon="-4.797818368864596"><ele>937.0</ele><time>2026-04-30T09:12:16Z</time></trkpt><trkpt lat="31.61998533142007" lon="-4.797636464632007"><ele>937.0</ele><time>2026-04-30T09:12:17Z</time></trkpt><trkpt lat="31.619829403392064" lon="-4.797453945765877"><ele>937.0</ele><time>2026-04-30T09:12:18Z</time></trkpt><trkpt lat="31.61967135622295" lon="-4.797271584955024"><ele>937.0</ele><time>2026-04-30T09:12:19Z</time></trkpt><trkpt lat="31.619516205401577" lon="-4.797091496540212"><ele>936.6666666666666</ele><time>2026-04-30T09:12:20Z</time></trkpt><trkpt lat="31.619358028645397" lon="-4.796908666239092"><ele>936.3333333333333</ele><time>2026-04-30T09:12:21Z</time></trkpt><trkpt lat="31.61920084273855" lon="-4.796726567942136"><ele>936.0</ele><time>2026-04-30T09:12:22Z</time></trkpt><trkpt lat="31.619041054567052" lon="-4.796546618362368"><ele>936.0</ele><time>2026-04-30T09:12:23Z</time></trkpt><trkpt lat="31.618882972631134" lon="-4.796361971931916"><ele>936.0</ele><time>2026-04-30T09:12:24Z</time></trkpt><trkpt lat="31.618725898302888" lon="-4.7961779449662965"><ele>936.0</ele><time>2026-04-30T09:12:25Z</time></trkpt><trkpt lat="31.61857175461842" lon="-4.795996345808878"><ele>936.3333333333333</ele><time>2026-04-30T09:12:26Z</time></trkpt><trkpt lat="31.618419102622347" lon="-4.795817216834912"><ele>936.6666666666666</ele><time>2026-04-30T09:12:27Z</time></trkpt><trkpt lat="31.61826765910645" lon="-4.795640142430022"><ele>937.0</ele><time>2026-04-30T09:12:28Z</time></trkpt><trkpt lat="31.618113690061204" lon="-4.795464153247849"><ele>937.0</ele><time>2026-04-30T09:12:29Z</time></trkpt><trkpt lat="31.617960911824206" lon="-4.795286990575181"><ele>937.0</ele><time>2026-04-30T09:12:30Z</time></trkpt><trkpt lat="31.617811493484854" lon="-4.795105682617012"><ele>937.0</ele><time>2026-04-30T09:12:31Z</time></trkpt><trkpt lat="31.617670664629696" lon="-4.794912492619712"><ele>936.6666666666666</ele><time>2026-04-30T09:12:32Z</time></trkpt><trkpt lat="31.617535956450713" lon="-4.794713861477155"><ele>936.3333333333333</ele><time>2026-04-30T09:12:33Z</time></trkpt><trkpt lat="31.617404587739465" lon="-4.794510766864046"><ele>936.0</ele><time>2026-04-30T09:12:34Z</time></trkpt><trkpt lat="31.61727507959574" lon="-4.794306786926413"><ele>936.0</ele><time>2026-04-30T09:12:35Z</time></trkpt><trkpt lat="31.61714529320289" lon="-4.794098499654989"><ele>936.0</ele><time>2026-04-30T09:12:36Z</time></trkpt><trkpt lat="31.617013956229034" lon="-4.79388921210328"><ele>936.0</ele><time>2026-04-30T09:12:37Z</time></trkpt><trkpt lat="31.616883308221915" lon="-4.793678678126348"><ele>935.3333333333333</ele><time>2026-04-30T09:12:38Z</time></trkpt><trkpt lat="31.616748323943472" lon="-4.79347123663936"><ele>934.6666666666666</ele><time>2026-04-30T09:12:39Z</time></trkpt><trkpt lat="31.616613378845827" lon="-4.793261328642649"><ele>934.0</ele><time>2026-04-30T09:12:40Z</time></trkpt><trkpt lat="31.616478654651868" lon="-4.793049158289805"><ele>934.0</ele><time>2026-04-30T09:12:41Z</time></trkpt><trkpt lat="31.616341250268405" lon="-4.792835330273236"><ele>934.0</ele><time>2026-04-30T09:12:42Z</time></trkpt><trkpt lat="31.61620409022821" lon="-4.792621000990183"><ele>933.5</ele><time>2026-04-30T09:12:43Z</time></trkpt><trkpt lat="31.616065486989605" lon="-4.792402670529597"><ele>933.0</ele><time>2026-04-30T09:12:44Z</time></trkpt><trkpt lat="31.61592807288912" lon="-4.792185380860759"><ele>933.0</ele><time>2026-04-30T09:12:45Z</time></trkpt><trkpt lat="31.615789485656606" lon="-4.7919699968205345"><ele>933.0</ele><time>2026-04-30T09:12:46Z</time></trkpt><trkpt lat="31.615653202121063" lon="-4.791760332935513"><ele>933.3333333333333</ele><time>2026-04-30T09:12:47Z</time></trkpt><trkpt lat="31.615518430134475" lon="-4.791546816928315"><ele>933.6666666666666</ele><time>2026-04-30T09:12:48Z</time></trkpt><trkpt lat="31.615388455610216" lon="-4.791337190704856"><ele>934.0</ele><time>2026-04-30T09:12:49Z</time></trkpt><trkpt lat="31.615259359359932" lon="-4.791130609689909"><ele>934.0</ele><time>2026-04-30T09:12:50Z</time></trkpt><trkpt lat="31.61513289461172" lon="-4.790931693054483"><ele>934.0</ele><time>2026-04-30T09:12:51Z</time></trkpt><trkpt lat="31.615010799763777" lon="-4.79074331873096"><ele>934.0</ele><time>2026-04-30T09:12:52Z</time></trkpt><trkpt lat="31.61489452946459" lon="-4.790563616439373"><ele>934.0</ele><time>2026-04-30T09:12:53Z</time></trkpt><trkpt lat="31.61477647141288" lon="-4.790382564534747"><ele>934.0</ele><time>2026-04-30T09:12:54Z</time></trkpt><trkpt lat="31.614661728790246" lon="-4.790198204258947"><ele>934.0</ele><time>2026-04-30T09:12:55Z</time></trkpt><trkpt lat="31.614551367703378" lon="-4.790005347709767"><ele>933.0</ele><time>2026-04-30T09:12:56Z</time></trkpt><trkpt lat="31.6144537838852" lon="-4.789802097192306"><ele>932.0</ele><time>2026-04-30T09:12:57Z</time></trkpt><trkpt lat="31.614369447745794" lon="-4.789587403110995"><ele>931.0</ele><time>2026-04-30T09:12:58Z</time></trkpt><trkpt lat="31.614293551860367" lon="-4.789363238218802"><ele>931.6666666666666</ele><time>2026-04-30T09:12:59Z</time></trkpt><trkpt lat="31.614222279076227" lon="-4.789131192228713"><ele>932.3333333333333</ele><time>2026-04-30T09:13:00Z</time></trkpt><trkpt lat="31.614150079353813" lon="-4.788895961198832"><ele>933.0</ele><time>2026-04-30T09:13:01Z</time></trkpt><trkpt lat="31.61408066667487" lon="-4.788662016097802"><ele>933.6666666666667</ele><time>2026-04-30T09:13:02Z</time></trkpt><trkpt lat="31.614010665864352" lon="-4.788427124033832"><ele>934.3333333333334</ele><time>2026-04-30T09:13:03Z</time></trkpt><trkpt lat="31.613937550414835" lon="-4.7881936358939345"><ele>935.0</ele><time>2026-04-30T09:13:04Z</time></trkpt><trkpt lat="31.613864007342862" lon="-4.787958256576004"><ele>935.0</ele><time>2026-04-30T09:13:05Z</time></trkpt><trkpt lat="31.613789129784106" lon="-4.7877206034352024"><ele>935.0</ele><time>2026-04-30T09:13:06Z</time></trkpt><trkpt lat="31.61371503546067" lon="-4.787479908553228"><ele>935.0</ele><time>2026-04-30T09:13:07Z</time></trkpt><trkpt lat="31.613638240278956" lon="-4.7872419239262305"><ele>934.3333333333334</ele><time>2026-04-30T09:13:08Z</time></trkpt><trkpt lat="31.613559092182335" lon="-4.78700050579133"><ele>933.6666666666667</ele><time>2026-04-30T09:13:09Z</time></trkpt><trkpt lat="31.613477525805415" lon="-4.786758680417006"><ele>933.0</ele><time>2026-04-30T09:13:10Z</time></trkpt><trkpt lat="31.613400096981366" lon="-4.7865154534464445"><ele>932.6666666666667</ele><time>2026-04-30T09:13:11Z</time></trkpt><trkpt lat="31.613322708567292" lon="-4.786276745891713"><ele>932.3333333333334</ele><time>2026-04-30T09:13:12Z</time></trkpt><trkpt lat="31.613245085173507" lon="-4.786041318193878"><ele>932.0</ele><time>2026-04-30T09:13:13Z</time></trkpt><trkpt lat="31.61317325601814" lon="-4.7858169828270345"><ele>931.6666666666667</ele><time>2026-04-30T09:13:14Z</time></trkpt><trkpt lat="31.613100984584044" lon="-4.785589869947298"><ele>931.3333333333333</ele><time>2026-04-30T09:13:15Z</time></trkpt><trkpt lat="31.613029526757643" lon="-4.785365211037027"><ele>931.0</ele><time>2026-04-30T09:13:16Z</time></trkpt><trkpt lat="31.61295932433597" lon="-4.7851328720777815"><ele>931.0</ele><time>2026-04-30T09:13:17Z</time></trkpt><trkpt lat="31.61289073784727" lon="-4.7848968693386755"><ele>931.0</ele><time>2026-04-30T09:13:18Z</time></trkpt><trkpt lat="31.61281843006307" lon="-4.784662221718658"><ele>931.0</ele><time>2026-04-30T09:13:19Z</time></trkpt><trkpt lat="31.61274192056128" lon="-4.784429786579355"><ele>932.3333333333333</ele><time>2026-04-30T09:13:20Z</time></trkpt><trkpt lat="31.612667681167792" lon="-4.784195272957909"><ele>933.6666666666667</ele><time>2026-04-30T09:13:21Z</time></trkpt><trkpt lat="31.6125944626722" lon="-4.78396072288076"><ele>935.0</ele><time>2026-04-30T09:13:22Z</time></trkpt><trkpt lat="31.6125209546376" lon="-4.783729703152257"><ele>934.0</ele><time>2026-04-30T09:13:23Z</time></trkpt><trkpt lat="31.612448085650943" lon="-4.7835032873197765"><ele>933.0</ele><time>2026-04-30T09:13:24Z</time></trkpt><trkpt lat="31.612376695594826" lon="-4.783279910232211"><ele>932.0</ele><time>2026-04-30T09:13:25Z</time></trkpt><trkpt lat="31.61230796396855" lon="-4.783053893999538"><ele>932.0</ele><time>2026-04-30T09:13:26Z</time></trkpt><trkpt lat="31.61224947935211" lon="-4.782818681212202"><ele>932.0</ele><time>2026-04-30T09:13:27Z</time></trkpt><trkpt lat="31.612202709855346" lon="-4.782575780074015"><ele>932.0</ele><time>2026-04-30T09:13:28Z</time></trkpt><trkpt lat="31.61216712456879" lon="-4.782325901851259"><ele>932.0</ele><time>2026-04-30T09:13:29Z</time></trkpt><trkpt lat="31.612140008009675" lon="-4.782069889943148"><ele>932.0</ele><time>2026-04-30T09:13:30Z</time></trkpt><trkpt lat="31.612108306577763" lon="-4.78180789001361"><ele>932.0</ele><time>2026-04-30T09:13:31Z</time></trkpt><trkpt lat="31.61207422420955" lon="-4.781547153719167"><ele>932.0</ele><time>2026-04-30T09:13:32Z</time></trkpt><trkpt lat="31.61203858954189" lon="-4.781283124971069"><ele>932.0</ele><time>2026-04-30T09:13:33Z</time></trkpt><trkpt lat="31.6120024595852" lon="-4.781015970502368"><ele>931.5</ele><time>2026-04-30T09:13:34Z</time></trkpt><trkpt lat="31.611966504713394" lon="-4.780747768202224"><ele>931.0</ele><time>2026-04-30T09:13:35Z</time></trkpt><trkpt lat="31.61193389524562" lon="-4.780482105894659"><ele>931.0</ele><time>2026-04-30T09:13:36Z</time></trkpt><trkpt lat="31.61190027953944" lon="-4.780212854887514"><ele>931.0</ele><time>2026-04-30T09:13:37Z</time></trkpt><trkpt lat="31.611863027566688" lon="-4.779944014836595"><ele>929.5</ele><time>2026-04-30T09:13:38Z</time></trkpt><trkpt lat="31.611825203009573" lon="-4.779674160952891"><ele>928.0</ele><time>2026-04-30T09:13:39Z</time></trkpt><trkpt lat="31.611788974442703" lon="-4.779408170513631"><ele>928.0</ele><time>2026-04-30T09:13:40Z</time></trkpt><trkpt lat="31.61175496131023" lon="-4.779146046469062"><ele>928.0</ele><time>2026-04-30T09:13:41Z</time></trkpt><trkpt lat="31.611721687164778" lon="-4.778885241726201"><ele>928.0</ele><time>2026-04-30T09:13:42Z</time></trkpt><trkpt lat="31.611685829047392" lon="-4.778624571027993"><ele>928.0</ele><time>2026-04-30T09:13:43Z</time></trkpt><trkpt lat="31.611650496548773" lon="-4.778365833767044"><ele>928.0</ele><time>2026-04-30T09:13:44Z</time></trkpt><trkpt lat="31.61161570914425" lon="-4.778107816927714"><ele>928.3333333333333</ele><time>2026-04-30T09:13:45Z</time></trkpt><trkpt lat="31.611581143851193" lon="-4.777847270950459"><ele>928.6666666666667</ele><time>2026-04-30T09:13:46Z</time></trkpt><trkpt lat="31.611547939053345" lon="-4.7775865020432455"><ele>929.0</ele><time>2026-04-30T09:13:47Z</time></trkpt><trkpt lat="31.611514189915155" lon="-4.7773258218269765"><ele>929.0</ele><time>2026-04-30T09:13:48Z</time></trkpt><trkpt lat="31.611479897240724" lon="-4.777065119650215"><ele>929.0</ele><time>2026-04-30T09:13:49Z</time></trkpt><trkpt lat="31.611445795299282" lon="-4.776804197325559"><ele>929.0</ele><time>2026-04-30T09:13:50Z</time></trkpt><trkpt lat="31.6114109383712" lon="-4.7765439503892555"><ele>930.0</ele><time>2026-04-30T09:13:51Z</time></trkpt><trkpt lat="31.611376563016726" lon="-4.77628239993549"><ele>931.0</ele><time>2026-04-30T09:13:52Z</time></trkpt><trkpt lat="31.611344290923817" lon="-4.776021185003068"><ele>930.5</ele><time>2026-04-30T09:13:53Z</time></trkpt><trkpt lat="31.611311410901354" lon="-4.775758999405135"><ele>930.0</ele><time>2026-04-30T09:13:54Z</time></trkpt><trkpt lat="31.611276004506536" lon="-4.7754961837366965"><ele>930.0</ele><time>2026-04-30T09:13:55Z</time></trkpt><trkpt lat="31.611241493183133" lon="-4.775235144022421"><ele>930.0</ele><time>2026-04-30T09:13:56Z</time></trkpt><trkpt lat="31.611206763210987" lon="-4.774972044830852"><ele>929.5</ele><time>2026-04-30T09:13:57Z</time></trkpt><trkpt lat="31.61117213341929" lon="-4.774708463703398"><ele>929.0</ele><time>2026-04-30T09:13:58Z</time></trkpt><trkpt lat="31.611138939328622" lon="-4.77444441428261"><ele>928.0</ele><time>2026-04-30T09:13:59Z</time></trkpt><trkpt lat="31.611105819509152" lon="-4.7741809472347825"><ele>927.0</ele><time>2026-04-30T09:14:00Z</time></trkpt><trkpt lat="31.611071818044596" lon="-4.773917585941081"><ele>927.0</ele><time>2026-04-30T09:14:01Z</time></trkpt><trkpt lat="31.611036731692355" lon="-4.773655561081646"><ele>927.0</ele><time>2026-04-30T09:14:02Z</time></trkpt><trkpt lat="31.611001625050857" lon="-4.77339397204523"><ele>927.3333333333333</ele><time>2026-04-30T09:14:03Z</time></trkpt><trkpt lat="31.61096675340741" lon="-4.773134933753917"><ele>927.6666666666666</ele><time>2026-04-30T09:14:04Z</time></trkpt><trkpt lat="31.610908462051338" lon="-4.772883515481993"><ele>928.0</ele><time>2026-04-30T09:14:05Z</time></trkpt><trkpt lat="31.610851292642334" lon="-4.77263226816585"><ele>928.3333333333333</ele><time>2026-04-30T09:14:06Z</time></trkpt><trkpt lat="31.610776507198917" lon="-4.772386922711982"><ele>928.6666666666667</ele><time>2026-04-30T09:14:07Z</time></trkpt><trkpt lat="31.61070182585642" lon="-4.772137552506277"><ele>929.0</ele><time>2026-04-30T09:14:08Z</time></trkpt><trkpt lat="31.61058958793543" lon="-4.771910165754444"><ele>928.5</ele><time>2026-04-30T09:14:09Z</time></trkpt><trkpt lat="31.610469997765566" lon="-4.771682240188935"><ele>928.0</ele><time>2026-04-30T09:14:10Z</time></trkpt><trkpt lat="31.610351279087766" lon="-4.771457455537887"><ele>927.5</ele><time>2026-04-30T09:14:11Z</time></trkpt><trkpt lat="31.610230192412992" lon="-4.771232418520889"><ele>927.0</ele><time>2026-04-30T09:14:12Z</time></trkpt><trkpt lat="31.61010948840126" lon="-4.771008786713432"><ele>926.0</ele><time>2026-04-30T09:14:13Z</time></trkpt><trkpt lat="31.609985755127106" lon="-4.770787130546535"><ele>925.0</ele><time>2026-04-30T09:14:14Z</time></trkpt><trkpt lat="31.609862962972482" lon="-4.770565014511747"><ele>925.0</ele><time>2026-04-30T09:14:15Z</time></trkpt><trkpt lat="31.60973952375881" lon="-4.770342895050832"><ele>925.0</ele><time>2026-04-30T09:14:16Z</time></trkpt><trkpt lat="31.609617868562385" lon="-4.7701195941204615"><ele>925.3333333333333</ele><time>2026-04-30T09:14:17Z</time></trkpt><trkpt lat="31.60950082192901" lon="-4.769896782643296"><ele>925.6666666666667</ele><time>2026-04-30T09:14:18Z</time></trkpt><trkpt lat="31.609383547689387" lon="-4.769672940307857"><ele>926.0</ele><time>2026-04-30T09:14:19Z</time></trkpt><trkpt lat="31.609263057504382" lon="-4.769448037449346"><ele>926.3333333333334</ele><time>2026-04-30T09:14:20Z</time></trkpt><trkpt lat="31.60914252371655" lon="-4.769226675327494"><ele>926.6666666666667</ele><time>2026-04-30T09:14:21Z</time></trkpt><trkpt lat="31.60902222263344" lon="-4.769003717427696"><ele>927.0</ele><time>2026-04-30T09:14:22Z</time></trkpt><trkpt lat="31.608899997567608" lon="-4.768779563151153"><ele>927.0</ele><time>2026-04-30T09:14:23Z</time></trkpt><trkpt lat="31.608777570944422" lon="-4.768557914234757"><ele>927.0</ele><time>2026-04-30T09:14:24Z</time></trkpt><trkpt lat="31.60865417983208" lon="-4.768332228215769"><ele>925.5</ele><time>2026-04-30T09:14:25Z</time></trkpt><trkpt lat="31.608530826456125" lon="-4.768105966811049"><ele>924.0</ele><time>2026-04-30T09:14:26Z</time></trkpt><trkpt lat="31.60841087827294" lon="-4.767880142351277"><ele>924.5</ele><time>2026-04-30T09:14:27Z</time></trkpt><trkpt lat="31.608291138869472" lon="-4.7676505664626445"><ele>925.0</ele><time>2026-04-30T09:14:28Z</time></trkpt><trkpt lat="31.60817165421525" lon="-4.767421617213204"><ele>925.0</ele><time>2026-04-30T09:14:29Z</time></trkpt><trkpt lat="31.608051723072254" lon="-4.767192433432449"><ele>925.0</ele><time>2026-04-30T09:14:30Z</time></trkpt><trkpt lat="31.607931362117757" lon="-4.766964285277517"><ele>925.0</ele><time>2026-04-30T09:14:31Z</time></trkpt><trkpt lat="31.607808426003693" lon="-4.766738568003835"><ele>925.0</ele><time>2026-04-30T09:14:32Z</time></trkpt><trkpt lat="31.607686049732774" lon="-4.766513170696627"><ele>925.0</ele><time>2026-04-30T09:14:33Z</time></trkpt><trkpt lat="31.607563974593518" lon="-4.766288084350912"><ele>925.0</ele><time>2026-04-30T09:14:34Z</time></trkpt><trkpt lat="31.607441209249952" lon="-4.766065138711068"><ele>925.0</ele><time>2026-04-30T09:14:35Z</time></trkpt><trkpt lat="31.607318474966632" lon="-4.7658403871511705"><ele>925.0</ele><time>2026-04-30T09:14:36Z</time></trkpt><trkpt lat="31.607197433651365" lon="-4.765612554845648"><ele>925.0</ele><time>2026-04-30T09:14:37Z</time></trkpt><trkpt lat="31.607078029587395" lon="-4.765389001933456"><ele>925.0</ele><time>2026-04-30T09:14:38Z</time></trkpt><trkpt lat="31.60695929779343" lon="-4.765162112211633"><ele>925.0</ele><time>2026-04-30T09:14:39Z</time></trkpt><trkpt lat="31.606840511064235" lon="-4.764934066521349"><ele>925.0</ele><time>2026-04-30T09:14:40Z</time></trkpt><trkpt lat="31.606717813628297" lon="-4.7647042380426345"><ele>925.0</ele><time>2026-04-30T09:14:41Z</time></trkpt><trkpt lat="31.606592265462247" lon="-4.764476682405693"><ele>925.0</ele><time>2026-04-30T09:14:42Z</time></trkpt><trkpt lat="31.60646520991852" lon="-4.764246299284085"><ele>925.5</ele><time>2026-04-30T09:14:43Z</time></trkpt><trkpt lat="31.60633894793422" lon="-4.7640137577002015"><ele>926.0</ele><time>2026-04-30T09:14:44Z</time></trkpt><trkpt lat="31.606211829625074" lon="-4.763780871842566"><ele>925.0</ele><time>2026-04-30T09:14:45Z</time></trkpt><trkpt lat="31.606089034437428" lon="-4.763553579458492"><ele>924.0</ele><time>2026-04-30T09:14:46Z</time></trkpt><trkpt lat="31.605973287381783" lon="-4.76334164306942"><ele>923.0</ele><time>2026-04-30T09:14:47Z</time></trkpt><trkpt lat="31.605865795756575" lon="-4.763140956148748"><ele>923.0</ele><time>2026-04-30T09:14:48Z</time></trkpt><trkpt lat="31.60576184404003" lon="-4.762937857863503"><ele>923.0</ele><time>2026-04-30T09:14:49Z</time></trkpt><trkpt lat="31.605656581104906" lon="-4.762728951457824"><ele>923.0</ele><time>2026-04-30T09:14:50Z</time></trkpt><trkpt lat="31.605548764108757" lon="-4.762516877333025"><ele>922.6666666666667</ele><time>2026-04-30T09:14:51Z</time></trkpt><trkpt lat="31.605433292060845" lon="-4.762307495208389"><ele>922.3333333333333</ele><time>2026-04-30T09:14:52Z</time></trkpt><trkpt lat="31.605314315554935" lon="-4.762096935885718"><ele>922.0</ele><time>2026-04-30T09:14:53Z</time></trkpt><trkpt lat="31.605196620240278" lon="-4.761883113280916"><ele>922.6666666666666</ele><time>2026-04-30T09:14:54Z</time></trkpt><trkpt lat="31.605078212739887" lon="-4.76166495300885"><ele>923.3333333333333</ele><time>2026-04-30T09:14:55Z</time></trkpt><trkpt lat="31.604959112103742" lon="-4.76144736879739"><ele>924.0</ele><time>2026-04-30T09:14:56Z</time></trkpt><trkpt lat="31.60484233244827" lon="-4.7612259350600405"><ele>924.3333333333333</ele><time>2026-04-30T09:14:57Z</time></trkpt><trkpt lat="31.604723893743607" lon="-4.761002625499746"><ele>924.6666666666666</ele><time>2026-04-30T09:14:58Z</time></trkpt><trkpt lat="31.604604150838206" lon="-4.760780528185037"><ele>925.0</ele><time>2026-04-30T09:14:59Z</time></trkpt><trkpt lat="31.604483736618473" lon="-4.760555724505542"><ele>924.0</ele><time>2026-04-30T09:15:00Z</time></trkpt><trkpt lat="31.604363911469047" lon="-4.760332660917141"><ele>923.0</ele><time>2026-04-30T09:15:01Z</time></trkpt><trkpt lat="31.604245852648976" lon="-4.760113282077589"><ele>922.0</ele><time>2026-04-30T09:15:02Z</time></trkpt><trkpt lat="31.604126142122556" lon="-4.759892404242258"><ele>922.0</ele><time>2026-04-30T09:15:03Z</time></trkpt><trkpt lat="31.604010798902817" lon="-4.759674812852561"><ele>922.0</ele><time>2026-04-30T09:15:04Z</time></trkpt><trkpt lat="31.603893447230693" lon="-4.759457976995239"><ele>922.0</ele><time>2026-04-30T09:15:05Z</time></trkpt><trkpt lat="31.603774088352004" lon="-4.759245545577152"><ele>921.3333333333333</ele><time>2026-04-30T09:15:06Z</time></trkpt><trkpt lat="31.60365700384497" lon="-4.759028868748098"><ele>920.6666666666667</ele><time>2026-04-30T09:15:07Z</time></trkpt><trkpt lat="31.603540754247707" lon="-4.758810065368339"><ele>920.0</ele><time>2026-04-30T09:15:08Z</time></trkpt><trkpt lat="31.603423886022803" lon="-4.758589737576838"><ele>920.0</ele><time>2026-04-30T09:15:09Z</time></trkpt><trkpt lat="31.60330555466973" lon="-4.758367451380636"><ele>920.0</ele><time>2026-04-30T09:15:10Z</time></trkpt><trkpt lat="31.603187816238915" lon="-4.758144802718133"><ele>920.0</ele><time>2026-04-30T09:15:11Z</time></trkpt><trkpt lat="31.603069555151194" lon="-4.757919935614669"><ele>920.5</ele><time>2026-04-30T09:15:12Z</time></trkpt><trkpt lat="31.6029526666737" lon="-4.757695440731172"><ele>921.0</ele><time>2026-04-30T09:15:13Z</time></trkpt><trkpt lat="31.602834409552855" lon="-4.757469180443154"><ele>920.5</ele><time>2026-04-30T09:15:14Z</time></trkpt><trkpt lat="31.602714032439" lon="-4.757246007911195"><ele>920.0</ele><time>2026-04-30T09:15:15Z</time></trkpt><trkpt lat="31.602592649618735" lon="-4.757023179394119"><ele>920.0</ele><time>2026-04-30T09:15:16Z</time></trkpt><trkpt lat="31.602471211485234" lon="-4.7568004135812485"><ele>920.0</ele><time>2026-04-30T09:15:17Z</time></trkpt><trkpt lat="31.602348285423577" lon="-4.756576901664038"><ele>920.0</ele><time>2026-04-30T09:15:18Z</time></trkpt><trkpt lat="31.60222573567011" lon="-4.756353500013843"><ele>920.0</ele><time>2026-04-30T09:15:19Z</time></trkpt><trkpt lat="31.602104480414088" lon="-4.756126680228576"><ele>920.5</ele><time>2026-04-30T09:15:20Z</time></trkpt><trkpt lat="31.601986031652228" lon="-4.7558976524587395"><ele>921.0</ele><time>2026-04-30T09:15:21Z</time></trkpt><trkpt lat="31.601864984907074" lon="-4.755668336975914"><ele>921.0</ele><time>2026-04-30T09:15:22Z</time></trkpt><trkpt lat="31.601744141571547" lon="-4.755438767650762"><ele>921.0</ele><time>2026-04-30T09:15:23Z</time></trkpt><trkpt lat="31.60161907923423" lon="-4.755209705183494"><ele>920.5</ele><time>2026-04-30T09:15:24Z</time></trkpt><trkpt lat="31.601495039213404" lon="-4.754981135093249"><ele>920.0</ele><time>2026-04-30T09:15:25Z</time></trkpt><trkpt lat="31.601372693663606" lon="-4.754750777524765"><ele>920.0</ele><time>2026-04-30T09:15:26Z</time></trkpt><trkpt lat="31.601250972856807" lon="-4.754519827734946"><ele>920.0</ele><time>2026-04-30T09:15:27Z</time></trkpt><trkpt lat="31.601125394007582" lon="-4.7542901497439605"><ele>919.0</ele><time>2026-04-30T09:15:28Z</time></trkpt><trkpt lat="31.60099881382823" lon="-4.754059672910917"><ele>918.0</ele><time>2026-04-30T09:15:29Z</time></trkpt><trkpt lat="31.600872676986185" lon="-4.75383006176191"><ele>918.0</ele><time>2026-04-30T09:15:30Z</time></trkpt><trkpt lat="31.60074757807698" lon="-4.753599170418286"><ele>918.0</ele><time>2026-04-30T09:15:31Z</time></trkpt><trkpt lat="31.600622832231437" lon="-4.753368532484879"><ele>919.0</ele><time>2026-04-30T09:15:32Z</time></trkpt><trkpt lat="31.600497777392338" lon="-4.753135161273792"><ele>920.0</ele><time>2026-04-30T09:15:33Z</time></trkpt><trkpt lat="31.600375043894257" lon="-4.752906205800156"><ele>918.5</ele><time>2026-04-30T09:15:34Z</time></trkpt><trkpt lat="31.60025405913382" lon="-4.752677827853938"><ele>917.0</ele><time>2026-04-30T09:15:35Z</time></trkpt><trkpt lat="31.60013748434107" lon="-4.752453962315325"><ele>917.0</ele><time>2026-04-30T09:15:36Z</time></trkpt><trkpt lat="31.60002544905591" lon="-4.752236296127201"><ele>917.0</ele><time>2026-04-30T09:15:37Z</time></trkpt><trkpt lat="31.59991141478932" lon="-4.752028644817185"><ele>917.0</ele><time>2026-04-30T09:15:38Z</time></trkpt><trkpt lat="31.59978357784773" lon="-4.751833988852248"><ele>917.0</ele><time>2026-04-30T09:15:39Z</time></trkpt><trkpt lat="31.599634207617566" lon="-4.751662170262636"><ele>917.0</ele><time>2026-04-30T09:15:40Z</time></trkpt><trkpt lat="31.599466980159843" lon="-4.751502278410477"><ele>917.0</ele><time>2026-04-30T09:15:41Z</time></trkpt><trkpt lat="31.59929350014666" lon="-4.751352780708731"><ele>917.0</ele><time>2026-04-30T09:15:42Z</time></trkpt><trkpt lat="31.59911881604069" lon="-4.7511999506647715"><ele>917.0</ele><time>2026-04-30T09:15:43Z</time></trkpt><trkpt lat="31.598945488998428" lon="-4.751042775948847"><ele>917.0</ele><time>2026-04-30T09:15:44Z</time></trkpt><trkpt lat="31.59877239044785" lon="-4.750885412723759"><ele>917.0</ele><time>2026-04-30T09:15:45Z</time></trkpt><trkpt lat="31.598596935624517" lon="-4.75072665725837"><ele>917.0</ele><time>2026-04-30T09:15:46Z</time></trkpt><trkpt lat="31.59842438030133" lon="-4.7505672794435165"><ele>917.0</ele><time>2026-04-30T09:15:47Z</time></trkpt><trkpt lat="31.59825018319878" lon="-4.750410232527906"><ele>917.0</ele><time>2026-04-30T09:15:48Z</time></trkpt><trkpt lat="31.598075369712824" lon="-4.750251438916236"><ele>917.0</ele><time>2026-04-30T09:15:49Z</time></trkpt><trkpt lat="31.59790503364767" lon="-4.750091408826023"><ele>917.0</ele><time>2026-04-30T09:15:50Z</time></trkpt><trkpt lat="31.59773369716268" lon="-4.749935359477926"><ele>917.0</ele><time>2026-04-30T09:15:51Z</time></trkpt><trkpt lat="31.597562593287805" lon="-4.749780704694598"><ele>917.0</ele><time>2026-04-30T09:15:52Z</time></trkpt><trkpt lat="31.597389280894866" lon="-4.749622248517895"><ele>917.0</ele><time>2026-04-30T09:15:53Z</time></trkpt><trkpt lat="31.597216131169" lon="-4.7494642908164515"><ele>917.0</ele><time>2026-04-30T09:15:54Z</time></trkpt><trkpt lat="31.59704010533786" lon="-4.749305597207017"><ele>917.0</ele><time>2026-04-30T09:15:55Z</time></trkpt><trkpt lat="31.596865273843814" lon="-4.749147648914456"><ele>917.0</ele><time>2026-04-30T09:15:56Z</time></trkpt><trkpt lat="31.596689878447098" lon="-4.748990359934282"><ele>916.6666666666667</ele><time>2026-04-30T09:15:57Z</time></trkpt><trkpt lat="31.596516403599466" lon="-4.748830402413102"><ele>916.3333333333333</ele><time>2026-04-30T09:15:58Z</time></trkpt><trkpt lat="31.596343196786954" lon="-4.748666352919"><ele>916.0</ele><time>2026-04-30T09:15:59Z</time></trkpt><trkpt lat="31.59617063515594" lon="-4.748500324145908"><ele>916.3333333333333</ele><time>2026-04-30T09:16:00Z</time></trkpt><trkpt lat="31.595998232046078" lon="-4.748338568176529"><ele>916.6666666666667</ele><time>2026-04-30T09:16:01Z</time></trkpt><trkpt lat="31.5958244741116" lon="-4.748182534590931"><ele>917.0</ele><time>2026-04-30T09:16:02Z</time></trkpt><trkpt lat="31.59565673564939" lon="-4.748030570981664"><ele>917.0</ele><time>2026-04-30T09:16:03Z</time></trkpt><trkpt lat="31.595490162764246" lon="-4.7478794368576"><ele>917.0</ele><time>2026-04-30T09:16:04Z</time></trkpt><trkpt lat="31.595325193809064" lon="-4.747727195035454"><ele>917.0</ele><time>2026-04-30T09:16:05Z</time></trkpt><trkpt lat="31.595164114983795" lon="-4.747573250915703"><ele>916.6666666666667</ele><time>2026-04-30T09:16:06Z</time></trkpt><trkpt lat="31.594999621034564" lon="-4.74742735540531"><ele>916.3333333333333</ele><time>2026-04-30T09:16:07Z</time></trkpt><trkpt lat="31.594826844856396" lon="-4.747305814613222"><ele>916.0</ele><time>2026-04-30T09:16:08Z</time></trkpt><trkpt lat="31.594644789596646" lon="-4.747207511186614"><ele>915.6666666666666</ele><time>2026-04-30T09:16:09Z</time></trkpt><trkpt lat="31.594456472165835" lon="-4.747134927305088"><ele>915.3333333333333</ele><time>2026-04-30T09:16:10Z</time></trkpt><trkpt lat="31.594261460839657" lon="-4.747097328882476"><ele>915.0</ele><time>2026-04-30T09:16:11Z</time></trkpt><trkpt lat="31.59405664352039" lon="-4.747080723776808"><ele>915.0</ele><time>2026-04-30T09:16:12Z</time></trkpt><trkpt lat="31.59384624714045" lon="-4.747089647168742"><ele>915.0</ele><time>2026-04-30T09:16:13Z</time></trkpt><trkpt lat="31.593633122191225" lon="-4.747114467158535"><ele>915.0</ele><time>2026-04-30T09:16:14Z</time></trkpt><trkpt lat="31.593417180975834" lon="-4.747165794232744"><ele>915.0</ele><time>2026-04-30T09:16:15Z</time></trkpt><trkpt lat="31.593200043713175" lon="-4.747225307730789"><ele>915.0</ele><time>2026-04-30T09:16:16Z</time></trkpt><trkpt lat="31.592983508864688" lon="-4.747285227886489"><ele>915.0</ele><time>2026-04-30T09:16:17Z</time></trkpt><trkpt lat="31.592763042336145" lon="-4.747335383892576"><ele>915.0</ele><time>2026-04-30T09:16:18Z</time></trkpt><trkpt lat="31.592543599085538" lon="-4.747379944343075"><ele>915.0</ele><time>2026-04-30T09:16:19Z</time></trkpt><trkpt lat="31.59232488316146" lon="-4.747428046103849"><ele>915.0</ele><time>2026-04-30T09:16:20Z</time></trkpt><trkpt lat="31.592114840992824" lon="-4.747475416130516"><ele>914.6666666666667</ele><time>2026-04-30T09:16:21Z</time></trkpt><trkpt lat="31.59191345558766" lon="-4.747520813305728"><ele>914.3333333333334</ele><time>2026-04-30T09:16:22Z</time></trkpt><trkpt lat="31.591719167470508" lon="-4.747561148519874"><ele>914.0</ele><time>2026-04-30T09:16:23Z</time></trkpt><trkpt lat="31.591523562254086" lon="-4.747599144008181"><ele>914.0</ele><time>2026-04-30T09:16:24Z</time></trkpt><trkpt lat="31.591325728684655" lon="-4.74763851713177"><ele>914.0</ele><time>2026-04-30T09:16:25Z</time></trkpt><trkpt lat="31.59112657570946" lon="-4.747681557371608"><ele>914.0</ele><time>2026-04-30T09:16:26Z</time></trkpt><trkpt lat="31.590923417640404" lon="-4.747729827369604"><ele>914.0</ele><time>2026-04-30T09:16:27Z</time></trkpt><trkpt lat="31.590714580766022" lon="-4.747772269670887"><ele>914.0</ele><time>2026-04-30T09:16:28Z</time></trkpt><trkpt lat="31.590501487398903" lon="-4.747816859464929"><ele>914.0</ele><time>2026-04-30T09:16:29Z</time></trkpt><trkpt lat="31.59028966007501" lon="-4.747867757678243"><ele>914.0</ele><time>2026-04-30T09:16:30Z</time></trkpt><trkpt lat="31.590094664069277" lon="-4.747912591638374"><ele>914.0</ele><time>2026-04-30T09:16:31Z</time></trkpt><trkpt lat="31.589906437650384" lon="-4.747952955026376"><ele>914.0</ele><time>2026-04-30T09:16:32Z</time></trkpt><trkpt lat="31.589714266238083" lon="-4.747995044828913"><ele>914.0</ele><time>2026-04-30T09:16:33Z</time></trkpt><trkpt lat="31.58951720461035" lon="-4.748034300834061"><ele>914.0</ele><time>2026-04-30T09:16:34Z</time></trkpt><trkpt lat="31.58931806880237" lon="-4.748078760488878"><ele>914.0</ele><time>2026-04-30T09:16:35Z</time></trkpt><trkpt lat="31.589115931925395" lon="-4.748126768984509"><ele>914.0</ele><time>2026-04-30T09:16:36Z</time></trkpt><trkpt lat="31.588923519126055" lon="-4.748166276684348"><ele>914.0</ele><time>2026-04-30T09:16:37Z</time></trkpt><trkpt lat="31.588739815213476" lon="-4.748200251989513"><ele>914.0</ele><time>2026-04-30T09:16:38Z</time></trkpt><trkpt lat="31.588549508154696" lon="-4.748229943854951"><ele>914.0</ele><time>2026-04-30T09:16:39Z</time></trkpt><trkpt lat="31.588353674259903" lon="-4.748243412709733"><ele>914.0</ele><time>2026-04-30T09:16:40Z</time></trkpt><trkpt lat="31.588152474569224" lon="-4.74823954619395"><ele>914.0</ele><time>2026-04-30T09:16:41Z</time></trkpt><trkpt lat="31.587946238113467" lon="-4.748221309796115"><ele>914.3333333333334</ele><time>2026-04-30T09:16:42Z</time></trkpt><trkpt lat="31.587736061827624" lon="-4.748202555516246"><ele>914.6666666666667</ele><time>2026-04-30T09:16:43Z</time></trkpt><trkpt lat="31.587523695899485" lon="-4.748196200456625"><ele>915.0</ele><time>2026-04-30T09:16:44Z</time></trkpt><trkpt lat="31.587308842081914" lon="-4.7481892442902005"><ele>915.0</ele><time>2026-04-30T09:16:45Z</time></trkpt><trkpt lat="31.587092571271548" lon="-4.748177053339151"><ele>915.0</ele><time>2026-04-30T09:16:46Z</time></trkpt><trkpt lat="31.586877076770378" lon="-4.7481630250958045"><ele>915.0</ele><time>2026-04-30T09:16:47Z</time></trkpt><trkpt lat="31.586658494340305" lon="-4.748153492721754"><ele>914.6666666666667</ele><time>2026-04-30T09:16:48Z</time></trkpt><trkpt lat="31.586441991865883" lon="-4.748143486445472"><ele>914.3333333333334</ele><time>2026-04-30T09:16:49Z</time></trkpt><trkpt lat="31.586226382333596" lon="-4.748134755975901"><ele>914.0</ele><time>2026-04-30T09:16:50Z</time></trkpt><trkpt lat="31.586016289312614" lon="-4.748122642985355"><ele>913.3333333333334</ele><time>2026-04-30T09:16:51Z</time></trkpt><trkpt lat="31.585807418655087" lon="-4.748110538092235"><ele>912.6666666666667</ele><time>2026-04-30T09:16:52Z</time></trkpt><trkpt lat="31.585598991773523" lon="-4.748103684873332"><ele>912.0</ele><time>2026-04-30T09:16:53Z</time></trkpt><trkpt lat="31.585394002409988" lon="-4.748095425078446"><ele>911.3333333333333</ele><time>2026-04-30T09:16:54Z</time></trkpt><trkpt lat="31.58519372066283" lon="-4.748085444723417"><ele>910.6666666666666</ele><time>2026-04-30T09:16:55Z</time></trkpt><trkpt lat="31.584992992097813" lon="-4.748073040998867"><ele>910.0</ele><time>2026-04-30T09:16:56Z</time></trkpt><trkpt lat="31.58479407953694" lon="-4.748060574319927"><ele>910.0</ele><time>2026-04-30T09:16:57Z</time></trkpt><trkpt lat="31.58459560096572" lon="-4.748047883242834"><ele>910.0</ele><time>2026-04-30T09:16:58Z</time></trkpt><trkpt lat="31.584398261062496" lon="-4.748041438515794"><ele>910.0</ele><time>2026-04-30T09:16:59Z</time></trkpt><trkpt lat="31.584202036687152" lon="-4.748035360721637"><ele>910.3333333333333</ele><time>2026-04-30T09:17:00Z</time></trkpt><trkpt lat="31.58400680056847" lon="-4.748025177681473"><ele>910.6666666666667</ele><time>2026-04-30T09:17:01Z</time></trkpt><trkpt lat="31.583810290804198" lon="-4.748013456860818"><ele>911.0</ele><time>2026-04-30T09:17:02Z</time></trkpt><trkpt lat="31.583613778110685" lon="-4.748002181983604"><ele>911.0</ele><time>2026-04-30T09:17:03Z</time></trkpt><trkpt lat="31.583419774408487" lon="-4.747994425546319"><ele>911.0</ele><time>2026-04-30T09:17:04Z</time></trkpt><trkpt lat="31.583224926254392" lon="-4.747985180070835"><ele>911.0</ele><time>2026-04-30T09:17:05Z</time></trkpt><trkpt lat="31.583031478580686" lon="-4.747973563721609"><ele>911.6666666666667</ele><time>2026-04-30T09:17:06Z</time></trkpt><trkpt lat="31.58284517231011" lon="-4.747964308102864"><ele>912.3333333333333</ele><time>2026-04-30T09:17:07Z</time></trkpt><trkpt lat="31.582668670141977" lon="-4.747956233874421"><ele>913.0</ele><time>2026-04-30T09:17:08Z</time></trkpt><trkpt lat="31.582505504776687" lon="-4.7479469287937075"><ele>913.0</ele><time>2026-04-30T09:17:09Z</time></trkpt><trkpt lat="31.582351152298727" lon="-4.747937503901555"><ele>913.0</ele><time>2026-04-30T09:17:10Z</time></trkpt><trkpt lat="31.58220285343285" lon="-4.747931753019691"><ele>913.0</ele><time>2026-04-30T09:17:11Z</time></trkpt><trkpt lat="31.58206390629955" lon="-4.747925414023591"><ele>913.0</ele><time>2026-04-30T09:17:12Z</time></trkpt><trkpt lat="31.58193190835093" lon="-4.74791862456111"><ele>914.25</ele><time>2026-04-30T09:17:13Z</time></trkpt><trkpt lat="31.581805157787542" lon="-4.747908013113652"><ele>915.5</ele><time>2026-04-30T09:17:14Z</time></trkpt><trkpt lat="31.581684964712295" lon="-4.747898208039108"><ele>916.75</ele><time>2026-04-30T09:17:15Z</time></trkpt><trkpt lat="31.581570646967208" lon="-4.747899804500523"><ele>918.0</ele><time>2026-04-30T09:17:16Z</time></trkpt><trkpt lat="31.581466544887224" lon="-4.74791681923235"><ele>918.0</ele><time>2026-04-30T09:17:17Z</time></trkpt><trkpt lat="31.58137279295956" lon="-4.74794387347413"><ele>918.0</ele><time>2026-04-30T09:17:18Z</time></trkpt><trkpt lat="31.581290483321446" lon="-4.747977589642736"><ele>918.0</ele><time>2026-04-30T09:17:19Z</time></trkpt><trkpt lat="31.581229948596555" lon="-4.748009393261533"><ele>918.0</ele><time>2026-04-30T09:17:20Z</time></trkpt><trkpt lat="31.581164463972037" lon="-4.748046249022073"><ele>918.0</ele><time>2026-04-30T09:17:22Z</time></trkpt><trkpt lat="31.581095491978775" lon="-4.748038004303561"><ele>918.0</ele><time>2026-04-30T09:17:24Z</time></trkpt><trkpt lat="31.580996417323107" lon="-4.747930994767891"><ele>918.3333333333334</ele><time>2026-04-30T09:17:26Z</time></trkpt><trkpt lat="31.58095497293575" lon="-4.747849273754934"><ele>918.6666666666667</ele><time>2026-04-30T09:17:27Z</time></trkpt><trkpt lat="31.580922406373016" lon="-4.747782600789917"><ele>919.0</ele><time>2026-04-30T09:17:28Z</time></trkpt><trkpt lat="31.58085414221022" lon="-4.747685486093741"><ele>919.3333333333334</ele><time>2026-04-30T09:17:30Z</time></trkpt><trkpt lat="31.580770510850375" lon="-4.747647872662616"><ele>919.6666666666667</ele><time>2026-04-30T09:17:32Z</time></trkpt><trkpt lat="31.580726942785283" lon="-4.74758660984373"><ele>920.0</ele><time>2026-04-30T09:18:05Z</time></trkpt><trkpt lat="31.58067026117099" lon="-4.747667398279865"><ele>919.9999999999999</ele><time>2026-04-30T09:18:17Z</time></trkpt><trkpt lat="31.58061076876384" lon="-4.747632510552117"><ele>920.0</ele><time>2026-04-30T09:18:34Z</time></trkpt><trkpt lat="31.580543516065397" lon="-4.747628403686158"><ele>919.9999999999999</ele><time>2026-04-30T09:18:44Z</time></trkpt><trkpt lat="31.580487155855035" lon="-4.7476616502088795"><ele>919.9999999999999</ele><time>2026-04-30T09:18:51Z</time></trkpt><trkpt lat="31.58052513262844" lon="-4.747733843381418"><ele>920.0</ele><time>2026-04-30T09:19:02Z</time></trkpt><trkpt lat="31.58060847657018" lon="-4.747677479316121"><ele>919.9999999999999</ele><time>2026-04-30T09:22:22Z</time></trkpt><trkpt lat="31.58053717866372" lon="-4.7477144180897906"><ele>919.9999999999999</ele><time>2026-04-30T09:24:19Z</time></trkpt><trkpt lat="31.580461065465247" lon="-4.74768602498159"><ele>919.2</ele><time>2026-04-30T09:24:21Z</time></trkpt><trkpt lat="31.580392807072702" lon="-4.747701093591156"><ele>918.4</ele><time>2026-04-30T09:24:22Z</time></trkpt><trkpt lat="31.58057398458385" lon="-4.747657486690059"><ele>917.5999999999999</ele><time>2026-04-30T09:24:33Z</time></trkpt><trkpt lat="31.580621263964794" lon="-4.747608416525412"><ele>916.8</ele><time>2026-04-30T09:24:48Z</time></trkpt><trkpt lat="31.580681493583757" lon="-4.747652869601633"><ele>916.0</ele><time>2026-04-30T09:24:57Z</time></trkpt><trkpt lat="31.5807410782494" lon="-4.747605318038801"><ele>916.0</ele><time>2026-04-30T09:26:14Z</time></trkpt><trkpt lat="31.580745679803456" lon="-4.747529171416522"><ele>915.9999999999999</ele><time>2026-04-30T09:26:18Z</time></trkpt><trkpt lat="31.58072679848192" lon="-4.747449418666462"><ele>915.9999999999999</ele><time>2026-04-30T09:26:19Z</time></trkpt><trkpt lat="31.5806668300561" lon="-4.747331556395911"><ele>916.0</ele><time>2026-04-30T09:26:20Z</time></trkpt><trkpt lat="31.580577118545893" lon="-4.747196427830379"><ele>916.0</ele><time>2026-04-30T09:26:21Z</time></trkpt><trkpt lat="31.580478828637712" lon="-4.747041861250758"><ele>915.6666666666666</ele><time>2026-04-30T09:26:22Z</time></trkpt><trkpt lat="31.580381410740337" lon="-4.746871964499784"><ele>915.3333333333333</ele><time>2026-04-30T09:26:23Z</time></trkpt><trkpt lat="31.58027362504695" lon="-4.7466782804862255"><ele>915.0</ele><time>2026-04-30T09:26:24Z</time></trkpt><trkpt lat="31.580159346216487" lon="-4.7464819794530415"><ele>915.0</ele><time>2026-04-30T09:26:25Z</time></trkpt><trkpt lat="31.580043707272356" lon="-4.746276370658309"><ele>915.0</ele><time>2026-04-30T09:26:26Z</time></trkpt><trkpt lat="31.57992332726355" lon="-4.746071865672379"><ele>915.0</ele><time>2026-04-30T09:26:27Z</time></trkpt><trkpt lat="31.57980131104897" lon="-4.745869265129227"><ele>914.3333333333333</ele><time>2026-04-30T09:26:28Z</time></trkpt><trkpt lat="31.57967681656109" lon="-4.745663179092217"><ele>913.6666666666666</ele><time>2026-04-30T09:26:29Z</time></trkpt><trkpt lat="31.57955976811815" lon="-4.745460431516216"><ele>913.0</ele><time>2026-04-30T09:26:30Z</time></trkpt><trkpt lat="31.579446918807555" lon="-4.745258869871549"><ele>912.0</ele><time>2026-04-30T09:26:31Z</time></trkpt><trkpt lat="31.57933138849115" lon="-4.745061844788319"><ele>911.0</ele><time>2026-04-30T09:26:32Z</time></trkpt><trkpt lat="31.579216148318043" lon="-4.744867576924854"><ele>910.0</ele><time>2026-04-30T09:26:33Z</time></trkpt><trkpt lat="31.579100773747232" lon="-4.744670082379376"><ele>910.0</ele><time>2026-04-30T09:26:34Z</time></trkpt><trkpt lat="31.57898324769686" lon="-4.7444708123868935"><ele>910.0</ele><time>2026-04-30T09:26:35Z</time></trkpt><trkpt lat="31.578862837251528" lon="-4.744270862344027"><ele>910.0</ele><time>2026-04-30T09:26:36Z</time></trkpt><trkpt lat="31.5787458932518" lon="-4.7440712236934095"><ele>909.6666666666666</ele><time>2026-04-30T09:26:37Z</time></trkpt><trkpt lat="31.578628413886143" lon="-4.7438713351074435"><ele>909.3333333333333</ele><time>2026-04-30T09:26:38Z</time></trkpt><trkpt lat="31.578509670968522" lon="-4.743675060979052"><ele>909.0</ele><time>2026-04-30T09:26:39Z</time></trkpt><trkpt lat="31.5783964389156" lon="-4.743477932242245"><ele>909.6666666666667</ele><time>2026-04-30T09:26:40Z</time></trkpt><trkpt lat="31.578287469522042" lon="-4.743285028931377"><ele>910.3333333333334</ele><time>2026-04-30T09:26:41Z</time></trkpt><trkpt lat="31.578178132463293" lon="-4.743097111467172"><ele>911.0</ele><time>2026-04-30T09:26:42Z</time></trkpt><trkpt lat="31.578068714963294" lon="-4.7429121692630885"><ele>911.0</ele><time>2026-04-30T09:26:43Z</time></trkpt><trkpt lat="31.577956583721036" lon="-4.742729955735014"><ele>911.0</ele><time>2026-04-30T09:26:44Z</time></trkpt><trkpt lat="31.57784725366933" lon="-4.742544736598071"><ele>911.0</ele><time>2026-04-30T09:26:45Z</time></trkpt><trkpt lat="31.577740765392445" lon="-4.742359596025585"><ele>910.6666666666667</ele><time>2026-04-30T09:26:46Z</time></trkpt><trkpt lat="31.577631204250046" lon="-4.742174968104515"><ele>910.3333333333333</ele><time>2026-04-30T09:26:47Z</time></trkpt><trkpt lat="31.577521705989156" lon="-4.741995348034988"><ele>910.0</ele><time>2026-04-30T09:26:47.999Z</time></trkpt><trkpt lat="31.577418733397014" lon="-4.741815409013809"><ele>908.6666666666666</ele><time>2026-04-30T09:26:48.999Z</time></trkpt><trkpt lat="31.57731672709647" lon="-4.7416367900851375"><ele>907.3333333333333</ele><time>2026-04-30T09:26:49.999Z</time></trkpt><trkpt lat="31.577215344853837" lon="-4.741469327370793"><ele>906.0</ele><time>2026-04-30T09:26:51Z</time></trkpt><trkpt lat="31.577117060842276" lon="-4.741302857803122"><ele>906.0</ele><time>2026-04-30T09:26:52Z</time></trkpt><trkpt lat="31.577022380203246" lon="-4.741134940650205"><ele>906.0</ele><time>2026-04-30T09:26:53Z</time></trkpt><trkpt lat="31.576927615031682" lon="-4.7409675272885945"><ele>906.0</ele><time>2026-04-30T09:26:54Z</time></trkpt><trkpt lat="31.576824953793725" lon="-4.740799572471352"><ele>906.6666666666667</ele><time>2026-04-30T09:26:55Z</time></trkpt><trkpt lat="31.576719619309376" lon="-4.740626423767664"><ele>907.3333333333334</ele><time>2026-04-30T09:26:56Z</time></trkpt><trkpt lat="31.576615337341106" lon="-4.740449077473023"><ele>908.0</ele><time>2026-04-30T09:26:57Z</time></trkpt><trkpt lat="31.5765099148204" lon="-4.74026905728981"><ele>907.6666666666667</ele><time>2026-04-30T09:26:58Z</time></trkpt><trkpt lat="31.576404826370833" lon="-4.740088362004045"><ele>907.3333333333333</ele><time>2026-04-30T09:26:59Z</time></trkpt><trkpt lat="31.57630041395334" lon="-4.739910943283131"><ele>907.0</ele><time>2026-04-30T09:27:00Z</time></trkpt><trkpt lat="31.57619691642907" lon="-4.739735681761821"><ele>906.6666666666666</ele><time>2026-04-30T09:27:01Z</time></trkpt><trkpt lat="31.5760921192865" lon="-4.739557866283932"><ele>906.3333333333333</ele><time>2026-04-30T09:27:02Z</time></trkpt><trkpt lat="31.575986793820686" lon="-4.73938081034275"><ele>906.0</ele><time>2026-04-30T09:27:03Z</time></trkpt><trkpt lat="31.57588218412309" lon="-4.739203724813693"><ele>905.6666666666667</ele><time>2026-04-30T09:27:04Z</time></trkpt><trkpt lat="31.57577706127132" lon="-4.739028138934224"><ele>905.3333333333334</ele><time>2026-04-30T09:27:05Z</time></trkpt><trkpt lat="31.575671455506125" lon="-4.738849284387274"><ele>905.0</ele><time>2026-04-30T09:27:06Z</time></trkpt><trkpt lat="31.575566687137872" lon="-4.738668193199748"><ele>905.3333333333334</ele><time>2026-04-30T09:27:07Z</time></trkpt><trkpt lat="31.575461140435266" lon="-4.738487835637533"><ele>905.6666666666667</ele><time>2026-04-30T09:27:08Z</time></trkpt><trkpt lat="31.57536008908101" lon="-4.738314188002882"><ele>906.0</ele><time>2026-04-30T09:27:09Z</time></trkpt><trkpt lat="31.575262596795724" lon="-4.738153522421361"><ele>906.0</ele><time>2026-04-30T09:27:10Z</time></trkpt><trkpt lat="31.575170605736925" lon="-4.738001677048452"><ele>906.0</ele><time>2026-04-30T09:27:11Z</time></trkpt><trkpt lat="31.575086893791664" lon="-4.73785555108029"><ele>906.0</ele><time>2026-04-30T09:27:12Z</time></trkpt><trkpt lat="31.575003498425538" lon="-4.73771049214776"><ele>906.0</ele><time>2026-04-30T09:27:13Z</time></trkpt><trkpt lat="31.574913065410797" lon="-4.737560340484486"><ele>906.0</ele><time>2026-04-30T09:27:14Z</time></trkpt><trkpt lat="31.574823473587493" lon="-4.737408243380201"><ele>906.0</ele><time>2026-04-30T09:27:15Z</time></trkpt><trkpt lat="31.574734884716275" lon="-4.737255370429116"><ele>906.0</ele><time>2026-04-30T09:27:16Z</time></trkpt><trkpt lat="31.574645695140287" lon="-4.7371063982395505"><ele>906.0</ele><time>2026-04-30T09:27:17Z</time></trkpt><trkpt lat="31.574556488904665" lon="-4.736957600297342"><ele>906.0</ele><time>2026-04-30T09:27:18Z</time></trkpt><trkpt lat="31.574467779647694" lon="-4.736809080362581"><ele>905.0</ele><time>2026-04-30T09:27:19Z</time></trkpt><trkpt lat="31.574377812631013" lon="-4.736661044206079"><ele>904.0</ele><time>2026-04-30T09:27:20Z</time></trkpt><trkpt lat="31.57428850321988" lon="-4.73650927511881"><ele>903.0</ele><time>2026-04-30T09:27:21Z</time></trkpt><trkpt lat="31.574198890040872" lon="-4.736352118823328"><ele>903.0</ele><time>2026-04-30T09:27:22Z</time></trkpt><trkpt lat="31.574104594446283" lon="-4.736188144223297"><ele>903.0</ele><time>2026-04-30T09:27:23Z</time></trkpt><trkpt lat="31.57400803627509" lon="-4.736026724236138"><ele>903.0</ele><time>2026-04-30T09:27:24Z</time></trkpt><trkpt lat="31.573912285492963" lon="-4.7358650470218615"><ele>903.0</ele><time>2026-04-30T09:27:25Z</time></trkpt><trkpt lat="31.57381789273013" lon="-4.735699302244853"><ele>903.0</ele><time>2026-04-30T09:27:26Z</time></trkpt><trkpt lat="31.573722763459493" lon="-4.735533221636386"><ele>903.0</ele><time>2026-04-30T09:27:27Z</time></trkpt><trkpt lat="31.573623785163207" lon="-4.735368606497571"><ele>903.0</ele><time>2026-04-30T09:27:28Z</time></trkpt><trkpt lat="31.5735249232312" lon="-4.735203573489209"><ele>903.0</ele><time>2026-04-30T09:27:29Z</time></trkpt><trkpt lat="31.57343021062989" lon="-4.735040173099635"><ele>903.0</ele><time>2026-04-30T09:27:30Z</time></trkpt><trkpt lat="31.5733342682694" lon="-4.734874476889778"><ele>903.0</ele><time>2026-04-30T09:27:31Z</time></trkpt><trkpt lat="31.573238742744998" lon="-4.734710647919227"><ele>903.0</ele><time>2026-04-30T09:27:32Z</time></trkpt><trkpt lat="31.573140798879724" lon="-4.734546382152826"><ele>903.0</ele><time>2026-04-30T09:27:33Z</time></trkpt><trkpt lat="31.57304716676937" lon="-4.734383529888742"><ele>903.6666666666667</ele><time>2026-04-30T09:27:34Z</time></trkpt><trkpt lat="31.572952427922967" lon="-4.734220822379739"><ele>904.3333333333334</ele><time>2026-04-30T09:27:35Z</time></trkpt><trkpt lat="31.572856356431892" lon="-4.734060719062092"><ele>905.0</ele><time>2026-04-30T09:27:36Z</time></trkpt><trkpt lat="31.57276308006688" lon="-4.733899854203506"><ele>905.0</ele><time>2026-04-30T09:27:37Z</time></trkpt><trkpt lat="31.572669982669044" lon="-4.7337390370387515"><ele>905.0</ele><time>2026-04-30T09:27:38Z</time></trkpt><trkpt lat="31.57257736538321" lon="-4.733584025825236"><ele>905.0</ele><time>2026-04-30T09:27:39Z</time></trkpt><trkpt lat="31.572486194079634" lon="-4.73343009040857"><ele>904.6666666666667</ele><time>2026-04-30T09:27:40Z</time></trkpt><trkpt lat="31.57239654724296" lon="-4.733271739926052"><ele>904.3333333333333</ele><time>2026-04-30T09:27:41Z</time></trkpt><trkpt lat="31.572307864988183" lon="-4.733110521453635"><ele>904.0</ele><time>2026-04-30T09:27:42Z</time></trkpt><trkpt lat="31.572214259605566" lon="-4.7329530266201365"><ele>904.0</ele><time>2026-04-30T09:27:43Z</time></trkpt><trkpt lat="31.572114979619272" lon="-4.73279998449892"><ele>904.0</ele><time>2026-04-30T09:27:44Z</time></trkpt><trkpt lat="31.57201623377864" lon="-4.732647184254882"><ele>904.0</ele><time>2026-04-30T09:27:45Z</time></trkpt><trkpt lat="31.57192386818456" lon="-4.732488334542907"><ele>903.0</ele><time>2026-04-30T09:27:46Z</time></trkpt><trkpt lat="31.571836215771587" lon="-4.732328587547714"><ele>902.0</ele><time>2026-04-30T09:27:47Z</time></trkpt><trkpt lat="31.57174534636273" lon="-4.732169622856941"><ele>901.0</ele><time>2026-04-30T09:27:48Z</time></trkpt><trkpt lat="31.571650332114373" lon="-4.732012617784581"><ele>901.3333333333333</ele><time>2026-04-30T09:27:49Z</time></trkpt><trkpt lat="31.571553859371743" lon="-4.731850526964964"><ele>901.6666666666667</ele><time>2026-04-30T09:27:50Z</time></trkpt><trkpt lat="31.571458367988228" lon="-4.73168985165441"><ele>902.0</ele><time>2026-04-30T09:27:51Z</time></trkpt><trkpt lat="31.57136368803235" lon="-4.731532451413702"><ele>902.0</ele><time>2026-04-30T09:27:52Z</time></trkpt><trkpt lat="31.571268038219984" lon="-4.731373475702563"><ele>902.0</ele><time>2026-04-30T09:27:53Z</time></trkpt><trkpt lat="31.571175578969406" lon="-4.731218653466166"><ele>902.0</ele><time>2026-04-30T09:27:54Z</time></trkpt><trkpt lat="31.57108495201741" lon="-4.7310598645709145"><ele>902.0</ele><time>2026-04-30T09:27:55Z</time></trkpt><trkpt lat="31.5709956208034" lon="-4.730900672291613"><ele>902.0</ele><time>2026-04-30T09:27:56Z</time></trkpt><trkpt lat="31.570905476638693" lon="-4.7307436872662825"><ele>902.0</ele><time>2026-04-30T09:27:57Z</time></trkpt><trkpt lat="31.570811857800535" lon="-4.730588030261464"><ele>902.0</ele><time>2026-04-30T09:27:58Z</time></trkpt><trkpt lat="31.57071967198232" lon="-4.7304335516553495"><ele>902.0</ele><time>2026-04-30T09:27:59Z</time></trkpt><trkpt lat="31.570628379882585" lon="-4.730280090355823"><ele>902.0</ele><time>2026-04-30T09:28:00Z</time></trkpt><trkpt lat="31.570536916087708" lon="-4.730126517404729"><ele>902.0</ele><time>2026-04-30T09:28:01Z</time></trkpt><trkpt lat="31.570443542391214" lon="-4.729977677737639"><ele>902.0</ele><time>2026-04-30T09:28:02Z</time></trkpt><trkpt lat="31.5703531906265" lon="-4.729829051376758"><ele>902.0</ele><time>2026-04-30T09:28:03Z</time></trkpt><trkpt lat="31.57026729871178" lon="-4.7296771838006375"><ele>901.75</ele><time>2026-04-30T09:28:04Z</time></trkpt><trkpt lat="31.570184207063377" lon="-4.7295300966666876"><ele>901.5</ele><time>2026-04-30T09:28:05Z</time></trkpt><trkpt lat="31.5701001381924" lon="-4.729388617100045"><ele>901.25</ele><time>2026-04-30T09:28:06Z</time></trkpt><trkpt lat="31.570015770629357" lon="-4.729258271912478"><ele>901.0</ele><time>2026-04-30T09:28:07Z</time></trkpt><trkpt lat="31.569937618447728" lon="-4.729119577934401"><ele>901.0</ele><time>2026-04-30T09:28:08Z</time></trkpt><trkpt lat="31.569857470536032" lon="-4.728975731904787"><ele>901.0</ele><time>2026-04-30T09:28:09Z</time></trkpt><trkpt lat="31.56977376498006" lon="-4.728842688185361"><ele>901.0</ele><time>2026-04-30T09:28:10Z</time></trkpt><trkpt lat="31.56969369012885" lon="-4.728709831945685"><ele>901.0</ele><time>2026-04-30T09:28:11Z</time></trkpt><trkpt lat="31.569613029509796" lon="-4.728576467536548"><ele>900.75</ele><time>2026-04-30T09:28:12Z</time></trkpt><trkpt lat="31.569529729221106" lon="-4.72844587121151"><ele>900.5</ele><time>2026-04-30T09:28:13Z</time></trkpt><trkpt lat="31.56945367245314" lon="-4.728320605130754"><ele>900.25</ele><time>2026-04-30T09:28:14Z</time></trkpt><trkpt lat="31.5693770841676" lon="-4.728184711261292"><ele>900.0</ele><time>2026-04-30T09:28:15Z</time></trkpt><trkpt lat="31.569297948271178" lon="-4.72804845147791"><ele>900.5</ele><time>2026-04-30T09:28:16Z</time></trkpt><trkpt lat="31.569224744224453" lon="-4.727914932939472"><ele>901.0</ele><time>2026-04-30T09:28:17Z</time></trkpt><trkpt lat="31.56915659349597" lon="-4.727780484955202"><ele>901.5</ele><time>2026-04-30T09:28:18Z</time></trkpt><trkpt lat="31.56908518008315" lon="-4.727649411746412"><ele>902.0</ele><time>2026-04-30T09:28:19Z</time></trkpt><trkpt lat="31.569011960455555" lon="-4.727525672707229"><ele>902.0</ele><time>2026-04-30T09:28:20Z</time></trkpt><trkpt lat="31.568936521518413" lon="-4.727402392547431"><ele>902.0</ele><time>2026-04-30T09:28:21Z</time></trkpt><trkpt lat="31.568861995927108" lon="-4.727283496876894"><ele>902.0</ele><time>2026-04-30T09:28:22Z</time></trkpt><trkpt lat="31.56878708253425" lon="-4.7271638340962845"><ele>902.0</ele><time>2026-04-30T09:28:23Z</time></trkpt><trkpt lat="31.568709409319208" lon="-4.727036001836627"><ele>902.0</ele><time>2026-04-30T09:28:24Z</time></trkpt><trkpt lat="31.568634833483724" lon="-4.726905047480774"><ele>902.0</ele><time>2026-04-30T09:28:25Z</time></trkpt><trkpt lat="31.568558150489835" lon="-4.726773796671607"><ele>902.0</ele><time>2026-04-30T09:28:26Z</time></trkpt><trkpt lat="31.568481671981576" lon="-4.72664426922098"><ele>902.0</ele><time>2026-04-30T09:28:27Z</time></trkpt><trkpt lat="31.568404904814052" lon="-4.726511996492623"><ele>902.25</ele><time>2026-04-30T09:28:28Z</time></trkpt><trkpt lat="31.56832487326133" lon="-4.726378708409569"><ele>902.5</ele><time>2026-04-30T09:28:29Z</time></trkpt><trkpt lat="31.568245075355467" lon="-4.7262486560912285"><ele>902.75</ele><time>2026-04-30T09:28:30Z</time></trkpt><trkpt lat="31.568167125222647" lon="-4.7261149181898"><ele>903.0</ele><time>2026-04-30T09:28:31Z</time></trkpt><trkpt lat="31.568090250694805" lon="-4.725979084294759"><ele>903.0</ele><time>2026-04-30T09:28:32Z</time></trkpt><trkpt lat="31.56800933439559" lon="-4.725843287690938"><ele>903.0</ele><time>2026-04-30T09:28:33Z</time></trkpt><trkpt lat="31.567930359813012" lon="-4.725705996412769"><ele>903.0</ele><time>2026-04-30T09:28:34Z</time></trkpt><trkpt lat="31.567850221822034" lon="-4.725566850765178"><ele>903.0</ele><time>2026-04-30T09:28:35Z</time></trkpt><trkpt lat="31.567770017229428" lon="-4.725426265715232"><ele>903.0</ele><time>2026-04-30T09:28:36Z</time></trkpt><trkpt lat="31.56769407087632" lon="-4.725284387556211"><ele>903.0</ele><time>2026-04-30T09:28:37Z</time></trkpt><trkpt lat="31.56761907051176" lon="-4.725136157027702"><ele>903.0</ele><time>2026-04-30T09:28:38Z</time></trkpt><trkpt lat="31.567547393389237" lon="-4.724982453670056"><ele>903.0</ele><time>2026-04-30T09:28:39Z</time></trkpt><trkpt lat="31.56747918634778" lon="-4.724824152546998"><ele>903.0</ele><time>2026-04-30T09:28:40Z</time></trkpt><trkpt lat="31.567415503241754" lon="-4.724658711523103"><ele>903.0</ele><time>2026-04-30T09:28:41Z</time></trkpt><trkpt lat="31.56735783200795" lon="-4.724491165074015"><ele>903.0</ele><time>2026-04-30T09:28:42Z</time></trkpt><trkpt lat="31.567305892137618" lon="-4.72431875318627"><ele>902.3333333333333</ele><time>2026-04-30T09:28:43Z</time></trkpt><trkpt lat="31.567253076091518" lon="-4.7241429679116544"><ele>901.6666666666666</ele><time>2026-04-30T09:28:44Z</time></trkpt><trkpt lat="31.56720058011541" lon="-4.723967188228367"><ele>901.0</ele><time>2026-04-30T09:28:45Z</time></trkpt><trkpt lat="31.567152022814145" lon="-4.7237913635587425"><ele>901.0</ele><time>2026-04-30T09:28:46Z</time></trkpt><trkpt lat="31.567101707414075" lon="-4.723615325552069"><ele>901.0</ele><time>2026-04-30T09:28:47Z</time></trkpt><trkpt lat="31.567051330445867" lon="-4.723444717607372"><ele>901.0</ele><time>2026-04-30T09:28:47.999Z</time></trkpt><trkpt lat="31.56700399168288" lon="-4.723285371694174"><ele>901.5</ele><time>2026-04-30T09:28:48.999Z</time></trkpt><trkpt lat="31.566964246237916" lon="-4.723134636274428"><ele>902.0</ele><time>2026-04-30T09:28:49.999Z</time></trkpt><trkpt lat="31.56692383221564" lon="-4.722986368205648"><ele>902.5</ele><time>2026-04-30T09:28:50.999Z</time></trkpt><trkpt lat="31.566887094613456" lon="-4.722847587127607"><ele>903.0</ele><time>2026-04-30T09:28:51.999Z</time></trkpt><trkpt lat="31.566849375176268" lon="-4.7227116808053795"><ele>903.0</ele><time>2026-04-30T09:28:52.999Z</time></trkpt><trkpt lat="31.56680817208492" lon="-4.7225773897812395"><ele>903.0</ele><time>2026-04-30T09:28:53.999Z</time></trkpt><trkpt lat="31.56676558025104" lon="-4.722443772937994"><ele>903.0</ele><time>2026-04-30T09:28:54.999Z</time></trkpt><trkpt lat="31.56672395004437" lon="-4.722308104209705"><ele>903.0</ele><time>2026-04-30T09:28:55.999Z</time></trkpt><trkpt lat="31.56668158624019" lon="-4.722172005484552"><ele>903.0</ele><time>2026-04-30T09:28:57Z</time></trkpt><trkpt lat="31.566639934076495" lon="-4.722034664406941"><ele>903.0</ele><time>2026-04-30T09:28:58Z</time></trkpt><trkpt lat="31.566598821794752" lon="-4.721903667033655"><ele>903.0</ele><time>2026-04-30T09:28:59Z</time></trkpt><trkpt lat="31.566562386670956" lon="-4.72177391630854"><ele>903.0</ele><time>2026-04-30T09:29:00Z</time></trkpt><trkpt lat="31.56652517234042" lon="-4.721633407357897"><ele>903.25</ele><time>2026-04-30T09:29:01Z</time></trkpt><trkpt lat="31.566482207329663" lon="-4.721490001782312"><ele>903.5</ele><time>2026-04-30T09:29:02Z</time></trkpt><trkpt lat="31.566440740971334" lon="-4.721347202220886"><ele>903.75</ele><time>2026-04-30T09:29:03Z</time></trkpt><trkpt lat="31.566398877212727" lon="-4.721204482738978"><ele>904.0</ele><time>2026-04-30T09:29:04Z</time></trkpt><trkpt lat="31.566355674255384" lon="-4.721062495148015"><ele>903.5</ele><time>2026-04-30T09:29:05Z</time></trkpt><trkpt lat="31.5663115484186" lon="-4.720918395291977"><ele>903.0</ele><time>2026-04-30T09:29:06Z</time></trkpt><trkpt lat="31.566270904139834" lon="-4.720772047914885"><ele>902.5</ele><time>2026-04-30T09:29:07Z</time></trkpt><trkpt lat="31.566226917058057" lon="-4.720623508325435"><ele>902.0</ele><time>2026-04-30T09:29:08Z</time></trkpt><trkpt lat="31.566183478492242" lon="-4.720475370381325"><ele>902.0</ele><time>2026-04-30T09:29:09Z</time></trkpt><trkpt lat="31.566142539430167" lon="-4.7203293174434915"><ele>902.0</ele><time>2026-04-30T09:29:10Z</time></trkpt><trkpt lat="31.566103369667086" lon="-4.720192242938911"><ele>902.0</ele><time>2026-04-30T09:29:11Z</time></trkpt><trkpt lat="31.566065446813592" lon="-4.720061714484484"><ele>902.0</ele><time>2026-04-30T09:29:12Z</time></trkpt><trkpt lat="31.566028537402257" lon="-4.719936611003355"><ele>901.8</ele><time>2026-04-30T09:29:13Z</time></trkpt><trkpt lat="31.56599279121685" lon="-4.719817484836671"><ele>901.6</ele><time>2026-04-30T09:29:14Z</time></trkpt><trkpt lat="31.565959395915513" lon="-4.719704814551397"><ele>901.3999999999999</ele><time>2026-04-30T09:29:15Z</time></trkpt><trkpt lat="31.56592410890946" lon="-4.719600340610555"><ele>901.1999999999999</ele><time>2026-04-30T09:29:16Z</time></trkpt><trkpt lat="31.56589443321915" lon="-4.7194985748386555"><ele>901.0</ele><time>2026-04-30T09:29:17Z</time></trkpt><trkpt lat="31.56586669080223" lon="-4.719395591598489"><ele>900.9999999999999</ele><time>2026-04-30T09:29:18Z</time></trkpt><trkpt lat="31.565840997926927" lon="-4.719292747848886"><ele>901.0</ele><time>2026-04-30T09:29:19Z</time></trkpt><trkpt lat="31.565811898940026" lon="-4.719191073231167"><ele>901.0</ele><time>2026-04-30T09:29:20Z</time></trkpt><trkpt lat="31.56578087055607" lon="-4.719094547600238"><ele>901.0</ele><time>2026-04-30T09:29:21Z</time></trkpt><trkpt lat="31.565754349004855" lon="-4.719007268260818"><ele>900.9999999999999</ele><time>2026-04-30T09:29:22Z</time></trkpt><trkpt lat="31.565728558014936" lon="-4.718923221620137"><ele>901.0</ele><time>2026-04-30T09:29:23Z</time></trkpt><trkpt lat="31.565704171289923" lon="-4.718846129831899"><ele>900.9999999999999</ele><time>2026-04-30T09:29:24Z</time></trkpt><trkpt lat="31.565679772599545" lon="-4.718749639090597"><ele>901.0</ele><time>2026-04-30T09:29:25Z</time></trkpt><trkpt lat="31.56566162656622" lon="-4.718659772146396"><ele>901.0</ele><time>2026-04-30T09:29:26Z</time></trkpt><trkpt lat="31.565638210462225" lon="-4.718566394863352"><ele>901.0</ele><time>2026-04-30T09:29:27Z</time></trkpt><trkpt lat="31.565615243795964" lon="-4.718481367204755"><ele>900.9999999999999</ele><time>2026-04-30T09:29:28Z</time></trkpt><trkpt lat="31.56558721038618" lon="-4.718401797547954"><ele>901.0</ele><time>2026-04-30T09:29:29Z</time></trkpt><trkpt lat="31.565557394724156" lon="-4.718313810792294"><ele>900.8</ele><time>2026-04-30T09:29:30Z</time></trkpt><trkpt lat="31.565525989191688" lon="-4.7182184003275145"><ele>900.5999999999999</ele><time>2026-04-30T09:29:31Z</time></trkpt><trkpt lat="31.565496763015926" lon="-4.7181162428063645"><ele>900.4</ele><time>2026-04-30T09:29:32Z</time></trkpt><trkpt lat="31.565469908138365" lon="-4.718008343829716"><ele>900.2</ele><time>2026-04-30T09:29:33Z</time></trkpt><trkpt lat="31.565436555492617" lon="-4.717897827439106"><ele>900.0</ele><time>2026-04-30T09:29:34Z</time></trkpt><trkpt lat="31.56540923054541" lon="-4.717785118835792"><ele>899.8</ele><time>2026-04-30T09:29:35Z</time></trkpt><trkpt lat="31.565385429394325" lon="-4.7176831379653015"><ele>899.6</ele><time>2026-04-30T09:29:36Z</time></trkpt><trkpt lat="31.56534425227644" lon="-4.717591615972672"><ele>899.4000000000001</ele><time>2026-04-30T09:29:37Z</time></trkpt><trkpt lat="31.56532354295617" lon="-4.7174819798613745"><ele>899.2</ele><time>2026-04-30T09:29:38Z</time></trkpt><trkpt lat="31.565295269869587" lon="-4.71737624331787"><ele>899.0</ele><time>2026-04-30T09:29:39Z</time></trkpt><trkpt lat="31.565261741547804" lon="-4.71726738668263"><ele>898.75</ele><time>2026-04-30T09:29:40Z</time></trkpt><trkpt lat="31.565221735286105" lon="-4.717129125739977"><ele>898.5</ele><time>2026-04-30T09:29:41Z</time></trkpt><trkpt lat="31.565185573768233" lon="-4.716991600761351"><ele>898.25</ele><time>2026-04-30T09:29:42Z</time></trkpt><trkpt lat="31.565146004361534" lon="-4.7168637006028495"><ele>898.0</ele><time>2026-04-30T09:29:43Z</time></trkpt><trkpt lat="31.56511408204613" lon="-4.71673667839109"><ele>898.0</ele><time>2026-04-30T09:29:44Z</time></trkpt><trkpt lat="31.565080373656876" lon="-4.7166185302789145"><ele>898.0</ele><time>2026-04-30T09:29:45Z</time></trkpt><trkpt lat="31.56502515306683" lon="-4.716483948415759"><ele>898.0</ele><time>2026-04-30T09:29:46Z</time></trkpt><trkpt lat="31.56498363408837" lon="-4.716337807976327"><ele>898.0</ele><time>2026-04-30T09:29:47Z</time></trkpt><trkpt lat="31.564943210668684" lon="-4.7161943469189564"><ele>897.5</ele><time>2026-04-30T09:29:48Z</time></trkpt><trkpt lat="31.564903293383672" lon="-4.71605268215703"><ele>897.0</ele><time>2026-04-30T09:29:49Z</time></trkpt><trkpt lat="31.5648777921211" lon="-4.71591397578771"><ele>896.5</ele><time>2026-04-30T09:29:50Z</time></trkpt><trkpt lat="31.564838517841448" lon="-4.715786216372688"><ele>896.0</ele><time>2026-04-30T09:29:51Z</time></trkpt><trkpt lat="31.564801821414985" lon="-4.7156547971996625"><ele>896.0</ele><time>2026-04-30T09:29:52Z</time></trkpt><trkpt lat="31.56476549617398" lon="-4.715525741431344"><ele>896.0</ele><time>2026-04-30T09:29:53Z</time></trkpt><trkpt lat="31.564728943183237" lon="-4.715394875344184"><ele>896.0</ele><time>2026-04-30T09:29:54Z</time></trkpt><trkpt lat="31.564689884800096" lon="-4.715269374735789"><ele>896.0</ele><time>2026-04-30T09:29:55Z</time></trkpt><trkpt lat="31.56465676822646" lon="-4.715145966977552"><ele>896.4</ele><time>2026-04-30T09:29:56Z</time></trkpt><trkpt lat="31.564623321003353" lon="-4.715026520104157"><ele>896.8</ele><time>2026-04-30T09:29:57Z</time></trkpt><trkpt lat="31.564587738980492" lon="-4.714905806075892"><ele>897.1999999999999</ele><time>2026-04-30T09:29:58Z</time></trkpt><trkpt lat="31.56455138669792" lon="-4.714784641161222"><ele>897.5999999999999</ele><time>2026-04-30T09:29:59Z</time></trkpt><trkpt lat="31.564511443022866" lon="-4.714660784215588"><ele>898.0</ele><time>2026-04-30T09:30:00Z</time></trkpt><trkpt lat="31.564472146877005" lon="-4.714534426963133"><ele>898.0</ele><time>2026-04-30T09:30:01Z</time></trkpt><trkpt lat="31.564434217522965" lon="-4.7144092665354425"><ele>898.0</ele><time>2026-04-30T09:30:02Z</time></trkpt><trkpt lat="31.564401095056837" lon="-4.714286087853759"><ele>898.0</ele><time>2026-04-30T09:30:03Z</time></trkpt><trkpt lat="31.56436593492672" lon="-4.714165676077438"><ele>898.0</ele><time>2026-04-30T09:30:04Z</time></trkpt><trkpt lat="31.56432986294201" lon="-4.714051846383771"><ele>898.0</ele><time>2026-04-30T09:30:05Z</time></trkpt><trkpt lat="31.564295721618922" lon="-4.713938120898696"><ele>897.9999999999999</ele><time>2026-04-30T09:30:06Z</time></trkpt><trkpt lat="31.564261161466405" lon="-4.713823030198881"><ele>898.0</ele><time>2026-04-30T09:30:07Z</time></trkpt><trkpt lat="31.564233311814835" lon="-4.7137113556603945"><ele>898.0</ele><time>2026-04-30T09:30:08Z</time></trkpt><trkpt lat="31.56421035846548" lon="-4.713612149768047"><ele>898.0</ele><time>2026-04-30T09:30:09Z</time></trkpt><trkpt lat="31.56418208386031" lon="-4.713524744524801"><ele>897.9999999999999</ele><time>2026-04-30T09:30:10Z</time></trkpt><trkpt lat="31.564160380613902" lon="-4.713437323296289"><ele>898.0</ele><time>2026-04-30T09:30:11Z</time></trkpt><trkpt lat="31.564127358890595" lon="-4.7133420711693095"><ele>897.9999999999999</ele><time>2026-04-30T09:30:12Z</time></trkpt><trkpt lat="31.56409560019809" lon="-4.713253313818162"><ele>898.0</ele><time>2026-04-30T09:30:13Z</time></trkpt><trkpt lat="31.564071206774724" lon="-4.713171004437971"><ele>898.0</ele><time>2026-04-30T09:30:14Z</time></trkpt><trkpt lat="31.564049790234574" lon="-4.7130936776677785"><ele>898.0</ele><time>2026-04-30T09:30:15Z</time></trkpt><trkpt lat="31.5640078894383" lon="-4.7129856203668865"><ele>897.9999999999999</ele><time>2026-04-30T09:30:17Z</time></trkpt><trkpt lat="31.56397601385957" lon="-4.7128920086710915"><ele>898.0</ele><time>2026-04-30T09:30:19Z</time></trkpt><trkpt lat="31.5639411291797" lon="-4.712797961985784"><ele>897.4999999999999</ele><time>2026-04-30T09:30:21Z</time></trkpt><trkpt lat="31.563925878279253" lon="-4.712696906647217"><ele>897.0</ele><time>2026-04-30T09:30:23Z</time></trkpt><trkpt lat="31.56391370810706" lon="-4.712603196926843"><ele>896.5</ele><time>2026-04-30T09:30:25Z</time></trkpt><trkpt lat="31.563890447955018" lon="-4.71250011160376"><ele>896.0</ele><time>2026-04-30T09:30:27Z</time></trkpt><trkpt lat="31.56383398838851" lon="-4.712433471907246"><ele>895.4999999999999</ele><time>2026-04-30T09:30:29Z</time></trkpt><trkpt lat="31.56379552099499" lon="-4.7123513312357"><ele>895.0</ele><time>2026-04-30T09:30:31Z</time></trkpt><trkpt lat="31.56377553308066" lon="-4.7122719595407165"><ele>894.9999999999999</ele><time>2026-04-30T09:30:33Z</time></trkpt><trkpt lat="31.563738580525335" lon="-4.712161141054343"><ele>895.0</ele><time>2026-04-30T09:30:35Z</time></trkpt><trkpt lat="31.563707007210123" lon="-4.712060847531587"><ele>895.0</ele><time>2026-04-30T09:30:37Z</time></trkpt><trkpt lat="31.563648366261194" lon="-4.711949023195116"><ele>895.0</ele><time>2026-04-30T09:30:39Z</time></trkpt><trkpt lat="31.56359744133375" lon="-4.711887041580852"><ele>894.9999999999999</ele><time>2026-04-30T09:30:40Z</time></trkpt><trkpt lat="31.563545296277866" lon="-4.711836046508008"><ele>895.0</ele><time>2026-04-30T09:30:41Z</time></trkpt><trkpt lat="31.5634874224244" lon="-4.711784180274703"><ele>895.4999999999999</ele><time>2026-04-30T09:30:42Z</time></trkpt><trkpt lat="31.563425581944532" lon="-4.711728737291661"><ele>896.0</ele><time>2026-04-30T09:30:43Z</time></trkpt><trkpt lat="31.56335998110235" lon="-4.7116731254569215"><ele>896.5</ele><time>2026-04-30T09:30:44Z</time></trkpt><trkpt lat="31.563295967618494" lon="-4.7116159675448746"><ele>897.0</ele><time>2026-04-30T09:30:45Z</time></trkpt><trkpt lat="31.56321917773697" lon="-4.711570406492566"><ele>897.4999999999999</ele><time>2026-04-30T09:30:46Z</time></trkpt><trkpt lat="31.56313776569792" lon="-4.711541307055811"><ele>898.0</ele><time>2026-04-30T09:30:47Z</time></trkpt><trkpt lat="31.563050614526162" lon="-4.7115244431160415"><ele>898.0</ele><time>2026-04-30T09:30:48Z</time></trkpt><trkpt lat="31.56294506077633" lon="-4.711509391428774"><ele>898.0</ele><time>2026-04-30T09:30:49Z</time></trkpt><trkpt lat="31.56284279503758" lon="-4.711503240348774"><ele>898.0</ele><time>2026-04-30T09:30:50Z</time></trkpt><trkpt lat="31.562744872370796" lon="-4.711511345083808"><ele>898.0</ele><time>2026-04-30T09:30:51Z</time></trkpt><trkpt lat="31.562644915682945" lon="-4.711525646990648"><ele>898.0</ele><time>2026-04-30T09:30:52Z</time></trkpt><trkpt lat="31.56254731415557" lon="-4.711545386504798"><ele>898.2</ele><time>2026-04-30T09:30:53Z</time></trkpt><trkpt lat="31.562451941781443" lon="-4.711569333451934"><ele>898.4</ele><time>2026-04-30T09:30:54Z</time></trkpt><trkpt lat="31.562350442381685" lon="-4.711588149987995"><ele>898.6000000000001</ele><time>2026-04-30T09:30:54.999Z</time></trkpt><trkpt lat="31.562236133454817" lon="-4.711607163405303"><ele>898.8000000000001</ele><time>2026-04-30T09:30:55.999Z</time></trkpt><trkpt lat="31.56211481777078" lon="-4.711625721675513"><ele>899.0</ele><time>2026-04-30T09:30:56.999Z</time></trkpt><trkpt lat="31.562012568883222" lon="-4.711643359698004"><ele>899.0</ele><time>2026-04-30T09:30:57.999Z</time></trkpt><trkpt lat="31.56192808355362" lon="-4.71165510871502"><ele>899.0000000000001</ele><time>2026-04-30T09:30:58.999Z</time></trkpt><trkpt lat="31.561839933366127" lon="-4.711681684497952"><ele>899.0000000000001</ele><time>2026-04-30T09:30:59.999Z</time></trkpt><trkpt lat="31.561729873747225" lon="-4.711704694378599"><ele>899.0</ele><time>2026-04-30T09:31:00.999Z</time></trkpt><trkpt lat="31.5616054875819" lon="-4.711723914950943"><ele>899.0</ele><time>2026-04-30T09:31:01.999Z</time></trkpt><trkpt lat="31.561471497366853" lon="-4.711744924394676"><ele>899.0</ele><time>2026-04-30T09:31:03Z</time></trkpt><trkpt lat="31.561338116546292" lon="-4.711762937421556"><ele>899.0</ele><time>2026-04-30T09:31:04Z</time></trkpt><trkpt lat="31.561217422782214" lon="-4.711776818162268"><ele>899.0</ele><time>2026-04-30T09:31:05Z</time></trkpt><trkpt lat="31.56109941512618" lon="-4.71178727881419"><ele>899.0</ele><time>2026-04-30T09:31:06Z</time></trkpt><trkpt lat="31.560982725839185" lon="-4.711787680014502"><ele>898.25</ele><time>2026-04-30T09:31:07Z</time></trkpt><trkpt lat="31.560864935791216" lon="-4.711787733422078"><ele>897.5</ele><time>2026-04-30T09:31:08Z</time></trkpt><trkpt lat="31.560747496416507" lon="-4.711784666351305"><ele>896.75</ele><time>2026-04-30T09:31:09Z</time></trkpt><trkpt lat="31.560628847684523" lon="-4.711780600122002"><ele>896.0</ele><time>2026-04-30T09:31:10Z</time></trkpt><trkpt lat="31.560510758276056" lon="-4.711778023868148"><ele>896.0</ele><time>2026-04-30T09:31:11Z</time></trkpt><trkpt lat="31.560390390154925" lon="-4.71177496358934"><ele>896.0</ele><time>2026-04-30T09:31:12Z</time></trkpt><trkpt lat="31.560270351377042" lon="-4.7117774234701395"><ele>896.0</ele><time>2026-04-30T09:31:13Z</time></trkpt><trkpt lat="31.560150777501004" lon="-4.711775564533051"><ele>896.0</ele><time>2026-04-30T09:31:14Z</time></trkpt><trkpt lat="31.560034835581188" lon="-4.711769213788348"><ele>896.1999999999999</ele><time>2026-04-30T09:31:15Z</time></trkpt><trkpt lat="31.55991868917931" lon="-4.711764312484424"><ele>896.3999999999999</ele><time>2026-04-30T09:31:16Z</time></trkpt><trkpt lat="31.559805900000082" lon="-4.711761217698909"><ele>896.6</ele><time>2026-04-30T09:31:17Z</time></trkpt><trkpt lat="31.55969899892341" lon="-4.711753995289133"><ele>896.8</ele><time>2026-04-30T09:31:18Z</time></trkpt><trkpt lat="31.55960266365893" lon="-4.711748403548676"><ele>897.0</ele><time>2026-04-30T09:31:19Z</time></trkpt><trkpt lat="31.559505894332982" lon="-4.711739352558751"><ele>897.0</ele><time>2026-04-30T09:31:20Z</time></trkpt><trkpt lat="31.55940987054152" lon="-4.711711510872904"><ele>897.0</ele><time>2026-04-30T09:31:21Z</time></trkpt><trkpt lat="31.55931153358299" lon="-4.711667392180976"><ele>897.0</ele><time>2026-04-30T09:31:22Z</time></trkpt><trkpt lat="31.559213505582907" lon="-4.7116087168422744"><ele>897.0</ele><time>2026-04-30T09:31:23Z</time></trkpt><trkpt lat="31.55911214453134" lon="-4.711527671766232"><ele>897.0</ele><time>2026-04-30T09:31:24Z</time></trkpt><trkpt lat="31.559026543628853" lon="-4.7114386607133145"><ele>897.0</ele><time>2026-04-30T09:31:25Z</time></trkpt><trkpt lat="31.558955633654797" lon="-4.711354726009909"><ele>897.0</ele><time>2026-04-30T09:31:26Z</time></trkpt><trkpt lat="31.558884217883122" lon="-4.711269339218549"><ele>897.0</ele><time>2026-04-30T09:31:27Z</time></trkpt><trkpt lat="31.558818477930163" lon="-4.71117478739465"><ele>897.0</ele><time>2026-04-30T09:31:28Z</time></trkpt><trkpt lat="31.558743726182517" lon="-4.711067846090165"><ele>897.0</ele><time>2026-04-30T09:31:29Z</time></trkpt><trkpt lat="31.558663762490283" lon="-4.7109496725985265"><ele>897.5</ele><time>2026-04-30T09:31:30Z</time></trkpt><trkpt lat="31.558580274320168" lon="-4.710828473992094"><ele>898.0</ele><time>2026-04-30T09:31:31Z</time></trkpt><trkpt lat="31.558491533639256" lon="-4.7107193049124785"><ele>898.5</ele><time>2026-04-30T09:31:32Z</time></trkpt><trkpt lat="31.558412677695145" lon="-4.710601381468952"><ele>899.0</ele><time>2026-04-30T09:31:33Z</time></trkpt><trkpt lat="31.558320519423738" lon="-4.710464651194966"><ele>899.0</ele><time>2026-04-30T09:31:34Z</time></trkpt><trkpt lat="31.558230852333402" lon="-4.710341573484256"><ele>899.0</ele><time>2026-04-30T09:31:35Z</time></trkpt><trkpt lat="31.558148351135006" lon="-4.710229358289934"><ele>899.0</ele><time>2026-04-30T09:31:36Z</time></trkpt><trkpt lat="31.55807241350575" lon="-4.710120619303836"><ele>899.0</ele><time>2026-04-30T09:31:37Z</time></trkpt><trkpt lat="31.557990791941226" lon="-4.710018039912624"><ele>899.0</ele><time>2026-04-30T09:31:38Z</time></trkpt><trkpt lat="31.557908409056584" lon="-4.709917288253715"><ele>899.0</ele><time>2026-04-30T09:31:39Z</time></trkpt><trkpt lat="31.557816524006867" lon="-4.70982338022906"><ele>899.0</ele><time>2026-04-30T09:31:40Z</time></trkpt><trkpt lat="31.557714019354275" lon="-4.7097350518415295"><ele>899.0</ele><time>2026-04-30T09:31:41Z</time></trkpt><trkpt lat="31.557600199649897" lon="-4.709644826063524"><ele>898.75</ele><time>2026-04-30T09:31:42Z</time></trkpt><trkpt lat="31.557485435378485" lon="-4.709553617059386"><ele>898.5</ele><time>2026-04-30T09:31:43Z</time></trkpt><trkpt lat="31.55737621711403" lon="-4.709460957718703"><ele>898.25</ele><time>2026-04-30T09:31:44Z</time></trkpt><trkpt lat="31.55727168214509" lon="-4.709368126158823"><ele>898.0</ele><time>2026-04-30T09:31:45Z</time></trkpt><trkpt lat="31.557170054774904" lon="-4.709273209648832"><ele>897.75</ele><time>2026-04-30T09:31:46Z</time></trkpt><trkpt lat="31.557063056879098" lon="-4.709180430837568"><ele>897.5</ele><time>2026-04-30T09:31:47Z</time></trkpt><trkpt lat="31.556938933361575" lon="-4.709095037635681"><ele>897.25</ele><time>2026-04-30T09:31:48Z</time></trkpt><trkpt lat="31.556797334757583" lon="-4.709012608823443"><ele>897.0</ele><time>2026-04-30T09:31:49Z</time></trkpt><trkpt lat="31.556647584495934" lon="-4.708930452080737"><ele>895.6666666666667</ele><time>2026-04-30T09:31:50Z</time></trkpt><trkpt lat="31.55648476478037" lon="-4.70883663438106"><ele>894.3333333333334</ele><time>2026-04-30T09:31:51Z</time></trkpt><trkpt lat="31.556307520695228" lon="-4.708734464045663"><ele>893.0</ele><time>2026-04-30T09:31:52Z</time></trkpt><trkpt lat="31.55611907284133" lon="-4.7086579905449994"><ele>892.6666666666667</ele><time>2026-04-30T09:31:53Z</time></trkpt><trkpt lat="31.555942215369363" lon="-4.708548480663796"><ele>892.3333333333333</ele><time>2026-04-30T09:31:54Z</time></trkpt><trkpt lat="31.555759139672304" lon="-4.708461897531869"><ele>892.0</ele><time>2026-04-30T09:31:55Z</time></trkpt><trkpt lat="31.555581510665686" lon="-4.708374602196394"><ele>892.0</ele><time>2026-04-30T09:31:56Z</time></trkpt><trkpt lat="31.555409706024673" lon="-4.7082877666546326"><ele>892.0</ele><time>2026-04-30T09:31:57Z</time></trkpt><trkpt lat="31.55524201976317" lon="-4.708204523974595"><ele>892.0</ele><time>2026-04-30T09:31:58Z</time></trkpt><trkpt lat="31.555079589215893" lon="-4.708121504080218"><ele>893.3333333333333</ele><time>2026-04-30T09:31:59Z</time></trkpt><trkpt lat="31.554924434043283" lon="-4.708034445080459"><ele>894.6666666666667</ele><time>2026-04-30T09:32:00Z</time></trkpt><trkpt lat="31.55477092931697" lon="-4.707953944512334"><ele>896.0</ele><time>2026-04-30T09:32:01Z</time></trkpt><trkpt lat="31.554619660165475" lon="-4.707877136501567"><ele>896.0</ele><time>2026-04-30T09:32:02Z</time></trkpt><trkpt lat="31.554479059598084" lon="-4.707802169829849"><ele>896.0</ele><time>2026-04-30T09:32:03Z</time></trkpt><trkpt lat="31.554351171450687" lon="-4.70773148939107"><ele>896.0</ele><time>2026-04-30T09:32:04Z</time></trkpt><trkpt lat="31.554227738226555" lon="-4.707661766253932"><ele>896.0</ele><time>2026-04-30T09:32:05Z</time></trkpt><trkpt lat="31.554109730748948" lon="-4.707599923864619"><ele>896.0</ele><time>2026-04-30T09:32:06Z</time></trkpt><trkpt lat="31.553994507424385" lon="-4.707542999915485"><ele>896.0</ele><time>2026-04-30T09:32:07Z</time></trkpt><trkpt lat="31.55387504981325" lon="-4.707479769804114"><ele>896.0</ele><time>2026-04-30T09:32:08Z</time></trkpt><trkpt lat="31.55375371817288" lon="-4.707415253614593"><ele>896.0</ele><time>2026-04-30T09:32:09Z</time></trkpt><trkpt lat="31.553631446844875" lon="-4.7073463812729806"><ele>897.0</ele><time>2026-04-30T09:32:10Z</time></trkpt><trkpt lat="31.55350731034005" lon="-4.707278839736585"><ele>898.0</ele><time>2026-04-30T09:32:11Z</time></trkpt><trkpt lat="31.553378802909847" lon="-4.707213299506421"><ele>899.0</ele><time>2026-04-30T09:32:12Z</time></trkpt><trkpt lat="31.553248483450865" lon="-4.707146775920622"><ele>900.0</ele><time>2026-04-30T09:32:13Z</time></trkpt><trkpt lat="31.553117901158696" lon="-4.707077940948452"><ele>900.0</ele><time>2026-04-30T09:32:14Z</time></trkpt><trkpt lat="31.552989375185827" lon="-4.707003364281063"><ele>900.0</ele><time>2026-04-30T09:32:15Z</time></trkpt><trkpt lat="31.55286236454457" lon="-4.706920016031387"><ele>900.0</ele><time>2026-04-30T09:32:16Z</time></trkpt><trkpt lat="31.552740471507523" lon="-4.706824548909631"><ele>900.0</ele><time>2026-04-30T09:32:17Z</time></trkpt><trkpt lat="31.55262378209613" lon="-4.7067148338613505"><ele>901.6666666666667</ele><time>2026-04-30T09:32:18Z</time></trkpt><trkpt lat="31.552513962944985" lon="-4.706591596773079"><ele>903.3333333333334</ele><time>2026-04-30T09:32:19Z</time></trkpt><trkpt lat="31.552409409360184" lon="-4.70645748246363"><ele>905.0</ele><time>2026-04-30T09:32:20Z</time></trkpt><trkpt lat="31.552310447908543" lon="-4.706315347909161"><ele>905.0</ele><time>2026-04-30T09:32:21Z</time></trkpt><trkpt lat="31.55222144376618" lon="-4.7061632033392415"><ele>905.0</ele><time>2026-04-30T09:32:22Z</time></trkpt><trkpt lat="31.552145006024944" lon="-4.706000323839183"><ele>905.0</ele><time>2026-04-30T09:32:23Z</time></trkpt><trkpt lat="31.55208466457393" lon="-4.705825468606454"><ele>905.25</ele><time>2026-04-30T09:32:24Z</time></trkpt><trkpt lat="31.552038884761984" lon="-4.705643520973466"><ele>905.5</ele><time>2026-04-30T09:32:25Z</time></trkpt><trkpt lat="31.552004136861687" lon="-4.705465041936096"><ele>905.75</ele><time>2026-04-30T09:32:26Z</time></trkpt><trkpt lat="31.55197983947747" lon="-4.705319398322808"><ele>906.0</ele><time>2026-04-30T09:32:27Z</time></trkpt><trkpt lat="31.551961968727234" lon="-4.705211997470382"><ele>905.1999999999999</ele><time>2026-04-30T09:32:28Z</time></trkpt><trkpt lat="31.55194653041125" lon="-4.705124638272143"><ele>904.3999999999999</ele><time>2026-04-30T09:32:29Z</time></trkpt><trkpt lat="31.551915984060788" lon="-4.705045244482553"><ele>903.6</ele><time>2026-04-30T09:32:30Z</time></trkpt><trkpt lat="31.551896852794215" lon="-4.7049447927154215"><ele>902.8</ele><time>2026-04-30T09:32:31Z</time></trkpt><trkpt lat="31.55187205558916" lon="-4.704814647251006"><ele>902.0</ele><time>2026-04-30T09:32:32Z</time></trkpt><trkpt lat="31.551842338771632" lon="-4.704658681803157"><ele>902.0</ele><time>2026-04-30T09:32:33Z</time></trkpt><trkpt lat="31.5518106331217" lon="-4.704489732160916"><ele>902.0</ele><time>2026-04-30T09:32:34Z</time></trkpt><trkpt lat="31.551773754679985" lon="-4.7042995901608124"><ele>902.0</ele><time>2026-04-30T09:32:35Z</time></trkpt><trkpt lat="31.55173531772218" lon="-4.70410388894113"><ele>900.6666666666667</ele><time>2026-04-30T09:32:36Z</time></trkpt><trkpt lat="31.55171086740896" lon="-4.703911064662209"><ele>899.3333333333333</ele><time>2026-04-30T09:32:37Z</time></trkpt><trkpt lat="31.551674610418893" lon="-4.703725033313629"><ele>898.0</ele><time>2026-04-30T09:32:38Z</time></trkpt><trkpt lat="31.551643201489952" lon="-4.703539611101329"><ele>897.6666666666666</ele><time>2026-04-30T09:32:39Z</time></trkpt><trkpt lat="31.551592211836454" lon="-4.703361239874311"><ele>897.3333333333333</ele><time>2026-04-30T09:32:40Z</time></trkpt><trkpt lat="31.551556591918587" lon="-4.703177303139013"><ele>897.0</ele><time>2026-04-30T09:32:41Z</time></trkpt><trkpt lat="31.55152110229941" lon="-4.702994039218932"><ele>897.0</ele><time>2026-04-30T09:32:42Z</time></trkpt><trkpt lat="31.5514862466109" lon="-4.702814048886189"><ele>897.0</ele><time>2026-04-30T09:32:43Z</time></trkpt><trkpt lat="31.551453655255" lon="-4.7026457512447575"><ele>897.0</ele><time>2026-04-30T09:32:44Z</time></trkpt><trkpt lat="31.551422777442646" lon="-4.702486302127479"><ele>897.0</ele><time>2026-04-30T09:32:45Z</time></trkpt><trkpt lat="31.551393805278273" lon="-4.7023355613549205"><ele>897.75</ele><time>2026-04-30T09:32:46Z</time></trkpt><trkpt lat="31.55136615449822" lon="-4.702190999240931"><ele>898.5</ele><time>2026-04-30T09:32:47Z</time></trkpt><trkpt lat="31.5513400447628" lon="-4.702053011660637"><ele>899.25</ele><time>2026-04-30T09:32:48Z</time></trkpt><trkpt lat="31.55131361731789" lon="-4.701912278900359"><ele>900.0</ele><time>2026-04-30T09:32:49Z</time></trkpt><trkpt lat="31.551285754744196" lon="-4.7017645878025345"><ele>900.3333333333333</ele><time>2026-04-30T09:32:50Z</time></trkpt><trkpt lat="31.55125427781403" lon="-4.701599809423124"><ele>900.6666666666666</ele><time>2026-04-30T09:32:51Z</time></trkpt><trkpt lat="31.551219538014276" lon="-4.701417067241419"><ele>901.0</ele><time>2026-04-30T09:32:52Z</time></trkpt><trkpt lat="31.551182187626008" lon="-4.701217723190405"><ele>900.6666666666666</ele><time>2026-04-30T09:32:53Z</time></trkpt><trkpt lat="31.551141377584557" lon="-4.701000218325227"><ele>900.3333333333333</ele><time>2026-04-30T09:32:54Z</time></trkpt><trkpt lat="31.55110285695579" lon="-4.700798280640785"><ele>900.0</ele><time>2026-04-30T09:32:55Z</time></trkpt><trkpt lat="31.5510654116587" lon="-4.700600069092629"><ele>900.0</ele><time>2026-04-30T09:32:56Z</time></trkpt><trkpt lat="31.551029169134587" lon="-4.700406200245574"><ele>900.0</ele><time>2026-04-30T09:32:57Z</time></trkpt><trkpt lat="31.550992930855493" lon="-4.700215607690422"><ele>900.0</ele><time>2026-04-30T09:32:58Z</time></trkpt><trkpt lat="31.550956523541295" lon="-4.70002336657172"><ele>899.6666666666667</ele><time>2026-04-30T09:32:59Z</time></trkpt><trkpt lat="31.550920354930717" lon="-4.69983044338305"><ele>899.3333333333334</ele><time>2026-04-30T09:32:59.999Z</time></trkpt><trkpt lat="31.550883431772938" lon="-4.699635171262212"><ele>899.0</ele><time>2026-04-30T09:33:00.999Z</time></trkpt><trkpt lat="31.550845540945467" lon="-4.699434987418527"><ele>899.0</ele><time>2026-04-30T09:33:01.999Z</time></trkpt><trkpt lat="31.550806190138765" lon="-4.699226810484003"><ele>899.0</ele><time>2026-04-30T09:33:02.999Z</time></trkpt><trkpt lat="31.550766708889686" lon="-4.699017926556073"><ele>899.0</ele><time>2026-04-30T09:33:03.999Z</time></trkpt><trkpt lat="31.55072649225538" lon="-4.698805151996395"><ele>899.0</ele><time>2026-04-30T09:33:04.999Z</time></trkpt><trkpt lat="31.550686967079997" lon="-4.698596035683842"><ele>899.0</ele><time>2026-04-30T09:33:05.999Z</time></trkpt><trkpt lat="31.550649071196304" lon="-4.698396270732769"><ele>899.0</ele><time>2026-04-30T09:33:06.999Z</time></trkpt><trkpt lat="31.55061257514158" lon="-4.698205323910011"><ele>899.3333333333334</ele><time>2026-04-30T09:33:07.999Z</time></trkpt><trkpt lat="31.550591446456" lon="-4.698018768055899"><ele>899.6666666666667</ele><time>2026-04-30T09:33:09Z</time></trkpt><trkpt lat="31.550554005741315" lon="-4.697825663043454"><ele>900.0</ele><time>2026-04-30T09:33:10Z</time></trkpt><trkpt lat="31.550515611505908" lon="-4.697632228271857"><ele>899.3333333333333</ele><time>2026-04-30T09:33:11Z</time></trkpt><trkpt lat="31.550476418254718" lon="-4.69743837048199"><ele>898.6666666666666</ele><time>2026-04-30T09:33:12Z</time></trkpt><trkpt lat="31.550438580347794" lon="-4.697239547307982"><ele>898.0</ele><time>2026-04-30T09:33:13Z</time></trkpt><trkpt lat="31.550402009672908" lon="-4.697039107449451"><ele>897.6666666666666</ele><time>2026-04-30T09:33:14Z</time></trkpt><trkpt lat="31.55036279619491" lon="-4.696833915571026"><ele>897.3333333333333</ele><time>2026-04-30T09:33:15Z</time></trkpt><trkpt lat="31.550318983894496" lon="-4.6966238704382715"><ele>897.0</ele><time>2026-04-30T09:33:16Z</time></trkpt><trkpt lat="31.5502747976741" lon="-4.69640779277403"><ele>897.0</ele><time>2026-04-30T09:33:17Z</time></trkpt><trkpt lat="31.55023215023987" lon="-4.696190238474459"><ele>897.0</ele><time>2026-04-30T09:33:18Z</time></trkpt><trkpt lat="31.550189066671443" lon="-4.695967166934306"><ele>897.0</ele><time>2026-04-30T09:33:19Z</time></trkpt><trkpt lat="31.550145873337115" lon="-4.695743027107625"><ele>897.0</ele><time>2026-04-30T09:33:20Z</time></trkpt><trkpt lat="31.550100970781862" lon="-4.695517267307221"><ele>897.0</ele><time>2026-04-30T09:33:21Z</time></trkpt><trkpt lat="31.55005401355013" lon="-4.69528866351896"><ele>897.0</ele><time>2026-04-30T09:33:22Z</time></trkpt><trkpt lat="31.550006545966816" lon="-4.695062166625156"><ele>897.0</ele><time>2026-04-30T09:33:23Z</time></trkpt><trkpt lat="31.549960988054952" lon="-4.694830827255372"><ele>897.0</ele><time>2026-04-30T09:33:24Z</time></trkpt><trkpt lat="31.549918793881254" lon="-4.694600134816386"><ele>897.0</ele><time>2026-04-30T09:33:25Z</time></trkpt><trkpt lat="31.549875900519" lon="-4.694369073897007"><ele>897.0</ele><time>2026-04-30T09:33:26Z</time></trkpt><trkpt lat="31.549833675644198" lon="-4.694138744292648"><ele>897.0</ele><time>2026-04-30T09:33:27Z</time></trkpt><trkpt lat="31.54979071363639" lon="-4.693903417280517"><ele>897.0</ele><time>2026-04-30T09:33:28Z</time></trkpt><trkpt lat="31.54974842332873" lon="-4.6936708201911745"><ele>896.6666666666667</ele><time>2026-04-30T09:33:29Z</time></trkpt><trkpt lat="31.549703379119528" lon="-4.693436305215079"><ele>896.3333333333334</ele><time>2026-04-30T09:33:30Z</time></trkpt><trkpt lat="31.54965529182871" lon="-4.693200764014675"><ele>896.0</ele><time>2026-04-30T09:33:31Z</time></trkpt><trkpt lat="31.54960705743884" lon="-4.692963468160103"><ele>895.0</ele><time>2026-04-30T09:33:32Z</time></trkpt><trkpt lat="31.549560828301118" lon="-4.692723212001074"><ele>894.0</ele><time>2026-04-30T09:33:33Z</time></trkpt><trkpt lat="31.549515399183427" lon="-4.692482960288921"><ele>893.0</ele><time>2026-04-30T09:33:34Z</time></trkpt><trkpt lat="31.549468718504386" lon="-4.692243686194383"><ele>893.0</ele><time>2026-04-30T09:33:35Z</time></trkpt><trkpt lat="31.549419922779638" lon="-4.692004237190068"><ele>893.0</ele><time>2026-04-30T09:33:36Z</time></trkpt><trkpt lat="31.54936949008084" lon="-4.691765987906883"><ele>893.0</ele><time>2026-04-30T09:33:37Z</time></trkpt><trkpt lat="31.54932183146256" lon="-4.691526727594284"><ele>893.0</ele><time>2026-04-30T09:33:38Z</time></trkpt><trkpt lat="31.54927571117885" lon="-4.691288284827139"><ele>893.0</ele><time>2026-04-30T09:33:39Z</time></trkpt><trkpt lat="31.549230423543086" lon="-4.691049559483891"><ele>893.0</ele><time>2026-04-30T09:33:40Z</time></trkpt><trkpt lat="31.549184038429118" lon="-4.690810929752893"><ele>893.0</ele><time>2026-04-30T09:33:41Z</time></trkpt><trkpt lat="31.54913753784957" lon="-4.690573038142145"><ele>893.0</ele><time>2026-04-30T09:33:42Z</time></trkpt><trkpt lat="31.549090769024904" lon="-4.690337506845374"><ele>893.0</ele><time>2026-04-30T09:33:43Z</time></trkpt><trkpt lat="31.54904038889131" lon="-4.690096382531801"><ele>893.6666666666667</ele><time>2026-04-30T09:33:44Z</time></trkpt><trkpt lat="31.548992512441206" lon="-4.689859521694201"><ele>894.3333333333333</ele><time>2026-04-30T09:33:45Z</time></trkpt><trkpt lat="31.548947360146666" lon="-4.689621498264232"><ele>895.0</ele><time>2026-04-30T09:33:46Z</time></trkpt><trkpt lat="31.548904187532457" lon="-4.689380133715507"><ele>895.0</ele><time>2026-04-30T09:33:47Z</time></trkpt><trkpt lat="31.548857222896242" lon="-4.689146994896299"><ele>895.0</ele><time>2026-04-30T09:33:48Z</time></trkpt><trkpt lat="31.548811434951478" lon="-4.688913298934449"><ele>895.0</ele><time>2026-04-30T09:33:49Z</time></trkpt><trkpt lat="31.548766517147996" lon="-4.688680166002915"><ele>894.6666666666666</ele><time>2026-04-30T09:33:50Z</time></trkpt><trkpt lat="31.54872144895819" lon="-4.6884478125336155"><ele>894.3333333333333</ele><time>2026-04-30T09:33:51Z</time></trkpt><trkpt lat="31.54867453601239" lon="-4.688218421988391"><ele>894.0</ele><time>2026-04-30T09:33:52Z</time></trkpt><trkpt lat="31.548629830059795" lon="-4.6879906283237025"><ele>894.0</ele><time>2026-04-30T09:33:53Z</time></trkpt><trkpt lat="31.548587166555624" lon="-4.68776681633585"><ele>894.0</ele><time>2026-04-30T09:33:54Z</time></trkpt><trkpt lat="31.548543252182533" lon="-4.687545820292205"><ele>894.0</ele><time>2026-04-30T09:33:55Z</time></trkpt><trkpt lat="31.548498454944493" lon="-4.687325592914494"><ele>894.3333333333333</ele><time>2026-04-30T09:33:56Z</time></trkpt><trkpt lat="31.548456697091826" lon="-4.687106336588729"><ele>894.6666666666666</ele><time>2026-04-30T09:33:57Z</time></trkpt><trkpt lat="31.548415744803304" lon="-4.686889569550939"><ele>895.0</ele><time>2026-04-30T09:33:58Z</time></trkpt><trkpt lat="31.548371309362924" lon="-4.686677310525314"><ele>895.0</ele><time>2026-04-30T09:33:59Z</time></trkpt><trkpt lat="31.548330606958274" lon="-4.686475334156003"><ele>895.0</ele><time>2026-04-30T09:34:00Z</time></trkpt><trkpt lat="31.548297844546" lon="-4.686282137695352"><ele>895.0</ele><time>2026-04-30T09:34:01Z</time></trkpt><trkpt lat="31.548263790995634" lon="-4.686092712935386"><ele>894.6666666666666</ele><time>2026-04-30T09:34:02Z</time></trkpt><trkpt lat="31.54822753117637" lon="-4.685905763550118"><ele>894.3333333333333</ele><time>2026-04-30T09:34:03Z</time></trkpt><trkpt lat="31.548189801615386" lon="-4.685714952949381"><ele>894.0</ele><time>2026-04-30T09:34:04Z</time></trkpt><trkpt lat="31.548152271213468" lon="-4.685519313349921"><ele>894.0</ele><time>2026-04-30T09:34:05Z</time></trkpt><trkpt lat="31.548109318489438" lon="-4.685319237646924"><ele>894.0</ele><time>2026-04-30T09:34:06Z</time></trkpt><trkpt lat="31.548068265302195" lon="-4.68511179267141"><ele>894.0</ele><time>2026-04-30T09:34:07Z</time></trkpt><trkpt lat="31.54802599078141" lon="-4.684896591240161"><ele>894.0</ele><time>2026-04-30T09:34:08Z</time></trkpt><trkpt lat="31.547984206187863" lon="-4.684680039277618"><ele>894.0</ele><time>2026-04-30T09:34:09Z</time></trkpt><trkpt lat="31.547940600187392" lon="-4.684460900088982"><ele>894.0</ele><time>2026-04-30T09:34:10Z</time></trkpt><trkpt lat="31.547897413733725" lon="-4.6842378124127695"><ele>894.3333333333333</ele><time>2026-04-30T09:34:11Z</time></trkpt><trkpt lat="31.547853208818154" lon="-4.684007649617067"><ele>894.6666666666666</ele><time>2026-04-30T09:34:12Z</time></trkpt><trkpt lat="31.54780513959834" lon="-4.683781822929189"><ele>895.0</ele><time>2026-04-30T09:34:13Z</time></trkpt><trkpt lat="31.54776003667726" lon="-4.683550332995394"><ele>895.0</ele><time>2026-04-30T09:34:14Z</time></trkpt><trkpt lat="31.547722294629814" lon="-4.683317914338721"><ele>895.0</ele><time>2026-04-30T09:34:15Z</time></trkpt><trkpt lat="31.547681061664456" lon="-4.683085568672188"><ele>895.0</ele><time>2026-04-30T09:34:16Z</time></trkpt><trkpt lat="31.547633831237604" lon="-4.68285229914393"><ele>895.0</ele><time>2026-04-30T09:34:17Z</time></trkpt><trkpt lat="31.547585389391692" lon="-4.682618865905206"><ele>895.0</ele><time>2026-04-30T09:34:18Z</time></trkpt><trkpt lat="31.547542225827833" lon="-4.682386864409595"><ele>895.0</ele><time>2026-04-30T09:34:19Z</time></trkpt><trkpt lat="31.547499250196488" lon="-4.682155780314649"><ele>895.3333333333333</ele><time>2026-04-30T09:34:20Z</time></trkpt><trkpt lat="31.547453774511638" lon="-4.681924282555948"><ele>895.6666666666667</ele><time>2026-04-30T09:34:21Z</time></trkpt><trkpt lat="31.5474076107116" lon="-4.681694550121847"><ele>896.0</ele><time>2026-04-30T09:34:22Z</time></trkpt><trkpt lat="31.54734521817462" lon="-4.681469546008146"><ele>896.0</ele><time>2026-04-30T09:34:23Z</time></trkpt><trkpt lat="31.547298540871143" lon="-4.6812380778839096"><ele>896.0</ele><time>2026-04-30T09:34:24Z</time></trkpt><trkpt lat="31.54725154537984" lon="-4.681003644786063"><ele>896.0</ele><time>2026-04-30T09:34:25Z</time></trkpt><trkpt lat="31.547204620007463" lon="-4.680770558388797"><ele>895.0</ele><time>2026-04-30T09:34:26Z</time></trkpt><trkpt lat="31.5471573346052" lon="-4.6805368084249785"><ele>894.0</ele><time>2026-04-30T09:34:27Z</time></trkpt><trkpt lat="31.547109873147654" lon="-4.680303468705395"><ele>893.0</ele><time>2026-04-30T09:34:28Z</time></trkpt><trkpt lat="31.547062894217632" lon="-4.680070023932191"><ele>893.0</ele><time>2026-04-30T09:34:29Z</time></trkpt><trkpt lat="31.547015934631627" lon="-4.67983447059773"><ele>893.0</ele><time>2026-04-30T09:34:30Z</time></trkpt><trkpt lat="31.54697176670596" lon="-4.679594961066333"><ele>893.0</ele><time>2026-04-30T09:34:31Z</time></trkpt><trkpt lat="31.54692792900809" lon="-4.679357242216803"><ele>893.0</ele><time>2026-04-30T09:34:32Z</time></trkpt><trkpt lat="31.546883785803544" lon="-4.679120738568318"><ele>893.0</ele><time>2026-04-30T09:34:33Z</time></trkpt><trkpt lat="31.546840003523712" lon="-4.678884687199506"><ele>893.0</ele><time>2026-04-30T09:34:34Z</time></trkpt><trkpt lat="31.54679617047827" lon="-4.678648362128219"><ele>892.3333333333334</ele><time>2026-04-30T09:34:35Z</time></trkpt><trkpt lat="31.54675226038479" lon="-4.678411621649599"><ele>891.6666666666667</ele><time>2026-04-30T09:34:36Z</time></trkpt><trkpt lat="31.546708927056958" lon="-4.678176790183837"><ele>891.0</ele><time>2026-04-30T09:34:37Z</time></trkpt><trkpt lat="31.54666620551362" lon="-4.677943264667538"><ele>890.6666666666667</ele><time>2026-04-30T09:34:38Z</time></trkpt><trkpt lat="31.546637292582997" lon="-4.677707227025594"><ele>890.3333333333334</ele><time>2026-04-30T09:34:39Z</time></trkpt><trkpt lat="31.5465883590298" lon="-4.677478840883056"><ele>890.0</ele><time>2026-04-30T09:34:40Z</time></trkpt><trkpt lat="31.546543437200647" lon="-4.6772503647203765"><ele>890.0</ele><time>2026-04-30T09:34:41Z</time></trkpt><trkpt lat="31.546498931616433" lon="-4.6770220114195284"><ele>890.0</ele><time>2026-04-30T09:34:42Z</time></trkpt><trkpt lat="31.54645523184" lon="-4.676793998336524"><ele>890.0</ele><time>2026-04-30T09:34:43Z</time></trkpt><trkpt lat="31.54641152454074" lon="-4.676565164285546"><ele>890.3333333333334</ele><time>2026-04-30T09:34:44Z</time></trkpt><trkpt lat="31.546367016017218" lon="-4.676338542607865"><ele>890.6666666666667</ele><time>2026-04-30T09:34:45Z</time></trkpt><trkpt lat="31.546322263037155" lon="-4.676112822127074"><ele>891.0</ele><time>2026-04-30T09:34:46Z</time></trkpt><trkpt lat="31.54627832092978" lon="-4.675886078556501"><ele>891.3333333333333</ele><time>2026-04-30T09:34:47Z</time></trkpt><trkpt lat="31.54623218950069" lon="-4.675661587056287"><ele>891.6666666666666</ele><time>2026-04-30T09:34:48Z</time></trkpt><trkpt lat="31.54618707471531" lon="-4.6754369563588005"><ele>892.0</ele><time>2026-04-30T09:34:49Z</time></trkpt><trkpt lat="31.5461441857098" lon="-4.67521162840848"><ele>893.0</ele><time>2026-04-30T09:34:50Z</time></trkpt><trkpt lat="31.546103684544093" lon="-4.674986268850653"><ele>894.0</ele><time>2026-04-30T09:34:51Z</time></trkpt><trkpt lat="31.546061402774328" lon="-4.674760265376021"><ele>895.0</ele><time>2026-04-30T09:34:52Z</time></trkpt><trkpt lat="31.54601592439283" lon="-4.674532918874068"><ele>894.3333333333333</ele><time>2026-04-30T09:34:53Z</time></trkpt><trkpt lat="31.5459700012569" lon="-4.674304656621763"><ele>893.6666666666667</ele><time>2026-04-30T09:34:54Z</time></trkpt><trkpt lat="31.545924905997627" lon="-4.6740732206681"><ele>893.0</ele><time>2026-04-30T09:34:55Z</time></trkpt><trkpt lat="31.54587901303124" lon="-4.6738433775815835"><ele>893.0</ele><time>2026-04-30T09:34:56Z</time></trkpt><trkpt lat="31.545832844332587" lon="-4.673611338108483"><ele>893.0</ele><time>2026-04-30T09:34:57Z</time></trkpt><trkpt lat="31.545789022316196" lon="-4.673377391918795"><ele>893.0</ele><time>2026-04-30T09:34:58Z</time></trkpt><trkpt lat="31.545745630288387" lon="-4.673144887058163"><ele>893.3333333333334</ele><time>2026-04-30T09:34:59Z</time></trkpt><trkpt lat="31.545700288373723" lon="-4.672911427196512"><ele>893.6666666666667</ele><time>2026-04-30T09:34:59.999Z</time></trkpt><trkpt lat="31.54565519727712" lon="-4.672675895852813"><ele>894.0</ele><time>2026-04-30T09:35:00.999Z</time></trkpt><trkpt lat="31.54561027605833" lon="-4.672439633126534"><ele>893.3333333333333</ele><time>2026-04-30T09:35:01.999Z</time></trkpt><trkpt lat="31.545565214471466" lon="-4.6721990470633425"><ele>892.6666666666666</ele><time>2026-04-30T09:35:02.999Z</time></trkpt><trkpt lat="31.545518827076016" lon="-4.671958410413119"><ele>892.0</ele><time>2026-04-30T09:35:03.999Z</time></trkpt><trkpt lat="31.54547503069445" lon="-4.671717655047233"><ele>891.6666666666666</ele><time>2026-04-30T09:35:04.999Z</time></trkpt><trkpt lat="31.545428960203807" lon="-4.67147529784203"><ele>891.3333333333333</ele><time>2026-04-30T09:35:05.999Z</time></trkpt><trkpt lat="31.545382092299374" lon="-4.671233964822991"><ele>891.0</ele><time>2026-04-30T09:35:06.999Z</time></trkpt><trkpt lat="31.54533295089416" lon="-4.670995683472274"><ele>891.0</ele><time>2026-04-30T09:35:07.999Z</time></trkpt><trkpt lat="31.545287826749732" lon="-4.670754347242461"><ele>891.0</ele><time>2026-04-30T09:35:08.999Z</time></trkpt><trkpt lat="31.545244616427752" lon="-4.670514001378218"><ele>891.0</ele><time>2026-04-30T09:35:09.999Z</time></trkpt><trkpt lat="31.5451827747809" lon="-4.67027894782438"><ele>891.0</ele><time>2026-04-30T09:35:10.999Z</time></trkpt><trkpt lat="31.545134936487432" lon="-4.67003726039885"><ele>891.0</ele><time>2026-04-30T09:35:11.999Z</time></trkpt><trkpt lat="31.54510364901565" lon="-4.66979145914885"><ele>891.0</ele><time>2026-04-30T09:35:12.999Z</time></trkpt><trkpt lat="31.545056454502863" lon="-4.669556662114926"><ele>891.3333333333333</ele><time>2026-04-30T09:35:13.999Z</time></trkpt><trkpt lat="31.545007076805266" lon="-4.669321302650161"><ele>891.6666666666666</ele><time>2026-04-30T09:35:15Z</time></trkpt><trkpt lat="31.544960628224207" lon="-4.66908905809713"><ele>892.0</ele><time>2026-04-30T09:35:16Z</time></trkpt><trkpt lat="31.544915600352862" lon="-4.668859209984526"><ele>892.0</ele><time>2026-04-30T09:35:17Z</time></trkpt><trkpt lat="31.54487140887183" lon="-4.668630279403388"><ele>892.0</ele><time>2026-04-30T09:35:18Z</time></trkpt><trkpt lat="31.544826647794782" lon="-4.668402435350637"><ele>892.0</ele><time>2026-04-30T09:35:19Z</time></trkpt><trkpt lat="31.544779901182473" lon="-4.668175867175632"><ele>892.6666666666666</ele><time>2026-04-30T09:35:20Z</time></trkpt><trkpt lat="31.54473589851716" lon="-4.66794945225654"><ele>893.3333333333333</ele><time>2026-04-30T09:35:21Z</time></trkpt><trkpt lat="31.544693862996247" lon="-4.667723600815395"><ele>894.0</ele><time>2026-04-30T09:35:22Z</time></trkpt><trkpt lat="31.544648764175022" lon="-4.6674954549531975"><ele>894.3333333333333</ele><time>2026-04-30T09:35:23Z</time></trkpt><trkpt lat="31.544604705737232" lon="-4.667275000528142"><ele>894.6666666666666</ele><time>2026-04-30T09:35:24Z</time></trkpt><trkpt lat="31.544560994666156" lon="-4.667058272366156"><ele>895.0</ele><time>2026-04-30T09:35:25Z</time></trkpt><trkpt lat="31.544518859539" lon="-4.666844083806927"><ele>895.6666666666666</ele><time>2026-04-30T09:35:26Z</time></trkpt><trkpt lat="31.54447953154291" lon="-4.666632264790317"><ele>896.3333333333333</ele><time>2026-04-30T09:35:27Z</time></trkpt><trkpt lat="31.54444023250023" lon="-4.66641921699404"><ele>897.0</ele><time>2026-04-30T09:35:28Z</time></trkpt><trkpt lat="31.544403035978572" lon="-4.666206835448089"><ele>896.0</ele><time>2026-04-30T09:35:29Z</time></trkpt><trkpt lat="31.54437224731859" lon="-4.665995967083161"><ele>895.0</ele><time>2026-04-30T09:35:30Z</time></trkpt><trkpt lat="31.544338540341172" lon="-4.665782996377656"><ele>894.0</ele><time>2026-04-30T09:35:31Z</time></trkpt><trkpt lat="31.54429973889795" lon="-4.665568376259867"><ele>894.0</ele><time>2026-04-30T09:35:32Z</time></trkpt><trkpt lat="31.544250311082333" lon="-4.665353218069939"><ele>894.0</ele><time>2026-04-30T09:35:33Z</time></trkpt><trkpt lat="31.544198197467956" lon="-4.665139792436888"><ele>894.0</ele><time>2026-04-30T09:35:34Z</time></trkpt><trkpt lat="31.544150682655932" lon="-4.664923259085472"><ele>894.3333333333333</ele><time>2026-04-30T09:35:35Z</time></trkpt><trkpt lat="31.544106897981727" lon="-4.664707405172815"><ele>894.6666666666666</ele><time>2026-04-30T09:35:36Z</time></trkpt><trkpt lat="31.544057045403406" lon="-4.664490929533352"><ele>895.0</ele><time>2026-04-30T09:35:37Z</time></trkpt><trkpt lat="31.544003184465076" lon="-4.664274785852784"><ele>894.3333333333333</ele><time>2026-04-30T09:35:38Z</time></trkpt><trkpt lat="31.54394808285732" lon="-4.664060971059349"><ele>893.6666666666667</ele><time>2026-04-30T09:35:39Z</time></trkpt><trkpt lat="31.543885324032654" lon="-4.663843977630165"><ele>893.0</ele><time>2026-04-30T09:35:40Z</time></trkpt><trkpt lat="31.543817653041305" lon="-4.663634164845721"><ele>893.3333333333334</ele><time>2026-04-30T09:35:41Z</time></trkpt><trkpt lat="31.543743637610653" lon="-4.663425597930434"><ele>893.6666666666667</ele><time>2026-04-30T09:35:42Z</time></trkpt><trkpt lat="31.543670329720296" lon="-4.663215277449851"><ele>894.0</ele><time>2026-04-30T09:35:43Z</time></trkpt><trkpt lat="31.543595528331156" lon="-4.663006528783227"><ele>894.6666666666667</ele><time>2026-04-30T09:35:44Z</time></trkpt><trkpt lat="31.543515775786748" lon="-4.662803732977997"><ele>895.3333333333334</ele><time>2026-04-30T09:35:45Z</time></trkpt><trkpt lat="31.543433071795377" lon="-4.66260668986538"><ele>896.0</ele><time>2026-04-30T09:35:46Z</time></trkpt><trkpt lat="31.543349361654258" lon="-4.662410344006119"><ele>896.3333333333334</ele><time>2026-04-30T09:35:47Z</time></trkpt><trkpt lat="31.543262172837174" lon="-4.662213420334823"><ele>896.6666666666667</ele><time>2026-04-30T09:35:48Z</time></trkpt><trkpt lat="31.543172776188744" lon="-4.662019257664021"><ele>897.0</ele><time>2026-04-30T09:35:49Z</time></trkpt><trkpt lat="31.54307697969878" lon="-4.6618242828325664"><ele>897.0</ele><time>2026-04-30T09:35:50Z</time></trkpt><trkpt lat="31.542980048416076" lon="-4.661629582056647"><ele>897.0</ele><time>2026-04-30T09:35:51Z</time></trkpt><trkpt lat="31.54288550166305" lon="-4.661433205325224"><ele>897.0</ele><time>2026-04-30T09:35:52Z</time></trkpt><trkpt lat="31.542792437723634" lon="-4.661233373877065"><ele>897.0</ele><time>2026-04-30T09:35:53Z</time></trkpt><trkpt lat="31.542699385003658" lon="-4.661028253493976"><ele>897.0</ele><time>2026-04-30T09:35:54Z</time></trkpt><trkpt lat="31.54260096864534" lon="-4.660820747736158"><ele>897.0</ele><time>2026-04-30T09:35:55Z</time></trkpt><trkpt lat="31.54249979486208" lon="-4.660610182058946"><ele>897.0</ele><time>2026-04-30T09:35:56Z</time></trkpt><trkpt lat="31.54239501346675" lon="-4.66039700818506"><ele>897.0</ele><time>2026-04-30T09:35:57Z</time></trkpt><trkpt lat="31.542294362749395" lon="-4.660181107046876"><ele>897.0</ele><time>2026-04-30T09:35:58Z</time></trkpt><trkpt lat="31.542191103335195" lon="-4.659965482749392"><ele>897.3333333333333</ele><time>2026-04-30T09:35:59Z</time></trkpt><trkpt lat="31.542086728522055" lon="-4.659745483334649"><ele>897.6666666666666</ele><time>2026-04-30T09:36:00Z</time></trkpt><trkpt lat="31.541980852509347" lon="-4.659527285882083"><ele>898.0</ele><time>2026-04-30T09:36:01Z</time></trkpt><trkpt lat="31.541874401672317" lon="-4.6593052566327895"><ele>897.3333333333333</ele><time>2026-04-30T09:36:02Z</time></trkpt><trkpt lat="31.541766808096227" lon="-4.659084070332175"><ele>896.6666666666667</ele><time>2026-04-30T09:36:03Z</time></trkpt><trkpt lat="31.541659579113734" lon="-4.658863611464152"><ele>896.0</ele><time>2026-04-30T09:36:04Z</time></trkpt><trkpt lat="31.541553824825986" lon="-4.658638584534387"><ele>896.0</ele><time>2026-04-30T09:36:05Z</time></trkpt><trkpt lat="31.541447222478432" lon="-4.658412682689182"><ele>896.0</ele><time>2026-04-30T09:36:06Z</time></trkpt><trkpt lat="31.54134208463298" lon="-4.658186933623992"><ele>896.0</ele><time>2026-04-30T09:36:07Z</time></trkpt><trkpt lat="31.54123813506148" lon="-4.657962722679414"><ele>894.6666666666667</ele><time>2026-04-30T09:36:08Z</time></trkpt><trkpt lat="31.541138968472627" lon="-4.657744149773469"><ele>893.3333333333333</ele><time>2026-04-30T09:36:09Z</time></trkpt><trkpt lat="31.54103911303789" lon="-4.657525652795434"><ele>892.0</ele><time>2026-04-30T09:36:10Z</time></trkpt><trkpt lat="31.540919036832328" lon="-4.65728190376978"><ele>892.0</ele><time>2026-04-30T09:36:11Z</time></trkpt><trkpt lat="31.5408122235466" lon="-4.657054459408814"><ele>892.0</ele><time>2026-04-30T09:36:12Z</time></trkpt><trkpt lat="31.54070436610788" lon="-4.656828525809337"><ele>892.0</ele><time>2026-04-30T09:36:13Z</time></trkpt><trkpt lat="31.540597599660988" lon="-4.656603443768557"><ele>892.0</ele><time>2026-04-30T09:36:14Z</time></trkpt><trkpt lat="31.540491800554786" lon="-4.656375188624972"><ele>892.0</ele><time>2026-04-30T09:36:15Z</time></trkpt><trkpt lat="31.54038364494497" lon="-4.656149105123658"><ele>892.0</ele><time>2026-04-30T09:36:16Z</time></trkpt><trkpt lat="31.540276799897615" lon="-4.655927499475187"><ele>892.3333333333333</ele><time>2026-04-30T09:36:17Z</time></trkpt><trkpt lat="31.54017339222832" lon="-4.655707253834131"><ele>892.6666666666667</ele><time>2026-04-30T09:36:18Z</time></trkpt><trkpt lat="31.540067237050533" lon="-4.655485382991217"><ele>893.0</ele><time>2026-04-30T09:36:19Z</time></trkpt><trkpt lat="31.539961485553064" lon="-4.655259572871225"><ele>893.0</ele><time>2026-04-30T09:36:20Z</time></trkpt><trkpt lat="31.53985402233677" lon="-4.655033179959408"><ele>893.0</ele><time>2026-04-30T09:36:21Z</time></trkpt><trkpt lat="31.53974391065488" lon="-4.654803491910662"><ele>893.0</ele><time>2026-04-30T09:36:22Z</time></trkpt><trkpt lat="31.539632166073932" lon="-4.6545723132840084"><ele>894.0</ele><time>2026-04-30T09:36:23Z</time></trkpt><trkpt lat="31.539520884131214" lon="-4.654336793782249"><ele>895.0</ele><time>2026-04-30T09:36:24Z</time></trkpt><trkpt lat="31.539408974760956" lon="-4.654101056245904"><ele>895.0</ele><time>2026-04-30T09:36:25Z</time></trkpt><trkpt lat="31.539297512841877" lon="-4.653865274929845"><ele>895.0</ele><time>2026-04-30T09:36:26Z</time></trkpt><trkpt lat="31.539184133075427" lon="-4.653629202912463"><ele>894.0</ele><time>2026-04-30T09:36:27Z</time></trkpt><trkpt lat="31.539070098811766" lon="-4.653389485887229"><ele>893.0</ele><time>2026-04-30T09:36:28Z</time></trkpt><trkpt lat="31.538960012158974" lon="-4.653152900455809"><ele>893.0</ele><time>2026-04-30T09:36:29Z</time></trkpt><trkpt lat="31.538849426402102" lon="-4.65291267461039"><ele>893.0</ele><time>2026-04-30T09:36:30Z</time></trkpt><trkpt lat="31.538738348085616" lon="-4.6526731734507685"><ele>893.0</ele><time>2026-04-30T09:36:31Z</time></trkpt><trkpt lat="31.53862596551622" lon="-4.652433870521565"><ele>893.0</ele><time>2026-04-30T09:36:32Z</time></trkpt><trkpt lat="31.538510434732473" lon="-4.652193609178169"><ele>893.0</ele><time>2026-04-30T09:36:33Z</time></trkpt><trkpt lat="31.53839338857105" lon="-4.651952233394828"><ele>893.0</ele><time>2026-04-30T09:36:34Z</time></trkpt><trkpt lat="31.53827884074612" lon="-4.6517094144706626"><ele>893.0</ele><time>2026-04-30T09:36:35Z</time></trkpt><trkpt lat="31.538165762150783" lon="-4.651464981722577"><ele>893.0</ele><time>2026-04-30T09:36:36Z</time></trkpt><trkpt lat="31.53805423225909" lon="-4.651217049088155"><ele>893.0</ele><time>2026-04-30T09:36:37Z</time></trkpt><trkpt lat="31.537940671586266" lon="-4.650969671414845"><ele>893.0</ele><time>2026-04-30T09:36:38Z</time></trkpt><trkpt lat="31.53781002033463" lon="-4.650734553105776"><ele>893.5</ele><time>2026-04-30T09:36:39Z</time></trkpt><trkpt lat="31.537690846866113" lon="-4.650491561034625"><ele>894.0</ele><time>2026-04-30T09:36:40Z</time></trkpt><trkpt lat="31.53758878187739" lon="-4.650239173912629"><ele>893.0</ele><time>2026-04-30T09:36:41Z</time></trkpt><trkpt lat="31.537468643061853" lon="-4.649999476965835"><ele>892.0</ele><time>2026-04-30T09:36:42Z</time></trkpt><trkpt lat="31.537348909185244" lon="-4.649757097106165"><ele>892.0</ele><time>2026-04-30T09:36:43Z</time></trkpt><trkpt lat="31.537230468870366" lon="-4.64951110518825"><ele>892.0</ele><time>2026-04-30T09:36:44Z</time></trkpt><trkpt lat="31.5371126144371" lon="-4.649267088027243"><ele>891.0</ele><time>2026-04-30T09:36:45Z</time></trkpt><trkpt lat="31.536998099975815" lon="-4.649018744181003"><ele>890.0</ele><time>2026-04-30T09:36:46Z</time></trkpt><trkpt lat="31.53688682843521" lon="-4.648765807237763"><ele>890.0</ele><time>2026-04-30T09:36:47Z</time></trkpt><trkpt lat="31.53677486938278" lon="-4.648515284167093"><ele>890.0</ele><time>2026-04-30T09:36:48Z</time></trkpt><trkpt lat="31.53665914450405" lon="-4.648267530695062"><ele>890.0</ele><time>2026-04-30T09:36:49Z</time></trkpt><trkpt lat="31.536541966248013" lon="-4.64802377946707"><ele>890.0</ele><time>2026-04-30T09:36:50Z</time></trkpt><trkpt lat="31.536424622698338" lon="-4.64778456942803"><ele>890.5</ele><time>2026-04-30T09:36:51Z</time></trkpt><trkpt lat="31.536310778731327" lon="-4.6475449215091915"><ele>891.0</ele><time>2026-04-30T09:36:52Z</time></trkpt><trkpt lat="31.53619942561081" lon="-4.647310416579595"><ele>891.5</ele><time>2026-04-30T09:36:53Z</time></trkpt><trkpt lat="31.536087707484263" lon="-4.647077223040515"><ele>892.0</ele><time>2026-04-30T09:36:54Z</time></trkpt><trkpt lat="31.53597545358763" lon="-4.646849485256487"><ele>892.3333333333333</ele><time>2026-04-30T09:36:55Z</time></trkpt><trkpt lat="31.53586589741018" lon="-4.646619166081658"><ele>892.6666666666667</ele><time>2026-04-30T09:36:56Z</time></trkpt><trkpt lat="31.53575862001196" lon="-4.646388199255093"><ele>893.0</ele><time>2026-04-30T09:36:57Z</time></trkpt><trkpt lat="31.53565115825202" lon="-4.646154861194646"><ele>893.0</ele><time>2026-04-30T09:36:58Z</time></trkpt><trkpt lat="31.53554040967269" lon="-4.645924474474523"><ele>893.0</ele><time>2026-04-30T09:36:59Z</time></trkpt><trkpt lat="31.53542834544085" lon="-4.645696086730523"><ele>894.0</ele><time>2026-04-30T09:37:00Z</time></trkpt><trkpt lat="31.53531562345237" lon="-4.645463659252538"><ele>895.0</ele><time>2026-04-30T09:37:00.999Z</time></trkpt><trkpt lat="31.535207113068484" lon="-4.645233424621858"><ele>895.0</ele><time>2026-04-30T09:37:01.999Z</time></trkpt><trkpt lat="31.535095163729757" lon="-4.644998526233475"><ele>895.0</ele><time>2026-04-30T09:37:02.999Z</time></trkpt><trkpt lat="31.5349853950725" lon="-4.644765043790446"><ele>895.0</ele><time>2026-04-30T09:37:03.999Z</time></trkpt><trkpt lat="31.534875294932185" lon="-4.644528353214273"><ele>895.0</ele><time>2026-04-30T09:37:04.999Z</time></trkpt><trkpt lat="31.53476342259755" lon="-4.64428930569746"><ele>894.5</ele><time>2026-04-30T09:37:05.999Z</time></trkpt><trkpt lat="31.534650834536375" lon="-4.644051644270559"><ele>894.0</ele><time>2026-04-30T09:37:06.999Z</time></trkpt><trkpt lat="31.53453636655847" lon="-4.643815825330474"><ele>896.5</ele><time>2026-04-30T09:37:07.999Z</time></trkpt><trkpt lat="31.534417998631362" lon="-4.643582389978976"><ele>899.0</ele><time>2026-04-30T09:37:08.999Z</time></trkpt><trkpt lat="31.534272678940663" lon="-4.643368731441293"><ele>899.0</ele><time>2026-04-30T09:37:09.999Z</time></trkpt><trkpt lat="31.53413496993996" lon="-4.643149576137734"><ele>899.0</ele><time>2026-04-30T09:37:10.999Z</time></trkpt><trkpt lat="31.53399057207079" lon="-4.642943238024774"><ele>899.0</ele><time>2026-04-30T09:37:11.999Z</time></trkpt><trkpt lat="31.533846943860258" lon="-4.642731025167555"><ele>899.0</ele><time>2026-04-30T09:37:12.999Z</time></trkpt><trkpt lat="31.53367852003448" lon="-4.642545257587331"><ele>899.0</ele><time>2026-04-30T09:37:13.999Z</time></trkpt><trkpt lat="31.53350936893906" lon="-4.642364338375176"><ele>899.0</ele><time>2026-04-30T09:37:14.999Z</time></trkpt><trkpt lat="31.533340360644257" lon="-4.642184093094943"><ele>899.0</ele><time>2026-04-30T09:37:15.999Z</time></trkpt><trkpt lat="31.533171838389123" lon="-4.642004170879661"><ele>899.0</ele><time>2026-04-30T09:37:16.999Z</time></trkpt><trkpt lat="31.53300370674076" lon="-4.641821876148357"><ele>900.0</ele><time>2026-04-30T09:37:17.999Z</time></trkpt><trkpt lat="31.53283842364616" lon="-4.641641627358719"><ele>901.0</ele><time>2026-04-30T09:37:18.999Z</time></trkpt><trkpt lat="31.532672888418833" lon="-4.641459354127392"><ele>901.0</ele><time>2026-04-30T09:37:19.999Z</time></trkpt><trkpt lat="31.532509231599363" lon="-4.641277639848159"><ele>901.0</ele><time>2026-04-30T09:37:21Z</time></trkpt><trkpt lat="31.532344725793276" lon="-4.641098518286693"><ele>901.0</ele><time>2026-04-30T09:37:22Z</time></trkpt><trkpt lat="31.53218055396412" lon="-4.640918606753222"><ele>901.0</ele><time>2026-04-30T09:37:23Z</time></trkpt><trkpt lat="31.532018776866753" lon="-4.6407384507671985"><ele>901.0</ele><time>2026-04-30T09:37:24Z</time></trkpt><trkpt lat="31.531855514301665" lon="-4.640558234849134"><ele>901.6666666666666</ele><time>2026-04-30T09:37:25Z</time></trkpt><trkpt lat="31.531693080407095" lon="-4.640379847601225"><ele>902.3333333333333</ele><time>2026-04-30T09:37:26Z</time></trkpt><trkpt lat="31.53152971662012" lon="-4.640201967074409"><ele>903.0</ele><time>2026-04-30T09:37:27Z</time></trkpt><trkpt lat="31.531365509829424" lon="-4.6400253642317715"><ele>904.0</ele><time>2026-04-30T09:37:28Z</time></trkpt><trkpt lat="31.53120230140602" lon="-4.639848601959167"><ele>905.0</ele><time>2026-04-30T09:37:29Z</time></trkpt><trkpt lat="31.5310384718879" lon="-4.6396712144221075"><ele>906.0</ele><time>2026-04-30T09:37:30Z</time></trkpt><trkpt lat="31.530875727275728" lon="-4.639494626623634"><ele>905.6666666666667</ele><time>2026-04-30T09:37:31Z</time></trkpt><trkpt lat="31.530715901138436" lon="-4.639318307874982"><ele>905.3333333333334</ele><time>2026-04-30T09:37:32Z</time></trkpt><trkpt lat="31.53055453446186" lon="-4.6391430346812985"><ele>905.0</ele><time>2026-04-30T09:37:33Z</time></trkpt><trkpt lat="31.530391355809865" lon="-4.638966624825222"><ele>905.3333333333334</ele><time>2026-04-30T09:37:34Z</time></trkpt><trkpt lat="31.530230463360354" lon="-4.638792071952931"><ele>905.6666666666667</ele><time>2026-04-30T09:37:35Z</time></trkpt><trkpt lat="31.530071095888392" lon="-4.638618501039897"><ele>906.0</ele><time>2026-04-30T09:37:36Z</time></trkpt><trkpt lat="31.52991122752373" lon="-4.638446346211414"><ele>906.0</ele><time>2026-04-30T09:37:37Z</time></trkpt><trkpt lat="31.529750948151978" lon="-4.6382748170216965"><ele>906.0</ele><time>2026-04-30T09:37:38Z</time></trkpt><trkpt lat="31.52959255962302" lon="-4.6380982895678"><ele>906.0</ele><time>2026-04-30T09:37:39Z</time></trkpt><trkpt lat="31.529437853665087" lon="-4.63791273538638"><ele>906.6666666666667</ele><time>2026-04-30T09:37:40Z</time></trkpt><trkpt lat="31.529290657322637" lon="-4.637722303521839"><ele>907.3333333333334</ele><time>2026-04-30T09:37:41Z</time></trkpt><trkpt lat="31.529148627976248" lon="-4.637527245732978"><ele>908.0</ele><time>2026-04-30T09:37:42Z</time></trkpt><trkpt lat="31.529015031299522" lon="-4.637329497953853"><ele>908.0</ele><time>2026-04-30T09:37:43Z</time></trkpt><trkpt lat="31.52888733088849" lon="-4.637124724039048"><ele>908.0</ele><time>2026-04-30T09:37:44Z</time></trkpt><trkpt lat="31.528774986534284" lon="-4.6369139688382335"><ele>908.0</ele><time>2026-04-30T09:37:45Z</time></trkpt><trkpt lat="31.528674564364742" lon="-4.636690965171731"><ele>908.3333333333334</ele><time>2026-04-30T09:37:46Z</time></trkpt><trkpt lat="31.52858389385247" lon="-4.636459053560939"><ele>908.6666666666667</ele><time>2026-04-30T09:37:47Z</time></trkpt><trkpt lat="31.52849808270157" lon="-4.636221200093048"><ele>909.0</ele><time>2026-04-30T09:37:48Z</time></trkpt><trkpt lat="31.528416258468464" lon="-4.635978780929817"><ele>907.5</ele><time>2026-04-30T09:37:49Z</time></trkpt><trkpt lat="31.52834631436212" lon="-4.635727557140169"><ele>906.0</ele><time>2026-04-30T09:37:50Z</time></trkpt><trkpt lat="31.528281057622745" lon="-4.63547458709329"><ele>905.5</ele><time>2026-04-30T09:37:51Z</time></trkpt><trkpt lat="31.52821519340203" lon="-4.635218761498906"><ele>905.0</ele><time>2026-04-30T09:37:52Z</time></trkpt><trkpt lat="31.528144894971383" lon="-4.634959828305848"><ele>905.0</ele><time>2026-04-30T09:37:53Z</time></trkpt><trkpt lat="31.528075653019403" lon="-4.634699843218397"><ele>905.0</ele><time>2026-04-30T09:37:54Z</time></trkpt><trkpt lat="31.52800614994192" lon="-4.634440007079407"><ele>905.0</ele><time>2026-04-30T09:37:55Z</time></trkpt><trkpt lat="31.527935739496705" lon="-4.6341802278291535"><ele>905.0</ele><time>2026-04-30T09:37:56Z</time></trkpt><trkpt lat="31.527864396072246" lon="-4.633921800988508"><ele>905.0</ele><time>2026-04-30T09:37:57Z</time></trkpt><trkpt lat="31.52779288807616" lon="-4.633664376151336"><ele>905.0</ele><time>2026-04-30T09:37:58Z</time></trkpt><trkpt lat="31.527720187168082" lon="-4.633405239726613"><ele>904.0</ele><time>2026-04-30T09:37:59Z</time></trkpt><trkpt lat="31.527649104075977" lon="-4.633143534451833"><ele>903.0</ele><time>2026-04-30T09:38:00Z</time></trkpt><trkpt lat="31.52757648600618" lon="-4.632878237120387"><ele>902.5</ele><time>2026-04-30T09:38:01Z</time></trkpt><trkpt lat="31.527504631728313" lon="-4.632615686159573"><ele>902.0</ele><time>2026-04-30T09:38:02Z</time></trkpt><trkpt lat="31.5274321013572" lon="-4.632353498419599"><ele>902.0</ele><time>2026-04-30T09:38:03Z</time></trkpt><trkpt lat="31.52736118861473" lon="-4.632088356164231"><ele>902.0</ele><time>2026-04-30T09:38:04Z</time></trkpt><trkpt lat="31.52728883803064" lon="-4.631825503834972"><ele>902.5</ele><time>2026-04-30T09:38:05Z</time></trkpt><trkpt lat="31.52721584519883" lon="-4.631561962888277"><ele>903.0</ele><time>2026-04-30T09:38:06Z</time></trkpt><trkpt lat="31.5271433134741" lon="-4.63130014446224"><ele>903.5</ele><time>2026-04-30T09:38:07Z</time></trkpt><trkpt lat="31.527070428431124" lon="-4.631041202560165"><ele>904.0</ele><time>2026-04-30T09:38:08Z</time></trkpt><trkpt lat="31.526998254572643" lon="-4.63077562378135"><ele>904.0</ele><time>2026-04-30T09:38:09Z</time></trkpt><trkpt lat="31.526924986585236" lon="-4.630512844448365"><ele>904.0</ele><time>2026-04-30T09:38:10Z</time></trkpt><trkpt lat="31.52685350834524" lon="-4.630250573634259"><ele>903.5</ele><time>2026-04-30T09:38:11Z</time></trkpt><trkpt lat="31.52678258321561" lon="-4.629990566529952"><ele>903.0</ele><time>2026-04-30T09:38:12Z</time></trkpt><trkpt lat="31.52671352012684" lon="-4.629728147784471"><ele>902.5</ele><time>2026-04-30T09:38:13Z</time></trkpt><trkpt lat="31.526644989818195" lon="-4.629470615202744"><ele>902.0</ele><time>2026-04-30T09:38:14Z</time></trkpt><trkpt lat="31.526574200847715" lon="-4.629208862115288"><ele>902.0</ele><time>2026-04-30T09:38:15Z</time></trkpt><trkpt lat="31.526501947276838" lon="-4.628951368813792"><ele>902.0</ele><time>2026-04-30T09:38:16Z</time></trkpt><trkpt lat="31.526429637923606" lon="-4.628688493183989"><ele>901.0</ele><time>2026-04-30T09:38:17Z</time></trkpt><trkpt lat="31.526356916593638" lon="-4.628424148288785"><ele>900.0</ele><time>2026-04-30T09:38:18Z</time></trkpt><trkpt lat="31.52628539565024" lon="-4.628161733674835"><ele>900.5</ele><time>2026-04-30T09:38:19Z</time></trkpt><trkpt lat="31.52621342000573" lon="-4.627899799954808"><ele>901.0</ele><time>2026-04-30T09:38:20Z</time></trkpt><trkpt lat="31.526138455378984" lon="-4.627639874190806"><ele>901.0</ele><time>2026-04-30T09:38:21Z</time></trkpt><trkpt lat="31.526066222672085" lon="-4.627378431591126"><ele>901.0</ele><time>2026-04-30T09:38:22Z</time></trkpt><trkpt lat="31.525995306936004" lon="-4.627117435482007"><ele>900.0</ele><time>2026-04-30T09:38:23Z</time></trkpt><trkpt lat="31.525924314909975" lon="-4.62685428878034"><ele>899.0</ele><time>2026-04-30T09:38:24Z</time></trkpt><trkpt lat="31.525853995836474" lon="-4.6265923818516885"><ele>899.0</ele><time>2026-04-30T09:38:25Z</time></trkpt><trkpt lat="31.525784408931294" lon="-4.626329645818471"><ele>899.0</ele><time>2026-04-30T09:38:26Z</time></trkpt><trkpt lat="31.525713710276516" lon="-4.626064784895081"><ele>898.5</ele><time>2026-04-30T09:38:27Z</time></trkpt><trkpt lat="31.52564331707015" lon="-4.625800560102393"><ele>898.0</ele><time>2026-04-30T09:38:28Z</time></trkpt><trkpt lat="31.525570695074535" lon="-4.625536387540622"><ele>897.5</ele><time>2026-04-30T09:38:29Z</time></trkpt><trkpt lat="31.525498360647067" lon="-4.625274366042144"><ele>897.0</ele><time>2026-04-30T09:38:30Z</time></trkpt><trkpt lat="31.525426963157326" lon="-4.625011325563035"><ele>897.0</ele><time>2026-04-30T09:38:31Z</time></trkpt><trkpt lat="31.525356393998006" lon="-4.624748344171374"><ele>897.0</ele><time>2026-04-30T09:38:32Z</time></trkpt><trkpt lat="31.525283896827382" lon="-4.624486930525368"><ele>897.0</ele><time>2026-04-30T09:38:33Z</time></trkpt><trkpt lat="31.52520583127782" lon="-4.62422912457931"><ele>897.0</ele><time>2026-04-30T09:38:34Z</time></trkpt><trkpt lat="31.52509623981281" lon="-4.623983785050701"><ele>897.0</ele><time>2026-04-30T09:38:35Z</time></trkpt><trkpt lat="31.524997909142492" lon="-4.623732684096204"><ele>897.0</ele><time>2026-04-30T09:38:36Z</time></trkpt><trkpt lat="31.524893352163126" lon="-4.623485555639229"><ele>896.5</ele><time>2026-04-30T09:38:37Z</time></trkpt><trkpt lat="31.524784340284185" lon="-4.623245648760617"><ele>896.0</ele><time>2026-04-30T09:38:38Z</time></trkpt><trkpt lat="31.524671304710207" lon="-4.623000536361015"><ele>896.0</ele><time>2026-04-30T09:38:39Z</time></trkpt><trkpt lat="31.524570848447148" lon="-4.622752695998721"><ele>896.0</ele><time>2026-04-30T09:38:40Z</time></trkpt><trkpt lat="31.524455487031336" lon="-4.622515721583534"><ele>896.0</ele><time>2026-04-30T09:38:41Z</time></trkpt><trkpt lat="31.524339810900003" lon="-4.622274350498551"><ele>896.0</ele><time>2026-04-30T09:38:42Z</time></trkpt><trkpt lat="31.524225246784447" lon="-4.622032547426"><ele>895.0</ele><time>2026-04-30T09:38:43Z</time></trkpt><trkpt lat="31.524110828968904" lon="-4.621793984627614"><ele>894.0</ele><time>2026-04-30T09:38:44Z</time></trkpt><trkpt lat="31.523997538059003" lon="-4.6215530993315985"><ele>894.0</ele><time>2026-04-30T09:38:45Z</time></trkpt><trkpt lat="31.523883282320973" lon="-4.621314232917951"><ele>894.0</ele><time>2026-04-30T09:38:46Z</time></trkpt><trkpt lat="31.523768552118472" lon="-4.621074695249858"><ele>894.0</ele><time>2026-04-30T09:38:47Z</time></trkpt><trkpt lat="31.523655851013185" lon="-4.620838551676237"><ele>894.0</ele><time>2026-04-30T09:38:48Z</time></trkpt><trkpt lat="31.523543914243547" lon="-4.6206004519800095"><ele>894.0</ele><time>2026-04-30T09:38:49Z</time></trkpt><trkpt lat="31.523432017751873" lon="-4.620359449440177"><ele>894.0</ele><time>2026-04-30T09:38:50Z</time></trkpt><trkpt lat="31.52330409446581" lon="-4.620128454020854"><ele>893.0</ele><time>2026-04-30T09:38:51Z</time></trkpt><trkpt lat="31.52319012647095" lon="-4.619887292571313"><ele>892.0</ele><time>2026-04-30T09:38:52Z</time></trkpt><trkpt lat="31.523075928916125" lon="-4.619647889342089"><ele>892.5</ele><time>2026-04-30T09:38:53Z</time></trkpt><trkpt lat="31.522960564315273" lon="-4.619408826562935"><ele>893.0</ele><time>2026-04-30T09:38:54Z</time></trkpt><trkpt lat="31.522845997376415" lon="-4.619172352218622"><ele>893.0</ele><time>2026-04-30T09:38:55Z</time></trkpt><trkpt lat="31.522731321651268" lon="-4.618935446365614"><ele>893.0</ele><time>2026-04-30T09:38:55.999Z</time></trkpt><trkpt lat="31.522616752730375" lon="-4.61869900616438"><ele>895.5</ele><time>2026-04-30T09:38:56.999Z</time></trkpt><trkpt lat="31.52250551384529" lon="-4.618462967514279"><ele>898.0</ele><time>2026-04-30T09:38:57.999Z</time></trkpt><trkpt lat="31.522398419463023" lon="-4.618228291213427"><ele>898.0</ele><time>2026-04-30T09:38:58.999Z</time></trkpt><trkpt lat="31.52229144715328" lon="-4.617994002589985"><ele>898.0</ele><time>2026-04-30T09:38:59.999Z</time></trkpt><trkpt lat="31.522184306507786" lon="-4.617760247061375"><ele>898.5</ele><time>2026-04-30T09:39:00.999Z</time></trkpt><trkpt lat="31.522078042941594" lon="-4.617527377873068"><ele>899.0</ele><time>2026-04-30T09:39:01.999Z</time></trkpt><trkpt lat="31.521968389285423" lon="-4.6172924871630014"><ele>897.5</ele><time>2026-04-30T09:39:02.999Z</time></trkpt><trkpt lat="31.521856350649877" lon="-4.617052816270169"><ele>896.0</ele><time>2026-04-30T09:39:03.999Z</time></trkpt><trkpt lat="31.521743208493863" lon="-4.61681249257913"><ele>896.0</ele><time>2026-04-30T09:39:04.999Z</time></trkpt><trkpt lat="31.52163066939387" lon="-4.616573058065012"><ele>896.0</ele><time>2026-04-30T09:39:05.999Z</time></trkpt><trkpt lat="31.521521048648534" lon="-4.61633832152623"><ele>895.0</ele><time>2026-04-30T09:39:06.999Z</time></trkpt><trkpt lat="31.521413705298997" lon="-4.616106063163879"><ele>894.0</ele><time>2026-04-30T09:39:07.999Z</time></trkpt><trkpt lat="31.521304655583407" lon="-4.615873563782253"><ele>896.0</ele><time>2026-04-30T09:39:08.999Z</time></trkpt><trkpt lat="31.52119566442749" lon="-4.6156413139497605"><ele>898.0</ele><time>2026-04-30T09:39:09.999Z</time></trkpt><trkpt lat="31.521087350555998" lon="-4.615410517709892"><ele>897.5</ele><time>2026-04-30T09:39:10.999Z</time></trkpt><trkpt lat="31.52097800161091" lon="-4.6151775160702035"><ele>897.0</ele><time>2026-04-30T09:39:11.999Z</time></trkpt><trkpt lat="31.52086901045965" lon="-4.614945276665798"><ele>897.0</ele><time>2026-04-30T09:39:12.999Z</time></trkpt><trkpt lat="31.52075842939146" lon="-4.614709288312499"><ele>897.0</ele><time>2026-04-30T09:39:13.999Z</time></trkpt><trkpt lat="31.520647603660382" lon="-4.614471696970904"><ele>896.0</ele><time>2026-04-30T09:39:14.999Z</time></trkpt><trkpt lat="31.52053600865405" lon="-4.61423387192782"><ele>895.0</ele><time>2026-04-30T09:39:15.999Z</time></trkpt><trkpt lat="31.520423995748583" lon="-4.613997303538926"><ele>895.0</ele><time>2026-04-30T09:39:16.999Z</time></trkpt><trkpt lat="31.520314972067442" lon="-4.613767074834593"><ele>895.0</ele><time>2026-04-30T09:39:17.999Z</time></trkpt><trkpt lat="31.520210264494317" lon="-4.613542605248498"><ele>895.0</ele><time>2026-04-30T09:39:18.999Z</time></trkpt><trkpt lat="31.520129136994143" lon="-4.61330867484224"><ele>895.0</ele><time>2026-04-30T09:39:19.999Z</time></trkpt><trkpt lat="31.520023592584003" lon="-4.613089421084719"><ele>895.0</ele><time>2026-04-30T09:39:20.999Z</time></trkpt><trkpt lat="31.519918097386352" lon="-4.6128665620887785"><ele>895.0</ele><time>2026-04-30T09:39:21.999Z</time></trkpt><trkpt lat="31.51980937692443" lon="-4.61264296024566"><ele>894.3333333333333</ele><time>2026-04-30T09:39:22.999Z</time></trkpt><trkpt lat="31.519698643725008" lon="-4.6124174646518155"><ele>893.6666666666667</ele><time>2026-04-30T09:39:23.999Z</time></trkpt><trkpt lat="31.519590592392685" lon="-4.6121871531972385"><ele>893.0</ele><time>2026-04-30T09:39:24.999Z</time></trkpt><trkpt lat="31.519480842432092" lon="-4.611951282488771"><ele>893.0</ele><time>2026-04-30T09:39:26Z</time></trkpt><trkpt lat="31.51937327412693" lon="-4.611720017028877"><ele>893.0</ele><time>2026-04-30T09:39:27Z</time></trkpt><trkpt lat="31.519265967068108" lon="-4.61148411654554"><ele>893.0</ele><time>2026-04-30T09:39:28Z</time></trkpt><trkpt lat="31.51915929223594" lon="-4.611256025466339"><ele>893.0</ele><time>2026-04-30T09:39:29Z</time></trkpt><trkpt lat="31.519050697332" lon="-4.611031359758634"><ele>893.0</ele><time>2026-04-30T09:39:30Z</time></trkpt><trkpt lat="31.518941508163586" lon="-4.61080726881391"><ele>892.3333333333334</ele><time>2026-04-30T09:39:31Z</time></trkpt><trkpt lat="31.518834352471366" lon="-4.610582011421217"><ele>891.6666666666667</ele><time>2026-04-30T09:39:32Z</time></trkpt><trkpt lat="31.51872643955736" lon="-4.610356278723471"><ele>891.0</ele><time>2026-04-30T09:39:33Z</time></trkpt><trkpt lat="31.51861855117798" lon="-4.610129783946698"><ele>891.3333333333333</ele><time>2026-04-30T09:39:34Z</time></trkpt><trkpt lat="31.51851317471597" lon="-4.60990423177591"><ele>891.6666666666666</ele><time>2026-04-30T09:39:35Z</time></trkpt><trkpt lat="31.518409196252232" lon="-4.609681090455253"><ele>892.0</ele><time>2026-04-30T09:39:36Z</time></trkpt><trkpt lat="31.518304139070985" lon="-4.609458126148959"><ele>892.0</ele><time>2026-04-30T09:39:37Z</time></trkpt><trkpt lat="31.518198835435737" lon="-4.609231984794722"><ele>892.0</ele><time>2026-04-30T09:39:38Z</time></trkpt><trkpt lat="31.518093290960714" lon="-4.609003486920638"><ele>892.0</ele><time>2026-04-30T09:39:39Z</time></trkpt><trkpt lat="31.51798368727288" lon="-4.608770620519706"><ele>892.0</ele><time>2026-04-30T09:39:40Z</time></trkpt><trkpt lat="31.517873852221488" lon="-4.608535682718944"><ele>892.0</ele><time>2026-04-30T09:39:41Z</time></trkpt><trkpt lat="31.517762354849975" lon="-4.6083007136271075"><ele>892.0</ele><time>2026-04-30T09:39:42Z</time></trkpt><trkpt lat="31.517651973536253" lon="-4.608063481554204"><ele>892.0</ele><time>2026-04-30T09:39:43Z</time></trkpt><trkpt lat="31.517540035120014" lon="-4.607826853038846"><ele>890.5</ele><time>2026-04-30T09:39:44Z</time></trkpt><trkpt lat="31.517427909965004" lon="-4.6075897620029584"><ele>889.0</ele><time>2026-04-30T09:39:45Z</time></trkpt><trkpt lat="31.517316068496893" lon="-4.607353752803402"><ele>889.0</ele><time>2026-04-30T09:39:46Z</time></trkpt><trkpt lat="31.517204988430098" lon="-4.607114844477711"><ele>889.0</ele><time>2026-04-30T09:39:47Z</time></trkpt><trkpt lat="31.51709677077059" lon="-4.606875692523129"><ele>890.0</ele><time>2026-04-30T09:39:48Z</time></trkpt><trkpt lat="31.516986276911542" lon="-4.60663766657069"><ele>891.0</ele><time>2026-04-30T09:39:49Z</time></trkpt><trkpt lat="31.51687661067106" lon="-4.606400694095666"><ele>887.5</ele><time>2026-04-30T09:39:50Z</time></trkpt><trkpt lat="31.51676493953415" lon="-4.606161072612847"><ele>884.0</ele><time>2026-04-30T09:39:51Z</time></trkpt><trkpt lat="31.516652131425943" lon="-4.605923691074678"><ele>884.0</ele><time>2026-04-30T09:39:52Z</time></trkpt><trkpt lat="31.516538612390306" lon="-4.605686752185834"><ele>884.0</ele><time>2026-04-30T09:39:53Z</time></trkpt><trkpt lat="31.51642565476756" lon="-4.605446953589864"><ele>883.5</ele><time>2026-04-30T09:39:54Z</time></trkpt><trkpt lat="31.51631516393039" lon="-4.605204461531898"><ele>883.0</ele><time>2026-04-30T09:39:55Z</time></trkpt><trkpt lat="31.51620457488807" lon="-4.604964539799532"><ele>883.0</ele><time>2026-04-30T09:39:56Z</time></trkpt><trkpt lat="31.516093362123208" lon="-4.604727687451364"><ele>883.0</ele><time>2026-04-30T09:39:57Z</time></trkpt><trkpt lat="31.515981162559598" lon="-4.604486232183855"><ele>880.5</ele><time>2026-04-30T09:39:58Z</time></trkpt><trkpt lat="31.51586958338098" lon="-4.6042487501943885"><ele>878.0</ele><time>2026-04-30T09:39:59Z</time></trkpt><trkpt lat="31.51575702187732" lon="-4.604009673664265"><ele>878.0</ele><time>2026-04-30T09:40:00Z</time></trkpt><trkpt lat="31.515647773107005" lon="-4.60377254512141"><ele>878.0</ele><time>2026-04-30T09:40:01Z</time></trkpt><trkpt lat="31.51554081025181" lon="-4.603534505899624"><ele>878.0</ele><time>2026-04-30T09:40:02Z</time></trkpt><trkpt lat="31.51543370474468" lon="-4.603301519613224"><ele>878.0</ele><time>2026-04-30T09:40:03Z</time></trkpt><trkpt lat="31.51532600661062" lon="-4.603070501990296"><ele>878.0</ele><time>2026-04-30T09:40:04Z</time></trkpt><trkpt lat="31.51521885662688" lon="-4.602841371869165"><ele>878.0</ele><time>2026-04-30T09:40:05Z</time></trkpt><trkpt lat="31.515112009757672" lon="-4.602614354543503"><ele>878.0</ele><time>2026-04-30T09:40:06Z</time></trkpt><trkpt lat="31.515006071498632" lon="-4.602390629727802"><ele>878.0</ele><time>2026-04-30T09:40:07Z</time></trkpt><trkpt lat="31.514902866959144" lon="-4.602167380382363"><ele>878.0</ele><time>2026-04-30T09:40:08Z</time></trkpt><trkpt lat="31.514798468164262" lon="-4.601944361767396"><ele>878.0</ele><time>2026-04-30T09:40:09Z</time></trkpt><trkpt lat="31.514693621612064" lon="-4.601724369427091"><ele>878.0</ele><time>2026-04-30T09:40:10Z</time></trkpt><trkpt lat="31.5145902378291" lon="-4.601500528395306"><ele>878.0</ele><time>2026-04-30T09:40:11Z</time></trkpt><trkpt lat="31.514495240233305" lon="-4.601271292480866"><ele>878.0</ele><time>2026-04-30T09:40:12Z</time></trkpt><trkpt lat="31.51440961956039" lon="-4.601037890717906"><ele>878.3333333333334</ele><time>2026-04-30T09:40:13Z</time></trkpt><trkpt lat="31.514339557885766" lon="-4.6007965213283395"><ele>878.6666666666667</ele><time>2026-04-30T09:40:14Z</time></trkpt><trkpt lat="31.514280211085726" lon="-4.600552318714035"><ele>879.0</ele><time>2026-04-30T09:40:15Z</time></trkpt><trkpt lat="31.514231221679196" lon="-4.600307341404893"><ele>879.0</ele><time>2026-04-30T09:40:16Z</time></trkpt><trkpt lat="31.514187545478656" lon="-4.60006007569332"><ele>879.0</ele><time>2026-04-30T09:40:17Z</time></trkpt><trkpt lat="31.514149003845677" lon="-4.599809128161081"><ele>879.0</ele><time>2026-04-30T09:40:18Z</time></trkpt><trkpt lat="31.514120034290997" lon="-4.599553757846663"><ele>879.0</ele><time>2026-04-30T09:40:19Z</time></trkpt><trkpt lat="31.51410629193099" lon="-4.59929524731439"><ele>879.0</ele><time>2026-04-30T09:40:20Z</time></trkpt><trkpt lat="31.514111831472242" lon="-4.599036278510516"><ele>879.0</ele><time>2026-04-30T09:40:21Z</time></trkpt><trkpt lat="31.51412740131762" lon="-4.5987738557684095"><ele>878.3333333333333</ele><time>2026-04-30T09:40:22Z</time></trkpt><trkpt lat="31.51414327632862" lon="-4.5985155123397465"><ele>877.6666666666666</ele><time>2026-04-30T09:40:23Z</time></trkpt><trkpt lat="31.51415986465002" lon="-4.598252815414641"><ele>877.0</ele><time>2026-04-30T09:40:24Z</time></trkpt><trkpt lat="31.5141778825144" lon="-4.59799240544535"><ele>876.3333333333333</ele><time>2026-04-30T09:40:25Z</time></trkpt><trkpt lat="31.51419366233361" lon="-4.597732402809133"><ele>875.6666666666667</ele><time>2026-04-30T09:40:26Z</time></trkpt><trkpt lat="31.514208179525447" lon="-4.597472502190972"><ele>875.0</ele><time>2026-04-30T09:40:27Z</time></trkpt><trkpt lat="31.51422436479972" lon="-4.597209506254642"><ele>874.0</ele><time>2026-04-30T09:40:28Z</time></trkpt><trkpt lat="31.514242106998623" lon="-4.596946988205058"><ele>873.0</ele><time>2026-04-30T09:40:29Z</time></trkpt><trkpt lat="31.514259501962286" lon="-4.596684974006906"><ele>872.0</ele><time>2026-04-30T09:40:30Z</time></trkpt><trkpt lat="31.514272924782777" lon="-4.596424169904953"><ele>872.6666666666667</ele><time>2026-04-30T09:40:31Z</time></trkpt><trkpt lat="31.514284978314254" lon="-4.596161806328609"><ele>873.3333333333333</ele><time>2026-04-30T09:40:32Z</time></trkpt><trkpt lat="31.51429820808212" lon="-4.595899103175633"><ele>874.0</ele><time>2026-04-30T09:40:33Z</time></trkpt><trkpt lat="31.514312316221904" lon="-4.595636242935108"><ele>874.0</ele><time>2026-04-30T09:40:34Z</time></trkpt><trkpt lat="31.514326733162278" lon="-4.595374656557085"><ele>874.0</ele><time>2026-04-30T09:40:35Z</time></trkpt><trkpt lat="31.514344524969367" lon="-4.595112006741737"><ele>874.0</ele><time>2026-04-30T09:40:36Z</time></trkpt><trkpt lat="31.514359675015427" lon="-4.594851148759304"><ele>873.6666666666666</ele><time>2026-04-30T09:40:37Z</time></trkpt><trkpt lat="31.51437307438873" lon="-4.594591545274909"><ele>873.3333333333333</ele><time>2026-04-30T09:40:38Z</time></trkpt><trkpt lat="31.514388211946365" lon="-4.594333274180694"><ele>873.0</ele><time>2026-04-30T09:40:39Z</time></trkpt><trkpt lat="31.514403668559105" lon="-4.594074303528062"><ele>872.3333333333333</ele><time>2026-04-30T09:40:40Z</time></trkpt><trkpt lat="31.514417486536175" lon="-4.593813623690614"><ele>871.6666666666666</ele><time>2026-04-30T09:40:41Z</time></trkpt><trkpt lat="31.514433766249486" lon="-4.593555460339141"><ele>871.0</ele><time>2026-04-30T09:40:41.999Z</time></trkpt><trkpt lat="31.514449300096352" lon="-4.593294837175365"><ele>871.0</ele><time>2026-04-30T09:40:42.999Z</time></trkpt><trkpt lat="31.514464565935786" lon="-4.5930370672440155"><ele>871.0</ele><time>2026-04-30T09:40:43.999Z</time></trkpt><trkpt lat="31.514479603728855" lon="-4.592778075243542"><ele>871.0</ele><time>2026-04-30T09:40:44.999Z</time></trkpt><trkpt lat="31.514491827126516" lon="-4.592517523743371"><ele>871.0</ele><time>2026-04-30T09:40:45.999Z</time></trkpt><trkpt lat="31.514504924083067" lon="-4.592259944236365"><ele>871.0</ele><time>2026-04-30T09:40:46.999Z</time></trkpt><trkpt lat="31.514521323403997" lon="-4.592000513013002"><ele>871.0</ele><time>2026-04-30T09:40:47.999Z</time></trkpt><trkpt lat="31.514539216647517" lon="-4.591740867452912"><ele>871.0</ele><time>2026-04-30T09:40:48.999Z</time></trkpt><trkpt lat="31.51455599623255" lon="-4.591477683112817"><ele>871.0</ele><time>2026-04-30T09:40:49.999Z</time></trkpt><trkpt lat="31.51456991602326" lon="-4.591215047929134"><ele>871.0</ele><time>2026-04-30T09:40:50.999Z</time></trkpt><trkpt lat="31.514582257730574" lon="-4.590952604547739"><ele>870.0</ele><time>2026-04-30T09:40:51.999Z</time></trkpt><trkpt lat="31.514597651736576" lon="-4.590692288200042"><ele>869.0</ele><time>2026-04-30T09:40:52.999Z</time></trkpt><trkpt lat="31.51461459395952" lon="-4.590430810761467"><ele>868.0</ele><time>2026-04-30T09:40:53.999Z</time></trkpt><trkpt lat="31.514632294691115" lon="-4.590168744085193"><ele>868.0</ele><time>2026-04-30T09:40:54.999Z</time></trkpt><trkpt lat="31.514648178431617" lon="-4.5899086315893"><ele>868.0</ele><time>2026-04-30T09:40:55.999Z</time></trkpt><trkpt lat="31.51466082334485" lon="-4.589646891781872"><ele>868.0</ele><time>2026-04-30T09:40:56.999Z</time></trkpt><trkpt lat="31.514676626559783" lon="-4.5893861567040934"><ele>868.0</ele><time>2026-04-30T09:40:57.999Z</time></trkpt><trkpt lat="31.514691628627915" lon="-4.589124279839396"><ele>868.0</ele><time>2026-04-30T09:40:58.999Z</time></trkpt><trkpt lat="31.514706854902087" lon="-4.588863457818026"><ele>868.0</ele><time>2026-04-30T09:40:59.999Z</time></trkpt><trkpt lat="31.51472260198489" lon="-4.588601447695583"><ele>868.0</ele><time>2026-04-30T09:41:00.999Z</time></trkpt><trkpt lat="31.514737007507804" lon="-4.58833760791425"><ele>868.0</ele><time>2026-04-30T09:41:01.999Z</time></trkpt><trkpt lat="31.514749684569153" lon="-4.588072811039926"><ele>867.3333333333333</ele><time>2026-04-30T09:41:02.999Z</time></trkpt><trkpt lat="31.514761635770167" lon="-4.58780978486331"><ele>866.6666666666667</ele><time>2026-04-30T09:41:03.999Z</time></trkpt><trkpt lat="31.514778023148725" lon="-4.587547525637182"><ele>866.0</ele><time>2026-04-30T09:41:04.999Z</time></trkpt><trkpt lat="31.514794533249123" lon="-4.587286420847186"><ele>866.0</ele><time>2026-04-30T09:41:05.999Z</time></trkpt><trkpt lat="31.514809337216658" lon="-4.5870227414890055"><ele>866.0</ele><time>2026-04-30T09:41:06.999Z</time></trkpt><trkpt lat="31.514822215490284" lon="-4.586758448633028"><ele>866.5</ele><time>2026-04-30T09:41:07.999Z</time></trkpt><trkpt lat="31.514835471663833" lon="-4.5864941776407715"><ele>867.0</ele><time>2026-04-30T09:41:08.999Z</time></trkpt><trkpt lat="31.514852777258685" lon="-4.586226437975382"><ele>868.0</ele><time>2026-04-30T09:41:09.999Z</time></trkpt><trkpt lat="31.514869993953866" lon="-4.585959856282734"><ele>869.0</ele><time>2026-04-30T09:41:10.999Z</time></trkpt><trkpt lat="31.514885233248027" lon="-4.585695205519138"><ele>869.0</ele><time>2026-04-30T09:41:11.999Z</time></trkpt><trkpt lat="31.514899630624672" lon="-4.585433704380844"><ele>869.0</ele><time>2026-04-30T09:41:12.999Z</time></trkpt><trkpt lat="31.514914086913468" lon="-4.585172242891732"><ele>869.0</ele><time>2026-04-30T09:41:13.999Z</time></trkpt><trkpt lat="31.5149282162657" lon="-4.584908771591087"><ele>868.6666666666667</ele><time>2026-04-30T09:41:14.999Z</time></trkpt><trkpt lat="31.51494128186956" lon="-4.58464747029492"><ele>868.3333333333333</ele><time>2026-04-30T09:41:15.999Z</time></trkpt><trkpt lat="31.51495445863362" lon="-4.584382842658734"><ele>868.0</ele><time>2026-04-30T09:41:16.999Z</time></trkpt><trkpt lat="31.514966583709082" lon="-4.584115808756712"><ele>867.5</ele><time>2026-04-30T09:41:17.999Z</time></trkpt><trkpt lat="31.51497860510259" lon="-4.5838487437586375"><ele>867.0</ele><time>2026-04-30T09:41:18.999Z</time></trkpt><trkpt lat="31.51499526410794" lon="-4.583580155079885"><ele>867.0</ele><time>2026-04-30T09:41:19.999Z</time></trkpt><trkpt lat="31.515011666729027" lon="-4.583313981399128"><ele>867.0</ele><time>2026-04-30T09:41:20.999Z</time></trkpt><trkpt lat="31.515027265463925" lon="-4.583047865150847"><ele>867.5</ele><time>2026-04-30T09:41:21.999Z</time></trkpt><trkpt lat="31.515044011273037" lon="-4.582782453243707"><ele>868.0</ele><time>2026-04-30T09:41:22.999Z</time></trkpt><trkpt lat="31.515059795278823" lon="-4.582518010524325"><ele>868.0</ele><time>2026-04-30T09:41:23.999Z</time></trkpt><trkpt lat="31.515076146147276" lon="-4.582253500169969"><ele>868.0</ele><time>2026-04-30T09:41:24.999Z</time></trkpt><trkpt lat="31.515092618579523" lon="-4.581987531471294"><ele>868.5</ele><time>2026-04-30T09:41:25.999Z</time></trkpt><trkpt lat="31.515109680630825" lon="-4.581718289416456"><ele>869.0</ele><time>2026-04-30T09:41:26.999Z</time></trkpt><trkpt lat="31.515124885600102" lon="-4.581453780722401"><ele>869.0</ele><time>2026-04-30T09:41:27.999Z</time></trkpt><trkpt lat="31.515140657816524" lon="-4.581187024252852"><ele>869.0</ele><time>2026-04-30T09:41:28.999Z</time></trkpt><trkpt lat="31.515156263790033" lon="-4.580918624860176"><ele>869.5</ele><time>2026-04-30T09:41:29.999Z</time></trkpt><trkpt lat="31.51513283087586" lon="-4.580649178982195"><ele>870.0</ele><time>2026-04-30T09:41:30.999Z</time></trkpt><trkpt lat="31.515147824496868" lon="-4.580382182209518"><ele>871.0</ele><time>2026-04-30T09:41:31.999Z</time></trkpt><trkpt lat="31.51516205876842" lon="-4.5801151891239"><ele>872.0</ele><time>2026-04-30T09:41:32.999Z</time></trkpt><trkpt lat="31.51517645845582" lon="-4.5798477466029"><ele>872.0</ele><time>2026-04-30T09:41:33.999Z</time></trkpt><trkpt lat="31.515194141015833" lon="-4.579583022627346"><ele>872.0</ele><time>2026-04-30T09:41:34.999Z</time></trkpt><trkpt lat="31.515211016145553" lon="-4.579314175826113"><ele>870.0</ele><time>2026-04-30T09:41:35.999Z</time></trkpt><trkpt lat="31.51522686179865" lon="-4.5790449111064"><ele>868.0</ele><time>2026-04-30T09:41:36.999Z</time></trkpt><trkpt lat="31.515244054643503" lon="-4.578774815059467"><ele>867.0</ele><time>2026-04-30T09:41:37.999Z</time></trkpt><trkpt lat="31.515260920803968" lon="-4.578504182086235"><ele>866.0</ele><time>2026-04-30T09:41:38.999Z</time></trkpt><trkpt lat="31.515276924979" lon="-4.578238266579894"><ele>866.0</ele><time>2026-04-30T09:41:39.999Z</time></trkpt><trkpt lat="31.51529276570446" lon="-4.577974743882351"><ele>866.0</ele><time>2026-04-30T09:41:40.999Z</time></trkpt><trkpt lat="31.515307616316406" lon="-4.57771627597699"><ele>866.0</ele><time>2026-04-30T09:41:41.999Z</time></trkpt><trkpt lat="31.5153222929551" lon="-4.577460835982831"><ele>866.0</ele><time>2026-04-30T09:41:42.999Z</time></trkpt><trkpt lat="31.515335222238154" lon="-4.577202524674136"><ele>866.0</ele><time>2026-04-30T09:41:43.999Z</time></trkpt><trkpt lat="31.51534912532708" lon="-4.57694572911297"><ele>866.0</ele><time>2026-04-30T09:41:44.999Z</time></trkpt><trkpt lat="31.515365350934275" lon="-4.576691565752032"><ele>866.0</ele><time>2026-04-30T09:41:45.999Z</time></trkpt><trkpt lat="31.51537994284083" lon="-4.576436453239131"><ele>866.0</ele><time>2026-04-30T09:41:46.999Z</time></trkpt><trkpt lat="31.515393595241978" lon="-4.576176536250612"><ele>866.0</ele><time>2026-04-30T09:41:47.999Z</time></trkpt><trkpt lat="31.515411045879063" lon="-4.575920471716518"><ele>866.0</ele><time>2026-04-30T09:41:48.999Z</time></trkpt><trkpt lat="31.515429672568224" lon="-4.57566043512365"><ele>866.0</ele><time>2026-04-30T09:41:49.999Z</time></trkpt><trkpt lat="31.515448157250557" lon="-4.57539897862834"><ele>866.0</ele><time>2026-04-30T09:41:50.999Z</time></trkpt><trkpt lat="31.515463633710656" lon="-4.575136656260654"><ele>866.5</ele><time>2026-04-30T09:41:51.999Z</time></trkpt><trkpt lat="31.515477169272824" lon="-4.574870894839383"><ele>867.0</ele><time>2026-04-30T09:41:52.999Z</time></trkpt><trkpt lat="31.515488772585137" lon="-4.574609629549214"><ele>867.0</ele><time>2026-04-30T09:41:53.999Z</time></trkpt><trkpt lat="31.515499886102837" lon="-4.574347229129843"><ele>867.0</ele><time>2026-04-30T09:41:55Z</time></trkpt><trkpt lat="31.51551186134014" lon="-4.5740852227008775"><ele>867.0</ele><time>2026-04-30T09:41:56Z</time></trkpt><trkpt lat="31.515527574246168" lon="-4.573825510088321"><ele>865.6666666666667</ele><time>2026-04-30T09:41:57Z</time></trkpt><trkpt lat="31.51554437567279" lon="-4.573564869883491"><ele>864.3333333333334</ele><time>2026-04-30T09:41:57.999Z</time></trkpt><trkpt lat="31.515564035336986" lon="-4.5733069350718925"><ele>863.0</ele><time>2026-04-30T09:41:58.999Z</time></trkpt><trkpt lat="31.51557925748636" lon="-4.573050486875223"><ele>864.0</ele><time>2026-04-30T09:41:59.999Z</time></trkpt><trkpt lat="31.515594040569507" lon="-4.572788849147782"><ele>865.0</ele><time>2026-04-30T09:42:00.999Z</time></trkpt><trkpt lat="31.515608069485598" lon="-4.572528130104028"><ele>866.0</ele><time>2026-04-30T09:42:01.999Z</time></trkpt><trkpt lat="31.51561955581486" lon="-4.572265946720716"><ele>866.0</ele><time>2026-04-30T09:42:02.999Z</time></trkpt><trkpt lat="31.515632429639957" lon="-4.572001384519088"><ele>866.0</ele><time>2026-04-30T09:42:03.999Z</time></trkpt><trkpt lat="31.51564924230602" lon="-4.571734839398075"><ele>866.0</ele><time>2026-04-30T09:42:04.999Z</time></trkpt><trkpt lat="31.515666230641372" lon="-4.571466815879084"><ele>866.0</ele><time>2026-04-30T09:42:05.999Z</time></trkpt><trkpt lat="31.51568331668024" lon="-4.571198781442192"><ele>864.5</ele><time>2026-04-30T09:42:06.999Z</time></trkpt><trkpt lat="31.515699092363818" lon="-4.5709262547268805"><ele>863.0</ele><time>2026-04-30T09:42:07.999Z</time></trkpt><trkpt lat="31.515713548793805" lon="-4.570653329606078"><ele>863.0</ele><time>2026-04-30T09:42:08.999Z</time></trkpt><trkpt lat="31.51572718439905" lon="-4.570380520311622"><ele>863.0</ele><time>2026-04-30T09:42:09.999Z</time></trkpt><trkpt lat="31.515741930352632" lon="-4.570103351750069"><ele>864.0</ele><time>2026-04-30T09:42:10.999Z</time></trkpt><trkpt lat="31.51575881488114" lon="-4.5698253628717715"><ele>865.0</ele><time>2026-04-30T09:42:11.999Z</time></trkpt><trkpt lat="31.515779087206994" lon="-4.5695493195734915"><ele>863.0</ele><time>2026-04-30T09:42:12.999Z</time></trkpt><trkpt lat="31.51580336965065" lon="-4.569274939315418"><ele>861.0</ele><time>2026-04-30T09:42:13.999Z</time></trkpt><trkpt lat="31.515827960348187" lon="-4.568997075961746"><ele>861.0</ele><time>2026-04-30T09:42:14.999Z</time></trkpt><trkpt lat="31.51585410682821" lon="-4.5687184653651105"><ele>861.0</ele><time>2026-04-30T09:42:15.999Z</time></trkpt><trkpt lat="31.51588268144551" lon="-4.568438427363421"><ele>862.0</ele><time>2026-04-30T09:42:16.999Z</time></trkpt><trkpt lat="31.51591961877515" lon="-4.568165036282422"><ele>863.0</ele><time>2026-04-30T09:42:17.999Z</time></trkpt><trkpt lat="31.5159591405189" lon="-4.567891237911167"><ele>862.5</ele><time>2026-04-30T09:42:18.999Z</time></trkpt><trkpt lat="31.51600221451321" lon="-4.567619736365283"><ele>862.0</ele><time>2026-04-30T09:42:19.999Z</time></trkpt><trkpt lat="31.516045412086516" lon="-4.56734825028342"><ele>862.0</ele><time>2026-04-30T09:42:20.999Z</time></trkpt><trkpt lat="31.516088770604487" lon="-4.567072027814131"><ele>862.0</ele><time>2026-04-30T09:42:21.999Z</time></trkpt><trkpt lat="31.51613701900199" lon="-4.566795784521205"><ele>863.0</ele><time>2026-04-30T09:42:22.999Z</time></trkpt><trkpt lat="31.51618949144097" lon="-4.566520459266179"><ele>864.0</ele><time>2026-04-30T09:42:23.999Z</time></trkpt><trkpt lat="31.51625378694669" lon="-4.56624447927242"><ele>864.5</ele><time>2026-04-30T09:42:24.999Z</time></trkpt><trkpt lat="31.516318691617244" lon="-4.565970454256333"><ele>865.0</ele><time>2026-04-30T09:42:25.999Z</time></trkpt><trkpt lat="31.516383911859688" lon="-4.565696530285419"><ele>865.0</ele><time>2026-04-30T09:42:26.999Z</time></trkpt><trkpt lat="31.516449919118436" lon="-4.565422681957703"><ele>865.0</ele><time>2026-04-30T09:42:27.999Z</time></trkpt><trkpt lat="31.51651738151523" lon="-4.565147517833132"><ele>864.5</ele><time>2026-04-30T09:42:28.999Z</time></trkpt><trkpt lat="31.5165834572415" lon="-4.564875137848047"><ele>864.0</ele><time>2026-04-30T09:42:29.999Z</time></trkpt><trkpt lat="31.516650222814956" lon="-4.564598204935868"><ele>864.0</ele><time>2026-04-30T09:42:30.999Z</time></trkpt><trkpt lat="31.516717455970902" lon="-4.564319332583087"><ele>864.0</ele><time>2026-04-30T09:42:31.999Z</time></trkpt><trkpt lat="31.51678563361606" lon="-4.564043365789439"><ele>864.0</ele><time>2026-04-30T09:42:32.999Z</time></trkpt><trkpt lat="31.51685429317121" lon="-4.563765709920321"><ele>864.0</ele><time>2026-04-30T09:42:33.999Z</time></trkpt><trkpt lat="31.516922029518483" lon="-4.5634917874596255"><ele>862.0</ele><time>2026-04-30T09:42:34.999Z</time></trkpt><trkpt lat="31.516987548711413" lon="-4.563219153602556"><ele>860.0</ele><time>2026-04-30T09:42:35.999Z</time></trkpt><trkpt lat="31.517052598150045" lon="-4.562947354388236"><ele>861.0</ele><time>2026-04-30T09:42:36.999Z</time></trkpt><trkpt lat="31.51711873089033" lon="-4.562676630242437"><ele>862.0</ele><time>2026-04-30T09:42:37.999Z</time></trkpt><trkpt lat="31.517187246957416" lon="-4.562404815865709"><ele>862.0</ele><time>2026-04-30T09:42:38.999Z</time></trkpt><trkpt lat="31.51725494161002" lon="-4.5621371003567095"><ele>862.0</ele><time>2026-04-30T09:42:39.999Z</time></trkpt><trkpt lat="31.517321296797718" lon="-4.561865702649376"><ele>861.0</ele><time>2026-04-30T09:42:40.999Z</time></trkpt><trkpt lat="31.51738751016172" lon="-4.561593822467698"><ele>860.0</ele><time>2026-04-30T09:42:41.999Z</time></trkpt><trkpt lat="31.51745238532582" lon="-4.561322393352384"><ele>860.5</ele><time>2026-04-30T09:42:42.999Z</time></trkpt><trkpt lat="31.517515331271728" lon="-4.561047453152447"><ele>861.0</ele><time>2026-04-30T09:42:43.999Z</time></trkpt><trkpt lat="31.51758024945334" lon="-4.560777381663232"><ele>861.0</ele><time>2026-04-30T09:42:44.999Z</time></trkpt><trkpt lat="31.51764389657175" lon="-4.560507784764594"><ele>861.0</ele><time>2026-04-30T09:42:45.999Z</time></trkpt><trkpt lat="31.51771105996753" lon="-4.560237845570836"><ele>860.5</ele><time>2026-04-30T09:42:46.999Z</time></trkpt><trkpt lat="31.517778304669182" lon="-4.5599683282495365"><ele>860.0</ele><time>2026-04-30T09:42:47.999Z</time></trkpt><trkpt lat="31.517845126071443" lon="-4.559696142398057"><ele>860.0</ele><time>2026-04-30T09:42:48.999Z</time></trkpt><trkpt lat="31.517910325689847" lon="-4.559428112830168"><ele>860.0</ele><time>2026-04-30T09:42:49.999Z</time></trkpt><trkpt lat="31.51797325759431" lon="-4.559159524833715"><ele>860.0</ele><time>2026-04-30T09:42:50.999Z</time></trkpt><trkpt lat="31.518036606461017" lon="-4.558889156849198"><ele>860.0</ele><time>2026-04-30T09:42:51.999Z</time></trkpt><trkpt lat="31.518102905120884" lon="-4.558617628592925"><ele>861.0</ele><time>2026-04-30T09:42:52.999Z</time></trkpt><trkpt lat="31.518212869938417" lon="-4.558361307711284"><ele>862.0</ele><time>2026-04-30T09:42:53.999Z</time></trkpt><trkpt lat="31.51827919453018" lon="-4.558088210844"><ele>861.0</ele><time>2026-04-30T09:42:54.999Z</time></trkpt><trkpt lat="31.51834562337426" lon="-4.557818979690852"><ele>860.0</ele><time>2026-04-30T09:42:55.999Z</time></trkpt><trkpt lat="31.518413719416586" lon="-4.557542191841309"><ele>860.0</ele><time>2026-04-30T09:42:56.999Z</time></trkpt><trkpt lat="31.518480910853107" lon="-4.557270169108921"><ele>860.0</ele><time>2026-04-30T09:42:57.999Z</time></trkpt><trkpt lat="31.518545502580547" lon="-4.556996343372596"><ele>861.0</ele><time>2026-04-30T09:42:58.999Z</time></trkpt><trkpt lat="31.518612181725896" lon="-4.556724784934711"><ele>862.0</ele><time>2026-04-30T09:42:59.999Z</time></trkpt><trkpt lat="31.518680171662634" lon="-4.556451646244093"><ele>859.0</ele><time>2026-04-30T09:43:00.999Z</time></trkpt><trkpt lat="31.51874839130168" lon="-4.556179380626238"><ele>856.0</ele><time>2026-04-30T09:43:01.999Z</time></trkpt><trkpt lat="31.518816729862287" lon="-4.555909707457381"><ele>856.0</ele><time>2026-04-30T09:43:02.999Z</time></trkpt><trkpt lat="31.518883302925012" lon="-4.555639163827209"><ele>856.0</ele><time>2026-04-30T09:43:03.999Z</time></trkpt><trkpt lat="31.51894855960443" lon="-4.55536848838292"><ele>858.5</ele><time>2026-04-30T09:43:04.999Z</time></trkpt><trkpt lat="31.51901207299047" lon="-4.555099405664345"><ele>861.0</ele><time>2026-04-30T09:43:05.999Z</time></trkpt><trkpt lat="31.51907638332187" lon="-4.554826993828715"><ele>861.0</ele><time>2026-04-30T09:43:06.999Z</time></trkpt><trkpt lat="31.519140134967614" lon="-4.554558495128134"><ele>861.0</ele><time>2026-04-30T09:43:07.999Z</time></trkpt><trkpt lat="31.51920865308958" lon="-4.55428832174479"><ele>858.5</ele><time>2026-04-30T09:43:08.999Z</time></trkpt><trkpt lat="31.519276029978883" lon="-4.554016375790356"><ele>856.0</ele><time>2026-04-30T09:43:09.999Z</time></trkpt><trkpt lat="31.51934170919189" lon="-4.553748525522236"><ele>856.5</ele><time>2026-04-30T09:43:10.999Z</time></trkpt><trkpt lat="31.5194080091521" lon="-4.553478717455214"><ele>857.0</ele><time>2026-04-30T09:43:11.999Z</time></trkpt><trkpt lat="31.51947198736912" lon="-4.55320777864155"><ele>857.0</ele><time>2026-04-30T09:43:12.999Z</time></trkpt><trkpt lat="31.519537753270566" lon="-4.552936802202385"><ele>857.0</ele><time>2026-04-30T09:43:13.999Z</time></trkpt><trkpt lat="31.51960432841644" lon="-4.552667294105363"><ele>858.0</ele><time>2026-04-30T09:43:14.999Z</time></trkpt><trkpt lat="31.51967300147397" lon="-4.5523976262472665"><ele>859.0</ele><time>2026-04-30T09:43:15.999Z</time></trkpt><trkpt lat="31.51974004854867" lon="-4.552128986602618"><ele>858.5</ele><time>2026-04-30T09:43:16.999Z</time></trkpt><trkpt lat="31.519805648020412" lon="-4.551860306622569"><ele>858.0</ele><time>2026-04-30T09:43:17.999Z</time></trkpt><trkpt lat="31.519872143936063" lon="-4.551591120821863"><ele>858.0</ele><time>2026-04-30T09:43:18.999Z</time></trkpt><trkpt lat="31.519936924211986" lon="-4.551321984678349"><ele>858.0</ele><time>2026-04-30T09:43:19.999Z</time></trkpt><trkpt lat="31.520001890468745" lon="-4.551051488267847"><ele>858.5</ele><time>2026-04-30T09:43:20.999Z</time></trkpt><trkpt lat="31.52006558016664" lon="-4.550782089560291"><ele>859.0</ele><time>2026-04-30T09:43:21.999Z</time></trkpt><trkpt lat="31.52013121223692" lon="-4.550511857830437"><ele>857.0</ele><time>2026-04-30T09:43:22.999Z</time></trkpt><trkpt lat="31.520198563428238" lon="-4.550237491158395"><ele>855.0</ele><time>2026-04-30T09:43:23.999Z</time></trkpt><trkpt lat="31.520265544975548" lon="-4.549964812006745"><ele>855.0</ele><time>2026-04-30T09:43:24.999Z</time></trkpt><trkpt lat="31.520333054860444" lon="-4.549690193307564"><ele>855.0</ele><time>2026-04-30T09:43:25.999Z</time></trkpt><trkpt lat="31.520396950834105" lon="-4.549413864315112"><ele>855.5</ele><time>2026-04-30T09:43:26.999Z</time></trkpt><trkpt lat="31.520461158142506" lon="-4.5491334926869245"><ele>856.0</ele><time>2026-04-30T09:43:27.999Z</time></trkpt><trkpt lat="31.52053287273814" lon="-4.548852523881363"><ele>856.5</ele><time>2026-04-30T09:43:28.999Z</time></trkpt><trkpt lat="31.520602007813547" lon="-4.548573595267088"><ele>857.0</ele><time>2026-04-30T09:43:29.999Z</time></trkpt><trkpt lat="31.520669742589778" lon="-4.548302258413364"><ele>857.0</ele><time>2026-04-30T09:43:30.999Z</time></trkpt><trkpt lat="31.520738243922192" lon="-4.5480292952902115"><ele>857.0</ele><time>2026-04-30T09:43:31.999Z</time></trkpt><trkpt lat="31.520804578781163" lon="-4.547761544191304"><ele>857.0</ele><time>2026-04-30T09:43:32.999Z</time></trkpt><trkpt lat="31.520863475151934" lon="-4.547497530018277"><ele>857.0</ele><time>2026-04-30T09:43:33.999Z</time></trkpt><trkpt lat="31.52092446764024" lon="-4.547233535221723"><ele>857.5</ele><time>2026-04-30T09:43:34.999Z</time></trkpt><trkpt lat="31.520986939410594" lon="-4.546973026401635"><ele>858.0</ele><time>2026-04-30T09:43:35.999Z</time></trkpt><trkpt lat="31.521054265799503" lon="-4.546714212825137"><ele>858.0</ele><time>2026-04-30T09:43:36.999Z</time></trkpt><trkpt lat="31.521119242485238" lon="-4.546455447794897"><ele>858.0</ele><time>2026-04-30T09:43:37.999Z</time></trkpt><trkpt lat="31.521185669536106" lon="-4.546196346116117"><ele>858.0</ele><time>2026-04-30T09:43:38.999Z</time></trkpt><trkpt lat="31.521250916901884" lon="-4.545935198519304"><ele>858.0</ele><time>2026-04-30T09:43:39.999Z</time></trkpt><trkpt lat="31.52131520690296" lon="-4.545673078512563"><ele>858.0</ele><time>2026-04-30T09:43:40.999Z</time></trkpt><trkpt lat="31.5213793912558" lon="-4.54541019065182"><ele>858.0</ele><time>2026-04-30T09:43:41.999Z</time></trkpt><trkpt lat="31.52143925359097" lon="-4.5451459793387565"><ele>857.5</ele><time>2026-04-30T09:43:42.999Z</time></trkpt><trkpt lat="31.521503393403883" lon="-4.544882223795381"><ele>857.0</ele><time>2026-04-30T09:43:43.999Z</time></trkpt><trkpt lat="31.52156777957006" lon="-4.54461840718735"><ele>857.5</ele><time>2026-04-30T09:43:44.999Z</time></trkpt><trkpt lat="31.521630421535182" lon="-4.54435646196779"><ele>858.0</ele><time>2026-04-30T09:43:45.999Z</time></trkpt><trkpt lat="31.521691064774718" lon="-4.544098346805242"><ele>858.0</ele><time>2026-04-30T09:43:46.999Z</time></trkpt><trkpt lat="31.521755243975896" lon="-4.5438391346162295"><ele>858.0</ele><time>2026-04-30T09:43:47.999Z</time></trkpt><trkpt lat="31.52182156794191" lon="-4.543578261418994"><ele>858.0</ele><time>2026-04-30T09:43:48.999Z</time></trkpt><trkpt lat="31.521886490010015" lon="-4.543316761129908"><ele>858.0</ele><time>2026-04-30T09:43:49.999Z</time></trkpt><trkpt lat="31.521950149212593" lon="-4.543057535317664"><ele>856.5</ele><time>2026-04-30T09:43:51Z</time></trkpt><trkpt lat="31.52201172846738" lon="-4.542799162708467"><ele>855.0</ele><time>2026-04-30T09:43:52Z</time></trkpt><trkpt lat="31.522075056917124" lon="-4.542543321482097"><ele>855.0</ele><time>2026-04-30T09:43:53Z</time></trkpt><trkpt lat="31.522137248697337" lon="-4.542289687605848"><ele>855.0</ele><time>2026-04-30T09:43:54Z</time></trkpt><trkpt lat="31.52219765340899" lon="-4.542036325597355"><ele>855.0</ele><time>2026-04-30T09:43:55Z</time></trkpt><trkpt lat="31.522257558540794" lon="-4.541784923328476"><ele>854.0</ele><time>2026-04-30T09:43:56Z</time></trkpt><trkpt lat="31.522320736051483" lon="-4.541535059823226"><ele>853.0</ele><time>2026-04-30T09:43:57Z</time></trkpt><trkpt lat="31.522343051825104" lon="-4.541269083633226"><ele>853.3333333333333</ele><time>2026-04-30T09:43:58Z</time></trkpt><trkpt lat="31.5224041310836" lon="-4.541018829805209"><ele>853.6666666666667</ele><time>2026-04-30T09:43:59Z</time></trkpt><trkpt lat="31.52246423599092" lon="-4.540767576571842"><ele>854.0</ele><time>2026-04-30T09:44:00Z</time></trkpt><trkpt lat="31.522520891015365" lon="-4.540517792547187"><ele>854.0</ele><time>2026-04-30T09:44:01Z</time></trkpt><trkpt lat="31.522577839009116" lon="-4.54026593923712"><ele>854.0</ele><time>2026-04-30T09:44:02Z</time></trkpt><trkpt lat="31.522638324367158" lon="-4.540013969834326"><ele>854.0</ele><time>2026-04-30T09:44:03Z</time></trkpt><trkpt lat="31.522700144833138" lon="-4.539763805814242"><ele>855.6666666666667</ele><time>2026-04-30T09:44:04Z</time></trkpt><trkpt lat="31.52276217179306" lon="-4.539516886699676"><ele>857.3333333333333</ele><time>2026-04-30T09:44:05Z</time></trkpt><trkpt lat="31.52282428044175" lon="-4.539269642387689"><ele>859.0</ele><time>2026-04-30T09:44:06Z</time></trkpt><trkpt lat="31.522885297063038" lon="-4.539026297204862"><ele>858.6666666666666</ele><time>2026-04-30T09:44:07Z</time></trkpt><trkpt lat="31.52294514726113" lon="-4.538779900303056"><ele>858.3333333333333</ele><time>2026-04-30T09:44:08Z</time></trkpt><trkpt lat="31.52300533847915" lon="-4.538531528398978"><ele>858.0</ele><time>2026-04-30T09:44:09Z</time></trkpt><trkpt lat="31.523065437902925" lon="-4.538281874790748"><ele>857.0</ele><time>2026-04-30T09:44:10Z</time></trkpt><trkpt lat="31.523125746279238" lon="-4.538034944870776"><ele>856.0</ele><time>2026-04-30T09:44:11Z</time></trkpt><trkpt lat="31.523186980793586" lon="-4.53778426625708"><ele>855.0</ele><time>2026-04-30T09:44:12Z</time></trkpt><trkpt lat="31.523247680368716" lon="-4.537533858387634"><ele>855.0</ele><time>2026-04-30T09:44:12.999Z</time></trkpt><trkpt lat="31.523307037478887" lon="-4.5372872371684645"><ele>855.0</ele><time>2026-04-30T09:44:13.999Z</time></trkpt><trkpt lat="31.523368261389955" lon="-4.537038039862463"><ele>855.0</ele><time>2026-04-30T09:44:14.999Z</time></trkpt><trkpt lat="31.52342831553671" lon="-4.53678989364258"><ele>855.3333333333333</ele><time>2026-04-30T09:44:15.999Z</time></trkpt><trkpt lat="31.52348745221755" lon="-4.536544635718177"><ele>855.6666666666666</ele><time>2026-04-30T09:44:16.999Z</time></trkpt><trkpt lat="31.52354796968516" lon="-4.5362962826119695"><ele>856.0</ele><time>2026-04-30T09:44:17.999Z</time></trkpt><trkpt lat="31.523607655002188" lon="-4.536051005347502"><ele>856.0</ele><time>2026-04-30T09:44:18.999Z</time></trkpt><trkpt lat="31.523667149879504" lon="-4.535806218248231"><ele>856.0</ele><time>2026-04-30T09:44:19.999Z</time></trkpt><trkpt lat="31.523727058843015" lon="-4.5355598953205645"><ele>856.0</ele><time>2026-04-30T09:44:20.999Z</time></trkpt><trkpt lat="31.523784647614928" lon="-4.535323154704307"><ele>856.0</ele><time>2026-04-30T09:44:21.999Z</time></trkpt><trkpt lat="31.523842239719446" lon="-4.535085881595"><ele>856.0</ele><time>2026-04-30T09:44:22.999Z</time></trkpt><trkpt lat="31.523899676868925" lon="-4.53484805098212"><ele>856.0</ele><time>2026-04-30T09:44:23.999Z</time></trkpt><trkpt lat="31.52395877974181" lon="-4.534605867703728"><ele>856.6666666666666</ele><time>2026-04-30T09:44:24.999Z</time></trkpt><trkpt lat="31.524016975813495" lon="-4.5343677853815425"><ele>857.3333333333333</ele><time>2026-04-30T09:44:25.999Z</time></trkpt><trkpt lat="31.524075380969204" lon="-4.534127973550411"><ele>858.0</ele><time>2026-04-30T09:44:26.999Z</time></trkpt><trkpt lat="31.524134316820472" lon="-4.5338859826831115"><ele>856.3333333333333</ele><time>2026-04-30T09:44:27.999Z</time></trkpt><trkpt lat="31.524193050056443" lon="-4.533642042912957"><ele>854.6666666666666</ele><time>2026-04-30T09:44:28.999Z</time></trkpt><trkpt lat="31.52425081659789" lon="-4.533401450712584"><ele>853.0</ele><time>2026-04-30T09:44:29.999Z</time></trkpt><trkpt lat="31.52430689407189" lon="-4.533158833847778"><ele>853.0</ele><time>2026-04-30T09:44:30.999Z</time></trkpt><trkpt lat="31.52436226804759" lon="-4.5329108455499885"><ele>853.0</ele><time>2026-04-30T09:44:31.999Z</time></trkpt><trkpt lat="31.524417972030747" lon="-4.532661223591163"><ele>853.0</ele><time>2026-04-30T09:44:32.999Z</time></trkpt><trkpt lat="31.524473984232458" lon="-4.532413064704229"><ele>852.6666666666666</ele><time>2026-04-30T09:44:33.999Z</time></trkpt><trkpt lat="31.524529868233046" lon="-4.53216123235237"><ele>852.3333333333333</ele><time>2026-04-30T09:44:34.999Z</time></trkpt><trkpt lat="31.524585668976762" lon="-4.53191027652904"><ele>852.0</ele><time>2026-04-30T09:44:35.999Z</time></trkpt><trkpt lat="31.524643024915314" lon="-4.53165359526085"><ele>853.0</ele><time>2026-04-30T09:44:36.999Z</time></trkpt><trkpt lat="31.52469990068536" lon="-4.5313991393036614"><ele>854.0</ele><time>2026-04-30T09:44:37.999Z</time></trkpt><trkpt lat="31.524757282781398" lon="-4.53114221702177"><ele>856.0</ele><time>2026-04-30T09:44:38.999Z</time></trkpt><trkpt lat="31.52481469187751" lon="-4.530885909108873"><ele>858.0</ele><time>2026-04-30T09:44:39.999Z</time></trkpt><trkpt lat="31.52487905408117" lon="-4.530625589140072"><ele>857.0</ele><time>2026-04-30T09:44:40.999Z</time></trkpt><trkpt lat="31.524943072423895" lon="-4.530371794397462"><ele>856.0</ele><time>2026-04-30T09:44:41.999Z</time></trkpt><trkpt lat="31.52500777134405" lon="-4.5301144132362"><ele>856.0</ele><time>2026-04-30T09:44:42.999Z</time></trkpt><trkpt lat="31.525073415788185" lon="-4.529854133627183"><ele>856.0</ele><time>2026-04-30T09:44:43.999Z</time></trkpt><trkpt lat="31.525137825249388" lon="-4.529595234564647"><ele>855.0</ele><time>2026-04-30T09:44:44.999Z</time></trkpt><trkpt lat="31.5252039226091" lon="-4.529333676030647"><ele>854.0</ele><time>2026-04-30T09:44:45.999Z</time></trkpt><trkpt lat="31.52526888997254" lon="-4.529076469762486"><ele>854.0</ele><time>2026-04-30T09:44:46.999Z</time></trkpt><trkpt lat="31.525334201533532" lon="-4.52881672865478"><ele>854.0</ele><time>2026-04-30T09:44:47.999Z</time></trkpt><trkpt lat="31.52539942085984" lon="-4.528558549264419"><ele>852.5</ele><time>2026-04-30T09:44:48.999Z</time></trkpt><trkpt lat="31.52546444345874" lon="-4.528300621399012"><ele>851.0</ele><time>2026-04-30T09:44:49.999Z</time></trkpt><trkpt lat="31.525528910278826" lon="-4.528043430592323"><ele>852.0</ele><time>2026-04-30T09:44:50.999Z</time></trkpt><trkpt lat="31.525593476236608" lon="-4.527784647112486"><ele>853.0</ele><time>2026-04-30T09:44:51.999Z</time></trkpt><trkpt lat="31.525659018657375" lon="-4.527523990739489"><ele>853.0</ele><time>2026-04-30T09:44:52.999Z</time></trkpt><trkpt lat="31.525723426378317" lon="-4.527268773640058"><ele>853.0</ele><time>2026-04-30T09:44:53.999Z</time></trkpt><trkpt lat="31.525788895257808" lon="-4.5270094432416075"><ele>854.0</ele><time>2026-04-30T09:44:54.999Z</time></trkpt><trkpt lat="31.525853727582177" lon="-4.526753050664247"><ele>855.0</ele><time>2026-04-30T09:44:55.999Z</time></trkpt><trkpt lat="31.525918253626802" lon="-4.526496677185766"><ele>855.0</ele><time>2026-04-30T09:44:56.999Z</time></trkpt><trkpt lat="31.525981326177828" lon="-4.526239996863622"><ele>855.0</ele><time>2026-04-30T09:44:57.999Z</time></trkpt><trkpt lat="31.52604414342321" lon="-4.525983711826551"><ele>854.5</ele><time>2026-04-30T09:44:58.999Z</time></trkpt><trkpt lat="31.52610753210946" lon="-4.525725095392404"><ele>854.0</ele><time>2026-04-30T09:44:59.999Z</time></trkpt><trkpt lat="31.526206277842917" lon="-4.525474940259181"><ele>854.0</ele><time>2026-04-30T09:45:00.999Z</time></trkpt><trkpt lat="31.52626855248365" lon="-4.525210955300002"><ele>854.0</ele><time>2026-04-30T09:45:01.999Z</time></trkpt><trkpt lat="31.526331654632877" lon="-4.5249439872843435"><ele>854.0</ele><time>2026-04-30T09:45:02.999Z</time></trkpt><trkpt lat="31.526396397878507" lon="-4.52467864242281"><ele>854.0</ele><time>2026-04-30T09:45:03.999Z</time></trkpt><trkpt lat="31.526461871749675" lon="-4.524412876966089"><ele>853.0</ele><time>2026-04-30T09:45:04.999Z</time></trkpt><trkpt lat="31.526525355216247" lon="-4.524147089798151"><ele>852.0</ele><time>2026-04-30T09:45:05.999Z</time></trkpt><trkpt lat="31.52658729817804" lon="-4.523878404195291"><ele>852.0</ele><time>2026-04-30T09:45:06.999Z</time></trkpt><trkpt lat="31.5266490928193" lon="-4.523610558485361"><ele>852.0</ele><time>2026-04-30T09:45:07.999Z</time></trkpt><trkpt lat="31.526713675396127" lon="-4.523342847968065"><ele>852.0</ele><time>2026-04-30T09:45:08.999Z</time></trkpt><trkpt lat="31.526780872210484" lon="-4.523076617615831"><ele>852.0</ele><time>2026-04-30T09:45:09.999Z</time></trkpt><trkpt lat="31.526849427810586" lon="-4.522809837856511"><ele>851.5</ele><time>2026-04-30T09:45:10.999Z</time></trkpt><trkpt lat="31.526916177864504" lon="-4.522543965812467"><ele>851.0</ele><time>2026-04-30T09:45:11.999Z</time></trkpt><trkpt lat="31.52698312092328" lon="-4.522277012184816"><ele>851.5</ele><time>2026-04-30T09:45:12.999Z</time></trkpt><trkpt lat="31.527046468870907" lon="-4.5220092021238765"><ele>852.0</ele><time>2026-04-30T09:45:13.999Z</time></trkpt><trkpt lat="31.52711035880382" lon="-4.521741035525994"><ele>852.0</ele><time>2026-04-30T09:45:14.999Z</time></trkpt><trkpt lat="31.527173941257587" lon="-4.52147435535351"><ele>852.0</ele><time>2026-04-30T09:45:15.999Z</time></trkpt><trkpt lat="31.527239013762824" lon="-4.521207358146985"><ele>852.0</ele><time>2026-04-30T09:45:16.999Z</time></trkpt><trkpt lat="31.527304399936902" lon="-4.520939822395534"><ele>852.0</ele><time>2026-04-30T09:45:17.999Z</time></trkpt><trkpt lat="31.527371337927743" lon="-4.5206737740892375"><ele>852.0</ele><time>2026-04-30T09:45:18.999Z</time></trkpt><trkpt lat="31.527435034944997" lon="-4.520406772986848"><ele>852.0</ele><time>2026-04-30T09:45:19.999Z</time></trkpt><trkpt lat="31.52749982750037" lon="-4.520137718541565"><ele>852.5</ele><time>2026-04-30T09:45:20.999Z</time></trkpt><trkpt lat="31.52756766492525" lon="-4.519870145863843"><ele>853.0</ele><time>2026-04-30T09:45:21.999Z</time></trkpt><trkpt lat="31.527630440432052" lon="-4.519604342702815"><ele>850.0</ele><time>2026-04-30T09:45:22.999Z</time></trkpt><trkpt lat="31.527692929942774" lon="-4.519336623385304"><ele>847.0</ele><time>2026-04-30T09:45:23.999Z</time></trkpt><trkpt lat="31.52775587130173" lon="-4.519069532579752"><ele>847.0</ele><time>2026-04-30T09:45:24.999Z</time></trkpt><trkpt lat="31.527818540962624" lon="-4.518801520956117"><ele>847.0</ele><time>2026-04-30T09:45:25.999Z</time></trkpt><trkpt lat="31.527882816521217" lon="-4.518535323941465"><ele>849.5</ele><time>2026-04-30T09:45:26.999Z</time></trkpt><trkpt lat="31.52794748355785" lon="-4.518268530298708"><ele>852.0</ele><time>2026-04-30T09:45:27.999Z</time></trkpt><trkpt lat="31.52801534790779" lon="-4.518003318786039"><ele>852.0</ele><time>2026-04-30T09:45:28.999Z</time></trkpt><trkpt lat="31.5280818474031" lon="-4.517738201095878"><ele>852.0</ele><time>2026-04-30T09:45:29.999Z</time></trkpt><trkpt lat="31.52814641914346" lon="-4.517473852280914"><ele>852.0</ele><time>2026-04-30T09:45:30.999Z</time></trkpt><trkpt lat="31.528211690778257" lon="-4.517210949519287"><ele>852.0</ele><time>2026-04-30T09:45:31.999Z</time></trkpt><trkpt lat="31.52827346136864" lon="-4.5169507432437035"><ele>851.5</ele><time>2026-04-30T09:45:32.999Z</time></trkpt><trkpt lat="31.528336786361386" lon="-4.516690315371755"><ele>851.0</ele><time>2026-04-30T09:45:33.999Z</time></trkpt><trkpt lat="31.52840080951322" lon="-4.516431115947501"><ele>850.5</ele><time>2026-04-30T09:45:34.999Z</time></trkpt><trkpt lat="31.528464475493664" lon="-4.516171518900134"><ele>850.0</ele><time>2026-04-30T09:45:35.999Z</time></trkpt><trkpt lat="31.528525157063303" lon="-4.515914475145604"><ele>850.0</ele><time>2026-04-30T09:45:36.999Z</time></trkpt><trkpt lat="31.528585783439077" lon="-4.515660958397152"><ele>850.0</ele><time>2026-04-30T09:45:37.999Z</time></trkpt><trkpt lat="31.528647681300605" lon="-4.515407142367702"><ele>850.0</ele><time>2026-04-30T09:45:38.999Z</time></trkpt><trkpt lat="31.528709098106862" lon="-4.515156875424081"><ele>850.3333333333333</ele><time>2026-04-30T09:45:39.999Z</time></trkpt><trkpt lat="31.52876816927032" lon="-4.514905599997875"><ele>850.6666666666667</ele><time>2026-04-30T09:45:40.999Z</time></trkpt><trkpt lat="31.5288286168799" lon="-4.514655162068883"><ele>851.0</ele><time>2026-04-30T09:45:41.999Z</time></trkpt><trkpt lat="31.528889413395497" lon="-4.514402200857978"><ele>851.0</ele><time>2026-04-30T09:45:42.999Z</time></trkpt><trkpt lat="31.528948544198865" lon="-4.514150719944448"><ele>851.0</ele><time>2026-04-30T09:45:44Z</time></trkpt><trkpt lat="31.529005254288116" lon="-4.513897843960836"><ele>851.0</ele><time>2026-04-30T09:45:45Z</time></trkpt><trkpt lat="31.529068410429204" lon="-4.513643869320178"><ele>851.0</ele><time>2026-04-30T09:45:46Z</time></trkpt><trkpt lat="31.529133163515024" lon="-4.513389159985219"><ele>851.0</ele><time>2026-04-30T09:45:47Z</time></trkpt><trkpt lat="31.529197137306966" lon="-4.513133825556484"><ele>848.5</ele><time>2026-04-30T09:45:48Z</time></trkpt><trkpt lat="31.529255297466865" lon="-4.512877957313211"><ele>846.0</ele><time>2026-04-30T09:45:49Z</time></trkpt><trkpt lat="31.529315924744957" lon="-4.512620735356145"><ele>846.0</ele><time>2026-04-30T09:45:50Z</time></trkpt><trkpt lat="31.529377134432693" lon="-4.512365374566879"><ele>846.0</ele><time>2026-04-30T09:45:51Z</time></trkpt><trkpt lat="31.529434606252593" lon="-4.512110197625987"><ele>845.5</ele><time>2026-04-30T09:45:52Z</time></trkpt><trkpt lat="31.52948579067343" lon="-4.511851788673058"><ele>845.0</ele><time>2026-04-30T09:45:53Z</time></trkpt><trkpt lat="31.529527336187414" lon="-4.5115914409201405"><ele>845.0</ele><time>2026-04-30T09:45:54Z</time></trkpt><trkpt lat="31.529557318158464" lon="-4.511328017404448"><ele>845.0</ele><time>2026-04-30T09:45:55Z</time></trkpt><trkpt lat="31.52957578342357" lon="-4.5110627549571864"><ele>845.5</ele><time>2026-04-30T09:45:56Z</time></trkpt><trkpt lat="31.52958456497454" lon="-4.510794471721487"><ele>846.0</ele><time>2026-04-30T09:45:57Z</time></trkpt><trkpt lat="31.529597164959846" lon="-4.510524930654856"><ele>847.0</ele><time>2026-04-30T09:45:58Z</time></trkpt><trkpt lat="31.52961161511988" lon="-4.510254338770451"><ele>848.0</ele><time>2026-04-30T09:45:59Z</time></trkpt><trkpt lat="31.529624184578992" lon="-4.509987207970802"><ele>848.0</ele><time>2026-04-30T09:46:00Z</time></trkpt><trkpt lat="31.529642002466304" lon="-4.50972109101527"><ele>848.0</ele><time>2026-04-30T09:46:01Z</time></trkpt><trkpt lat="31.52966042760852" lon="-4.5094536508215235"><ele>847.5</ele><time>2026-04-30T09:46:02Z</time></trkpt><trkpt lat="31.529677404421825" lon="-4.509188023284762"><ele>847.0</ele><time>2026-04-30T09:46:03Z</time></trkpt><trkpt lat="31.52969183617305" lon="-4.508923194727649"><ele>848.5</ele><time>2026-04-30T09:46:04Z</time></trkpt><trkpt lat="31.52970470073857" lon="-4.508658225528593"><ele>850.0</ele><time>2026-04-30T09:46:05Z</time></trkpt><trkpt lat="31.529715332617375" lon="-4.50839649204169"><ele>850.0</ele><time>2026-04-30T09:46:06Z</time></trkpt><trkpt lat="31.52973255938543" lon="-4.508134782057462"><ele>850.0</ele><time>2026-04-30T09:46:07Z</time></trkpt><trkpt lat="31.529747589889237" lon="-4.507873573598003"><ele>850.0</ele><time>2026-04-30T09:46:08Z</time></trkpt><trkpt lat="31.529762353315355" lon="-4.507613963846234"><ele>848.6666666666666</ele><time>2026-04-30T09:46:09Z</time></trkpt><trkpt lat="31.52978140325591" lon="-4.507356298853479"><ele>847.3333333333333</ele><time>2026-04-30T09:46:10Z</time></trkpt><trkpt lat="31.529797763023918" lon="-4.507100675926811"><ele>846.0</ele><time>2026-04-30T09:46:11Z</time></trkpt><trkpt lat="31.52981165772109" lon="-4.506851312585519"><ele>846.0</ele><time>2026-04-30T09:46:12Z</time></trkpt><trkpt lat="31.529822297938175" lon="-4.506603945401174"><ele>846.0</ele><time>2026-04-30T09:46:13Z</time></trkpt><trkpt lat="31.529835727058803" lon="-4.506357041530927"><ele>846.0</ele><time>2026-04-30T09:46:14Z</time></trkpt><trkpt lat="31.529850656758185" lon="-4.506109150276612"><ele>846.6666666666667</ele><time>2026-04-30T09:46:15Z</time></trkpt><trkpt lat="31.52986810011477" lon="-4.505860373601689"><ele>847.3333333333334</ele><time>2026-04-30T09:46:16Z</time></trkpt><trkpt lat="31.529880727245864" lon="-4.505610427144395"><ele>848.0</ele><time>2026-04-30T09:46:17Z</time></trkpt><trkpt lat="31.52989125060955" lon="-4.505360809773159"><ele>848.0</ele><time>2026-04-30T09:46:18Z</time></trkpt><trkpt lat="31.529904537505473" lon="-4.50510924856754"><ele>848.0</ele><time>2026-04-30T09:46:19Z</time></trkpt><trkpt lat="31.529918913732963" lon="-4.5048609254999485"><ele>848.0</ele><time>2026-04-30T09:46:20Z</time></trkpt><trkpt lat="31.529933768204245" lon="-4.504615033060874"><ele>848.3333333333334</ele><time>2026-04-30T09:46:21Z</time></trkpt><trkpt lat="31.52994737718521" lon="-4.504369164208457"><ele>848.6666666666667</ele><time>2026-04-30T09:46:22Z</time></trkpt><trkpt lat="31.529961935168323" lon="-4.504122824564882"><ele>849.0</ele><time>2026-04-30T09:46:23Z</time></trkpt><trkpt lat="31.529976293831204" lon="-4.503876942321401"><ele>848.3333333333333</ele><time>2026-04-30T09:46:24Z</time></trkpt><trkpt lat="31.529990301808624" lon="-4.503632386422415"><ele>847.6666666666666</ele><time>2026-04-30T09:46:25Z</time></trkpt><trkpt lat="31.53000526407863" lon="-4.503385999036535"><ele>847.0</ele><time>2026-04-30T09:46:26Z</time></trkpt><trkpt lat="31.530019274806694" lon="-4.503140947759995"><ele>847.0</ele><time>2026-04-30T09:46:27Z</time></trkpt><trkpt lat="31.530034690029048" lon="-4.502890914824526"><ele>847.0</ele><time>2026-04-30T09:46:28Z</time></trkpt><trkpt lat="31.530049388946743" lon="-4.502641817241975"><ele>847.0</ele><time>2026-04-30T09:46:29Z</time></trkpt><trkpt lat="31.53004460410429" lon="-4.502389486509653"><ele>847.0</ele><time>2026-04-30T09:46:30Z</time></trkpt><trkpt lat="31.530054560506922" lon="-4.502137156701509"><ele>847.0</ele><time>2026-04-30T09:46:31Z</time></trkpt><trkpt lat="31.530064870411987" lon="-4.501883661258584"><ele>847.0</ele><time>2026-04-30T09:46:32Z</time></trkpt><trkpt lat="31.530074953758312" lon="-4.501630253909262"><ele>847.3333333333333</ele><time>2026-04-30T09:46:33Z</time></trkpt><trkpt lat="31.530084544781893" lon="-4.501376806351916"><ele>847.6666666666667</ele><time>2026-04-30T09:46:34Z</time></trkpt><trkpt lat="31.53009638812293" lon="-4.5011241687568875"><ele>848.0</ele><time>2026-04-30T09:46:35Z</time></trkpt><trkpt lat="31.530111845656055" lon="-4.500877007908959"><ele>848.0</ele><time>2026-04-30T09:46:36Z</time></trkpt><trkpt lat="31.530127306577434" lon="-4.500636867911613"><ele>848.0</ele><time>2026-04-30T09:46:37Z</time></trkpt><trkpt lat="31.53014282514899" lon="-4.5003979140442585"><ele>848.0</ele><time>2026-04-30T09:46:38Z</time></trkpt><trkpt lat="31.530157673798364" lon="-4.500163514065258"><ele>848.3333333333334</ele><time>2026-04-30T09:46:39Z</time></trkpt><trkpt lat="31.53017238914343" lon="-4.499931063268758"><ele>848.6666666666667</ele><time>2026-04-30T09:46:40Z</time></trkpt><trkpt lat="31.530187283909385" lon="-4.4996990438532505"><ele>849.0</ele><time>2026-04-30T09:46:41Z</time></trkpt><trkpt lat="31.53020099400282" lon="-4.499471312829552"><ele>849.0</ele><time>2026-04-30T09:46:42Z</time></trkpt><trkpt lat="31.530215854438932" lon="-4.4992412922092075"><ele>849.0</ele><time>2026-04-30T09:46:43Z</time></trkpt><trkpt lat="31.530230326266445" lon="-4.499015468051286"><ele>849.0</ele><time>2026-04-30T09:46:44Z</time></trkpt><trkpt lat="31.53024476835938" lon="-4.498788731508258"><ele>849.6666666666667</ele><time>2026-04-30T09:46:45Z</time></trkpt><trkpt lat="31.530273732396342" lon="-4.498563646988723"><ele>850.3333333333334</ele><time>2026-04-30T09:46:46Z</time></trkpt><trkpt lat="31.53028604930631" lon="-4.498340479973612"><ele>851.0</ele><time>2026-04-30T09:46:47Z</time></trkpt><trkpt lat="31.530301607689626" lon="-4.498128734647368"><ele>851.0</ele><time>2026-04-30T09:46:48Z</time></trkpt><trkpt lat="31.530313080616274" lon="-4.497925057224369"><ele>851.0</ele><time>2026-04-30T09:46:49Z</time></trkpt><trkpt lat="31.53031061363058" lon="-4.497722329764167"><ele>851.0</ele><time>2026-04-30T09:46:50Z</time></trkpt><trkpt lat="31.530323263780954" lon="-4.497519764283712"><ele>849.6666666666667</ele><time>2026-04-30T09:46:51Z</time></trkpt><trkpt lat="31.53033592151172" lon="-4.49731729908299"><ele>848.3333333333333</ele><time>2026-04-30T09:46:51.999Z</time></trkpt><trkpt lat="31.530363715398966" lon="-4.4971158091989505"><ele>847.0</ele><time>2026-04-30T09:46:52.999Z</time></trkpt><trkpt lat="31.530372921952697" lon="-4.4969139725688185"><ele>847.0</ele><time>2026-04-30T09:46:53.999Z</time></trkpt><trkpt lat="31.53038518147971" lon="-4.496714961669172"><ele>847.0</ele><time>2026-04-30T09:46:54.999Z</time></trkpt><trkpt lat="31.53040017348912" lon="-4.496515011830621"><ele>847.0</ele><time>2026-04-30T09:46:55.999Z</time></trkpt><trkpt lat="31.530413227396487" lon="-4.496314942881341"><ele>847.0</ele><time>2026-04-30T09:46:56.999Z</time></trkpt><trkpt lat="31.53042560978745" lon="-4.496119457327294"><ele>847.0</ele><time>2026-04-30T09:46:57.999Z</time></trkpt><trkpt lat="31.530437876201074" lon="-4.495926332091612"><ele>847.0</ele><time>2026-04-30T09:46:58.999Z</time></trkpt><trkpt lat="31.530450386336845" lon="-4.49574472833287"><ele>847.0</ele><time>2026-04-30T09:46:59.999Z</time></trkpt><trkpt lat="31.530461185445894" lon="-4.495576066134708"><ele>847.0</ele><time>2026-04-30T09:47:00.999Z</time></trkpt><trkpt lat="31.53046712951634" lon="-4.495432553048212"><ele>847.0</ele><time>2026-04-30T09:47:01.999Z</time></trkpt><trkpt lat="31.530473822634416" lon="-4.495312884254343"><ele>847.0</ele><time>2026-04-30T09:47:02.999Z</time></trkpt><trkpt lat="31.530479267955023" lon="-4.495224277603035"><ele>847.0</ele><time>2026-04-30T09:47:03.999Z</time></trkpt><trkpt lat="31.53050269787244" lon="-4.495133717918022"><ele>847.0</ele><time>2026-04-30T09:47:05.999Z</time></trkpt><trkpt lat="31.530594486831163" lon="-4.4952783405579675"><ele>847.0</ele><time>2026-04-30T09:47:10.999Z</time></trkpt><trkpt lat="31.530553142233494" lon="-4.495386342772896"><ele>847.0</ele><time>2026-04-30T09:47:12.999Z</time></trkpt><trkpt lat="31.530470552519" lon="-4.495441474691084"><ele>847.0</ele><time>2026-04-30T09:47:14.999Z</time></trkpt><trkpt lat="31.530465706714764" lon="-4.495558291635285"><ele>847.0</ele><time>2026-04-30T09:47:15.999Z</time></trkpt><trkpt lat="31.530467104581426" lon="-4.495663113499834"><ele>846.9999999999999</ele><time>2026-04-30T09:47:16.999Z</time></trkpt><trkpt lat="31.53047425906805" lon="-4.4957472227636055"><ele>847.0</ele><time>2026-04-30T09:47:17.999Z</time></trkpt><trkpt lat="31.53052637167144" lon="-4.495873677036105"><ele>847.0</ele><time>2026-04-30T09:47:19.999Z</time></trkpt><trkpt lat="31.530522302725497" lon="-4.495950758677921"><ele>847.0</ele><time>2026-04-30T09:47:21.999Z</time></trkpt><trkpt lat="31.5305158005137" lon="-4.496036536112402"><ele>846.9999999999999</ele><time>2026-04-30T09:47:24.999Z</time></trkpt><trkpt lat="31.53050962341097" lon="-4.496134872416786"><ele>847.0</ele><time>2026-04-30T09:47:27.999Z</time></trkpt><trkpt lat="31.53072518227802" lon="-4.496193193395064"><ele>847.0</ele><time>2026-04-30T09:48:12.999Z</time></trkpt><trkpt lat="31.530633923431058" lon="-4.496255611221312"><ele>847.0</ele><time>2026-04-30T09:48:47.999Z</time></trkpt><trkpt lat="31.530533690110662" lon="-4.496252707950316"><ele>847.0</ele><time>2026-04-30T09:48:49.999Z</time></trkpt><trkpt lat="31.530481865312417" lon="-4.496205126052292"><ele>847.0</ele><time>2026-04-30T09:48:51.999Z</time></trkpt><trkpt lat="31.530424724865963" lon="-4.496094457371506"><ele>847.0</ele><time>2026-04-30T09:48:54.999Z</time></trkpt><trkpt lat="31.530421793316012" lon="-4.495973560784938"><ele>847.0</ele><time>2026-04-30T09:48:55.999Z</time></trkpt><trkpt lat="31.53043216828351" lon="-4.4958229028639405"><ele>847.0</ele><time>2026-04-30T09:48:56.999Z</time></trkpt><trkpt lat="31.530450041352793" lon="-4.4956515611037124"><ele>847.0</ele><time>2026-04-30T09:48:57.999Z</time></trkpt><trkpt lat="31.530463212657295" lon="-4.49546151330494"><ele>847.0</ele><time>2026-04-30T09:48:58.999Z</time></trkpt><trkpt lat="31.53047508597846" lon="-4.495262477660838"><ele>846.0</ele><time>2026-04-30T09:48:59.999Z</time></trkpt><trkpt lat="31.530488898483988" lon="-4.495052734648524"><ele>845.0</ele><time>2026-04-30T09:49:00.999Z</time></trkpt><trkpt lat="31.530503878277635" lon="-4.4948466809915875"><ele>844.0</ele><time>2026-04-30T09:49:01.999Z</time></trkpt><trkpt lat="31.530516061003556" lon="-4.494631510835788"><ele>844.3333333333333</ele><time>2026-04-30T09:49:02.999Z</time></trkpt><trkpt lat="31.53052569028034" lon="-4.49440906407673"><ele>844.6666666666667</ele><time>2026-04-30T09:49:03.999Z</time></trkpt><trkpt lat="31.530534873255387" lon="-4.494185480464014"><ele>845.0</ele><time>2026-04-30T09:49:04.999Z</time></trkpt><trkpt lat="31.53054337987827" lon="-4.49396356915676"><ele>845.0</ele><time>2026-04-30T09:49:05.999Z</time></trkpt><trkpt lat="31.530547131422317" lon="-4.493737965557741"><ele>845.0</ele><time>2026-04-30T09:49:06.999Z</time></trkpt><trkpt lat="31.53053556487331" lon="-4.493516084772026"><ele>845.0</ele><time>2026-04-30T09:49:07.999Z</time></trkpt><trkpt lat="31.53051754190271" lon="-4.493297441511213"><ele>845.0</ele><time>2026-04-30T09:49:08.999Z</time></trkpt><trkpt lat="31.530499135636102" lon="-4.493082259274792"><ele>845.0</ele><time>2026-04-30T09:49:09.999Z</time></trkpt><trkpt lat="31.53048213633416" lon="-4.492866384667575"><ele>845.0</ele><time>2026-04-30T09:49:10.999Z</time></trkpt><trkpt lat="31.53046277061707" lon="-4.492647989778916"><ele>845.6666666666667</ele><time>2026-04-30T09:49:11.999Z</time></trkpt><trkpt lat="31.530443879729784" lon="-4.492429630931347"><ele>846.3333333333333</ele><time>2026-04-30T09:49:12.999Z</time></trkpt><trkpt lat="31.530426810495072" lon="-4.492209219961623"><ele>847.0</ele><time>2026-04-30T09:49:13.999Z</time></trkpt><trkpt lat="31.530412011068933" lon="-4.4919864188043785"><ele>845.6666666666666</ele><time>2026-04-30T09:49:14.999Z</time></trkpt><trkpt lat="31.53037608683504" lon="-4.491770096340414"><ele>844.3333333333333</ele><time>2026-04-30T09:49:15.999Z</time></trkpt><trkpt lat="31.530351468570824" lon="-4.491551260950747"><ele>843.0</ele><time>2026-04-30T09:49:16.999Z</time></trkpt><trkpt lat="31.530326397373724" lon="-4.491328399348294"><ele>843.3333333333333</ele><time>2026-04-30T09:49:17.999Z</time></trkpt><trkpt lat="31.530300728695753" lon="-4.491101684052349"><ele>843.6666666666666</ele><time>2026-04-30T09:49:18.999Z</time></trkpt><trkpt lat="31.530259388596143" lon="-4.490877038896954"><ele>844.0</ele><time>2026-04-30T09:49:19.999Z</time></trkpt><trkpt lat="31.530183612440272" lon="-4.4906608426980705"><ele>844.0</ele><time>2026-04-30T09:49:20.999Z</time></trkpt><trkpt lat="31.530100492665113" lon="-4.490445963549882"><ele>844.0</ele><time>2026-04-30T09:49:21.999Z</time></trkpt><trkpt lat="31.530024130508625" lon="-4.490225147873121"><ele>844.0</ele><time>2026-04-30T09:49:22.999Z</time></trkpt><trkpt lat="31.529937059870175" lon="-4.490006742753369"><ele>844.3333333333333</ele><time>2026-04-30T09:49:23.999Z</time></trkpt><trkpt lat="31.52985826392163" lon="-4.489783487565214"><ele>844.6666666666667</ele><time>2026-04-30T09:49:24.999Z</time></trkpt><trkpt lat="31.529779864829255" lon="-4.489550836826901"><ele>845.0</ele><time>2026-04-30T09:49:25.999Z</time></trkpt><trkpt lat="31.52971324252897" lon="-4.489323974517986"><ele>845.0</ele><time>2026-04-30T09:49:26.999Z</time></trkpt><trkpt lat="31.529646700965927" lon="-4.489098930736305"><ele>845.0</ele><time>2026-04-30T09:49:27.999Z</time></trkpt><trkpt lat="31.529581550690843" lon="-4.488877115170364"><ele>845.0</ele><time>2026-04-30T09:49:28.999Z</time></trkpt><trkpt lat="31.529516900244694" lon="-4.488659667344695"><ele>845.3333333333334</ele><time>2026-04-30T09:49:29.999Z</time></trkpt><trkpt lat="31.529457664306836" lon="-4.488437466783004"><ele>845.6666666666667</ele><time>2026-04-30T09:49:30.999Z</time></trkpt><trkpt lat="31.529389073219168" lon="-4.488212496737241"><ele>846.0</ele><time>2026-04-30T09:49:31.999Z</time></trkpt><trkpt lat="31.529333940171753" lon="-4.4879836261566135"><ele>845.6666666666667</ele><time>2026-04-30T09:49:32.999Z</time></trkpt><trkpt lat="31.529289468419" lon="-4.487748073528349"><ele>845.3333333333334</ele><time>2026-04-30T09:49:33.999Z</time></trkpt><trkpt lat="31.529258903183845" lon="-4.4875103896844255"><ele>845.0</ele><time>2026-04-30T09:49:34.999Z</time></trkpt><trkpt lat="31.529236116677485" lon="-4.48727147362848"><ele>845.3333333333334</ele><time>2026-04-30T09:49:35.999Z</time></trkpt><trkpt lat="31.529216791491315" lon="-4.487034955388053"><ele>845.6666666666667</ele><time>2026-04-30T09:49:36.999Z</time></trkpt><trkpt lat="31.52919476801392" lon="-4.486800501290305"><ele>846.0</ele><time>2026-04-30T09:49:37.999Z</time></trkpt><trkpt lat="31.52917166674302" lon="-4.486563947461107"><ele>846.0</ele><time>2026-04-30T09:49:38.999Z</time></trkpt><trkpt lat="31.52915062229929" lon="-4.486322422482035"><ele>846.0</ele><time>2026-04-30T09:49:39.999Z</time></trkpt><trkpt lat="31.529132512412232" lon="-4.486077778962433"><ele>846.0</ele><time>2026-04-30T09:49:40.999Z</time></trkpt><trkpt lat="31.52911916005971" lon="-4.4858291454978065"><ele>845.3333333333333</ele><time>2026-04-30T09:49:41.999Z</time></trkpt><trkpt lat="31.52911533264573" lon="-4.485577665857071"><ele>844.6666666666666</ele><time>2026-04-30T09:49:42.999Z</time></trkpt><trkpt lat="31.52912892017428" lon="-4.485329329483813"><ele>844.0</ele><time>2026-04-30T09:49:43.999Z</time></trkpt><trkpt lat="31.529153835252732" lon="-4.485079746734277"><ele>844.0</ele><time>2026-04-30T09:49:44.999Z</time></trkpt><trkpt lat="31.52918556748895" lon="-4.484827679500019"><ele>844.0</ele><time>2026-04-30T09:49:45.999Z</time></trkpt><trkpt lat="31.529227061440864" lon="-4.484576459879655"><ele>844.0</ele><time>2026-04-30T09:49:46.999Z</time></trkpt><trkpt lat="31.529277955956722" lon="-4.484322650532205"><ele>844.0</ele><time>2026-04-30T09:49:47.999Z</time></trkpt><trkpt lat="31.52931075681133" lon="-4.484067590346061"><ele>844.0</ele><time>2026-04-30T09:49:48.999Z</time></trkpt><trkpt lat="31.52935590502992" lon="-4.483813705920249"><ele>844.0</ele><time>2026-04-30T09:49:49.999Z</time></trkpt><trkpt lat="31.529402142691932" lon="-4.483558658174643"><ele>843.6666666666666</ele><time>2026-04-30T09:49:50.999Z</time></trkpt><trkpt lat="31.529447795727137" lon="-4.483307074218694"><ele>843.3333333333333</ele><time>2026-04-30T09:49:51.999Z</time></trkpt><trkpt lat="31.52949304179018" lon="-4.48305592711209"><ele>843.0</ele><time>2026-04-30T09:49:52.999Z</time></trkpt><trkpt lat="31.529538191716714" lon="-4.482807725905065"><ele>843.3333333333333</ele><time>2026-04-30T09:49:53.999Z</time></trkpt><trkpt lat="31.52958324507004" lon="-4.482558047433266"><ele>843.6666666666666</ele><time>2026-04-30T09:49:54.999Z</time></trkpt><trkpt lat="31.529627814142586" lon="-4.482311431133478"><ele>844.0</ele><time>2026-04-30T09:49:55.999Z</time></trkpt><trkpt lat="31.529672639344316" lon="-4.482063396733036"><ele>844.0</ele><time>2026-04-30T09:49:56.999Z</time></trkpt><trkpt lat="31.52971723336387" lon="-4.481816641548567"><ele>844.0</ele><time>2026-04-30T09:49:57.999Z</time></trkpt><trkpt lat="31.529783907689904" lon="-4.481576689469231"><ele>844.0</ele><time>2026-04-30T09:49:58.999Z</time></trkpt><trkpt lat="31.529832136173447" lon="-4.481332349203717"><ele>845.0</ele><time>2026-04-30T09:49:59.999Z</time></trkpt><trkpt lat="31.529877489647586" lon="-4.481087076737174"><ele>846.0</ele><time>2026-04-30T09:50:00.999Z</time></trkpt><trkpt lat="31.52992010104128" lon="-4.4808413035853825"><ele>847.0</ele><time>2026-04-30T09:50:01.999Z</time></trkpt><trkpt lat="31.52996231527358" lon="-4.48059681151162"><ele>848.0</ele><time>2026-04-30T09:50:02.999Z</time></trkpt><trkpt lat="31.530006160507185" lon="-4.480352666569291"><ele>849.0</ele><time>2026-04-30T09:50:03.999Z</time></trkpt><trkpt lat="31.530049715645127" lon="-4.48011175780553"><ele>850.0</ele><time>2026-04-30T09:50:04.999Z</time></trkpt><trkpt lat="31.53009707440125" lon="-4.479870630943093"><ele>850.0</ele><time>2026-04-30T09:50:05.999Z</time></trkpt><trkpt lat="31.530144859657476" lon="-4.479630852027442"><ele>850.0</ele><time>2026-04-30T09:50:06.999Z</time></trkpt><trkpt lat="31.530188796917972" lon="-4.479391601606263"><ele>850.0</ele><time>2026-04-30T09:50:07.999Z</time></trkpt><trkpt lat="31.530230092397566" lon="-4.479157185899804"><ele>849.6666666666666</ele><time>2026-04-30T09:50:08.999Z</time></trkpt><trkpt lat="31.530268813639665" lon="-4.478919801543105"><ele>849.3333333333333</ele><time>2026-04-30T09:50:09.999Z</time></trkpt><trkpt lat="31.530310104645157" lon="-4.478684054491934"><ele>849.0</ele><time>2026-04-30T09:50:10.999Z</time></trkpt><trkpt lat="31.530352187907454" lon="-4.478452297628169"><ele>848.6666666666667</ele><time>2026-04-30T09:50:11.999Z</time></trkpt><trkpt lat="31.530395077068956" lon="-4.478224497366202"><ele>848.3333333333334</ele><time>2026-04-30T09:50:12.999Z</time></trkpt><trkpt lat="31.530434056367568" lon="-4.477999918606866"><ele>848.0</ele><time>2026-04-30T09:50:13.999Z</time></trkpt><trkpt lat="31.530449684956036" lon="-4.4777752985134684"><ele>848.0</ele><time>2026-04-30T09:50:14.999Z</time></trkpt><trkpt lat="31.530433935165895" lon="-4.477551900727748"><ele>848.0</ele><time>2026-04-30T09:50:15.999Z</time></trkpt><trkpt lat="31.530396645708652" lon="-4.4773352744303105"><ele>848.0</ele><time>2026-04-30T09:50:16.999Z</time></trkpt><trkpt lat="31.53034655210409" lon="-4.477117817831497"><ele>848.0</ele><time>2026-04-30T09:50:17.999Z</time></trkpt><trkpt lat="31.53028812004412" lon="-4.476912039423238"><ele>848.0</ele><time>2026-04-30T09:50:18.999Z</time></trkpt><trkpt lat="31.53022863763291" lon="-4.476722143711227"><ele>848.0</ele><time>2026-04-30T09:50:19.999Z</time></trkpt><trkpt lat="31.530172324301503" lon="-4.476538823984958"><ele>848.0</ele><time>2026-04-30T09:50:20.999Z</time></trkpt><trkpt lat="31.530120628455872" lon="-4.476361106318936"><ele>848.0</ele><time>2026-04-30T09:50:21.999Z</time></trkpt><trkpt lat="31.53007281342641" lon="-4.476187184362224"><ele>848.0</ele><time>2026-04-30T09:50:22.999Z</time></trkpt><trkpt lat="31.530026548307983" lon="-4.476009616768303"><ele>848.0</ele><time>2026-04-30T09:50:23.999Z</time></trkpt><trkpt lat="31.529977931485924" lon="-4.475837849901668"><ele>848.0</ele><time>2026-04-30T09:50:24.999Z</time></trkpt><trkpt lat="31.52992787336715" lon="-4.475664838014848"><ele>848.0</ele><time>2026-04-30T09:50:25.999Z</time></trkpt><trkpt lat="31.52987675708396" lon="-4.4754956012865055"><ele>848.0</ele><time>2026-04-30T09:50:26.999Z</time></trkpt><trkpt lat="31.529825889089437" lon="-4.4753271177892335"><ele>848.0</ele><time>2026-04-30T09:50:27.999Z</time></trkpt><trkpt lat="31.529778345523805" lon="-4.475160763068465"><ele>848.0</ele><time>2026-04-30T09:50:28.999Z</time></trkpt><trkpt lat="31.529734430176592" lon="-4.474993991269868"><ele>848.0</ele><time>2026-04-30T09:50:29.999Z</time></trkpt><trkpt lat="31.529691065819218" lon="-4.47483019766639"><ele>848.0</ele><time>2026-04-30T09:50:30.999Z</time></trkpt><trkpt lat="31.529644979961258" lon="-4.474669454929673"><ele>848.0</ele><time>2026-04-30T09:50:31.999Z</time></trkpt><trkpt lat="31.529599256784" lon="-4.47450612879726"><ele>848.0</ele><time>2026-04-30T09:50:32.999Z</time></trkpt><trkpt lat="31.529555688500174" lon="-4.474345623398331"><ele>848.25</ele><time>2026-04-30T09:50:33.999Z</time></trkpt><trkpt lat="31.52951436599461" lon="-4.4741886311735"><ele>848.5</ele><time>2026-04-30T09:50:34.999Z</time></trkpt><trkpt lat="31.529469292868086" lon="-4.474033709120114"><ele>848.75</ele><time>2026-04-30T09:50:35.999Z</time></trkpt><trkpt lat="31.52942342535608" lon="-4.473876280322711"><ele>849.0</ele><time>2026-04-30T09:50:36.999Z</time></trkpt><trkpt lat="31.529377514166875" lon="-4.473712478578611"><ele>848.0</ele><time>2026-04-30T09:50:37.999Z</time></trkpt><trkpt lat="31.529333066773642" lon="-4.473544142402013"><ele>847.0</ele><time>2026-04-30T09:50:38.999Z</time></trkpt><trkpt lat="31.529287205784893" lon="-4.4733724182700465"><ele>846.0</ele><time>2026-04-30T09:50:39.999Z</time></trkpt><trkpt lat="31.52923912278374" lon="-4.473207756763837"><ele>846.0</ele><time>2026-04-30T09:50:40.999Z</time></trkpt><trkpt lat="31.5291899433348" lon="-4.473038193437872"><ele>846.0</ele><time>2026-04-30T09:50:41.999Z</time></trkpt><trkpt lat="31.529140507512942" lon="-4.472866641447281"><ele>846.0</ele><time>2026-04-30T09:50:42.999Z</time></trkpt><trkpt lat="31.529089818192624" lon="-4.472692833935312"><ele>845.3333333333333</ele><time>2026-04-30T09:50:43.999Z</time></trkpt><trkpt lat="31.529038727627693" lon="-4.472515117806919"><ele>844.6666666666666</ele><time>2026-04-30T09:50:44.999Z</time></trkpt><trkpt lat="31.528987786704864" lon="-4.472334912344452"><ele>844.0</ele><time>2026-04-30T09:50:45.999Z</time></trkpt><trkpt lat="31.528938247103167" lon="-4.47215046760488"><ele>844.0</ele><time>2026-04-30T09:50:46.999Z</time></trkpt><trkpt lat="31.52888817122108" lon="-4.471964607778496"><ele>844.0</ele><time>2026-04-30T09:50:47.999Z</time></trkpt><trkpt lat="31.528840513587348" lon="-4.4717823200334905"><ele>844.0</ele><time>2026-04-30T09:50:48.999Z</time></trkpt><trkpt lat="31.528787987972823" lon="-4.471599150870146"><ele>844.0</ele><time>2026-04-30T09:50:49.999Z</time></trkpt><trkpt lat="31.528735007732337" lon="-4.4714123794936675"><ele>844.0</ele><time>2026-04-30T09:50:50.999Z</time></trkpt><trkpt lat="31.52868204059704" lon="-4.471227341106287"><ele>844.0</ele><time>2026-04-30T09:50:51.999Z</time></trkpt><trkpt lat="31.528634121326213" lon="-4.471047508584224"><ele>843.3333333333333</ele><time>2026-04-30T09:50:52.999Z</time></trkpt><trkpt lat="31.528574034406244" lon="-4.470861797227444"><ele>842.6666666666667</ele><time>2026-04-30T09:50:53.999Z</time></trkpt><trkpt lat="31.528505824302222" lon="-4.470673295852005"><ele>842.0</ele><time>2026-04-30T09:50:54.999Z</time></trkpt><trkpt lat="31.52846668066069" lon="-4.470496035511161"><ele>841.3333333333334</ele><time>2026-04-30T09:50:55.999Z</time></trkpt><trkpt lat="31.528411781328664" lon="-4.470307379887027"><ele>840.6666666666667</ele><time>2026-04-30T09:50:56.999Z</time></trkpt><trkpt lat="31.528360937139034" lon="-4.470120504443259"><ele>840.0</ele><time>2026-04-30T09:50:57.999Z</time></trkpt><trkpt lat="31.528312156670715" lon="-4.469929225639865"><ele>840.0</ele><time>2026-04-30T09:50:58.999Z</time></trkpt><trkpt lat="31.52825973060092" lon="-4.469738629947512"><ele>840.0</ele><time>2026-04-30T09:50:59.999Z</time></trkpt><trkpt lat="31.528208126926202" lon="-4.46955138419372"><ele>840.0</ele><time>2026-04-30T09:51:00.999Z</time></trkpt><trkpt lat="31.528158408138577" lon="-4.469364752288437"><ele>839.3333333333333</ele><time>2026-04-30T09:51:01.999Z</time></trkpt><trkpt lat="31.52810787654012" lon="-4.469182471965728"><ele>838.6666666666666</ele><time>2026-04-30T09:51:02.999Z</time></trkpt><trkpt lat="31.528019697516875" lon="-4.469015956770225"><ele>838.0</ele><time>2026-04-30T09:51:03.999Z</time></trkpt><trkpt lat="31.52796956247752" lon="-4.468835764237737"><ele>838.3333333333333</ele><time>2026-04-30T09:51:04.999Z</time></trkpt><trkpt lat="31.527920106332683" lon="-4.468658011755573"><ele>838.6666666666667</ele><time>2026-04-30T09:51:05.999Z</time></trkpt><trkpt lat="31.527872941111557" lon="-4.4684884931574365"><ele>839.0</ele><time>2026-04-30T09:51:06.999Z</time></trkpt><trkpt lat="31.527827571714855" lon="-4.468325429041673"><ele>839.5</ele><time>2026-04-30T09:51:07.999Z</time></trkpt><trkpt lat="31.52778492208698" lon="-4.468172694287311"><ele>840.0</ele><time>2026-04-30T09:51:08.999Z</time></trkpt><trkpt lat="31.527744455882406" lon="-4.468028314925289"><ele>840.5</ele><time>2026-04-30T09:51:09.999Z</time></trkpt><trkpt lat="31.52770761871917" lon="-4.467897619976939"><ele>841.0</ele><time>2026-04-30T09:51:10.999Z</time></trkpt><trkpt lat="31.52767222619504" lon="-4.467774132861598"><ele>841.0</ele><time>2026-04-30T09:51:11.999Z</time></trkpt><trkpt lat="31.52763721084811" lon="-4.467651961753802"><ele>841.0</ele><time>2026-04-30T09:51:12.999Z</time></trkpt><trkpt lat="31.527600249385515" lon="-4.467521648706509"><ele>841.0</ele><time>2026-04-30T09:51:13.999Z</time></trkpt><trkpt lat="31.52756243712264" lon="-4.467389415283607"><ele>841.0</ele><time>2026-04-30T09:51:14.999Z</time></trkpt><trkpt lat="31.527522279052846" lon="-4.467245537445069"><ele>840.5</ele><time>2026-04-30T09:51:15.999Z</time></trkpt><trkpt lat="31.527484254857384" lon="-4.467105280037727"><ele>840.0</ele><time>2026-04-30T09:51:16.999Z</time></trkpt><trkpt lat="31.52744822080979" lon="-4.466972450780215"><ele>839.5</ele><time>2026-04-30T09:51:17.999Z</time></trkpt><trkpt lat="31.52741285270895" lon="-4.466842377553688"><ele>839.0</ele><time>2026-04-30T09:51:18.999Z</time></trkpt><trkpt lat="31.527377278556767" lon="-4.466711546528193"><ele>839.0</ele><time>2026-04-30T09:51:19.999Z</time></trkpt><trkpt lat="31.527341643801698" lon="-4.466580492628992"><ele>839.0</ele><time>2026-04-30T09:51:20.999Z</time></trkpt><trkpt lat="31.527304981799116" lon="-4.46644680279505"><ele>839.0</ele><time>2026-04-30T09:51:21.999Z</time></trkpt><trkpt lat="31.52726723500619" lon="-4.46630975344543"><ele>839.0</ele><time>2026-04-30T09:51:22.999Z</time></trkpt><trkpt lat="31.527228950518474" lon="-4.4661707518558025"><ele>839.0</ele><time>2026-04-30T09:51:23.999Z</time></trkpt><trkpt lat="31.527190370148254" lon="-4.4660304414558025"><ele>839.0</ele><time>2026-04-30T09:51:24.999Z</time></trkpt><trkpt lat="31.52714897624778" lon="-4.465893615523189"><ele>839.0</ele><time>2026-04-30T09:51:25.999Z</time></trkpt><trkpt lat="31.527095239666803" lon="-4.465763812950776"><ele>839.0</ele><time>2026-04-30T09:51:26.999Z</time></trkpt><trkpt lat="31.52701709958242" lon="-4.46565308688707"><ele>839.0</ele><time>2026-04-30T09:51:27.999Z</time></trkpt><trkpt lat="31.526940307945146" lon="-4.4655309492860535"><ele>839.0</ele><time>2026-04-30T09:51:28.999Z</time></trkpt><trkpt lat="31.526862011287385" lon="-4.465407212568384"><ele>839.0</ele><time>2026-04-30T09:51:29.999Z</time></trkpt><trkpt lat="31.526784529524782" lon="-4.465283740455185"><ele>839.0</ele><time>2026-04-30T09:51:30.999Z</time></trkpt><trkpt lat="31.526692974827697" lon="-4.465175979214252"><ele>839.5</ele><time>2026-04-30T09:51:31.999Z</time></trkpt><trkpt lat="31.526599566292834" lon="-4.465066398205832"><ele>840.0</ele><time>2026-04-30T09:51:32.999Z</time></trkpt><trkpt lat="31.52650595139122" lon="-4.464949670608905"><ele>840.5</ele><time>2026-04-30T09:51:33.999Z</time></trkpt><trkpt lat="31.526414907974164" lon="-4.464830284211383"><ele>841.0</ele><time>2026-04-30T09:51:34.999Z</time></trkpt><trkpt lat="31.526323045017318" lon="-4.464709956178823"><ele>840.0</ele><time>2026-04-30T09:51:35.999Z</time></trkpt><trkpt lat="31.526232074410657" lon="-4.4645895212777065"><ele>839.0</ele><time>2026-04-30T09:51:36.999Z</time></trkpt><trkpt lat="31.526141048908446" lon="-4.464466140301516"><ele>838.0</ele><time>2026-04-30T09:51:37.999Z</time></trkpt><trkpt lat="31.526059685870372" lon="-4.464331637730486"><ele>837.0</ele><time>2026-04-30T09:51:38.999Z</time></trkpt><trkpt lat="31.52596708559092" lon="-4.464206403743332"><ele>837.0</ele><time>2026-04-30T09:51:39.999Z</time></trkpt><trkpt lat="31.52588240938432" lon="-4.464073789176739"><ele>837.0</ele><time>2026-04-30T09:51:40.999Z</time></trkpt><trkpt lat="31.525776798688483" lon="-4.463960283641709"><ele>837.0</ele><time>2026-04-30T09:51:41.999Z</time></trkpt><trkpt lat="31.525712457467613" lon="-4.463802461479631"><ele>837.0</ele><time>2026-04-30T09:51:42.999Z</time></trkpt><trkpt lat="31.525644578057133" lon="-4.46365321531217"><ele>837.0</ele><time>2026-04-30T09:51:43.999Z</time></trkpt><trkpt lat="31.525582373020292" lon="-4.463500945151802"><ele>837.0</ele><time>2026-04-30T09:51:44.999Z</time></trkpt><trkpt lat="31.52552152632587" lon="-4.4633483136775896"><ele>837.0</ele><time>2026-04-30T09:51:45.999Z</time></trkpt><trkpt lat="31.52545946824869" lon="-4.463199651989202"><ele>837.0</ele><time>2026-04-30T09:51:46.999Z</time></trkpt><trkpt lat="31.525385710220522" lon="-4.463055989537576"><ele>837.25</ele><time>2026-04-30T09:51:47.999Z</time></trkpt><trkpt lat="31.52532376487318" lon="-4.462900328526061"><ele>837.5</ele><time>2026-04-30T09:51:48.999Z</time></trkpt><trkpt lat="31.52526995114596" lon="-4.462745271664602"><ele>837.75</ele><time>2026-04-30T09:51:49.999Z</time></trkpt><trkpt lat="31.525216817901086" lon="-4.462591739853197"><ele>838.0</ele><time>2026-04-30T09:51:50.999Z</time></trkpt><trkpt lat="31.525163922965596" lon="-4.462438015960784"><ele>838.0</ele><time>2026-04-30T09:51:51.999Z</time></trkpt><trkpt lat="31.52511544650918" lon="-4.462281543949661"><ele>838.0</ele><time>2026-04-30T09:51:52.999Z</time></trkpt><trkpt lat="31.525068245571152" lon="-4.462124817982171"><ele>838.0</ele><time>2026-04-30T09:51:53.999Z</time></trkpt><trkpt lat="31.525018291735318" lon="-4.461966696624096"><ele>838.0</ele><time>2026-04-30T09:51:54.999Z</time></trkpt><trkpt lat="31.52497443775527" lon="-4.461805148147991"><ele>838.25</ele><time>2026-04-30T09:51:55.999Z</time></trkpt><trkpt lat="31.524930896791" lon="-4.461643541961804"><ele>838.5</ele><time>2026-04-30T09:51:56.999Z</time></trkpt><trkpt lat="31.5248905225223" lon="-4.461481979736476"><ele>838.75</ele><time>2026-04-30T09:51:57.999Z</time></trkpt><trkpt lat="31.524851714413217" lon="-4.461318202895571"><ele>839.0</ele><time>2026-04-30T09:51:58.999Z</time></trkpt><trkpt lat="31.52481337981424" lon="-4.461157823880686"><ele>839.5</ele><time>2026-04-30T09:51:59.999Z</time></trkpt><trkpt lat="31.52477502529138" lon="-4.460998444612727"><ele>840.0</ele><time>2026-04-30T09:52:00.999Z</time></trkpt><trkpt lat="31.524736454780765" lon="-4.46083923959753"><ele>840.5</ele><time>2026-04-30T09:52:02Z</time></trkpt><trkpt lat="31.52469899558934" lon="-4.460681343311787"><ele>841.0</ele><time>2026-04-30T09:52:03Z</time></trkpt><trkpt lat="31.52466331649098" lon="-4.460534513286199"><ele>840.25</ele><time>2026-04-30T09:52:04Z</time></trkpt><trkpt lat="31.524628508832027" lon="-4.460392011481797"><ele>839.5</ele><time>2026-04-30T09:52:05Z</time></trkpt><trkpt lat="31.52458963660779" lon="-4.460248549803061"><ele>838.75</ele><time>2026-04-30T09:52:06Z</time></trkpt><trkpt lat="31.52455055080847" lon="-4.460099805802931"><ele>838.0</ele><time>2026-04-30T09:52:07Z</time></trkpt><trkpt lat="31.52451113009986" lon="-4.459949193146002"><ele>838.0</ele><time>2026-04-30T09:52:08Z</time></trkpt><trkpt lat="31.524471258161757" lon="-4.459796856490248"><ele>838.0</ele><time>2026-04-30T09:52:09Z</time></trkpt><trkpt lat="31.52443132223561" lon="-4.459643377715062"><ele>838.0</ele><time>2026-04-30T09:52:10Z</time></trkpt><trkpt lat="31.524391799309804" lon="-4.459489151835367"><ele>838.0</ele><time>2026-04-30T09:52:11Z</time></trkpt><trkpt lat="31.52435237412706" lon="-4.459331089407207"><ele>837.0</ele><time>2026-04-30T09:52:12Z</time></trkpt><trkpt lat="31.5243151552697" lon="-4.45917297525276"><ele>836.0</ele><time>2026-04-30T09:52:13Z</time></trkpt><trkpt lat="31.52427830747349" lon="-4.459016630365423"><ele>835.0</ele><time>2026-04-30T09:52:14Z</time></trkpt><trkpt lat="31.52424000759049" lon="-4.4588584776516305"><ele>834.0</ele><time>2026-04-30T09:52:15Z</time></trkpt><trkpt lat="31.52420145724106" lon="-4.458702343259887"><ele>834.0</ele><time>2026-04-30T09:52:16Z</time></trkpt><trkpt lat="31.524169367099024" lon="-4.458544287699051"><ele>834.0</ele><time>2026-04-30T09:52:17Z</time></trkpt><trkpt lat="31.524131519353016" lon="-4.458388957392619"><ele>834.0</ele><time>2026-04-30T09:52:18Z</time></trkpt><trkpt lat="31.52409387676632" lon="-4.458235931497563"><ele>834.0</ele><time>2026-04-30T09:52:19Z</time></trkpt><trkpt lat="31.52405754020197" lon="-4.458087107920937"><ele>834.5</ele><time>2026-04-30T09:52:20Z</time></trkpt><trkpt lat="31.524023244549525" lon="-4.4579452561522"><ele>835.0</ele><time>2026-04-30T09:52:21Z</time></trkpt><trkpt lat="31.523992883036303" lon="-4.457807527111309"><ele>835.5</ele><time>2026-04-30T09:52:22Z</time></trkpt><trkpt lat="31.52396069141262" lon="-4.457659956939525"><ele>836.0</ele><time>2026-04-30T09:52:23Z</time></trkpt><trkpt lat="31.523928371556213" lon="-4.457511163580807"><ele>836.0</ele><time>2026-04-30T09:52:24Z</time></trkpt><trkpt lat="31.523895664518854" lon="-4.457361545303736"><ele>836.0</ele><time>2026-04-30T09:52:25Z</time></trkpt><trkpt lat="31.523865456052004" lon="-4.457207653105922"><ele>836.0</ele><time>2026-04-30T09:52:26Z</time></trkpt><trkpt lat="31.523833211695226" lon="-4.457054385341915"><ele>836.0</ele><time>2026-04-30T09:52:27Z</time></trkpt><trkpt lat="31.523797957015613" lon="-4.4568958127103375"><ele>836.0</ele><time>2026-04-30T09:52:28Z</time></trkpt><trkpt lat="31.52376239814536" lon="-4.456736298398717"><ele>836.0</ele><time>2026-04-30T09:52:29Z</time></trkpt><trkpt lat="31.52373030058958" lon="-4.456572432948176"><ele>836.0</ele><time>2026-04-30T09:52:30Z</time></trkpt><trkpt lat="31.52369821643234" lon="-4.456406796016407"><ele>836.0</ele><time>2026-04-30T09:52:31Z</time></trkpt><trkpt lat="31.523667106554605" lon="-4.456238001140711"><ele>836.0</ele><time>2026-04-30T09:52:32Z</time></trkpt><trkpt lat="31.523629675033632" lon="-4.456063943024264"><ele>836.0</ele><time>2026-04-30T09:52:33Z</time></trkpt><trkpt lat="31.523591482397617" lon="-4.4558780311079165"><ele>836.0</ele><time>2026-04-30T09:52:34Z</time></trkpt><trkpt lat="31.523552025808495" lon="-4.455686899166888"><ele>836.0</ele><time>2026-04-30T09:52:35Z</time></trkpt><trkpt lat="31.52351080840726" lon="-4.455495515474101"><ele>836.0</ele><time>2026-04-30T09:52:36Z</time></trkpt><trkpt lat="31.523468133108604" lon="-4.45529754165621"><ele>836.0</ele><time>2026-04-30T09:52:37Z</time></trkpt><trkpt lat="31.52342462880589" lon="-4.455095783527775"><ele>836.0</ele><time>2026-04-30T09:52:38Z</time></trkpt><trkpt lat="31.52338089592265" lon="-4.45489429575221"><ele>836.0</ele><time>2026-04-30T09:52:39Z</time></trkpt><trkpt lat="31.523336615011118" lon="-4.454689496519054"><ele>836.0</ele><time>2026-04-30T09:52:40Z</time></trkpt><trkpt lat="31.523292275674393" lon="-4.454483473513066"><ele>836.0</ele><time>2026-04-30T09:52:41Z</time></trkpt><trkpt lat="31.523245498866526" lon="-4.45426612477599"><ele>836.0</ele><time>2026-04-30T09:52:42Z</time></trkpt><trkpt lat="31.523197784973224" lon="-4.454044421903889"><ele>836.0</ele><time>2026-04-30T09:52:43Z</time></trkpt><trkpt lat="31.52315058484547" lon="-4.453826067820172"><ele>835.6666666666667</ele><time>2026-04-30T09:52:44Z</time></trkpt><trkpt lat="31.523100595236308" lon="-4.453611937129003"><ele>835.3333333333333</ele><time>2026-04-30T09:52:45Z</time></trkpt><trkpt lat="31.523045748801866" lon="-4.453398307866188"><ele>835.0</ele><time>2026-04-30T09:52:46Z</time></trkpt><trkpt lat="31.52298926483042" lon="-4.453178300308497"><ele>835.0</ele><time>2026-04-30T09:52:47Z</time></trkpt><trkpt lat="31.522931051788586" lon="-4.452954211453259"><ele>835.0</ele><time>2026-04-30T09:52:48Z</time></trkpt><trkpt lat="31.522873167979274" lon="-4.452728527180666"><ele>835.0</ele><time>2026-04-30T09:52:49Z</time></trkpt><trkpt lat="31.522816088851428" lon="-4.4525050774282455"><ele>835.0</ele><time>2026-04-30T09:52:50Z</time></trkpt><trkpt lat="31.522757593159877" lon="-4.4522794716905665"><ele>835.0</ele><time>2026-04-30T09:52:51Z</time></trkpt><trkpt lat="31.522700016778394" lon="-4.452058402522351"><ele>835.0</ele><time>2026-04-30T09:52:52Z</time></trkpt><trkpt lat="31.522642319735503" lon="-4.451837658707113"><ele>835.0</ele><time>2026-04-30T09:52:53Z</time></trkpt><trkpt lat="31.522584434970916" lon="-4.451617400228726"><ele>835.0</ele><time>2026-04-30T09:52:54Z</time></trkpt><trkpt lat="31.522526430705934" lon="-4.451397347938845"><ele>835.0</ele><time>2026-04-30T09:52:55Z</time></trkpt><trkpt lat="31.522477897921004" lon="-4.451169706588638"><ele>835.0</ele><time>2026-04-30T09:52:56Z</time></trkpt><trkpt lat="31.522427144768056" lon="-4.450942963940719"><ele>835.0</ele><time>2026-04-30T09:52:57Z</time></trkpt><trkpt lat="31.52237544659699" lon="-4.4507108246280795"><ele>835.0</ele><time>2026-04-30T09:52:58Z</time></trkpt><trkpt lat="31.522323530152498" lon="-4.450479312401356"><ele>835.3333333333333</ele><time>2026-04-30T09:52:59Z</time></trkpt><trkpt lat="31.52227098899467" lon="-4.450241841124563"><ele>835.6666666666667</ele><time>2026-04-30T09:53:00Z</time></trkpt><trkpt lat="31.522222790637485" lon="-4.4499985352685565"><ele>836.0</ele><time>2026-04-30T09:53:01Z</time></trkpt><trkpt lat="31.522182832672794" lon="-4.449758513576738"><ele>836.0</ele><time>2026-04-30T09:53:02Z</time></trkpt><trkpt lat="31.52215075111602" lon="-4.449508296171775"><ele>836.0</ele><time>2026-04-30T09:53:03Z</time></trkpt><trkpt lat="31.52212510021188" lon="-4.449259899056954"><ele>836.0</ele><time>2026-04-30T09:53:04Z</time></trkpt><trkpt lat="31.52209992534175" lon="-4.449014702395967"><ele>836.0</ele><time>2026-04-30T09:53:05Z</time></trkpt><trkpt lat="31.52207783317977" lon="-4.448774172946722"><ele>836.0</ele><time>2026-04-30T09:53:06Z</time></trkpt><trkpt lat="31.522064804352294" lon="-4.448542999998187"><ele>836.0</ele><time>2026-04-30T09:53:07Z</time></trkpt><trkpt lat="31.522042854283207" lon="-4.448315493875343"><ele>836.3333333333334</ele><time>2026-04-30T09:53:08Z</time></trkpt><trkpt lat="31.5220030990204" lon="-4.448098615642097"><ele>836.6666666666667</ele><time>2026-04-30T09:53:09Z</time></trkpt><trkpt lat="31.521963363117536" lon="-4.447875010927569"><ele>837.0</ele><time>2026-04-30T09:53:10Z</time></trkpt><trkpt lat="31.521895662039164" lon="-4.447666173795754"><ele>836.0</ele><time>2026-04-30T09:53:11Z</time></trkpt><trkpt lat="31.52180880477434" lon="-4.44747103446193"><ele>835.0</ele><time>2026-04-30T09:53:11.999Z</time></trkpt><trkpt lat="31.521693319299825" lon="-4.447296688466053"><ele>834.0</ele><time>2026-04-30T09:53:12.999Z</time></trkpt><trkpt lat="31.5215558872708" lon="-4.447128368593866"><ele>833.6666666666667</ele><time>2026-04-30T09:53:13.999Z</time></trkpt><trkpt lat="31.521405949881594" lon="-4.446959023331627"><ele>833.3333333333334</ele><time>2026-04-30T09:53:14.999Z</time></trkpt><trkpt lat="31.521250142218047" lon="-4.446786241949016"><ele>833.0</ele><time>2026-04-30T09:53:15.999Z</time></trkpt><trkpt lat="31.521090508625925" lon="-4.446608283669781"><ele>833.0</ele><time>2026-04-30T09:53:16.999Z</time></trkpt><trkpt lat="31.520927959625425" lon="-4.44642576060193"><ele>833.0</ele><time>2026-04-30T09:53:17.999Z</time></trkpt><trkpt lat="31.52076951893624" lon="-4.446241966399222"><ele>833.0</ele><time>2026-04-30T09:53:18.999Z</time></trkpt><trkpt lat="31.520611097750805" lon="-4.44605806481884"><ele>833.0</ele><time>2026-04-30T09:53:19.999Z</time></trkpt><trkpt lat="31.520455271352578" lon="-4.4458715741204555"><ele>833.0</ele><time>2026-04-30T09:53:20.999Z</time></trkpt><trkpt lat="31.52029546157117" lon="-4.445693781764428"><ele>833.0</ele><time>2026-04-30T09:53:21.999Z</time></trkpt><trkpt lat="31.520130799195126" lon="-4.445507710383737"><ele>833.5</ele><time>2026-04-30T09:53:22.999Z</time></trkpt><trkpt lat="31.519974651603665" lon="-4.445316169607209"><ele>834.0</ele><time>2026-04-30T09:53:23.999Z</time></trkpt><trkpt lat="31.519815390223723" lon="-4.445120354733534"><ele>834.0</ele><time>2026-04-30T09:53:24.999Z</time></trkpt><trkpt lat="31.519658181664013" lon="-4.444926702077178"><ele>834.0</ele><time>2026-04-30T09:53:25.999Z</time></trkpt><trkpt lat="31.519496950542287" lon="-4.444728000582185"><ele>833.0</ele><time>2026-04-30T09:53:26.999Z</time></trkpt><trkpt lat="31.519337258048438" lon="-4.444531258389604"><ele>832.0</ele><time>2026-04-30T09:53:27.999Z</time></trkpt><trkpt lat="31.51917901583395" lon="-4.444332022087102"><ele>832.0</ele><time>2026-04-30T09:53:28.999Z</time></trkpt><trkpt lat="31.519018744561173" lon="-4.44412804466393"><ele>832.0</ele><time>2026-04-30T09:53:29.999Z</time></trkpt><trkpt lat="31.518858731991394" lon="-4.443924940890342"><ele>832.5</ele><time>2026-04-30T09:53:30.999Z</time></trkpt><trkpt lat="31.518698178719962" lon="-4.44372161238953"><ele>833.0</ele><time>2026-04-30T09:53:31.999Z</time></trkpt><trkpt lat="31.518536514174183" lon="-4.443517064531854"><ele>833.0</ele><time>2026-04-30T09:53:32.999Z</time></trkpt><trkpt lat="31.518375459191333" lon="-4.4433131445963685"><ele>833.0</ele><time>2026-04-30T09:53:33.999Z</time></trkpt><trkpt lat="31.518215509068934" lon="-4.443108407333117"><ele>832.5</ele><time>2026-04-30T09:53:34.999Z</time></trkpt><trkpt lat="31.51805736841805" lon="-4.44289750854621"><ele>832.0</ele><time>2026-04-30T09:53:35.999Z</time></trkpt><trkpt lat="31.517899879483696" lon="-4.442686939634599"><ele>832.0</ele><time>2026-04-30T09:53:36.999Z</time></trkpt><trkpt lat="31.51774372805447" lon="-4.442478159082194"><ele>832.0</ele><time>2026-04-30T09:53:37.999Z</time></trkpt><trkpt lat="31.517584365471237" lon="-4.442265085081138"><ele>832.0</ele><time>2026-04-30T09:53:38.999Z</time></trkpt><trkpt lat="31.51743764615138" lon="-4.442043500022584"><ele>832.0</ele><time>2026-04-30T09:53:39.999Z</time></trkpt><trkpt lat="31.517264094194577" lon="-4.441850360377344"><ele>832.0</ele><time>2026-04-30T09:53:40.999Z</time></trkpt><trkpt lat="31.51709839745459" lon="-4.441646973814066"><ele>832.0</ele><time>2026-04-30T09:53:41.999Z</time></trkpt><trkpt lat="31.516933948881135" lon="-4.441442745040155"><ele>831.5</ele><time>2026-04-30T09:53:42.999Z</time></trkpt><trkpt lat="31.516768417905933" lon="-4.441240665662762"><ele>831.0</ele><time>2026-04-30T09:53:43.999Z</time></trkpt><trkpt lat="31.516602960334048" lon="-4.441036444364139"><ele>831.0</ele><time>2026-04-30T09:53:44.999Z</time></trkpt><trkpt lat="31.51643748396076" lon="-4.4408322516675"><ele>831.0</ele><time>2026-04-30T09:53:45.999Z</time></trkpt><trkpt lat="31.516282144271553" lon="-4.44061978732296"><ele>831.0</ele><time>2026-04-30T09:53:46.999Z</time></trkpt><trkpt lat="31.516115320002427" lon="-4.440429684089378"><ele>831.0</ele><time>2026-04-30T09:53:47.999Z</time></trkpt><trkpt lat="31.515947668612192" lon="-4.440252704273974"><ele>831.0</ele><time>2026-04-30T09:53:48.999Z</time></trkpt><trkpt lat="31.51578658060014" lon="-4.440069263164492"><ele>831.0</ele><time>2026-04-30T09:53:49.999Z</time></trkpt><trkpt lat="31.515609090653268" lon="-4.439904317892944"><ele>831.0</ele><time>2026-04-30T09:53:50.999Z</time></trkpt><trkpt lat="31.515436638156203" lon="-4.439740545475918"><ele>831.0</ele><time>2026-04-30T09:53:51.999Z</time></trkpt><trkpt lat="31.51526563588637" lon="-4.439582262449881"><ele>831.0</ele><time>2026-04-30T09:53:52.999Z</time></trkpt><trkpt lat="31.515093759547216" lon="-4.439429702179132"><ele>831.0</ele><time>2026-04-30T09:53:53.999Z</time></trkpt><trkpt lat="31.514925442822314" lon="-4.439283136827826"><ele>831.0</ele><time>2026-04-30T09:53:54.999Z</time></trkpt><trkpt lat="31.51475928135517" lon="-4.439137121620919"><ele>831.0</ele><time>2026-04-30T09:53:55.999Z</time></trkpt><trkpt lat="31.514596221162424" lon="-4.438991614227693"><ele>830.3333333333333</ele><time>2026-04-30T09:53:56.999Z</time></trkpt><trkpt lat="31.514431892049828" lon="-4.438849684702706"><ele>829.6666666666666</ele><time>2026-04-30T09:53:57.999Z</time></trkpt><trkpt lat="31.51427098708944" lon="-4.438710642899209"><ele>829.0</ele><time>2026-04-30T09:53:58.999Z</time></trkpt><trkpt lat="31.514112235577837" lon="-4.438569519575888"><ele>829.0</ele><time>2026-04-30T09:53:59.999Z</time></trkpt><trkpt lat="31.513952144254283" lon="-4.438423132147314"><ele>829.0</ele><time>2026-04-30T09:54:00.999Z</time></trkpt><trkpt lat="31.51379868031147" lon="-4.438274844951793"><ele>829.0</ele><time>2026-04-30T09:54:01.999Z</time></trkpt><trkpt lat="31.513648364574774" lon="-4.438121360408463"><ele>829.3333333333333</ele><time>2026-04-30T09:54:02.999Z</time></trkpt><trkpt lat="31.513482514473793" lon="-4.437989862550733"><ele>829.6666666666667</ele><time>2026-04-30T09:54:03.999Z</time></trkpt><trkpt lat="31.51334889500695" lon="-4.437810913763567"><ele>830.0</ele><time>2026-04-30T09:54:04.999Z</time></trkpt><trkpt lat="31.513199385408416" lon="-4.437653807988543"><ele>830.0</ele><time>2026-04-30T09:54:05.999Z</time></trkpt><trkpt lat="31.51305001014769" lon="-4.43749706135406"><ele>830.0</ele><time>2026-04-30T09:54:06.999Z</time></trkpt><trkpt lat="31.512904867356866" lon="-4.43734177655172"><ele>830.0</ele><time>2026-04-30T09:54:08Z</time></trkpt><trkpt lat="31.512770652294417" lon="-4.437184213048882"><ele>830.3333333333334</ele><time>2026-04-30T09:54:09Z</time></trkpt><trkpt lat="31.512650291345576" lon="-4.437033323716966"><ele>830.6666666666667</ele><time>2026-04-30T09:54:10Z</time></trkpt><trkpt lat="31.512552131190215" lon="-4.436902454580756"><ele>831.0</ele><time>2026-04-30T09:54:11Z</time></trkpt><trkpt lat="31.512462588499236" lon="-4.4367769165384505"><ele>831.0</ele><time>2026-04-30T09:54:12Z</time></trkpt><trkpt lat="31.512376495483206" lon="-4.436652172640645"><ele>831.0</ele><time>2026-04-30T09:54:13Z</time></trkpt><trkpt lat="31.512293842875597" lon="-4.436524759610894"><ele>831.0</ele><time>2026-04-30T09:54:14Z</time></trkpt><trkpt lat="31.51221186274135" lon="-4.436393223299031"><ele>831.0</ele><time>2026-04-30T09:54:15Z</time></trkpt><trkpt lat="31.512129989945784" lon="-4.436260108701448"><ele>831.0</ele><time>2026-04-30T09:54:16Z</time></trkpt><trkpt lat="31.51204983455203" lon="-4.436126931721678"><ele>831.0</ele><time>2026-04-30T09:54:17Z</time></trkpt><trkpt lat="31.511965358510935" lon="-4.43599698561195"><ele>831.0</ele><time>2026-04-30T09:54:18Z</time></trkpt><trkpt lat="31.511877903043413" lon="-4.435864982820319"><ele>831.0</ele><time>2026-04-30T09:54:19Z</time></trkpt><trkpt lat="31.511795801746963" lon="-4.435735337277305"><ele>831.0</ele><time>2026-04-30T09:54:20Z</time></trkpt><trkpt lat="31.51171775218836" lon="-4.435610137082892"><ele>831.0</ele><time>2026-04-30T09:54:21Z</time></trkpt><trkpt lat="31.511639195523472" lon="-4.4354790383552"><ele>831.0</ele><time>2026-04-30T09:54:22Z</time></trkpt><trkpt lat="31.511559989319757" lon="-4.435347378097474"><ele>831.0</ele><time>2026-04-30T09:54:23Z</time></trkpt><trkpt lat="31.51148323799382" lon="-4.435217903792234"><ele>830.5</ele><time>2026-04-30T09:54:24Z</time></trkpt><trkpt lat="31.51140342847679" lon="-4.43508536519033"><ele>830.0</ele><time>2026-04-30T09:54:25Z</time></trkpt><trkpt lat="31.511324916965396" lon="-4.434953580172751"><ele>829.5</ele><time>2026-04-30T09:54:26Z</time></trkpt><trkpt lat="31.511244932574638" lon="-4.434821595965849"><ele>829.0</ele><time>2026-04-30T09:54:27Z</time></trkpt><trkpt lat="31.51116219464559" lon="-4.4346865225774295"><ele>829.25</ele><time>2026-04-30T09:54:28Z</time></trkpt><trkpt lat="31.511077008439713" lon="-4.434551186541857"><ele>829.5</ele><time>2026-04-30T09:54:29Z</time></trkpt><trkpt lat="31.510990121364472" lon="-4.434411470056349"><ele>829.75</ele><time>2026-04-30T09:54:30Z</time></trkpt><trkpt lat="31.510903355168992" lon="-4.434268402160049"><ele>830.0</ele><time>2026-04-30T09:54:31Z</time></trkpt><trkpt lat="31.51082084914798" lon="-4.434127015961438"><ele>830.0</ele><time>2026-04-30T09:54:32Z</time></trkpt><trkpt lat="31.510737485154827" lon="-4.433985585915264"><ele>830.0</ele><time>2026-04-30T09:54:33Z</time></trkpt><trkpt lat="31.51065314898391" lon="-4.433844802155402"><ele>830.0</ele><time>2026-04-30T09:54:34Z</time></trkpt><trkpt lat="31.510564660215802" lon="-4.43371193334893"><ele>830.0</ele><time>2026-04-30T09:54:35Z</time></trkpt><trkpt lat="31.51047888339574" lon="-4.433577734954714"><ele>830.0</ele><time>2026-04-30T09:54:36Z</time></trkpt><trkpt lat="31.51039085233231" lon="-4.433436925677943"><ele>830.0</ele><time>2026-04-30T09:54:37Z</time></trkpt><trkpt lat="31.510308362723347" lon="-4.4332922414694735"><ele>830.0</ele><time>2026-04-30T09:54:38Z</time></trkpt><trkpt lat="31.51022419158368" lon="-4.433150888859619"><ele>830.0</ele><time>2026-04-30T09:54:39Z</time></trkpt><trkpt lat="31.510136675273937" lon="-4.433015726898143"><ele>829.5</ele><time>2026-04-30T09:54:40Z</time></trkpt><trkpt lat="31.510049010299994" lon="-4.432876583859399"><ele>829.0</ele><time>2026-04-30T09:54:41Z</time></trkpt><trkpt lat="31.509962453843247" lon="-4.432737533783616"><ele>828.5</ele><time>2026-04-30T09:54:42Z</time></trkpt><trkpt lat="31.50988101093125" lon="-4.432594543482308"><ele>828.0</ele><time>2026-04-30T09:54:43Z</time></trkpt><trkpt lat="31.509799025984933" lon="-4.43245255817763"><ele>828.0</ele><time>2026-04-30T09:54:44Z</time></trkpt><trkpt lat="31.509715123526064" lon="-4.432314357549766"><ele>828.0</ele><time>2026-04-30T09:54:45Z</time></trkpt><trkpt lat="31.509631225683613" lon="-4.432178969004065"><ele>828.0</ele><time>2026-04-30T09:54:46Z</time></trkpt><trkpt lat="31.509547458738382" lon="-4.432036675059886"><ele>828.0</ele><time>2026-04-30T09:54:47Z</time></trkpt><trkpt lat="31.50946313714809" lon="-4.43189737816396"><ele>827.75</ele><time>2026-04-30T09:54:48Z</time></trkpt><trkpt lat="31.50937729794228" lon="-4.431759437546978"><ele>827.5</ele><time>2026-04-30T09:54:49Z</time></trkpt><trkpt lat="31.509290716447808" lon="-4.4316202134528"><ele>827.25</ele><time>2026-04-30T09:54:50Z</time></trkpt><trkpt lat="31.509204153046166" lon="-4.431480977655067"><ele>827.0</ele><time>2026-04-30T09:54:51Z</time></trkpt><trkpt lat="31.50911904586821" lon="-4.431338924424745"><ele>827.75</ele><time>2026-04-30T09:54:52Z</time></trkpt><trkpt lat="31.509035658195355" lon="-4.4312000736774575"><ele>828.5</ele><time>2026-04-30T09:54:53Z</time></trkpt><trkpt lat="31.50895037278169" lon="-4.4310583717008925"><ele>829.25</ele><time>2026-04-30T09:54:54Z</time></trkpt><trkpt lat="31.508866166579146" lon="-4.430911295543167"><ele>830.0</ele><time>2026-04-30T09:54:55Z</time></trkpt><trkpt lat="31.508780775218174" lon="-4.4307708007387205"><ele>830.0</ele><time>2026-04-30T09:54:56Z</time></trkpt><trkpt lat="31.508698405666085" lon="-4.430638811786151"><ele>830.0</ele><time>2026-04-30T09:54:57Z</time></trkpt><trkpt lat="31.508621060402273" lon="-4.430513045773831"><ele>830.0</ele><time>2026-04-30T09:54:58Z</time></trkpt><trkpt lat="31.50854658589075" lon="-4.430385479495015"><ele>830.0</ele><time>2026-04-30T09:54:59Z</time></trkpt><trkpt lat="31.50847349990422" lon="-4.430259321706254"><ele>830.0</ele><time>2026-04-30T09:55:00Z</time></trkpt><trkpt lat="31.508396040694546" lon="-4.4301352014180315"><ele>830.0</ele><time>2026-04-30T09:55:01Z</time></trkpt><trkpt lat="31.50831859236651" lon="-4.430005442656714"><ele>830.0</ele><time>2026-04-30T09:55:02Z</time></trkpt><trkpt lat="31.508238284295768" lon="-4.429872411040802"><ele>830.0</ele><time>2026-04-30T09:55:03Z</time></trkpt><trkpt lat="31.50815414796956" lon="-4.429732740943072"><ele>829.6666666666667</ele><time>2026-04-30T09:55:04Z</time></trkpt><trkpt lat="31.50807101588543" lon="-4.429588325462987"><ele>829.3333333333333</ele><time>2026-04-30T09:55:05Z</time></trkpt><trkpt lat="31.507983811178633" lon="-4.429442477134562"><ele>829.0</ele><time>2026-04-30T09:55:06Z</time></trkpt><trkpt lat="31.507892425191354" lon="-4.429292567452822"><ele>828.3333333333333</ele><time>2026-04-30T09:55:07Z</time></trkpt><trkpt lat="31.507802008424065" lon="-4.4291464813069155"><ele>827.6666666666667</ele><time>2026-04-30T09:55:08Z</time></trkpt><trkpt lat="31.507710479532072" lon="-4.428993780021656"><ele>827.0</ele><time>2026-04-30T09:55:09Z</time></trkpt><trkpt lat="31.507622035824426" lon="-4.428844238515899"><ele>826.6666666666667</ele><time>2026-04-30T09:55:10Z</time></trkpt><trkpt lat="31.507529496077538" lon="-4.428690118216592"><ele>826.3333333333333</ele><time>2026-04-30T09:55:11Z</time></trkpt><trkpt lat="31.507435422675048" lon="-4.428534007794075"><ele>826.0</ele><time>2026-04-30T09:55:12Z</time></trkpt><trkpt lat="31.50734138721819" lon="-4.42837735602872"><ele>826.0</ele><time>2026-04-30T09:55:13Z</time></trkpt><trkpt lat="31.507246623763216" lon="-4.4282192977046835"><ele>826.0</ele><time>2026-04-30T09:55:14Z</time></trkpt><trkpt lat="31.507148303739914" lon="-4.42806076214224"><ele>826.0</ele><time>2026-04-30T09:55:15Z</time></trkpt><trkpt lat="31.507048983513517" lon="-4.427899491875691"><ele>826.0</ele><time>2026-04-30T09:55:16Z</time></trkpt><trkpt lat="31.50695474918234" lon="-4.427738711610333"><ele>826.0</ele><time>2026-04-30T09:55:17Z</time></trkpt><trkpt lat="31.506857318948708" lon="-4.42757472372001"><ele>826.0</ele><time>2026-04-30T09:55:18Z</time></trkpt><trkpt lat="31.506758645231024" lon="-4.427411891685705"><ele>826.0</ele><time>2026-04-30T09:55:19Z</time></trkpt><trkpt lat="31.50666445795466" lon="-4.4272527804049675"><ele>826.0</ele><time>2026-04-30T09:55:20Z</time></trkpt><trkpt lat="31.506574973861717" lon="-4.427100077443651"><ele>826.0</ele><time>2026-04-30T09:55:21Z</time></trkpt><trkpt lat="31.506482833093656" lon="-4.426949378582642"><ele>825.6666666666666</ele><time>2026-04-30T09:55:22Z</time></trkpt><trkpt lat="31.50639155173476" lon="-4.426802305246098"><ele>825.3333333333333</ele><time>2026-04-30T09:55:23Z</time></trkpt><trkpt lat="31.506306768111283" lon="-4.4266543054560366"><ele>825.0</ele><time>2026-04-30T09:55:24Z</time></trkpt><trkpt lat="31.506216500053892" lon="-4.426502183364284"><ele>825.3333333333333</ele><time>2026-04-30T09:55:25Z</time></trkpt><trkpt lat="31.506125573219705" lon="-4.426354048863074"><ele>825.6666666666666</ele><time>2026-04-30T09:55:26Z</time></trkpt><trkpt lat="31.506032958246696" lon="-4.426205400196591"><ele>826.0</ele><time>2026-04-30T09:55:27Z</time></trkpt><trkpt lat="31.505941342871292" lon="-4.426055596432997"><ele>826.0</ele><time>2026-04-30T09:55:28Z</time></trkpt><trkpt lat="31.5058489540276" lon="-4.425905947311817"><ele>826.0</ele><time>2026-04-30T09:55:29Z</time></trkpt><trkpt lat="31.50576077781346" lon="-4.425756134896432"><ele>826.0</ele><time>2026-04-30T09:55:30Z</time></trkpt><trkpt lat="31.5056684860777" lon="-4.425603367852189"><ele>826.0</ele><time>2026-04-30T09:55:31Z</time></trkpt><trkpt lat="31.50557716805512" lon="-4.4254532429792475"><ele>826.0</ele><time>2026-04-30T09:55:32Z</time></trkpt><trkpt lat="31.505487981420657" lon="-4.4253032296203125"><ele>826.0</ele><time>2026-04-30T09:55:33Z</time></trkpt><trkpt lat="31.505396169962946" lon="-4.425153303465853"><ele>826.0</ele><time>2026-04-30T09:55:34Z</time></trkpt><trkpt lat="31.505304819111267" lon="-4.425004462261557"><ele>826.0</ele><time>2026-04-30T09:55:35Z</time></trkpt><trkpt lat="31.505215026001984" lon="-4.424852340289066"><ele>826.0</ele><time>2026-04-30T09:55:36Z</time></trkpt><trkpt lat="31.5051221132141" lon="-4.424698526710416"><ele>826.0</ele><time>2026-04-30T09:55:37Z</time></trkpt><trkpt lat="31.505029223617434" lon="-4.42454411515967"><ele>826.0</ele><time>2026-04-30T09:55:38Z</time></trkpt><trkpt lat="31.504935973790932" lon="-4.424386382922207"><ele>826.0</ele><time>2026-04-30T09:55:39Z</time></trkpt><trkpt lat="31.504843581514038" lon="-4.424228986635834"><ele>826.0</ele><time>2026-04-30T09:55:40Z</time></trkpt><trkpt lat="31.504751497630362" lon="-4.424069225835251"><ele>826.0</ele><time>2026-04-30T09:55:41Z</time></trkpt><trkpt lat="31.504657503417754" lon="-4.423910065550641"><ele>826.0</ele><time>2026-04-30T09:55:42Z</time></trkpt><trkpt lat="31.504562996910188" lon="-4.423751182270253"><ele>826.3333333333333</ele><time>2026-04-30T09:55:43Z</time></trkpt><trkpt lat="31.50446982527281" lon="-4.423592819740037"><ele>826.6666666666667</ele><time>2026-04-30T09:55:44Z</time></trkpt><trkpt lat="31.504377515219748" lon="-4.423442424627368"><ele>827.0</ele><time>2026-04-30T09:55:45Z</time></trkpt><trkpt lat="31.504284423452617" lon="-4.4232954077418905"><ele>827.0</ele><time>2026-04-30T09:55:46Z</time></trkpt><trkpt lat="31.504176198412658" lon="-4.423161732192602"><ele>827.0</ele><time>2026-04-30T09:55:47Z</time></trkpt><trkpt lat="31.50409087424307" lon="-4.423005948792379"><ele>827.0</ele><time>2026-04-30T09:55:48Z</time></trkpt><trkpt lat="31.503989751833146" lon="-4.422860961046914"><ele>826.3333333333334</ele><time>2026-04-30T09:55:49Z</time></trkpt><trkpt lat="31.50388188086083" lon="-4.422722162475494"><ele>825.6666666666667</ele><time>2026-04-30T09:55:50Z</time></trkpt><trkpt lat="31.50376085655972" lon="-4.422584668927606"><ele>825.0</ele><time>2026-04-30T09:55:51Z</time></trkpt><trkpt lat="31.50363482166306" lon="-4.4224560916352536"><ele>825.0</ele><time>2026-04-30T09:55:52Z</time></trkpt><trkpt lat="31.50350780500213" lon="-4.422329275436736"><ele>825.0</ele><time>2026-04-30T09:55:53Z</time></trkpt><trkpt lat="31.503379767190502" lon="-4.422195223773897"><ele>825.0</ele><time>2026-04-30T09:55:54Z</time></trkpt><trkpt lat="31.50325256859927" lon="-4.422057962189024"><ele>825.0</ele><time>2026-04-30T09:55:55Z</time></trkpt><trkpt lat="31.50312466164957" lon="-4.42191727853159"><ele>825.0</ele><time>2026-04-30T09:55:56Z</time></trkpt><trkpt lat="31.502999503779883" lon="-4.4217720084555"><ele>825.0</ele><time>2026-04-30T09:55:57Z</time></trkpt><trkpt lat="31.50287546199803" lon="-4.421625872803666"><ele>825.3333333333333</ele><time>2026-04-30T09:55:58Z</time></trkpt><trkpt lat="31.50275559651909" lon="-4.4214745550174746"><ele>825.6666666666666</ele><time>2026-04-30T09:55:59Z</time></trkpt><trkpt lat="31.50264185871433" lon="-4.421318150937468"><ele>826.0</ele><time>2026-04-30T09:56:00Z</time></trkpt><trkpt lat="31.502529687506634" lon="-4.421156861838627"><ele>826.3333333333333</ele><time>2026-04-30T09:56:01Z</time></trkpt><trkpt lat="31.50242039393551" lon="-4.4209969456531555"><ele>826.6666666666667</ele><time>2026-04-30T09:56:02Z</time></trkpt><trkpt lat="31.50231323075457" lon="-4.420840619440307"><ele>827.0</ele><time>2026-04-30T09:56:03Z</time></trkpt><trkpt lat="31.5022033218697" lon="-4.420685593970391"><ele>826.6666666666667</ele><time>2026-04-30T09:56:04Z</time></trkpt><trkpt lat="31.50207907872923" lon="-4.420547247084686"><ele>826.3333333333333</ele><time>2026-04-30T09:56:05Z</time></trkpt><trkpt lat="31.50196694479847" lon="-4.420397037367726"><ele>826.0</ele><time>2026-04-30T09:56:06Z</time></trkpt><trkpt lat="31.501855544880826" lon="-4.420247262034913"><ele>827.0</ele><time>2026-04-30T09:56:07Z</time></trkpt><trkpt lat="31.50174282809332" lon="-4.42009664446922"><ele>828.0</ele><time>2026-04-30T09:56:08Z</time></trkpt><trkpt lat="31.501631731646174" lon="-4.419946054712063"><ele>829.0</ele><time>2026-04-30T09:56:09Z</time></trkpt><trkpt lat="31.501520547717124" lon="-4.419792436692195"><ele>828.0</ele><time>2026-04-30T09:56:10Z</time></trkpt><trkpt lat="31.501411270398172" lon="-4.419638251069308"><ele>827.0</ele><time>2026-04-30T09:56:11Z</time></trkpt><trkpt lat="31.501305906233817" lon="-4.419480522602699"><ele>826.0</ele><time>2026-04-30T09:56:11.999Z</time></trkpt><trkpt lat="31.501210975135375" lon="-4.419317532540124"><ele>826.0</ele><time>2026-04-30T09:56:12.999Z</time></trkpt><trkpt lat="31.501107304488215" lon="-4.419172377417937"><ele>826.0</ele><time>2026-04-30T09:56:14Z</time></trkpt><trkpt lat="31.501001384869603" lon="-4.419031549304961"><ele>826.0</ele><time>2026-04-30T09:56:15Z</time></trkpt><trkpt lat="31.50088801874472" lon="-4.418896308352644"><ele>826.0</ele><time>2026-04-30T09:56:16Z</time></trkpt><trkpt lat="31.50076220706333" lon="-4.418779740667607"><ele>826.0</ele><time>2026-04-30T09:56:17Z</time></trkpt><trkpt lat="31.500643355160506" lon="-4.418650942483866"><ele>826.0</ele><time>2026-04-30T09:56:18Z</time></trkpt><trkpt lat="31.50052856488139" lon="-4.418514080997815"><ele>826.0</ele><time>2026-04-30T09:56:19Z</time></trkpt><trkpt lat="31.500417028809046" lon="-4.418372476964555"><ele>826.0</ele><time>2026-04-30T09:56:20Z</time></trkpt><trkpt lat="31.500324374433468" lon="-4.4182169565805385"><ele>826.0</ele><time>2026-04-30T09:56:21Z</time></trkpt><trkpt lat="31.500209821588385" lon="-4.418081595699041"><ele>826.0</ele><time>2026-04-30T09:56:22Z</time></trkpt><trkpt lat="31.50008864554154" lon="-4.417959597881692"><ele>826.0</ele><time>2026-04-30T09:56:23Z</time></trkpt><trkpt lat="31.49995753442473" lon="-4.41784879842159"><ele>826.0</ele><time>2026-04-30T09:56:24Z</time></trkpt><trkpt lat="31.499823201751852" lon="-4.417745557252996"><ele>826.0</ele><time>2026-04-30T09:56:25Z</time></trkpt><trkpt lat="31.49969246374703" lon="-4.417647398118797"><ele>826.0</ele><time>2026-04-30T09:56:26Z</time></trkpt><trkpt lat="31.49955753321911" lon="-4.417539913083781"><ele>826.0</ele><time>2026-04-30T09:56:27Z</time></trkpt><trkpt lat="31.499430557338524" lon="-4.417427884282855"><ele>825.6666666666666</ele><time>2026-04-30T09:56:28Z</time></trkpt><trkpt lat="31.499303652310626" lon="-4.417309787008593"><ele>825.3333333333333</ele><time>2026-04-30T09:56:29Z</time></trkpt><trkpt lat="31.499175535456462" lon="-4.417191256103486"><ele>825.0</ele><time>2026-04-30T09:56:30Z</time></trkpt><trkpt lat="31.49905083018308" lon="-4.417069185289217"><ele>825.0</ele><time>2026-04-30T09:56:31Z</time></trkpt><trkpt lat="31.49892949866117" lon="-4.416938227865147"><ele>825.0</ele><time>2026-04-30T09:56:32Z</time></trkpt><trkpt lat="31.49882291382099" lon="-4.416786825978649"><ele>825.0</ele><time>2026-04-30T09:56:33Z</time></trkpt><trkpt lat="31.49872945825785" lon="-4.416622948387883"><ele>825.0</ele><time>2026-04-30T09:56:34Z</time></trkpt><trkpt lat="31.49864355571137" lon="-4.4164545623247955"><ele>825.0</ele><time>2026-04-30T09:56:35Z</time></trkpt><trkpt lat="31.49855434019978" lon="-4.416289286932109"><ele>825.0</ele><time>2026-04-30T09:56:36Z</time></trkpt><trkpt lat="31.498465255628588" lon="-4.4161312850363545"><ele>824.3333333333333</ele><time>2026-04-30T09:56:37Z</time></trkpt><trkpt lat="31.498376780729895" lon="-4.415975502701811"><ele>823.6666666666666</ele><time>2026-04-30T09:56:38Z</time></trkpt><trkpt lat="31.498288145089226" lon="-4.415821023146087"><ele>823.0</ele><time>2026-04-30T09:56:39Z</time></trkpt><trkpt lat="31.49820305126628" lon="-4.415678359576899"><ele>823.0</ele><time>2026-04-30T09:56:40Z</time></trkpt><trkpt lat="31.498121355705067" lon="-4.415543034717398"><ele>823.0</ele><time>2026-04-30T09:56:41Z</time></trkpt><trkpt lat="31.498043807970863" lon="-4.415415477172846"><ele>823.0</ele><time>2026-04-30T09:56:42Z</time></trkpt><trkpt lat="31.497965189301798" lon="-4.415291265501528"><ele>823.0</ele><time>2026-04-30T09:56:43Z</time></trkpt><trkpt lat="31.497886328257575" lon="-4.415164742328915"><ele>823.25</ele><time>2026-04-30T09:56:44Z</time></trkpt><trkpt lat="31.49780413835583" lon="-4.415038552158686"><ele>823.5</ele><time>2026-04-30T09:56:45Z</time></trkpt><trkpt lat="31.49771941445532" lon="-4.414915417051356"><ele>823.75</ele><time>2026-04-30T09:56:46Z</time></trkpt><trkpt lat="31.49763902502579" lon="-4.414787132759217"><ele>824.0</ele><time>2026-04-30T09:56:47Z</time></trkpt><trkpt lat="31.49757096958951" lon="-4.414650577487436"><ele>824.0</ele><time>2026-04-30T09:56:48Z</time></trkpt><trkpt lat="31.4975073556776" lon="-4.414507551333632"><ele>824.0</ele><time>2026-04-30T09:56:49Z</time></trkpt><trkpt lat="31.497441372007714" lon="-4.414367947152129"><ele>824.0</ele><time>2026-04-30T09:56:50Z</time></trkpt><trkpt lat="31.497378109207176" lon="-4.414223634206631"><ele>824.0</ele><time>2026-04-30T09:56:51Z</time></trkpt><trkpt lat="31.497325307308166" lon="-4.414073314055036"><ele>824.0</ele><time>2026-04-30T09:56:52Z</time></trkpt><trkpt lat="31.49728514597794" lon="-4.413920440181378"><ele>824.0</ele><time>2026-04-30T09:56:53Z</time></trkpt><trkpt lat="31.49725244921721" lon="-4.4137745427593575"><ele>824.0</ele><time>2026-04-30T09:56:54Z</time></trkpt><trkpt lat="31.497226155764434" lon="-4.4136275058014105"><ele>824.0</ele><time>2026-04-30T09:56:55Z</time></trkpt><trkpt lat="31.497207356088516" lon="-4.413484896440131"><ele>823.75</ele><time>2026-04-30T09:56:56Z</time></trkpt><trkpt lat="31.497194820526715" lon="-4.413332640874921"><ele>823.5</ele><time>2026-04-30T09:56:57Z</time></trkpt><trkpt lat="31.497190249857987" lon="-4.413179893026468"><ele>823.25</ele><time>2026-04-30T09:56:58Z</time></trkpt><trkpt lat="31.497187252443066" lon="-4.413027896954828"><ele>823.0</ele><time>2026-04-30T09:56:59Z</time></trkpt><trkpt lat="31.497184091892482" lon="-4.412874814362436"><ele>823.5</ele><time>2026-04-30T09:57:00Z</time></trkpt><trkpt lat="31.497181564760503" lon="-4.4127197824326005"><ele>824.0</ele><time>2026-04-30T09:57:01Z</time></trkpt><trkpt lat="31.497176786959503" lon="-4.412564352268548"><ele>824.5</ele><time>2026-04-30T09:57:02Z</time></trkpt><trkpt lat="31.497173360077895" lon="-4.4124061726464525"><ele>825.0</ele><time>2026-04-30T09:57:03Z</time></trkpt><trkpt lat="31.497167768280246" lon="-4.412246250016261"><ele>825.0</ele><time>2026-04-30T09:57:04Z</time></trkpt><trkpt lat="31.497157053053986" lon="-4.4120856903912244"><ele>825.0</ele><time>2026-04-30T09:57:05Z</time></trkpt><trkpt lat="31.497146415642444" lon="-4.411930586016519"><ele>825.0</ele><time>2026-04-30T09:57:06Z</time></trkpt><trkpt lat="31.49713305926048" lon="-4.411784424433729"><ele>825.0</ele><time>2026-04-30T09:57:07Z</time></trkpt><trkpt lat="31.497119902509986" lon="-4.411642972803399"><ele>825.0</ele><time>2026-04-30T09:57:08Z</time></trkpt><trkpt lat="31.49710150498146" lon="-4.411509623344392"><ele>825.0</ele><time>2026-04-30T09:57:09Z</time></trkpt><trkpt lat="31.497078022254783" lon="-4.411379053068964"><ele>825.0</ele><time>2026-04-30T09:57:10Z</time></trkpt><trkpt lat="31.497048051077563" lon="-4.411250997846301"><ele>825.0</ele><time>2026-04-30T09:57:11Z</time></trkpt><trkpt lat="31.49700377501693" lon="-4.4111244784951635"><ele>825.0</ele><time>2026-04-30T09:57:12Z</time></trkpt><trkpt lat="31.496941984133862" lon="-4.411006600116123"><ele>825.0</ele><time>2026-04-30T09:57:13Z</time></trkpt><trkpt lat="31.49687298049453" lon="-4.410892063734765"><ele>825.0</ele><time>2026-04-30T09:57:14Z</time></trkpt><trkpt lat="31.496802913814143" lon="-4.4107763413003624"><ele>825.0</ele><time>2026-04-30T09:57:15Z</time></trkpt><trkpt lat="31.496731292635552" lon="-4.410661186879402"><ele>825.0</ele><time>2026-04-30T09:57:16Z</time></trkpt><trkpt lat="31.496666222109898" lon="-4.410556506491874"><ele>825.0</ele><time>2026-04-30T09:57:17Z</time></trkpt><trkpt lat="31.496607026729553" lon="-4.410452537681442"><ele>825.0</ele><time>2026-04-30T09:57:18Z</time></trkpt><trkpt lat="31.496547359205188" lon="-4.410351933372082"><ele>825.0</ele><time>2026-04-30T09:57:19Z</time></trkpt><trkpt lat="31.496485720354233" lon="-4.410244622808715"><ele>825.0</ele><time>2026-04-30T09:57:20Z</time></trkpt><trkpt lat="31.49642238286301" lon="-4.4101327465713975"><ele>825.0</ele><time>2026-04-30T09:57:21Z</time></trkpt><trkpt lat="31.496357272059544" lon="-4.41001734510994"><ele>825.0</ele><time>2026-04-30T09:57:22Z</time></trkpt><trkpt lat="31.496290222778853" lon="-4.409899102136222"><ele>825.0</ele><time>2026-04-30T09:57:23Z</time></trkpt><trkpt lat="31.496216589375383" lon="-4.409778355671149"><ele>825.0</ele><time>2026-04-30T09:57:24Z</time></trkpt><trkpt lat="31.49613389628605" lon="-4.409663300478444"><ele>825.0</ele><time>2026-04-30T09:57:25Z</time></trkpt><trkpt lat="31.496092414854555" lon="-4.409554844884255"><ele>825.0</ele><time>2026-04-30T09:57:26Z</time></trkpt><trkpt lat="31.496014406289763" lon="-4.409443902247704"><ele>825.0</ele><time>2026-04-30T09:57:27Z</time></trkpt><trkpt lat="31.49595020614251" lon="-4.409329313084239"><ele>825.0</ele><time>2026-04-30T09:57:28Z</time></trkpt><trkpt lat="31.495884245723754" lon="-4.409212632003952"><ele>825.0</ele><time>2026-04-30T09:57:29Z</time></trkpt><trkpt lat="31.495820984107592" lon="-4.409094812117773"><ele>825.0</ele><time>2026-04-30T09:57:30Z</time></trkpt><trkpt lat="31.495753624701994" lon="-4.408981397194503"><ele>825.0</ele><time>2026-04-30T09:57:31Z</time></trkpt><trkpt lat="31.495686502789848" lon="-4.408867239877533"><ele>825.0</ele><time>2026-04-30T09:57:32Z</time></trkpt><trkpt lat="31.495624923384728" lon="-4.408756940168584"><ele>824.8</ele><time>2026-04-30T09:57:33Z</time></trkpt><trkpt lat="31.495568615008548" lon="-4.408652675076323"><ele>824.6</ele><time>2026-04-30T09:57:34Z</time></trkpt><trkpt lat="31.49551573757481" lon="-4.40854920756883"><ele>824.4000000000001</ele><time>2026-04-30T09:57:35Z</time></trkpt><trkpt lat="31.495466882497837" lon="-4.408455261772066"><ele>824.2</ele><time>2026-04-30T09:57:36Z</time></trkpt><trkpt lat="31.495414807346915" lon="-4.408361838384396"><ele>824.0</ele><time>2026-04-30T09:57:37Z</time></trkpt><trkpt lat="31.495359142549407" lon="-4.4082697674414755"><ele>824.0000000000001</ele><time>2026-04-30T09:57:38Z</time></trkpt><trkpt lat="31.495302217074038" lon="-4.408182506762417"><ele>824.0</ele><time>2026-04-30T09:57:39Z</time></trkpt><trkpt lat="31.49524371757311" lon="-4.4080983021820925"><ele>824.0</ele><time>2026-04-30T09:57:40Z</time></trkpt><trkpt lat="31.49518657933872" lon="-4.408020832029562"><ele>824.0</ele><time>2026-04-30T09:57:41Z</time></trkpt><trkpt lat="31.495126909456523" lon="-4.407958221851083"><ele>824.0000000000001</ele><time>2026-04-30T09:57:42Z</time></trkpt><trkpt lat="31.495067457614706" lon="-4.407909661779749"><ele>824.0</ele><time>2026-04-30T09:57:43Z</time></trkpt><trkpt lat="31.495009355009174" lon="-4.40786878983516"><ele>824.0000000000001</ele><time>2026-04-30T09:57:44Z</time></trkpt><trkpt lat="31.494937275133335" lon="-4.407839725512872"><ele>824.0</ele><time>2026-04-30T09:57:45Z</time></trkpt><trkpt lat="31.494852423290187" lon="-4.407825499235092"><ele>824.0</ele><time>2026-04-30T09:57:46Z</time></trkpt><trkpt lat="31.49477724393387" lon="-4.407822535433427"><ele>824.0</ele><time>2026-04-30T09:57:47Z</time></trkpt><trkpt lat="31.494675318806205" lon="-4.40781529446774"><ele>824.0000000000001</ele><time>2026-04-30T09:57:49Z</time></trkpt><trkpt lat="31.494605428149995" lon="-4.407809588143752"><ele>824.0</ele><time>2026-04-30T09:57:51Z</time></trkpt><trkpt lat="31.494518485253934" lon="-4.407803945675812"><ele>824.2</ele><time>2026-04-30T09:57:53Z</time></trkpt><trkpt lat="31.494454787846802" lon="-4.40779022017751"><ele>824.4000000000001</ele><time>2026-04-30T09:57:54Z</time></trkpt><trkpt lat="31.494348977020724" lon="-4.407769478380976"><ele>824.6</ele><time>2026-04-30T09:57:56Z</time></trkpt><trkpt lat="31.49425982268855" lon="-4.407761180261946"><ele>824.8</ele><time>2026-04-30T09:57:58Z</time></trkpt><trkpt lat="31.494259116468353" lon="-4.407927205658309"><ele>825.0</ele><time>2026-04-30T09:58:00Z</time></trkpt><trkpt lat="31.494270844976075" lon="-4.408016050856909"><ele>825.2</ele><time>2026-04-30T09:58:01Z</time></trkpt><trkpt lat="31.494284254585597" lon="-4.4081173185432085"><ele>825.4</ele><time>2026-04-30T09:58:02Z</time></trkpt><trkpt lat="31.49429825140608" lon="-4.408222614055033"><ele>825.5999999999999</ele><time>2026-04-30T09:58:03Z</time></trkpt><trkpt lat="31.49431293665418" lon="-4.408333088436422"><ele>825.8</ele><time>2026-04-30T09:58:04Z</time></trkpt><trkpt lat="31.49432724822954" lon="-4.408440751671257"><ele>826.0</ele><time>2026-04-30T09:58:04.999Z</time></trkpt><trkpt lat="31.49434106363207" lon="-4.408544933929347"><ele>825.9999999999999</ele><time>2026-04-30T09:58:05.999Z</time></trkpt><trkpt lat="31.494354179287484" lon="-4.408643924703319"><ele>826.0</ele><time>2026-04-30T09:58:06.999Z</time></trkpt><trkpt lat="31.49436730446717" lon="-4.40874298738072"><ele>826.0</ele><time>2026-04-30T09:58:07.999Z</time></trkpt><trkpt lat="31.494381000885266" lon="-4.408846361491459"><ele>826.0</ele><time>2026-04-30T09:58:08.999Z</time></trkpt><trkpt lat="31.494387522039442" lon="-4.40893800663639"><ele>825.9999999999999</ele><time>2026-04-30T09:58:09.999Z</time></trkpt><trkpt lat="31.49438957230378" lon="-4.409022990768177"><ele>826.0</ele><time>2026-04-30T09:58:10.999Z</time></trkpt><trkpt lat="31.49425846262416" lon="-4.409158661070517"><ele>825.8333333333333</ele><time>2026-04-30T09:58:12.999Z</time></trkpt><trkpt lat="31.494158038169132" lon="-4.409173039245135"><ele>825.6666666666666</ele><time>2026-04-30T09:58:13.999Z</time></trkpt><trkpt lat="31.494085065872202" lon="-4.409213007196738"><ele>825.5</ele><time>2026-04-30T09:58:15Z</time></trkpt><trkpt lat="31.494017889615723" lon="-4.409250032562444"><ele>825.3333333333333</ele><time>2026-04-30T09:58:16Z</time></trkpt><trkpt lat="31.493952578465557" lon="-4.409286392838281"><ele>825.1666666666666</ele><time>2026-04-30T09:58:17Z</time></trkpt><trkpt lat="31.493888727970358" lon="-4.409321939940506"><ele>825.0</ele><time>2026-04-30T09:58:18Z</time></trkpt><trkpt lat="31.493821580722965" lon="-4.409338344802087"><ele>825.0</ele><time>2026-04-30T09:58:19Z</time></trkpt><trkpt lat="31.49376397595774" lon="-4.4093762077408405"><ele>825.0</ele><time>2026-04-30T09:58:20.001Z</time></trkpt><trkpt lat="31.49370528312898" lon="-4.409408961206089"><ele>825.0</ele><time>2026-04-30T09:58:21.001Z</time></trkpt><trkpt lat="31.493647665942575" lon="-4.409440755250963"><ele>825.0</ele><time>2026-04-30T09:58:22.001Z</time></trkpt><trkpt lat="31.49359014111369" lon="-4.409479330585123"><ele>825.0</ele><time>2026-04-30T09:58:23.001Z</time></trkpt><trkpt lat="31.4935267233126" lon="-4.409521014784597"><ele>825.0</ele><time>2026-04-30T09:58:24.001Z</time></trkpt><trkpt lat="31.493454260737803" lon="-4.409562371764641"><ele>825.0</ele><time>2026-04-30T09:58:25.001Z</time></trkpt><trkpt lat="31.493383322846622" lon="-4.409606868201537"><ele>825.0</ele><time>2026-04-30T09:58:26.001Z</time></trkpt><trkpt lat="31.493310648598587" lon="-4.409648462053557"><ele>825.0</ele><time>2026-04-30T09:58:27.001Z</time></trkpt><trkpt lat="31.49323232761187" lon="-4.409693120350404"><ele>825.0</ele><time>2026-04-30T09:58:28.001Z</time></trkpt><trkpt lat="31.49314059700743" lon="-4.409749122528414"><ele>825.0</ele><time>2026-04-30T09:58:29.001Z</time></trkpt><trkpt lat="31.49303740100088" lon="-4.409815614792364"><ele>825.0</ele><time>2026-04-30T09:58:30.001Z</time></trkpt><trkpt lat="31.492926049128716" lon="-4.409889800926731"><ele>824.5</ele><time>2026-04-30T09:58:31.001Z</time></trkpt><trkpt lat="31.492813326754014" lon="-4.409961952135374"><ele>824.0</ele><time>2026-04-30T09:58:32.001Z</time></trkpt><trkpt lat="31.49269473648802" lon="-4.410033888529903"><ele>823.5</ele><time>2026-04-30T09:58:33.001Z</time></trkpt><trkpt lat="31.492563582291215" lon="-4.410104728240491"><ele>823.0</ele><time>2026-04-30T09:58:34.001Z</time></trkpt><trkpt lat="31.492426760483784" lon="-4.41017452029829"><ele>823.0</ele><time>2026-04-30T09:58:35.001Z</time></trkpt><trkpt lat="31.49229888986114" lon="-4.410270927812247"><ele>823.0</ele><time>2026-04-30T09:58:36.001Z</time></trkpt><trkpt lat="31.49215487440215" lon="-4.410342199594419"><ele>823.0</ele><time>2026-04-30T09:58:37.001Z</time></trkpt><trkpt lat="31.49200265051747" lon="-4.410382530644889"><ele>823.0</ele><time>2026-04-30T09:58:38.001Z</time></trkpt><trkpt lat="31.49186173209702" lon="-4.410440194780778"><ele>823.0</ele><time>2026-04-30T09:58:39.001Z</time></trkpt><trkpt lat="31.49172245691745" lon="-4.410492274857811"><ele>823.0</ele><time>2026-04-30T09:58:40.001Z</time></trkpt><trkpt lat="31.49158267743167" lon="-4.410539819297051"><ele>823.0</ele><time>2026-04-30T09:58:41.001Z</time></trkpt><trkpt lat="31.491442912742652" lon="-4.410581246019466"><ele>822.5</ele><time>2026-04-30T09:58:42.001Z</time></trkpt><trkpt lat="31.49130647053867" lon="-4.410624376110664"><ele>822.0</ele><time>2026-04-30T09:58:43.001Z</time></trkpt><trkpt lat="31.491176899666183" lon="-4.410664842368556"><ele>821.5</ele><time>2026-04-30T09:58:44.001Z</time></trkpt><trkpt lat="31.491057666667224" lon="-4.41070012681108"><ele>821.0</ele><time>2026-04-30T09:58:45.001Z</time></trkpt><trkpt lat="31.490948639851474" lon="-4.410727908287042"><ele>821.0</ele><time>2026-04-30T09:58:46.001Z</time></trkpt><trkpt lat="31.490848009451643" lon="-4.410760735049829"><ele>821.0</ele><time>2026-04-30T09:58:47.001Z</time></trkpt><trkpt lat="31.4907553909334" lon="-4.410784686057991"><ele>821.0</ele><time>2026-04-30T09:58:48.001Z</time></trkpt><trkpt lat="31.490675871080327" lon="-4.410805691445355"><ele>821.0</ele><time>2026-04-30T09:58:49.001Z</time></trkpt><trkpt lat="31.49060394366471" lon="-4.410821250648933"><ele>821.0</ele><time>2026-04-30T09:58:50.001Z</time></trkpt><trkpt lat="31.490501400789135" lon="-4.410843897041312"><ele>821.1999999999999</ele><time>2026-04-30T09:58:52.001Z</time></trkpt><trkpt lat="31.490400272689758" lon="-4.4108604213336156"><ele>821.4</ele><time>2026-04-30T09:59:06.001Z</time></trkpt><trkpt lat="31.490284747856588" lon="-4.410893242313084"><ele>821.6</ele><time>2026-04-30T09:59:08.001Z</time></trkpt><trkpt lat="31.490215992415283" lon="-4.410896915596523"><ele>821.8</ele><time>2026-04-30T09:59:09.001Z</time></trkpt><trkpt lat="31.490129385820985" lon="-4.410925826057635"><ele>822.0</ele><time>2026-04-30T09:59:10.001Z</time></trkpt><trkpt lat="31.490035953987356" lon="-4.41096336126853"><ele>822.0</ele><time>2026-04-30T09:59:11.001Z</time></trkpt><trkpt lat="31.48994903603699" lon="-4.410994395689503"><ele>822.0</ele><time>2026-04-30T09:59:12.001Z</time></trkpt><trkpt lat="31.489858322355474" lon="-4.411026558240128"><ele>822.0</ele><time>2026-04-30T09:59:13.001Z</time></trkpt><trkpt lat="31.489767669632208" lon="-4.41105678058553"><ele>822.0</ele><time>2026-04-30T09:59:14.001Z</time></trkpt><trkpt lat="31.489679130683168" lon="-4.411088444320792"><ele>822.0</ele><time>2026-04-30T09:59:15.001Z</time></trkpt><trkpt lat="31.489592572644746" lon="-4.411121980546004"><ele>822.2</ele><time>2026-04-30T09:59:16.001Z</time></trkpt><trkpt lat="31.489513298133883" lon="-4.411153896648547"><ele>822.4000000000001</ele><time>2026-04-30T09:59:17.001Z</time></trkpt><trkpt lat="31.48942869029305" lon="-4.411191325093859"><ele>822.5999999999999</ele><time>2026-04-30T09:59:18.001Z</time></trkpt><trkpt lat="31.48934027328098" lon="-4.411217264216017"><ele>822.8</ele><time>2026-04-30T09:59:19.001Z</time></trkpt><trkpt lat="31.489250414380354" lon="-4.411240417302844"><ele>823.0</ele><time>2026-04-30T09:59:20.001Z</time></trkpt><trkpt lat="31.489160738283406" lon="-4.411267624416721"><ele>823.0</ele><time>2026-04-30T09:59:21.001Z</time></trkpt><trkpt lat="31.489082211823092" lon="-4.411298544789078"><ele>823.0</ele><time>2026-04-30T09:59:22.001Z</time></trkpt><trkpt lat="31.489005234733277" lon="-4.411346889764872"><ele>823.0</ele><time>2026-04-30T09:59:23.001Z</time></trkpt><trkpt lat="31.4889273335202" lon="-4.411411933051696"><ele>823.0</ele><time>2026-04-30T09:59:24.001Z</time></trkpt><trkpt lat="31.488854210730295" lon="-4.411493883589246"><ele>823.0</ele><time>2026-04-30T09:59:25.001Z</time></trkpt><trkpt lat="31.48878268632447" lon="-4.411575108066977"><ele>823.4</ele><time>2026-04-30T09:59:26.001Z</time></trkpt><trkpt lat="31.488701740658946" lon="-4.411654549846942"><ele>823.8</ele><time>2026-04-30T09:59:27.001Z</time></trkpt><trkpt lat="31.488619579832235" lon="-4.411730775573461"><ele>824.2</ele><time>2026-04-30T09:59:28.001Z</time></trkpt><trkpt lat="31.488533097559202" lon="-4.411808704653928"><ele>824.6</ele><time>2026-04-30T09:59:29.001Z</time></trkpt><trkpt lat="31.488446845665038" lon="-4.411897463462427"><ele>825.0</ele><time>2026-04-30T09:59:30.001Z</time></trkpt><trkpt lat="31.48835550584995" lon="-4.411984609345777"><ele>825.0</ele><time>2026-04-30T09:59:31.001Z</time></trkpt><trkpt lat="31.48826965588268" lon="-4.412064314816403"><ele>825.0</ele><time>2026-04-30T09:59:32.001Z</time></trkpt><trkpt lat="31.488184930237548" lon="-4.4121437638508585"><ele>825.0</ele><time>2026-04-30T09:59:33.001Z</time></trkpt><trkpt lat="31.488104218248196" lon="-4.412218084133674"><ele>825.0</ele><time>2026-04-30T09:59:34.001Z</time></trkpt><trkpt lat="31.48802696501637" lon="-4.41229205991475"><ele>825.0</ele><time>2026-04-30T09:59:35.001Z</time></trkpt><trkpt lat="31.487957957201882" lon="-4.412358200147904"><ele>825.0</ele><time>2026-04-30T09:59:36.001Z</time></trkpt><trkpt lat="31.487890517573987" lon="-4.412420650530926"><ele>825.0</ele><time>2026-04-30T09:59:37.001Z</time></trkpt><trkpt lat="31.48782802698902" lon="-4.412476106269257"><ele>825.0</ele><time>2026-04-30T09:59:38.001Z</time></trkpt><trkpt lat="31.48775519188558" lon="-4.412545341021723"><ele>825.0</ele><time>2026-04-30T09:59:39.001Z</time></trkpt><trkpt lat="31.487684854775665" lon="-4.4126057209030485"><ele>825.0</ele><time>2026-04-30T09:59:40.001Z</time></trkpt><trkpt lat="31.487604597773526" lon="-4.412655689797327"><ele>825.0</ele><time>2026-04-30T09:59:41Z</time></trkpt><trkpt lat="31.48752792601273" lon="-4.412715886276639"><ele>825.0</ele><time>2026-04-30T09:59:42Z</time></trkpt><trkpt lat="31.487458218248104" lon="-4.41277997420655"><ele>825.0</ele><time>2026-04-30T09:59:43Z</time></trkpt><trkpt lat="31.487381783547388" lon="-4.412849916880128"><ele>825.0</ele><time>2026-04-30T09:59:44Z</time></trkpt><trkpt lat="31.487312709814493" lon="-4.41291437611691"><ele>825.0</ele><time>2026-04-30T09:59:45Z</time></trkpt><trkpt lat="31.487238301484226" lon="-4.4129752394474515"><ele>825.0</ele><time>2026-04-30T09:59:46Z</time></trkpt><trkpt lat="31.4871699828772" lon="-4.413050272415673"><ele>823.8</ele><time>2026-04-30T09:59:47Z</time></trkpt><trkpt lat="31.48708717507547" lon="-4.413105804630452"><ele>822.6</ele><time>2026-04-30T09:59:48Z</time></trkpt><trkpt lat="31.486989730307297" lon="-4.413143920377678"><ele>821.4000000000001</ele><time>2026-04-30T09:59:49Z</time></trkpt><trkpt lat="31.48690202200339" lon="-4.413166135681607"><ele>820.2</ele><time>2026-04-30T09:59:50Z</time></trkpt><trkpt lat="31.486814718294458" lon="-4.41317939100367"><ele>819.0</ele><time>2026-04-30T09:59:51Z</time></trkpt><trkpt lat="31.486720586406022" lon="-4.41319369400891"><ele>819.0</ele><time>2026-04-30T09:59:52Z</time></trkpt><trkpt lat="31.48663527625785" lon="-4.413203235215769"><ele>819.0</ele><time>2026-04-30T09:59:53Z</time></trkpt><trkpt lat="31.486559468668435" lon="-4.413207061446439"><ele>819.0</ele><time>2026-04-30T09:59:54Z</time></trkpt><trkpt lat="31.48648338707993" lon="-4.413213501783312"><ele>819.0</ele><time>2026-04-30T09:59:55Z</time></trkpt><trkpt lat="31.48639721388031" lon="-4.413263137656755"><ele>819.0</ele><time>2026-04-30T09:59:56Z</time></trkpt><trkpt lat="31.48631190121101" lon="-4.413327596155375"><ele>819.0</ele><time>2026-04-30T09:59:57Z</time></trkpt><trkpt lat="31.486231503050075" lon="-4.413372900961263"><ele>820.0</ele><time>2026-04-30T09:59:58Z</time></trkpt><trkpt lat="31.48615786547386" lon="-4.413401588811907"><ele>821.0</ele><time>2026-04-30T09:59:59Z</time></trkpt><trkpt lat="31.486088499376827" lon="-4.4134625721204666"><ele>822.0</ele><time>2026-04-30T10:00:00Z</time></trkpt><trkpt lat="31.486009240089007" lon="-4.413512505178624"><ele>823.0</ele><time>2026-04-30T10:00:01Z</time></trkpt><trkpt lat="31.48592335716658" lon="-4.413565981009222"><ele>824.0</ele><time>2026-04-30T10:00:02Z</time></trkpt><trkpt lat="31.485833188577807" lon="-4.41362269660048"><ele>824.0</ele><time>2026-04-30T10:00:03Z</time></trkpt><trkpt lat="31.485733485109634" lon="-4.413685809492406"><ele>824.0</ele><time>2026-04-30T10:00:04Z</time></trkpt><trkpt lat="31.485648566817968" lon="-4.413739321479867"><ele>824.0</ele><time>2026-04-30T10:00:05Z</time></trkpt><trkpt lat="31.485549037748378" lon="-4.4137895409481"><ele>824.0</ele><time>2026-04-30T10:00:06Z</time></trkpt><trkpt lat="31.485470386198887" lon="-4.413852215709976"><ele>824.0</ele><time>2026-04-30T10:00:07Z</time></trkpt><trkpt lat="31.48538112448971" lon="-4.4139153397772555"><ele>823.3333333333334</ele><time>2026-04-30T10:00:08Z</time></trkpt><trkpt lat="31.48530267023654" lon="-4.4139710909988725"><ele>822.6666666666667</ele><time>2026-04-30T10:00:09Z</time></trkpt><trkpt lat="31.485231801715987" lon="-4.414028676774521"><ele>822.0</ele><time>2026-04-30T10:00:10Z</time></trkpt><trkpt lat="31.485179700019543" lon="-4.414089233583456"><ele>821.3333333333333</ele><time>2026-04-30T10:00:11Z</time></trkpt><trkpt lat="31.48513650665475" lon="-4.4141666570340545"><ele>820.6666666666666</ele><time>2026-04-30T10:00:12Z</time></trkpt><trkpt lat="31.485082075238207" lon="-4.41425316210464"><ele>820.0</ele><time>2026-04-30T10:00:13Z</time></trkpt><trkpt lat="31.485021876777637" lon="-4.4143392166445965"><ele>820.0</ele><time>2026-04-30T10:00:14Z</time></trkpt><trkpt lat="31.484975089416846" lon="-4.414434334108306"><ele>820.0</ele><time>2026-04-30T10:00:15Z</time></trkpt><trkpt lat="31.48491026988144" lon="-4.4145182962249185"><ele>820.0</ele><time>2026-04-30T10:00:16Z</time></trkpt><trkpt lat="31.48485518571107" lon="-4.414605241360889"><ele>820.0</ele><time>2026-04-30T10:00:17Z</time></trkpt><trkpt lat="31.4848047447924" lon="-4.414696631378468"><ele>820.0</ele><time>2026-04-30T10:00:18Z</time></trkpt><trkpt lat="31.48475801193612" lon="-4.414791833416064"><ele>820.2</ele><time>2026-04-30T10:00:19Z</time></trkpt><trkpt lat="31.484706941936473" lon="-4.414884780202233"><ele>820.4</ele><time>2026-04-30T10:00:20Z</time></trkpt><trkpt lat="31.484648838469194" lon="-4.414978783842456"><ele>820.5999999999999</ele><time>2026-04-30T10:00:21Z</time></trkpt><trkpt lat="31.484597049004705" lon="-4.415070786404585"><ele>820.8</ele><time>2026-04-30T10:00:22Z</time></trkpt><trkpt lat="31.484543123775413" lon="-4.415158336417697"><ele>821.0</ele><time>2026-04-30T10:00:23Z</time></trkpt><trkpt lat="31.484490822435152" lon="-4.415249361361804"><ele>821.1666666666667</ele><time>2026-04-30T10:00:24Z</time></trkpt><trkpt lat="31.484438289547647" lon="-4.41533687055808"><ele>821.3333333333334</ele><time>2026-04-30T10:00:25Z</time></trkpt><trkpt lat="31.484382944799307" lon="-4.41542755831078"><ele>821.5</ele><time>2026-04-30T10:00:26.001Z</time></trkpt><trkpt lat="31.484328242370527" lon="-4.415510076790137"><ele>821.6666666666667</ele><time>2026-04-30T10:00:27.001Z</time></trkpt><trkpt lat="31.48428204382257" lon="-4.415589056958885"><ele>821.8333333333334</ele><time>2026-04-30T10:00:28.001Z</time></trkpt><trkpt lat="31.48423023791638" lon="-4.4156737123818495"><ele>822.0</ele><time>2026-04-30T10:00:29.001Z</time></trkpt><trkpt lat="31.484168862965088" lon="-4.4157675342587535"><ele>822.0</ele><time>2026-04-30T10:00:30.001Z</time></trkpt><trkpt lat="31.484107497467136" lon="-4.415844355154202"><ele>822.0</ele><time>2026-04-30T10:00:31.001Z</time></trkpt><trkpt lat="31.484041750181067" lon="-4.415922793505626"><ele>822.0</ele><time>2026-04-30T10:00:32.001Z</time></trkpt><trkpt lat="31.48397404403957" lon="-4.416003820374907"><ele>822.0</ele><time>2026-04-30T10:00:33.001Z</time></trkpt><trkpt lat="31.48389777278069" lon="-4.416081873480602"><ele>822.0</ele><time>2026-04-30T10:00:34.001Z</time></trkpt><trkpt lat="31.483818697018165" lon="-4.416154238126805"><ele>821.8</ele><time>2026-04-30T10:00:35.001Z</time></trkpt><trkpt lat="31.483741671651444" lon="-4.416222434457259"><ele>821.6</ele><time>2026-04-30T10:00:36.001Z</time></trkpt><trkpt lat="31.483666274212208" lon="-4.416293212124579"><ele>821.4</ele><time>2026-04-30T10:00:37.001Z</time></trkpt><trkpt lat="31.48359092203507" lon="-4.416360320521786"><ele>821.1999999999999</ele><time>2026-04-30T10:00:38.001Z</time></trkpt><trkpt lat="31.4835165320084" lon="-4.416427959709492"><ele>821.0</ele><time>2026-04-30T10:00:39.001Z</time></trkpt><trkpt lat="31.483441670341413" lon="-4.416492739436675"><ele>820.8</ele><time>2026-04-30T10:00:40.001Z</time></trkpt><trkpt lat="31.48337644515482" lon="-4.416573943834535"><ele>820.5999999999999</ele><time>2026-04-30T10:00:41.001Z</time></trkpt><trkpt lat="31.483294424036302" lon="-4.416644660439513"><ele>820.4</ele><time>2026-04-30T10:00:42.001Z</time></trkpt><trkpt lat="31.483216544626018" lon="-4.416700414916725"><ele>820.2</ele><time>2026-04-30T10:00:43.001Z</time></trkpt><trkpt lat="31.483148276815903" lon="-4.416763137926458"><ele>820.0</ele><time>2026-04-30T10:00:44.001Z</time></trkpt><trkpt lat="31.48306969753458" lon="-4.4168146561604615"><ele>820.0</ele><time>2026-04-30T10:00:45.001Z</time></trkpt><trkpt lat="31.48298391815055" lon="-4.416871973487365"><ele>820.0</ele><time>2026-04-30T10:00:46.001Z</time></trkpt><trkpt lat="31.482897319972928" lon="-4.416934082779628"><ele>820.0</ele><time>2026-04-30T10:00:47.001Z</time></trkpt><trkpt lat="31.48280917900905" lon="-4.4169972983036825"><ele>820.0</ele><time>2026-04-30T10:00:48.001Z</time></trkpt><trkpt lat="31.482722870424197" lon="-4.417059673723215"><ele>820.0</ele><time>2026-04-30T10:00:49.001Z</time></trkpt><trkpt lat="31.48263920138833" lon="-4.417120838665611"><ele>820.4</ele><time>2026-04-30T10:00:50.001Z</time></trkpt><trkpt lat="31.482594545338216" lon="-4.417263727893426"><ele>820.8</ele><time>2026-04-30T10:00:51.001Z</time></trkpt><trkpt lat="31.48251613461621" lon="-4.4173315917323075"><ele>821.2</ele><time>2026-04-30T10:00:52.001Z</time></trkpt><trkpt lat="31.482436388965162" lon="-4.417409921313411"><ele>821.6</ele><time>2026-04-30T10:00:53.001Z</time></trkpt><trkpt lat="31.482360131477037" lon="-4.417498609250088"><ele>822.0</ele><time>2026-04-30T10:00:54.001Z</time></trkpt><trkpt lat="31.482289336444527" lon="-4.417590894903921"><ele>822.0</ele><time>2026-04-30T10:00:55.001Z</time></trkpt><trkpt lat="31.48221919439492" lon="-4.417675805485997"><ele>822.0</ele><time>2026-04-30T10:00:56.001Z</time></trkpt><trkpt lat="31.48214322591557" lon="-4.417749492323237"><ele>822.0</ele><time>2026-04-30T10:00:57.001Z</time></trkpt><trkpt lat="31.482058502005078" lon="-4.417814409441837"><ele>822.0</ele><time>2026-04-30T10:00:58.001Z</time></trkpt><trkpt lat="31.481971512455413" lon="-4.417886445778382"><ele>822.0</ele><time>2026-04-30T10:00:59.001Z</time></trkpt><trkpt lat="31.481895081769142" lon="-4.417958221836221"><ele>822.4000000000001</ele><time>2026-04-30T10:01:00.001Z</time></trkpt><trkpt lat="31.481822130325305" lon="-4.4180337866635"><ele>822.8000000000001</ele><time>2026-04-30T10:01:01.001Z</time></trkpt><trkpt lat="31.481750898456266" lon="-4.418111206781307"><ele>823.2</ele><time>2026-04-30T10:01:02.001Z</time></trkpt><trkpt lat="31.481672353503193" lon="-4.418178087046996"><ele>823.6</ele><time>2026-04-30T10:01:03.001Z</time></trkpt><trkpt lat="31.48160816365788" lon="-4.41825906271723"><ele>824.0</ele><time>2026-04-30T10:01:04.001Z</time></trkpt><trkpt lat="31.481541608470184" lon="-4.418328523563307"><ele>824.0</ele><time>2026-04-30T10:01:05.001Z</time></trkpt><trkpt lat="31.481485054240533" lon="-4.418393468094963"><ele>824.0</ele><time>2026-04-30T10:01:06.001Z</time></trkpt><trkpt lat="31.481424059929786" lon="-4.418456164892634"><ele>824.0</ele><time>2026-04-30T10:01:07.001Z</time></trkpt><trkpt lat="31.48131208686512" lon="-4.418443525576073"><ele>824.0</ele><time>2026-04-30T10:01:08.001Z</time></trkpt><trkpt lat="31.48122909856057" lon="-4.418481435427035"><ele>824.0</ele><time>2026-04-30T10:01:09.001Z</time></trkpt><trkpt lat="31.48113617891596" lon="-4.418502930778786"><ele>824.0000000000001</ele><time>2026-04-30T10:01:10.001Z</time></trkpt><trkpt lat="31.481046287337527" lon="-4.4185097220605165"><ele>824.0</ele><time>2026-04-30T10:01:11.001Z</time></trkpt><trkpt lat="31.480967363498497" lon="-4.418558336384411"><ele>824.0</ele><time>2026-04-30T10:01:12.001Z</time></trkpt><trkpt lat="31.480913714965784" lon="-4.4186404228934215"><ele>824.0</ele><time>2026-04-30T10:01:13.001Z</time></trkpt><trkpt lat="31.48085185192913" lon="-4.418702719088368"><ele>824.0000000000001</ele><time>2026-04-30T10:01:14Z</time></trkpt><trkpt lat="31.48079361204346" lon="-4.418761805794042"><ele>824.0</ele><time>2026-04-30T10:01:15Z</time></trkpt><trkpt lat="31.48072600905366" lon="-4.418828598974734"><ele>824.0</ele><time>2026-04-30T10:01:16Z</time></trkpt><trkpt lat="31.480638035350125" lon="-4.418868039448994"><ele>824.0</ele><time>2026-04-30T10:01:17Z</time></trkpt><trkpt lat="31.480564676153712" lon="-4.4189248691250205"><ele>824.0</ele><time>2026-04-30T10:01:18Z</time></trkpt><trkpt lat="31.48048425818225" lon="-4.418974306153413"><ele>824.0</ele><time>2026-04-30T10:01:19Z</time></trkpt><trkpt lat="31.480394649418816" lon="-4.419026939553919"><ele>824.0</ele><time>2026-04-30T10:01:20Z</time></trkpt><trkpt lat="31.480302034175796" lon="-4.419082213849395"><ele>824.0</ele><time>2026-04-30T10:01:21Z</time></trkpt><trkpt lat="31.48021739375264" lon="-4.419141202106478"><ele>824.0</ele><time>2026-04-30T10:01:22Z</time></trkpt><trkpt lat="31.480134851175574" lon="-4.4192106297641915"><ele>824.0</ele><time>2026-04-30T10:01:23Z</time></trkpt><trkpt lat="31.480065701614087" lon="-4.419290172097965"><ele>824.0</ele><time>2026-04-30T10:01:24Z</time></trkpt><trkpt lat="31.479982741412837" lon="-4.419350050975929"><ele>824.0</ele><time>2026-04-30T10:01:25Z</time></trkpt><trkpt lat="31.479902195502152" lon="-4.419420222732544"><ele>824.0</ele><time>2026-04-30T10:01:26Z</time></trkpt><trkpt lat="31.479824630909622" lon="-4.419497711297893"><ele>824.0</ele><time>2026-04-30T10:01:27Z</time></trkpt><trkpt lat="31.479738669969215" lon="-4.4195760770284505"><ele>824.0</ele><time>2026-04-30T10:01:28Z</time></trkpt><trkpt lat="31.479656739863735" lon="-4.41965838186247"><ele>824.0</ele><time>2026-04-30T10:01:29Z</time></trkpt><trkpt lat="31.479578266664415" lon="-4.419754808909373"><ele>824.0</ele><time>2026-04-30T10:01:30Z</time></trkpt><trkpt lat="31.47949271492745" lon="-4.419848521457541"><ele>824.25</ele><time>2026-04-30T10:01:31Z</time></trkpt><trkpt lat="31.479411387263326" lon="-4.419936836505293"><ele>824.5</ele><time>2026-04-30T10:01:32Z</time></trkpt><trkpt lat="31.47932531561747" lon="-4.42002885984521"><ele>824.75</ele><time>2026-04-30T10:01:33Z</time></trkpt><trkpt lat="31.479245844572525" lon="-4.420137545176136"><ele>825.0</ele><time>2026-04-30T10:01:34Z</time></trkpt><trkpt lat="31.47915783265548" lon="-4.420234818406459"><ele>825.0</ele><time>2026-04-30T10:01:35Z</time></trkpt><trkpt lat="31.479066244255918" lon="-4.420335871741538"><ele>825.0</ele><time>2026-04-30T10:01:36Z</time></trkpt><trkpt lat="31.478976194961138" lon="-4.420436180507695"><ele>825.0</ele><time>2026-04-30T10:01:37Z</time></trkpt><trkpt lat="31.478889948108403" lon="-4.4205317749910655"><ele>825.0</ele><time>2026-04-30T10:01:38Z</time></trkpt><trkpt lat="31.47880441704866" lon="-4.420626571888388"><ele>825.5</ele><time>2026-04-30T10:01:39Z</time></trkpt><trkpt lat="31.478720063810474" lon="-4.420719943230586"><ele>826.0</ele><time>2026-04-30T10:01:40Z</time></trkpt><trkpt lat="31.47863615918222" lon="-4.420812980386433"><ele>826.5</ele><time>2026-04-30T10:01:41Z</time></trkpt><trkpt lat="31.47855514813037" lon="-4.420902808924037"><ele>827.0</ele><time>2026-04-30T10:01:42Z</time></trkpt><trkpt lat="31.47847392615343" lon="-4.420992871296022"><ele>827.0</ele><time>2026-04-30T10:01:43Z</time></trkpt><trkpt lat="31.47839366561946" lon="-4.4210816064424545"><ele>827.0</ele><time>2026-04-30T10:01:44Z</time></trkpt><trkpt lat="31.47831318078776" lon="-4.421170843678594"><ele>827.0</ele><time>2026-04-30T10:01:45Z</time></trkpt><trkpt lat="31.478232285302404" lon="-4.421260709982288"><ele>827.0</ele><time>2026-04-30T10:01:46Z</time></trkpt><trkpt lat="31.478139110800253" lon="-4.4213398654104985"><ele>827.0</ele><time>2026-04-30T10:01:47Z</time></trkpt><trkpt lat="31.478059023501274" lon="-4.4214335112611725"><ele>826.75</ele><time>2026-04-30T10:01:48Z</time></trkpt><trkpt lat="31.47797289873013" lon="-4.421521848518359"><ele>826.5</ele><time>2026-04-30T10:01:49Z</time></trkpt><trkpt lat="31.477887434689734" lon="-4.421615543363634"><ele>826.25</ele><time>2026-04-30T10:01:50Z</time></trkpt><trkpt lat="31.477801527667925" lon="-4.421709047817662"><ele>826.0</ele><time>2026-04-30T10:01:51Z</time></trkpt><trkpt lat="31.477714459401902" lon="-4.421799294924641"><ele>825.75</ele><time>2026-04-30T10:01:52Z</time></trkpt><trkpt lat="31.477625032832556" lon="-4.421892026821046"><ele>825.5</ele><time>2026-04-30T10:01:53Z</time></trkpt><trkpt lat="31.477541517736555" lon="-4.421978823337859"><ele>825.25</ele><time>2026-04-30T10:01:54Z</time></trkpt><trkpt lat="31.47745884090843" lon="-4.422064748701786"><ele>825.0</ele><time>2026-04-30T10:01:55Z</time></trkpt><trkpt lat="31.477375844556533" lon="-4.422151006072914"><ele>824.8</ele><time>2026-04-30T10:01:56Z</time></trkpt><trkpt lat="31.47729392271448" lon="-4.422236146870109"><ele>824.6</ele><time>2026-04-30T10:01:57Z</time></trkpt><trkpt lat="31.477214152206624" lon="-4.422319701380244"><ele>824.4000000000001</ele><time>2026-04-30T10:01:58Z</time></trkpt><trkpt lat="31.47713234013252" lon="-4.422404781322648"><ele>824.2</ele><time>2026-04-30T10:01:59Z</time></trkpt><trkpt lat="31.477050177791067" lon="-4.422490225492375"><ele>824.0</ele><time>2026-04-30T10:02:00Z</time></trkpt><trkpt lat="31.47696769045508" lon="-4.422575804618009"><ele>824.0</ele><time>2026-04-30T10:02:01Z</time></trkpt><trkpt lat="31.47688347268949" lon="-4.422663049103853"><ele>824.0</ele><time>2026-04-30T10:02:02Z</time></trkpt><trkpt lat="31.47680210246129" lon="-4.422747489193339"><ele>824.0</ele><time>2026-04-30T10:02:03Z</time></trkpt><trkpt lat="31.47671578699513" lon="-4.422837061031647"><ele>824.0</ele><time>2026-04-30T10:02:04Z</time></trkpt><trkpt lat="31.476651725421863" lon="-4.422953186855147"><ele>824.8000000000001</ele><time>2026-04-30T10:02:05Z</time></trkpt><trkpt lat="31.476565371522202" lon="-4.423043552194783"><ele>825.6</ele><time>2026-04-30T10:02:06Z</time></trkpt><trkpt lat="31.47650345572018" lon="-4.423157177392193"><ele>826.4</ele><time>2026-04-30T10:02:07Z</time></trkpt><trkpt lat="31.476437770133206" lon="-4.423259336628716"><ele>827.2</ele><time>2026-04-30T10:02:08Z</time></trkpt><trkpt lat="31.47637690283847" lon="-4.423353984253883"><ele>828.0</ele><time>2026-04-30T10:02:09Z</time></trkpt><trkpt lat="31.476315439415725" lon="-4.4234495519738966"><ele>827.75</ele><time>2026-04-30T10:02:10Z</time></trkpt><trkpt lat="31.47624927782536" lon="-4.4235524244854"><ele>827.5</ele><time>2026-04-30T10:02:11Z</time></trkpt><trkpt lat="31.47618088256921" lon="-4.423658552969427"><ele>827.25</ele><time>2026-04-30T10:02:12Z</time></trkpt><trkpt lat="31.476110802869353" lon="-4.423766993703644"><ele>827.0</ele><time>2026-04-30T10:02:13Z</time></trkpt><trkpt lat="31.476039168605517" lon="-4.423877523364092"><ele>826.5</ele><time>2026-04-30T10:02:14Z</time></trkpt><trkpt lat="31.475965814065795" lon="-4.42399292026148"><ele>826.0</ele><time>2026-04-30T10:02:15Z</time></trkpt><trkpt lat="31.475888134254497" lon="-4.424096976893878"><ele>825.5</ele><time>2026-04-30T10:02:16Z</time></trkpt><trkpt lat="31.475795070503484" lon="-4.424191613158618"><ele>825.0</ele><time>2026-04-30T10:02:17Z</time></trkpt><trkpt lat="31.47572315909483" lon="-4.424304045708577"><ele>825.0</ele><time>2026-04-30T10:02:18Z</time></trkpt><trkpt lat="31.475645739319173" lon="-4.424406151256562"><ele>825.0</ele><time>2026-04-30T10:02:19Z</time></trkpt><trkpt lat="31.475568926095224" lon="-4.424510944967902"><ele>825.0</ele><time>2026-04-30T10:02:20Z</time></trkpt><trkpt lat="31.475492229566026" lon="-4.424615548421076"><ele>825.0</ele><time>2026-04-30T10:02:21Z</time></trkpt><trkpt lat="31.475416528017718" lon="-4.424718154025943"><ele>824.75</ele><time>2026-04-30T10:02:22Z</time></trkpt><trkpt lat="31.475342447919626" lon="-4.424819652491209"><ele>824.5</ele><time>2026-04-30T10:02:23Z</time></trkpt><trkpt lat="31.475267883331643" lon="-4.424922592730369"><ele>824.25</ele><time>2026-04-30T10:02:24Z</time></trkpt><trkpt lat="31.475192341159147" lon="-4.425026190769742"><ele>824.0</ele><time>2026-04-30T10:02:25Z</time></trkpt><trkpt lat="31.475132111416002" lon="-4.42514479462295"><ele>824.0</ele><time>2026-04-30T10:02:26Z</time></trkpt><trkpt lat="31.47504415441631" lon="-4.425236414291445"><ele>824.0</ele><time>2026-04-30T10:02:27Z</time></trkpt><trkpt lat="31.474980702135756" lon="-4.425345735531854"><ele>824.0</ele><time>2026-04-30T10:02:28Z</time></trkpt><trkpt lat="31.474912354090648" lon="-4.425453002836648"><ele>824.0</ele><time>2026-04-30T10:02:29Z</time></trkpt><trkpt lat="31.47484104927801" lon="-4.42556238997018"><ele>824.5</ele><time>2026-04-30T10:02:30Z</time></trkpt><trkpt lat="31.474771543871206" lon="-4.425671319263651"><ele>825.0</ele><time>2026-04-30T10:02:31Z</time></trkpt><trkpt lat="31.474702996913084" lon="-4.425777822492515"><ele>825.5</ele><time>2026-04-30T10:02:32.001Z</time></trkpt><trkpt lat="31.4746346407642" lon="-4.425883948838267"><ele>826.0</ele><time>2026-04-30T10:02:33.001Z</time></trkpt><trkpt lat="31.474566840163654" lon="-4.425987966318395"><ele>826.0</ele><time>2026-04-30T10:02:34.001Z</time></trkpt><trkpt lat="31.474497491577402" lon="-4.426093055134133"><ele>826.0</ele><time>2026-04-30T10:02:35.001Z</time></trkpt><trkpt lat="31.474438923914" lon="-4.426208021893772"><ele>826.0</ele><time>2026-04-30T10:02:36.001Z</time></trkpt><trkpt lat="31.474370644885756" lon="-4.426314786428961"><ele>826.0</ele><time>2026-04-30T10:02:37.001Z</time></trkpt><trkpt lat="31.47430642457308" lon="-4.426415203450203"><ele>826.0</ele><time>2026-04-30T10:02:38.001Z</time></trkpt><trkpt lat="31.474267818958197" lon="-4.426529191365728"><ele>826.0</ele><time>2026-04-30T10:02:39.001Z</time></trkpt><trkpt lat="31.474219626649987" lon="-4.426646112200968"><ele>826.0</ele><time>2026-04-30T10:02:40.001Z</time></trkpt><trkpt lat="31.47417680477785" lon="-4.426769750777756"><ele>826.0</ele><time>2026-04-30T10:02:41.001Z</time></trkpt><trkpt lat="31.474119765477784" lon="-4.426888591339869"><ele>826.0</ele><time>2026-04-30T10:02:42.001Z</time></trkpt><trkpt lat="31.474058753757323" lon="-4.427003072463082"><ele>826.0</ele><time>2026-04-30T10:02:43.001Z</time></trkpt><trkpt lat="31.47400877679478" lon="-4.427122599040873"><ele>826.0</ele><time>2026-04-30T10:02:44.001Z</time></trkpt><trkpt lat="31.47396928841961" lon="-4.427254421401681"><ele>826.0</ele><time>2026-04-30T10:02:45.001Z</time></trkpt><trkpt lat="31.473917080634635" lon="-4.427381507641179"><ele>826.0</ele><time>2026-04-30T10:02:46.001Z</time></trkpt><trkpt lat="31.47384584237746" lon="-4.427503400898297"><ele>825.5</ele><time>2026-04-30T10:02:47.001Z</time></trkpt><trkpt lat="31.473786847518923" lon="-4.427615595742615"><ele>825.0</ele><time>2026-04-30T10:02:48.001Z</time></trkpt><trkpt lat="31.473739057109693" lon="-4.427745244527316"><ele>824.5</ele><time>2026-04-30T10:02:49.001Z</time></trkpt><trkpt lat="31.473670833355563" lon="-4.427857220332511"><ele>824.0</ele><time>2026-04-30T10:02:50.001Z</time></trkpt><trkpt lat="31.47361837545886" lon="-4.427976566812397"><ele>824.25</ele><time>2026-04-30T10:02:51.001Z</time></trkpt><trkpt lat="31.47356043455684" lon="-4.428096524583351"><ele>824.5</ele><time>2026-04-30T10:02:52.001Z</time></trkpt><trkpt lat="31.473500981139097" lon="-4.428216783242826"><ele>824.75</ele><time>2026-04-30T10:02:53.001Z</time></trkpt><trkpt lat="31.47345602103296" lon="-4.428323599912844"><ele>825.0</ele><time>2026-04-30T10:02:54.001Z</time></trkpt><trkpt lat="31.473403650914534" lon="-4.42844452638751"><ele>825.0</ele><time>2026-04-30T10:02:55.001Z</time></trkpt><trkpt lat="31.473347679742336" lon="-4.428557583684782"><ele>825.0</ele><time>2026-04-30T10:02:56.001Z</time></trkpt><trkpt lat="31.473294227321162" lon="-4.428676356498514"><ele>825.0</ele><time>2026-04-30T10:02:57.001Z</time></trkpt><trkpt lat="31.47325875614627" lon="-4.428798015572378"><ele>825.0</ele><time>2026-04-30T10:02:58.001Z</time></trkpt><trkpt lat="31.47318625818335" lon="-4.428905312061848"><ele>825.2</ele><time>2026-04-30T10:02:59.001Z</time></trkpt><trkpt lat="31.473104214929734" lon="-4.4289871504407685"><ele>825.4</ele><time>2026-04-30T10:03:00Z</time></trkpt><trkpt lat="31.473038566759303" lon="-4.429077406703081"><ele>825.5999999999999</ele><time>2026-04-30T10:03:01Z</time></trkpt><trkpt lat="31.472967511800118" lon="-4.42916178920639"><ele>825.8</ele><time>2026-04-30T10:03:02Z</time></trkpt><trkpt lat="31.472894164113956" lon="-4.429250686214566"><ele>826.0</ele><time>2026-04-30T10:03:03Z</time></trkpt><trkpt lat="31.47281730513408" lon="-4.4293495961769365"><ele>826.1999999999999</ele><time>2026-04-30T10:03:04Z</time></trkpt><trkpt lat="31.472742110695112" lon="-4.429443332200484"><ele>826.4</ele><time>2026-04-30T10:03:05Z</time></trkpt><trkpt lat="31.472674515453512" lon="-4.429549576841625"><ele>826.6</ele><time>2026-04-30T10:03:06Z</time></trkpt><trkpt lat="31.472607571925973" lon="-4.429654605534873"><ele>826.8</ele><time>2026-04-30T10:03:07Z</time></trkpt><trkpt lat="31.47254132358923" lon="-4.429753488163574"><ele>827.0</ele><time>2026-04-30T10:03:08Z</time></trkpt><trkpt lat="31.472475542484162" lon="-4.429853669549079"><ele>827.0</ele><time>2026-04-30T10:03:09Z</time></trkpt><trkpt lat="31.472411589969738" lon="-4.429949497005153"><ele>827.0</ele><time>2026-04-30T10:03:10Z</time></trkpt><trkpt lat="31.47235149193877" lon="-4.430038981565203"><ele>827.0</ele><time>2026-04-30T10:03:11Z</time></trkpt><trkpt lat="31.472290356126884" lon="-4.43013064558298"><ele>827.0</ele><time>2026-04-30T10:03:12Z</time></trkpt><trkpt lat="31.472214955105727" lon="-4.430214855197572"><ele>827.0</ele><time>2026-04-30T10:03:13Z</time></trkpt><trkpt lat="31.472166640467606" lon="-4.430316392849643"><ele>826.8</ele><time>2026-04-30T10:03:14Z</time></trkpt><trkpt lat="31.472075978346908" lon="-4.430411950031124"><ele>826.6</ele><time>2026-04-30T10:03:15Z</time></trkpt><trkpt lat="31.472002424582364" lon="-4.4304991917949925"><ele>826.4</ele><time>2026-04-30T10:03:16Z</time></trkpt><trkpt lat="31.471935963178982" lon="-4.430582233416171"><ele>826.1999999999999</ele><time>2026-04-30T10:03:17Z</time></trkpt><trkpt lat="31.471871800353338" lon="-4.430654749275297"><ele>826.0</ele><time>2026-04-30T10:03:18Z</time></trkpt><trkpt lat="31.471813974351186" lon="-4.430724754763217"><ele>825.8</ele><time>2026-04-30T10:03:19Z</time></trkpt><trkpt lat="31.471755299414856" lon="-4.430801219044713"><ele>825.5999999999999</ele><time>2026-04-30T10:03:20Z</time></trkpt><trkpt lat="31.471693242739256" lon="-4.430876635872779"><ele>825.4</ele><time>2026-04-30T10:03:21Z</time></trkpt><trkpt lat="31.471622908248296" lon="-4.430954939981669"><ele>825.2</ele><time>2026-04-30T10:03:22Z</time></trkpt><trkpt lat="31.471548611381504" lon="-4.431040595453705"><ele>825.0</ele><time>2026-04-30T10:03:23Z</time></trkpt><trkpt lat="31.471470106517348" lon="-4.431123744761022"><ele>825.0</ele><time>2026-04-30T10:03:24Z</time></trkpt><trkpt lat="31.47140174187554" lon="-4.431228502318413"><ele>825.0</ele><time>2026-04-30T10:03:25Z</time></trkpt><trkpt lat="31.471319213420983" lon="-4.4313252745178255"><ele>825.0</ele><time>2026-04-30T10:03:26Z</time></trkpt><trkpt lat="31.471236622753146" lon="-4.4314221197744255"><ele>825.0</ele><time>2026-04-30T10:03:27Z</time></trkpt><trkpt lat="31.471144151465154" lon="-4.431502594068334"><ele>825.8</ele><time>2026-04-30T10:03:28Z</time></trkpt><trkpt lat="31.471060857827123" lon="-4.43158857056194"><ele>826.6</ele><time>2026-04-30T10:03:29Z</time></trkpt><trkpt lat="31.470978402153573" lon="-4.431672396388126"><ele>827.4000000000001</ele><time>2026-04-30T10:03:30Z</time></trkpt><trkpt lat="31.470894426502447" lon="-4.4317628246909315"><ele>828.2</ele><time>2026-04-30T10:03:31Z</time></trkpt><trkpt lat="31.470812994248494" lon="-4.431850165433378"><ele>829.0</ele><time>2026-04-30T10:03:32Z</time></trkpt><trkpt lat="31.47072510155017" lon="-4.431931883185389"><ele>829.0</ele><time>2026-04-30T10:03:33Z</time></trkpt><trkpt lat="31.47064446500569" lon="-4.432018672040772"><ele>829.0</ele><time>2026-04-30T10:03:34Z</time></trkpt><trkpt lat="31.47055968902702" lon="-4.432093546149964"><ele>829.0</ele><time>2026-04-30T10:03:35Z</time></trkpt><trkpt lat="31.470476536689258" lon="-4.432162871543825"><ele>829.0</ele><time>2026-04-30T10:03:36Z</time></trkpt><trkpt lat="31.47039405790261" lon="-4.432229199359376"><ele>829.0</ele><time>2026-04-30T10:03:37Z</time></trkpt><trkpt lat="31.470313003083323" lon="-4.4323015126720655"><ele>828.2</ele><time>2026-04-30T10:03:38Z</time></trkpt><trkpt lat="31.470225418156375" lon="-4.432376263935083"><ele>827.4000000000001</ele><time>2026-04-30T10:03:39Z</time></trkpt><trkpt lat="31.470137425627414" lon="-4.432451588342388"><ele>826.6</ele><time>2026-04-30T10:03:40Z</time></trkpt><trkpt lat="31.470044758116693" lon="-4.432529523211624"><ele>825.8</ele><time>2026-04-30T10:03:41Z</time></trkpt><trkpt lat="31.469949715737805" lon="-4.432608975589184"><ele>825.0</ele><time>2026-04-30T10:03:42Z</time></trkpt><trkpt lat="31.469856448637923" lon="-4.432693227163076"><ele>825.0</ele><time>2026-04-30T10:03:43Z</time></trkpt><trkpt lat="31.469763189560354" lon="-4.43277027942533"><ele>825.0</ele><time>2026-04-30T10:03:44Z</time></trkpt><trkpt lat="31.469668666222788" lon="-4.432852761242404"><ele>825.0</ele><time>2026-04-30T10:03:45Z</time></trkpt><trkpt lat="31.469573286102268" lon="-4.4329342407553725"><ele>825.0</ele><time>2026-04-30T10:03:46Z</time></trkpt><trkpt lat="31.469482077724397" lon="-4.433025671442178"><ele>824.8</ele><time>2026-04-30T10:03:47Z</time></trkpt><trkpt lat="31.46938951839442" lon="-4.43310195515028"><ele>824.6</ele><time>2026-04-30T10:03:48Z</time></trkpt><trkpt lat="31.469310909784628" lon="-4.433188116461393"><ele>824.4000000000001</ele><time>2026-04-30T10:03:49Z</time></trkpt><trkpt lat="31.4692248779732" lon="-4.433268272976868"><ele>824.2</ele><time>2026-04-30T10:03:50Z</time></trkpt><trkpt lat="31.469137198451314" lon="-4.43335512567796"><ele>824.0</ele><time>2026-04-30T10:03:51Z</time></trkpt><trkpt lat="31.469053628216106" lon="-4.433440048784219"><ele>824.0</ele><time>2026-04-30T10:03:52Z</time></trkpt><trkpt lat="31.46897450139823" lon="-4.433521533857287"><ele>824.0</ele><time>2026-04-30T10:03:53Z</time></trkpt><trkpt lat="31.468898251359708" lon="-4.433598411943654"><ele>824.0</ele><time>2026-04-30T10:03:54Z</time></trkpt><trkpt lat="31.468823758929044" lon="-4.433672573071299"><ele>824.0</ele><time>2026-04-30T10:03:55Z</time></trkpt><trkpt lat="31.4687500528525" lon="-4.4337458192651695"><ele>824.0</ele><time>2026-04-30T10:03:56Z</time></trkpt><trkpt lat="31.46867502873196" lon="-4.433819654253802"><ele>824.8000000000001</ele><time>2026-04-30T10:03:57Z</time></trkpt><trkpt lat="31.46860436957605" lon="-4.433908638431218"><ele>825.6</ele><time>2026-04-30T10:03:58Z</time></trkpt><trkpt lat="31.468529771713644" lon="-4.433989828634735"><ele>826.4</ele><time>2026-04-30T10:03:59Z</time></trkpt><trkpt lat="31.46846088624519" lon="-4.43408443839689"><ele>827.2</ele><time>2026-04-30T10:04:00Z</time></trkpt><trkpt lat="31.468385195323812" lon="-4.434172021703823"><ele>828.0</ele><time>2026-04-30T10:04:01Z</time></trkpt><trkpt lat="31.468322299742937" lon="-4.434280228157748"><ele>828.0</ele><time>2026-04-30T10:04:02Z</time></trkpt><trkpt lat="31.46824995806422" lon="-4.4343725959532705"><ele>828.0</ele><time>2026-04-30T10:04:03Z</time></trkpt><trkpt lat="31.468167477613516" lon="-4.434459526297167"><ele>828.0</ele><time>2026-04-30T10:04:04Z</time></trkpt><trkpt lat="31.468100318548693" lon="-4.434564932943329"><ele>828.0</ele><time>2026-04-30T10:04:05Z</time></trkpt><trkpt lat="31.468030364614258" lon="-4.43465095083901"><ele>828.0</ele><time>2026-04-30T10:04:06Z</time></trkpt><trkpt lat="31.46797379322333" lon="-4.434757470734103"><ele>827.8</ele><time>2026-04-30T10:04:07Z</time></trkpt><trkpt lat="31.467906239486275" lon="-4.434855672817495"><ele>827.5999999999999</ele><time>2026-04-30T10:04:08Z</time></trkpt><trkpt lat="31.4678405296917" lon="-4.434958992554041"><ele>827.4000000000001</ele><time>2026-04-30T10:04:09Z</time></trkpt><trkpt lat="31.46777658463858" lon="-4.435057917386239"><ele>827.2</ele><time>2026-04-30T10:04:10Z</time></trkpt><trkpt lat="31.467736205456497" lon="-4.435144417698474"><ele>827.0</ele><time>2026-04-30T10:04:11Z</time></trkpt><trkpt lat="31.467675925583734" lon="-4.4352146179051815"><ele>827.0</ele><time>2026-04-30T10:04:12Z</time></trkpt><trkpt lat="31.467620749982256" lon="-4.43529472929158"><ele>827.0</ele><time>2026-04-30T10:04:13Z</time></trkpt><trkpt lat="31.467558459835388" lon="-4.435386604622712"><ele>827.0</ele><time>2026-04-30T10:04:14Z</time></trkpt><trkpt lat="31.467480954281328" lon="-4.435460735287409"><ele>827.0</ele><time>2026-04-30T10:04:15Z</time></trkpt><trkpt lat="31.467410584275914" lon="-4.43552710250327"><ele>827.0</ele><time>2026-04-30T10:04:16Z</time></trkpt><trkpt lat="31.467350221563535" lon="-4.435584054559247"><ele>827.3333333333334</ele><time>2026-04-30T10:04:17Z</time></trkpt><trkpt lat="31.467279272736093" lon="-4.435650994525553"><ele>827.6666666666667</ele><time>2026-04-30T10:04:18Z</time></trkpt><trkpt lat="31.46720881754697" lon="-4.43571746891236"><ele>828.0</ele><time>2026-04-30T10:04:19Z</time></trkpt><trkpt lat="31.467135112307094" lon="-4.435787806943599"><ele>828.3333333333333</ele><time>2026-04-30T10:04:20Z</time></trkpt><trkpt lat="31.467070155876996" lon="-4.4358533127227755"><ele>828.6666666666666</ele><time>2026-04-30T10:04:21Z</time></trkpt><trkpt lat="31.467005667610525" lon="-4.435917864324616"><ele>829.0</ele><time>2026-04-30T10:04:22Z</time></trkpt><trkpt lat="31.466939551845282" lon="-4.435984045030842"><ele>828.6</ele><time>2026-04-30T10:04:23Z</time></trkpt><trkpt lat="31.46687363540023" lon="-4.436050026217179"><ele>828.2</ele><time>2026-04-30T10:04:24Z</time></trkpt><trkpt lat="31.466802385047473" lon="-4.436121346457106"><ele>827.8000000000001</ele><time>2026-04-30T10:04:25Z</time></trkpt><trkpt lat="31.46673612191611" lon="-4.436187846724101"><ele>827.4000000000001</ele><time>2026-04-30T10:04:26Z</time></trkpt><trkpt lat="31.46666425195877" lon="-4.436299049035033"><ele>827.0</ele><time>2026-04-30T10:04:27Z</time></trkpt><trkpt lat="31.466615065500367" lon="-4.436382924696418"><ele>827.0000000000001</ele><time>2026-04-30T10:04:28Z</time></trkpt><trkpt lat="31.46662741305603" lon="-4.436515086210458"><ele>827.0</ele><time>2026-04-30T10:04:29Z</time></trkpt><trkpt lat="31.466577175937715" lon="-4.436591731016218"><ele>827.0</ele><time>2026-04-30T10:04:30Z</time></trkpt><trkpt lat="31.46652703978082" lon="-4.436669383047456"><ele>827.0</ele><time>2026-04-30T10:04:31Z</time></trkpt><trkpt lat="31.46646968104616" lon="-4.436736407181949"><ele>827.0000000000001</ele><time>2026-04-30T10:04:32Z</time></trkpt><trkpt lat="31.466408213384728" lon="-4.436791567151407"><ele>827.0</ele><time>2026-04-30T10:04:33Z</time></trkpt><trkpt lat="31.46634066422934" lon="-4.436853148728753"><ele>827.0000000000001</ele><time>2026-04-30T10:04:34Z</time></trkpt><trkpt lat="31.466279531335967" lon="-4.4369198665677905"><ele>827.0</ele><time>2026-04-30T10:04:35Z</time></trkpt><trkpt lat="31.466224135608954" lon="-4.43699664589643"><ele>827.0</ele><time>2026-04-30T10:04:36Z</time></trkpt><trkpt lat="31.466166387840833" lon="-4.437081328420619"><ele>827.0</ele><time>2026-04-30T10:04:37Z</time></trkpt><trkpt lat="31.466107692900582" lon="-4.437162694252077"><ele>827.0000000000001</ele><time>2026-04-30T10:04:38Z</time></trkpt><trkpt lat="31.466047563440636" lon="-4.437242623124158"><ele>827.0</ele><time>2026-04-30T10:04:39Z</time></trkpt><trkpt lat="31.46598354186861" lon="-4.437324630643752"><ele>826.4000000000001</ele><time>2026-04-30T10:04:40Z</time></trkpt><trkpt lat="31.465915851270818" lon="-4.437400592454129"><ele>825.8000000000001</ele><time>2026-04-30T10:04:41Z</time></trkpt><trkpt lat="31.465844656063407" lon="-4.43747790996969"><ele>825.2</ele><time>2026-04-30T10:04:42Z</time></trkpt><trkpt lat="31.465773240905953" lon="-4.437558659869382"><ele>824.6</ele><time>2026-04-30T10:04:43Z</time></trkpt><trkpt lat="31.465702707622455" lon="-4.4376435094684314"><ele>824.0</ele><time>2026-04-30T10:04:44Z</time></trkpt><trkpt lat="31.46563648910315" lon="-4.437734598956858"><ele>824.0</ele><time>2026-04-30T10:04:45Z</time></trkpt><trkpt lat="31.465574522363163" lon="-4.437825805485895"><ele>824.0</ele><time>2026-04-30T10:04:46Z</time></trkpt><trkpt lat="31.465514462883583" lon="-4.437911887568294"><ele>824.0</ele><time>2026-04-30T10:04:47Z</time></trkpt><trkpt lat="31.465453603308838" lon="-4.438000385575853"><ele>824.0</ele><time>2026-04-30T10:04:48Z</time></trkpt><trkpt lat="31.46539456889293" lon="-4.438093933034826"><ele>824.0</ele><time>2026-04-30T10:04:49Z</time></trkpt><trkpt lat="31.465341032736674" lon="-4.438176963022949"><ele>824.5000000000001</ele><time>2026-04-30T10:04:50Z</time></trkpt><trkpt lat="31.465291353046595" lon="-4.438255338294699"><ele>825.0</ele><time>2026-04-30T10:04:51Z</time></trkpt><trkpt lat="31.46524229170973" lon="-4.438330629886067"><ele>825.5</ele><time>2026-04-30T10:04:52Z</time></trkpt><trkpt lat="31.465192787789558" lon="-4.438408289673872"><ele>826.0</ele><time>2026-04-30T10:04:53Z</time></trkpt><trkpt lat="31.465142153603377" lon="-4.43848890747079"><ele>826.5000000000001</ele><time>2026-04-30T10:04:54Z</time></trkpt><trkpt lat="31.4650912079328" lon="-4.438572715840428"><ele>827.0</ele><time>2026-04-30T10:04:55Z</time></trkpt><trkpt lat="31.465037613322174" lon="-4.438655304623334"><ele>827.0</ele><time>2026-04-30T10:04:56Z</time></trkpt><trkpt lat="31.46498041618872" lon="-4.438740327544431"><ele>827.0</ele><time>2026-04-30T10:04:57Z</time></trkpt><trkpt lat="31.46491724973151" lon="-4.438827759002779"><ele>827.0</ele><time>2026-04-30T10:04:58Z</time></trkpt><trkpt lat="31.46485329434985" lon="-4.438916152517588"><ele>827.0</ele><time>2026-04-30T10:04:59Z</time></trkpt><trkpt lat="31.464788860151597" lon="-4.4390014440893495"><ele>827.0</ele><time>2026-04-30T10:05:00Z</time></trkpt><trkpt lat="31.464723997658304" lon="-4.439087130199032"><ele>826.8</ele><time>2026-04-30T10:05:01Z</time></trkpt><trkpt lat="31.464658128292673" lon="-4.4391779584714275"><ele>826.6</ele><time>2026-04-30T10:05:02Z</time></trkpt><trkpt lat="31.4645902322031" lon="-4.4392744610766535"><ele>826.4</ele><time>2026-04-30T10:05:03Z</time></trkpt><trkpt lat="31.464519490033666" lon="-4.439368429702826"><ele>826.1999999999999</ele><time>2026-04-30T10:05:04Z</time></trkpt><trkpt lat="31.464446962212598" lon="-4.439465264002971"><ele>826.0</ele><time>2026-04-30T10:05:05Z</time></trkpt><trkpt lat="31.464372970093883" lon="-4.439565716671721"><ele>826.0</ele><time>2026-04-30T10:05:06Z</time></trkpt><trkpt lat="31.464296770851735" lon="-4.439667267943358"><ele>826.0</ele><time>2026-04-30T10:05:07Z</time></trkpt><trkpt lat="31.464222994930566" lon="-4.43977218072399"><ele>826.0</ele><time>2026-04-30T10:05:08Z</time></trkpt><trkpt lat="31.46414670854598" lon="-4.439871542507594"><ele>826.0</ele><time>2026-04-30T10:05:09Z</time></trkpt><trkpt lat="31.464073766601423" lon="-4.439974667815655"><ele>826.0</ele><time>2026-04-30T10:05:10Z</time></trkpt><trkpt lat="31.463997930031844" lon="-4.440076872432354"><ele>826.0</ele><time>2026-04-30T10:05:11Z</time></trkpt><trkpt lat="31.46392210578485" lon="-4.440181269924449"><ele>826.0</ele><time>2026-04-30T10:05:12Z</time></trkpt><trkpt lat="31.463844262260256" lon="-4.440285962718199"><ele>826.0</ele><time>2026-04-30T10:05:13Z</time></trkpt><trkpt lat="31.463767636672124" lon="-4.44038946288142"><ele>826.25</ele><time>2026-04-30T10:05:14Z</time></trkpt><trkpt lat="31.46369172778544" lon="-4.440491235113305"><ele>826.5</ele><time>2026-04-30T10:05:15Z</time></trkpt><trkpt lat="31.463612825027003" lon="-4.440596280230614"><ele>826.75</ele><time>2026-04-30T10:05:16Z</time></trkpt><trkpt lat="31.46353536194443" lon="-4.4406987592091465"><ele>827.0</ele><time>2026-04-30T10:05:17Z</time></trkpt><trkpt lat="31.463468020235528" lon="-4.440812278857791"><ele>827.0</ele><time>2026-04-30T10:05:18Z</time></trkpt><trkpt lat="31.46338949465305" lon="-4.440918962437318"><ele>827.0</ele><time>2026-04-30T10:05:19Z</time></trkpt><trkpt lat="31.463311273126745" lon="-4.441024622168218"><ele>827.0</ele><time>2026-04-30T10:05:20Z</time></trkpt><trkpt lat="31.46323410535136" lon="-4.441128762874525"><ele>827.0</ele><time>2026-04-30T10:05:21Z</time></trkpt><trkpt lat="31.463154272379306" lon="-4.441236811949576"><ele>826.75</ele><time>2026-04-30T10:05:22Z</time></trkpt><trkpt lat="31.463076050171853" lon="-4.4413429341314865"><ele>826.5</ele><time>2026-04-30T10:05:23Z</time></trkpt><trkpt lat="31.462990636493863" lon="-4.441442930245431"><ele>826.25</ele><time>2026-04-30T10:05:24Z</time></trkpt><trkpt lat="31.462907137787898" lon="-4.441539395372898"><ele>826.0</ele><time>2026-04-30T10:05:25Z</time></trkpt><trkpt lat="31.462827797126153" lon="-4.441640414442446"><ele>826.0</ele><time>2026-04-30T10:05:26Z</time></trkpt><trkpt lat="31.46274921821665" lon="-4.4417389310200095"><ele>826.0</ele><time>2026-04-30T10:05:27Z</time></trkpt><trkpt lat="31.462669262354193" lon="-4.441833646477418"><ele>826.0</ele><time>2026-04-30T10:05:28Z</time></trkpt><trkpt lat="31.46258195937122" lon="-4.441928171668318"><ele>826.0</ele><time>2026-04-30T10:05:29Z</time></trkpt><trkpt lat="31.462497626327572" lon="-4.442024516056719"><ele>826.0</ele><time>2026-04-30T10:05:30Z</time></trkpt><trkpt lat="31.462416008083572" lon="-4.442115933542403"><ele>826.0</ele><time>2026-04-30T10:05:31Z</time></trkpt><trkpt lat="31.462349302736403" lon="-4.4422244585411805"><ele>826.0</ele><time>2026-04-30T10:05:32Z</time></trkpt><trkpt lat="31.462262113489082" lon="-4.442305947412514"><ele>826.0</ele><time>2026-04-30T10:05:33Z</time></trkpt><trkpt lat="31.46219364755863" lon="-4.442411314039146"><ele>825.8</ele><time>2026-04-30T10:05:34Z</time></trkpt><trkpt lat="31.46210944635747" lon="-4.442494783102506"><ele>825.5999999999999</ele><time>2026-04-30T10:05:35Z</time></trkpt><trkpt lat="31.46203595961184" lon="-4.442592119292242"><ele>825.4</ele><time>2026-04-30T10:05:36Z</time></trkpt><trkpt lat="31.461957563155746" lon="-4.442686901998524"><ele>825.2</ele><time>2026-04-30T10:05:37Z</time></trkpt><trkpt lat="31.461881448181252" lon="-4.442777595775449"><ele>825.0</ele><time>2026-04-30T10:05:38Z</time></trkpt><trkpt lat="31.461802329357266" lon="-4.442860548538393"><ele>825.0</ele><time>2026-04-30T10:05:39Z</time></trkpt><trkpt lat="31.4617510965422" lon="-4.442961314166564"><ele>825.0</ele><time>2026-04-30T10:05:40Z</time></trkpt><trkpt lat="31.461692066578195" lon="-4.443045189713246"><ele>825.0</ele><time>2026-04-30T10:05:41Z</time></trkpt><trkpt lat="31.461622873223906" lon="-4.443120561238943"><ele>825.0</ele><time>2026-04-30T10:05:42Z</time></trkpt><trkpt lat="31.461565489583265" lon="-4.443204029728713"><ele>825.0</ele><time>2026-04-30T10:05:43Z</time></trkpt><trkpt lat="31.461506876191777" lon="-4.443297576410478"><ele>825.0</ele><time>2026-04-30T10:05:44Z</time></trkpt><trkpt lat="31.461452083498575" lon="-4.443392706671258"><ele>825.0</ele><time>2026-04-30T10:05:45Z</time></trkpt><trkpt lat="31.461394396592944" lon="-4.443485804406113"><ele>825.0</ele><time>2026-04-30T10:05:46Z</time></trkpt><trkpt lat="31.46133542751193" lon="-4.443580044706272"><ele>825.0</ele><time>2026-04-30T10:05:47Z</time></trkpt><trkpt lat="31.461269756014524" lon="-4.443674495856856"><ele>825.0</ele><time>2026-04-30T10:05:48Z</time></trkpt><trkpt lat="31.461181306236085" lon="-4.443746628870614"><ele>825.4</ele><time>2026-04-30T10:05:49Z</time></trkpt><trkpt lat="31.461114816543763" lon="-4.4438409057009585"><ele>825.8</ele><time>2026-04-30T10:05:50Z</time></trkpt><trkpt lat="31.461053996457157" lon="-4.44393962937452"><ele>826.2</ele><time>2026-04-30T10:05:51Z</time></trkpt><trkpt lat="31.46098325026478" lon="-4.444024628984204"><ele>826.6</ele><time>2026-04-30T10:05:52Z</time></trkpt><trkpt lat="31.460924254757188" lon="-4.444122628510473"><ele>827.0</ele><time>2026-04-30T10:05:53Z</time></trkpt><trkpt lat="31.460855725296355" lon="-4.444212044294244"><ele>827.0</ele><time>2026-04-30T10:05:54Z</time></trkpt><trkpt lat="31.460788059373872" lon="-4.444305491270344"><ele>827.0</ele><time>2026-04-30T10:05:55Z</time></trkpt><trkpt lat="31.460732722576857" lon="-4.444410164348377"><ele>827.0</ele><time>2026-04-30T10:05:56Z</time></trkpt><trkpt lat="31.46066456734956" lon="-4.444506907315759"><ele>827.0</ele><time>2026-04-30T10:05:57Z</time></trkpt><trkpt lat="31.46059667955656" lon="-4.444603317956825"><ele>827.0</ele><time>2026-04-30T10:05:58Z</time></trkpt><trkpt lat="31.46052754162038" lon="-4.444702055786296"><ele>827.0</ele><time>2026-04-30T10:05:59Z</time></trkpt><trkpt lat="31.460454979356708" lon="-4.4447961878729485"><ele>827.0</ele><time>2026-04-30T10:06:00Z</time></trkpt><trkpt lat="31.460371866731943" lon="-4.444874111135735"><ele>827.0</ele><time>2026-04-30T10:06:01Z</time></trkpt><trkpt lat="31.460312369153325" lon="-4.444975915350384"><ele>827.0</ele><time>2026-04-30T10:06:02Z</time></trkpt><trkpt lat="31.460238248927418" lon="-4.44506932688248"><ele>827.0</ele><time>2026-04-30T10:06:03Z</time></trkpt><trkpt lat="31.460168796647746" lon="-4.4451568556464265"><ele>826.8</ele><time>2026-04-30T10:06:04Z</time></trkpt><trkpt lat="31.46009502846316" lon="-4.445249822887295"><ele>826.6</ele><time>2026-04-30T10:06:05Z</time></trkpt><trkpt lat="31.460023393878632" lon="-4.445340101870742"><ele>826.4</ele><time>2026-04-30T10:06:06Z</time></trkpt><trkpt lat="31.459951589434926" lon="-4.4454303687252334"><ele>826.1999999999999</ele><time>2026-04-30T10:06:07Z</time></trkpt><trkpt lat="31.45988081676101" lon="-4.44551930139497"><ele>826.0</ele><time>2026-04-30T10:06:08Z</time></trkpt><trkpt lat="31.459808167608724" lon="-4.4456105920989435"><ele>825.8</ele><time>2026-04-30T10:06:09Z</time></trkpt><trkpt lat="31.459734021288664" lon="-4.445703764092975"><ele>825.5999999999999</ele><time>2026-04-30T10:06:10Z</time></trkpt><trkpt lat="31.459659985413428" lon="-4.445797041303654"><ele>825.4</ele><time>2026-04-30T10:06:11Z</time></trkpt><trkpt lat="31.459585775504905" lon="-4.445890655720801"><ele>825.2</ele><time>2026-04-30T10:06:12Z</time></trkpt><trkpt lat="31.459513595453405" lon="-4.445981170689252"><ele>825.0</ele><time>2026-04-30T10:06:13Z</time></trkpt><trkpt lat="31.459438234588088" lon="-4.446075574847538"><ele>825.75</ele><time>2026-04-30T10:06:14Z</time></trkpt><trkpt lat="31.459358355972938" lon="-4.4461764091036455"><ele>826.5</ele><time>2026-04-30T10:06:15Z</time></trkpt><trkpt lat="31.4592796499522" lon="-4.446276005930124"><ele>827.25</ele><time>2026-04-30T10:06:16Z</time></trkpt><trkpt lat="31.4592066746646" lon="-4.446374261439399"><ele>828.0</ele><time>2026-04-30T10:06:17Z</time></trkpt><trkpt lat="31.45913262514732" lon="-4.446484381641053"><ele>828.0</ele><time>2026-04-30T10:06:18Z</time></trkpt><trkpt lat="31.459060306426352" lon="-4.446592499189298"><ele>828.0</ele><time>2026-04-30T10:06:19Z</time></trkpt><trkpt lat="31.45898671456268" lon="-4.446702520080248"><ele>828.0</ele><time>2026-04-30T10:06:20Z</time></trkpt><trkpt lat="31.458920586081053" lon="-4.446801387749515"><ele>828.0</ele><time>2026-04-30T10:06:21Z</time></trkpt><trkpt lat="31.458850987229766" lon="-4.4469050894231374"><ele>828.0</ele><time>2026-04-30T10:06:22Z</time></trkpt><trkpt lat="31.458785601787635" lon="-4.447001473317147"><ele>828.0</ele><time>2026-04-30T10:06:23Z</time></trkpt><trkpt lat="31.458717104173857" lon="-4.4471038904454785"><ele>828.0</ele><time>2026-04-30T10:06:24Z</time></trkpt><trkpt lat="31.4586510859695" lon="-4.447202600374902"><ele>828.0</ele><time>2026-04-30T10:06:25Z</time></trkpt><trkpt lat="31.458592973427532" lon="-4.447279748184928"><ele>828.0</ele><time>2026-04-30T10:06:26Z</time></trkpt><trkpt lat="31.458546871826478" lon="-4.447370877369855"><ele>827.5999999999999</ele><time>2026-04-30T10:06:27Z</time></trkpt><trkpt lat="31.45849361139775" lon="-4.447451656350423"><ele>827.1999999999999</ele><time>2026-04-30T10:06:28Z</time></trkpt><trkpt lat="31.458421666842487" lon="-4.447537340445048"><ele>826.8</ele><time>2026-04-30T10:06:29Z</time></trkpt><trkpt lat="31.458350304600014" lon="-4.447632472573846"><ele>826.4</ele><time>2026-04-30T10:06:30Z</time></trkpt><trkpt lat="31.458280255312367" lon="-4.447736501653235"><ele>826.0</ele><time>2026-04-30T10:06:31Z</time></trkpt><trkpt lat="31.458214036129014" lon="-4.447855388227471"><ele>826.0</ele><time>2026-04-30T10:06:32Z</time></trkpt><trkpt lat="31.458136651196856" lon="-4.447971632194147"><ele>826.0</ele><time>2026-04-30T10:06:33Z</time></trkpt><trkpt lat="31.458052619309907" lon="-4.448085639016635"><ele>826.0</ele><time>2026-04-30T10:06:34Z</time></trkpt><trkpt lat="31.45797155113633" lon="-4.448195625191044"><ele>826.0</ele><time>2026-04-30T10:06:35Z</time></trkpt><trkpt lat="31.457892752664186" lon="-4.448302531976397"><ele>827.25</ele><time>2026-04-30T10:06:36Z</time></trkpt><trkpt lat="31.457816723532684" lon="-4.448405681618397"><ele>828.5</ele><time>2026-04-30T10:06:37Z</time></trkpt><trkpt lat="31.457736363445896" lon="-4.448501385779712"><ele>829.75</ele><time>2026-04-30T10:06:38Z</time></trkpt><trkpt lat="31.457663767780783" lon="-4.448605830606142"><ele>831.0</ele><time>2026-04-30T10:06:39Z</time></trkpt><trkpt lat="31.457586062617214" lon="-4.448709761731308"><ele>830.0</ele><time>2026-04-30T10:06:40Z</time></trkpt><trkpt lat="31.457511149336746" lon="-4.4488082538986005"><ele>829.0</ele><time>2026-04-30T10:06:41Z</time></trkpt><trkpt lat="31.45743912558391" lon="-4.448907141549497"><ele>828.0</ele><time>2026-04-30T10:06:42Z</time></trkpt><trkpt lat="31.457365556689844" lon="-4.449003402266596"><ele>827.0</ele><time>2026-04-30T10:06:43Z</time></trkpt><trkpt lat="31.457299224282778" lon="-4.449105230754913"><ele>826.0</ele><time>2026-04-30T10:06:44Z</time></trkpt><trkpt lat="31.457217600208992" lon="-4.449210491528275"><ele>826.0</ele><time>2026-04-30T10:06:45Z</time></trkpt><trkpt lat="31.457147951713804" lon="-4.449323402525378"><ele>826.0</ele><time>2026-04-30T10:06:46Z</time></trkpt><trkpt lat="31.457077381089924" lon="-4.449432439091013"><ele>826.0</ele><time>2026-04-30T10:06:47Z</time></trkpt><trkpt lat="31.457017102419677" lon="-4.449538647324683"><ele>826.0</ele><time>2026-04-30T10:06:48Z</time></trkpt><trkpt lat="31.456950863977188" lon="-4.4496461483240735"><ele>826.5</ele><time>2026-04-30T10:06:49Z</time></trkpt><trkpt lat="31.456887680850222" lon="-4.449756461601944"><ele>827.0</ele><time>2026-04-30T10:06:50Z</time></trkpt><trkpt lat="31.45681950615253" lon="-4.449866641032804"><ele>827.5</ele><time>2026-04-30T10:06:51Z</time></trkpt><trkpt lat="31.456756817107912" lon="-4.449982433421262"><ele>828.0</ele><time>2026-04-30T10:06:52Z</time></trkpt><trkpt lat="31.456683072897572" lon="-4.450094235305453"><ele>828.0</ele><time>2026-04-30T10:06:53Z</time></trkpt><trkpt lat="31.456609246237484" lon="-4.450209378887454"><ele>828.0</ele><time>2026-04-30T10:06:54Z</time></trkpt><trkpt lat="31.456540186417936" lon="-4.450328882279368"><ele>828.0</ele><time>2026-04-30T10:06:55Z</time></trkpt><trkpt lat="31.456478273406834" lon="-4.450456960049601"><ele>828.0</ele><time>2026-04-30T10:06:56Z</time></trkpt><trkpt lat="31.456403642096422" lon="-4.450566348123575"><ele>828.5</ele><time>2026-04-30T10:06:57Z</time></trkpt><trkpt lat="31.45632847972447" lon="-4.450676619356709"><ele>829.0</ele><time>2026-04-30T10:06:58Z</time></trkpt><trkpt lat="31.45624915881366" lon="-4.450793279177863"><ele>829.5</ele><time>2026-04-30T10:06:59Z</time></trkpt><trkpt lat="31.45617683991369" lon="-4.4508998969865745"><ele>830.0</ele><time>2026-04-30T10:07:00Z</time></trkpt><trkpt lat="31.456113574892687" lon="-4.4509932136926675"><ele>830.0</ele><time>2026-04-30T10:07:01Z</time></trkpt><trkpt lat="31.45604750218401" lon="-4.4510906627091975"><ele>830.0</ele><time>2026-04-30T10:07:02Z</time></trkpt><trkpt lat="31.45597862447226" lon="-4.451192170391919"><ele>830.0</ele><time>2026-04-30T10:07:03Z</time></trkpt><trkpt lat="31.455906695675402" lon="-4.451298144169916"><ele>830.0</ele><time>2026-04-30T10:07:04Z</time></trkpt><trkpt lat="31.45583469344271" lon="-4.45140422639624"><ele>830.0</ele><time>2026-04-30T10:07:05Z</time></trkpt><trkpt lat="31.45576296285861" lon="-4.45150985460054"><ele>830.5</ele><time>2026-04-30T10:07:06Z</time></trkpt><trkpt lat="31.455679694301644" lon="-4.4516310435505755"><ele>831.0</ele><time>2026-04-30T10:07:07Z</time></trkpt><trkpt lat="31.455594870304083" lon="-4.451732067023995"><ele>831.5</ele><time>2026-04-30T10:07:08Z</time></trkpt><trkpt lat="31.455509250833593" lon="-4.451834038390697"><ele>832.0</ele><time>2026-04-30T10:07:09Z</time></trkpt><trkpt lat="31.455427338879673" lon="-4.451931593109889"><ele>832.0</ele><time>2026-04-30T10:07:10Z</time></trkpt><trkpt lat="31.455259527558656" lon="-4.452051687798186"><ele>832.0</ele><time>2026-04-30T10:07:11Z</time></trkpt><trkpt lat="31.45515682349325" lon="-4.452114270291732"><ele>832.0</ele><time>2026-04-30T10:07:12Z</time></trkpt><trkpt lat="31.455057000306745" lon="-4.4521750973657825"><ele>832.0</ele><time>2026-04-30T10:07:13Z</time></trkpt><trkpt lat="31.45495000454297" lon="-4.452240294974629"><ele>831.6</ele><time>2026-04-30T10:07:14Z</time></trkpt><trkpt lat="31.454843083307914" lon="-4.45230489296739"><ele>831.2</ele><time>2026-04-30T10:07:15Z</time></trkpt><trkpt lat="31.45473496831214" lon="-4.45237014119985"><ele>830.8</ele><time>2026-04-30T10:07:16Z</time></trkpt><trkpt lat="31.454628330221464" lon="-4.4524353764569655"><ele>830.4</ele><time>2026-04-30T10:07:17Z</time></trkpt><trkpt lat="31.454559198697684" lon="-4.452477804625964"><ele>830.0</ele><time>2026-04-30T10:07:18Z</time></trkpt><trkpt lat="31.45448023682396" lon="-4.452572688625948"><ele>830.0</ele><time>2026-04-30T10:07:19Z</time></trkpt><trkpt lat="31.454405117740944" lon="-4.452663054187852"><ele>830.0</ele><time>2026-04-30T10:07:20Z</time></trkpt><trkpt lat="31.45433453420075" lon="-4.452748188083842"><ele>830.0</ele><time>2026-04-30T10:07:21Z</time></trkpt><trkpt lat="31.454266225134013" lon="-4.452830578582424"><ele>830.0</ele><time>2026-04-30T10:07:22Z</time></trkpt><trkpt lat="31.454200407473557" lon="-4.452909964092231"><ele>830.0</ele><time>2026-04-30T10:07:23Z</time></trkpt><trkpt lat="31.45413476645025" lon="-4.452989136569164"><ele>830.6</ele><time>2026-04-30T10:07:24Z</time></trkpt><trkpt lat="31.45407173461081" lon="-4.453064459962986"><ele>831.2</ele><time>2026-04-30T10:07:25Z</time></trkpt><trkpt lat="31.454004559258262" lon="-4.453144572215107"><ele>831.8</ele><time>2026-04-30T10:07:26Z</time></trkpt><trkpt lat="31.453931485882364" lon="-4.453232507570138"><ele>832.4</ele><time>2026-04-30T10:07:27Z</time></trkpt><trkpt lat="31.45386401986213" lon="-4.453313695195541"><ele>833.0</ele><time>2026-04-30T10:07:28Z</time></trkpt><trkpt lat="31.45379314430351" lon="-4.45339898571983"><ele>833.2</ele><time>2026-04-30T10:07:29Z</time></trkpt><trkpt lat="31.453721851434054" lon="-4.4534847785106475"><ele>833.4</ele><time>2026-04-30T10:07:30Z</time></trkpt><trkpt lat="31.453650391732637" lon="-4.453570772059361"><ele>833.6</ele><time>2026-04-30T10:07:31Z</time></trkpt><trkpt lat="31.45357622948321" lon="-4.453660017766514"><ele>833.8000000000001</ele><time>2026-04-30T10:07:32Z</time></trkpt><trkpt lat="31.45350231200411" lon="-4.453748968966951"><ele>834.0</ele><time>2026-04-30T10:07:33Z</time></trkpt><trkpt lat="31.453430716725624" lon="-4.453835125683511"><ele>833.6</ele><time>2026-04-30T10:07:34Z</time></trkpt><trkpt lat="31.45336209063816" lon="-4.453917709248831"><ele>833.2</ele><time>2026-04-30T10:07:35Z</time></trkpt><trkpt lat="31.453291862952273" lon="-4.45400224679759"><ele>832.8000000000001</ele><time>2026-04-30T10:07:36Z</time></trkpt><trkpt lat="31.453222893487343" lon="-4.454085283422717"><ele>832.4000000000001</ele><time>2026-04-30T10:07:37Z</time></trkpt><trkpt lat="31.453154977694325" lon="-4.4541666458295595"><ele>832.0</ele><time>2026-04-30T10:07:38Z</time></trkpt><trkpt lat="31.453091667547294" lon="-4.454242890726318"><ele>832.0</ele><time>2026-04-30T10:07:39Z</time></trkpt><trkpt lat="31.45301870696436" lon="-4.454330707370675"><ele>832.0</ele><time>2026-04-30T10:07:40Z</time></trkpt><trkpt lat="31.45292953083943" lon="-4.454431285253379"><ele>832.0</ele><time>2026-04-30T10:07:41Z</time></trkpt><trkpt lat="31.45284848234668" lon="-4.4545171596975015"><ele>832.0</ele><time>2026-04-30T10:07:42Z</time></trkpt><trkpt lat="31.45277715014995" lon="-4.454592739346195"><ele>832.0</ele><time>2026-04-30T10:07:43Z</time></trkpt><trkpt lat="31.452695358644444" lon="-4.454679405481845"><ele>831.2</ele><time>2026-04-30T10:07:44Z</time></trkpt><trkpt lat="31.45261147717519" lon="-4.454768348486626"><ele>830.4000000000001</ele><time>2026-04-30T10:07:45Z</time></trkpt><trkpt lat="31.452526530005187" lon="-4.454858421487841"><ele>829.5999999999999</ele><time>2026-04-30T10:07:46Z</time></trkpt><trkpt lat="31.452443921537704" lon="-4.4549460364066595"><ele>828.8</ele><time>2026-04-30T10:07:47Z</time></trkpt><trkpt lat="31.452369045166783" lon="-4.455025527976684"><ele>828.0</ele><time>2026-04-30T10:07:48Z</time></trkpt><trkpt lat="31.452291350511423" lon="-4.4551075747103175"><ele>828.0</ele><time>2026-04-30T10:07:49Z</time></trkpt><trkpt lat="31.452209895950006" lon="-4.455193463246543"><ele>828.0</ele><time>2026-04-30T10:07:50Z</time></trkpt><trkpt lat="31.452129496572365" lon="-4.455279132725734"><ele>828.0</ele><time>2026-04-30T10:07:51Z</time></trkpt><trkpt lat="31.452045324752387" lon="-4.455368906413058"><ele>828.0</ele><time>2026-04-30T10:07:52Z</time></trkpt><trkpt lat="31.451970671823755" lon="-4.455447930177283"><ele>828.0</ele><time>2026-04-30T10:07:53Z</time></trkpt><trkpt lat="31.451907249306178" lon="-4.4555150644708466"><ele>827.6666666666666</ele><time>2026-04-30T10:07:54Z</time></trkpt><trkpt lat="31.45185834553193" lon="-4.455567012247765"><ele>827.3333333333333</ele><time>2026-04-30T10:07:55Z</time></trkpt><trkpt lat="31.45178397363124" lon="-4.455646013356489"><ele>827.0</ele><time>2026-04-30T10:07:57Z</time></trkpt><trkpt lat="31.451736042873684" lon="-4.4556969275928155"><ele>826.6666666666666</ele><time>2026-04-30T10:08:00Z</time></trkpt><trkpt lat="31.451653276582704" lon="-4.455784845538144"><ele>826.3333333333333</ele><time>2026-04-30T10:09:43Z</time></trkpt><trkpt lat="31.45160164390558" lon="-4.455839691971803"><ele>826.0</ele><time>2026-04-30T10:09:44Z</time></trkpt><trkpt lat="31.451537961168114" lon="-4.455907210388954"><ele>826.0</ele><time>2026-04-30T10:09:45Z</time></trkpt><trkpt lat="31.451467111397527" lon="-4.4559823026454115"><ele>826.0</ele><time>2026-04-30T10:09:46Z</time></trkpt><trkpt lat="31.451393587964088" lon="-4.456060327662531"><ele>826.0</ele><time>2026-04-30T10:09:47Z</time></trkpt><trkpt lat="31.451318782419612" lon="-4.456139846549293"><ele>826.0</ele><time>2026-04-30T10:09:48Z</time></trkpt><trkpt lat="31.451077330766587" lon="-4.456012480449773"><ele>825.9999999999999</ele><time>2026-04-30T10:09:49Z</time></trkpt><trkpt lat="31.451001697004944" lon="-4.456095168679569"><ele>826.0</ele><time>2026-04-30T10:09:50Z</time></trkpt><trkpt lat="31.450930422664207" lon="-4.456166506215491"><ele>826.0</ele><time>2026-04-30T10:09:51Z</time></trkpt><trkpt lat="31.450873541652204" lon="-4.4562253157564555"><ele>826.0</ele><time>2026-04-30T10:09:52Z</time></trkpt><trkpt lat="31.450815322381704" lon="-4.456281177995536"><ele>825.9999999999999</ele><time>2026-04-30T10:09:53Z</time></trkpt><trkpt lat="31.450752246339366" lon="-4.456340628648352"><ele>826.0</ele><time>2026-04-30T10:09:54Z</time></trkpt><trkpt lat="31.450682296136716" lon="-4.456404140277041"><ele>826.4</ele><time>2026-04-30T10:09:55Z</time></trkpt><trkpt lat="31.450608283327597" lon="-4.456458449405857"><ele>826.8</ele><time>2026-04-30T10:09:56Z</time></trkpt><trkpt lat="31.45052557502494" lon="-4.456507940104398"><ele>827.1999999999999</ele><time>2026-04-30T10:09:57Z</time></trkpt><trkpt lat="31.450441408990468" lon="-4.456555135911491"><ele>827.5999999999999</ele><time>2026-04-30T10:09:58Z</time></trkpt><trkpt lat="31.45035818021563" lon="-4.456598954519763"><ele>828.0</ele><time>2026-04-30T10:09:59Z</time></trkpt><trkpt lat="31.45026773810902" lon="-4.45664365138337"><ele>827.2</ele><time>2026-04-30T10:10:00Z</time></trkpt><trkpt lat="31.450170568867687" lon="-4.456685174092158"><ele>826.4</ele><time>2026-04-30T10:10:01Z</time></trkpt><trkpt lat="31.450074955451964" lon="-4.456726084274998"><ele>825.6</ele><time>2026-04-30T10:10:02Z</time></trkpt><trkpt lat="31.449977441241362" lon="-4.456766698903793"><ele>824.8000000000001</ele><time>2026-04-30T10:10:03Z</time></trkpt><trkpt lat="31.44987837032668" lon="-4.456799506811221"><ele>824.0</ele><time>2026-04-30T10:10:04Z</time></trkpt><trkpt lat="31.44977217144404" lon="-4.456827866379984"><ele>824.0</ele><time>2026-04-30T10:10:05Z</time></trkpt><trkpt lat="31.449671146194998" lon="-4.456857239507035"><ele>824.0</ele><time>2026-04-30T10:10:06Z</time></trkpt><trkpt lat="31.449565534193898" lon="-4.456882618923572"><ele>824.0</ele><time>2026-04-30T10:10:07Z</time></trkpt><trkpt lat="31.449456786817684" lon="-4.456900032529887"><ele>824.0</ele><time>2026-04-30T10:10:08Z</time></trkpt><trkpt lat="31.449347791979008" lon="-4.456912547878422"><ele>824.0</ele><time>2026-04-30T10:10:09Z</time></trkpt><trkpt lat="31.449240476959936" lon="-4.45692379320245"><ele>824.0</ele><time>2026-04-30T10:10:10Z</time></trkpt><trkpt lat="31.449128107713374" lon="-4.456930919843461"><ele>824.0</ele><time>2026-04-30T10:10:11Z</time></trkpt><trkpt lat="31.44901504870839" lon="-4.456936269073252"><ele>824.0</ele><time>2026-04-30T10:10:12Z</time></trkpt><trkpt lat="31.44890308750219" lon="-4.456942836440338"><ele>824.0</ele><time>2026-04-30T10:10:13Z</time></trkpt><trkpt lat="31.448785723489625" lon="-4.456953084381637"><ele>824.0</ele><time>2026-04-30T10:10:14Z</time></trkpt><trkpt lat="31.448677751675984" lon="-4.4569541173700635"><ele>824.0</ele><time>2026-04-30T10:10:15Z</time></trkpt><trkpt lat="31.44856171221743" lon="-4.45694746455824"><ele>824.0</ele><time>2026-04-30T10:10:16Z</time></trkpt><trkpt lat="31.448451467196726" lon="-4.456946123112585"><ele>824.0</ele><time>2026-04-30T10:10:17Z</time></trkpt><trkpt lat="31.44832834136355" lon="-4.457169837366809"><ele>824.2</ele><time>2026-04-30T10:10:18Z</time></trkpt><trkpt lat="31.44822051049068" lon="-4.457160841633715"><ele>824.4000000000001</ele><time>2026-04-30T10:10:19Z</time></trkpt><trkpt lat="31.448111122194206" lon="-4.457151947445577"><ele>824.6</ele><time>2026-04-30T10:10:20Z</time></trkpt><trkpt lat="31.447999390405926" lon="-4.45714270055402"><ele>824.8</ele><time>2026-04-30T10:10:21Z</time></trkpt><trkpt lat="31.44788967197068" lon="-4.45713321879747"><ele>825.0</ele><time>2026-04-30T10:10:22Z</time></trkpt><trkpt lat="31.44777674681214" lon="-4.457124325740961"><ele>825.0</ele><time>2026-04-30T10:10:23Z</time></trkpt><trkpt lat="31.44766413944125" lon="-4.457115354641838"><ele>825.0</ele><time>2026-04-30T10:10:24Z</time></trkpt><trkpt lat="31.447551941831534" lon="-4.457106046851937"><ele>825.0</ele><time>2026-04-30T10:10:25Z</time></trkpt><trkpt lat="31.447438572579895" lon="-4.457096493549457"><ele>825.0</ele><time>2026-04-30T10:10:26Z</time></trkpt><trkpt lat="31.447325611773824" lon="-4.457087137495297"><ele>825.0</ele><time>2026-04-30T10:10:27Z</time></trkpt><trkpt lat="31.44721392786467" lon="-4.457080764720658"><ele>825.0</ele><time>2026-04-30T10:10:28Z</time></trkpt><trkpt lat="31.44709984746032" lon="-4.457075041053939"><ele>825.0</ele><time>2026-04-30T10:10:29Z</time></trkpt><trkpt lat="31.446987670960933" lon="-4.457069417595422"><ele>825.0</ele><time>2026-04-30T10:10:30Z</time></trkpt><trkpt lat="31.446872784261114" lon="-4.457063658273046"><ele>825.75</ele><time>2026-04-30T10:10:31Z</time></trkpt><trkpt lat="31.446758961192263" lon="-4.457057952271782"><ele>826.5</ele><time>2026-04-30T10:10:32Z</time></trkpt><trkpt lat="31.446644530879066" lon="-4.457052239817247"><ele>827.25</ele><time>2026-04-30T10:10:33Z</time></trkpt><trkpt lat="31.446524677066883" lon="-4.457046325887195"><ele>828.0</ele><time>2026-04-30T10:10:34Z</time></trkpt><trkpt lat="31.44640319301432" lon="-4.45704033151657"><ele>827.25</ele><time>2026-04-30T10:10:35Z</time></trkpt><trkpt lat="31.44628051208551" lon="-4.457034278095129"><ele>826.5</ele><time>2026-04-30T10:10:36Z</time></trkpt><trkpt lat="31.446156681940806" lon="-4.457028932136083"><ele>825.75</ele><time>2026-04-30T10:10:37Z</time></trkpt><trkpt lat="31.446038701491364" lon="-4.457022514367385"><ele>825.0</ele><time>2026-04-30T10:10:38Z</time></trkpt><trkpt lat="31.44591768871433" lon="-4.457016619751173"><ele>825.0</ele><time>2026-04-30T10:10:39Z</time></trkpt><trkpt lat="31.445794596736377" lon="-4.457010496807543"><ele>825.0</ele><time>2026-04-30T10:10:40Z</time></trkpt><trkpt lat="31.445673543722464" lon="-4.457004342431506"><ele>825.0</ele><time>2026-04-30T10:10:41Z</time></trkpt><trkpt lat="31.445545601748297" lon="-4.456997901804172"><ele>825.0</ele><time>2026-04-30T10:10:42Z</time></trkpt><trkpt lat="31.445422711557875" lon="-4.45699248996068"><ele>825.0</ele><time>2026-04-30T10:10:43Z</time></trkpt><trkpt lat="31.445293427541582" lon="-4.456986557761398"><ele>825.0</ele><time>2026-04-30T10:10:44Z</time></trkpt><trkpt lat="31.4451601574848" lon="-4.456980231276648"><ele>825.0</ele><time>2026-04-30T10:10:45Z</time></trkpt><trkpt lat="31.445028811744283" lon="-4.456973558467099"><ele>825.0</ele><time>2026-04-30T10:10:46Z</time></trkpt><trkpt lat="31.44489652281175" lon="-4.456966456887462"><ele>825.0</ele><time>2026-04-30T10:10:47Z</time></trkpt><trkpt lat="31.444764593774455" lon="-4.456959665466261"><ele>825.0</ele><time>2026-04-30T10:10:48Z</time></trkpt><trkpt lat="31.444638739534035" lon="-4.4569538491987934"><ele>825.0</ele><time>2026-04-30T10:10:49Z</time></trkpt><trkpt lat="31.444511706665846" lon="-4.456947504096353"><ele>825.0</ele><time>2026-04-30T10:10:50Z</time></trkpt><trkpt lat="31.444365637014513" lon="-4.456904243856166"><ele>826.0</ele><time>2026-04-30T10:10:51Z</time></trkpt><trkpt lat="31.444250298053078" lon="-4.45687038257928"><ele>827.0</ele><time>2026-04-30T10:10:52Z</time></trkpt><trkpt lat="31.444137627330672" lon="-4.4568372596262735"><ele>828.0</ele><time>2026-04-30T10:10:53Z</time></trkpt><trkpt lat="31.44401980639522" lon="-4.456802622612108"><ele>829.0</ele><time>2026-04-30T10:10:54Z</time></trkpt><trkpt lat="31.443900796125444" lon="-4.456759465131504"><ele>829.0</ele><time>2026-04-30T10:10:55Z</time></trkpt><trkpt lat="31.44379723275838" lon="-4.4567308588599115"><ele>829.0</ele><time>2026-04-30T10:10:55.999Z</time></trkpt><trkpt lat="31.44368176584516" lon="-4.456720743420112"><ele>829.0</ele><time>2026-04-30T10:10:56.999Z</time></trkpt><trkpt lat="31.443563703746506" lon="-4.456710400630926"><ele>829.0</ele><time>2026-04-30T10:10:57.999Z</time></trkpt><trkpt lat="31.443454890971683" lon="-4.4567008681255205"><ele>828.2</ele><time>2026-04-30T10:10:58.999Z</time></trkpt><trkpt lat="31.443342092504384" lon="-4.4566909864543955"><ele>827.4000000000001</ele><time>2026-04-30T10:10:59.999Z</time></trkpt><trkpt lat="31.443252101303788" lon="-4.456710747501368"><ele>826.6</ele><time>2026-04-30T10:11:00.999Z</time></trkpt><trkpt lat="31.44314278652555" lon="-4.456730799860598"><ele>825.8</ele><time>2026-04-30T10:11:01.999Z</time></trkpt><trkpt lat="31.44302564034582" lon="-4.456752291511178"><ele>825.0</ele><time>2026-04-30T10:11:02.999Z</time></trkpt><trkpt lat="31.442911733466993" lon="-4.4567731181082015"><ele>825.0</ele><time>2026-04-30T10:11:03.999Z</time></trkpt><trkpt lat="31.44280316429127" lon="-4.456793087794396"><ele>825.0</ele><time>2026-04-30T10:11:04.999Z</time></trkpt><trkpt lat="31.442686126581325" lon="-4.45681471915388"><ele>825.0</ele><time>2026-04-30T10:11:05.999Z</time></trkpt><trkpt lat="31.442571721126363" lon="-4.456836515886862"><ele>825.0</ele><time>2026-04-30T10:11:06.999Z</time></trkpt><trkpt lat="31.442451419116352" lon="-4.456858722965299"><ele>825.0</ele><time>2026-04-30T10:11:07.999Z</time></trkpt><trkpt lat="31.442325577036968" lon="-4.456881952709501"><ele>825.0</ele><time>2026-04-30T10:11:08.999Z</time></trkpt><trkpt lat="31.44220330414886" lon="-4.456904523602896"><ele>825.0</ele><time>2026-04-30T10:11:09.999Z</time></trkpt><trkpt lat="31.442089549157874" lon="-4.456925522137417"><ele>825.0</ele><time>2026-04-30T10:11:10.999Z</time></trkpt><trkpt lat="31.44197971940965" lon="-4.456945796094787"><ele>826.0</ele><time>2026-04-30T10:11:11.999Z</time></trkpt><trkpt lat="31.441866723733664" lon="-4.456966654464805"><ele>827.0</ele><time>2026-04-30T10:11:12.999Z</time></trkpt><trkpt lat="31.441752172299115" lon="-4.456987957851443"><ele>828.0</ele><time>2026-04-30T10:11:13.999Z</time></trkpt><trkpt lat="31.4416402074918" lon="-4.457008799613011"><ele>829.0</ele><time>2026-04-30T10:11:14.999Z</time></trkpt><trkpt lat="31.441531622070304" lon="-4.457028886468607"><ele>829.0</ele><time>2026-04-30T10:11:15.999Z</time></trkpt><trkpt lat="31.441427179327725" lon="-4.4570486697686995"><ele>829.0</ele><time>2026-04-30T10:11:16.999Z</time></trkpt><trkpt lat="31.441332389576065" lon="-4.45706592708459"><ele>829.0</ele><time>2026-04-30T10:11:17.999Z</time></trkpt><trkpt lat="31.44123393493649" lon="-4.457083851631516"><ele>829.0</ele><time>2026-04-30T10:11:18.999Z</time></trkpt><trkpt lat="31.441109763195882" lon="-4.457105231986258"><ele>829.0</ele><time>2026-04-30T10:11:19.999Z</time></trkpt><trkpt lat="31.44100930353447" lon="-4.457110863606041"><ele>828.4000000000001</ele><time>2026-04-30T10:11:20.999Z</time></trkpt><trkpt lat="31.44091903498881" lon="-4.4571159239252545"><ele>827.8</ele><time>2026-04-30T10:11:21.999Z</time></trkpt><trkpt lat="31.440835074096114" lon="-4.45712063064181"><ele>827.2</ele><time>2026-04-30T10:11:22.999Z</time></trkpt><trkpt lat="31.440744418235692" lon="-4.457125767415009"><ele>826.5999999999999</ele><time>2026-04-30T10:11:23.999Z</time></trkpt><trkpt lat="31.44064674602144" lon="-4.457131304228935"><ele>826.0</ele><time>2026-04-30T10:11:24.999Z</time></trkpt><trkpt lat="31.440552879870012" lon="-4.457136625291148"><ele>825.5999999999999</ele><time>2026-04-30T10:11:25.999Z</time></trkpt><trkpt lat="31.440457553539304" lon="-4.457142029122285"><ele>825.2</ele><time>2026-04-30T10:11:26.999Z</time></trkpt><trkpt lat="31.440360329790973" lon="-4.457147459488915"><ele>824.8</ele><time>2026-04-30T10:11:27.999Z</time></trkpt><trkpt lat="31.440263571394773" lon="-4.457152767001625"><ele>824.4000000000001</ele><time>2026-04-30T10:11:28.999Z</time></trkpt><trkpt lat="31.44016531130059" lon="-4.457158156856921"><ele>824.0</ele><time>2026-04-30T10:11:29.999Z</time></trkpt><trkpt lat="31.440065296417167" lon="-4.457163642986671"><ele>824.0</ele><time>2026-04-30T10:11:30.999Z</time></trkpt><trkpt lat="31.439968336756465" lon="-4.457168961523819"><ele>824.0</ele><time>2026-04-30T10:11:31.999Z</time></trkpt><trkpt lat="31.439868099209242" lon="-4.457174459867737"><ele>824.0</ele><time>2026-04-30T10:11:32.999Z</time></trkpt><trkpt lat="31.43976878908684" lon="-4.457179959264853"><ele>824.0</ele><time>2026-04-30T10:11:33.999Z</time></trkpt><trkpt lat="31.43966623907303" lon="-4.457185638853546"><ele>824.0</ele><time>2026-04-30T10:11:34.999Z</time></trkpt><trkpt lat="31.43953839202001" lon="-4.457188193166776"><ele>823.8000000000001</ele><time>2026-04-30T10:11:35.999Z</time></trkpt><trkpt lat="31.43943453332635" lon="-4.4571811425818035"><ele>823.6</ele><time>2026-04-30T10:11:36.999Z</time></trkpt><trkpt lat="31.43933200863207" lon="-4.457174182543848"><ele>823.4</ele><time>2026-04-30T10:11:38Z</time></trkpt><trkpt lat="31.439233086031905" lon="-4.457167467045606"><ele>823.2</ele><time>2026-04-30T10:11:39Z</time></trkpt><trkpt lat="31.43912674594046" lon="-4.457160047465496"><ele>823.0</ele><time>2026-04-30T10:11:40Z</time></trkpt><trkpt lat="31.43901725848872" lon="-4.457152059887497"><ele>823.0</ele><time>2026-04-30T10:11:41Z</time></trkpt><trkpt lat="31.438905514665628" lon="-4.457144055882881"><ele>823.0</ele><time>2026-04-30T10:11:42Z</time></trkpt><trkpt lat="31.438788933775367" lon="-4.457135705407632"><ele>823.0</ele><time>2026-04-30T10:11:43Z</time></trkpt><trkpt lat="31.438676877336167" lon="-4.457127679017018"><ele>823.0</ele><time>2026-04-30T10:11:44Z</time></trkpt><trkpt lat="31.438572906714867" lon="-4.457120821676897"><ele>823.0</ele><time>2026-04-30T10:11:45Z</time></trkpt><trkpt lat="31.43846549094426" lon="-4.457113750036499"><ele>823.0</ele><time>2026-04-30T10:11:46Z</time></trkpt><trkpt lat="31.4383642481954" lon="-4.457106713024684"><ele>823.0</ele><time>2026-04-30T10:11:47Z</time></trkpt><trkpt lat="31.438258170088105" lon="-4.4570988750047364"><ele>823.0</ele><time>2026-04-30T10:11:48Z</time></trkpt><trkpt lat="31.438156584498298" lon="-4.457091630200625"><ele>823.0</ele><time>2026-04-30T10:11:49Z</time></trkpt><trkpt lat="31.438050141813843" lon="-4.457084285102624"><ele>823.0</ele><time>2026-04-30T10:11:50Z</time></trkpt><trkpt lat="31.43794582825032" lon="-4.457077237885467"><ele>823.0</ele><time>2026-04-30T10:11:51Z</time></trkpt><trkpt lat="31.437846802834276" lon="-4.457072265884483"><ele>823.0</ele><time>2026-04-30T10:11:52Z</time></trkpt><trkpt lat="31.437743674651937" lon="-4.457068970837531"><ele>823.0</ele><time>2026-04-30T10:11:53Z</time></trkpt><trkpt lat="31.43763962570268" lon="-4.457066385640466"><ele>823.0</ele><time>2026-04-30T10:11:54Z</time></trkpt><trkpt lat="31.43754120128307" lon="-4.457064426708338"><ele>823.0</ele><time>2026-04-30T10:11:55Z</time></trkpt><trkpt lat="31.43743472317357" lon="-4.457061794123065"><ele>823.0</ele><time>2026-04-30T10:11:56Z</time></trkpt><trkpt lat="31.437331239550154" lon="-4.457059034460938"><ele>823.0</ele><time>2026-04-30T10:11:57Z</time></trkpt><trkpt lat="31.437228180470274" lon="-4.457056614811538"><ele>823.0</ele><time>2026-04-30T10:11:58Z</time></trkpt><trkpt lat="31.437124204550575" lon="-4.457047867174069"><ele>823.0</ele><time>2026-04-30T10:11:59Z</time></trkpt><trkpt lat="31.43701972006219" lon="-4.457063152855112"><ele>823.0</ele><time>2026-04-30T10:12:00Z</time></trkpt><trkpt lat="31.43692250895689" lon="-4.4570500769899475"><ele>822.8</ele><time>2026-04-30T10:12:01Z</time></trkpt><trkpt lat="31.436823689237023" lon="-4.457063058654008"><ele>822.5999999999999</ele><time>2026-04-30T10:12:02Z</time></trkpt><trkpt lat="31.436720052663752" lon="-4.457067537905331"><ele>822.4000000000001</ele><time>2026-04-30T10:12:03Z</time></trkpt><trkpt lat="31.436617586852382" lon="-4.457075037307007"><ele>822.2</ele><time>2026-04-30T10:12:04Z</time></trkpt><trkpt lat="31.436515387836224" lon="-4.45708254259168"><ele>822.0</ele><time>2026-04-30T10:12:05Z</time></trkpt><trkpt lat="31.43641871784207" lon="-4.4570803436290225"><ele>822.0</ele><time>2026-04-30T10:12:06Z</time></trkpt><trkpt lat="31.436326053048692" lon="-4.457099374359494"><ele>822.0</ele><time>2026-04-30T10:12:07Z</time></trkpt><trkpt lat="31.43622808211467" lon="-4.457112109605144"><ele>822.0</ele><time>2026-04-30T10:12:08Z</time></trkpt><trkpt lat="31.436129470287472" lon="-4.457123065494596"><ele>822.0</ele><time>2026-04-30T10:12:09Z</time></trkpt><trkpt lat="31.436036669607557" lon="-4.4571354600754125"><ele>822.0</ele><time>2026-04-30T10:12:10Z</time></trkpt><trkpt lat="31.43593961313456" lon="-4.457145268559263"><ele>822.4000000000001</ele><time>2026-04-30T10:12:11Z</time></trkpt><trkpt lat="31.4358409434147" lon="-4.457175265557408"><ele>822.8000000000001</ele><time>2026-04-30T10:12:12Z</time></trkpt><trkpt lat="31.43573826723912" lon="-4.457188754938581"><ele>823.2</ele><time>2026-04-30T10:12:13Z</time></trkpt><trkpt lat="31.435641197966874" lon="-4.457201507713183"><ele>823.6</ele><time>2026-04-30T10:12:14Z</time></trkpt><trkpt lat="31.435538097737005" lon="-4.457215135947777"><ele>824.0</ele><time>2026-04-30T10:12:15Z</time></trkpt><trkpt lat="31.435435931516107" lon="-4.457227601904627"><ele>824.8000000000001</ele><time>2026-04-30T10:12:16Z</time></trkpt><trkpt lat="31.435323552105643" lon="-4.457233173107922"><ele>825.6</ele><time>2026-04-30T10:12:17Z</time></trkpt><trkpt lat="31.435210408656474" lon="-4.457239073557714"><ele>826.4</ele><time>2026-04-30T10:12:18Z</time></trkpt><trkpt lat="31.43510330087329" lon="-4.457244659270225"><ele>827.2</ele><time>2026-04-30T10:12:19Z</time></trkpt><trkpt lat="31.434991832711308" lon="-4.45725047236431"><ele>828.0</ele><time>2026-04-30T10:12:20Z</time></trkpt><trkpt lat="31.43488150197414" lon="-4.457256226123348"><ele>828.0</ele><time>2026-04-30T10:12:21Z</time></trkpt><trkpt lat="31.434775795729475" lon="-4.457245013348099"><ele>828.0</ele><time>2026-04-30T10:12:22Z</time></trkpt><trkpt lat="31.43467581269615" lon="-4.457266655034155"><ele>828.0</ele><time>2026-04-30T10:12:23Z</time></trkpt><trkpt lat="31.43457081929227" lon="-4.4572613580445894"><ele>828.0</ele><time>2026-04-30T10:12:24Z</time></trkpt><trkpt lat="31.434468517292046" lon="-4.457266844466317"><ele>828.0</ele><time>2026-04-30T10:12:25Z</time></trkpt><trkpt lat="31.434358728703852" lon="-4.4572755939678785"><ele>828.0</ele><time>2026-04-30T10:12:26Z</time></trkpt><trkpt lat="31.43425804198411" lon="-4.457294155533363"><ele>828.0</ele><time>2026-04-30T10:12:27Z</time></trkpt><trkpt lat="31.434151847533144" lon="-4.457307742647671"><ele>828.0</ele><time>2026-04-30T10:12:28Z</time></trkpt><trkpt lat="31.434053142604288" lon="-4.457326424750027"><ele>828.0</ele><time>2026-04-30T10:12:29Z</time></trkpt><trkpt lat="31.43395387472152" lon="-4.457346475333551"><ele>828.0</ele><time>2026-04-30T10:12:30Z</time></trkpt><trkpt lat="31.433859366462308" lon="-4.45736556455268"><ele>828.0</ele><time>2026-04-30T10:12:31Z</time></trkpt><trkpt lat="31.433759269231125" lon="-4.457396949273532"><ele>828.0</ele><time>2026-04-30T10:12:32Z</time></trkpt><trkpt lat="31.43365446889298" lon="-4.457406621216163"><ele>828.0</ele><time>2026-04-30T10:12:33Z</time></trkpt><trkpt lat="31.433552843404843" lon="-4.457417666365698"><ele>828.0</ele><time>2026-04-30T10:12:34Z</time></trkpt><trkpt lat="31.43345003437854" lon="-4.457434424057136"><ele>828.0</ele><time>2026-04-30T10:12:35Z</time></trkpt><trkpt lat="31.43334357948853" lon="-4.457453770109223"><ele>828.0</ele><time>2026-04-30T10:12:36Z</time></trkpt><trkpt lat="31.433237383641156" lon="-4.457471288212721"><ele>828.0</ele><time>2026-04-30T10:12:37Z</time></trkpt><trkpt lat="31.433127339311405" lon="-4.4574915707895455"><ele>828.0</ele><time>2026-04-30T10:12:38Z</time></trkpt><trkpt lat="31.433017048489987" lon="-4.457510764594669"><ele>828.0</ele><time>2026-04-30T10:12:39Z</time></trkpt><trkpt lat="31.432915916959253" lon="-4.457505234173077"><ele>828.0</ele><time>2026-04-30T10:12:40Z</time></trkpt><trkpt lat="31.432809500407767" lon="-4.457521382047293"><ele>827.8</ele><time>2026-04-30T10:12:41Z</time></trkpt><trkpt lat="31.43270651656963" lon="-4.4575080075313185"><ele>827.5999999999999</ele><time>2026-04-30T10:12:42Z</time></trkpt><trkpt lat="31.432605042357135" lon="-4.457509388839273"><ele>827.4000000000001</ele><time>2026-04-30T10:12:43Z</time></trkpt><trkpt lat="31.43249775107837" lon="-4.4575108493332625"><ele>827.2</ele><time>2026-04-30T10:12:44Z</time></trkpt><trkpt lat="31.432389106423113" lon="-4.457512328249597"><ele>827.0</ele><time>2026-04-30T10:12:45Z</time></trkpt><trkpt lat="31.43228422224751" lon="-4.457513755975831"><ele>827.0</ele><time>2026-04-30T10:12:46Z</time></trkpt><trkpt lat="31.432180638082706" lon="-4.457515166006481"><ele>827.0</ele><time>2026-04-30T10:12:47Z</time></trkpt><trkpt lat="31.432086056524867" lon="-4.457501892442423"><ele>827.0</ele><time>2026-04-30T10:12:48Z</time></trkpt><trkpt lat="31.431983349059376" lon="-4.45748742057111"><ele>827.0</ele><time>2026-04-30T10:12:49Z</time></trkpt><trkpt lat="31.431879011890825" lon="-4.457472719066566"><ele>827.0</ele><time>2026-04-30T10:12:50Z</time></trkpt><trkpt lat="31.43177357580783" lon="-4.457457862728529"><ele>827.0</ele><time>2026-04-30T10:12:51Z</time></trkpt><trkpt lat="31.43166688556484" lon="-4.457442829669013"><ele>827.0</ele><time>2026-04-30T10:12:52Z</time></trkpt><trkpt lat="31.431562485345353" lon="-4.457427636680257"><ele>827.0</ele><time>2026-04-30T10:12:53Z</time></trkpt><trkpt lat="31.43145967223015" lon="-4.457410198831248"><ele>827.0</ele><time>2026-04-30T10:12:54Z</time></trkpt><trkpt lat="31.431356080064337" lon="-4.457392628859871"><ele>827.0</ele><time>2026-04-30T10:12:55Z</time></trkpt><trkpt lat="31.431255447430367" lon="-4.457375560841706"><ele>826.4000000000001</ele><time>2026-04-30T10:12:56Z</time></trkpt><trkpt lat="31.431151673124084" lon="-4.457357959974581"><ele>825.8000000000001</ele><time>2026-04-30T10:12:57Z</time></trkpt><trkpt lat="31.431049229654207" lon="-4.457340584827463"><ele>825.2</ele><time>2026-04-30T10:12:58Z</time></trkpt><trkpt lat="31.430934213913694" lon="-4.457324806247439"><ele>824.6</ele><time>2026-04-30T10:12:59Z</time></trkpt><trkpt lat="31.430831746023912" lon="-4.457315980855441"><ele>824.0</ele><time>2026-04-30T10:13:00Z</time></trkpt><trkpt lat="31.430729865224894" lon="-4.457307206033777"><ele>824.0</ele><time>2026-04-30T10:13:01Z</time></trkpt><trkpt lat="31.43062858431711" lon="-4.4572984828707325"><ele>824.0</ele><time>2026-04-30T10:13:02Z</time></trkpt><trkpt lat="31.430525757232676" lon="-4.457289626543833"><ele>824.0</ele><time>2026-04-30T10:13:03Z</time></trkpt><trkpt lat="31.430424699449127" lon="-4.457280650859678"><ele>824.0</ele><time>2026-04-30T10:13:04Z</time></trkpt><trkpt lat="31.43031695421464" lon="-4.457271442380037"><ele>824.0</ele><time>2026-04-30T10:13:05Z</time></trkpt><trkpt lat="31.430216018449904" lon="-4.4572632366576"><ele>824.4000000000001</ele><time>2026-04-30T10:13:06Z</time></trkpt><trkpt lat="31.430110881371192" lon="-4.4572547305808055"><ele>824.8</ele><time>2026-04-30T10:13:07Z</time></trkpt><trkpt lat="31.430005227444404" lon="-4.457245590426946"><ele>825.2</ele><time>2026-04-30T10:13:08Z</time></trkpt><trkpt lat="31.42990251251749" lon="-4.457236704545621"><ele>825.5999999999999</ele><time>2026-04-30T10:13:09Z</time></trkpt><trkpt lat="31.42980056029797" lon="-4.457227884626618"><ele>826.0</ele><time>2026-04-30T10:13:10Z</time></trkpt><trkpt lat="31.429712000039633" lon="-4.457215513819944"><ele>826.1999999999999</ele><time>2026-04-30T10:13:11Z</time></trkpt><trkpt lat="31.429609894824054" lon="-4.457200322247763"><ele>826.4</ele><time>2026-04-30T10:13:12Z</time></trkpt><trkpt lat="31.42950096550462" lon="-4.4571837112876205"><ele>826.6</ele><time>2026-04-30T10:13:13Z</time></trkpt><trkpt lat="31.429396675924057" lon="-4.457168229920064"><ele>826.8</ele><time>2026-04-30T10:13:14Z</time></trkpt><trkpt lat="31.429290002047992" lon="-4.457152354599344"><ele>827.0</ele><time>2026-04-30T10:13:15Z</time></trkpt><trkpt lat="31.429192622670545" lon="-4.457137862494614"><ele>827.0</ele><time>2026-04-30T10:13:16Z</time></trkpt><trkpt lat="31.42908430923624" lon="-4.457121743172029"><ele>827.0</ele><time>2026-04-30T10:13:17Z</time></trkpt><trkpt lat="31.428984532948213" lon="-4.4571068943568175"><ele>827.0</ele><time>2026-04-30T10:13:18Z</time></trkpt><trkpt lat="31.42888110643988" lon="-4.457091502312206"><ele>827.0</ele><time>2026-04-30T10:13:19Z</time></trkpt><trkpt lat="31.428774086657096" lon="-4.457075575512608"><ele>827.0</ele><time>2026-04-30T10:13:20Z</time></trkpt><trkpt lat="31.428668879049482" lon="-4.457060155537699"><ele>826.4000000000001</ele><time>2026-04-30T10:13:21Z</time></trkpt><trkpt lat="31.428569510191185" lon="-4.457045828418331"><ele>825.8000000000001</ele><time>2026-04-30T10:13:22Z</time></trkpt><trkpt lat="31.428467379503225" lon="-4.457030722438516"><ele>825.2</ele><time>2026-04-30T10:13:23Z</time></trkpt><trkpt lat="31.428365620270583" lon="-4.457015315701212"><ele>824.6</ele><time>2026-04-30T10:13:24Z</time></trkpt><trkpt lat="31.428265872309122" lon="-4.457000213477995"><ele>824.0</ele><time>2026-04-30T10:13:25Z</time></trkpt><trkpt lat="31.42816819708644" lon="-4.4569854250754455"><ele>824.0</ele><time>2026-04-30T10:13:26Z</time></trkpt><trkpt lat="31.42806960596895" lon="-4.4569753035547315"><ele>824.0</ele><time>2026-04-30T10:13:27Z</time></trkpt><trkpt lat="31.42796556110361" lon="-4.4569548433283"><ele>824.0</ele><time>2026-04-30T10:13:28Z</time></trkpt><trkpt lat="31.42786435464157" lon="-4.456913321035736"><ele>824.0</ele><time>2026-04-30T10:13:29Z</time></trkpt><trkpt lat="31.427771174259075" lon="-4.4568688917823795"><ele>824.0</ele><time>2026-04-30T10:13:30Z</time></trkpt><trkpt lat="31.427673048504804" lon="-4.456843960588189"><ele>824.4000000000001</ele><time>2026-04-30T10:13:31Z</time></trkpt><trkpt lat="31.427567326387322" lon="-4.4568234843409495"><ele>824.8</ele><time>2026-04-30T10:13:32Z</time></trkpt><trkpt lat="31.42747251241946" lon="-4.456794794042074"><ele>825.2</ele><time>2026-04-30T10:13:33Z</time></trkpt><trkpt lat="31.427379947753174" lon="-4.456767181164064"><ele>825.5999999999999</ele><time>2026-04-30T10:13:34Z</time></trkpt><trkpt lat="31.427283335830513" lon="-4.456739565673697"><ele>826.0</ele><time>2026-04-30T10:13:35Z</time></trkpt><trkpt lat="31.42719137042139" lon="-4.4567005572822636"><ele>826.1999999999999</ele><time>2026-04-30T10:13:36Z</time></trkpt><trkpt lat="31.42710474156906" lon="-4.456645339005811"><ele>826.4</ele><time>2026-04-30T10:13:37Z</time></trkpt><trkpt lat="31.427008778992626" lon="-4.456623108620224"><ele>826.6</ele><time>2026-04-30T10:13:38Z</time></trkpt><trkpt lat="31.4269202451066" lon="-4.456585555756414"><ele>826.8</ele><time>2026-04-30T10:13:39Z</time></trkpt><trkpt lat="31.426830355638835" lon="-4.456547427902861"><ele>827.0</ele><time>2026-04-30T10:13:40Z</time></trkpt><trkpt lat="31.426734696496634" lon="-4.456506852764881"><ele>827.0</ele><time>2026-04-30T10:13:41Z</time></trkpt><trkpt lat="31.426636324587953" lon="-4.4564651269681566"><ele>827.0</ele><time>2026-04-30T10:13:42Z</time></trkpt><trkpt lat="31.426540638939965" lon="-4.456424408657752"><ele>827.0</ele><time>2026-04-30T10:13:43Z</time></trkpt><trkpt lat="31.426446396434812" lon="-4.456384277881819"><ele>827.0</ele><time>2026-04-30T10:13:44Z</time></trkpt><trkpt lat="31.426354465990123" lon="-4.456326673266386"><ele>827.0</ele><time>2026-04-30T10:13:45Z</time></trkpt><trkpt lat="31.426266241201333" lon="-4.4562709081586105"><ele>826.8</ele><time>2026-04-30T10:13:46Z</time></trkpt><trkpt lat="31.426168826183485" lon="-4.456209334092647"><ele>826.6</ele><time>2026-04-30T10:13:47Z</time></trkpt><trkpt lat="31.426078822300614" lon="-4.456152444456855"><ele>826.4</ele><time>2026-04-30T10:13:48Z</time></trkpt><trkpt lat="31.425995380350713" lon="-4.456099702485855"><ele>826.1999999999999</ele><time>2026-04-30T10:13:49Z</time></trkpt><trkpt lat="31.425911938544097" lon="-4.456046960606361"><ele>826.0</ele><time>2026-04-30T10:13:50Z</time></trkpt><trkpt lat="31.425823888643652" lon="-4.4559913060426135"><ele>826.0</ele><time>2026-04-30T10:13:51Z</time></trkpt><trkpt lat="31.425732632256267" lon="-4.455933624723254"><ele>826.0</ele><time>2026-04-30T10:13:52Z</time></trkpt><trkpt lat="31.425644836713687" lon="-4.455878130934199"><ele>826.0</ele><time>2026-04-30T10:13:53Z</time></trkpt><trkpt lat="31.42555594594256" lon="-4.455821944875009"><ele>826.0</ele><time>2026-04-30T10:13:54Z</time></trkpt><trkpt lat="31.42545938121464" lon="-4.455760999255208"><ele>826.0</ele><time>2026-04-30T10:13:55Z</time></trkpt><trkpt lat="31.425365107381985" lon="-4.455688547696957"><ele>825.8</ele><time>2026-04-30T10:13:56Z</time></trkpt><trkpt lat="31.42527649921437" lon="-4.455620156206873"><ele>825.5999999999999</ele><time>2026-04-30T10:13:57Z</time></trkpt><trkpt lat="31.425190021516194" lon="-4.455553409106187"><ele>825.4</ele><time>2026-04-30T10:13:58Z</time></trkpt><trkpt lat="31.42510873406636" lon="-4.455490668054112"><ele>825.2</ele><time>2026-04-30T10:13:59Z</time></trkpt><trkpt lat="31.425026447947072" lon="-4.45542557458426"><ele>825.0</ele><time>2026-04-30T10:14:00Z</time></trkpt><trkpt lat="31.42494936403168" lon="-4.455362433495567"><ele>825.0</ele><time>2026-04-30T10:14:01Z</time></trkpt><trkpt lat="31.424868879336714" lon="-4.4552965067553725"><ele>825.0</ele><time>2026-04-30T10:14:02Z</time></trkpt><trkpt lat="31.42479060891328" lon="-4.455232393773225"><ele>825.0</ele><time>2026-04-30T10:14:03Z</time></trkpt><trkpt lat="31.424709455994947" lon="-4.455165919677196"><ele>825.0</ele><time>2026-04-30T10:14:04Z</time></trkpt><trkpt lat="31.424627145188264" lon="-4.455098197075554"><ele>825.0</ele><time>2026-04-30T10:14:05Z</time></trkpt><trkpt lat="31.424549196294212" lon="-4.45503086248302"><ele>824.8</ele><time>2026-04-30T10:14:06Z</time></trkpt><trkpt lat="31.424474965078087" lon="-4.4549667393533445"><ele>824.6</ele><time>2026-04-30T10:14:07Z</time></trkpt><trkpt lat="31.424401063008617" lon="-4.4549029005446"><ele>824.4000000000001</ele><time>2026-04-30T10:14:08Z</time></trkpt><trkpt lat="31.424328183978965" lon="-4.454833366539847"><ele>824.2</ele><time>2026-04-30T10:14:09Z</time></trkpt><trkpt lat="31.424242734785665" lon="-4.45476394395107"><ele>824.0</ele><time>2026-04-30T10:14:10Z</time></trkpt><trkpt lat="31.424174581006046" lon="-4.454678814512549"><ele>824.2</ele><time>2026-04-30T10:14:11Z</time></trkpt><trkpt lat="31.424086370402566" lon="-4.454612218935248"><ele>824.4000000000001</ele><time>2026-04-30T10:14:12Z</time></trkpt><trkpt lat="31.42400819939711" lon="-4.454535871767076"><ele>824.6</ele><time>2026-04-30T10:14:13Z</time></trkpt><trkpt lat="31.423925939631484" lon="-4.4544741839728506"><ele>824.8</ele><time>2026-04-30T10:14:14Z</time></trkpt><trkpt lat="31.423864056130483" lon="-4.454386127434748"><ele>825.0</ele><time>2026-04-30T10:14:15Z</time></trkpt><trkpt lat="31.423793821922487" lon="-4.454308149920554"><ele>825.0</ele><time>2026-04-30T10:14:16Z</time></trkpt><trkpt lat="31.423723890404865" lon="-4.454229325141075"><ele>825.0</ele><time>2026-04-30T10:14:17Z</time></trkpt><trkpt lat="31.42365562506217" lon="-4.454147751788062"><ele>825.0</ele><time>2026-04-30T10:14:18Z</time></trkpt><trkpt lat="31.42358568830683" lon="-4.4540819979335"><ele>825.0</ele><time>2026-04-30T10:14:19Z</time></trkpt><trkpt lat="31.42351877559459" lon="-4.45401916310082"><ele>825.0</ele><time>2026-04-30T10:14:20Z</time></trkpt><trkpt lat="31.423459109032244" lon="-4.453953434487819"><ele>825.0</ele><time>2026-04-30T10:14:21Z</time></trkpt><trkpt lat="31.42339617804895" lon="-4.453887128681783"><ele>825.0</ele><time>2026-04-30T10:14:22Z</time></trkpt><trkpt lat="31.42332880692021" lon="-4.453832896853319"><ele>825.0</ele><time>2026-04-30T10:14:23Z</time></trkpt><trkpt lat="31.423259612739777" lon="-4.453767278222278"><ele>825.0</ele><time>2026-04-30T10:14:24Z</time></trkpt><trkpt lat="31.423181991541096" lon="-4.453709709771402"><ele>825.0</ele><time>2026-04-30T10:14:25Z</time></trkpt><trkpt lat="31.423110173195806" lon="-4.453646969239075"><ele>825.0</ele><time>2026-04-30T10:14:26Z</time></trkpt><trkpt lat="31.423025349312585" lon="-4.453600110100002"><ele>824.6</ele><time>2026-04-30T10:14:27Z</time></trkpt><trkpt lat="31.422960522287973" lon="-4.453516525839021"><ele>824.2</ele><time>2026-04-30T10:14:28Z</time></trkpt><trkpt lat="31.422885085421722" lon="-4.453455735045379"><ele>823.8</ele><time>2026-04-30T10:14:29Z</time></trkpt><trkpt lat="31.42280382548824" lon="-4.453387776898827"><ele>823.4</ele><time>2026-04-30T10:14:30Z</time></trkpt><trkpt lat="31.422729975484366" lon="-4.45332277628465"><ele>823.0</ele><time>2026-04-30T10:14:31Z</time></trkpt><trkpt lat="31.42265247435518" lon="-4.453257854681889"><ele>823.0</ele><time>2026-04-30T10:14:32Z</time></trkpt><trkpt lat="31.422576955614147" lon="-4.453187542264958"><ele>823.0</ele><time>2026-04-30T10:14:33Z</time></trkpt><trkpt lat="31.422500162733307" lon="-4.45312455067291"><ele>823.0</ele><time>2026-04-30T10:14:34Z</time></trkpt><trkpt lat="31.422427190980198" lon="-4.453049403411365"><ele>823.0</ele><time>2026-04-30T10:14:35Z</time></trkpt><trkpt lat="31.422345248372967" lon="-4.452979341065227"><ele>823.0</ele><time>2026-04-30T10:14:36Z</time></trkpt><trkpt lat="31.422265221487454" lon="-4.45290789701288"><ele>823.0</ele><time>2026-04-30T10:14:37Z</time></trkpt><trkpt lat="31.42219256417781" lon="-4.452848570615525"><ele>823.0</ele><time>2026-04-30T10:14:38Z</time></trkpt><trkpt lat="31.422113113020337" lon="-4.452776048789516"><ele>823.0</ele><time>2026-04-30T10:14:39Z</time></trkpt><trkpt lat="31.4220202336798" lon="-4.452728643682768"><ele>823.0</ele><time>2026-04-30T10:14:40Z</time></trkpt><trkpt lat="31.421938434338827" lon="-4.452655431405114"><ele>823.0</ele><time>2026-04-30T10:14:41Z</time></trkpt><trkpt lat="31.421869242187594" lon="-4.452575922305049"><ele>823.0</ele><time>2026-04-30T10:14:42Z</time></trkpt><trkpt lat="31.421784129361146" lon="-4.452510984407219"><ele>823.0</ele><time>2026-04-30T10:14:43Z</time></trkpt><trkpt lat="31.4217166172217" lon="-4.4524224192617545"><ele>823.0</ele><time>2026-04-30T10:14:44Z</time></trkpt><trkpt lat="31.42163805612331" lon="-4.4523505968052595"><ele>823.0</ele><time>2026-04-30T10:14:45Z</time></trkpt><trkpt lat="31.421560925153624" lon="-4.452276389806035"><ele>823.0</ele><time>2026-04-30T10:14:46Z</time></trkpt><trkpt lat="31.421478664958958" lon="-4.452196312329532"><ele>823.0</ele><time>2026-04-30T10:14:47Z</time></trkpt><trkpt lat="31.421385401368852" lon="-4.452132237808868"><ele>823.0</ele><time>2026-04-30T10:14:48Z</time></trkpt><trkpt lat="31.421309930075054" lon="-4.452045962197807"><ele>823.0</ele><time>2026-04-30T10:14:49Z</time></trkpt><trkpt lat="31.42123155023971" lon="-4.451971413312779"><ele>823.0</ele><time>2026-04-30T10:14:50Z</time></trkpt><trkpt lat="31.421152689949505" lon="-4.451885092115942"><ele>823.0</ele><time>2026-04-30T10:14:51Z</time></trkpt><trkpt lat="31.421071613573083" lon="-4.451796345172254"><ele>822.8</ele><time>2026-04-30T10:14:52Z</time></trkpt><trkpt lat="31.420992792482018" lon="-4.451710066900516"><ele>822.5999999999999</ele><time>2026-04-30T10:14:53Z</time></trkpt><trkpt lat="31.42091355284776" lon="-4.451623330498573"><ele>822.4000000000001</ele><time>2026-04-30T10:14:54Z</time></trkpt><trkpt lat="31.42083698750951" lon="-4.451539428100913"><ele>822.2</ele><time>2026-04-30T10:14:55Z</time></trkpt><trkpt lat="31.42076247316448" lon="-4.451457597423342"><ele>822.0</ele><time>2026-04-30T10:14:56Z</time></trkpt><trkpt lat="31.42068893134426" lon="-4.451376834796985"><ele>822.0</ele><time>2026-04-30T10:14:57Z</time></trkpt><trkpt lat="31.420615247952043" lon="-4.451295916674459"><ele>822.0</ele><time>2026-04-30T10:14:58Z</time></trkpt><trkpt lat="31.420539596592715" lon="-4.4512128373863735"><ele>822.0</ele><time>2026-04-30T10:14:59Z</time></trkpt><trkpt lat="31.42046650496542" lon="-4.451132569133523"><ele>822.0</ele><time>2026-04-30T10:15:00Z</time></trkpt><trkpt lat="31.42039390738938" lon="-4.45105284347329"><ele>822.0</ele><time>2026-04-30T10:15:01Z</time></trkpt><trkpt lat="31.42032179831307" lon="-4.450973654250313"><ele>822.0</ele><time>2026-04-30T10:15:02Z</time></trkpt><trkpt lat="31.42025803724443" lon="-4.45087754265546"><ele>822.0</ele><time>2026-04-30T10:15:03Z</time></trkpt><trkpt lat="31.42018153286349" lon="-4.450802577066766"><ele>822.0</ele><time>2026-04-30T10:15:04Z</time></trkpt><trkpt lat="31.420103997295737" lon="-4.450719167617253"><ele>822.0</ele><time>2026-04-30T10:15:05Z</time></trkpt><trkpt lat="31.42003114480696" lon="-4.450636620177098"><ele>822.0</ele><time>2026-04-30T10:15:06Z</time></trkpt><trkpt lat="31.41995493221998" lon="-4.450552391874202"><ele>822.0</ele><time>2026-04-30T10:15:07Z</time></trkpt><trkpt lat="31.419882724042857" lon="-4.450470659066615"><ele>822.0</ele><time>2026-04-30T10:15:08Z</time></trkpt><trkpt lat="31.41981159247397" lon="-4.450388293800912"><ele>822.0</ele><time>2026-04-30T10:15:09Z</time></trkpt><trkpt lat="31.419742444082317" lon="-4.450307214450402"><ele>822.0</ele><time>2026-04-30T10:15:10Z</time></trkpt><trkpt lat="31.419679780546307" lon="-4.450232492505879"><ele>822.0</ele><time>2026-04-30T10:15:11Z</time></trkpt><trkpt lat="31.4196031259198" lon="-4.450163204775567"><ele>821.6666666666666</ele><time>2026-04-30T10:15:12Z</time></trkpt><trkpt lat="31.41953687359377" lon="-4.4500876763364055"><ele>821.3333333333333</ele><time>2026-04-30T10:15:13Z</time></trkpt><trkpt lat="31.419474709280646" lon="-4.450016808250161"><ele>821.0</ele><time>2026-04-30T10:15:14Z</time></trkpt><trkpt lat="31.419412683596665" lon="-4.449946098314388"><ele>820.6666666666666</ele><time>2026-04-30T10:15:15Z</time></trkpt><trkpt lat="31.41934775999177" lon="-4.449872084745399"><ele>820.3333333333333</ele><time>2026-04-30T10:15:16Z</time></trkpt><trkpt lat="31.419284750434027" lon="-4.449800116219166"><ele>820.0</ele><time>2026-04-30T10:15:17Z</time></trkpt><trkpt lat="31.419220374094195" lon="-4.449726507961737"><ele>820.0</ele><time>2026-04-30T10:15:18Z</time></trkpt><trkpt lat="31.419157066751485" lon="-4.449654122362465"><ele>820.0</ele><time>2026-04-30T10:15:19Z</time></trkpt><trkpt lat="31.419091598857964" lon="-4.4495792663921065"><ele>820.0</ele><time>2026-04-30T10:15:20Z</time></trkpt><trkpt lat="31.419033280314903" lon="-4.4494973113285585"><ele>820.0</ele><time>2026-04-30T10:15:21Z</time></trkpt><trkpt lat="31.418963518207704" lon="-4.449420307460919"><ele>820.0</ele><time>2026-04-30T10:15:22Z</time></trkpt><trkpt lat="31.418891337485128" lon="-4.44933789995667"><ele>819.6</ele><time>2026-04-30T10:15:23Z</time></trkpt><trkpt lat="31.418789344042096" lon="-4.449311047179686"><ele>819.2</ele><time>2026-04-30T10:15:24Z</time></trkpt><trkpt lat="31.41870084765305" lon="-4.449259556232088"><ele>818.8</ele><time>2026-04-30T10:15:25Z</time></trkpt><trkpt lat="31.418633836702305" lon="-4.449201210315229"><ele>818.4</ele><time>2026-04-30T10:15:26Z</time></trkpt><trkpt lat="31.41855758292507" lon="-4.449155072496662"><ele>818.0</ele><time>2026-04-30T10:15:27Z</time></trkpt><trkpt lat="31.418478855135493" lon="-4.4491035747806995"><ele>818.0</ele><time>2026-04-30T10:15:28Z</time></trkpt><trkpt lat="31.418400769360154" lon="-4.4490511785827245"><ele>818.0</ele><time>2026-04-30T10:15:29Z</time></trkpt><trkpt lat="31.418324278565187" lon="-4.448989218098342"><ele>818.0</ele><time>2026-04-30T10:15:30Z</time></trkpt><trkpt lat="31.41824582566732" lon="-4.448921411517733"><ele>818.0</ele><time>2026-04-30T10:15:31Z</time></trkpt><trkpt lat="31.418171876729012" lon="-4.448849125947056"><ele>818.0</ele><time>2026-04-30T10:15:32Z</time></trkpt><trkpt lat="31.418097252526106" lon="-4.448771352047594"><ele>817.8333333333334</ele><time>2026-04-30T10:15:33Z</time></trkpt><trkpt lat="31.418031264422755" lon="-4.4486927833121594"><ele>817.6666666666667</ele><time>2026-04-30T10:15:34Z</time></trkpt><trkpt lat="31.41796766564529" lon="-4.448618404303293"><ele>817.5</ele><time>2026-04-30T10:15:35Z</time></trkpt><trkpt lat="31.417904250151725" lon="-4.4485472232733"><ele>817.3333333333333</ele><time>2026-04-30T10:15:36Z</time></trkpt><trkpt lat="31.41783714345424" lon="-4.448470881334373"><ele>817.1666666666666</ele><time>2026-04-30T10:15:37Z</time></trkpt><trkpt lat="31.417779470395878" lon="-4.448402961614275"><ele>817.0</ele><time>2026-04-30T10:15:38Z</time></trkpt><trkpt lat="31.417717608151072" lon="-4.448335714960647"><ele>816.9999999999999</ele><time>2026-04-30T10:15:39Z</time></trkpt><trkpt lat="31.417647905104968" lon="-4.448263677925933"><ele>817.0</ele><time>2026-04-30T10:15:40Z</time></trkpt><trkpt lat="31.41757476183698" lon="-4.448197134801266"><ele>817.0</ele><time>2026-04-30T10:15:41Z</time></trkpt><trkpt lat="31.41750248532754" lon="-4.448146908650712"><ele>817.0</ele><time>2026-04-30T10:15:42Z</time></trkpt><trkpt lat="31.417427040037424" lon="-4.448106431580326"><ele>816.9999999999999</ele><time>2026-04-30T10:15:43Z</time></trkpt><trkpt lat="31.417361744404747" lon="-4.448053834633623"><ele>817.0</ele><time>2026-04-30T10:15:44Z</time></trkpt><trkpt lat="31.417298462321366" lon="-4.448008361352544"><ele>817.2</ele><time>2026-04-30T10:15:45Z</time></trkpt><trkpt lat="31.417226217393917" lon="-4.447953341829568"><ele>817.4000000000001</ele><time>2026-04-30T10:15:46Z</time></trkpt><trkpt lat="31.41714972030126" lon="-4.44790572615183"><ele>817.5999999999999</ele><time>2026-04-30T10:15:47Z</time></trkpt><trkpt lat="31.417063883629456" lon="-4.447857632449308"><ele>817.8</ele><time>2026-04-30T10:15:48Z</time></trkpt><trkpt lat="31.416970131575212" lon="-4.447821753537961"><ele>818.0</ele><time>2026-04-30T10:15:49Z</time></trkpt><trkpt lat="31.41687269157706" lon="-4.447791694966736"><ele>818.2</ele><time>2026-04-30T10:15:50Z</time></trkpt><trkpt lat="31.416762555220842" lon="-4.447764290511265"><ele>818.4</ele><time>2026-04-30T10:15:51Z</time></trkpt><trkpt lat="31.416666937002944" lon="-4.447738444415121"><ele>818.6</ele><time>2026-04-30T10:15:52Z</time></trkpt><trkpt lat="31.416582771106597" lon="-4.447712884971376"><ele>818.8000000000001</ele><time>2026-04-30T10:15:53Z</time></trkpt><trkpt lat="31.416503690734597" lon="-4.447691551440071"><ele>819.0</ele><time>2026-04-30T10:15:54Z</time></trkpt><trkpt lat="31.416429642005923" lon="-4.447667014968908"><ele>819.0</ele><time>2026-04-30T10:15:55Z</time></trkpt><trkpt lat="31.416360590199275" lon="-4.447634269848257"><ele>819.0</ele><time>2026-04-30T10:15:56Z</time></trkpt><trkpt lat="31.416305809448616" lon="-4.447588274814438"><ele>819.0</ele><time>2026-04-30T10:15:57Z</time></trkpt><trkpt lat="31.416229283878263" lon="-4.447502308186606"><ele>819.0</ele><time>2026-04-30T10:15:59Z</time></trkpt><trkpt lat="31.41615583343408" lon="-4.447460700127807"><ele>819.0</ele><time>2026-04-30T10:16:01Z</time></trkpt><trkpt lat="31.416094526940356" lon="-4.447498224810114"><ele>819.0</ele><time>2026-04-30T10:16:03Z</time></trkpt><trkpt lat="31.416157957023515" lon="-4.4475010354744535"><ele>819.1428571428571</ele><time>2026-04-30T10:17:26.001Z</time></trkpt><trkpt lat="31.416226302312893" lon="-4.447516729081949"><ele>819.2857142857142</ele><time>2026-04-30T10:17:31.001Z</time></trkpt><trkpt lat="31.41616233309859" lon="-4.447512867597661"><ele>819.4285714285714</ele><time>2026-04-30T10:18:04Z</time></trkpt><trkpt lat="31.416099069221058" lon="-4.447483295085573"><ele>819.5714285714286</ele><time>2026-04-30T10:18:34Z</time></trkpt><trkpt lat="31.416021580316986" lon="-4.44754037065104"><ele>819.7142857142857</ele><time>2026-04-30T10:19:13Z</time></trkpt><trkpt lat="31.415956929948656" lon="-4.4475084401746425"><ele>819.8571428571429</ele><time>2026-04-30T10:19:14Z</time></trkpt><trkpt lat="31.415883671118767" lon="-4.447472868257857"><ele>820.0</ele><time>2026-04-30T10:19:15Z</time></trkpt><trkpt lat="31.415830206552954" lon="-4.447433802946038"><ele>820.0</ele><time>2026-04-30T10:19:16Z</time></trkpt><trkpt lat="31.415744112904846" lon="-4.447321801834251"><ele>820.0</ele><time>2026-04-30T10:19:18Z</time></trkpt><trkpt lat="31.415702621517635" lon="-4.4472503585220835"><ele>820.0</ele><time>2026-04-30T10:19:19Z</time></trkpt><trkpt lat="31.41561180749594" lon="-4.447138394229112"><ele>820.0</ele><time>2026-04-30T10:19:21Z</time></trkpt><trkpt lat="31.415553565079897" lon="-4.447080072845882"><ele>820.0</ele><time>2026-04-30T10:19:22Z</time></trkpt><trkpt lat="31.415481747933775" lon="-4.44703525559227"><ele>819.8</ele><time>2026-04-30T10:19:23Z</time></trkpt><trkpt lat="31.415396875548232" lon="-4.446994467484855"><ele>819.6</ele><time>2026-04-30T10:19:24Z</time></trkpt><trkpt lat="31.415311030801753" lon="-4.446950680768837"><ele>819.4000000000001</ele><time>2026-04-30T10:19:25Z</time></trkpt><trkpt lat="31.41523018947449" lon="-4.44690385436715"><ele>819.2</ele><time>2026-04-30T10:19:26Z</time></trkpt><trkpt lat="31.4151413612711" lon="-4.4468551296799195"><ele>819.0</ele><time>2026-04-30T10:19:27Z</time></trkpt><trkpt lat="31.415046463220495" lon="-4.446801680069282"><ele>819.0</ele><time>2026-04-30T10:19:28Z</time></trkpt><trkpt lat="31.414951540473492" lon="-4.446752332045798"><ele>819.0</ele><time>2026-04-30T10:19:29Z</time></trkpt><trkpt lat="31.414856724479318" lon="-4.446693747600043"><ele>819.0</ele><time>2026-04-30T10:19:30Z</time></trkpt><trkpt lat="31.414757598220344" lon="-4.446633839988189"><ele>819.0</ele><time>2026-04-30T10:19:31Z</time></trkpt><trkpt lat="31.414664056018637" lon="-4.446570126727275"><ele>819.0</ele><time>2026-04-30T10:19:32Z</time></trkpt><trkpt lat="31.414580924004046" lon="-4.446521160074211"><ele>819.0</ele><time>2026-04-30T10:19:33Z</time></trkpt><trkpt lat="31.414494774550324" lon="-4.446468581579519"><ele>819.0</ele><time>2026-04-30T10:19:34Z</time></trkpt><trkpt lat="31.41440784959974" lon="-4.446414027579307"><ele>819.0</ele><time>2026-04-30T10:19:35Z</time></trkpt><trkpt lat="31.414320922174102" lon="-4.446356578683265"><ele>819.0</ele><time>2026-04-30T10:19:36Z</time></trkpt><trkpt lat="31.414232381527086" lon="-4.44629520970171"><ele>819.0</ele><time>2026-04-30T10:19:37Z</time></trkpt><trkpt lat="31.41414751642196" lon="-4.446235116078328"><ele>819.0</ele><time>2026-04-30T10:19:38Z</time></trkpt><trkpt lat="31.41406306238381" lon="-4.446177161705348"><ele>819.0</ele><time>2026-04-30T10:19:39Z</time></trkpt><trkpt lat="31.41397107891317" lon="-4.446117132504796"><ele>819.0</ele><time>2026-04-30T10:19:40Z</time></trkpt><trkpt lat="31.41388587460222" lon="-4.4460560216969895"><ele>819.0</ele><time>2026-04-30T10:19:41Z</time></trkpt><trkpt lat="31.41379885370008" lon="-4.445991839307978"><ele>819.0</ele><time>2026-04-30T10:19:42Z</time></trkpt><trkpt lat="31.413711957177046" lon="-4.4459336064684045"><ele>819.0</ele><time>2026-04-30T10:19:43Z</time></trkpt><trkpt lat="31.41362406410263" lon="-4.445868406525163"><ele>819.0</ele><time>2026-04-30T10:19:44Z</time></trkpt><trkpt lat="31.413540833075814" lon="-4.445803666779524"><ele>819.0</ele><time>2026-04-30T10:19:45Z</time></trkpt><trkpt lat="31.41345997015696" lon="-4.445740777238109"><ele>819.0</ele><time>2026-04-30T10:19:46Z</time></trkpt><trkpt lat="31.413374353766045" lon="-4.445671959857145"><ele>819.0</ele><time>2026-04-30T10:19:47Z</time></trkpt><trkpt lat="31.41328567797267" lon="-4.445601252253041"><ele>819.0</ele><time>2026-04-30T10:19:48Z</time></trkpt><trkpt lat="31.41319565029009" lon="-4.445526811223435"><ele>819.0</ele><time>2026-04-30T10:19:49Z</time></trkpt><trkpt lat="31.413105453187846" lon="-4.44545655028642"><ele>819.0</ele><time>2026-04-30T10:19:50Z</time></trkpt><trkpt lat="31.413015426449935" lon="-4.445384802551266"><ele>819.0</ele><time>2026-04-30T10:19:51Z</time></trkpt><trkpt lat="31.41292726715087" lon="-4.445315340059797"><ele>819.0</ele><time>2026-04-30T10:19:52Z</time></trkpt><trkpt lat="31.412837118286795" lon="-4.4452450271811905"><ele>818.8000000000001</ele><time>2026-04-30T10:19:53Z</time></trkpt><trkpt lat="31.41275398324303" lon="-4.4451782561259074"><ele>818.6</ele><time>2026-04-30T10:19:54Z</time></trkpt><trkpt lat="31.412666636832668" lon="-4.4451117106603775"><ele>818.4</ele><time>2026-04-30T10:19:55Z</time></trkpt><trkpt lat="31.412584866362963" lon="-4.4450492487842395"><ele>818.2</ele><time>2026-04-30T10:19:56Z</time></trkpt><trkpt lat="31.41249903271878" lon="-4.444984826685585"><ele>818.0</ele><time>2026-04-30T10:19:57Z</time></trkpt><trkpt lat="31.4124111552635" lon="-4.444921506407696"><ele>818.0</ele><time>2026-04-30T10:19:58Z</time></trkpt><trkpt lat="31.41232087891924" lon="-4.44486020887732"><ele>818.0</ele><time>2026-04-30T10:19:59Z</time></trkpt><trkpt lat="31.41223164261937" lon="-4.444798990248484"><ele>818.0</ele><time>2026-04-30T10:20:00Z</time></trkpt><trkpt lat="31.41214316202304" lon="-4.444738178257731"><ele>818.0</ele><time>2026-04-30T10:20:01Z</time></trkpt><trkpt lat="31.412054700667085" lon="-4.4446802934774805"><ele>818.0</ele><time>2026-04-30T10:20:02Z</time></trkpt><trkpt lat="31.411964084706344" lon="-4.4446075680736765"><ele>818.0</ele><time>2026-04-30T10:20:03Z</time></trkpt><trkpt lat="31.411877286873104" lon="-4.444539723607939"><ele>818.0</ele><time>2026-04-30T10:20:04Z</time></trkpt><trkpt lat="31.411786063836583" lon="-4.444475178169439"><ele>818.0</ele><time>2026-04-30T10:20:05Z</time></trkpt><trkpt lat="31.411695942183737" lon="-4.444404810445809"><ele>818.0</ele><time>2026-04-30T10:20:06Z</time></trkpt><trkpt lat="31.411606829681926" lon="-4.444335961470327"><ele>818.0</ele><time>2026-04-30T10:20:07Z</time></trkpt><trkpt lat="31.411518840306854" lon="-4.444265396940632"><ele>818.0</ele><time>2026-04-30T10:20:08Z</time></trkpt><trkpt lat="31.41143014588589" lon="-4.444197533943272"><ele>818.0</ele><time>2026-04-30T10:20:09Z</time></trkpt><trkpt lat="31.411333776422566" lon="-4.4441323757875955"><ele>818.0</ele><time>2026-04-30T10:20:10Z</time></trkpt><trkpt lat="31.411243474621653" lon="-4.444066872375973"><ele>818.0</ele><time>2026-04-30T10:20:11Z</time></trkpt><trkpt lat="31.411152271553245" lon="-4.444002603580891"><ele>818.0</ele><time>2026-04-30T10:20:12Z</time></trkpt><trkpt lat="31.411057763006564" lon="-4.443933228228046"><ele>818.0</ele><time>2026-04-30T10:20:13Z</time></trkpt><trkpt lat="31.41096421115183" lon="-4.443866685464191"><ele>818.0</ele><time>2026-04-30T10:20:14Z</time></trkpt><trkpt lat="31.41087392815482" lon="-4.443800657757092"><ele>818.0</ele><time>2026-04-30T10:20:15Z</time></trkpt><trkpt lat="31.410786181211318" lon="-4.443729243328429"><ele>818.0</ele><time>2026-04-30T10:20:16Z</time></trkpt><trkpt lat="31.41069556249152" lon="-4.443666900300456"><ele>818.0</ele><time>2026-04-30T10:20:17Z</time></trkpt><trkpt lat="31.410606696337204" lon="-4.443606879327775"><ele>817.5999999999999</ele><time>2026-04-30T10:20:18Z</time></trkpt><trkpt lat="31.41051358153272" lon="-4.443542291109179"><ele>817.1999999999999</ele><time>2026-04-30T10:20:19Z</time></trkpt><trkpt lat="31.41041913621845" lon="-4.443480880427669"><ele>816.8</ele><time>2026-04-30T10:20:20Z</time></trkpt><trkpt lat="31.41032513017463" lon="-4.443425179030392"><ele>816.4</ele><time>2026-04-30T10:20:21Z</time></trkpt><trkpt lat="31.41022887944308" lon="-4.443369230981919"><ele>816.0</ele><time>2026-04-30T10:20:22Z</time></trkpt><trkpt lat="31.41013258567226" lon="-4.44331151313549"><ele>815.5999999999999</ele><time>2026-04-30T10:20:23Z</time></trkpt><trkpt lat="31.410036045762872" lon="-4.443252708202297"><ele>815.2</ele><time>2026-04-30T10:20:24Z</time></trkpt><trkpt lat="31.409943468760233" lon="-4.443194512814868"><ele>814.8</ele><time>2026-04-30T10:20:25Z</time></trkpt><trkpt lat="31.409853470830065" lon="-4.443140225591469"><ele>814.4000000000001</ele><time>2026-04-30T10:20:26Z</time></trkpt><trkpt lat="31.409782418931837" lon="-4.443099074346253"><ele>814.0</ele><time>2026-04-30T10:20:27Z</time></trkpt><trkpt lat="31.40970126794836" lon="-4.443049932697518"><ele>814.3333333333333</ele><time>2026-04-30T10:20:28Z</time></trkpt><trkpt lat="31.409629816788275" lon="-4.443006366431463"><ele>814.6666666666666</ele><time>2026-04-30T10:20:29Z</time></trkpt><trkpt lat="31.40954991241948" lon="-4.442964485188611"><ele>815.0</ele><time>2026-04-30T10:20:30Z</time></trkpt><trkpt lat="31.40946510038317" lon="-4.442919925569544"><ele>815.3333333333333</ele><time>2026-04-30T10:20:31Z</time></trkpt><trkpt lat="31.409381838026746" lon="-4.44288010622917"><ele>815.6666666666666</ele><time>2026-04-30T10:20:32Z</time></trkpt><trkpt lat="31.409301627063076" lon="-4.4428378496506795"><ele>816.0</ele><time>2026-04-30T10:20:33Z</time></trkpt><trkpt lat="31.409223735430185" lon="-4.442788594997247"><ele>816.1999999999999</ele><time>2026-04-30T10:20:34Z</time></trkpt><trkpt lat="31.409145985442613" lon="-4.442741331518286"><ele>816.4</ele><time>2026-04-30T10:20:35Z</time></trkpt><trkpt lat="31.409065114626255" lon="-4.442684898025236"><ele>816.6</ele><time>2026-04-30T10:20:36Z</time></trkpt><trkpt lat="31.40898251593785" lon="-4.442630373900369"><ele>816.8</ele><time>2026-04-30T10:20:37Z</time></trkpt><trkpt lat="31.40890614223955" lon="-4.442586095620528"><ele>817.0</ele><time>2026-04-30T10:20:38Z</time></trkpt><trkpt lat="31.408825004894787" lon="-4.442527436626382"><ele>816.6</ele><time>2026-04-30T10:20:39Z</time></trkpt><trkpt lat="31.40874661503743" lon="-4.442469988722519"><ele>816.2</ele><time>2026-04-30T10:20:40Z</time></trkpt><trkpt lat="31.408670375305423" lon="-4.442402389766963"><ele>815.8</ele><time>2026-04-30T10:20:41Z</time></trkpt><trkpt lat="31.408591049341556" lon="-4.442331320103674"><ele>815.4</ele><time>2026-04-30T10:20:42Z</time></trkpt><trkpt lat="31.408510847898402" lon="-4.442264677386357"><ele>815.0</ele><time>2026-04-30T10:20:43Z</time></trkpt><trkpt lat="31.40842990245125" lon="-4.442199026892955"><ele>815.0</ele><time>2026-04-30T10:20:44Z</time></trkpt><trkpt lat="31.408350847308075" lon="-4.442136229416348"><ele>815.0</ele><time>2026-04-30T10:20:45Z</time></trkpt><trkpt lat="31.40827290014406" lon="-4.442075002566022"><ele>815.0</ele><time>2026-04-30T10:20:46Z</time></trkpt><trkpt lat="31.408192751020916" lon="-4.442018482626706"><ele>815.0</ele><time>2026-04-30T10:20:47Z</time></trkpt><trkpt lat="31.408125002586225" lon="-4.441962267136345"><ele>815.0</ele><time>2026-04-30T10:20:48Z</time></trkpt><trkpt lat="31.408038323946226" lon="-4.441892676084511"><ele>815.2</ele><time>2026-04-30T10:20:49Z</time></trkpt><trkpt lat="31.40796598526857" lon="-4.44183096800351"><ele>815.4</ele><time>2026-04-30T10:20:50Z</time></trkpt><trkpt lat="31.40789330180276" lon="-4.441773317641481"><ele>815.5999999999999</ele><time>2026-04-30T10:20:51Z</time></trkpt><trkpt lat="31.407821609849982" lon="-4.441709656521777"><ele>815.8</ele><time>2026-04-30T10:20:52Z</time></trkpt><trkpt lat="31.40774051379307" lon="-4.441640229134265"><ele>816.0</ele><time>2026-04-30T10:20:53Z</time></trkpt><trkpt lat="31.407659733328437" lon="-4.44158066971822"><ele>816.0</ele><time>2026-04-30T10:20:54Z</time></trkpt><trkpt lat="31.407582255703684" lon="-4.4415130642409055"><ele>816.0</ele><time>2026-04-30T10:20:55Z</time></trkpt><trkpt lat="31.407503761777857" lon="-4.441446567824224"><ele>816.0</ele><time>2026-04-30T10:20:56Z</time></trkpt><trkpt lat="31.40742290363192" lon="-4.441373786303322"><ele>816.0</ele><time>2026-04-30T10:20:57Z</time></trkpt><trkpt lat="31.407348157747393" lon="-4.441313610399384"><ele>816.0</ele><time>2026-04-30T10:20:58Z</time></trkpt><trkpt lat="31.40727050820606" lon="-4.441247078088149"><ele>815.8</ele><time>2026-04-30T10:20:59Z</time></trkpt><trkpt lat="31.407190582856575" lon="-4.441180571327738"><ele>815.5999999999999</ele><time>2026-04-30T10:21:00Z</time></trkpt><trkpt lat="31.407113219362813" lon="-4.441112500500168"><ele>815.4</ele><time>2026-04-30T10:21:01Z</time></trkpt><trkpt lat="31.40702521774282" lon="-4.441041022141671"><ele>815.2</ele><time>2026-04-30T10:21:02Z</time></trkpt><trkpt lat="31.406945731514416" lon="-4.440975361185578"><ele>815.0</ele><time>2026-04-30T10:21:03Z</time></trkpt><trkpt lat="31.406862921248276" lon="-4.440910526456496"><ele>815.4</ele><time>2026-04-30T10:21:04Z</time></trkpt><trkpt lat="31.406781796678466" lon="-4.440847436030538"><ele>815.8</ele><time>2026-04-30T10:21:05Z</time></trkpt><trkpt lat="31.40670169920167" lon="-4.440780005599141"><ele>816.2</ele><time>2026-04-30T10:21:06Z</time></trkpt><trkpt lat="31.40661946050642" lon="-4.440715640318153"><ele>816.6</ele><time>2026-04-30T10:21:07Z</time></trkpt><trkpt lat="31.40653339699275" lon="-4.440638794000023"><ele>817.0</ele><time>2026-04-30T10:21:08Z</time></trkpt><trkpt lat="31.406452773122417" lon="-4.440572287328957"><ele>817.0</ele><time>2026-04-30T10:21:09Z</time></trkpt><trkpt lat="31.4063721769579" lon="-4.440505953164684"><ele>817.0</ele><time>2026-04-30T10:21:10Z</time></trkpt><trkpt lat="31.406286788820303" lon="-4.44043553267874"><ele>817.0</ele><time>2026-04-30T10:21:11Z</time></trkpt><trkpt lat="31.406199698746338" lon="-4.4403711408538555"><ele>817.0</ele><time>2026-04-30T10:21:12Z</time></trkpt><trkpt lat="31.406115468540097" lon="-4.440315515620398"><ele>817.0</ele><time>2026-04-30T10:21:13Z</time></trkpt><trkpt lat="31.406029288055088" lon="-4.440246848540238"><ele>816.6</ele><time>2026-04-30T10:21:14Z</time></trkpt><trkpt lat="31.405943054047782" lon="-4.440186639098907"><ele>816.2</ele><time>2026-04-30T10:21:15Z</time></trkpt><trkpt lat="31.405850514072306" lon="-4.440120162405082"><ele>815.8</ele><time>2026-04-30T10:21:16Z</time></trkpt><trkpt lat="31.405756072132682" lon="-4.4400568226155634"><ele>815.4</ele><time>2026-04-30T10:21:17Z</time></trkpt><trkpt lat="31.4056639388344" lon="-4.440001277169283"><ele>815.0</ele><time>2026-04-30T10:21:18Z</time></trkpt><trkpt lat="31.40557413029042" lon="-4.439941959168007"><ele>814.8</ele><time>2026-04-30T10:21:19Z</time></trkpt><trkpt lat="31.405493186164026" lon="-4.43989529021878"><ele>814.6</ele><time>2026-04-30T10:21:20Z</time></trkpt><trkpt lat="31.40541218025356" lon="-4.439841102335626"><ele>814.4000000000001</ele><time>2026-04-30T10:21:21Z</time></trkpt><trkpt lat="31.40532082423221" lon="-4.439786427873521"><ele>814.2</ele><time>2026-04-30T10:21:22Z</time></trkpt><trkpt lat="31.40523581400564" lon="-4.439732441928448"><ele>814.0</ele><time>2026-04-30T10:21:23Z</time></trkpt><trkpt lat="31.405157356533465" lon="-4.439680559508961"><ele>813.8000000000001</ele><time>2026-04-30T10:21:24Z</time></trkpt><trkpt lat="31.40507271683326" lon="-4.439626763246122"><ele>813.6</ele><time>2026-04-30T10:21:25Z</time></trkpt><trkpt lat="31.404982131095355" lon="-4.439574244104349"><ele>813.4</ele><time>2026-04-30T10:21:26Z</time></trkpt><trkpt lat="31.404908813905234" lon="-4.439521974770892"><ele>813.2</ele><time>2026-04-30T10:21:27Z</time></trkpt><trkpt lat="31.404835238868877" lon="-4.439469148192504"><ele>813.0</ele><time>2026-04-30T10:21:28Z</time></trkpt><trkpt lat="31.404765595431762" lon="-4.439412448229546"><ele>813.0</ele><time>2026-04-30T10:21:29Z</time></trkpt><trkpt lat="31.404693491173084" lon="-4.439355312451009"><ele>813.0</ele><time>2026-04-30T10:21:30Z</time></trkpt><trkpt lat="31.404611193759276" lon="-4.439289887749087"><ele>813.0</ele><time>2026-04-30T10:21:31Z</time></trkpt><trkpt lat="31.404524027957923" lon="-4.439218963854273"><ele>813.0</ele><time>2026-04-30T10:21:32Z</time></trkpt><trkpt lat="31.404436832036165" lon="-4.439143652116613"><ele>813.0</ele><time>2026-04-30T10:21:33Z</time></trkpt><trkpt lat="31.40435114758059" lon="-4.439068753431278"><ele>813.0</ele><time>2026-04-30T10:21:34Z</time></trkpt><trkpt lat="31.404271655934526" lon="-4.438997987547433"><ele>813.0</ele><time>2026-04-30T10:21:35Z</time></trkpt><trkpt lat="31.404193349869185" lon="-4.438926725030244"><ele>813.0</ele><time>2026-04-30T10:21:36Z</time></trkpt><trkpt lat="31.404109623015003" lon="-4.438859860917794"><ele>813.0</ele><time>2026-04-30T10:21:37Z</time></trkpt><trkpt lat="31.404028495907454" lon="-4.438790238528299"><ele>813.0</ele><time>2026-04-30T10:21:38Z</time></trkpt><trkpt lat="31.403947997923265" lon="-4.438718418931723"><ele>813.0</ele><time>2026-04-30T10:21:39Z</time></trkpt><trkpt lat="31.403866652403213" lon="-4.438648489571775"><ele>813.0</ele><time>2026-04-30T10:21:40Z</time></trkpt><trkpt lat="31.403794440340125" lon="-4.438583716851382"><ele>813.0</ele><time>2026-04-30T10:21:41Z</time></trkpt><trkpt lat="31.403708972242143" lon="-4.438506336358201"><ele>813.0</ele><time>2026-04-30T10:21:42Z</time></trkpt><trkpt lat="31.403626602128668" lon="-4.438436598541995"><ele>813.0</ele><time>2026-04-30T10:21:43Z</time></trkpt><trkpt lat="31.40354306898339" lon="-4.438364426939048"><ele>812.8</ele><time>2026-04-30T10:21:44Z</time></trkpt><trkpt lat="31.403462417016097" lon="-4.438292650089409"><ele>812.5999999999999</ele><time>2026-04-30T10:21:45Z</time></trkpt><trkpt lat="31.403373016059138" lon="-4.438223916113351"><ele>812.4000000000001</ele><time>2026-04-30T10:21:46Z</time></trkpt><trkpt lat="31.40328584200345" lon="-4.438154967622446"><ele>812.2</ele><time>2026-04-30T10:21:47Z</time></trkpt><trkpt lat="31.403198752379044" lon="-4.438086188761784"><ele>812.0</ele><time>2026-04-30T10:21:48Z</time></trkpt><trkpt lat="31.40311368329407" lon="-4.438021630737645"><ele>812.0</ele><time>2026-04-30T10:21:49Z</time></trkpt><trkpt lat="31.40302926759734" lon="-4.437955870668957"><ele>812.0</ele><time>2026-04-30T10:21:50Z</time></trkpt><trkpt lat="31.402940437893" lon="-4.43789042501916"><ele>812.0</ele><time>2026-04-30T10:21:51Z</time></trkpt><trkpt lat="31.40285081323445" lon="-4.437819287009654"><ele>812.0</ele><time>2026-04-30T10:21:52Z</time></trkpt><trkpt lat="31.402770895444604" lon="-4.437758161923163"><ele>812.0</ele><time>2026-04-30T10:21:53Z</time></trkpt><trkpt lat="31.40268821684569" lon="-4.437690397108715"><ele>812.0</ele><time>2026-04-30T10:21:54Z</time></trkpt><trkpt lat="31.40260158986427" lon="-4.4376294135267536"><ele>812.0</ele><time>2026-04-30T10:21:55Z</time></trkpt><trkpt lat="31.402515602843252" lon="-4.437562812730324"><ele>812.0</ele><time>2026-04-30T10:21:56Z</time></trkpt><trkpt lat="31.402433603454096" lon="-4.437502816923705"><ele>812.0</ele><time>2026-04-30T10:21:57Z</time></trkpt><trkpt lat="31.402352125025015" lon="-4.437437973724743"><ele>812.0</ele><time>2026-04-30T10:21:58Z</time></trkpt><trkpt lat="31.4022680169138" lon="-4.437381736679998"><ele>812.0</ele><time>2026-04-30T10:21:59Z</time></trkpt><trkpt lat="31.40218283766409" lon="-4.437322418067817"><ele>812.0</ele><time>2026-04-30T10:22:00Z</time></trkpt><trkpt lat="31.402091838222034" lon="-4.437257548563908"><ele>812.0</ele><time>2026-04-30T10:22:01Z</time></trkpt><trkpt lat="31.40200038251703" lon="-4.4371994907166545"><ele>812.0</ele><time>2026-04-30T10:22:02Z</time></trkpt><trkpt lat="31.401910460012427" lon="-4.437137334612829"><ele>812.0</ele><time>2026-04-30T10:22:03Z</time></trkpt><trkpt lat="31.401818919267196" lon="-4.437076339821108"><ele>812.0</ele><time>2026-04-30T10:22:04Z</time></trkpt><trkpt lat="31.401722415540736" lon="-4.437004356088341"><ele>812.0</ele><time>2026-04-30T10:22:05Z</time></trkpt><trkpt lat="31.40163147033444" lon="-4.436960762245634"><ele>812.0</ele><time>2026-04-30T10:22:06Z</time></trkpt><trkpt lat="31.401537822062238" lon="-4.436901393212074"><ele>812.0</ele><time>2026-04-30T10:22:07Z</time></trkpt><trkpt lat="31.40144564431356" lon="-4.436852096679474"><ele>812.0</ele><time>2026-04-30T10:22:08Z</time></trkpt><trkpt lat="31.40136058682876" lon="-4.436793286993097"><ele>812.2</ele><time>2026-04-30T10:22:09Z</time></trkpt><trkpt lat="31.401269874319876" lon="-4.436747448378685"><ele>812.4000000000001</ele><time>2026-04-30T10:22:10Z</time></trkpt><trkpt lat="31.40118176471362" lon="-4.436703934047433"><ele>812.5999999999999</ele><time>2026-04-30T10:22:11Z</time></trkpt><trkpt lat="31.401091364257525" lon="-4.436655690682999"><ele>812.8</ele><time>2026-04-30T10:22:12Z</time></trkpt><trkpt lat="31.40100066543929" lon="-4.436618255770795"><ele>813.0</ele><time>2026-04-30T10:22:13Z</time></trkpt><trkpt lat="31.400909923760288" lon="-4.436576167863953"><ele>813.0</ele><time>2026-04-30T10:22:14Z</time></trkpt><trkpt lat="31.400815081376205" lon="-4.436534560339974"><ele>813.0</ele><time>2026-04-30T10:22:15Z</time></trkpt><trkpt lat="31.40072110691177" lon="-4.436496804997285"><ele>813.0</ele><time>2026-04-30T10:22:16Z</time></trkpt><trkpt lat="31.40063276334527" lon="-4.436452034951173"><ele>813.0</ele><time>2026-04-30T10:22:17Z</time></trkpt><trkpt lat="31.400546625946223" lon="-4.436418947235235"><ele>813.0</ele><time>2026-04-30T10:22:18Z</time></trkpt><trkpt lat="31.400457397128523" lon="-4.436383636816593"><ele>813.0</ele><time>2026-04-30T10:22:19Z</time></trkpt><trkpt lat="31.40036692375685" lon="-4.4363405511474925"><ele>813.0</ele><time>2026-04-30T10:22:20Z</time></trkpt><trkpt lat="31.400281766462808" lon="-4.436303003962221"><ele>813.0</ele><time>2026-04-30T10:22:21Z</time></trkpt><trkpt lat="31.400195611427147" lon="-4.436271890960109"><ele>813.0</ele><time>2026-04-30T10:22:22Z</time></trkpt><trkpt lat="31.40010984977323" lon="-4.436237919871026"><ele>813.0</ele><time>2026-04-30T10:22:23Z</time></trkpt><trkpt lat="31.400017039651736" lon="-4.436199632778466"><ele>813.0</ele><time>2026-04-30T10:22:24Z</time></trkpt><trkpt lat="31.39992573248942" lon="-4.4361648058738625"><ele>813.0</ele><time>2026-04-30T10:22:25Z</time></trkpt><trkpt lat="31.39983476518732" lon="-4.4361208662673395"><ele>813.0</ele><time>2026-04-30T10:22:26Z</time></trkpt><trkpt lat="31.399752653912213" lon="-4.4360902993926015"><ele>813.0</ele><time>2026-04-30T10:22:27Z</time></trkpt><trkpt lat="31.39966226893348" lon="-4.436050355083998"><ele>813.0</ele><time>2026-04-30T10:22:28Z</time></trkpt><trkpt lat="31.399569076417666" lon="-4.436020036775625"><ele>813.0</ele><time>2026-04-30T10:22:29Z</time></trkpt><trkpt lat="31.399481140700523" lon="-4.435981893063651"><ele>813.0</ele><time>2026-04-30T10:22:30Z</time></trkpt><trkpt lat="31.39939310603634" lon="-4.435942031323472"><ele>813.0</ele><time>2026-04-30T10:22:31Z</time></trkpt><trkpt lat="31.399308871290703" lon="-4.435906012861777"><ele>813.0</ele><time>2026-04-30T10:22:32Z</time></trkpt><trkpt lat="31.399236118264106" lon="-4.435862466638575"><ele>813.0</ele><time>2026-04-30T10:22:33Z</time></trkpt><trkpt lat="31.39916209340001" lon="-4.435820625645891"><ele>813.0</ele><time>2026-04-30T10:22:34Z</time></trkpt><trkpt lat="31.399088840088616" lon="-4.435772293651709"><ele>813.0</ele><time>2026-04-30T10:22:35Z</time></trkpt><trkpt lat="31.399028694829223" lon="-4.435726626348757"><ele>813.0</ele><time>2026-04-30T10:22:36Z</time></trkpt><trkpt lat="31.398958158544904" lon="-4.435685688690989"><ele>813.0</ele><time>2026-04-30T10:22:37Z</time></trkpt><trkpt lat="31.39889250091081" lon="-4.4356385314143685"><ele>813.0</ele><time>2026-04-30T10:22:38Z</time></trkpt><trkpt lat="31.398827409481015" lon="-4.4355909623372325"><ele>813.0</ele><time>2026-04-30T10:22:39Z</time></trkpt><trkpt lat="31.398765108185188" lon="-4.435548825763393"><ele>813.0</ele><time>2026-04-30T10:22:40Z</time></trkpt><trkpt lat="31.3987013264186" lon="-4.435500739323404"><ele>812.8333333333334</ele><time>2026-04-30T10:22:41Z</time></trkpt><trkpt lat="31.39864772887465" lon="-4.435444084171037"><ele>812.6666666666667</ele><time>2026-04-30T10:22:42Z</time></trkpt><trkpt lat="31.398591163048916" lon="-4.435383146887857"><ele>812.5</ele><time>2026-04-30T10:22:43Z</time></trkpt><trkpt lat="31.398534003395763" lon="-4.43532345941968"><ele>812.3333333333334</ele><time>2026-04-30T10:22:44Z</time></trkpt><trkpt lat="31.398464949264238" lon="-4.4352610835126"><ele>812.1666666666667</ele><time>2026-04-30T10:22:45Z</time></trkpt><trkpt lat="31.39839574308343" lon="-4.435194725256328"><ele>812.0</ele><time>2026-04-30T10:22:46Z</time></trkpt><trkpt lat="31.39832744045877" lon="-4.435129299353985"><ele>812.0</ele><time>2026-04-30T10:22:47Z</time></trkpt><trkpt lat="31.398254712776048" lon="-4.435062394871643"><ele>812.0</ele><time>2026-04-30T10:22:48Z</time></trkpt><trkpt lat="31.398177800567474" lon="-4.434991544251946"><ele>812.0</ele><time>2026-04-30T10:22:49Z</time></trkpt><trkpt lat="31.398104445270604" lon="-4.434925227843131"><ele>812.0</ele><time>2026-04-30T10:22:50Z</time></trkpt><trkpt lat="31.39803378074703" lon="-4.434860975126293"><ele>812.0</ele><time>2026-04-30T10:22:51Z</time></trkpt><trkpt lat="31.397962717350516" lon="-4.434797715160016"><ele>812.0000000000001</ele><time>2026-04-30T10:22:52Z</time></trkpt><trkpt lat="31.397901891769866" lon="-4.43473360816736"><ele>812.0</ele><time>2026-04-30T10:22:53Z</time></trkpt><trkpt lat="31.397843391576234" lon="-4.43468209443475"><ele>812.0</ele><time>2026-04-30T10:22:54Z</time></trkpt><trkpt lat="31.397789983999814" lon="-4.4346351222014615"><ele>812.0</ele><time>2026-04-30T10:22:55Z</time></trkpt><trkpt lat="31.397709255231906" lon="-4.434564995725948"><ele>812.0000000000001</ele><time>2026-04-30T10:22:57Z</time></trkpt><trkpt lat="31.397656000991073" lon="-4.434513639803489"><ele>812.0</ele><time>2026-04-30T10:23:29Z</time></trkpt><trkpt lat="31.397560483783526" lon="-4.434422844781494"><ele>812.0</ele><time>2026-04-30T10:23:31.001Z</time></trkpt><trkpt lat="31.397485352063494" lon="-4.434369974898148"><ele>812.0</ele><time>2026-04-30T10:23:32.001Z</time></trkpt><trkpt lat="31.397407715247756" lon="-4.434312229369023"><ele>812.0</ele><time>2026-04-30T10:23:33.001Z</time></trkpt><trkpt lat="31.39731935486124" lon="-4.434248790153678"><ele>812.0</ele><time>2026-04-30T10:23:34.001Z</time></trkpt><trkpt lat="31.39720883231968" lon="-4.434126229510222"><ele>812.0</ele><time>2026-04-30T10:23:36.001Z</time></trkpt><trkpt lat="31.397114003920695" lon="-4.434054242115027"><ele>812.0</ele><time>2026-04-30T10:23:37Z</time></trkpt><trkpt lat="31.397021479943113" lon="-4.433980886388269"><ele>812.0</ele><time>2026-04-30T10:23:38Z</time></trkpt><trkpt lat="31.396936481978525" lon="-4.433908715780169"><ele>812.0</ele><time>2026-04-30T10:23:39Z</time></trkpt><trkpt lat="31.39685613502207" lon="-4.433833213212078"><ele>812.0</ele><time>2026-04-30T10:23:40Z</time></trkpt><trkpt lat="31.396770096523188" lon="-4.433758108917675"><ele>812.0</ele><time>2026-04-30T10:23:41Z</time></trkpt><trkpt lat="31.39669392356307" lon="-4.433692967048297"><ele>812.0</ele><time>2026-04-30T10:23:42Z</time></trkpt><trkpt lat="31.39660940478572" lon="-4.433620945042867"><ele>812.0</ele><time>2026-04-30T10:23:43Z</time></trkpt><trkpt lat="31.396524251826104" lon="-4.433550315623745"><ele>812.0</ele><time>2026-04-30T10:23:44Z</time></trkpt><trkpt lat="31.396440802519987" lon="-4.433485294901782"><ele>812.0</ele><time>2026-04-30T10:23:45Z</time></trkpt><trkpt lat="31.39635859349891" lon="-4.433417339404413"><ele>812.0</ele><time>2026-04-30T10:23:46Z</time></trkpt><trkpt lat="31.39627589110983" lon="-4.43335108480861"><ele>811.6</ele><time>2026-04-30T10:23:47Z</time></trkpt><trkpt lat="31.39619132836805" lon="-4.433278484930436"><ele>811.2</ele><time>2026-04-30T10:23:48Z</time></trkpt><trkpt lat="31.396102769651918" lon="-4.433204846137404"><ele>810.8</ele><time>2026-04-30T10:23:49Z</time></trkpt><trkpt lat="31.39600946691178" lon="-4.433129347664951"><ele>810.4</ele><time>2026-04-30T10:23:50Z</time></trkpt><trkpt lat="31.395923181267165" lon="-4.433063590895392"><ele>810.0</ele><time>2026-04-30T10:23:51Z</time></trkpt><trkpt lat="31.395840021410987" lon="-4.433000285424066"><ele>810.0</ele><time>2026-04-30T10:23:52Z</time></trkpt><trkpt lat="31.39576057930758" lon="-4.432929068230912"><ele>810.0</ele><time>2026-04-30T10:23:53Z</time></trkpt><trkpt lat="31.39567562783602" lon="-4.432862627264167"><ele>810.0</ele><time>2026-04-30T10:23:54Z</time></trkpt><trkpt lat="31.395589570039927" lon="-4.432794387216579"><ele>810.0</ele><time>2026-04-30T10:23:55Z</time></trkpt><trkpt lat="31.39551034314983" lon="-4.432739099440693"><ele>810.0</ele><time>2026-04-30T10:23:56Z</time></trkpt><trkpt lat="31.395428914373856" lon="-4.432674136330448"><ele>810.0</ele><time>2026-04-30T10:23:57Z</time></trkpt><trkpt lat="31.395348635587712" lon="-4.432611566108616"><ele>810.0</ele><time>2026-04-30T10:23:58Z</time></trkpt><trkpt lat="31.39526264826854" lon="-4.43255237941799"><ele>810.0</ele><time>2026-04-30T10:23:59Z</time></trkpt><trkpt lat="31.395186663579885" lon="-4.432495896926883"><ele>810.0</ele><time>2026-04-30T10:24:00Z</time></trkpt><trkpt lat="31.395112210117357" lon="-4.432441077992781"><ele>810.0</ele><time>2026-04-30T10:24:01Z</time></trkpt><trkpt lat="31.395036117225985" lon="-4.432387418906109"><ele>810.0</ele><time>2026-04-30T10:24:02Z</time></trkpt><trkpt lat="31.394960672356596" lon="-4.432336989932159"><ele>810.0</ele><time>2026-04-30T10:24:03Z</time></trkpt><trkpt lat="31.394880365953675" lon="-4.432283996873651"><ele>810.0</ele><time>2026-04-30T10:24:04Z</time></trkpt><trkpt lat="31.394794215858088" lon="-4.432226802903815"><ele>810.0</ele><time>2026-04-30T10:24:05Z</time></trkpt><trkpt lat="31.394713699979715" lon="-4.432171903240286"><ele>810.0</ele><time>2026-04-30T10:24:06Z</time></trkpt><trkpt lat="31.394626638295268" lon="-4.432116027250591"><ele>810.0</ele><time>2026-04-30T10:24:07Z</time></trkpt><trkpt lat="31.394537470807048" lon="-4.4320600913150665"><ele>810.0</ele><time>2026-04-30T10:24:08Z</time></trkpt><trkpt lat="31.394447324135545" lon="-4.432005618627949"><ele>810.0</ele><time>2026-04-30T10:24:09Z</time></trkpt><trkpt lat="31.39436341029572" lon="-4.431954383356071"><ele>810.0</ele><time>2026-04-30T10:24:10Z</time></trkpt><trkpt lat="31.39427921243375" lon="-4.431903922880907"><ele>810.0</ele><time>2026-04-30T10:24:11Z</time></trkpt><trkpt lat="31.39419583597807" lon="-4.4318487324329885"><ele>810.0</ele><time>2026-04-30T10:24:12Z</time></trkpt><trkpt lat="31.39411313575286" lon="-4.431793987445731"><ele>810.0</ele><time>2026-04-30T10:24:13Z</time></trkpt><trkpt lat="31.394027914896313" lon="-4.4317366213780005"><ele>810.0</ele><time>2026-04-30T10:24:14Z</time></trkpt><trkpt lat="31.39393933035536" lon="-4.431680387455921"><ele>810.0</ele><time>2026-04-30T10:24:15Z</time></trkpt><trkpt lat="31.393855463913393" lon="-4.431622754589841"><ele>810.0</ele><time>2026-04-30T10:24:16Z</time></trkpt><trkpt lat="31.393767899322178" lon="-4.431563987555236"><ele>809.8</ele><time>2026-04-30T10:24:17Z</time></trkpt><trkpt lat="31.393682626240775" lon="-4.431506027836389"><ele>809.6</ele><time>2026-04-30T10:24:18Z</time></trkpt><trkpt lat="31.393599481292643" lon="-4.431446679396817"><ele>809.4000000000001</ele><time>2026-04-30T10:24:19Z</time></trkpt><trkpt lat="31.39351446019215" lon="-4.431389566328461"><ele>809.2</ele><time>2026-04-30T10:24:20Z</time></trkpt><trkpt lat="31.39342240257149" lon="-4.4313306926280704"><ele>809.0</ele><time>2026-04-30T10:24:21Z</time></trkpt><trkpt lat="31.393339556989776" lon="-4.4312748320383495"><ele>809.0</ele><time>2026-04-30T10:24:22Z</time></trkpt><trkpt lat="31.393249045341488" lon="-4.431212653890545"><ele>809.0</ele><time>2026-04-30T10:24:23Z</time></trkpt><trkpt lat="31.393158729350876" lon="-4.431150177600127"><ele>809.0</ele><time>2026-04-30T10:24:24Z</time></trkpt><trkpt lat="31.393065294545554" lon="-4.431082566818033"><ele>809.0</ele><time>2026-04-30T10:24:25Z</time></trkpt><trkpt lat="31.392974095097177" lon="-4.431012220380285"><ele>809.0</ele><time>2026-04-30T10:24:26Z</time></trkpt><trkpt lat="31.392881210903624" lon="-4.430941680571032"><ele>809.0</ele><time>2026-04-30T10:24:27Z</time></trkpt><trkpt lat="31.39278569515623" lon="-4.430872865902462"><ele>809.0</ele><time>2026-04-30T10:24:28Z</time></trkpt><trkpt lat="31.392685747097183" lon="-4.430802948079656"><ele>809.0</ele><time>2026-04-30T10:24:29Z</time></trkpt><trkpt lat="31.392584292772476" lon="-4.430732316057778"><ele>809.0</ele><time>2026-04-30T10:24:30Z</time></trkpt><trkpt lat="31.392477717877657" lon="-4.4306625659614305"><ele>809.0</ele><time>2026-04-30T10:24:31Z</time></trkpt><trkpt lat="31.392381753406134" lon="-4.430599692743709"><ele>809.0</ele><time>2026-04-30T10:24:32Z</time></trkpt><trkpt lat="31.392288857541907" lon="-4.430542610973032"><ele>809.0</ele><time>2026-04-30T10:24:33Z</time></trkpt><trkpt lat="31.39219891045158" lon="-4.430488933012552"><ele>809.0</ele><time>2026-04-30T10:24:34Z</time></trkpt><trkpt lat="31.392108970569954" lon="-4.430431816754649"><ele>809.0</ele><time>2026-04-30T10:24:35Z</time></trkpt><trkpt lat="31.39202134768399" lon="-4.430369976257068"><ele>808.2</ele><time>2026-04-30T10:24:36Z</time></trkpt><trkpt lat="31.39193251384376" lon="-4.430303408608907"><ele>807.4000000000001</ele><time>2026-04-30T10:24:37Z</time></trkpt><trkpt lat="31.391850751805617" lon="-4.4302450652132634"><ele>806.6</ele><time>2026-04-30T10:24:38Z</time></trkpt><trkpt lat="31.391771761698596" lon="-4.43018470072624"><ele>805.8</ele><time>2026-04-30T10:24:39Z</time></trkpt><trkpt lat="31.391680640666575" lon="-4.430119927245594"><ele>805.0</ele><time>2026-04-30T10:24:40Z</time></trkpt><trkpt lat="31.3915994735235" lon="-4.430062079636624"><ele>804.9999999999999</ele><time>2026-04-30T10:24:41Z</time></trkpt><trkpt lat="31.391526009340804" lon="-4.430006099916454"><ele>805.0</ele><time>2026-04-30T10:24:42Z</time></trkpt><trkpt lat="31.391447718842613" lon="-4.42995053196923"><ele>805.0</ele><time>2026-04-30T10:24:43Z</time></trkpt><trkpt lat="31.391377751385715" lon="-4.429907807302309"><ele>805.0</ele><time>2026-04-30T10:24:44Z</time></trkpt><trkpt lat="31.39131198112111" lon="-4.429870273558827"><ele>804.9999999999999</ele><time>2026-04-30T10:24:45Z</time></trkpt><trkpt lat="31.39124119233242" lon="-4.429824608325484"><ele>805.0</ele><time>2026-04-30T10:24:46Z</time></trkpt><trkpt lat="31.391156763200307" lon="-4.429776948960527"><ele>805.4999999999999</ele><time>2026-04-30T10:24:47Z</time></trkpt><trkpt lat="31.391082142729704" lon="-4.429728076953076"><ele>806.0</ele><time>2026-04-30T10:24:48Z</time></trkpt><trkpt lat="31.391008461681025" lon="-4.429676075486141"><ele>806.5</ele><time>2026-04-30T10:24:49Z</time></trkpt><trkpt lat="31.39093057240995" lon="-4.429630259704749"><ele>807.0</ele><time>2026-04-30T10:24:50Z</time></trkpt><trkpt lat="31.39085020274986" lon="-4.429577290301649"><ele>807.4999999999999</ele><time>2026-04-30T10:24:51Z</time></trkpt><trkpt lat="31.390773756548317" lon="-4.42953130380922"><ele>808.0</ele><time>2026-04-30T10:24:52Z</time></trkpt><trkpt lat="31.39069093622211" lon="-4.429481041486232"><ele>808.0</ele><time>2026-04-30T10:24:53Z</time></trkpt><trkpt lat="31.390609027979064" lon="-4.42943070988475"><ele>808.0</ele><time>2026-04-30T10:24:54Z</time></trkpt><trkpt lat="31.39053059921396" lon="-4.4293736342526735"><ele>808.0</ele><time>2026-04-30T10:24:55Z</time></trkpt><trkpt lat="31.390446588798554" lon="-4.429318038708537"><ele>808.0</ele><time>2026-04-30T10:24:56Z</time></trkpt><trkpt lat="31.390361032765696" lon="-4.4292512464737905"><ele>808.0</ele><time>2026-04-30T10:24:57Z</time></trkpt><trkpt lat="31.390270677159695" lon="-4.4291843585469985"><ele>808.2</ele><time>2026-04-30T10:24:58Z</time></trkpt><trkpt lat="31.390179639789046" lon="-4.42912111543746"><ele>808.4</ele><time>2026-04-30T10:24:59Z</time></trkpt><trkpt lat="31.390082867984873" lon="-4.4290522522803775"><ele>808.6</ele><time>2026-04-30T10:25:00Z</time></trkpt><trkpt lat="31.38999264714937" lon="-4.428987944731719"><ele>808.8000000000001</ele><time>2026-04-30T10:25:01Z</time></trkpt><trkpt lat="31.38990432315486" lon="-4.428930775429907"><ele>809.0</ele><time>2026-04-30T10:25:02Z</time></trkpt><trkpt lat="31.38981610989906" lon="-4.428865101589751"><ele>808.8000000000001</ele><time>2026-04-30T10:25:03Z</time></trkpt><trkpt lat="31.389734063566838" lon="-4.42880696100622"><ele>808.6</ele><time>2026-04-30T10:25:04Z</time></trkpt><trkpt lat="31.389642745753655" lon="-4.428740255482571"><ele>808.4</ele><time>2026-04-30T10:25:05Z</time></trkpt><trkpt lat="31.389550812899323" lon="-4.428677025159143"><ele>808.2</ele><time>2026-04-30T10:25:06Z</time></trkpt><trkpt lat="31.38946071312396" lon="-4.428612129503504"><ele>808.0</ele><time>2026-04-30T10:25:07Z</time></trkpt><trkpt lat="31.38937560993616" lon="-4.4285558628895645"><ele>807.8</ele><time>2026-04-30T10:25:08Z</time></trkpt><trkpt lat="31.389289396160674" lon="-4.428491148726949"><ele>807.5999999999999</ele><time>2026-04-30T10:25:09Z</time></trkpt><trkpt lat="31.389201667798933" lon="-4.428425983635266"><ele>807.4000000000001</ele><time>2026-04-30T10:25:10Z</time></trkpt><trkpt lat="31.389110748671076" lon="-4.428360919069062"><ele>807.2</ele><time>2026-04-30T10:25:11Z</time></trkpt><trkpt lat="31.38902582128213" lon="-4.4282980448204325"><ele>807.0</ele><time>2026-04-30T10:25:12Z</time></trkpt><trkpt lat="31.38894041028196" lon="-4.4282323797905665"><ele>807.0</ele><time>2026-04-30T10:25:13Z</time></trkpt><trkpt lat="31.38885314284759" lon="-4.428163293262252"><ele>807.0</ele><time>2026-04-30T10:25:14Z</time></trkpt><trkpt lat="31.38876737909382" lon="-4.428093393708226"><ele>807.0</ele><time>2026-04-30T10:25:15Z</time></trkpt><trkpt lat="31.388677461482587" lon="-4.428017008287875"><ele>807.0</ele><time>2026-04-30T10:25:16Z</time></trkpt><trkpt lat="31.38858740430389" lon="-4.4279452244493855"><ele>807.0</ele><time>2026-04-30T10:25:17Z</time></trkpt><trkpt lat="31.388494774193624" lon="-4.427879199334349"><ele>806.8</ele><time>2026-04-30T10:25:18Z</time></trkpt><trkpt lat="31.388408436497183" lon="-4.427810870497496"><ele>806.6</ele><time>2026-04-30T10:25:19Z</time></trkpt><trkpt lat="31.388317779611477" lon="-4.427738344986049"><ele>806.4</ele><time>2026-04-30T10:25:20Z</time></trkpt><trkpt lat="31.388229655656758" lon="-4.4276678928357285"><ele>806.1999999999999</ele><time>2026-04-30T10:25:21Z</time></trkpt><trkpt lat="31.388146968820337" lon="-4.427593309714261"><ele>806.0</ele><time>2026-04-30T10:25:22Z</time></trkpt><trkpt lat="31.38805913362736" lon="-4.427519731668645"><ele>805.8</ele><time>2026-04-30T10:25:23Z</time></trkpt><trkpt lat="31.387968625001246" lon="-4.427441074325574"><ele>805.5999999999999</ele><time>2026-04-30T10:25:24Z</time></trkpt><trkpt lat="31.387879499984834" lon="-4.4273649655975325"><ele>805.4</ele><time>2026-04-30T10:25:25Z</time></trkpt><trkpt lat="31.38778762637654" lon="-4.427291561303004"><ele>805.2</ele><time>2026-04-30T10:25:26Z</time></trkpt><trkpt lat="31.387701763324188" lon="-4.42722473530578"><ele>805.0</ele><time>2026-04-30T10:25:27Z</time></trkpt><trkpt lat="31.38761393689931" lon="-4.4271588490878555"><ele>805.0</ele><time>2026-04-30T10:25:28Z</time></trkpt><trkpt lat="31.38752696592004" lon="-4.427099348098413"><ele>805.0</ele><time>2026-04-30T10:25:29Z</time></trkpt><trkpt lat="31.38744307363426" lon="-4.427053776276679"><ele>805.0</ele><time>2026-04-30T10:25:30Z</time></trkpt><trkpt lat="31.38736093125726" lon="-4.42701854687965"><ele>805.0</ele><time>2026-04-30T10:25:31Z</time></trkpt><trkpt lat="31.38727305778155" lon="-4.426989382857682"><ele>805.0</ele><time>2026-04-30T10:25:32Z</time></trkpt><trkpt lat="31.387196927029056" lon="-4.4269703668786935"><ele>805.1666666666666</ele><time>2026-04-30T10:25:33Z</time></trkpt><trkpt lat="31.387115859789244" lon="-4.426931205040292"><ele>805.3333333333333</ele><time>2026-04-30T10:25:34Z</time></trkpt><trkpt lat="31.387040732313157" lon="-4.426886261473157"><ele>805.5</ele><time>2026-04-30T10:25:35Z</time></trkpt><trkpt lat="31.38697318373437" lon="-4.426836242030436"><ele>805.6666666666667</ele><time>2026-04-30T10:25:36Z</time></trkpt><trkpt lat="31.386906794180064" lon="-4.426771247120411"><ele>805.8333333333334</ele><time>2026-04-30T10:25:37.001Z</time></trkpt><trkpt lat="31.386842408945125" lon="-4.4267027488798405"><ele>806.0</ele><time>2026-04-30T10:25:38.001Z</time></trkpt><trkpt lat="31.38678370704754" lon="-4.426635019448611"><ele>806.0000000000001</ele><time>2026-04-30T10:25:39.001Z</time></trkpt><trkpt lat="31.386719550785614" lon="-4.426567743988692"><ele>806.0</ele><time>2026-04-30T10:25:40.001Z</time></trkpt><trkpt lat="31.386657432184762" lon="-4.426499461132307"><ele>806.0</ele><time>2026-04-30T10:25:41.001Z</time></trkpt><trkpt lat="31.386598161558084" lon="-4.426424685340467"><ele>806.0</ele><time>2026-04-30T10:25:42.001Z</time></trkpt><trkpt lat="31.386539405122246" lon="-4.426357533919639"><ele>806.0000000000001</ele><time>2026-04-30T10:25:43.001Z</time></trkpt><trkpt lat="31.386477006170036" lon="-4.426284285812612"><ele>806.0</ele><time>2026-04-30T10:25:44.001Z</time></trkpt><trkpt lat="31.386411987409264" lon="-4.4262152369324435"><ele>806.0000000000001</ele><time>2026-04-30T10:25:45.001Z</time></trkpt><trkpt lat="31.3863506261297" lon="-4.426145433074107"><ele>806.0</ele><time>2026-04-30T10:25:46.001Z</time></trkpt><trkpt lat="31.386288768972282" lon="-4.426076948313684"><ele>806.0</ele><time>2026-04-30T10:25:47.001Z</time></trkpt><trkpt lat="31.386226853387218" lon="-4.426016101484405"><ele>806.0</ele><time>2026-04-30T10:25:48.001Z</time></trkpt><trkpt lat="31.386162188670728" lon="-4.425956576400387"><ele>806.0000000000001</ele><time>2026-04-30T10:25:49.001Z</time></trkpt><trkpt lat="31.386097077351636" lon="-4.425897243350951"><ele>806.0</ele><time>2026-04-30T10:25:50Z</time></trkpt><trkpt lat="31.38602858331292" lon="-4.425842025264357"><ele>806.0</ele><time>2026-04-30T10:25:51Z</time></trkpt><trkpt lat="31.385952679641928" lon="-4.425787572095503"><ele>806.0</ele><time>2026-04-30T10:25:52Z</time></trkpt><trkpt lat="31.385872814336054" lon="-4.425732229360996"><ele>806.0</ele><time>2026-04-30T10:25:53Z</time></trkpt><trkpt lat="31.38579400496869" lon="-4.425678082544291"><ele>806.0</ele><time>2026-04-30T10:25:54Z</time></trkpt><trkpt lat="31.385710369049807" lon="-4.4256220351095585"><ele>806.0</ele><time>2026-04-30T10:25:55Z</time></trkpt><trkpt lat="31.385629146733066" lon="-4.425565307636543"><ele>806.0</ele><time>2026-04-30T10:25:56Z</time></trkpt><trkpt lat="31.385552009761163" lon="-4.42550914075056"><ele>806.0</ele><time>2026-04-30T10:25:57Z</time></trkpt><trkpt lat="31.3854749514086" lon="-4.42545088150416"><ele>806.0</ele><time>2026-04-30T10:25:58Z</time></trkpt><trkpt lat="31.38539527240265" lon="-4.425386879580355"><ele>806.0</ele><time>2026-04-30T10:25:59Z</time></trkpt><trkpt lat="31.385317026428634" lon="-4.425325594905206"><ele>806.0</ele><time>2026-04-30T10:26:00Z</time></trkpt><trkpt lat="31.385240965350853" lon="-4.425256262956601"><ele>805.4</ele><time>2026-04-30T10:26:01Z</time></trkpt><trkpt lat="31.385167632031163" lon="-4.425193930705961"><ele>804.8</ele><time>2026-04-30T10:26:02Z</time></trkpt><trkpt lat="31.38509306155415" lon="-4.425122721488178"><ele>804.1999999999999</ele><time>2026-04-30T10:26:03Z</time></trkpt><trkpt lat="31.385020303664714" lon="-4.425048676090708"><ele>803.5999999999999</ele><time>2026-04-30T10:26:04Z</time></trkpt><trkpt lat="31.384950849470865" lon="-4.424976876429936"><ele>803.0</ele><time>2026-04-30T10:26:05Z</time></trkpt><trkpt lat="31.384883301621855" lon="-4.4249105136047415"><ele>803.0</ele><time>2026-04-30T10:26:06Z</time></trkpt><trkpt lat="31.384811223272816" lon="-4.424837066228896"><ele>803.0</ele><time>2026-04-30T10:26:07Z</time></trkpt><trkpt lat="31.38473482127971" lon="-4.4247625682430805"><ele>803.0</ele><time>2026-04-30T10:26:08Z</time></trkpt><trkpt lat="31.384658369754064" lon="-4.424691926281412"><ele>803.0</ele><time>2026-04-30T10:26:09Z</time></trkpt><trkpt lat="31.384587126681737" lon="-4.424618823017437"><ele>803.0</ele><time>2026-04-30T10:26:10Z</time></trkpt><trkpt lat="31.384516790133063" lon="-4.424555123513823"><ele>802.8</ele><time>2026-04-30T10:26:11Z</time></trkpt><trkpt lat="31.384440261299144" lon="-4.42448172480862"><ele>802.5999999999999</ele><time>2026-04-30T10:26:12Z</time></trkpt><trkpt lat="31.38436805866689" lon="-4.424416517595037"><ele>802.4000000000001</ele><time>2026-04-30T10:26:13Z</time></trkpt><trkpt lat="31.384294160722767" lon="-4.4243482774994"><ele>802.2</ele><time>2026-04-30T10:26:14Z</time></trkpt><trkpt lat="31.384222189961623" lon="-4.42428749083137"><ele>802.0</ele><time>2026-04-30T10:26:15Z</time></trkpt><trkpt lat="31.384150879774335" lon="-4.424218793863116"><ele>802.0</ele><time>2026-04-30T10:26:16Z</time></trkpt><trkpt lat="31.384076183146686" lon="-4.42414916305491"><ele>802.0</ele><time>2026-04-30T10:26:17Z</time></trkpt><trkpt lat="31.384000890542712" lon="-4.424085623817015"><ele>802.0</ele><time>2026-04-30T10:26:18Z</time></trkpt><trkpt lat="31.383922215732863" lon="-4.424010420730776"><ele>802.0</ele><time>2026-04-30T10:26:19Z</time></trkpt><trkpt lat="31.38384837719039" lon="-4.423957139362847"><ele>802.0</ele><time>2026-04-30T10:26:20Z</time></trkpt><trkpt lat="31.38377908193988" lon="-4.42389828653178"><ele>802.0</ele><time>2026-04-30T10:26:21Z</time></trkpt><trkpt lat="31.383700159528455" lon="-4.423836738434629"><ele>802.0</ele><time>2026-04-30T10:26:22Z</time></trkpt><trkpt lat="31.38362790886429" lon="-4.423774821696098"><ele>802.0</ele><time>2026-04-30T10:26:23Z</time></trkpt><trkpt lat="31.383546360557272" lon="-4.423719883039295"><ele>802.0</ele><time>2026-04-30T10:26:24Z</time></trkpt><trkpt lat="31.383473480914084" lon="-4.423668920772423"><ele>802.0</ele><time>2026-04-30T10:26:25Z</time></trkpt><trkpt lat="31.383387269650196" lon="-4.423626128830744"><ele>802.0</ele><time>2026-04-30T10:26:26Z</time></trkpt><trkpt lat="31.383301375577503" lon="-4.423572676182302"><ele>802.0</ele><time>2026-04-30T10:26:27Z</time></trkpt><trkpt lat="31.383212767795428" lon="-4.423530403214072"><ele>802.0</ele><time>2026-04-30T10:26:28Z</time></trkpt><trkpt lat="31.383122531433035" lon="-4.423486124523992"><ele>802.0</ele><time>2026-04-30T10:26:29Z</time></trkpt><trkpt lat="31.3830308094064" lon="-4.423442151398417"><ele>802.0</ele><time>2026-04-30T10:26:30Z</time></trkpt><trkpt lat="31.382943664528202" lon="-4.423398166426861"><ele>801.8333333333333</ele><time>2026-04-30T10:26:31Z</time></trkpt><trkpt lat="31.38285469143259" lon="-4.423352993457573"><ele>801.6666666666666</ele><time>2026-04-30T10:26:32Z</time></trkpt><trkpt lat="31.382769371095254" lon="-4.423308227432571"><ele>801.5</ele><time>2026-04-30T10:26:33Z</time></trkpt><trkpt lat="31.382693456239863" lon="-4.423266853445511"><ele>801.3333333333333</ele><time>2026-04-30T10:26:34Z</time></trkpt><trkpt lat="31.382619174276936" lon="-4.423229105196805"><ele>801.1666666666666</ele><time>2026-04-30T10:26:35Z</time></trkpt><trkpt lat="31.382545572852504" lon="-4.423184017752688"><ele>801.0</ele><time>2026-04-30T10:26:36Z</time></trkpt><trkpt lat="31.382477743742815" lon="-4.4231352458374955"><ele>801.0</ele><time>2026-04-30T10:26:37Z</time></trkpt><trkpt lat="31.382413675136572" lon="-4.423076033137913"><ele>801.0</ele><time>2026-04-30T10:26:38Z</time></trkpt><trkpt lat="31.38235679753872" lon="-4.4230124348018975"><ele>801.0</ele><time>2026-04-30T10:26:39Z</time></trkpt><trkpt lat="31.382299148536067" lon="-4.422949504748611"><ele>801.0</ele><time>2026-04-30T10:26:40Z</time></trkpt><trkpt lat="31.38223339766423" lon="-4.42287725848054"><ele>801.0</ele><time>2026-04-30T10:26:41Z</time></trkpt><trkpt lat="31.38216647099383" lon="-4.4228017333567875"><ele>801.0</ele><time>2026-04-30T10:26:42Z</time></trkpt><trkpt lat="31.382094205840893" lon="-4.422725715551875"><ele>801.1999999999999</ele><time>2026-04-30T10:26:43Z</time></trkpt><trkpt lat="31.382026018932248" lon="-4.422658683441819"><ele>801.4</ele><time>2026-04-30T10:26:44Z</time></trkpt><trkpt lat="31.38195214657778" lon="-4.422588701511037"><ele>801.6</ele><time>2026-04-30T10:26:45Z</time></trkpt><trkpt lat="31.38187334622849" lon="-4.422516013819474"><ele>801.8</ele><time>2026-04-30T10:26:46Z</time></trkpt><trkpt lat="31.38178691985754" lon="-4.422442074101579"><ele>802.0</ele><time>2026-04-30T10:26:47Z</time></trkpt><trkpt lat="31.38171087943559" lon="-4.422375440396903"><ele>802.0</ele><time>2026-04-30T10:26:48Z</time></trkpt><trkpt lat="31.38163286364464" lon="-4.422316100936925"><ele>802.0</ele><time>2026-04-30T10:26:49Z</time></trkpt><trkpt lat="31.3815476478066" lon="-4.4222508811953745"><ele>802.0</ele><time>2026-04-30T10:26:50Z</time></trkpt><trkpt lat="31.38146950072725" lon="-4.422184753955417"><ele>802.0</ele><time>2026-04-30T10:26:51Z</time></trkpt><trkpt lat="31.38139150704162" lon="-4.422121014491331"><ele>802.0</ele><time>2026-04-30T10:26:52Z</time></trkpt><trkpt lat="31.381306999379326" lon="-4.422055901871191"><ele>801.8</ele><time>2026-04-30T10:26:53Z</time></trkpt><trkpt lat="31.381227875799794" lon="-4.421989023374904"><ele>801.6</ele><time>2026-04-30T10:26:54Z</time></trkpt><trkpt lat="31.381152106612934" lon="-4.421922137545776"><ele>801.4</ele><time>2026-04-30T10:26:55Z</time></trkpt><trkpt lat="31.38107515317777" lon="-4.421861070093051"><ele>801.1999999999999</ele><time>2026-04-30T10:26:56Z</time></trkpt><trkpt lat="31.380988413614872" lon="-4.421799891304121"><ele>801.0</ele><time>2026-04-30T10:26:57Z</time></trkpt><trkpt lat="31.380909862593377" lon="-4.421730618980361"><ele>801.0</ele><time>2026-04-30T10:26:58Z</time></trkpt><trkpt lat="31.38082802107078" lon="-4.421654733095746"><ele>801.0</ele><time>2026-04-30T10:26:59Z</time></trkpt><trkpt lat="31.38075391353274" lon="-4.4215795059112555"><ele>801.0</ele><time>2026-04-30T10:27:00Z</time></trkpt><trkpt lat="31.380675836100085" lon="-4.4215003241485675"><ele>801.0</ele><time>2026-04-30T10:27:01Z</time></trkpt><trkpt lat="31.380601935622327" lon="-4.421411926805934"><ele>801.0</ele><time>2026-04-30T10:27:02Z</time></trkpt><trkpt lat="31.38052724952687" lon="-4.421319237563254"><ele>801.0</ele><time>2026-04-30T10:27:03Z</time></trkpt><trkpt lat="31.38046909010898" lon="-4.421247448304434"><ele>801.0</ele><time>2026-04-30T10:27:04Z</time></trkpt><trkpt lat="31.380407716596547" lon="-4.421186110479654"><ele>801.0</ele><time>2026-04-30T10:27:05Z</time></trkpt><trkpt lat="31.380347254781842" lon="-4.421127530961813"><ele>801.0</ele><time>2026-04-30T10:27:06Z</time></trkpt><trkpt lat="31.380281458669565" lon="-4.4210634319627"><ele>801.0</ele><time>2026-04-30T10:27:07Z</time></trkpt><trkpt lat="31.38021807043538" lon="-4.4210074307795"><ele>801.0</ele><time>2026-04-30T10:27:08Z</time></trkpt><trkpt lat="31.38017107773924" lon="-4.420944071643885"><ele>801.0</ele><time>2026-04-30T10:27:09Z</time></trkpt><trkpt lat="31.380118056869993" lon="-4.420861707835146"><ele>801.0</ele><time>2026-04-30T10:27:10Z</time></trkpt><trkpt lat="31.38006760988411" lon="-4.420793313356726"><ele>801.0</ele><time>2026-04-30T10:27:11Z</time></trkpt><trkpt lat="31.38002161129065" lon="-4.420725786876681"><ele>801.0</ele><time>2026-04-30T10:27:12Z</time></trkpt><trkpt lat="31.37997629513977" lon="-4.42065264972535"><ele>801.0</ele><time>2026-04-30T10:27:13Z</time></trkpt><trkpt lat="31.379922219457757" lon="-4.420574272261027"><ele>801.0</ele><time>2026-04-30T10:27:14Z</time></trkpt><trkpt lat="31.379860890394568" lon="-4.420490618142776"><ele>801.0</ele><time>2026-04-30T10:27:15Z</time></trkpt><trkpt lat="31.379796121531847" lon="-4.420413135774479"><ele>801.0</ele><time>2026-04-30T10:27:16Z</time></trkpt><trkpt lat="31.379736070753914" lon="-4.420339593022029"><ele>801.0</ele><time>2026-04-30T10:27:17Z</time></trkpt><trkpt lat="31.37966799365323" lon="-4.420266577298318"><ele>801.0</ele><time>2026-04-30T10:27:18Z</time></trkpt><trkpt lat="31.379603016995034" lon="-4.4201915608702675"><ele>801.0</ele><time>2026-04-30T10:27:19Z</time></trkpt><trkpt lat="31.379535478157244" lon="-4.420120526879753"><ele>800.8</ele><time>2026-04-30T10:27:20Z</time></trkpt><trkpt lat="31.37946221984494" lon="-4.420049316454256"><ele>800.5999999999999</ele><time>2026-04-30T10:27:21Z</time></trkpt><trkpt lat="31.379387495971756" lon="-4.419973289420116"><ele>800.4</ele><time>2026-04-30T10:27:22Z</time></trkpt><trkpt lat="31.379314151425724" lon="-4.419903290959376"><ele>800.2</ele><time>2026-04-30T10:27:23Z</time></trkpt><trkpt lat="31.37924520587923" lon="-4.419835720721136"><ele>800.0</ele><time>2026-04-30T10:27:24Z</time></trkpt><trkpt lat="31.379172012630786" lon="-4.419766371624345"><ele>800.0</ele><time>2026-04-30T10:27:25Z</time></trkpt><trkpt lat="31.37910295388067" lon="-4.419697045263711"><ele>800.0</ele><time>2026-04-30T10:27:26Z</time></trkpt><trkpt lat="31.37903173992844" lon="-4.419625042163743"><ele>800.0</ele><time>2026-04-30T10:27:27Z</time></trkpt><trkpt lat="31.3789636400278" lon="-4.419554720073517"><ele>800.0</ele><time>2026-04-30T10:27:28Z</time></trkpt><trkpt lat="31.37889326899998" lon="-4.419477947598244"><ele>800.0</ele><time>2026-04-30T10:27:29Z</time></trkpt><trkpt lat="31.378825269439307" lon="-4.419402493922986"><ele>799.8</ele><time>2026-04-30T10:27:30Z</time></trkpt><trkpt lat="31.378757977368426" lon="-4.419321393506789"><ele>799.6</ele><time>2026-04-30T10:27:31Z</time></trkpt><trkpt lat="31.37867810179389" lon="-4.4192418079206535"><ele>799.4000000000001</ele><time>2026-04-30T10:27:32Z</time></trkpt><trkpt lat="31.37860533005633" lon="-4.419165248034577"><ele>799.2</ele><time>2026-04-30T10:27:33Z</time></trkpt><trkpt lat="31.378523624120792" lon="-4.419085248288376"><ele>799.0</ele><time>2026-04-30T10:27:34Z</time></trkpt><trkpt lat="31.378442463794766" lon="-4.41901622316955"><ele>799.0</ele><time>2026-04-30T10:27:35Z</time></trkpt><trkpt lat="31.378362032354453" lon="-4.418945870934063"><ele>799.0</ele><time>2026-04-30T10:27:36Z</time></trkpt><trkpt lat="31.378278185453237" lon="-4.41887547517234"><ele>799.0</ele><time>2026-04-30T10:27:37Z</time></trkpt><trkpt lat="31.37819245993041" lon="-4.4188046824418254"><ele>799.0</ele><time>2026-04-30T10:27:38Z</time></trkpt><trkpt lat="31.378106957560462" lon="-4.418735172447988"><ele>799.0</ele><time>2026-04-30T10:27:39Z</time></trkpt><trkpt lat="31.378024069492714" lon="-4.418665505199587"><ele>799.2</ele><time>2026-04-30T10:27:40Z</time></trkpt><trkpt lat="31.377941370403175" lon="-4.418593766900258"><ele>799.4000000000001</ele><time>2026-04-30T10:27:41Z</time></trkpt><trkpt lat="31.37785909308189" lon="-4.418520139815384"><ele>799.6</ele><time>2026-04-30T10:27:42Z</time></trkpt><trkpt lat="31.377776991988892" lon="-4.418442673921537"><ele>799.8</ele><time>2026-04-30T10:27:43Z</time></trkpt><trkpt lat="31.377692901367592" lon="-4.418359970587606"><ele>800.0</ele><time>2026-04-30T10:27:44Z</time></trkpt><trkpt lat="31.377616309538887" lon="-4.418288268006354"><ele>800.0000000000001</ele><time>2026-04-30T10:27:45Z</time></trkpt><trkpt lat="31.377550157555184" lon="-4.418220325772826"><ele>800.0</ele><time>2026-04-30T10:27:46Z</time></trkpt><trkpt lat="31.377493983196587" lon="-4.418166177919274"><ele>800.0</ele><time>2026-04-30T10:27:47Z</time></trkpt><trkpt lat="31.37743124040218" lon="-4.418096675898041"><ele>800.0</ele><time>2026-04-30T10:27:48Z</time></trkpt><trkpt lat="31.377360531578198" lon="-4.418025470124262"><ele>800.0000000000001</ele><time>2026-04-30T10:27:49Z</time></trkpt><trkpt lat="31.377292814292446" lon="-4.417949337674869"><ele>800.0</ele><time>2026-04-30T10:27:50Z</time></trkpt><trkpt lat="31.377223146903503" lon="-4.417868532132268"><ele>800.6</ele><time>2026-04-30T10:27:51Z</time></trkpt><trkpt lat="31.377159420198264" lon="-4.417787924240019"><ele>801.2</ele><time>2026-04-30T10:27:52Z</time></trkpt><trkpt lat="31.377085311855193" lon="-4.417693519863567"><ele>801.8</ele><time>2026-04-30T10:27:53Z</time></trkpt><trkpt lat="31.37701736737846" lon="-4.417603166286792"><ele>802.4</ele><time>2026-04-30T10:27:54Z</time></trkpt><trkpt lat="31.376941551346505" lon="-4.4175062583359"><ele>803.0</ele><time>2026-04-30T10:27:55Z</time></trkpt><trkpt lat="31.37686532325777" lon="-4.417416269453896"><ele>803.0</ele><time>2026-04-30T10:27:56Z</time></trkpt><trkpt lat="31.376788466172655" lon="-4.41733906733136"><ele>803.0</ele><time>2026-04-30T10:27:57Z</time></trkpt><trkpt lat="31.376713378093335" lon="-4.417260768838035"><ele>803.0</ele><time>2026-04-30T10:27:58Z</time></trkpt><trkpt lat="31.376634496834562" lon="-4.417186124957158"><ele>803.0</ele><time>2026-04-30T10:27:59Z</time></trkpt><trkpt lat="31.376558385502054" lon="-4.4171202073826334"><ele>803.0</ele><time>2026-04-30T10:28:00Z</time></trkpt><trkpt lat="31.376483589310677" lon="-4.417060784153901"><ele>802.8333333333334</ele><time>2026-04-30T10:28:01Z</time></trkpt><trkpt lat="31.376416317284846" lon="-4.417006704969777"><ele>802.6666666666667</ele><time>2026-04-30T10:28:02Z</time></trkpt><trkpt lat="31.376353896919284" lon="-4.416962596598954"><ele>802.5</ele><time>2026-04-30T10:28:03Z</time></trkpt><trkpt lat="31.37629208847424" lon="-4.416914551228444"><ele>802.3333333333333</ele><time>2026-04-30T10:28:04Z</time></trkpt><trkpt lat="31.376229186185405" lon="-4.4168611731986225"><ele>802.1666666666666</ele><time>2026-04-30T10:28:05Z</time></trkpt><trkpt lat="31.376161980119623" lon="-4.4168027945783415"><ele>802.0</ele><time>2026-04-30T10:28:06Z</time></trkpt><trkpt lat="31.37609016719274" lon="-4.416745230306451"><ele>802.0</ele><time>2026-04-30T10:28:07Z</time></trkpt><trkpt lat="31.37600926817176" lon="-4.416695133151972"><ele>802.0</ele><time>2026-04-30T10:28:08Z</time></trkpt><trkpt lat="31.375929377217517" lon="-4.416640576526765"><ele>802.0</ele><time>2026-04-30T10:28:09Z</time></trkpt><trkpt lat="31.375845036251814" lon="-4.416595242916076"><ele>802.0</ele><time>2026-04-30T10:28:10Z</time></trkpt><trkpt lat="31.375747768894875" lon="-4.416541956224303"><ele>802.0</ele><time>2026-04-30T10:28:11Z</time></trkpt><trkpt lat="31.375669354996045" lon="-4.416493586073389"><ele>802.0</ele><time>2026-04-30T10:28:12Z</time></trkpt><trkpt lat="31.375581699651317" lon="-4.4164438910666215"><ele>802.0</ele><time>2026-04-30T10:28:13Z</time></trkpt><trkpt lat="31.375495774329153" lon="-4.416391690891391"><ele>802.0</ele><time>2026-04-30T10:28:14Z</time></trkpt><trkpt lat="31.375412440567846" lon="-4.416343326659011"><ele>802.0</ele><time>2026-04-30T10:28:15Z</time></trkpt><trkpt lat="31.37531500428237" lon="-4.416290768195125"><ele>802.0</ele><time>2026-04-30T10:28:16Z</time></trkpt><trkpt lat="31.37521861275908" lon="-4.416234537762139"><ele>801.4000000000001</ele><time>2026-04-30T10:28:17Z</time></trkpt><trkpt lat="31.37512547521652" lon="-4.41617946407695"><ele>800.8000000000001</ele><time>2026-04-30T10:28:18Z</time></trkpt><trkpt lat="31.37503985461418" lon="-4.416127240687065"><ele>800.2</ele><time>2026-04-30T10:28:19Z</time></trkpt><trkpt lat="31.374946063771493" lon="-4.416071749964058"><ele>799.6</ele><time>2026-04-30T10:28:20Z</time></trkpt><trkpt lat="31.374851422095748" lon="-4.416011595850509"><ele>799.0</ele><time>2026-04-30T10:28:21Z</time></trkpt><trkpt lat="31.3747635181933" lon="-4.415959023276385"><ele>799.4000000000001</ele><time>2026-04-30T10:28:22Z</time></trkpt><trkpt lat="31.374670585463345" lon="-4.415903878299182"><ele>799.8</ele><time>2026-04-30T10:28:23Z</time></trkpt><trkpt lat="31.37457645060797" lon="-4.415852008859419"><ele>800.2</ele><time>2026-04-30T10:28:24Z</time></trkpt><trkpt lat="31.374485819871378" lon="-4.415795548541145"><ele>800.5999999999999</ele><time>2026-04-30T10:28:25Z</time></trkpt><trkpt lat="31.374399716861248" lon="-4.415735888487004"><ele>801.0</ele><time>2026-04-30T10:28:26Z</time></trkpt><trkpt lat="31.3743095336691" lon="-4.415676333207791"><ele>801.0</ele><time>2026-04-30T10:28:27Z</time></trkpt><trkpt lat="31.374219468488757" lon="-4.415613983064388"><ele>801.0</ele><time>2026-04-30T10:28:28Z</time></trkpt><trkpt lat="31.374127129595642" lon="-4.41554823516629"><ele>801.0</ele><time>2026-04-30T10:28:29Z</time></trkpt><trkpt lat="31.374033899179558" lon="-4.415479744594396"><ele>801.0</ele><time>2026-04-30T10:28:30Z</time></trkpt><trkpt lat="31.37393858803617" lon="-4.415413031832809"><ele>801.0</ele><time>2026-04-30T10:28:31Z</time></trkpt><trkpt lat="31.373845756126492" lon="-4.4153469574471265"><ele>800.5999999999999</ele><time>2026-04-30T10:28:32Z</time></trkpt><trkpt lat="31.37375290811755" lon="-4.415279698267005"><ele>800.2</ele><time>2026-04-30T10:28:33Z</time></trkpt><trkpt lat="31.373665931023996" lon="-4.415218559233571"><ele>799.8</ele><time>2026-04-30T10:28:34Z</time></trkpt><trkpt lat="31.37358183529973" lon="-4.415156247395532"><ele>799.4000000000001</ele><time>2026-04-30T10:28:35Z</time></trkpt><trkpt lat="31.3734939123979" lon="-4.415095099252556"><ele>799.0</ele><time>2026-04-30T10:28:36Z</time></trkpt><trkpt lat="31.373406992573305" lon="-4.415031792701052"><ele>799.0</ele><time>2026-04-30T10:28:37Z</time></trkpt><trkpt lat="31.37332176888635" lon="-4.414969271213493"><ele>799.0</ele><time>2026-04-30T10:28:38Z</time></trkpt><trkpt lat="31.373234691685184" lon="-4.414901708764584"><ele>799.0</ele><time>2026-04-30T10:28:39Z</time></trkpt><trkpt lat="31.373147730375756" lon="-4.414837288910615"><ele>799.0</ele><time>2026-04-30T10:28:40Z</time></trkpt><trkpt lat="31.373057768287673" lon="-4.414776173160056"><ele>799.0</ele><time>2026-04-30T10:28:41Z</time></trkpt><trkpt lat="31.37297327656061" lon="-4.414716240348711"><ele>800.0</ele><time>2026-04-30T10:28:42Z</time></trkpt><trkpt lat="31.37288157121367" lon="-4.414654797252853"><ele>801.0</ele><time>2026-04-30T10:28:43Z</time></trkpt><trkpt lat="31.3727912286438" lon="-4.4145936075241226"><ele>802.0</ele><time>2026-04-30T10:28:44Z</time></trkpt><trkpt lat="31.372713118487123" lon="-4.414544762474488"><ele>803.0</ele><time>2026-04-30T10:28:45Z</time></trkpt><trkpt lat="31.37264412238794" lon="-4.41450100056074"><ele>804.0</ele><time>2026-04-30T10:28:46Z</time></trkpt><trkpt lat="31.372564586166387" lon="-4.414444943038726"><ele>804.0</ele><time>2026-04-30T10:28:47Z</time></trkpt><trkpt lat="31.37247381974803" lon="-4.4143860609712435"><ele>804.0</ele><time>2026-04-30T10:28:48Z</time></trkpt><trkpt lat="31.372385887738197" lon="-4.4143331891392545"><ele>804.0</ele><time>2026-04-30T10:28:49Z</time></trkpt><trkpt lat="31.372290533161927" lon="-4.414281714535297"><ele>804.0</ele><time>2026-04-30T10:28:50Z</time></trkpt><trkpt lat="31.372191957249697" lon="-4.414231287638846"><ele>804.0</ele><time>2026-04-30T10:28:51Z</time></trkpt><trkpt lat="31.37208850625665" lon="-4.414184442943409"><ele>804.2</ele><time>2026-04-30T10:28:52Z</time></trkpt><trkpt lat="31.371989786275645" lon="-4.414138729417594"><ele>804.4000000000001</ele><time>2026-04-30T10:28:53Z</time></trkpt><trkpt lat="31.37189041509815" lon="-4.414093472937952"><ele>804.6</ele><time>2026-04-30T10:28:54Z</time></trkpt><trkpt lat="31.371794725489746" lon="-4.414052421220017"><ele>804.8</ele><time>2026-04-30T10:28:55Z</time></trkpt><trkpt lat="31.37169493066776" lon="-4.414010967655564"><ele>805.0</ele><time>2026-04-30T10:28:56Z</time></trkpt><trkpt lat="31.371598540172663" lon="-4.413984032208735"><ele>805.0</ele><time>2026-04-30T10:28:57Z</time></trkpt><trkpt lat="31.371496721952397" lon="-4.413950045466212"><ele>805.0</ele><time>2026-04-30T10:28:58Z</time></trkpt><trkpt lat="31.371398255082457" lon="-4.413930856236857"><ele>805.0</ele><time>2026-04-30T10:28:59Z</time></trkpt><trkpt lat="31.37129863331878" lon="-4.413916604739948"><ele>805.0</ele><time>2026-04-30T10:29:00Z</time></trkpt><trkpt lat="31.371194763555867" lon="-4.413897257149722"><ele>805.0</ele><time>2026-04-30T10:29:01Z</time></trkpt><trkpt lat="31.37109189613483" lon="-4.413882755595519"><ele>805.4</ele><time>2026-04-30T10:29:02Z</time></trkpt><trkpt lat="31.37099201023179" lon="-4.413877554627444"><ele>805.8</ele><time>2026-04-30T10:29:03Z</time></trkpt><trkpt lat="31.370898687134073" lon="-4.413886104408978"><ele>806.2</ele><time>2026-04-30T10:29:04Z</time></trkpt><trkpt lat="31.370803921537675" lon="-4.413899259658671"><ele>806.6</ele><time>2026-04-30T10:29:05Z</time></trkpt><trkpt lat="31.370715392348682" lon="-4.413920201146255"><ele>807.0</ele><time>2026-04-30T10:29:06Z</time></trkpt><trkpt lat="31.370640423418195" lon="-4.413965458987562"><ele>807.0</ele><time>2026-04-30T10:29:07Z</time></trkpt><trkpt lat="31.370556985135178" lon="-4.414015593165195"><ele>807.0</ele><time>2026-04-30T10:29:08Z</time></trkpt><trkpt lat="31.3704807689397" lon="-4.414061635085154"><ele>807.0</ele><time>2026-04-30T10:29:09Z</time></trkpt><trkpt lat="31.37039849747937" lon="-4.414099344844892"><ele>807.0</ele><time>2026-04-30T10:29:10Z</time></trkpt><trkpt lat="31.370313684355885" lon="-4.414115196247627"><ele>807.0</ele><time>2026-04-30T10:29:11Z</time></trkpt><trkpt lat="31.37022797614004" lon="-4.41413944286829"><ele>807.0</ele><time>2026-04-30T10:29:12Z</time></trkpt><trkpt lat="31.370147810124603" lon="-4.4141607486503185"><ele>806.5</ele><time>2026-04-30T10:29:13Z</time></trkpt><trkpt lat="31.370061823790355" lon="-4.4141862396145015"><ele>806.0</ele><time>2026-04-30T10:29:14Z</time></trkpt><trkpt lat="31.369976106930036" lon="-4.414217562046418"><ele>805.5</ele><time>2026-04-30T10:29:15Z</time></trkpt><trkpt lat="31.36988922752179" lon="-4.41424636996571"><ele>805.0</ele><time>2026-04-30T10:29:16Z</time></trkpt><trkpt lat="31.36980658480424" lon="-4.414276435415206"><ele>804.5</ele><time>2026-04-30T10:29:17Z</time></trkpt><trkpt lat="31.36972272981608" lon="-4.414302474046215"><ele>804.0</ele><time>2026-04-30T10:29:18Z</time></trkpt><trkpt lat="31.369636279533633" lon="-4.4143328151149435"><ele>803.8000000000001</ele><time>2026-04-30T10:29:19Z</time></trkpt><trkpt lat="31.36954765019008" lon="-4.414363218573269"><ele>803.6</ele><time>2026-04-30T10:29:20Z</time></trkpt><trkpt lat="31.36946008661884" lon="-4.414393314783321"><ele>803.4</ele><time>2026-04-30T10:29:21Z</time></trkpt><trkpt lat="31.36937228737122" lon="-4.414420942242382"><ele>803.2</ele><time>2026-04-30T10:29:22Z</time></trkpt><trkpt lat="31.369285479991404" lon="-4.414447332999387"><ele>803.0</ele><time>2026-04-30T10:29:23Z</time></trkpt><trkpt lat="31.369193539988114" lon="-4.414474281001131"><ele>803.0</ele><time>2026-04-30T10:29:24Z</time></trkpt><trkpt lat="31.36910396735171" lon="-4.414502634963973"><ele>803.0</ele><time>2026-04-30T10:29:25Z</time></trkpt><trkpt lat="31.36901853125399" lon="-4.414531525709016"><ele>803.0</ele><time>2026-04-30T10:29:26Z</time></trkpt><trkpt lat="31.368924143633084" lon="-4.4145614497194305"><ele>803.0</ele><time>2026-04-30T10:29:27Z</time></trkpt><trkpt lat="31.368825304193376" lon="-4.41458798310501"><ele>803.0</ele><time>2026-04-30T10:29:28Z</time></trkpt><trkpt lat="31.368726972265186" lon="-4.414614506548727"><ele>802.5999999999999</ele><time>2026-04-30T10:29:29Z</time></trkpt><trkpt lat="31.3686276646201" lon="-4.414645623710942"><ele>802.1999999999999</ele><time>2026-04-30T10:29:30Z</time></trkpt><trkpt lat="31.36852683878611" lon="-4.414671678137367"><ele>801.8</ele><time>2026-04-30T10:29:31Z</time></trkpt><trkpt lat="31.3684135036742" lon="-4.414675906553709"><ele>801.4</ele><time>2026-04-30T10:29:32Z</time></trkpt><trkpt lat="31.368307576165538" lon="-4.414692630179627"><ele>801.0</ele><time>2026-04-30T10:29:33Z</time></trkpt><trkpt lat="31.368200310164195" lon="-4.414703644908185"><ele>801.0</ele><time>2026-04-30T10:29:34Z</time></trkpt><trkpt lat="31.368088302139075" lon="-4.414712013260492"><ele>801.0</ele><time>2026-04-30T10:29:35Z</time></trkpt><trkpt lat="31.367976013104165" lon="-4.414719386542634"><ele>801.0</ele><time>2026-04-30T10:29:36Z</time></trkpt><trkpt lat="31.36787287661556" lon="-4.41472232917914"><ele>801.0</ele><time>2026-04-30T10:29:37Z</time></trkpt><trkpt lat="31.36778648985881" lon="-4.414726020640082"><ele>801.0</ele><time>2026-04-30T10:29:38Z</time></trkpt><trkpt lat="31.367689883931252" lon="-4.414735377274488"><ele>800.4</ele><time>2026-04-30T10:29:39Z</time></trkpt><trkpt lat="31.367589673733256" lon="-4.414741995412511"><ele>799.8</ele><time>2026-04-30T10:29:40Z</time></trkpt><trkpt lat="31.367487934426457" lon="-4.41474919935378"><ele>799.1999999999999</ele><time>2026-04-30T10:29:41Z</time></trkpt><trkpt lat="31.36738677873269" lon="-4.41475536781636"><ele>798.5999999999999</ele><time>2026-04-30T10:29:42Z</time></trkpt><trkpt lat="31.367282414298632" lon="-4.414760864028803"><ele>798.0</ele><time>2026-04-30T10:29:43Z</time></trkpt><trkpt lat="31.367178467405285" lon="-4.414765934611201"><ele>797.8</ele><time>2026-04-30T10:29:44Z</time></trkpt><trkpt lat="31.367078090177362" lon="-4.414775776195634"><ele>797.5999999999999</ele><time>2026-04-30T10:29:45Z</time></trkpt><trkpt lat="31.366964600752794" lon="-4.414778350255362"><ele>797.4000000000001</ele><time>2026-04-30T10:29:46Z</time></trkpt><trkpt lat="31.366851891298168" lon="-4.414781410105476"><ele>797.2</ele><time>2026-04-30T10:29:47Z</time></trkpt><trkpt lat="31.366730754453343" lon="-4.414779836779699"><ele>797.0</ele><time>2026-04-30T10:29:48Z</time></trkpt><trkpt lat="31.366620484072023" lon="-4.414775221151726"><ele>797.0</ele><time>2026-04-30T10:29:49Z</time></trkpt><trkpt lat="31.36651818151998" lon="-4.414772349641203"><ele>797.0</ele><time>2026-04-30T10:29:50Z</time></trkpt><trkpt lat="31.366416004958705" lon="-4.414767220038339"><ele>797.0</ele><time>2026-04-30T10:29:51Z</time></trkpt><trkpt lat="31.3663157822801" lon="-4.414759641418518"><ele>797.0</ele><time>2026-04-30T10:29:52Z</time></trkpt><trkpt lat="31.366209271477324" lon="-4.414752520132438"><ele>797.0</ele><time>2026-04-30T10:29:53Z</time></trkpt><trkpt lat="31.366102514019953" lon="-4.414740561521873"><ele>796.8</ele><time>2026-04-30T10:29:54Z</time></trkpt><trkpt lat="31.36600023939603" lon="-4.4147286433603465"><ele>796.6</ele><time>2026-04-30T10:29:55Z</time></trkpt><trkpt lat="31.365896810906687" lon="-4.4147125570995405"><ele>796.4</ele><time>2026-04-30T10:29:56Z</time></trkpt><trkpt lat="31.365784022281716" lon="-4.414685829163124"><ele>796.1999999999999</ele><time>2026-04-30T10:29:57Z</time></trkpt><trkpt lat="31.365672212994724" lon="-4.414657436796485"><ele>796.0</ele><time>2026-04-30T10:29:58Z</time></trkpt><trkpt lat="31.365557509656067" lon="-4.414626859790579"><ele>796.0</ele><time>2026-04-30T10:29:59Z</time></trkpt><trkpt lat="31.36546369278495" lon="-4.414604849113071"><ele>796.0</ele><time>2026-04-30T10:30:00Z</time></trkpt><trkpt lat="31.365358415428204" lon="-4.414574165392509"><ele>796.0</ele><time>2026-04-30T10:30:01Z</time></trkpt><trkpt lat="31.36525173895415" lon="-4.414537921053506"><ele>796.0</ele><time>2026-04-30T10:30:02Z</time></trkpt><trkpt lat="31.36514188717351" lon="-4.414499504314324"><ele>796.0</ele><time>2026-04-30T10:30:03Z</time></trkpt><trkpt lat="31.365024666733312" lon="-4.414463328262869"><ele>796.0</ele><time>2026-04-30T10:30:04Z</time></trkpt><trkpt lat="31.36492074889222" lon="-4.414441214506195"><ele>796.0</ele><time>2026-04-30T10:30:05Z</time></trkpt><trkpt lat="31.36481940690318" lon="-4.414412119376546"><ele>796.0</ele><time>2026-04-30T10:30:06Z</time></trkpt><trkpt lat="31.364714393418843" lon="-4.414388045913111"><ele>796.0</ele><time>2026-04-30T10:30:07Z</time></trkpt><trkpt lat="31.364608981438163" lon="-4.41436207429326"><ele>796.0</ele><time>2026-04-30T10:30:08Z</time></trkpt><trkpt lat="31.364504531209988" lon="-4.414337821798124"><ele>795.5999999999999</ele><time>2026-04-30T10:30:09Z</time></trkpt><trkpt lat="31.36440393338743" lon="-4.4143122093455665"><ele>795.2</ele><time>2026-04-30T10:30:10Z</time></trkpt><trkpt lat="31.36429938120335" lon="-4.4142873917946535"><ele>794.8</ele><time>2026-04-30T10:30:11Z</time></trkpt><trkpt lat="31.364193081025824" lon="-4.4142531317582065"><ele>794.4000000000001</ele><time>2026-04-30T10:30:12Z</time></trkpt><trkpt lat="31.364094890196277" lon="-4.414225665441147"><ele>794.0</ele><time>2026-04-30T10:30:13Z</time></trkpt><trkpt lat="31.363991185853862" lon="-4.414192752542269"><ele>794.0</ele><time>2026-04-30T10:30:14Z</time></trkpt><trkpt lat="31.36389991624017" lon="-4.414165268666601"><ele>794.0</ele><time>2026-04-30T10:30:15Z</time></trkpt><trkpt lat="31.363800600504355" lon="-4.41412571552873"><ele>794.0</ele><time>2026-04-30T10:30:16Z</time></trkpt><trkpt lat="31.36369929740831" lon="-4.414081779921448"><ele>794.0</ele><time>2026-04-30T10:30:17Z</time></trkpt><trkpt lat="31.36359424464477" lon="-4.41403311522079"><ele>794.0</ele><time>2026-04-30T10:30:18Z</time></trkpt><trkpt lat="31.363501212603417" lon="-4.413999324504484"><ele>794.0</ele><time>2026-04-30T10:30:19Z</time></trkpt><trkpt lat="31.363406100692217" lon="-4.413968702772149"><ele>794.0</ele><time>2026-04-30T10:30:20Z</time></trkpt><trkpt lat="31.363311253814285" lon="-4.413948307070117"><ele>794.0</ele><time>2026-04-30T10:30:21Z</time></trkpt><trkpt lat="31.36321047514836" lon="-4.413929502275071"><ele>794.0</ele><time>2026-04-30T10:30:22Z</time></trkpt><trkpt lat="31.363103932292262" lon="-4.413912623407418"><ele>794.0</ele><time>2026-04-30T10:30:23Z</time></trkpt><trkpt lat="31.363002370265324" lon="-4.413897958632283"><ele>794.0</ele><time>2026-04-30T10:30:24Z</time></trkpt><trkpt lat="31.362899578397503" lon="-4.413889271977983"><ele>794.0</ele><time>2026-04-30T10:30:25Z</time></trkpt><trkpt lat="31.362788265382004" lon="-4.413892102753688"><ele>794.0</ele><time>2026-04-30T10:30:26Z</time></trkpt><trkpt lat="31.362682304481773" lon="-4.413900822781453"><ele>794.0</ele><time>2026-04-30T10:30:27Z</time></trkpt><trkpt lat="31.362575897413148" lon="-4.413906104419858"><ele>794.0</ele><time>2026-04-30T10:30:28Z</time></trkpt><trkpt lat="31.36247072614729" lon="-4.413908194609814"><ele>794.0</ele><time>2026-04-30T10:30:29Z</time></trkpt><trkpt lat="31.362362254975086" lon="-4.413908173017425"><ele>794.0</ele><time>2026-04-30T10:30:30Z</time></trkpt><trkpt lat="31.362256617413063" lon="-4.413902368593468"><ele>794.0</ele><time>2026-04-30T10:30:31Z</time></trkpt><trkpt lat="31.362148615503024" lon="-4.4138947354225575"><ele>794.0</ele><time>2026-04-30T10:30:32Z</time></trkpt><trkpt lat="31.362043536462895" lon="-4.413890430947759"><ele>794.0</ele><time>2026-04-30T10:30:33Z</time></trkpt><trkpt lat="31.361934981849974" lon="-4.4138811596032825"><ele>794.0</ele><time>2026-04-30T10:30:34Z</time></trkpt><trkpt lat="31.36183258556009" lon="-4.413868287267486"><ele>794.0</ele><time>2026-04-30T10:30:35Z</time></trkpt><trkpt lat="31.361729711939596" lon="-4.4138578248876765"><ele>794.0</ele><time>2026-04-30T10:30:36Z</time></trkpt><trkpt lat="31.361626012608355" lon="-4.413840041861117"><ele>794.0</ele><time>2026-04-30T10:30:37Z</time></trkpt><trkpt lat="31.361524390944453" lon="-4.4138225906402475"><ele>794.0</ele><time>2026-04-30T10:30:38Z</time></trkpt><trkpt lat="31.36143801266785" lon="-4.413818728811788"><ele>793.6</ele><time>2026-04-30T10:30:39Z</time></trkpt><trkpt lat="31.36133410778862" lon="-4.413804720380063"><ele>793.2</ele><time>2026-04-30T10:30:40Z</time></trkpt><trkpt lat="31.361228765761883" lon="-4.413793194417074"><ele>792.8000000000001</ele><time>2026-04-30T10:30:41Z</time></trkpt><trkpt lat="31.361131091044626" lon="-4.4137888817741615"><ele>792.4000000000001</ele><time>2026-04-30T10:30:42Z</time></trkpt><trkpt lat="31.361032627237513" lon="-4.413786791358265"><ele>792.0</ele><time>2026-04-30T10:30:43Z</time></trkpt><trkpt lat="31.360933931313696" lon="-4.413777872668504"><ele>792.0</ele><time>2026-04-30T10:30:44Z</time></trkpt><trkpt lat="31.360837858695888" lon="-4.413773098902661"><ele>792.0</ele><time>2026-04-30T10:30:45Z</time></trkpt><trkpt lat="31.360749145546094" lon="-4.413772377963016"><ele>792.0</ele><time>2026-04-30T10:30:46Z</time></trkpt><trkpt lat="31.3606694978404" lon="-4.413759898114891"><ele>792.0</ele><time>2026-04-30T10:30:47Z</time></trkpt><trkpt lat="31.360583904485146" lon="-4.413744629471655"><ele>792.0</ele><time>2026-04-30T10:30:48Z</time></trkpt><trkpt lat="31.36049444847474" lon="-4.413734659163463"><ele>792.0</ele><time>2026-04-30T10:30:49Z</time></trkpt><trkpt lat="31.36040908556312" lon="-4.41372616408176"><ele>792.0</ele><time>2026-04-30T10:30:50Z</time></trkpt><trkpt lat="31.360321085406156" lon="-4.413704168754704"><ele>792.0</ele><time>2026-04-30T10:30:51Z</time></trkpt><trkpt lat="31.36023008136691" lon="-4.4136787577063"><ele>792.0</ele><time>2026-04-30T10:30:52Z</time></trkpt><trkpt lat="31.360145675929346" lon="-4.413638388401122"><ele>792.0</ele><time>2026-04-30T10:30:53Z</time></trkpt><trkpt lat="31.360063376065813" lon="-4.4136120903259375"><ele>792.0</ele><time>2026-04-30T10:30:54Z</time></trkpt><trkpt lat="31.35998915358091" lon="-4.413578791348999"><ele>792.0</ele><time>2026-04-30T10:30:55Z</time></trkpt><trkpt lat="31.35992270465372" lon="-4.413536885687396"><ele>792.0</ele><time>2026-04-30T10:30:56Z</time></trkpt><trkpt lat="31.359859663528596" lon="-4.413501819204717"><ele>792.0</ele><time>2026-04-30T10:30:57Z</time></trkpt><trkpt lat="31.35973834121758" lon="-4.413443532402366"><ele>792.0</ele><time>2026-04-30T10:30:59Z</time></trkpt><trkpt lat="31.35968077122962" lon="-4.4134004051529185"><ele>792.0</ele><time>2026-04-30T10:31:00Z</time></trkpt><trkpt lat="31.359622993284006" lon="-4.413342707630893"><ele>792.0</ele><time>2026-04-30T10:31:01Z</time></trkpt><trkpt lat="31.359555870867396" lon="-4.413294751146114"><ele>792.0</ele><time>2026-04-30T10:31:02Z</time></trkpt><trkpt lat="31.359487152474177" lon="-4.413232341006374"><ele>792.0</ele><time>2026-04-30T10:31:03Z</time></trkpt><trkpt lat="31.359422951025884" lon="-4.41317531303914"><ele>792.0</ele><time>2026-04-30T10:31:04Z</time></trkpt><trkpt lat="31.359357457712044" lon="-4.413122660515925"><ele>792.0</ele><time>2026-04-30T10:31:05Z</time></trkpt><trkpt lat="31.35929788613826" lon="-4.413055967501995"><ele>792.0</ele><time>2026-04-30T10:31:06Z</time></trkpt><trkpt lat="31.35923808629222" lon="-4.413019350639668"><ele>792.0</ele><time>2026-04-30T10:31:07Z</time></trkpt><trkpt lat="31.359191074608088" lon="-4.412960707897769"><ele>792.0</ele><time>2026-04-30T10:31:08Z</time></trkpt><trkpt lat="31.359134797510894" lon="-4.412920365620247"><ele>792.0</ele><time>2026-04-30T10:31:09Z</time></trkpt><trkpt lat="31.35906991357881" lon="-4.412881460899563"><ele>792.0</ele><time>2026-04-30T10:31:10Z</time></trkpt><trkpt lat="31.358994824964917" lon="-4.412846218382723"><ele>792.0</ele><time>2026-04-30T10:31:11Z</time></trkpt><trkpt lat="31.358925237062294" lon="-4.412785073757606"><ele>792.0</ele><time>2026-04-30T10:31:12Z</time></trkpt><trkpt lat="31.358836469830727" lon="-4.412740258870468"><ele>792.0</ele><time>2026-04-30T10:31:13Z</time></trkpt><trkpt lat="31.358734558056018" lon="-4.41269591595378"><ele>792.0</ele><time>2026-04-30T10:31:14Z</time></trkpt><trkpt lat="31.358636274010223" lon="-4.4126589929868"><ele>792.2</ele><time>2026-04-30T10:31:15Z</time></trkpt><trkpt lat="31.358554574060626" lon="-4.412638655189319"><ele>792.4000000000001</ele><time>2026-04-30T10:31:16Z</time></trkpt><trkpt lat="31.358468260883942" lon="-4.4126209382115"><ele>792.5999999999999</ele><time>2026-04-30T10:31:17Z</time></trkpt><trkpt lat="31.35836768759209" lon="-4.412608719259326"><ele>792.8</ele><time>2026-04-30T10:31:18Z</time></trkpt><trkpt lat="31.358270354074087" lon="-4.412588272421346"><ele>793.0</ele><time>2026-04-30T10:31:19Z</time></trkpt><trkpt lat="31.358179349192657" lon="-4.412586037717609"><ele>793.0</ele><time>2026-04-30T10:31:20Z</time></trkpt><trkpt lat="31.358095040234808" lon="-4.412564668575229"><ele>793.0</ele><time>2026-04-30T10:31:21Z</time></trkpt><trkpt lat="31.358004249181963" lon="-4.412560694776698"><ele>793.0</ele><time>2026-04-30T10:31:22Z</time></trkpt><trkpt lat="31.35790849998212" lon="-4.412537501400113"><ele>793.0</ele><time>2026-04-30T10:31:23Z</time></trkpt><trkpt lat="31.357811605005057" lon="-4.412521893958053"><ele>793.0</ele><time>2026-04-30T10:31:24Z</time></trkpt><trkpt lat="31.35771152179193" lon="-4.412504600896438"><ele>792.4999999999999</ele><time>2026-04-30T10:31:25Z</time></trkpt><trkpt lat="31.357611521646884" lon="-4.412485455800158"><ele>792.0</ele><time>2026-04-30T10:31:26Z</time></trkpt><trkpt lat="31.357529099276455" lon="-4.412466494262428"><ele>791.5</ele><time>2026-04-30T10:31:27Z</time></trkpt><trkpt lat="31.35744723564162" lon="-4.41246156221732"><ele>791.0</ele><time>2026-04-30T10:31:28Z</time></trkpt><trkpt lat="31.35736829394548" lon="-4.412431397450239"><ele>790.4999999999999</ele><time>2026-04-30T10:31:29Z</time></trkpt><trkpt lat="31.357278481434818" lon="-4.412429627055843"><ele>790.0</ele><time>2026-04-30T10:31:30Z</time></trkpt><trkpt lat="31.357195966076375" lon="-4.412419672036488"><ele>789.6666666666666</ele><time>2026-04-30T10:31:31Z</time></trkpt><trkpt lat="31.357117634557664" lon="-4.412410221762338"><ele>789.3333333333333</ele><time>2026-04-30T10:31:32Z</time></trkpt><trkpt lat="31.3570339132752" lon="-4.412400121279116"><ele>789.0</ele><time>2026-04-30T10:31:33Z</time></trkpt><trkpt lat="31.356949097694567" lon="-4.412389949850926"><ele>788.6666666666667</ele><time>2026-04-30T10:31:34Z</time></trkpt><trkpt lat="31.356860558415722" lon="-4.412379773134035"><ele>788.3333333333334</ele><time>2026-04-30T10:31:35Z</time></trkpt><trkpt lat="31.356771564500455" lon="-4.412372776291023"><ele>788.0</ele><time>2026-04-30T10:31:36Z</time></trkpt><trkpt lat="31.35667582055188" lon="-4.412366671030307"><ele>788.0</ele><time>2026-04-30T10:31:37Z</time></trkpt><trkpt lat="31.356582394658602" lon="-4.412360630108828"><ele>788.0</ele><time>2026-04-30T10:31:38Z</time></trkpt><trkpt lat="31.35647098680009" lon="-4.412345597254684"><ele>788.0</ele><time>2026-04-30T10:31:39Z</time></trkpt><trkpt lat="31.356384767406013" lon="-4.412322519418908"><ele>788.0</ele><time>2026-04-30T10:31:40Z</time></trkpt><trkpt lat="31.35630508752396" lon="-4.41230119198064"><ele>788.0</ele><time>2026-04-30T10:31:41Z</time></trkpt><trkpt lat="31.35621742271806" lon="-4.412277888525277"><ele>788.0</ele><time>2026-04-30T10:31:42Z</time></trkpt><trkpt lat="31.356124404913654" lon="-4.4122532918056"><ele>788.0</ele><time>2026-04-30T10:31:43Z</time></trkpt><trkpt lat="31.356028762290205" lon="-4.412228346013249"><ele>788.0</ele><time>2026-04-30T10:31:44Z</time></trkpt><trkpt lat="31.355938913825106" lon="-4.412205443477471"><ele>788.0</ele><time>2026-04-30T10:31:45Z</time></trkpt><trkpt lat="31.355875707349142" lon="-4.4120417041801385"><ele>788.0</ele><time>2026-04-30T10:31:46Z</time></trkpt><trkpt lat="31.355786678239514" lon="-4.412012333825065"><ele>788.0</ele><time>2026-04-30T10:31:47Z</time></trkpt><trkpt lat="31.355698211924324" lon="-4.411976208991793"><ele>788.0</ele><time>2026-04-30T10:31:48Z</time></trkpt><trkpt lat="31.355606648995423" lon="-4.411949404650504"><ele>788.0</ele><time>2026-04-30T10:31:49Z</time></trkpt><trkpt lat="31.355510328792267" lon="-4.411916478141341"><ele>788.0</ele><time>2026-04-30T10:31:50Z</time></trkpt><trkpt lat="31.355414252724735" lon="-4.411888095436641"><ele>788.0</ele><time>2026-04-30T10:31:51Z</time></trkpt><trkpt lat="31.355328177838572" lon="-4.411864498270032"><ele>788.25</ele><time>2026-04-30T10:31:52Z</time></trkpt><trkpt lat="31.355232618522678" lon="-4.41183926568854"><ele>788.5</ele><time>2026-04-30T10:31:53Z</time></trkpt><trkpt lat="31.355141859453774" lon="-4.411812858901561"><ele>788.75</ele><time>2026-04-30T10:31:54Z</time></trkpt><trkpt lat="31.355048602553268" lon="-4.411790358340766"><ele>789.0</ele><time>2026-04-30T10:31:55Z</time></trkpt><trkpt lat="31.354942981484292" lon="-4.411995722732833"><ele>789.0</ele><time>2026-04-30T10:31:56Z</time></trkpt><trkpt lat="31.354856804487554" lon="-4.4119867426760875"><ele>789.0</ele><time>2026-04-30T10:31:57Z</time></trkpt><trkpt lat="31.354731229192197" lon="-4.411963635955998"><ele>789.0</ele><time>2026-04-30T10:31:58Z</time></trkpt><trkpt lat="31.35464744997442" lon="-4.411934275889196"><ele>789.0</ele><time>2026-04-30T10:31:59Z</time></trkpt><trkpt lat="31.354558426972105" lon="-4.411903078162016"><ele>789.0</ele><time>2026-04-30T10:32:00Z</time></trkpt><trkpt lat="31.354466945373304" lon="-4.411871018827568"><ele>788.6</ele><time>2026-04-30T10:32:01Z</time></trkpt><trkpt lat="31.354382526902704" lon="-4.411841434876588"><ele>788.2</ele><time>2026-04-30T10:32:02Z</time></trkpt><trkpt lat="31.354270486910703" lon="-4.41176792677415"><ele>787.8000000000001</ele><time>2026-04-30T10:32:03Z</time></trkpt><trkpt lat="31.35418613730016" lon="-4.411717936264798"><ele>787.4000000000001</ele><time>2026-04-30T10:32:04Z</time></trkpt><trkpt lat="31.354108931473256" lon="-4.411672179736949"><ele>787.0</ele><time>2026-04-30T10:32:05Z</time></trkpt><trkpt lat="31.354027724247263" lon="-4.411615303075189"><ele>786.9999999999999</ele><time>2026-04-30T10:32:06Z</time></trkpt><trkpt lat="31.353965765219325" lon="-4.411561708845064"><ele>787.0</ele><time>2026-04-30T10:32:07Z</time></trkpt><trkpt lat="31.35388637692375" lon="-4.41152335093359"><ele>787.0</ele><time>2026-04-30T10:32:08Z</time></trkpt><trkpt lat="31.353804329529698" lon="-4.411483707847006"><ele>787.0</ele><time>2026-04-30T10:32:09Z</time></trkpt><trkpt lat="31.353716859805775" lon="-4.411440810667033"><ele>786.9999999999999</ele><time>2026-04-30T10:32:10Z</time></trkpt><trkpt lat="31.35362954865957" lon="-4.411397785304506"><ele>787.0</ele><time>2026-04-30T10:32:11Z</time></trkpt><trkpt lat="31.353538055906743" lon="-4.411352313613074"><ele>787.0</ele><time>2026-04-30T10:32:12Z</time></trkpt><trkpt lat="31.35345133765988" lon="-4.411309218143124"><ele>787.0</ele><time>2026-04-30T10:32:13Z</time></trkpt><trkpt lat="31.35335595763708" lon="-4.411244279610846"><ele>787.0</ele><time>2026-04-30T10:32:14Z</time></trkpt><trkpt lat="31.353263563413186" lon="-4.411187011149332"><ele>787.0</ele><time>2026-04-30T10:32:15Z</time></trkpt><trkpt lat="31.353186876020835" lon="-4.411112646726703"><ele>787.0</ele><time>2026-04-30T10:32:16Z</time></trkpt><trkpt lat="31.35308967481392" lon="-4.4110769496183115"><ele>786.6</ele><time>2026-04-30T10:32:17Z</time></trkpt><trkpt lat="31.352993608847648" lon="-4.411041797888274"><ele>786.2</ele><time>2026-04-30T10:32:18Z</time></trkpt><trkpt lat="31.35290386597034" lon="-4.410995716422034"><ele>785.8</ele><time>2026-04-30T10:32:19Z</time></trkpt><trkpt lat="31.352814753511435" lon="-4.410948284239267"><ele>785.4</ele><time>2026-04-30T10:32:20Z</time></trkpt><trkpt lat="31.35272908503321" lon="-4.410912741608671"><ele>785.0</ele><time>2026-04-30T10:32:21Z</time></trkpt><trkpt lat="31.352637274188307" lon="-4.41087349244377"><ele>785.0</ele><time>2026-04-30T10:32:22Z</time></trkpt><trkpt lat="31.352542343014544" lon="-4.410845531042538"><ele>785.0</ele><time>2026-04-30T10:32:23Z</time></trkpt><trkpt lat="31.352445840784522" lon="-4.410807908888126"><ele>785.0</ele><time>2026-04-30T10:32:24Z</time></trkpt><trkpt lat="31.352351729907234" lon="-4.410786825814241"><ele>785.0</ele><time>2026-04-30T10:32:25Z</time></trkpt><trkpt lat="31.352263443193287" lon="-4.410764395294569"><ele>785.0</ele><time>2026-04-30T10:32:26Z</time></trkpt><trkpt lat="31.352165398367955" lon="-4.4107379182721935"><ele>785.0</ele><time>2026-04-30T10:32:27Z</time></trkpt><trkpt lat="31.352065880096383" lon="-4.4107127974135665"><ele>785.0</ele><time>2026-04-30T10:32:28Z</time></trkpt><trkpt lat="31.351975306446235" lon="-4.4106895328723095"><ele>785.0</ele><time>2026-04-30T10:32:29Z</time></trkpt><trkpt lat="31.351881581713" lon="-4.410665957668636"><ele>785.0</ele><time>2026-04-30T10:32:30Z</time></trkpt><trkpt lat="31.35179431747414" lon="-4.410638860355968"><ele>785.0</ele><time>2026-04-30T10:32:31Z</time></trkpt><trkpt lat="31.351704445077896" lon="-4.410624175206056"><ele>785.0</ele><time>2026-04-30T10:32:32Z</time></trkpt><trkpt lat="31.35160784946697" lon="-4.410600737668119"><ele>785.0</ele><time>2026-04-30T10:32:33Z</time></trkpt><trkpt lat="31.35151263563559" lon="-4.4105788101092696"><ele>785.0</ele><time>2026-04-30T10:32:34Z</time></trkpt><trkpt lat="31.351414155339565" lon="-4.410555346299199"><ele>785.0</ele><time>2026-04-30T10:32:35Z</time></trkpt><trkpt lat="31.351318340134096" lon="-4.410539444962733"><ele>785.0</ele><time>2026-04-30T10:32:36Z</time></trkpt><trkpt lat="31.351225984591775" lon="-4.410509193195861"><ele>784.8</ele><time>2026-04-30T10:32:37Z</time></trkpt><trkpt lat="31.35113751276056" lon="-4.410485698005051"><ele>784.6</ele><time>2026-04-30T10:32:38Z</time></trkpt><trkpt lat="31.351048412757404" lon="-4.4104616104459335"><ele>784.4000000000001</ele><time>2026-04-30T10:32:39Z</time></trkpt><trkpt lat="31.350945291659695" lon="-4.41044374586077"><ele>784.2</ele><time>2026-04-30T10:32:40Z</time></trkpt><trkpt lat="31.35084841125314" lon="-4.4104136326425385"><ele>784.0</ele><time>2026-04-30T10:32:41Z</time></trkpt><trkpt lat="31.350745944416182" lon="-4.4103999379417065"><ele>784.0</ele><time>2026-04-30T10:32:42Z</time></trkpt><trkpt lat="31.35064345177375" lon="-4.410383152989046"><ele>784.0</ele><time>2026-04-30T10:32:43Z</time></trkpt><trkpt lat="31.3505506180297" lon="-4.410379269111339"><ele>784.0</ele><time>2026-04-30T10:32:44Z</time></trkpt><trkpt lat="31.35046228049589" lon="-4.410366973051353"><ele>784.0</ele><time>2026-04-30T10:32:45Z</time></trkpt><trkpt lat="31.35037036259874" lon="-4.410354569237721"><ele>784.0</ele><time>2026-04-30T10:32:46Z</time></trkpt><trkpt lat="31.35028210920632" lon="-4.410342840891606"><ele>783.9999999999999</ele><time>2026-04-30T10:32:47Z</time></trkpt><trkpt lat="31.350198262628766" lon="-4.410328115246867"><ele>784.0</ele><time>2026-04-30T10:32:48Z</time></trkpt><trkpt lat="31.35010611922533" lon="-4.410309467191383"><ele>784.0</ele><time>2026-04-30T10:32:49Z</time></trkpt><trkpt lat="31.35001146458494" lon="-4.410294784872811"><ele>784.0</ele><time>2026-04-30T10:32:50Z</time></trkpt><trkpt lat="31.34992670905068" lon="-4.410291727282913"><ele>783.9999999999999</ele><time>2026-04-30T10:32:51Z</time></trkpt><trkpt lat="31.349839836606666" lon="-4.410290105014724"><ele>784.0</ele><time>2026-04-30T10:32:52Z</time></trkpt><trkpt lat="31.34974271995828" lon="-4.410283895912387"><ele>784.0</ele><time>2026-04-30T10:32:53Z</time></trkpt><trkpt lat="31.349649356680974" lon="-4.410272953087754"><ele>784.0</ele><time>2026-04-30T10:32:54Z</time></trkpt><trkpt lat="31.34955649283292" lon="-4.41026218109053"><ele>784.0</ele><time>2026-04-30T10:32:55Z</time></trkpt><trkpt lat="31.349464534625813" lon="-4.410251551000824"><ele>784.0</ele><time>2026-04-30T10:32:56Z</time></trkpt><trkpt lat="31.34937257861457" lon="-4.410240921165074"><ele>784.0</ele><time>2026-04-30T10:32:57Z</time></trkpt><trkpt lat="31.349272061979477" lon="-4.410226937515167"><ele>784.0</ele><time>2026-04-30T10:32:58Z</time></trkpt><trkpt lat="31.34917377668843" lon="-4.410211952732894"><ele>784.0</ele><time>2026-04-30T10:32:59Z</time></trkpt><trkpt lat="31.349071799874395" lon="-4.410196405130796"><ele>784.0</ele><time>2026-04-30T10:33:00Z</time></trkpt><trkpt lat="31.348976859168253" lon="-4.4101819302706575"><ele>784.0</ele><time>2026-04-30T10:33:01Z</time></trkpt><trkpt lat="31.348870756060307" lon="-4.4101657535650896"><ele>784.0</ele><time>2026-04-30T10:33:02Z</time></trkpt><trkpt lat="31.34875752043646" lon="-4.410147231856898"><ele>783.8000000000001</ele><time>2026-04-30T10:33:03Z</time></trkpt><trkpt lat="31.348655619019524" lon="-4.410129145095831"><ele>783.6</ele><time>2026-04-30T10:33:04Z</time></trkpt><trkpt lat="31.348548598105335" lon="-4.41011008639824"><ele>783.4</ele><time>2026-04-30T10:33:05Z</time></trkpt><trkpt lat="31.348445363992077" lon="-4.410091384826223"><ele>783.2</ele><time>2026-04-30T10:33:06Z</time></trkpt><trkpt lat="31.348338761857914" lon="-4.410072073112038"><ele>783.0</ele><time>2026-04-30T10:33:07Z</time></trkpt><trkpt lat="31.348235340508097" lon="-4.410051980963236"><ele>783.0</ele><time>2026-04-30T10:33:08Z</time></trkpt><trkpt lat="31.34813348699408" lon="-4.410030205627996"><ele>783.0</ele><time>2026-04-30T10:33:09Z</time></trkpt><trkpt lat="31.348024985674876" lon="-4.410007009054551"><ele>783.0</ele><time>2026-04-30T10:33:10Z</time></trkpt><trkpt lat="31.34791693090751" lon="-4.409983715256219"><ele>783.0</ele><time>2026-04-30T10:33:11Z</time></trkpt><trkpt lat="31.34781042528824" lon="-4.409960656858798"><ele>783.0</ele><time>2026-04-30T10:33:12Z</time></trkpt><trkpt lat="31.3476874416168" lon="-4.40992778776855"><ele>782.5</ele><time>2026-04-30T10:33:13Z</time></trkpt><trkpt lat="31.347586944984823" lon="-4.40989773247107"><ele>782.0</ele><time>2026-04-30T10:33:14Z</time></trkpt><trkpt lat="31.347477212898603" lon="-4.409865480781365"><ele>781.5</ele><time>2026-04-30T10:33:15Z</time></trkpt><trkpt lat="31.34737175815979" lon="-4.409834486258637"><ele>781.0</ele><time>2026-04-30T10:33:16Z</time></trkpt><trkpt lat="31.34725049603085" lon="-4.4097888633139855"><ele>781.0</ele><time>2026-04-30T10:33:17Z</time></trkpt><trkpt lat="31.347152431069635" lon="-4.4097555202004415"><ele>781.0</ele><time>2026-04-30T10:33:18Z</time></trkpt><trkpt lat="31.347038774109752" lon="-4.409718770345738"><ele>781.0</ele><time>2026-04-30T10:33:19Z</time></trkpt><trkpt lat="31.346935474798" lon="-4.409683927323326"><ele>781.0</ele><time>2026-04-30T10:33:20Z</time></trkpt><trkpt lat="31.346821335453843" lon="-4.409635893756657"><ele>781.0</ele><time>2026-04-30T10:33:21Z</time></trkpt><trkpt lat="31.346720607826665" lon="-4.409590516136083"><ele>780.8</ele><time>2026-04-30T10:33:22Z</time></trkpt><trkpt lat="31.34662250353337" lon="-4.409546319458069"><ele>780.5999999999999</ele><time>2026-04-30T10:33:23Z</time></trkpt><trkpt lat="31.346519297857977" lon="-4.4094998255122455"><ele>780.4</ele><time>2026-04-30T10:33:24Z</time></trkpt><trkpt lat="31.346422737374713" lon="-4.409456325211469"><ele>780.2</ele><time>2026-04-30T10:33:25Z</time></trkpt><trkpt lat="31.346323594791286" lon="-4.40941109530995"><ele>780.0</ele><time>2026-04-30T10:33:26Z</time></trkpt><trkpt lat="31.346220020456077" lon="-4.409361296724063"><ele>779.4</ele><time>2026-04-30T10:33:27Z</time></trkpt><trkpt lat="31.34612287185055" lon="-4.409313550292234"><ele>778.8</ele><time>2026-04-30T10:33:28Z</time></trkpt><trkpt lat="31.346031529621023" lon="-4.409269519826896"><ele>778.2</ele><time>2026-04-30T10:33:29Z</time></trkpt><trkpt lat="31.345927003267978" lon="-4.409219134106908"><ele>777.6</ele><time>2026-04-30T10:33:30Z</time></trkpt><trkpt lat="31.345825283832554" lon="-4.409176039626837"><ele>777.0</ele><time>2026-04-30T10:33:31Z</time></trkpt><trkpt lat="31.345724305422284" lon="-4.409135770051838"><ele>777.0</ele><time>2026-04-30T10:33:32Z</time></trkpt><trkpt lat="31.345620318955053" lon="-4.4090942355748"><ele>777.0</ele><time>2026-04-30T10:33:33Z</time></trkpt><trkpt lat="31.345516696741793" lon="-4.4090483673282765"><ele>777.0</ele><time>2026-04-30T10:33:34Z</time></trkpt><trkpt lat="31.345416815542595" lon="-4.40899607830187"><ele>777.0</ele><time>2026-04-30T10:33:35Z</time></trkpt><trkpt lat="31.345313201225796" lon="-4.408957052934703"><ele>777.0</ele><time>2026-04-30T10:33:36Z</time></trkpt><trkpt lat="31.34520857160295" lon="-4.408920219226976"><ele>777.2</ele><time>2026-04-30T10:33:37Z</time></trkpt><trkpt lat="31.345103363626944" lon="-4.408880963270242"><ele>777.4000000000001</ele><time>2026-04-30T10:33:38Z</time></trkpt><trkpt lat="31.34500567396426" lon="-4.408844061425747"><ele>777.5999999999999</ele><time>2026-04-30T10:33:39Z</time></trkpt><trkpt lat="31.344911417110186" lon="-4.408805492656918"><ele>777.8</ele><time>2026-04-30T10:33:40Z</time></trkpt><trkpt lat="31.34482428223115" lon="-4.408771487715528"><ele>778.0</ele><time>2026-04-30T10:33:41Z</time></trkpt><trkpt lat="31.344733471355912" lon="-4.408737801939706"><ele>777.8</ele><time>2026-04-30T10:33:42Z</time></trkpt><trkpt lat="31.34464454511528" lon="-4.408695215450513"><ele>777.5999999999999</ele><time>2026-04-30T10:33:43Z</time></trkpt><trkpt lat="31.34455972665445" lon="-4.408650790492021"><ele>777.4000000000001</ele><time>2026-04-30T10:33:44Z</time></trkpt><trkpt lat="31.344472488999045" lon="-4.4085950693243126"><ele>777.2</ele><time>2026-04-30T10:33:45Z</time></trkpt><trkpt lat="31.344400116865568" lon="-4.408520811707115"><ele>777.0</ele><time>2026-04-30T10:33:46Z</time></trkpt><trkpt lat="31.34431920570939" lon="-4.40847833549787"><ele>777.0</ele><time>2026-04-30T10:33:47Z</time></trkpt><trkpt lat="31.344256126372205" lon="-4.4084152640708565"><ele>777.0</ele><time>2026-04-30T10:33:47.999Z</time></trkpt><trkpt lat="31.344194251021413" lon="-4.408363103559306"><ele>777.0</ele><time>2026-04-30T10:33:48.999Z</time></trkpt><trkpt lat="31.344121453695962" lon="-4.408321626870077"><ele>777.0</ele><time>2026-04-30T10:33:49.999Z</time></trkpt><trkpt lat="31.34404357479689" lon="-4.408282115735422"><ele>777.0</ele><time>2026-04-30T10:33:50.999Z</time></trkpt><trkpt lat="31.34397287756159" lon="-4.408235527891811"><ele>777.0</ele><time>2026-04-30T10:33:51.999Z</time></trkpt><trkpt lat="31.343910102549096" lon="-4.40820841367323"><ele>777.1666666666666</ele><time>2026-04-30T10:33:52.999Z</time></trkpt><trkpt lat="31.34382609064608" lon="-4.4081799165273825"><ele>777.3333333333333</ele><time>2026-04-30T10:33:53.999Z</time></trkpt><trkpt lat="31.34374404053633" lon="-4.408164179563404"><ele>777.5</ele><time>2026-04-30T10:33:54.999Z</time></trkpt><trkpt lat="31.343661269042634" lon="-4.4081475337390215"><ele>777.6666666666666</ele><time>2026-04-30T10:33:55.999Z</time></trkpt><trkpt lat="31.343575950076612" lon="-4.408140452100169"><ele>777.8333333333333</ele><time>2026-04-30T10:33:56.999Z</time></trkpt><trkpt lat="31.343484332565996" lon="-4.408138439633898"><ele>778.0</ele><time>2026-04-30T10:33:57.999Z</time></trkpt><trkpt lat="31.343390642034883" lon="-4.408136129464814"><ele>777.9999999999999</ele><time>2026-04-30T10:33:58.999Z</time></trkpt><trkpt lat="31.34330540277692" lon="-4.40813390824406"><ele>778.0</ele><time>2026-04-30T10:33:59.999Z</time></trkpt><trkpt lat="31.343220735292654" lon="-4.408110923599879"><ele>778.0</ele><time>2026-04-30T10:34:01Z</time></trkpt><trkpt lat="31.343141719030218" lon="-4.408108147114282"><ele>778.0</ele><time>2026-04-30T10:34:02Z</time></trkpt><trkpt lat="31.343064880416144" lon="-4.408107721629463"><ele>777.9999999999999</ele><time>2026-04-30T10:34:03Z</time></trkpt><trkpt lat="31.3429753298754" lon="-4.408126838119192"><ele>778.0</ele><time>2026-04-30T10:34:04Z</time></trkpt><trkpt lat="31.342881894522982" lon="-4.40813280090737"><ele>778.0</ele><time>2026-04-30T10:34:05Z</time></trkpt><trkpt lat="31.342787824502146" lon="-4.408140342961296"><ele>778.0</ele><time>2026-04-30T10:34:06Z</time></trkpt><trkpt lat="31.34269336973621" lon="-4.408149823772124"><ele>778.0</ele><time>2026-04-30T10:34:07Z</time></trkpt><trkpt lat="31.342599402265208" lon="-4.408158472752649"><ele>778.0</ele><time>2026-04-30T10:34:08Z</time></trkpt><trkpt lat="31.342497103099568" lon="-4.408164648529256"><ele>778.0</ele><time>2026-04-30T10:34:09Z</time></trkpt><trkpt lat="31.34239466131503" lon="-4.40816515946059"><ele>778.0</ele><time>2026-04-30T10:34:10Z</time></trkpt><trkpt lat="31.342292009589762" lon="-4.408158348949217"><ele>778.0</ele><time>2026-04-30T10:34:11Z</time></trkpt><trkpt lat="31.342181295147885" lon="-4.40816331376906"><ele>778.0</ele><time>2026-04-30T10:34:12Z</time></trkpt><trkpt lat="31.342072680816695" lon="-4.408158282247594"><ele>778.0</ele><time>2026-04-30T10:34:13Z</time></trkpt><trkpt lat="31.341965445314536" lon="-4.408142074162527"><ele>778.0</ele><time>2026-04-30T10:34:14Z</time></trkpt><trkpt lat="31.34185778485708" lon="-4.408139456570704"><ele>778.0</ele><time>2026-04-30T10:34:15Z</time></trkpt><trkpt lat="31.34174223540324" lon="-4.408125264272276"><ele>778.0</ele><time>2026-04-30T10:34:16Z</time></trkpt><trkpt lat="31.341632064175663" lon="-4.4080902975443745"><ele>778.0</ele><time>2026-04-30T10:34:17Z</time></trkpt><trkpt lat="31.341515248849078" lon="-4.408089154217641"><ele>778.0</ele><time>2026-04-30T10:34:18Z</time></trkpt><trkpt lat="31.341398327772314" lon="-4.4080694296360745"><ele>777.5</ele><time>2026-04-30T10:34:19Z</time></trkpt><trkpt lat="31.341284662586407" lon="-4.408050254323838"><ele>777.0</ele><time>2026-04-30T10:34:20Z</time></trkpt><trkpt lat="31.341172364237654" lon="-4.408031309594334"><ele>776.5</ele><time>2026-04-30T10:34:21Z</time></trkpt><trkpt lat="31.341061254750294" lon="-4.407994638924293"><ele>776.0</ele><time>2026-04-30T10:34:22Z</time></trkpt><trkpt lat="31.340938299253583" lon="-4.40798601229728"><ele>775.75</ele><time>2026-04-30T10:34:23Z</time></trkpt><trkpt lat="31.3408141704822" lon="-4.407966493113696"><ele>775.5</ele><time>2026-04-30T10:34:24Z</time></trkpt><trkpt lat="31.3406896198339" lon="-4.407938833687396"><ele>775.25</ele><time>2026-04-30T10:34:25Z</time></trkpt><trkpt lat="31.34056543330191" lon="-4.407933636052403"><ele>775.0</ele><time>2026-04-30T10:34:26Z</time></trkpt><trkpt lat="31.340442840627734" lon="-4.40791925871075"><ele>774.5</ele><time>2026-04-30T10:34:27Z</time></trkpt><trkpt lat="31.340322639145178" lon="-4.407902975519639"><ele>774.0</ele><time>2026-04-30T10:34:28Z</time></trkpt><trkpt lat="31.340195132414784" lon="-4.407889387715173"><ele>773.5</ele><time>2026-04-30T10:34:29Z</time></trkpt><trkpt lat="31.340067107291585" lon="-4.407877626233272"><ele>773.0</ele><time>2026-04-30T10:34:30Z</time></trkpt><trkpt lat="31.339947774499667" lon="-4.407851254528183"><ele>773.0</ele><time>2026-04-30T10:34:31Z</time></trkpt><trkpt lat="31.33982920329965" lon="-4.407827967614848"><ele>773.0</ele><time>2026-04-30T10:34:32Z</time></trkpt><trkpt lat="31.339708573357427" lon="-4.4078228057741295"><ele>773.0</ele><time>2026-04-30T10:34:33Z</time></trkpt><trkpt lat="31.33959871856893" lon="-4.407804701651215"><ele>773.0</ele><time>2026-04-30T10:34:34Z</time></trkpt><trkpt lat="31.339494817460917" lon="-4.40779307234418"><ele>773.2</ele><time>2026-04-30T10:34:35Z</time></trkpt><trkpt lat="31.339398500554825" lon="-4.407768164559699"><ele>773.4</ele><time>2026-04-30T10:34:36Z</time></trkpt><trkpt lat="31.339294432848938" lon="-4.407771397969577"><ele>773.6</ele><time>2026-04-30T10:34:37Z</time></trkpt><trkpt lat="31.33920158326967" lon="-4.407757448987849"><ele>773.8000000000001</ele><time>2026-04-30T10:34:38Z</time></trkpt><trkpt lat="31.339110233952827" lon="-4.407767906622195"><ele>774.0</ele><time>2026-04-30T10:34:39Z</time></trkpt><trkpt lat="31.339011439337217" lon="-4.407766620986491"><ele>774.0</ele><time>2026-04-30T10:34:40Z</time></trkpt><trkpt lat="31.338916018716635" lon="-4.407768500519992"><ele>774.0</ele><time>2026-04-30T10:34:41Z</time></trkpt><trkpt lat="31.338815433751254" lon="-4.407774252392014"><ele>774.0</ele><time>2026-04-30T10:34:42Z</time></trkpt><trkpt lat="31.338709602909265" lon="-4.407774317879462"><ele>774.0</ele><time>2026-04-30T10:34:43Z</time></trkpt><trkpt lat="31.33861099647393" lon="-4.407778543791987"><ele>774.0</ele><time>2026-04-30T10:34:44Z</time></trkpt><trkpt lat="31.338507570937196" lon="-4.407779563317656"><ele>774.2</ele><time>2026-04-30T10:34:45Z</time></trkpt><trkpt lat="31.3384008293579" lon="-4.407779743039462"><ele>774.4000000000001</ele><time>2026-04-30T10:34:46Z</time></trkpt><trkpt lat="31.338292858607407" lon="-4.40777461785433"><ele>774.6</ele><time>2026-04-30T10:34:47Z</time></trkpt><trkpt lat="31.338175259973873" lon="-4.407770360325359"><ele>774.8</ele><time>2026-04-30T10:34:48Z</time></trkpt><trkpt lat="31.338074524071867" lon="-4.407776057453556"><ele>775.0</ele><time>2026-04-30T10:34:49Z</time></trkpt><trkpt lat="31.33796822802875" lon="-4.40777576728734"><ele>775.0</ele><time>2026-04-30T10:34:50Z</time></trkpt><trkpt lat="31.337865856451007" lon="-4.407772638259993"><ele>775.0</ele><time>2026-04-30T10:34:51Z</time></trkpt><trkpt lat="31.33776245676495" lon="-4.407772314175684"><ele>775.0</ele><time>2026-04-30T10:34:52Z</time></trkpt><trkpt lat="31.337653900754233" lon="-4.407772511617857"><ele>775.0</ele><time>2026-04-30T10:34:53Z</time></trkpt><trkpt lat="31.337538087717423" lon="-4.407781661151235"><ele>775.0</ele><time>2026-04-30T10:34:54Z</time></trkpt><trkpt lat="31.337422065454195" lon="-4.407798674132381"><ele>775.0</ele><time>2026-04-30T10:34:55Z</time></trkpt><trkpt lat="31.33731094951798" lon="-4.407817189653993"><ele>775.0</ele><time>2026-04-30T10:34:56Z</time></trkpt><trkpt lat="31.337207985512745" lon="-4.407835649646516"><ele>775.0</ele><time>2026-04-30T10:34:57Z</time></trkpt><trkpt lat="31.33709915809841" lon="-4.407856222849704"><ele>775.0</ele><time>2026-04-30T10:34:58Z</time></trkpt><trkpt lat="31.33699878737158" lon="-4.407877198518534"><ele>775.0</ele><time>2026-04-30T10:34:59Z</time></trkpt><trkpt lat="31.336900995634245" lon="-4.407894912467737"><ele>775.2</ele><time>2026-04-30T10:35:00Z</time></trkpt><trkpt lat="31.33681830773647" lon="-4.407906562477413"><ele>775.4</ele><time>2026-04-30T10:35:01Z</time></trkpt><trkpt lat="31.336722342262274" lon="-4.407922597880852"><ele>775.5999999999999</ele><time>2026-04-30T10:35:02Z</time></trkpt><trkpt lat="31.336616003354315" lon="-4.407942827245425"><ele>775.8</ele><time>2026-04-30T10:35:03Z</time></trkpt><trkpt lat="31.336512668995915" lon="-4.407958870643659"><ele>776.0</ele><time>2026-04-30T10:35:04Z</time></trkpt><trkpt lat="31.336413119244426" lon="-4.407976240899973"><ele>776.0</ele><time>2026-04-30T10:35:05Z</time></trkpt><trkpt lat="31.336314042993266" lon="-4.407995404748971"><ele>776.0</ele><time>2026-04-30T10:35:06Z</time></trkpt><trkpt lat="31.33620959914812" lon="-4.408016536643044"><ele>776.0</ele><time>2026-04-30T10:35:07Z</time></trkpt><trkpt lat="31.336108271579807" lon="-4.408042792567277"><ele>776.0</ele><time>2026-04-30T10:35:08Z</time></trkpt><trkpt lat="31.336027644030892" lon="-4.408063083212649"><ele>776.0</ele><time>2026-04-30T10:35:09Z</time></trkpt><trkpt lat="31.33594740454984" lon="-4.4080843684861"><ele>776.0</ele><time>2026-04-30T10:35:10Z</time></trkpt><trkpt lat="31.33586521045392" lon="-4.4081057985681005"><ele>776.0</ele><time>2026-04-30T10:35:11Z</time></trkpt><trkpt lat="31.335778998413584" lon="-4.408129825031298"><ele>776.0</ele><time>2026-04-30T10:35:12Z</time></trkpt><trkpt lat="31.335686756568375" lon="-4.408162193085588"><ele>776.0</ele><time>2026-04-30T10:35:13Z</time></trkpt><trkpt lat="31.335597833031173" lon="-4.408202389958246"><ele>776.0</ele><time>2026-04-30T10:35:14Z</time></trkpt><trkpt lat="31.335512408974143" lon="-4.408239075466672"><ele>775.8</ele><time>2026-04-30T10:35:15Z</time></trkpt><trkpt lat="31.335423741062794" lon="-4.408283145334274"><ele>775.5999999999999</ele><time>2026-04-30T10:35:16Z</time></trkpt><trkpt lat="31.33534150126514" lon="-4.408316662497343"><ele>775.4</ele><time>2026-04-30T10:35:17Z</time></trkpt><trkpt lat="31.335252271719" lon="-4.408349786251688"><ele>775.2</ele><time>2026-04-30T10:35:18Z</time></trkpt><trkpt lat="31.335162651597248" lon="-4.408402011631327"><ele>775.0</ele><time>2026-04-30T10:35:19Z</time></trkpt><trkpt lat="31.33507766215867" lon="-4.408426253605593"><ele>775.0</ele><time>2026-04-30T10:35:20Z</time></trkpt><trkpt lat="31.334977144444753" lon="-4.40845053282657"><ele>775.0</ele><time>2026-04-30T10:35:21Z</time></trkpt><trkpt lat="31.334868315603956" lon="-4.408458459675249"><ele>775.0</ele><time>2026-04-30T10:35:21.999Z</time></trkpt><trkpt lat="31.334776023125567" lon="-4.408444496162681"><ele>775.0</ele><time>2026-04-30T10:35:22.999Z</time></trkpt><trkpt lat="31.33468924108833" lon="-4.408449582840283"><ele>775.0</ele><time>2026-04-30T10:35:23.999Z</time></trkpt><trkpt lat="31.33460979482406" lon="-4.408454900341842"><ele>774.6666666666666</ele><time>2026-04-30T10:35:24.999Z</time></trkpt><trkpt lat="31.334539025253783" lon="-4.408447224096848"><ele>774.3333333333333</ele><time>2026-04-30T10:35:25.999Z</time></trkpt><trkpt lat="31.334470729513995" lon="-4.408436708894555"><ele>774.0</ele><time>2026-04-30T10:35:26.999Z</time></trkpt><trkpt lat="31.33438877435334" lon="-4.408441035972344"><ele>773.6666666666667</ele><time>2026-04-30T10:35:27.999Z</time></trkpt><trkpt lat="31.33427479541864" lon="-4.40841607099533"><ele>773.3333333333334</ele><time>2026-04-30T10:35:29.999Z</time></trkpt><trkpt lat="31.334213772739787" lon="-4.4083803493101"><ele>773.0</ele><time>2026-04-30T10:35:30.999Z</time></trkpt><trkpt lat="31.334091189493616" lon="-4.408345130026234"><ele>773.0</ele><time>2026-04-30T10:35:32.999Z</time></trkpt><trkpt lat="31.33401851946201" lon="-4.408323091285501"><ele>773.0</ele><time>2026-04-30T10:35:33.999Z</time></trkpt><trkpt lat="31.333955360582316" lon="-4.408301851790453"><ele>773.0</ele><time>2026-04-30T10:35:34.999Z</time></trkpt><trkpt lat="31.333886084909768" lon="-4.408329170333738"><ele>773.0</ele><time>2026-04-30T10:35:35.999Z</time></trkpt><trkpt lat="31.333819115879393" lon="-4.408333789972797"><ele>773.0</ele><time>2026-04-30T10:35:36.999Z</time></trkpt><trkpt lat="31.33374361558775" lon="-4.408338998127951"><ele>773.0</ele><time>2026-04-30T10:35:37.999Z</time></trkpt><trkpt lat="31.33368098371278" lon="-4.408383342810244"><ele>773.0</ele><time>2026-04-30T10:35:38.999Z</time></trkpt><trkpt lat="31.333599827803663" lon="-4.408426113676728"><ele>773.5999999999999</ele><time>2026-04-30T10:35:39.999Z</time></trkpt><trkpt lat="31.333519859520734" lon="-4.408468195061689"><ele>774.1999999999999</ele><time>2026-04-30T10:35:40.999Z</time></trkpt><trkpt lat="31.333443749006104" lon="-4.408516774938043"><ele>774.8</ele><time>2026-04-30T10:35:41.999Z</time></trkpt><trkpt lat="31.333372975521097" lon="-4.408579952436823"><ele>775.4</ele><time>2026-04-30T10:35:42.999Z</time></trkpt><trkpt lat="31.33330001719187" lon="-4.408644989368252"><ele>776.0</ele><time>2026-04-30T10:35:43.999Z</time></trkpt><trkpt lat="31.333220116409223" lon="-4.408719786084896"><ele>776.0</ele><time>2026-04-30T10:35:44.999Z</time></trkpt><trkpt lat="31.33313543670068" lon="-4.408777483311013"><ele>776.0</ele><time>2026-04-30T10:35:45.999Z</time></trkpt><trkpt lat="31.333032046294495" lon="-4.408834232007234"><ele>776.0</ele><time>2026-04-30T10:35:46.999Z</time></trkpt><trkpt lat="31.33294484158097" lon="-4.408900120116141"><ele>776.0</ele><time>2026-04-30T10:35:47.999Z</time></trkpt><trkpt lat="31.332846966180682" lon="-4.408939290154994"><ele>776.0</ele><time>2026-04-30T10:35:48.999Z</time></trkpt><trkpt lat="31.332751257081068" lon="-4.408977556726351"><ele>776.1999999999999</ele><time>2026-04-30T10:35:49.999Z</time></trkpt><trkpt lat="31.332642484990345" lon="-4.409019787922991"><ele>776.4</ele><time>2026-04-30T10:35:50.999Z</time></trkpt><trkpt lat="31.33254312014175" lon="-4.409054466011023"><ele>776.6</ele><time>2026-04-30T10:35:51.999Z</time></trkpt><trkpt lat="31.33245735624021" lon="-4.409084324780349"><ele>776.8</ele><time>2026-04-30T10:35:52.999Z</time></trkpt><trkpt lat="31.332371065046214" lon="-4.4091143670763"><ele>777.0</ele><time>2026-04-30T10:35:53.999Z</time></trkpt><trkpt lat="31.332244170262012" lon="-4.4091570180298305"><ele>776.8</ele><time>2026-04-30T10:35:54.999Z</time></trkpt><trkpt lat="31.332142312223144" lon="-4.40917582179765"><ele>776.6</ele><time>2026-04-30T10:35:55.999Z</time></trkpt><trkpt lat="31.332041281918446" lon="-4.4091944726951695"><ele>776.4</ele><time>2026-04-30T10:35:56.999Z</time></trkpt><trkpt lat="31.33193589273178" lon="-4.4092139282766905"><ele>776.1999999999999</ele><time>2026-04-30T10:35:57.999Z</time></trkpt><trkpt lat="31.331821272021266" lon="-4.4092311691838555"><ele>776.0</ele><time>2026-04-30T10:35:58.999Z</time></trkpt><trkpt lat="31.33172076492659" lon="-4.409242223769901"><ele>776.0</ele><time>2026-04-30T10:35:59.999Z</time></trkpt><trkpt lat="31.331621667734304" lon="-4.409253123290051"><ele>776.0</ele><time>2026-04-30T10:36:00.999Z</time></trkpt><trkpt lat="31.331521077609178" lon="-4.409264187029797"><ele>776.0</ele><time>2026-04-30T10:36:01.999Z</time></trkpt><trkpt lat="31.331425677707273" lon="-4.4092746799095615"><ele>776.0</ele><time>2026-04-30T10:36:02.999Z</time></trkpt><trkpt lat="31.331324580306134" lon="-4.4092857994358"><ele>776.0</ele><time>2026-04-30T10:36:03.999Z</time></trkpt><trkpt lat="31.3312274742459" lon="-4.40929647996667"><ele>776.0</ele><time>2026-04-30T10:36:04.999Z</time></trkpt><trkpt lat="31.331123660504073" lon="-4.409306905854287"><ele>776.0</ele><time>2026-04-30T10:36:05.999Z</time></trkpt><trkpt lat="31.331031603360074" lon="-4.4093156614103615"><ele>776.0</ele><time>2026-04-30T10:36:07Z</time></trkpt><trkpt lat="31.33093407251227" lon="-4.409324937572703"><ele>776.0</ele><time>2026-04-30T10:36:08Z</time></trkpt><trkpt lat="31.330843729765824" lon="-4.4093335300752345"><ele>776.0</ele><time>2026-04-30T10:36:09Z</time></trkpt><trkpt lat="31.33075290212693" lon="-4.409342237085917"><ele>776.0</ele><time>2026-04-30T10:36:10Z</time></trkpt><trkpt lat="31.33065410634579" lon="-4.409351871721038"><ele>776.0</ele><time>2026-04-30T10:36:11Z</time></trkpt><trkpt lat="31.330550713724133" lon="-4.409361954630141"><ele>776.0</ele><time>2026-04-30T10:36:12Z</time></trkpt><trkpt lat="31.33044521658405" lon="-4.409371992476353"><ele>776.0</ele><time>2026-04-30T10:36:13Z</time></trkpt><trkpt lat="31.33035205275377" lon="-4.409387389941715"><ele>776.0</ele><time>2026-04-30T10:36:14Z</time></trkpt><trkpt lat="31.33024386957161" lon="-4.409411393983867"><ele>776.0</ele><time>2026-04-30T10:36:15Z</time></trkpt><trkpt lat="31.33013803753071" lon="-4.409434876283378"><ele>776.0</ele><time>2026-04-30T10:36:16Z</time></trkpt><trkpt lat="31.330031525307767" lon="-4.409458509539038"><ele>776.0</ele><time>2026-04-30T10:36:17Z</time></trkpt><trkpt lat="31.329925103434718" lon="-4.409481701714147"><ele>776.0</ele><time>2026-04-30T10:36:18Z</time></trkpt><trkpt lat="31.329822140262074" lon="-4.40950405477521"><ele>776.0</ele><time>2026-04-30T10:36:19Z</time></trkpt><trkpt lat="31.329729618512225" lon="-4.4095241410727075"><ele>775.8</ele><time>2026-04-30T10:36:20Z</time></trkpt><trkpt lat="31.32963343508812" lon="-4.409545022284547"><ele>775.5999999999999</ele><time>2026-04-30T10:36:21Z</time></trkpt><trkpt lat="31.329539281934967" lon="-4.409565476324199"><ele>775.4</ele><time>2026-04-30T10:36:22Z</time></trkpt><trkpt lat="31.329437213965864" lon="-4.409587682377042"><ele>775.2</ele><time>2026-04-30T10:36:23Z</time></trkpt><trkpt lat="31.329318350991237" lon="-4.409597687867259"><ele>775.0</ele><time>2026-04-30T10:36:24Z</time></trkpt><trkpt lat="31.329211022467984" lon="-4.409596668678563"><ele>775.0</ele><time>2026-04-30T10:36:25Z</time></trkpt><trkpt lat="31.329105010751988" lon="-4.409595661987924"><ele>775.0</ele><time>2026-04-30T10:36:26Z</time></trkpt><trkpt lat="31.32900232572365" lon="-4.40959423128097"><ele>775.0</ele><time>2026-04-30T10:36:27Z</time></trkpt><trkpt lat="31.328902034273902" lon="-4.409592893768351"><ele>775.0</ele><time>2026-04-30T10:36:28Z</time></trkpt><trkpt lat="31.328807773417537" lon="-4.409591826466449"><ele>775.0</ele><time>2026-04-30T10:36:29Z</time></trkpt><trkpt lat="31.328707774770685" lon="-4.4095906941982275"><ele>774.8</ele><time>2026-04-30T10:36:30Z</time></trkpt><trkpt lat="31.328604245218173" lon="-4.409589521952139"><ele>774.6</ele><time>2026-04-30T10:36:31Z</time></trkpt><trkpt lat="31.328513076183825" lon="-4.409590247453144"><ele>774.4000000000001</ele><time>2026-04-30T10:36:32Z</time></trkpt><trkpt lat="31.328419054555813" lon="-4.409593348070709"><ele>774.2</ele><time>2026-04-30T10:36:33Z</time></trkpt><trkpt lat="31.3283278275171" lon="-4.409596455618535"><ele>774.0</ele><time>2026-04-30T10:36:34Z</time></trkpt><trkpt lat="31.328223501384645" lon="-4.409600442981921"><ele>774.0</ele><time>2026-04-30T10:36:35Z</time></trkpt><trkpt lat="31.328119929378484" lon="-4.409604139637542"><ele>774.0</ele><time>2026-04-30T10:36:36Z</time></trkpt><trkpt lat="31.328012239622726" lon="-4.4096077098632085"><ele>774.0</ele><time>2026-04-30T10:36:37Z</time></trkpt><trkpt lat="31.327908565166307" lon="-4.40961114697278"><ele>774.0</ele><time>2026-04-30T10:36:38Z</time></trkpt><trkpt lat="31.3278035449549" lon="-4.409614628698688"><ele>774.0</ele><time>2026-04-30T10:36:39Z</time></trkpt><trkpt lat="31.32770531508806" lon="-4.40961787858989"><ele>774.0</ele><time>2026-04-30T10:36:40Z</time></trkpt><trkpt lat="31.327609915559634" lon="-4.409621013349307"><ele>774.0</ele><time>2026-04-30T10:36:41Z</time></trkpt><trkpt lat="31.32751128845261" lon="-4.409624271002261"><ele>774.0</ele><time>2026-04-30T10:36:42Z</time></trkpt><trkpt lat="31.327411365639755" lon="-4.409627683926538"><ele>774.0</ele><time>2026-04-30T10:36:43Z</time></trkpt><trkpt lat="31.327302505256593" lon="-4.409628202337335"><ele>774.0</ele><time>2026-04-30T10:36:44Z</time></trkpt><trkpt lat="31.32720200350626" lon="-4.4096265564879715"><ele>774.0</ele><time>2026-04-30T10:36:45Z</time></trkpt><trkpt lat="31.327099805216438" lon="-4.40962488286092"><ele>774.0</ele><time>2026-04-30T10:36:46Z</time></trkpt><trkpt lat="31.326995684945025" lon="-4.409623177753416"><ele>774.0</ele><time>2026-04-30T10:36:47Z</time></trkpt><trkpt lat="31.32689480898136" lon="-4.409621525779622"><ele>774.0</ele><time>2026-04-30T10:36:48Z</time></trkpt><trkpt lat="31.326798291368895" lon="-4.409619945176539"><ele>774.0</ele><time>2026-04-30T10:36:49Z</time></trkpt><trkpt lat="31.32669615282359" lon="-4.4096184752117376"><ele>774.0</ele><time>2026-04-30T10:36:50Z</time></trkpt><trkpt lat="31.326589853602275" lon="-4.409616960439039"><ele>774.0</ele><time>2026-04-30T10:36:51Z</time></trkpt><trkpt lat="31.326485788043243" lon="-4.4096153952991015"><ele>774.0</ele><time>2026-04-30T10:36:52Z</time></trkpt><trkpt lat="31.326390928624203" lon="-4.409613731458006"><ele>774.0</ele><time>2026-04-30T10:36:53Z</time></trkpt><trkpt lat="31.3262835059369" lon="-4.4096118472576284"><ele>774.0</ele><time>2026-04-30T10:36:54Z</time></trkpt><trkpt lat="31.326188580515083" lon="-4.409610182258729"><ele>774.0</ele><time>2026-04-30T10:36:55Z</time></trkpt><trkpt lat="31.32608998612506" lon="-4.409608452910351"><ele>774.0</ele><time>2026-04-30T10:36:56Z</time></trkpt><trkpt lat="31.325991514284205" lon="-4.409607100662432"><ele>774.0</ele><time>2026-04-30T10:36:57Z</time></trkpt><trkpt lat="31.325900976031562" lon="-4.4096082836007024"><ele>774.0</ele><time>2026-04-30T10:36:58Z</time></trkpt><trkpt lat="31.325797427061218" lon="-4.409614526819259"><ele>774.0</ele><time>2026-04-30T10:36:59Z</time></trkpt><trkpt lat="31.325691310652218" lon="-4.409620924844797"><ele>774.0</ele><time>2026-04-30T10:37:00Z</time></trkpt><trkpt lat="31.325585972668" lon="-4.409627275947108"><ele>774.0</ele><time>2026-04-30T10:37:01Z</time></trkpt><trkpt lat="31.325491302508798" lon="-4.409632983826009"><ele>774.0</ele><time>2026-04-30T10:37:02Z</time></trkpt><trkpt lat="31.325386767863023" lon="-4.409640284813853"><ele>774.0</ele><time>2026-04-30T10:37:03Z</time></trkpt><trkpt lat="31.325282736266384" lon="-4.409646874307578"><ele>774.0</ele><time>2026-04-30T10:37:04Z</time></trkpt><trkpt lat="31.325182187498097" lon="-4.409652955240818"><ele>774.0</ele><time>2026-04-30T10:37:05Z</time></trkpt><trkpt lat="31.325075396253347" lon="-4.409659413702702"><ele>774.0</ele><time>2026-04-30T10:37:06Z</time></trkpt><trkpt lat="31.324972260591448" lon="-4.409665651080922"><ele>774.0</ele><time>2026-04-30T10:37:07Z</time></trkpt><trkpt lat="31.32487478628765" lon="-4.409672084184973"><ele>774.0</ele><time>2026-04-30T10:37:08Z</time></trkpt><trkpt lat="31.32477554022725" lon="-4.40968157532055"><ele>774.0</ele><time>2026-04-30T10:37:09Z</time></trkpt><trkpt lat="31.32467276181153" lon="-4.409692113055401"><ele>774.0</ele><time>2026-04-30T10:37:10Z</time></trkpt><trkpt lat="31.324569740186007" lon="-4.4097026757047635"><ele>774.0</ele><time>2026-04-30T10:37:11Z</time></trkpt><trkpt lat="31.324478975394058" lon="-4.409712914553985"><ele>774.0</ele><time>2026-04-30T10:37:12Z</time></trkpt><trkpt lat="31.324375637944602" lon="-4.409736942025354"><ele>774.0</ele><time>2026-04-30T10:37:13Z</time></trkpt><trkpt lat="31.324273331543083" lon="-4.4097607297622545"><ele>774.0</ele><time>2026-04-30T10:37:14Z</time></trkpt><trkpt lat="31.324177900962155" lon="-4.409782918769049"><ele>774.0</ele><time>2026-04-30T10:37:15Z</time></trkpt><trkpt lat="31.3240792919695" lon="-4.409811403522832"><ele>774.0</ele><time>2026-04-30T10:37:16Z</time></trkpt><trkpt lat="31.323982399969918" lon="-4.4098469810096805"><ele>774.0</ele><time>2026-04-30T10:37:17Z</time></trkpt><trkpt lat="31.323877253226296" lon="-4.409885548686285"><ele>774.0</ele><time>2026-04-30T10:37:18Z</time></trkpt><trkpt lat="31.323777740969764" lon="-4.409922043298841"><ele>774.0</ele><time>2026-04-30T10:37:19Z</time></trkpt><trkpt lat="31.323672548483234" lon="-4.409960621114504"><ele>773.8000000000001</ele><time>2026-04-30T10:37:20Z</time></trkpt><trkpt lat="31.323570012456063" lon="-4.409998224732814"><ele>773.6</ele><time>2026-04-30T10:37:21Z</time></trkpt><trkpt lat="31.323468447781146" lon="-4.410035472059198"><ele>773.4</ele><time>2026-04-30T10:37:22Z</time></trkpt><trkpt lat="31.32336742092419" lon="-4.410073829590017"><ele>773.2</ele><time>2026-04-30T10:37:22.999Z</time></trkpt><trkpt lat="31.32327764323852" lon="-4.410108516446577"><ele>773.0</ele><time>2026-04-30T10:37:23.999Z</time></trkpt><trkpt lat="31.323185751927188" lon="-4.410144034252311"><ele>773.0</ele><time>2026-04-30T10:37:24.999Z</time></trkpt><trkpt lat="31.32309051676512" lon="-4.410181497367617"><ele>773.0</ele><time>2026-04-30T10:37:25.999Z</time></trkpt><trkpt lat="31.32300014843229" lon="-4.410217045005307"><ele>773.0</ele><time>2026-04-30T10:37:26.999Z</time></trkpt><trkpt lat="31.322899610739814" lon="-4.410256593997821"><ele>773.0</ele><time>2026-04-30T10:37:27.999Z</time></trkpt><trkpt lat="31.322806487179125" lon="-4.410281683974215"><ele>773.0</ele><time>2026-04-30T10:37:28.999Z</time></trkpt><trkpt lat="31.322707790435175" lon="-4.410308536626542"><ele>773.0</ele><time>2026-04-30T10:37:29.999Z</time></trkpt><trkpt lat="31.322619761687193" lon="-4.4103326540932795"><ele>773.0</ele><time>2026-04-30T10:37:30.999Z</time></trkpt><trkpt lat="31.32253182271852" lon="-4.410357266966605"><ele>773.0</ele><time>2026-04-30T10:37:31.999Z</time></trkpt><trkpt lat="31.322429779902937" lon="-4.410385178669354"><ele>773.0</ele><time>2026-04-30T10:37:32.999Z</time></trkpt><trkpt lat="31.3223440855118" lon="-4.410408536397381"><ele>773.0</ele><time>2026-04-30T10:37:33.999Z</time></trkpt><trkpt lat="31.322236509789303" lon="-4.410429588978135"><ele>773.0</ele><time>2026-04-30T10:37:34.999Z</time></trkpt><trkpt lat="31.322140512101182" lon="-4.4104396366383645"><ele>773.0</ele><time>2026-04-30T10:37:35.999Z</time></trkpt><trkpt lat="31.322044619289645" lon="-4.410447020987791"><ele>773.0</ele><time>2026-04-30T10:37:36.999Z</time></trkpt><trkpt lat="31.32194352250507" lon="-4.410452077518084"><ele>773.0</ele><time>2026-04-30T10:37:37.999Z</time></trkpt><trkpt lat="31.321851761070523" lon="-4.410463311827506"><ele>773.0</ele><time>2026-04-30T10:37:38.999Z</time></trkpt><trkpt lat="31.321755914341068" lon="-4.410477156233934"><ele>773.0</ele><time>2026-04-30T10:37:39.999Z</time></trkpt><trkpt lat="31.321661014565965" lon="-4.410491303511406"><ele>773.0</ele><time>2026-04-30T10:37:40.999Z</time></trkpt><trkpt lat="31.321564800730787" lon="-4.410503846347447"><ele>773.0</ele><time>2026-04-30T10:37:41.999Z</time></trkpt><trkpt lat="31.321474871618395" lon="-4.410515618401689"><ele>773.0</ele><time>2026-04-30T10:37:42.999Z</time></trkpt><trkpt lat="31.321377439390137" lon="-4.410528592749936"><ele>773.0</ele><time>2026-04-30T10:37:43.999Z</time></trkpt><trkpt lat="31.321280443220793" lon="-4.41056017868396"><ele>772.5999999999999</ele><time>2026-04-30T10:37:44.999Z</time></trkpt><trkpt lat="31.321183413434138" lon="-4.4105547505757245"><ele>772.1999999999999</ele><time>2026-04-30T10:37:45.999Z</time></trkpt><trkpt lat="31.321082535796542" lon="-4.410591946184771"><ele>771.8</ele><time>2026-04-30T10:37:46.999Z</time></trkpt><trkpt lat="31.320976819734568" lon="-4.410586771978332"><ele>771.4</ele><time>2026-04-30T10:37:47.999Z</time></trkpt><trkpt lat="31.32086914227239" lon="-4.410589664586919"><ele>771.0</ele><time>2026-04-30T10:37:48.999Z</time></trkpt><trkpt lat="31.32075749426554" lon="-4.410592133629828"><ele>771.0</ele><time>2026-04-30T10:37:49.999Z</time></trkpt><trkpt lat="31.32064921567624" lon="-4.41059455024188"><ele>771.0</ele><time>2026-04-30T10:37:50.999Z</time></trkpt><trkpt lat="31.3205335183485" lon="-4.410599734531387"><ele>771.0</ele><time>2026-04-30T10:37:51.999Z</time></trkpt><trkpt lat="31.320416862667464" lon="-4.410609350015972"><ele>771.0</ele><time>2026-04-30T10:37:52.999Z</time></trkpt><trkpt lat="31.320300370516957" lon="-4.410618761075086"><ele>771.0</ele><time>2026-04-30T10:37:53.999Z</time></trkpt><trkpt lat="31.320187690645525" lon="-4.410627864145586"><ele>771.0</ele><time>2026-04-30T10:37:54.999Z</time></trkpt><trkpt lat="31.320074472529537" lon="-4.410637010702629"><ele>771.0</ele><time>2026-04-30T10:37:55.999Z</time></trkpt><trkpt lat="31.319970130941908" lon="-4.410645480033044"><ele>771.0</ele><time>2026-04-30T10:37:56.999Z</time></trkpt><trkpt lat="31.31986541002856" lon="-4.410642001357947"><ele>771.0</ele><time>2026-04-30T10:37:57.999Z</time></trkpt><trkpt lat="31.319757436677012" lon="-4.410624199366651"><ele>771.25</ele><time>2026-04-30T10:37:58.999Z</time></trkpt><trkpt lat="31.319646158176955" lon="-4.4106058524242036"><ele>771.5</ele><time>2026-04-30T10:37:59.999Z</time></trkpt><trkpt lat="31.319534289628233" lon="-4.410587408202904"><ele>771.75</ele><time>2026-04-30T10:38:00.999Z</time></trkpt><trkpt lat="31.319421807238523" lon="-4.410568862787938"><ele>772.0</ele><time>2026-04-30T10:38:01.999Z</time></trkpt><trkpt lat="31.319304114867542" lon="-4.410549458372164"><ele>772.0</ele><time>2026-04-30T10:38:02.999Z</time></trkpt><trkpt lat="31.319187470415745" lon="-4.410542053746662"><ele>772.0</ele><time>2026-04-30T10:38:03.999Z</time></trkpt><trkpt lat="31.319083466883193" lon="-4.410541263181726"><ele>772.0</ele><time>2026-04-30T10:38:04.999Z</time></trkpt><trkpt lat="31.318978800204857" lon="-4.410540467572074"><ele>772.0</ele><time>2026-04-30T10:38:05.999Z</time></trkpt><trkpt lat="31.318867963724237" lon="-4.410539721178263"><ele>772.0</ele><time>2026-04-30T10:38:06.999Z</time></trkpt><trkpt lat="31.318759491465595" lon="-4.410539153151279"><ele>771.8</ele><time>2026-04-30T10:38:07.999Z</time></trkpt><trkpt lat="31.318651898152993" lon="-4.410538589726474"><ele>771.6</ele><time>2026-04-30T10:38:08.999Z</time></trkpt><trkpt lat="31.31855060049949" lon="-4.410538059268885"><ele>771.4</ele><time>2026-04-30T10:38:09.999Z</time></trkpt><trkpt lat="31.318445318026882" lon="-4.410537507945098"><ele>771.1999999999999</ele><time>2026-04-30T10:38:10.999Z</time></trkpt><trkpt lat="31.31833188938028" lon="-4.410538229460113"><ele>771.0</ele><time>2026-04-30T10:38:12Z</time></trkpt><trkpt lat="31.318215650415986" lon="-4.410540117567404"><ele>771.0</ele><time>2026-04-30T10:38:13Z</time></trkpt><trkpt lat="31.31809973514859" lon="-4.41054200041356"><ele>771.0</ele><time>2026-04-30T10:38:14Z</time></trkpt><trkpt lat="31.31798480567661" lon="-4.410543867247192"><ele>771.0</ele><time>2026-04-30T10:38:15Z</time></trkpt><trkpt lat="31.317879185595064" lon="-4.410545582866906"><ele>771.0</ele><time>2026-04-30T10:38:16Z</time></trkpt><trkpt lat="31.31777549521499" lon="-4.410546633310279"><ele>771.0</ele><time>2026-04-30T10:38:17Z</time></trkpt><trkpt lat="31.317648662461583" lon="-4.410574064400048"><ele>771.0</ele><time>2026-04-30T10:38:18Z</time></trkpt><trkpt lat="31.317538022847266" lon="-4.4105988143999335"><ele>771.0</ele><time>2026-04-30T10:38:19Z</time></trkpt><trkpt lat="31.317429648245913" lon="-4.410623057669374"><ele>771.0</ele><time>2026-04-30T10:38:20Z</time></trkpt><trkpt lat="31.31732710200053" lon="-4.410645997184316"><ele>771.0</ele><time>2026-04-30T10:38:21Z</time></trkpt><trkpt lat="31.31721521600883" lon="-4.4106710259738255"><ele>771.0</ele><time>2026-04-30T10:38:22Z</time></trkpt><trkpt lat="31.31710484229677" lon="-4.410695716457797"><ele>771.0</ele><time>2026-04-30T10:38:23Z</time></trkpt><trkpt lat="31.316996333916933" lon="-4.410719989694505"><ele>771.0</ele><time>2026-04-30T10:38:24Z</time></trkpt><trkpt lat="31.316888113391496" lon="-4.4107459403945395"><ele>771.0</ele><time>2026-04-30T10:38:25Z</time></trkpt><trkpt lat="31.31677886339408" lon="-4.4107735151216385"><ele>771.0</ele><time>2026-04-30T10:38:26Z</time></trkpt><trkpt lat="31.316665206343508" lon="-4.410802459413756"><ele>771.0</ele><time>2026-04-30T10:38:27Z</time></trkpt><trkpt lat="31.316549660579753" lon="-4.410831884735165"><ele>771.0</ele><time>2026-04-30T10:38:28Z</time></trkpt><trkpt lat="31.31643981190869" lon="-4.41085985917587"><ele>771.0</ele><time>2026-04-30T10:38:29Z</time></trkpt><trkpt lat="31.316333403954566" lon="-4.410886957421113"><ele>771.0</ele><time>2026-04-30T10:38:30Z</time></trkpt><trkpt lat="31.316243099801444" lon="-4.410906778559614"><ele>771.0</ele><time>2026-04-30T10:38:31Z</time></trkpt><trkpt lat="31.316138499430156" lon="-4.410918746683073"><ele>771.0</ele><time>2026-04-30T10:38:32Z</time></trkpt><trkpt lat="31.31603471816866" lon="-4.41093176200216"><ele>771.0</ele><time>2026-04-30T10:38:33Z</time></trkpt><trkpt lat="31.31593280026093" lon="-4.410944864401369"><ele>771.0</ele><time>2026-04-30T10:38:34Z</time></trkpt><trkpt lat="31.315823917592862" lon="-4.410947293753367"><ele>771.0</ele><time>2026-04-30T10:38:35Z</time></trkpt><trkpt lat="31.315718499409773" lon="-4.410949993614317"><ele>771.0</ele><time>2026-04-30T10:38:36Z</time></trkpt><trkpt lat="31.315605123448826" lon="-4.410953595412937"><ele>771.0</ele><time>2026-04-30T10:38:37Z</time></trkpt><trkpt lat="31.315490163844153" lon="-4.410947183079451"><ele>771.0</ele><time>2026-04-30T10:38:38Z</time></trkpt><trkpt lat="31.31538014416266" lon="-4.410926784972503"><ele>771.0</ele><time>2026-04-30T10:38:39Z</time></trkpt><trkpt lat="31.315266888007333" lon="-4.410905887368131"><ele>771.0</ele><time>2026-04-30T10:38:40Z</time></trkpt><trkpt lat="31.31514964303028" lon="-4.410897178980464"><ele>771.0</ele><time>2026-04-30T10:38:41Z</time></trkpt><trkpt lat="31.315041057571847" lon="-4.410867205057061"><ele>771.0</ele><time>2026-04-30T10:38:42Z</time></trkpt><trkpt lat="31.314938001828242" lon="-4.410852300558837"><ele>771.0</ele><time>2026-04-30T10:38:43Z</time></trkpt><trkpt lat="31.314845276321996" lon="-4.410838890074053"><ele>771.0</ele><time>2026-04-30T10:38:44Z</time></trkpt><trkpt lat="31.31475061136977" lon="-4.410825199110355"><ele>771.0</ele><time>2026-04-30T10:38:45Z</time></trkpt><trkpt lat="31.314650868158584" lon="-4.410810773689213"><ele>771.0</ele><time>2026-04-30T10:38:46Z</time></trkpt><trkpt lat="31.314547017808152" lon="-4.4107957542738125"><ele>770.5999999999999</ele><time>2026-04-30T10:38:47Z</time></trkpt><trkpt lat="31.314444510091786" lon="-4.410780929032989"><ele>770.2</ele><time>2026-04-30T10:38:48Z</time></trkpt><trkpt lat="31.314347270007495" lon="-4.410766865658112"><ele>769.8</ele><time>2026-04-30T10:38:49Z</time></trkpt><trkpt lat="31.31424607708767" lon="-4.410738314335429"><ele>769.4000000000001</ele><time>2026-04-30T10:38:50Z</time></trkpt><trkpt lat="31.314148837052883" lon="-4.410729187197969"><ele>769.0</ele><time>2026-04-30T10:38:51Z</time></trkpt><trkpt lat="31.314051875946326" lon="-4.410708483345313"><ele>769.0</ele><time>2026-04-30T10:38:52Z</time></trkpt><trkpt lat="31.31395108568943" lon="-4.41068696178113"><ele>769.0</ele><time>2026-04-30T10:38:53Z</time></trkpt><trkpt lat="31.313847408088204" lon="-4.410647232603621"><ele>769.0</ele><time>2026-04-30T10:38:54Z</time></trkpt><trkpt lat="31.3137516694308" lon="-4.410588249348698"><ele>769.0</ele><time>2026-04-30T10:38:55Z</time></trkpt><trkpt lat="31.3136470167518" lon="-4.410545894594417"><ele>769.0</ele><time>2026-04-30T10:38:56Z</time></trkpt><trkpt lat="31.313552098494082" lon="-4.410484530579303"><ele>768.5</ele><time>2026-04-30T10:38:57Z</time></trkpt><trkpt lat="31.313496265927366" lon="-4.410403704241414"><ele>768.0</ele><time>2026-04-30T10:38:58Z</time></trkpt><trkpt lat="31.313425192894663" lon="-4.410340256153175"><ele>767.5</ele><time>2026-04-30T10:38:59Z</time></trkpt><trkpt lat="31.313348950511923" lon="-4.410272193440927"><ele>767.0</ele><time>2026-04-30T10:39:00Z</time></trkpt><trkpt lat="31.313154626449496" lon="-4.410375427518264"><ele>767.2</ele><time>2026-04-30T10:39:01Z</time></trkpt><trkpt lat="31.31305178433749" lon="-4.410334824489319"><ele>767.4000000000001</ele><time>2026-04-30T10:39:02Z</time></trkpt><trkpt lat="31.312945740063114" lon="-4.410294082743852"><ele>767.5999999999999</ele><time>2026-04-30T10:39:03Z</time></trkpt><trkpt lat="31.312840463304276" lon="-4.41025067514491"><ele>767.8</ele><time>2026-04-30T10:39:04Z</time></trkpt><trkpt lat="31.312735977433103" lon="-4.4102071452399985"><ele>768.0</ele><time>2026-04-30T10:39:05Z</time></trkpt><trkpt lat="31.312630880520835" lon="-4.410167201007864"><ele>768.0</ele><time>2026-04-30T10:39:06Z</time></trkpt><trkpt lat="31.31252726918037" lon="-4.410126958731329"><ele>768.0</ele><time>2026-04-30T10:39:07Z</time></trkpt><trkpt lat="31.312421169340485" lon="-4.41007541094926"><ele>768.0</ele><time>2026-04-30T10:39:08Z</time></trkpt><trkpt lat="31.31232311816043" lon="-4.410026785872291"><ele>768.0</ele><time>2026-04-30T10:39:09Z</time></trkpt><trkpt lat="31.312220109155167" lon="-4.409974868376212"><ele>768.0</ele><time>2026-04-30T10:39:10Z</time></trkpt><trkpt lat="31.31211680279439" lon="-4.409913916517308"><ele>768.25</ele><time>2026-04-30T10:39:11Z</time></trkpt><trkpt lat="31.31201451436986" lon="-4.409856299219786"><ele>768.5</ele><time>2026-04-30T10:39:12Z</time></trkpt><trkpt lat="31.311905484647255" lon="-4.40979557449021"><ele>768.75</ele><time>2026-04-30T10:39:13Z</time></trkpt><trkpt lat="31.31180269394553" lon="-4.409738602159097"><ele>769.0</ele><time>2026-04-30T10:39:14Z</time></trkpt><trkpt lat="31.311697290155017" lon="-4.4096852118965755"><ele>769.0</ele><time>2026-04-30T10:39:15Z</time></trkpt><trkpt lat="31.31157627067457" lon="-4.4096611123921114"><ele>769.0</ele><time>2026-04-30T10:39:16Z</time></trkpt><trkpt lat="31.311469772919327" lon="-4.409611248278821"><ele>769.0</ele><time>2026-04-30T10:39:17Z</time></trkpt><trkpt lat="31.311369678967466" lon="-4.409548679132982"><ele>769.0</ele><time>2026-04-30T10:39:18Z</time></trkpt><trkpt lat="31.31127515413518" lon="-4.409521497872603"><ele>769.0</ele><time>2026-04-30T10:39:18.999Z</time></trkpt><trkpt lat="31.31118995330223" lon="-4.40948220658872"><ele>769.0</ele><time>2026-04-30T10:39:19.999Z</time></trkpt><trkpt lat="31.311102093924124" lon="-4.409441689297395"><ele>769.0</ele><time>2026-04-30T10:39:20.999Z</time></trkpt><trkpt lat="31.311011510989275" lon="-4.409398950897998"><ele>769.0</ele><time>2026-04-30T10:39:21.999Z</time></trkpt><trkpt lat="31.310930037468204" lon="-4.409361981544594"><ele>769.0</ele><time>2026-04-30T10:39:22.999Z</time></trkpt><trkpt lat="31.31084834524398" lon="-4.409326152743846"><ele>769.0</ele><time>2026-04-30T10:39:23.999Z</time></trkpt><trkpt lat="31.310753803407653" lon="-4.4092859696808375"><ele>769.0</ele><time>2026-04-30T10:39:24.999Z</time></trkpt><trkpt lat="31.310656113465775" lon="-4.409244446681275"><ele>769.0</ele><time>2026-04-30T10:39:25.999Z</time></trkpt><trkpt lat="31.31054835524334" lon="-4.4091985338837"><ele>769.0</ele><time>2026-04-30T10:39:26.999Z</time></trkpt><trkpt lat="31.310438953353398" lon="-4.409151762822375"><ele>769.0</ele><time>2026-04-30T10:39:27.999Z</time></trkpt><trkpt lat="31.310328750125034" lon="-4.4090830667658105"><ele>768.75</ele><time>2026-04-30T10:39:28.999Z</time></trkpt><trkpt lat="31.310213160753705" lon="-4.409047610992304"><ele>768.5</ele><time>2026-04-30T10:39:29.999Z</time></trkpt><trkpt lat="31.310097988201846" lon="-4.408993878905175"><ele>768.25</ele><time>2026-04-30T10:39:30.999Z</time></trkpt><trkpt lat="31.309987719246145" lon="-4.408923345468167"><ele>768.0</ele><time>2026-04-30T10:39:31.999Z</time></trkpt><trkpt lat="31.309869872062666" lon="-4.408877996004742"><ele>768.0</ele><time>2026-04-30T10:39:32.999Z</time></trkpt><trkpt lat="31.30975065672239" lon="-4.408818775964482"><ele>768.0</ele><time>2026-04-30T10:39:33.999Z</time></trkpt><trkpt lat="31.309634733482405" lon="-4.408761994401047"><ele>768.0</ele><time>2026-04-30T10:39:34.999Z</time></trkpt><trkpt lat="31.309505334934936" lon="-4.408719833994517"><ele>768.0</ele><time>2026-04-30T10:39:35.999Z</time></trkpt><trkpt lat="31.309388123978636" lon="-4.408693938146384"><ele>767.75</ele><time>2026-04-30T10:39:36.999Z</time></trkpt><trkpt lat="31.309280753841016" lon="-4.408675715217478"><ele>767.5</ele><time>2026-04-30T10:39:37.999Z</time></trkpt><trkpt lat="31.309171636875814" lon="-4.408637326493685"><ele>767.25</ele><time>2026-04-30T10:39:38.999Z</time></trkpt><trkpt lat="31.30905570667415" lon="-4.408611554294383"><ele>767.0</ele><time>2026-04-30T10:39:39.999Z</time></trkpt><trkpt lat="31.308938784468467" lon="-4.40858397422099"><ele>767.0</ele><time>2026-04-30T10:39:40.999Z</time></trkpt><trkpt lat="31.308821114434355" lon="-4.408563351053842"><ele>767.0</ele><time>2026-04-30T10:39:41.999Z</time></trkpt><trkpt lat="31.30870450927721" lon="-4.408557650364494"><ele>767.0</ele><time>2026-04-30T10:39:42.999Z</time></trkpt><trkpt lat="31.308598563386635" lon="-4.408553879683699"><ele>767.0</ele><time>2026-04-30T10:39:43.999Z</time></trkpt><trkpt lat="31.30849499752501" lon="-4.4085486073529205"><ele>767.0</ele><time>2026-04-30T10:39:44.999Z</time></trkpt><trkpt lat="31.308408227862305" lon="-4.408542330046812"><ele>767.0</ele><time>2026-04-30T10:39:45.999Z</time></trkpt><trkpt lat="31.30831081297084" lon="-4.408521921382874"><ele>767.0</ele><time>2026-04-30T10:39:46.999Z</time></trkpt><trkpt lat="31.308204218034213" lon="-4.408509522382449"><ele>767.0</ele><time>2026-04-30T10:39:47.999Z</time></trkpt><trkpt lat="31.30809365251398" lon="-4.408513164830789"><ele>767.0</ele><time>2026-04-30T10:39:48.999Z</time></trkpt><trkpt lat="31.30798733137864" lon="-4.408503997242515"><ele>767.0</ele><time>2026-04-30T10:39:49.999Z</time></trkpt><trkpt lat="31.307885343180295" lon="-4.408497388826984"><ele>767.0</ele><time>2026-04-30T10:39:50.999Z</time></trkpt><trkpt lat="31.307782793035994" lon="-4.408494441670449"><ele>767.0</ele><time>2026-04-30T10:39:51.999Z</time></trkpt><trkpt lat="31.30768877023704" lon="-4.40849214020654"><ele>767.0</ele><time>2026-04-30T10:39:52.999Z</time></trkpt><trkpt lat="31.30760737585898" lon="-4.408471836392686"><ele>767.0</ele><time>2026-04-30T10:39:53.999Z</time></trkpt><trkpt lat="31.30751657471172" lon="-4.408487548931389"><ele>767.0</ele><time>2026-04-30T10:39:54.999Z</time></trkpt><trkpt lat="31.307429284699165" lon="-4.40847274060238"><ele>767.0</ele><time>2026-04-30T10:39:55.999Z</time></trkpt><trkpt lat="31.307329623624256" lon="-4.40847327929991"><ele>767.0</ele><time>2026-04-30T10:39:56.999Z</time></trkpt><trkpt lat="31.30721420230669" lon="-4.408470787485908"><ele>767.0</ele><time>2026-04-30T10:39:57.999Z</time></trkpt><trkpt lat="31.307112995825918" lon="-4.408488831026505"><ele>767.0</ele><time>2026-04-30T10:39:58.999Z</time></trkpt><trkpt lat="31.307007165629187" lon="-4.408488679464004"><ele>767.0</ele><time>2026-04-30T10:39:59.999Z</time></trkpt><trkpt lat="31.306898165866084" lon="-4.408505854824698"><ele>767.0</ele><time>2026-04-30T10:40:00.999Z</time></trkpt><trkpt lat="31.306790798000943" lon="-4.408532171057065"><ele>767.0</ele><time>2026-04-30T10:40:01.999Z</time></trkpt><trkpt lat="31.306678523319263" lon="-4.4085441047346965"><ele>767.0</ele><time>2026-04-30T10:40:02.999Z</time></trkpt><trkpt lat="31.30656567607671" lon="-4.408537874287478"><ele>767.0</ele><time>2026-04-30T10:40:03.999Z</time></trkpt><trkpt lat="31.306453694539304" lon="-4.408514541156048"><ele>767.0</ele><time>2026-04-30T10:40:04.999Z</time></trkpt><trkpt lat="31.306347507779773" lon="-4.408513734598151"><ele>767.0</ele><time>2026-04-30T10:40:05.999Z</time></trkpt><trkpt lat="31.306240670808634" lon="-4.408488208566505"><ele>767.0</ele><time>2026-04-30T10:40:06.999Z</time></trkpt><trkpt lat="31.306131051937243" lon="-4.4084837394948275"><ele>767.0</ele><time>2026-04-30T10:40:07.999Z</time></trkpt><trkpt lat="31.306017374788688" lon="-4.408478764693112"><ele>767.0</ele><time>2026-04-30T10:40:08.999Z</time></trkpt><trkpt lat="31.30590752705992" lon="-4.408473570890076"><ele>767.0</ele><time>2026-04-30T10:40:09.999Z</time></trkpt><trkpt lat="31.305792367868243" lon="-4.40846724800437"><ele>767.0</ele><time>2026-04-30T10:40:10.999Z</time></trkpt><trkpt lat="31.305691607968754" lon="-4.408464949245452"><ele>767.0</ele><time>2026-04-30T10:40:11.999Z</time></trkpt><trkpt lat="31.30558226605468" lon="-4.408460597467493"><ele>767.0</ele><time>2026-04-30T10:40:12.999Z</time></trkpt><trkpt lat="31.30548095666655" lon="-4.408461294295674"><ele>767.0</ele><time>2026-04-30T10:40:13.999Z</time></trkpt><trkpt lat="31.305375277723275" lon="-4.4084552280095375"><ele>767.0</ele><time>2026-04-30T10:40:14.999Z</time></trkpt><trkpt lat="31.30526586196506" lon="-4.40844220934898"><ele>767.0</ele><time>2026-04-30T10:40:15.999Z</time></trkpt><trkpt lat="31.30515417363386" lon="-4.408458330648216"><ele>767.0</ele><time>2026-04-30T10:40:16.999Z</time></trkpt><trkpt lat="31.30505221360203" lon="-4.408456146723015"><ele>767.0</ele><time>2026-04-30T10:40:18Z</time></trkpt><trkpt lat="31.304953652626345" lon="-4.40845342256687"><ele>767.0</ele><time>2026-04-30T10:40:19Z</time></trkpt><trkpt lat="31.304852786017225" lon="-4.408450429625768"><ele>767.0</ele><time>2026-04-30T10:40:20Z</time></trkpt><trkpt lat="31.30475315420534" lon="-4.408447330733788"><ele>767.2</ele><time>2026-04-30T10:40:21Z</time></trkpt><trkpt lat="31.30464722055687" lon="-4.408429455221862"><ele>767.4000000000001</ele><time>2026-04-30T10:40:22Z</time></trkpt><trkpt lat="31.304539278911616" lon="-4.408423417541649"><ele>767.5999999999999</ele><time>2026-04-30T10:40:23Z</time></trkpt><trkpt lat="31.30443233440718" lon="-4.408425952484526"><ele>767.8</ele><time>2026-04-30T10:40:24Z</time></trkpt><trkpt lat="31.304326388122966" lon="-4.408425524226971"><ele>768.0</ele><time>2026-04-30T10:40:25Z</time></trkpt><trkpt lat="31.30422454814193" lon="-4.408412232959699"><ele>768.0</ele><time>2026-04-30T10:40:26Z</time></trkpt><trkpt lat="31.30412252079438" lon="-4.408403641012388"><ele>768.0</ele><time>2026-04-30T10:40:27Z</time></trkpt><trkpt lat="31.304023597980116" lon="-4.408389487952347"><ele>768.0</ele><time>2026-04-30T10:40:28Z</time></trkpt><trkpt lat="31.303924677601724" lon="-4.408400837159446"><ele>768.0</ele><time>2026-04-30T10:40:29Z</time></trkpt><trkpt lat="31.30382673174468" lon="-4.408371375988333"><ele>768.0</ele><time>2026-04-30T10:40:30Z</time></trkpt><trkpt lat="31.30372870081707" lon="-4.408336459297563"><ele>768.0</ele><time>2026-04-30T10:40:31Z</time></trkpt><trkpt lat="31.303640054385216" lon="-4.408307741410189"><ele>768.0</ele><time>2026-04-30T10:40:32Z</time></trkpt><trkpt lat="31.303555627872935" lon="-4.4082468243227595"><ele>768.0</ele><time>2026-04-30T10:40:33Z</time></trkpt><trkpt lat="31.303469206056853" lon="-4.408217030168448"><ele>768.0</ele><time>2026-04-30T10:40:34Z</time></trkpt><trkpt lat="31.303381402085968" lon="-4.408177243664574"><ele>768.0</ele><time>2026-04-30T10:40:35Z</time></trkpt><trkpt lat="31.303292321866557" lon="-4.408135077082769"><ele>768.0</ele><time>2026-04-30T10:40:36Z</time></trkpt><trkpt lat="31.30320605655745" lon="-4.408082510495484"><ele>768.0</ele><time>2026-04-30T10:40:37Z</time></trkpt><trkpt lat="31.303110310273" lon="-4.408047301637983"><ele>768.0</ele><time>2026-04-30T10:40:38Z</time></trkpt><trkpt lat="31.303017355848283" lon="-4.407993388792386"><ele>768.0</ele><time>2026-04-30T10:40:39Z</time></trkpt><trkpt lat="31.30292904850524" lon="-4.4079421712268445"><ele>768.0</ele><time>2026-04-30T10:40:40Z</time></trkpt><trkpt lat="31.30283839337682" lon="-4.407889591973051"><ele>768.1666666666666</ele><time>2026-04-30T10:40:41Z</time></trkpt><trkpt lat="31.30275126663988" lon="-4.4078199051941285"><ele>768.3333333333333</ele><time>2026-04-30T10:40:42Z</time></trkpt><trkpt lat="31.302667959264152" lon="-4.407785949495774"><ele>768.5</ele><time>2026-04-30T10:40:43Z</time></trkpt><trkpt lat="31.302597989663578" lon="-4.40774192006339"><ele>768.6666666666666</ele><time>2026-04-30T10:40:44Z</time></trkpt><trkpt lat="31.30253686418527" lon="-4.407703455942366"><ele>768.8333333333333</ele><time>2026-04-30T10:40:45Z</time></trkpt><trkpt lat="31.302472623151203" lon="-4.407663031293055"><ele>769.0</ele><time>2026-04-30T10:40:46Z</time></trkpt><trkpt lat="31.302405296345235" lon="-4.407620537938463"><ele>768.9999999999999</ele><time>2026-04-30T10:40:47Z</time></trkpt><trkpt lat="31.302340504229353" lon="-4.407525781147505"><ele>769.0</ele><time>2026-04-30T10:40:48Z</time></trkpt><trkpt lat="31.302295607057825" lon="-4.407444721361449"><ele>769.0</ele><time>2026-04-30T10:40:49Z</time></trkpt><trkpt lat="31.302251489457035" lon="-4.407365069398271"><ele>769.0</ele><time>2026-04-30T10:40:50Z</time></trkpt><trkpt lat="31.302241826364963" lon="-4.407258078559354"><ele>768.9999999999999</ele><time>2026-04-30T10:40:51Z</time></trkpt><trkpt lat="31.302207819601296" lon="-4.407182856276073"><ele>769.0</ele><time>2026-04-30T10:40:52Z</time></trkpt><trkpt lat="31.302203402563897" lon="-4.40708732914059"><ele>769.3333333333333</ele><time>2026-04-30T10:40:53Z</time></trkpt><trkpt lat="31.30220056344497" lon="-4.407004813017393"><ele>769.6666666666666</ele><time>2026-04-30T10:40:54Z</time></trkpt><trkpt lat="31.302197127078518" lon="-4.40692486710743"><ele>770.0</ele><time>2026-04-30T10:40:55Z</time></trkpt><trkpt lat="31.302143094599298" lon="-4.406794440590845"><ele>770.3333333333333</ele><time>2026-04-30T10:40:57Z</time></trkpt><trkpt lat="31.30210911354112" lon="-4.406722756255756"><ele>770.6666666666666</ele><time>2026-04-30T10:40:58Z</time></trkpt><trkpt lat="31.30204188554667" lon="-4.406688697306588"><ele>771.0</ele><time>2026-04-30T10:40:59Z</time></trkpt><trkpt lat="31.301988884704755" lon="-4.406611189098382"><ele>771.0</ele><time>2026-04-30T10:41:00Z</time></trkpt><trkpt lat="31.301910159456416" lon="-4.406571539147064"><ele>771.0</ele><time>2026-04-30T10:41:01Z</time></trkpt><trkpt lat="31.301828893713054" lon="-4.406517890729347"><ele>771.0</ele><time>2026-04-30T10:41:02Z</time></trkpt><trkpt lat="31.30174072225751" lon="-4.406448065084279"><ele>771.0</ele><time>2026-04-30T10:41:03Z</time></trkpt><trkpt lat="31.30164948676608" lon="-4.406386490747263"><ele>771.0</ele><time>2026-04-30T10:41:04Z</time></trkpt><trkpt lat="31.301577186768395" lon="-4.406313162225827"><ele>771.4</ele><time>2026-04-30T10:41:05Z</time></trkpt><trkpt lat="31.301481868578687" lon="-4.406259659989488"><ele>771.8</ele><time>2026-04-30T10:41:06Z</time></trkpt><trkpt lat="31.301392850928238" lon="-4.406192303480431"><ele>772.1999999999999</ele><time>2026-04-30T10:41:07Z</time></trkpt><trkpt lat="31.30132047347593" lon="-4.406118762286606"><ele>772.5999999999999</ele><time>2026-04-30T10:41:08Z</time></trkpt><trkpt lat="31.301250488148376" lon="-4.406056544817761"><ele>773.0</ele><time>2026-04-30T10:41:09Z</time></trkpt><trkpt lat="31.301191564627125" lon="-4.405967445492751"><ele>773.0</ele><time>2026-04-30T10:41:10Z</time></trkpt><trkpt lat="31.301118431302292" lon="-4.405893796222192"><ele>773.0</ele><time>2026-04-30T10:41:11Z</time></trkpt><trkpt lat="31.30105318252288" lon="-4.405803887661618"><ele>773.0</ele><time>2026-04-30T10:41:12Z</time></trkpt><trkpt lat="31.300951677908476" lon="-4.405764410117255"><ele>773.0</ele><time>2026-04-30T10:41:13Z</time></trkpt><trkpt lat="31.300861646532514" lon="-4.405702141493743"><ele>773.0</ele><time>2026-04-30T10:41:14Z</time></trkpt><trkpt lat="31.300779637371168" lon="-4.405626462097703"><ele>773.0</ele><time>2026-04-30T10:41:15Z</time></trkpt><trkpt lat="31.300679041491918" lon="-4.405565426965678"><ele>773.0</ele><time>2026-04-30T10:41:15.999Z</time></trkpt><trkpt lat="31.300581678495675" lon="-4.405507643725587"><ele>773.0</ele><time>2026-04-30T10:41:16.999Z</time></trkpt><trkpt lat="31.300496724110843" lon="-4.40544003950521"><ele>773.0</ele><time>2026-04-30T10:41:17.999Z</time></trkpt><trkpt lat="31.300396457768848" lon="-4.405399230168808"><ele>773.0</ele><time>2026-04-30T10:41:18.999Z</time></trkpt><trkpt lat="31.30030313545198" lon="-4.4053439082147765"><ele>774.25</ele><time>2026-04-30T10:41:19.999Z</time></trkpt><trkpt lat="31.300207728541597" lon="-4.405287350502217"><ele>775.5</ele><time>2026-04-30T10:41:20.999Z</time></trkpt><trkpt lat="31.30011684478" lon="-4.405213410208273"><ele>776.75</ele><time>2026-04-30T10:41:21.999Z</time></trkpt><trkpt lat="31.300006917084144" lon="-4.405161726474517"><ele>778.0</ele><time>2026-04-30T10:41:22.999Z</time></trkpt><trkpt lat="31.299900267066697" lon="-4.405098400877132"><ele>778.0</ele><time>2026-04-30T10:41:23.999Z</time></trkpt><trkpt lat="31.299795826670195" lon="-4.405040416302246"><ele>778.0</ele><time>2026-04-30T10:41:24.999Z</time></trkpt><trkpt lat="31.299688394848367" lon="-4.404979954378568"><ele>778.0</ele><time>2026-04-30T10:41:25.999Z</time></trkpt><trkpt lat="31.2995856240606" lon="-4.404918945242603"><ele>778.0</ele><time>2026-04-30T10:41:26.999Z</time></trkpt><trkpt lat="31.299475447603168" lon="-4.404870436671384"><ele>777.8</ele><time>2026-04-30T10:41:27.999Z</time></trkpt><trkpt lat="31.299383321455522" lon="-4.404798520485175"><ele>777.5999999999999</ele><time>2026-04-30T10:41:28.999Z</time></trkpt><trkpt lat="31.299306706496655" lon="-4.404734804190619"><ele>777.4000000000001</ele><time>2026-04-30T10:41:29.999Z</time></trkpt><trkpt lat="31.29923304827528" lon="-4.404695461166202"><ele>777.2</ele><time>2026-04-30T10:41:30.999Z</time></trkpt><trkpt lat="31.29915795968095" lon="-4.404664062043029"><ele>777.0</ele><time>2026-04-30T10:41:31.999Z</time></trkpt><trkpt lat="31.299076068407413" lon="-4.40461520293736"><ele>777.0</ele><time>2026-04-30T10:41:32.999Z</time></trkpt><trkpt lat="31.29898317163556" lon="-4.40455977758559"><ele>777.0</ele><time>2026-04-30T10:41:33.999Z</time></trkpt><trkpt lat="31.298893578947283" lon="-4.404506323844574"><ele>777.0</ele><time>2026-04-30T10:41:34.999Z</time></trkpt><trkpt lat="31.298816774202898" lon="-4.404369108967423"><ele>777.0</ele><time>2026-04-30T10:41:35.999Z</time></trkpt><trkpt lat="31.29872209636411" lon="-4.404288224568862"><ele>777.0</ele><time>2026-04-30T10:41:36.999Z</time></trkpt><trkpt lat="31.29864309957681" lon="-4.404205862653778"><ele>777.0</ele><time>2026-04-30T10:41:37.999Z</time></trkpt><trkpt lat="31.29857681090045" lon="-4.404087143998894"><ele>777.0</ele><time>2026-04-30T10:41:38.999Z</time></trkpt><trkpt lat="31.29851417661377" lon="-4.40397447671151"><ele>777.0</ele><time>2026-04-30T10:41:39.999Z</time></trkpt><trkpt lat="31.29845810735672" lon="-4.403850957107632"><ele>777.5</ele><time>2026-04-30T10:41:40.999Z</time></trkpt><trkpt lat="31.298388762593955" lon="-4.403713967744152"><ele>778.0</ele><time>2026-04-30T10:41:41.999Z</time></trkpt><trkpt lat="31.298308785065135" lon="-4.40360501561129"><ele>778.5</ele><time>2026-04-30T10:41:42.999Z</time></trkpt><trkpt lat="31.298267270152724" lon="-4.403496709862053"><ele>779.0</ele><time>2026-04-30T10:41:43.999Z</time></trkpt><trkpt lat="31.298233623862387" lon="-4.403392901396498"><ele>779.0</ele><time>2026-04-30T10:41:44.999Z</time></trkpt><trkpt lat="31.298208069124115" lon="-4.40328278814016"><ele>779.0</ele><time>2026-04-30T10:41:45.999Z</time></trkpt><trkpt lat="31.298180143588638" lon="-4.403189666905849"><ele>779.0</ele><time>2026-04-30T10:41:46.999Z</time></trkpt><trkpt lat="31.298133884894845" lon="-4.4030988803134985"><ele>779.0</ele><time>2026-04-30T10:41:47.999Z</time></trkpt><trkpt lat="31.298103299119514" lon="-4.40300984841732"><ele>779.0</ele><time>2026-04-30T10:41:48.999Z</time></trkpt><trkpt lat="31.298067682763016" lon="-4.402906173043862"><ele>779.25</ele><time>2026-04-30T10:41:49.999Z</time></trkpt><trkpt lat="31.298029994670625" lon="-4.402796467069092"><ele>779.5</ele><time>2026-04-30T10:41:50.999Z</time></trkpt><trkpt lat="31.298097226854303" lon="-4.402637661323831"><ele>779.75</ele><time>2026-04-30T10:41:51.999Z</time></trkpt><trkpt lat="31.29811155855632" lon="-4.402517747096826"><ele>780.0</ele><time>2026-04-30T10:41:52.999Z</time></trkpt><trkpt lat="31.298125718264757" lon="-4.402400862488717"><ele>780.6</ele><time>2026-04-30T10:41:53.999Z</time></trkpt><trkpt lat="31.29814271233828" lon="-4.402294558552085"><ele>781.2</ele><time>2026-04-30T10:41:54.999Z</time></trkpt><trkpt lat="31.298165996452244" lon="-4.4021793786089045"><ele>781.8</ele><time>2026-04-30T10:41:55.999Z</time></trkpt><trkpt lat="31.298190898946185" lon="-4.402068835241099"><ele>782.4</ele><time>2026-04-30T10:41:56.999Z</time></trkpt><trkpt lat="31.298227978306056" lon="-4.4019549616458455"><ele>783.0</ele><time>2026-04-30T10:41:57.999Z</time></trkpt><trkpt lat="31.298280108076444" lon="-4.401815574203701"><ele>783.2</ele><time>2026-04-30T10:41:58.999Z</time></trkpt><trkpt lat="31.29831221835155" lon="-4.401707774089914"><ele>783.4</ele><time>2026-04-30T10:41:59.999Z</time></trkpt><trkpt lat="31.298341713313206" lon="-4.401610176606018"><ele>783.6</ele><time>2026-04-30T10:42:00.999Z</time></trkpt><trkpt lat="31.29835577555759" lon="-4.401500099507905"><ele>783.8000000000001</ele><time>2026-04-30T10:42:01.999Z</time></trkpt><trkpt lat="31.29837326858876" lon="-4.4013930591616335"><ele>784.0</ele><time>2026-04-30T10:42:02.999Z</time></trkpt><trkpt lat="31.298395827276135" lon="-4.401296816531416"><ele>783.9999999999999</ele><time>2026-04-30T10:42:03.999Z</time></trkpt><trkpt lat="31.2984286079859" lon="-4.40120481350257"><ele>784.0</ele><time>2026-04-30T10:42:04.999Z</time></trkpt><trkpt lat="31.298470997818004" lon="-4.4011102324239895"><ele>784.0</ele><time>2026-04-30T10:42:05.999Z</time></trkpt><trkpt lat="31.29852181104973" lon="-4.4010183871653075"><ele>784.0</ele><time>2026-04-30T10:42:06.999Z</time></trkpt><trkpt lat="31.298563687052894" lon="-4.400934851491264"><ele>783.9999999999999</ele><time>2026-04-30T10:42:07.999Z</time></trkpt><trkpt lat="31.29860871221715" lon="-4.400856694603124"><ele>784.0</ele><time>2026-04-30T10:42:08.999Z</time></trkpt><trkpt lat="31.298657451681365" lon="-4.400781339621102"><ele>783.9999999999999</ele><time>2026-04-30T10:42:09.999Z</time></trkpt><trkpt lat="31.298708496371802" lon="-4.400711230142932"><ele>784.0</ele><time>2026-04-30T10:42:10.999Z</time></trkpt><trkpt lat="31.29875254126502" lon="-4.4006479513525685"><ele>784.0</ele><time>2026-04-30T10:42:11.999Z</time></trkpt><trkpt lat="31.29880759714882" lon="-4.400578861176861"><ele>784.0</ele><time>2026-04-30T10:42:12.999Z</time></trkpt><trkpt lat="31.298866238726813" lon="-4.400514771476999"><ele>783.9999999999999</ele><time>2026-04-30T10:42:13.999Z</time></trkpt><trkpt lat="31.298921190653136" lon="-4.400454485515582"><ele>784.0</ele><time>2026-04-30T10:42:14.999Z</time></trkpt><trkpt lat="31.298969555737386" lon="-4.400394307460806"><ele>785.8000000000001</ele><time>2026-04-30T10:42:15.999Z</time></trkpt><trkpt lat="31.299076094940865" lon="-4.400307113788081"><ele>787.6</ele><time>2026-04-30T10:42:17.999Z</time></trkpt><trkpt lat="31.299137270574256" lon="-4.400252235852482"><ele>789.4</ele><time>2026-04-30T10:42:18.999Z</time></trkpt><trkpt lat="31.299214258480877" lon="-4.400189977827822"><ele>791.2</ele><time>2026-04-30T10:42:19.999Z</time></trkpt><trkpt lat="31.29929358346157" lon="-4.40011657858225"><ele>793.0</ele><time>2026-04-30T10:42:20.999Z</time></trkpt><trkpt lat="31.299367062509816" lon="-4.400043998376325"><ele>792.9999999999999</ele><time>2026-04-30T10:42:21.999Z</time></trkpt><trkpt lat="31.299425912784802" lon="-4.3999856104697015"><ele>793.0</ele><time>2026-04-30T10:42:22.999Z</time></trkpt><trkpt lat="31.299500256987173" lon="-4.399928933093031"><ele>793.0</ele><time>2026-04-30T10:42:24Z</time></trkpt><trkpt lat="31.299582822144213" lon="-4.39988599608933"><ele>793.0</ele><time>2026-04-30T10:42:25Z</time></trkpt><trkpt lat="31.29967054374773" lon="-4.399856466420593"><ele>792.9999999999999</ele><time>2026-04-30T10:42:26Z</time></trkpt><trkpt lat="31.299747125581803" lon="-4.399839404527758"><ele>793.0</ele><time>2026-04-30T10:42:27Z</time></trkpt><trkpt lat="31.29983320022749" lon="-4.399822249879398"><ele>795.4</ele><time>2026-04-30T10:42:28Z</time></trkpt><trkpt lat="31.29990217146439" lon="-4.399782630883676"><ele>797.8</ele><time>2026-04-30T10:42:29Z</time></trkpt><trkpt lat="31.29997154831456" lon="-4.399721547881034"><ele>800.2</ele><time>2026-04-30T10:42:30Z</time></trkpt><trkpt lat="31.300038149077867" lon="-4.399645400023365"><ele>802.6</ele><time>2026-04-30T10:42:31Z</time></trkpt><trkpt lat="31.300113205686078" lon="-4.39957792929514"><ele>805.0</ele><time>2026-04-30T10:42:32Z</time></trkpt><trkpt lat="31.30019675173883" lon="-4.399516317532864"><ele>804.9999999999999</ele><time>2026-04-30T10:42:33Z</time></trkpt><trkpt lat="31.300275088577163" lon="-4.399460788534168"><ele>805.0</ele><time>2026-04-30T10:42:34Z</time></trkpt><trkpt lat="31.30034102473345" lon="-4.399414382400883"><ele>805.0</ele><time>2026-04-30T10:42:35Z</time></trkpt><trkpt lat="31.300402635017882" lon="-4.399364554566656"><ele>805.0</ele><time>2026-04-30T10:42:36Z</time></trkpt><trkpt lat="31.30046345762669" lon="-4.399313044009121"><ele>804.9999999999999</ele><time>2026-04-30T10:42:37Z</time></trkpt><trkpt lat="31.30052745476178" lon="-4.399253893189281"><ele>805.0</ele><time>2026-04-30T10:42:38Z</time></trkpt><trkpt lat="31.30059589166767" lon="-4.3991885758473455"><ele>806.4999999999999</ele><time>2026-04-30T10:42:39Z</time></trkpt><trkpt lat="31.300659354101544" lon="-4.399136104385099"><ele>808.0</ele><time>2026-04-30T10:42:40Z</time></trkpt><trkpt lat="31.300724943279487" lon="-4.399097594446488"><ele>809.5</ele><time>2026-04-30T10:42:41Z</time></trkpt><trkpt lat="31.300793025229776" lon="-4.399061446295511"><ele>811.0</ele><time>2026-04-30T10:42:42Z</time></trkpt><trkpt lat="31.300864080018947" lon="-4.399014826755447"><ele>812.4999999999999</ele><time>2026-04-30T10:42:43Z</time></trkpt><trkpt lat="31.300941444422563" lon="-4.398944016553929"><ele>814.0</ele><time>2026-04-30T10:42:44Z</time></trkpt><trkpt lat="31.301008069986143" lon="-4.3988851841657715"><ele>813.4999999999999</ele><time>2026-04-30T10:42:45Z</time></trkpt><trkpt lat="31.301072279208984" lon="-4.39883251316504"><ele>813.0</ele><time>2026-04-30T10:42:46Z</time></trkpt><trkpt lat="31.30113554371054" lon="-4.398802179031339"><ele>812.5</ele><time>2026-04-30T10:42:47Z</time></trkpt><trkpt lat="31.301227892182645" lon="-4.398784946435898"><ele>812.0</ele><time>2026-04-30T10:42:49Z</time></trkpt><trkpt lat="31.30130641769309" lon="-4.398792490797781"><ele>811.4999999999999</ele><time>2026-04-30T10:42:51Z</time></trkpt><trkpt lat="31.301408105836547" lon="-4.398715461695761"><ele>811.0</ele><time>2026-04-30T10:42:53Z</time></trkpt><trkpt lat="31.301442786667156" lon="-4.398645268225482"><ele>813.6666666666666</ele><time>2026-04-30T10:42:54Z</time></trkpt><trkpt lat="31.30147550350311" lon="-4.398546840088391"><ele>816.3333333333333</ele><time>2026-04-30T10:42:55Z</time></trkpt><trkpt lat="31.30148939020301" lon="-4.39845475707076"><ele>819.0</ele><time>2026-04-30T10:42:56Z</time></trkpt><trkpt lat="31.301488425458803" lon="-4.398373186991039"><ele>821.6666666666667</ele><time>2026-04-30T10:42:57Z</time></trkpt><trkpt lat="31.301477262418555" lon="-4.39827267671402"><ele>824.3333333333334</ele><time>2026-04-30T10:42:58Z</time></trkpt><trkpt lat="31.30147460366958" lon="-4.398185049644683"><ele>827.0</ele><time>2026-04-30T10:42:59Z</time></trkpt><trkpt lat="31.301510989790128" lon="-4.39810500676067"><ele>827.0</ele><time>2026-04-30T10:43:01Z</time></trkpt><trkpt lat="31.301558689410413" lon="-4.398019350655479"><ele>827.0</ele><time>2026-04-30T10:43:05Z</time></trkpt><trkpt lat="31.30156937011863" lon="-4.3978976288212825"><ele>827.0</ele><time>2026-04-30T10:43:27.999Z</time></trkpt><trkpt lat="31.301528873233295" lon="-4.397802223689693"><ele>827.0</ele><time>2026-04-30T10:43:29.999Z</time></trkpt><trkpt lat="31.301440841757497" lon="-4.3977335924645615"><ele>827.0</ele><time>2026-04-30T10:43:31.999Z</time></trkpt><trkpt lat="31.30136104865834" lon="-4.3976873093009825"><ele>824.8571428571429</ele><time>2026-04-30T10:43:33.999Z</time></trkpt><trkpt lat="31.301341458384545" lon="-4.3976022124373095"><ele>822.7142857142857</ele><time>2026-04-30T10:43:35.999Z</time></trkpt><trkpt lat="31.301356795694517" lon="-4.397513859375302"><ele>820.5714285714286</ele><time>2026-04-30T10:43:37.999Z</time></trkpt><trkpt lat="31.30136403540271" lon="-4.397438025020283"><ele>818.4285714285714</ele><time>2026-04-30T10:43:39.999Z</time></trkpt><trkpt lat="31.301425733248827" lon="-4.397482788970892"><ele>816.2857142857142</ele><time>2026-04-30T10:44:02.999Z</time></trkpt><trkpt lat="31.301503229662867" lon="-4.397525329686377"><ele>814.1428571428571</ele><time>2026-04-30T10:46:59.999Z</time></trkpt><trkpt lat="31.30155715313907" lon="-4.397482501460767"><ele>812.0</ele><time>2026-04-30T10:47:02.999Z</time></trkpt><trkpt lat="31.301567283890197" lon="-4.397559107976965"><ele>812.0</ele><time>2026-04-30T10:47:34.999Z</time></trkpt><trkpt lat="31.30156572529522" lon="-4.397467893744972"><ele>812.0</ele><time>2026-04-30T10:48:40.998Z</time></trkpt><trkpt lat="31.301554313237844" lon="-4.397540445417898"><ele>812.0</ele><time>2026-04-30T10:48:58.998Z</time></trkpt><trkpt lat="31.301592277397454" lon="-4.397605061399543"><ele>812.0</ele><time>2026-04-30T10:49:07.998Z</time></trkpt><trkpt lat="31.30154495159544" lon="-4.397661540470648"><ele>812.0</ele><time>2026-04-30T10:49:14.999Z</time></trkpt><trkpt lat="31.301585002034976" lon="-4.3977339911713065"><ele>812.0</ele><time>2026-04-30T10:49:23.999Z</time></trkpt><trkpt lat="31.30163575860147" lon="-4.397783536330677"><ele>812.0</ele><time>2026-04-30T10:49:32.999Z</time></trkpt><trkpt lat="31.301573611845587" lon="-4.397739583387227"><ele>812.0</ele><time>2026-04-30T10:50:05.999Z</time></trkpt><trkpt lat="31.301536725232616" lon="-4.397673546020283"><ele>812.0</ele><time>2026-04-30T10:50:11.999Z</time></trkpt><trkpt lat="31.30152932184958" lon="-4.397596432447283"><ele>812.0</ele><time>2026-04-30T10:50:18.999Z</time></trkpt><trkpt lat="31.301533049748468" lon="-4.397513049131671"><ele>812.0</ele><time>2026-04-30T10:50:30.999Z</time></trkpt><trkpt lat="31.301509272001095" lon="-4.397444680992673"><ele>812.0</ele><time>2026-04-30T10:50:48.997Z</time></trkpt><trkpt lat="31.301565818799446" lon="-4.397480973756649"><ele>812.0</ele><time>2026-04-30T10:54:47Z</time></trkpt><trkpt lat="31.301503856391097" lon="-4.397525041722404"><ele>812.0</ele><time>2026-04-30T10:55:57Z</time></trkpt><trkpt lat="31.301495304459774" lon="-4.3976167343258155"><ele>812.0</ele><time>2026-04-30T10:56:26.001Z</time></trkpt><trkpt lat="31.30150035596994" lon="-4.397710744000103"><ele>812.0</ele><time>2026-04-30T10:56:28.001Z</time></trkpt><trkpt lat="31.301526832399336" lon="-4.39779702964392"><ele>812.0</ele><time>2026-04-30T10:56:30.001Z</time></trkpt><trkpt lat="31.30159561053683" lon="-4.397849897222698"><ele>812.0</ele><time>2026-04-30T10:56:33.001Z</time></trkpt><trkpt lat="31.301562431841877" lon="-4.397980957716964"><ele>812.0</ele><time>2026-04-30T10:56:54.001Z</time></trkpt><trkpt lat="31.301496079654388" lon="-4.39808366701753"><ele>812.0</ele><time>2026-04-30T10:56:56.001Z</time></trkpt><trkpt lat="31.301455906301793" lon="-4.398152020693418"><ele>812.0</ele><time>2026-04-30T10:56:58.001Z</time></trkpt><trkpt lat="31.301502404976773" lon="-4.3980833656411775"><ele>812.0</ele><time>2026-04-30T10:57:25Z</time></trkpt><trkpt lat="31.301496011268757" lon="-4.398163833600503"><ele>812.0</ele><time>2026-04-30T10:57:48.001Z</time></trkpt><trkpt lat="31.30150797550375" lon="-4.398088377577753"><ele>812.0</ele><time>2026-04-30T10:58:20.001Z</time></trkpt><trkpt lat="31.30154519543008" lon="-4.398022668211063"><ele>812.0</ele><time>2026-04-30T10:58:25.001Z</time></trkpt><trkpt lat="31.301543923089312" lon="-4.397930532741636"><ele>812.0</ele><time>2026-04-30T10:58:31.001Z</time></trkpt><trkpt lat="31.301550287485046" lon="-4.397855714577884"><ele>812.0</ele><time>2026-04-30T10:58:36.001Z</time></trkpt><trkpt lat="31.30152889169398" lon="-4.397777989435855"><ele>812.0</ele><time>2026-04-30T10:58:41.001Z</time></trkpt><trkpt lat="31.301516111039493" lon="-4.397696306000912"><ele>812.0</ele><time>2026-04-30T10:58:47.001Z</time></trkpt><trkpt lat="31.301495122611726" lon="-4.397619359213798"><ele>812.0</ele><time>2026-04-30T10:59:05.002Z</time></trkpt><trkpt lat="31.301482271379207" lon="-4.397544067947523"><ele>812.0</ele><time>2026-04-30T10:59:12Z</time></trkpt><trkpt lat="31.301469243454342" lon="-4.397463378183162"><ele>812.0</ele><time>2026-04-30T10:59:23Z</time></trkpt><trkpt lat="31.301402329607562" lon="-4.397439366977097"><ele>812.0</ele><time>2026-04-30T10:59:29Z</time></trkpt><trkpt lat="31.301474117727317" lon="-4.397450506001738"><ele>812.0</ele><time>2026-04-30T11:00:52.001Z</time></trkpt><trkpt lat="31.301492423659134" lon="-4.397528341536353"><ele>812.0</ele><time>2026-04-30T11:06:56.001Z</time></trkpt><trkpt lat="31.30148255590257" lon="-4.397604799130808"><ele>812.0</ele><time>2026-04-30T11:07:03.001Z</time></trkpt><trkpt lat="31.3014926006573" lon="-4.3976808897609345"><ele>812.0</ele><time>2026-04-30T11:07:09.001Z</time></trkpt><trkpt lat="31.301520470088658" lon="-4.39774789328672"><ele>812.0</ele><time>2026-04-30T11:07:14.001Z</time></trkpt><trkpt lat="31.301556816167444" lon="-4.397824444577251"><ele>812.0</ele><time>2026-04-30T11:07:21.002Z</time></trkpt><trkpt lat="31.30156195435154" lon="-4.397906481376485"><ele>812.0</ele><time>2026-04-30T11:07:27.002Z</time></trkpt><trkpt lat="31.30154050580732" lon="-4.39799116281049"><ele>814.5000000000001</ele><time>2026-04-30T11:07:33.002Z</time></trkpt><trkpt lat="31.3015289840998" lon="-4.398064322099507"><ele>817.0</ele><time>2026-04-30T11:07:39Z</time></trkpt><trkpt lat="31.30150271048048" lon="-4.398143454169238"><ele>819.5</ele><time>2026-04-30T11:07:46Z</time></trkpt><trkpt lat="31.301490654105326" lon="-4.398244268854923"><ele>822.0</ele><time>2026-04-30T11:09:53.999Z</time></trkpt><trkpt lat="31.30149789831608" lon="-4.398337898036137"><ele>824.5000000000001</ele><time>2026-04-30T11:09:55.999Z</time></trkpt><trkpt lat="31.301505859882578" lon="-4.398426054442431"><ele>827.0</ele><time>2026-04-30T11:10:08Z</time></trkpt><trkpt lat="31.301504629848626" lon="-4.398534939052342"><ele>827.0</ele><time>2026-04-30T11:10:10Z</time></trkpt><trkpt lat="31.30146984920245" lon="-4.3986555910156655"><ele>827.0</ele><time>2026-04-30T11:10:12Z</time></trkpt><trkpt lat="31.301404139147657" lon="-4.398768704560486"><ele>827.0</ele><time>2026-04-30T11:10:14Z</time></trkpt><trkpt lat="31.301293887789818" lon="-4.398817525665252"><ele>827.0</ele><time>2026-04-30T11:10:16Z</time></trkpt><trkpt lat="31.30123100446174" lon="-4.398823538282286"><ele>827.0</ele><time>2026-04-30T11:10:17Z</time></trkpt><trkpt lat="31.30113215907191" lon="-4.398820001316595"><ele>824.4000000000001</ele><time>2026-04-30T11:10:19Z</time></trkpt><trkpt lat="31.301046145402214" lon="-4.3988719487493215"><ele>821.8000000000001</ele><time>2026-04-30T11:10:21Z</time></trkpt><trkpt lat="31.300959367617143" lon="-4.398951164196402"><ele>819.2</ele><time>2026-04-30T11:10:23Z</time></trkpt><trkpt lat="31.300902582176914" lon="-4.398997145508779"><ele>816.6</ele><time>2026-04-30T11:10:24Z</time></trkpt><trkpt lat="31.300846392562335" lon="-4.399041942578432"><ele>814.0</ele><time>2026-04-30T11:10:25Z</time></trkpt><trkpt lat="31.30074534992997" lon="-4.399114611459956"><ele>814.0</ele><time>2026-04-30T11:10:27Z</time></trkpt><trkpt lat="31.300630747573127" lon="-4.399183685705673"><ele>814.0</ele><time>2026-04-30T11:10:29Z</time></trkpt><trkpt lat="31.30054144797918" lon="-4.399267687990667"><ele>814.0</ele><time>2026-04-30T11:10:31Z</time></trkpt><trkpt lat="31.30047423933418" lon="-4.399273638894929"><ele>814.0</ele><time>2026-04-30T11:10:32Z</time></trkpt><trkpt lat="31.30039517464762" lon="-4.399353659551549"><ele>814.0</ele><time>2026-04-30T11:10:34Z</time></trkpt><trkpt lat="31.300302895021765" lon="-4.399414810111882"><ele>812.4999999999999</ele><time>2026-04-30T11:10:36Z</time></trkpt><trkpt lat="31.300207119463124" lon="-4.399476009658398"><ele>811.0</ele><time>2026-04-30T11:10:38Z</time></trkpt><trkpt lat="31.30014964312218" lon="-4.3995249856224214"><ele>809.5</ele><time>2026-04-30T11:10:39Z</time></trkpt><trkpt lat="31.30004834265248" lon="-4.399610802193605"><ele>808.0</ele><time>2026-04-30T11:10:41Z</time></trkpt><trkpt lat="31.299995046641452" lon="-4.399657641283431"><ele>806.4999999999999</ele><time>2026-04-30T11:10:42Z</time></trkpt><trkpt lat="31.299940464415105" lon="-4.399717434800159"><ele>805.0</ele><time>2026-04-30T11:10:43Z</time></trkpt><trkpt lat="31.2998932747072" lon="-4.399770530274226"><ele>805.0</ele><time>2026-04-30T11:10:44Z</time></trkpt><trkpt lat="31.299812513288273" lon="-4.399836049050714"><ele>805.0</ele><time>2026-04-30T11:10:46Z</time></trkpt><trkpt lat="31.29973992290132" lon="-4.3998508253869755"><ele>805.0</ele><time>2026-04-30T11:10:48Z</time></trkpt><trkpt lat="31.299661601588664" lon="-4.399876384930583"><ele>805.0</ele><time>2026-04-30T11:10:50Z</time></trkpt><trkpt lat="31.299561004447913" lon="-4.3999063844452575"><ele>805.0</ele><time>2026-04-30T11:10:52Z</time></trkpt><trkpt lat="31.299451918706513" lon="-4.399947500265265"><ele>802.6</ele><time>2026-04-30T11:10:54Z</time></trkpt><trkpt lat="31.29936530041778" lon="-4.400038814223206"><ele>800.2</ele><time>2026-04-30T11:10:56Z</time></trkpt><trkpt lat="31.299264404610668" lon="-4.4001335721220824"><ele>797.8</ele><time>2026-04-30T11:10:58Z</time></trkpt><trkpt lat="31.299209040786515" lon="-4.400187869226616"><ele>795.4</ele><time>2026-04-30T11:10:59Z</time></trkpt><trkpt lat="31.29915506440357" lon="-4.400241845583264"><ele>793.0</ele><time>2026-04-30T11:11:00Z</time></trkpt><trkpt lat="31.299100934718407" lon="-4.40029490162677"><ele>793.0</ele><time>2026-04-30T11:11:01Z</time></trkpt><trkpt lat="31.299040363359374" lon="-4.400352404300415"><ele>793.0</ele><time>2026-04-30T11:11:02Z</time></trkpt><trkpt lat="31.298985517552733" lon="-4.400404213178636"><ele>793.0</ele><time>2026-04-30T11:11:03Z</time></trkpt><trkpt lat="31.29890742649493" lon="-4.4005097980422"><ele>793.0</ele><time>2026-04-30T11:11:05.001Z</time></trkpt><trkpt lat="31.298821106079277" lon="-4.400603924315351"><ele>793.0</ele><time>2026-04-30T11:11:07.001Z</time></trkpt><trkpt lat="31.298754427119285" lon="-4.40067271935846"><ele>791.7142857142858</ele><time>2026-04-30T11:11:09.001Z</time></trkpt><trkpt lat="31.298710043708425" lon="-4.400729401381645"><ele>790.4285714285714</ele><time>2026-04-30T11:11:11.001Z</time></trkpt><trkpt lat="31.298774121146213" lon="-4.400685191276684"><ele>789.1428571428571</ele><time>2026-04-30T11:11:35.001Z</time></trkpt><trkpt lat="31.29871897722442" lon="-4.400729306189677"><ele>787.8571428571429</ele><time>2026-04-30T11:11:54Z</time></trkpt><trkpt lat="31.298685657244484" lon="-4.400800980518946"><ele>786.5714285714286</ele><time>2026-04-30T11:11:59Z</time></trkpt><trkpt lat="31.29863777828877" lon="-4.400852041723957"><ele>785.2857142857143</ele><time>2026-04-30T11:12:04Z</time></trkpt><trkpt lat="31.298607724756685" lon="-4.4009212123506725"><ele>784.0</ele><time>2026-04-30T11:12:10Z</time></trkpt><trkpt lat="31.29864086775353" lon="-4.400840242345004"><ele>784.0</ele><time>2026-04-30T11:12:46.001Z</time></trkpt><trkpt lat="31.298686585208184" lon="-4.400784656623418"><ele>784.0</ele><time>2026-04-30T11:12:59.001Z</time></trkpt><trkpt lat="31.29862275498041" lon="-4.400893052402579"><ele>784.0</ele><time>2026-04-30T11:13:44.001Z</time></trkpt><trkpt lat="31.29854800530768" lon="-4.401018948254079"><ele>784.0</ele><time>2026-04-30T11:13:46.001Z</time></trkpt><trkpt lat="31.298477713282374" lon="-4.401061010113443"><ele>784.0</ele><time>2026-04-30T11:13:47.001Z</time></trkpt><trkpt lat="31.29843936708024" lon="-4.401142307109165"><ele>783.9999999999999</ele><time>2026-04-30T11:13:48.001Z</time></trkpt><trkpt lat="31.298402902203904" lon="-4.401224923917722"><ele>784.0</ele><time>2026-04-30T11:13:49.001Z</time></trkpt><trkpt lat="31.298365489407203" lon="-4.401302693024118"><ele>784.0</ele><time>2026-04-30T11:13:50.001Z</time></trkpt><trkpt lat="31.298322565124344" lon="-4.40138399895887"><ele>784.0</ele><time>2026-04-30T11:13:50.999Z</time></trkpt><trkpt lat="31.29827620486152" lon="-4.401460005963733"><ele>783.9999999999999</ele><time>2026-04-30T11:13:51.999Z</time></trkpt><trkpt lat="31.298227470691764" lon="-4.401534887579826"><ele>784.0</ele><time>2026-04-30T11:13:52.999Z</time></trkpt><trkpt lat="31.298141813282367" lon="-4.401611880176674"><ele>783.4999999999999</ele><time>2026-04-30T11:13:54.999Z</time></trkpt><trkpt lat="31.298076350827248" lon="-4.40166132444675"><ele>783.0</ele><time>2026-04-30T11:13:55.999Z</time></trkpt><trkpt lat="31.297997139973145" lon="-4.4017196714303255"><ele>782.5</ele><time>2026-04-30T11:13:56.999Z</time></trkpt><trkpt lat="31.29791615130035" lon="-4.401775502262339"><ele>782.0</ele><time>2026-04-30T11:13:57.999Z</time></trkpt><trkpt lat="31.297817111572485" lon="-4.401778468744727"><ele>781.4999999999999</ele><time>2026-04-30T11:13:58.999Z</time></trkpt><trkpt lat="31.297744290143083" lon="-4.4017974872571575"><ele>781.0</ele><time>2026-04-30T11:13:59.999Z</time></trkpt><trkpt lat="31.29766367961487" lon="-4.401826188488718"><ele>781.0</ele><time>2026-04-30T11:14:00.999Z</time></trkpt><trkpt lat="31.297574401242393" lon="-4.401860723577781"><ele>781.0</ele><time>2026-04-30T11:14:01.999Z</time></trkpt><trkpt lat="31.297479412658216" lon="-4.401885288065821"><ele>781.0</ele><time>2026-04-30T11:14:02.999Z</time></trkpt><trkpt lat="31.29739113026584" lon="-4.401905188257871"><ele>781.0</ele><time>2026-04-30T11:14:03.999Z</time></trkpt><trkpt lat="31.297294339369504" lon="-4.40190604350855"><ele>781.0</ele><time>2026-04-30T11:14:04.999Z</time></trkpt><trkpt lat="31.297198584225328" lon="-4.401913085873956"><ele>780.5999999999999</ele><time>2026-04-30T11:14:05.999Z</time></trkpt><trkpt lat="31.297090927267533" lon="-4.401921954532579"><ele>780.2</ele><time>2026-04-30T11:14:06.999Z</time></trkpt><trkpt lat="31.296984047418768" lon="-4.401931628602379"><ele>779.8</ele><time>2026-04-30T11:14:07.999Z</time></trkpt><trkpt lat="31.29687668653281" lon="-4.401941346212628"><ele>779.4000000000001</ele><time>2026-04-30T11:14:08.999Z</time></trkpt><trkpt lat="31.296762106362134" lon="-4.40195171726597"><ele>779.0</ele><time>2026-04-30T11:14:09.999Z</time></trkpt><trkpt lat="31.296666172350694" lon="-4.401957191869308"><ele>779.0</ele><time>2026-04-30T11:14:10.999Z</time></trkpt><trkpt lat="31.296568584490522" lon="-4.401950512026173"><ele>779.0</ele><time>2026-04-30T11:14:11.999Z</time></trkpt><trkpt lat="31.296469607072343" lon="-4.401943737067797"><ele>779.0</ele><time>2026-04-30T11:14:12.999Z</time></trkpt><trkpt lat="31.296370121895524" lon="-4.401936901229046"><ele>779.0</ele><time>2026-04-30T11:14:13.999Z</time></trkpt><trkpt lat="31.29626287025352" lon="-4.401925834710098"><ele>779.0</ele><time>2026-04-30T11:14:15Z</time></trkpt><trkpt lat="31.296153685922746" lon="-4.40192960241062"><ele>778.25</ele><time>2026-04-30T11:14:16Z</time></trkpt><trkpt lat="31.29603889860903" lon="-4.4019136539041055"><ele>777.5</ele><time>2026-04-30T11:14:17Z</time></trkpt><trkpt lat="31.29591625120848" lon="-4.401907264809664"><ele>776.75</ele><time>2026-04-30T11:14:18Z</time></trkpt><trkpt lat="31.29580755714142" lon="-4.401915058032815"><ele>776.0</ele><time>2026-04-30T11:14:19Z</time></trkpt><trkpt lat="31.295671816892845" lon="-4.401922562809759"><ele>775.5</ele><time>2026-04-30T11:14:20Z</time></trkpt><trkpt lat="31.29554824835859" lon="-4.401933325285246"><ele>775.0</ele><time>2026-04-30T11:14:21Z</time></trkpt><trkpt lat="31.295418429295054" lon="-4.401949125791719"><ele>774.5</ele><time>2026-04-30T11:14:22Z</time></trkpt><trkpt lat="31.29529140801168" lon="-4.401939084098195"><ele>774.0</ele><time>2026-04-30T11:14:23Z</time></trkpt><trkpt lat="31.29516495075937" lon="-4.401946811054367"><ele>774.0</ele><time>2026-04-30T11:14:24Z</time></trkpt><trkpt lat="31.295037511210364" lon="-4.401954598033339"><ele>774.0</ele><time>2026-04-30T11:14:25Z</time></trkpt><trkpt lat="31.29490216985261" lon="-4.401962867838116"><ele>774.0</ele><time>2026-04-30T11:14:26Z</time></trkpt><trkpt lat="31.294761167258343" lon="-4.402055481869708"><ele>774.0</ele><time>2026-04-30T11:14:27Z</time></trkpt><trkpt lat="31.294622012916907" lon="-4.402092248002347"><ele>773.75</ele><time>2026-04-30T11:14:28Z</time></trkpt><trkpt lat="31.294478202964523" lon="-4.402124967176652"><ele>773.5</ele><time>2026-04-30T11:14:29Z</time></trkpt><trkpt lat="31.2943390615228" lon="-4.4021572167245475"><ele>773.25</ele><time>2026-04-30T11:14:30Z</time></trkpt><trkpt lat="31.294197792655485" lon="-4.402187666426495"><ele>773.0</ele><time>2026-04-30T11:14:31Z</time></trkpt><trkpt lat="31.294053096320734" lon="-4.402222492164048"><ele>772.5</ele><time>2026-04-30T11:14:32Z</time></trkpt><trkpt lat="31.293899663270633" lon="-4.402255340516461"><ele>772.0</ele><time>2026-04-30T11:14:33Z</time></trkpt><trkpt lat="31.29375557386423" lon="-4.402295301026698"><ele>771.5</ele><time>2026-04-30T11:14:34Z</time></trkpt><trkpt lat="31.293616593176697" lon="-4.402332954279844"><ele>771.0</ele><time>2026-04-30T11:14:35Z</time></trkpt><trkpt lat="31.29348906429757" lon="-4.402369537370819"><ele>771.0</ele><time>2026-04-30T11:14:36Z</time></trkpt><trkpt lat="31.293367192263545" lon="-4.402401962239687"><ele>771.0</ele><time>2026-04-30T11:14:37Z</time></trkpt><trkpt lat="31.293275358190556" lon="-4.402430493198756"><ele>771.0</ele><time>2026-04-30T11:14:38Z</time></trkpt><trkpt lat="31.293195420837115" lon="-4.402454636441392"><ele>771.0</ele><time>2026-04-30T11:14:39Z</time></trkpt><trkpt lat="31.293129746462775" lon="-4.402466850703072"><ele>771.0</ele><time>2026-04-30T11:14:40Z</time></trkpt><trkpt lat="31.293051701998145" lon="-4.4024712384699995"><ele>771.0</ele><time>2026-04-30T11:14:42Z</time></trkpt><trkpt lat="31.292989513688543" lon="-4.402419193853828"><ele>770.8</ele><time>2026-04-30T11:14:44Z</time></trkpt><trkpt lat="31.292954947779272" lon="-4.402314851042888"><ele>770.5999999999999</ele><time>2026-04-30T11:14:46Z</time></trkpt><trkpt lat="31.292923846511982" lon="-4.402182462966449"><ele>770.4</ele><time>2026-04-30T11:14:48Z</time></trkpt><trkpt lat="31.292935219845177" lon="-4.40206476961329"><ele>770.2</ele><time>2026-04-30T11:14:50Z</time></trkpt><trkpt lat="31.292948297939837" lon="-4.401961876604641"><ele>770.0</ele><time>2026-04-30T11:14:52Z</time></trkpt><trkpt lat="31.292887108688216" lon="-4.401892458841452"><ele>770.0</ele><time>2026-04-30T11:14:54Z</time></trkpt><trkpt lat="31.292774649480506" lon="-4.4018373512207365"><ele>770.0</ele><time>2026-04-30T11:14:56Z</time></trkpt><trkpt lat="31.292697828616955" lon="-4.401793344691044"><ele>770.0</ele><time>2026-04-30T11:14:57Z</time></trkpt><trkpt lat="31.292607584061333" lon="-4.401737716456567"><ele>770.0</ele><time>2026-04-30T11:14:58Z</time></trkpt><trkpt lat="31.292508189697656" lon="-4.401659462669778"><ele>770.0</ele><time>2026-04-30T11:14:59Z</time></trkpt><trkpt lat="31.292401917967705" lon="-4.401580917959101"><ele>770.0</ele><time>2026-04-30T11:15:00Z</time></trkpt><trkpt lat="31.292305775031764" lon="-4.4015096397562745"><ele>770.0</ele><time>2026-04-30T11:15:01Z</time></trkpt><trkpt lat="31.2922175787756" lon="-4.401450691583422"><ele>770.0</ele><time>2026-04-30T11:15:02Z</time></trkpt><trkpt lat="31.292120086258112" lon="-4.40139474239519"><ele>770.0</ele><time>2026-04-30T11:15:03Z</time></trkpt><trkpt lat="31.292025227274664" lon="-4.401342465900759"><ele>770.0</ele><time>2026-04-30T11:15:04Z</time></trkpt><trkpt lat="31.291932431703163" lon="-4.401294668990732"><ele>769.2</ele><time>2026-04-30T11:15:05Z</time></trkpt><trkpt lat="31.29183496705339" lon="-4.401241768477664"><ele>768.4</ele><time>2026-04-30T11:15:06Z</time></trkpt><trkpt lat="31.291747528155984" lon="-4.401182866358113"><ele>767.5999999999999</ele><time>2026-04-30T11:15:07Z</time></trkpt><trkpt lat="31.29166396047011" lon="-4.401114640048331"><ele>766.8</ele><time>2026-04-30T11:15:08.001Z</time></trkpt><trkpt lat="31.291600637661027" lon="-4.401041246822708"><ele>766.0</ele><time>2026-04-30T11:15:09.001Z</time></trkpt><trkpt lat="31.291534721017324" lon="-4.400957275664549"><ele>766.0</ele><time>2026-04-30T11:15:10.001Z</time></trkpt><trkpt lat="31.291461443925417" lon="-4.400864771685907"><ele>766.0</ele><time>2026-04-30T11:15:11.001Z</time></trkpt><trkpt lat="31.291372479303806" lon="-4.40079380005039"><ele>766.0</ele><time>2026-04-30T11:15:12.001Z</time></trkpt><trkpt lat="31.291274823532067" lon="-4.400738447641288"><ele>766.0</ele><time>2026-04-30T11:15:13.001Z</time></trkpt><trkpt lat="31.291167040475965" lon="-4.400689726099401"><ele>766.0</ele><time>2026-04-30T11:15:14.001Z</time></trkpt><trkpt lat="31.291056392123508" lon="-4.40065025242106"><ele>766.1999999999999</ele><time>2026-04-30T11:15:15.001Z</time></trkpt><trkpt lat="31.29094407740547" lon="-4.400619251139489"><ele>766.4</ele><time>2026-04-30T11:15:16.001Z</time></trkpt><trkpt lat="31.290846993956052" lon="-4.400592782199611"><ele>766.6</ele><time>2026-04-30T11:15:17.001Z</time></trkpt><trkpt lat="31.290752165678473" lon="-4.4005525574576305"><ele>766.8</ele><time>2026-04-30T11:15:18.001Z</time></trkpt><trkpt lat="31.2906379664092" lon="-4.400490526706097"><ele>767.0</ele><time>2026-04-30T11:15:19.001Z</time></trkpt><trkpt lat="31.29053380186937" lon="-4.400428216597745"><ele>767.0</ele><time>2026-04-30T11:15:20.001Z</time></trkpt><trkpt lat="31.290421724194545" lon="-4.400350640899138"><ele>767.0</ele><time>2026-04-30T11:15:21.001Z</time></trkpt><trkpt lat="31.290302830338586" lon="-4.400263423034081"><ele>767.0</ele><time>2026-04-30T11:15:22.001Z</time></trkpt><trkpt lat="31.290189666579803" lon="-4.400191338636469"><ele>767.0</ele><time>2026-04-30T11:15:23.001Z</time></trkpt><trkpt lat="31.290076964620184" lon="-4.40012681427064"><ele>767.0</ele><time>2026-04-30T11:15:24.001Z</time></trkpt><trkpt lat="31.289956436238224" lon="-4.400051748594804"><ele>767.0</ele><time>2026-04-30T11:15:25.001Z</time></trkpt><trkpt lat="31.289829182807658" lon="-4.399978757447342"><ele>767.0</ele><time>2026-04-30T11:15:26.001Z</time></trkpt><trkpt lat="31.289713258740527" lon="-4.399904000375995"><ele>767.0</ele><time>2026-04-30T11:15:27.001Z</time></trkpt><trkpt lat="31.289584494893447" lon="-4.399820257230884"><ele>767.0</ele><time>2026-04-30T11:15:28.001Z</time></trkpt><trkpt lat="31.289434382280035" lon="-4.399726000463477"><ele>767.0</ele><time>2026-04-30T11:15:29.001Z</time></trkpt><trkpt lat="31.28928718381062" lon="-4.399638800057463"><ele>767.0</ele><time>2026-04-30T11:15:30.001Z</time></trkpt><trkpt lat="31.289160762589102" lon="-4.399562578223046"><ele>767.0</ele><time>2026-04-30T11:15:31.001Z</time></trkpt><trkpt lat="31.289035965092815" lon="-4.3994848313023995"><ele>767.0</ele><time>2026-04-30T11:15:32.001Z</time></trkpt><trkpt lat="31.288910338411842" lon="-4.3993996855459185"><ele>767.0</ele><time>2026-04-30T11:15:33.001Z</time></trkpt><trkpt lat="31.288773421528717" lon="-4.399308682991508"><ele>767.0</ele><time>2026-04-30T11:15:34.001Z</time></trkpt><trkpt lat="31.288621989899514" lon="-4.39920985458608"><ele>766.6666666666666</ele><time>2026-04-30T11:15:35.001Z</time></trkpt><trkpt lat="31.288464721588735" lon="-4.3991167077983855"><ele>766.3333333333334</ele><time>2026-04-30T11:15:36.001Z</time></trkpt><trkpt lat="31.288311012214248" lon="-4.399027061083046"><ele>766.0</ele><time>2026-04-30T11:15:37.001Z</time></trkpt><trkpt lat="31.28816908842066" lon="-4.398944899389805"><ele>766.0</ele><time>2026-04-30T11:15:38.001Z</time></trkpt><trkpt lat="31.288028786007498" lon="-4.3988644772654775"><ele>766.0</ele><time>2026-04-30T11:15:39.001Z</time></trkpt><trkpt lat="31.287878365503964" lon="-4.398777872625438"><ele>766.0</ele><time>2026-04-30T11:15:40.001Z</time></trkpt><trkpt lat="31.287734059490987" lon="-4.398697440187068"><ele>765.6666666666667</ele><time>2026-04-30T11:15:41.001Z</time></trkpt><trkpt lat="31.287589899202384" lon="-4.398623760804545"><ele>765.3333333333334</ele><time>2026-04-30T11:15:42.001Z</time></trkpt><trkpt lat="31.287447587020253" lon="-4.398550148438427"><ele>765.0</ele><time>2026-04-30T11:15:43.001Z</time></trkpt><trkpt lat="31.287303802605688" lon="-4.398476606463219"><ele>765.0</ele><time>2026-04-30T11:15:44.001Z</time></trkpt><trkpt lat="31.28716451967998" lon="-4.39840313519122"><ele>765.0</ele><time>2026-04-30T11:15:45.001Z</time></trkpt><trkpt lat="31.287036751505415" lon="-4.398330546131692"><ele>765.0</ele><time>2026-04-30T11:15:46.001Z</time></trkpt><trkpt lat="31.286923819828118" lon="-4.39826465818858"><ele>765.0</ele><time>2026-04-30T11:15:47.001Z</time></trkpt><trkpt lat="31.2868199198303" lon="-4.39820205633458"><ele>765.0</ele><time>2026-04-30T11:15:48.001Z</time></trkpt><trkpt lat="31.286710875351133" lon="-4.3981234396445625"><ele>765.0</ele><time>2026-04-30T11:15:49.001Z</time></trkpt><trkpt lat="31.286580892226592" lon="-4.39802816257308"><ele>765.0</ele><time>2026-04-30T11:15:50.001Z</time></trkpt><trkpt lat="31.286452452788954" lon="-4.397935363312005"><ele>765.0</ele><time>2026-04-30T11:15:51.001Z</time></trkpt><trkpt lat="31.286327029860338" lon="-4.3978380776742245"><ele>764.75</ele><time>2026-04-30T11:15:52.001Z</time></trkpt><trkpt lat="31.286204018634397" lon="-4.397747591492368"><ele>764.5</ele><time>2026-04-30T11:15:53.001Z</time></trkpt><trkpt lat="31.28608939732287" lon="-4.39765604077491"><ele>764.25</ele><time>2026-04-30T11:15:54.001Z</time></trkpt><trkpt lat="31.28596826763554" lon="-4.397559951468585"><ele>764.0</ele><time>2026-04-30T11:15:55.001Z</time></trkpt><trkpt lat="31.285854267782298" lon="-4.397472438948564"><ele>764.0</ele><time>2026-04-30T11:15:56.001Z</time></trkpt><trkpt lat="31.285741091163352" lon="-4.397387802513734"><ele>764.0</ele><time>2026-04-30T11:15:57.001Z</time></trkpt><trkpt lat="31.285625741825555" lon="-4.397292440353029"><ele>764.0</ele><time>2026-04-30T11:15:58.001Z</time></trkpt><trkpt lat="31.28551032033361" lon="-4.397212644966333"><ele>764.0</ele><time>2026-04-30T11:15:59.001Z</time></trkpt><trkpt lat="31.285393863319026" lon="-4.39713402220873"><ele>764.0</ele><time>2026-04-30T11:16:00.001Z</time></trkpt><trkpt lat="31.285264956200937" lon="-4.397052065712459"><ele>764.0</ele><time>2026-04-30T11:16:01.001Z</time></trkpt><trkpt lat="31.285139685774684" lon="-4.396986598291615"><ele>764.0</ele><time>2026-04-30T11:16:02.001Z</time></trkpt><trkpt lat="31.28502046797049" lon="-4.3969306034233995"><ele>764.0</ele><time>2026-04-30T11:16:03.001Z</time></trkpt><trkpt lat="31.28490240614376" lon="-4.396881240874222"><ele>764.0</ele><time>2026-04-30T11:16:04.001Z</time></trkpt><trkpt lat="31.284781334684318" lon="-4.396822899985817"><ele>764.0</ele><time>2026-04-30T11:16:05.001Z</time></trkpt><trkpt lat="31.284673857807032" lon="-4.39675770260117"><ele>764.0</ele><time>2026-04-30T11:16:06.001Z</time></trkpt><trkpt lat="31.284562921734025" lon="-4.396682217797074"><ele>764.0</ele><time>2026-04-30T11:16:07.001Z</time></trkpt><trkpt lat="31.28444148272405" lon="-4.396605013558046"><ele>763.6666666666666</ele><time>2026-04-30T11:16:08.001Z</time></trkpt><trkpt lat="31.284320363297024" lon="-4.396514049511352"><ele>763.3333333333334</ele><time>2026-04-30T11:16:09.001Z</time></trkpt><trkpt lat="31.284195345236302" lon="-4.396412412573019"><ele>763.0</ele><time>2026-04-30T11:16:10.001Z</time></trkpt><trkpt lat="31.284063192208514" lon="-4.3963115886936786"><ele>762.6666666666667</ele><time>2026-04-30T11:16:11.001Z</time></trkpt><trkpt lat="31.283919938330826" lon="-4.396203865634193"><ele>762.3333333333334</ele><time>2026-04-30T11:16:12.001Z</time></trkpt><trkpt lat="31.2837782401934" lon="-4.396111582684144"><ele>762.0</ele><time>2026-04-30T11:16:13.001Z</time></trkpt><trkpt lat="31.283653518881543" lon="-4.396027021009207"><ele>762.0</ele><time>2026-04-30T11:16:14.001Z</time></trkpt><trkpt lat="31.283525411379916" lon="-4.395949802702672"><ele>762.0</ele><time>2026-04-30T11:16:15.001Z</time></trkpt><trkpt lat="31.283398746244426" lon="-4.395893434324532"><ele>762.0</ele><time>2026-04-30T11:16:16.001Z</time></trkpt><trkpt lat="31.283267774007555" lon="-4.395834554180074"><ele>762.0</ele><time>2026-04-30T11:16:17.001Z</time></trkpt><trkpt lat="31.283137707459016" lon="-4.395774857288487"><ele>762.0</ele><time>2026-04-30T11:16:18.001Z</time></trkpt><trkpt lat="31.283021120303722" lon="-4.39572781469569"><ele>762.0</ele><time>2026-04-30T11:16:19.001Z</time></trkpt><trkpt lat="31.282907930685063" lon="-4.395681234969696"><ele>762.0</ele><time>2026-04-30T11:16:20.001Z</time></trkpt><trkpt lat="31.282787737528547" lon="-4.395621672360693"><ele>762.0</ele><time>2026-04-30T11:16:21.001Z</time></trkpt><trkpt lat="31.282670919528094" lon="-4.39555112737454"><ele>762.0</ele><time>2026-04-30T11:16:22.001Z</time></trkpt><trkpt lat="31.282572876311455" lon="-4.395466467570295"><ele>762.0</ele><time>2026-04-30T11:16:23.001Z</time></trkpt><trkpt lat="31.282491603619473" lon="-4.3953857693905505"><ele>762.0</ele><time>2026-04-30T11:16:24.001Z</time></trkpt><trkpt lat="31.282409537464034" lon="-4.395314975005914"><ele>762.0</ele><time>2026-04-30T11:16:25.001Z</time></trkpt><trkpt lat="31.28231555597671" lon="-4.395255472144015"><ele>762.0</ele><time>2026-04-30T11:16:26.001Z</time></trkpt><trkpt lat="31.282215324818452" lon="-4.395189715971531"><ele>761.6</ele><time>2026-04-30T11:16:27.001Z</time></trkpt><trkpt lat="31.282117265099597" lon="-4.3951387074855495"><ele>761.2</ele><time>2026-04-30T11:16:28.001Z</time></trkpt><trkpt lat="31.2820229387656" lon="-4.395106441842052"><ele>760.8</ele><time>2026-04-30T11:16:29.001Z</time></trkpt><trkpt lat="31.28192410352924" lon="-4.395092231076066"><ele>760.4</ele><time>2026-04-30T11:16:30.001Z</time></trkpt><trkpt lat="31.281812281423" lon="-4.395083982350228"><ele>760.0</ele><time>2026-04-30T11:16:31.001Z</time></trkpt><trkpt lat="31.2817039704204" lon="-4.395077738567217"><ele>760.0</ele><time>2026-04-30T11:16:32.001Z</time></trkpt><trkpt lat="31.281616596316507" lon="-4.395060440796413"><ele>760.0</ele><time>2026-04-30T11:16:33.001Z</time></trkpt><trkpt lat="31.281532501176976" lon="-4.395028236967472"><ele>760.0</ele><time>2026-04-30T11:16:34.001Z</time></trkpt><trkpt lat="31.281451999760638" lon="-4.39498065559794"><ele>760.0</ele><time>2026-04-30T11:16:35.001Z</time></trkpt><trkpt lat="31.28136860224439" lon="-4.394914801262995"><ele>760.0</ele><time>2026-04-30T11:16:36.001Z</time></trkpt><trkpt lat="31.281275620172806" lon="-4.394841387712345"><ele>760.0</ele><time>2026-04-30T11:16:37.001Z</time></trkpt><trkpt lat="31.28118465901016" lon="-4.394778685494987"><ele>760.0</ele><time>2026-04-30T11:16:38.001Z</time></trkpt><trkpt lat="31.28110041753682" lon="-4.394724298619621"><ele>760.0</ele><time>2026-04-30T11:16:39.001Z</time></trkpt><trkpt lat="31.281014020696585" lon="-4.394673259332948"><ele>760.0</ele><time>2026-04-30T11:16:40.001Z</time></trkpt><trkpt lat="31.28092929954418" lon="-4.394626327309706"><ele>760.0</ele><time>2026-04-30T11:16:41.001Z</time></trkpt><trkpt lat="31.28084926356445" lon="-4.394563270254183"><ele>760.25</ele><time>2026-04-30T11:16:42.001Z</time></trkpt><trkpt lat="31.2807719756967" lon="-4.39447308176038"><ele>760.5</ele><time>2026-04-30T11:16:43.001Z</time></trkpt><trkpt lat="31.280684946382316" lon="-4.394376292786595"><ele>760.75</ele><time>2026-04-30T11:16:44.001Z</time></trkpt><trkpt lat="31.28059270650376" lon="-4.394312306702723"><ele>761.0</ele><time>2026-04-30T11:16:45.001Z</time></trkpt><trkpt lat="31.280481338525302" lon="-4.394248035488138"><ele>761.0</ele><time>2026-04-30T11:16:46.001Z</time></trkpt><trkpt lat="31.28036241707531" lon="-4.39419336031114"><ele>761.0</ele><time>2026-04-30T11:16:47.001Z</time></trkpt><trkpt lat="31.280232905617684" lon="-4.394139334067811"><ele>761.0</ele><time>2026-04-30T11:16:48.001Z</time></trkpt><trkpt lat="31.28009570125782" lon="-4.3940890531642305"><ele>761.0</ele><time>2026-04-30T11:16:49.001Z</time></trkpt><trkpt lat="31.27996165950434" lon="-4.394051144618437"><ele>761.0</ele><time>2026-04-30T11:16:50.001Z</time></trkpt><trkpt lat="31.279828255505766" lon="-4.394031041634065"><ele>761.0</ele><time>2026-04-30T11:16:51.001Z</time></trkpt><trkpt lat="31.27970174774227" lon="-4.394019923626572"><ele>761.0</ele><time>2026-04-30T11:16:52.001Z</time></trkpt><trkpt lat="31.279573259829746" lon="-4.39401310323177"><ele>761.0</ele><time>2026-04-30T11:16:53.001Z</time></trkpt><trkpt lat="31.279454530100534" lon="-4.394017217008159"><ele>760.5</ele><time>2026-04-30T11:16:54.001Z</time></trkpt><trkpt lat="31.2793345846835" lon="-4.394025633829097"><ele>760.0</ele><time>2026-04-30T11:16:55.001Z</time></trkpt><trkpt lat="31.27922247287094" lon="-4.39403294427359"><ele>759.5</ele><time>2026-04-30T11:16:56.001Z</time></trkpt><trkpt lat="31.279105917732952" lon="-4.3940354545580655"><ele>759.0</ele><time>2026-04-30T11:16:57.001Z</time></trkpt><trkpt lat="31.27898838727174" lon="-4.3940164700033675"><ele>759.0</ele><time>2026-04-30T11:16:58.001Z</time></trkpt><trkpt lat="31.27886348323775" lon="-4.39397634501506"><ele>759.0</ele><time>2026-04-30T11:16:59.001Z</time></trkpt><trkpt lat="31.278738467073314" lon="-4.393932322686964"><ele>759.0</ele><time>2026-04-30T11:17:00.001Z</time></trkpt><trkpt lat="31.278615806450933" lon="-4.393886364321171"><ele>759.0</ele><time>2026-04-30T11:17:01.001Z</time></trkpt><trkpt lat="31.278503844248945" lon="-4.3938421468334745"><ele>759.0</ele><time>2026-04-30T11:17:02.001Z</time></trkpt><trkpt lat="31.278386976233275" lon="-4.393791065330463"><ele>759.0</ele><time>2026-04-30T11:17:03.001Z</time></trkpt><trkpt lat="31.2782742043291" lon="-4.393738330629712"><ele>759.0</ele><time>2026-04-30T11:17:04.001Z</time></trkpt><trkpt lat="31.27816913892486" lon="-4.393689246299241"><ele>759.0</ele><time>2026-04-30T11:17:05.001Z</time></trkpt><trkpt lat="31.2780696766038" lon="-4.393647792473235"><ele>759.0</ele><time>2026-04-30T11:17:06.001Z</time></trkpt><trkpt lat="31.277975128029357" lon="-4.3936155621000585"><ele>759.0</ele><time>2026-04-30T11:17:07.001Z</time></trkpt><trkpt lat="31.277885552083053" lon="-4.393591384265206"><ele>759.0</ele><time>2026-04-30T11:17:08.001Z</time></trkpt><trkpt lat="31.27781180187294" lon="-4.393572463585798"><ele>759.0</ele><time>2026-04-30T11:17:09.001Z</time></trkpt><trkpt lat="31.277742733346773" lon="-4.393546140028176"><ele>759.0</ele><time>2026-04-30T11:17:10.001Z</time></trkpt><trkpt lat="31.27766711188965" lon="-4.393515838221626"><ele>759.0</ele><time>2026-04-30T11:17:11.001Z</time></trkpt><trkpt lat="31.2775913157656" lon="-4.39349040599058"><ele>759.0</ele><time>2026-04-30T11:17:12.001Z</time></trkpt><trkpt lat="31.27752373244016" lon="-4.393479623826231"><ele>759.0</ele><time>2026-04-30T11:17:13.001Z</time></trkpt><trkpt lat="31.27743611018268" lon="-4.393455100013311"><ele>759.0</ele><time>2026-04-30T11:17:14.001Z</time></trkpt><trkpt lat="31.277359182410088" lon="-4.393406834122107"><ele>759.0</ele><time>2026-04-30T11:17:15.001Z</time></trkpt><trkpt lat="31.27728591325235" lon="-4.393339477489476"><ele>759.0</ele><time>2026-04-30T11:17:16.001Z</time></trkpt><trkpt lat="31.277212832554937" lon="-4.393266084599296"><ele>759.0</ele><time>2026-04-30T11:17:17.001Z</time></trkpt><trkpt lat="31.27714735031339" lon="-4.393205297370501"><ele>759.0</ele><time>2026-04-30T11:17:18.001Z</time></trkpt><trkpt lat="31.2770796926237" lon="-4.393162991960882"><ele>759.0</ele><time>2026-04-30T11:17:19.001Z</time></trkpt><trkpt lat="31.276995521932154" lon="-4.3931316548797135"><ele>759.0</ele><time>2026-04-30T11:17:20.001Z</time></trkpt><trkpt lat="31.276902198050166" lon="-4.393116575215094"><ele>759.0</ele><time>2026-04-30T11:17:21.001Z</time></trkpt><trkpt lat="31.27679221154614" lon="-4.393096407402534"><ele>759.0</ele><time>2026-04-30T11:17:22.001Z</time></trkpt><trkpt lat="31.276678082424304" lon="-4.393061893818446"><ele>759.0</ele><time>2026-04-30T11:17:23.001Z</time></trkpt><trkpt lat="31.276557817888587" lon="-4.39301642795466"><ele>759.0</ele><time>2026-04-30T11:17:24.001Z</time></trkpt><trkpt lat="31.27642582792468" lon="-4.392959572652586"><ele>759.0</ele><time>2026-04-30T11:17:25.001Z</time></trkpt><trkpt lat="31.27629348615014" lon="-4.392907355155075"><ele>759.0</ele><time>2026-04-30T11:17:26.001Z</time></trkpt><trkpt lat="31.276163622554918" lon="-4.392857215053787"><ele>759.0</ele><time>2026-04-30T11:17:27.001Z</time></trkpt><trkpt lat="31.276042197158475" lon="-4.3928148233636435"><ele>759.0</ele><time>2026-04-30T11:17:28.002Z</time></trkpt><trkpt lat="31.275923869450757" lon="-4.3927687096752335"><ele>759.0</ele><time>2026-04-30T11:17:29.002Z</time></trkpt><trkpt lat="31.275800190412248" lon="-4.392709232103559"><ele>759.0</ele><time>2026-04-30T11:17:30.002Z</time></trkpt><trkpt lat="31.27568069245635" lon="-4.3926485174549965"><ele>759.0</ele><time>2026-04-30T11:17:31.002Z</time></trkpt><trkpt lat="31.27556795254355" lon="-4.392597352204327"><ele>759.0</ele><time>2026-04-30T11:17:32.002Z</time></trkpt><trkpt lat="31.275467647697905" lon="-4.392551195281036"><ele>759.0</ele><time>2026-04-30T11:17:33.002Z</time></trkpt><trkpt lat="31.27536940992484" lon="-4.39251291626072"><ele>759.0</ele><time>2026-04-30T11:17:34.002Z</time></trkpt><trkpt lat="31.275263877265875" lon="-4.392464475407137"><ele>759.0</ele><time>2026-04-30T11:17:35.002Z</time></trkpt><trkpt lat="31.275162466573683" lon="-4.392414596199732"><ele>759.0</ele><time>2026-04-30T11:17:36.002Z</time></trkpt><trkpt lat="31.27506247446112" lon="-4.392375386579634"><ele>759.0</ele><time>2026-04-30T11:17:37.002Z</time></trkpt><trkpt lat="31.27495964737394" lon="-4.392356444855871"><ele>759.0</ele><time>2026-04-30T11:17:38.002Z</time></trkpt><trkpt lat="31.274860542763694" lon="-4.392339662824864"><ele>759.0</ele><time>2026-04-30T11:17:39.002Z</time></trkpt><trkpt lat="31.274752838392942" lon="-4.392322769329583"><ele>759.0</ele><time>2026-04-30T11:17:40.002Z</time></trkpt><trkpt lat="31.274639765848605" lon="-4.392299297733585"><ele>759.0</ele><time>2026-04-30T11:17:41.002Z</time></trkpt><trkpt lat="31.274533573006366" lon="-4.3922637536194635"><ele>759.0</ele><time>2026-04-30T11:17:42.002Z</time></trkpt><trkpt lat="31.274430809391013" lon="-4.3922201496931965"><ele>759.0</ele><time>2026-04-30T11:17:43.002Z</time></trkpt><trkpt lat="31.27432488883147" lon="-4.392158562922669"><ele>759.0</ele><time>2026-04-30T11:17:44.002Z</time></trkpt><trkpt lat="31.2742185801429" lon="-4.392100614841378"><ele>759.0</ele><time>2026-04-30T11:17:45.002Z</time></trkpt><trkpt lat="31.274110521542053" lon="-4.392052457690306"><ele>759.0</ele><time>2026-04-30T11:17:46.002Z</time></trkpt><trkpt lat="31.274000851921777" lon="-4.392006345583626"><ele>759.0</ele><time>2026-04-30T11:17:47.002Z</time></trkpt><trkpt lat="31.27389324358719" lon="-4.391958900399493"><ele>759.0</ele><time>2026-04-30T11:17:48.002Z</time></trkpt><trkpt lat="31.273786130407505" lon="-4.391914666548273"><ele>759.0</ele><time>2026-04-30T11:17:49.002Z</time></trkpt><trkpt lat="31.273679637276743" lon="-4.39186621594907"><ele>759.0</ele><time>2026-04-30T11:17:50.002Z</time></trkpt><trkpt lat="31.273578867116214" lon="-4.391811060096745"><ele>759.0</ele><time>2026-04-30T11:17:51.002Z</time></trkpt><trkpt lat="31.273475356538622" lon="-4.391747570404916"><ele>759.0</ele><time>2026-04-30T11:17:52.002Z</time></trkpt><trkpt lat="31.27338257958062" lon="-4.391685993596365"><ele>759.0</ele><time>2026-04-30T11:17:53.002Z</time></trkpt><trkpt lat="31.273288802359872" lon="-4.391609924943032"><ele>759.0</ele><time>2026-04-30T11:17:54.002Z</time></trkpt><trkpt lat="31.273203005389252" lon="-4.3915316254728936"><ele>759.0</ele><time>2026-04-30T11:17:55.002Z</time></trkpt><trkpt lat="31.273122127441013" lon="-4.391453091489451"><ele>759.0</ele><time>2026-04-30T11:17:56.002Z</time></trkpt><trkpt lat="31.27303891278167" lon="-4.3913869308956865"><ele>759.0</ele><time>2026-04-30T11:17:57.002Z</time></trkpt><trkpt lat="31.27295494713435" lon="-4.3913204335549105"><ele>759.0</ele><time>2026-04-30T11:17:58.002Z</time></trkpt><trkpt lat="31.272861869704393" lon="-4.391270087678011"><ele>759.5</ele><time>2026-04-30T11:17:59.002Z</time></trkpt><trkpt lat="31.272756112826986" lon="-4.391228160604644"><ele>760.0</ele><time>2026-04-30T11:18:00.002Z</time></trkpt><trkpt lat="31.27264000014371" lon="-4.391193726961386"><ele>760.5</ele><time>2026-04-30T11:18:01.002Z</time></trkpt><trkpt lat="31.27252406484611" lon="-4.391159186633285"><ele>761.0</ele><time>2026-04-30T11:18:02.002Z</time></trkpt><trkpt lat="31.272401194329422" lon="-4.391124320860676"><ele>761.0</ele><time>2026-04-30T11:18:03.002Z</time></trkpt><trkpt lat="31.272287531792582" lon="-4.39109584352383"><ele>761.0</ele><time>2026-04-30T11:18:04.002Z</time></trkpt><trkpt lat="31.272173469981023" lon="-4.3910672073366905"><ele>761.0</ele><time>2026-04-30T11:18:05.002Z</time></trkpt><trkpt lat="31.27205589640823" lon="-4.391036413476771"><ele>761.0</ele><time>2026-04-30T11:18:06.002Z</time></trkpt><trkpt lat="31.27193795792878" lon="-4.39100422378816"><ele>761.5</ele><time>2026-04-30T11:18:07.002Z</time></trkpt><trkpt lat="31.271805205553836" lon="-4.3909612747423035"><ele>762.0</ele><time>2026-04-30T11:18:08.002Z</time></trkpt><trkpt lat="31.271668085275486" lon="-4.390912099684828"><ele>762.5</ele><time>2026-04-30T11:18:09.002Z</time></trkpt><trkpt lat="31.271543454680845" lon="-4.390866168656611"><ele>763.0</ele><time>2026-04-30T11:18:10.002Z</time></trkpt><trkpt lat="31.27141400271347" lon="-4.390815594094007"><ele>763.3333333333334</ele><time>2026-04-30T11:18:11.002Z</time></trkpt><trkpt lat="31.27127560806072" lon="-4.390765995046745"><ele>763.6666666666666</ele><time>2026-04-30T11:18:12.002Z</time></trkpt><trkpt lat="31.271112340896885" lon="-4.390705683318941"><ele>764.0</ele><time>2026-04-30T11:18:13.002Z</time></trkpt><trkpt lat="31.270970710154817" lon="-4.390656223035862"><ele>764.0</ele><time>2026-04-30T11:18:14.002Z</time></trkpt><trkpt lat="31.27084901732135" lon="-4.390614288060828"><ele>764.0</ele><time>2026-04-30T11:18:15.002Z</time></trkpt><trkpt lat="31.270739608820858" lon="-4.390572954635516"><ele>764.0</ele><time>2026-04-30T11:18:16.002Z</time></trkpt><trkpt lat="31.27063420873741" lon="-4.390531606653362"><ele>764.0</ele><time>2026-04-30T11:18:17.001Z</time></trkpt><trkpt lat="31.27053652609311" lon="-4.390482217833094"><ele>764.2</ele><time>2026-04-30T11:18:18.001Z</time></trkpt><trkpt lat="31.270442026944973" lon="-4.390427997386721"><ele>764.4000000000001</ele><time>2026-04-30T11:18:19.001Z</time></trkpt><trkpt lat="31.270331852718197" lon="-4.39036027537969"><ele>764.6</ele><time>2026-04-30T11:18:20.001Z</time></trkpt><trkpt lat="31.27023112554509" lon="-4.390284266942668"><ele>764.8</ele><time>2026-04-30T11:18:21.001Z</time></trkpt><trkpt lat="31.270151249450613" lon="-4.390221925918501"><ele>765.0</ele><time>2026-04-30T11:18:22.001Z</time></trkpt><trkpt lat="31.270088210870163" lon="-4.390163709791981"><ele>765.0</ele><time>2026-04-30T11:18:23.001Z</time></trkpt><trkpt lat="31.270036528951405" lon="-4.390117585204443"><ele>765.0</ele><time>2026-04-30T11:18:24.001Z</time></trkpt><trkpt lat="31.269986042997985" lon="-4.390071188056082"><ele>765.0</ele><time>2026-04-30T11:18:25.001Z</time></trkpt><trkpt lat="31.26989536101347" lon="-4.389989021333113"><ele>765.0</ele><time>2026-04-30T11:18:27.001Z</time></trkpt><trkpt lat="31.269857182705497" lon="-4.38992315493923"><ele>765.0</ele><time>2026-04-30T11:18:28.001Z</time></trkpt><trkpt lat="31.269838151989468" lon="-4.389845793962669"><ele>765.0</ele><time>2026-04-30T11:18:29.001Z</time></trkpt><trkpt lat="31.269824884909514" lon="-4.389750551185689"><ele>765.0</ele><time>2026-04-30T11:18:30.001Z</time></trkpt><trkpt lat="31.26981449578132" lon="-4.389656122189913"><ele>765.0</ele><time>2026-04-30T11:18:31.001Z</time></trkpt><trkpt lat="31.26979697758284" lon="-4.3895534492028485"><ele>765.0</ele><time>2026-04-30T11:18:32.001Z</time></trkpt><trkpt lat="31.269780292481336" lon="-4.389444974606592"><ele>765.0</ele><time>2026-04-30T11:18:33.001Z</time></trkpt><trkpt lat="31.26976194788083" lon="-4.389335899204203"><ele>765.0</ele><time>2026-04-30T11:18:34.001Z</time></trkpt><trkpt lat="31.269745132763877" lon="-4.389227670903038"><ele>765.6</ele><time>2026-04-30T11:18:35.001Z</time></trkpt><trkpt lat="31.269720025113546" lon="-4.389119953994719"><ele>766.2</ele><time>2026-04-30T11:18:36.001Z</time></trkpt><trkpt lat="31.269692470529414" lon="-4.389007911172891"><ele>766.8</ele><time>2026-04-30T11:18:37.001Z</time></trkpt><trkpt lat="31.26966075723033" lon="-4.388897432059947"><ele>767.4</ele><time>2026-04-30T11:18:38.001Z</time></trkpt><trkpt lat="31.269637148209977" lon="-4.388780345302811"><ele>768.0</ele><time>2026-04-30T11:18:39.001Z</time></trkpt><trkpt lat="31.269616935825223" lon="-4.388647266934207"><ele>768.0</ele><time>2026-04-30T11:18:40.001Z</time></trkpt><trkpt lat="31.26959213455243" lon="-4.388513345477802"><ele>768.0</ele><time>2026-04-30T11:18:41.001Z</time></trkpt><trkpt lat="31.269567437399377" lon="-4.388388368050834"><ele>768.0</ele><time>2026-04-30T11:18:42.001Z</time></trkpt><trkpt lat="31.269538290446665" lon="-4.388260160641414"><ele>768.0</ele><time>2026-04-30T11:18:43.001Z</time></trkpt><trkpt lat="31.26951372304619" lon="-4.388144032179314"><ele>768.0</ele><time>2026-04-30T11:18:44.001Z</time></trkpt><trkpt lat="31.269486001245383" lon="-4.388018716233063"><ele>767.8</ele><time>2026-04-30T11:18:45.001Z</time></trkpt><trkpt lat="31.269454121069327" lon="-4.387885584576577"><ele>767.5999999999999</ele><time>2026-04-30T11:18:46.001Z</time></trkpt><trkpt lat="31.26943301395624" lon="-4.387772049000143"><ele>767.4000000000001</ele><time>2026-04-30T11:18:47.001Z</time></trkpt><trkpt lat="31.269403905309957" lon="-4.387666362984623"><ele>767.2</ele><time>2026-04-30T11:18:48.001Z</time></trkpt><trkpt lat="31.269374713554907" lon="-4.387577352243364"><ele>767.0</ele><time>2026-04-30T11:18:49.001Z</time></trkpt><trkpt lat="31.26934727500586" lon="-4.3874995292302925"><ele>767.0</ele><time>2026-04-30T11:18:50.001Z</time></trkpt><trkpt lat="31.269321303232392" lon="-4.387420926136449"><ele>767.0</ele><time>2026-04-30T11:18:51.001Z</time></trkpt><trkpt lat="31.26928013658685" lon="-4.387301823587884"><ele>767.0</ele><time>2026-04-30T11:18:53.001Z</time></trkpt><trkpt lat="31.269216508590457" lon="-4.38722731392238"><ele>767.0</ele><time>2026-04-30T11:18:55.001Z</time></trkpt><trkpt lat="31.269150701968613" lon="-4.387189183543125"><ele>767.0</ele><time>2026-04-30T11:18:57.001Z</time></trkpt><trkpt lat="31.269090360024858" lon="-4.387155470330409"><ele>767.0</ele><time>2026-04-30T11:19:04.001Z</time></trkpt><trkpt lat="31.269025043708158" lon="-4.387084244794247"><ele>766.5</ele><time>2026-04-30T11:19:07.001Z</time></trkpt><trkpt lat="31.269001382429973" lon="-4.386993770031354"><ele>766.0</ele><time>2026-04-30T11:19:08.001Z</time></trkpt><trkpt lat="31.26898332631172" lon="-4.386875467892302"><ele>765.5</ele><time>2026-04-30T11:19:09.001Z</time></trkpt><trkpt lat="31.2689720438423" lon="-4.38671619460799"><ele>765.0</ele><time>2026-04-30T11:19:10.001Z</time></trkpt><trkpt lat="31.26895746996024" lon="-4.386530670275239"><ele>764.6666666666666</ele><time>2026-04-30T11:19:11.001Z</time></trkpt><trkpt lat="31.26893845344893" lon="-4.3863261052547395"><ele>764.3333333333333</ele><time>2026-04-30T11:19:12.001Z</time></trkpt><trkpt lat="31.2689275254078" lon="-4.386104462018221"><ele>764.0</ele><time>2026-04-30T11:19:13.001Z</time></trkpt><trkpt lat="31.268943990563955" lon="-4.385876033536342"><ele>764.0</ele><time>2026-04-30T11:19:14.002Z</time></trkpt><trkpt lat="31.26898635820557" lon="-4.385642452409765"><ele>764.0</ele><time>2026-04-30T11:19:15.002Z</time></trkpt><trkpt lat="31.269040531329168" lon="-4.38541125287855"><ele>764.0</ele><time>2026-04-30T11:19:16.002Z</time></trkpt><trkpt lat="31.269089754136715" lon="-4.385170743605741"><ele>764.3333333333333</ele><time>2026-04-30T11:19:17.002Z</time></trkpt><trkpt lat="31.269135971308547" lon="-4.384927716025357"><ele>764.6666666666666</ele><time>2026-04-30T11:19:18.002Z</time></trkpt><trkpt lat="31.269186305977485" lon="-4.384689941936438"><ele>765.0</ele><time>2026-04-30T11:19:19.002Z</time></trkpt><trkpt lat="31.269240265269698" lon="-4.384461330243646"><ele>765.3333333333334</ele><time>2026-04-30T11:19:20.002Z</time></trkpt><trkpt lat="31.269291845768716" lon="-4.384237425079867"><ele>765.6666666666667</ele><time>2026-04-30T11:19:21.002Z</time></trkpt><trkpt lat="31.269339718177665" lon="-4.38402582346708"><ele>766.0</ele><time>2026-04-30T11:19:22.002Z</time></trkpt><trkpt lat="31.26937703767383" lon="-4.383820721506421"><ele>766.0</ele><time>2026-04-30T11:19:23.002Z</time></trkpt><trkpt lat="31.2694117207626" lon="-4.383617419816478"><ele>766.0</ele><time>2026-04-30T11:19:24.002Z</time></trkpt><trkpt lat="31.269454943538694" lon="-4.383417951270107"><ele>766.0</ele><time>2026-04-30T11:19:25.002Z</time></trkpt><trkpt lat="31.269499846438123" lon="-4.38321463397582"><ele>766.0</ele><time>2026-04-30T11:19:26.002Z</time></trkpt><trkpt lat="31.26954397765746" lon="-4.383010023513097"><ele>766.0</ele><time>2026-04-30T11:19:27.002Z</time></trkpt><trkpt lat="31.269584869335805" lon="-4.3828055721943"><ele>766.0</ele><time>2026-04-30T11:19:28.002Z</time></trkpt><trkpt lat="31.269630406354544" lon="-4.382602965514456"><ele>766.0</ele><time>2026-04-30T11:19:29.002Z</time></trkpt><trkpt lat="31.269679576597426" lon="-4.382395788350088"><ele>766.0</ele><time>2026-04-30T11:19:30.002Z</time></trkpt><trkpt lat="31.269723690787732" lon="-4.382188320163147"><ele>766.0</ele><time>2026-04-30T11:19:31.002Z</time></trkpt><trkpt lat="31.26976340597445" lon="-4.381981556392076"><ele>765.3333333333334</ele><time>2026-04-30T11:19:32.002Z</time></trkpt><trkpt lat="31.269808316532835" lon="-4.3817679835830425"><ele>764.6666666666666</ele><time>2026-04-30T11:19:33.002Z</time></trkpt><trkpt lat="31.26985217896105" lon="-4.381554039433142"><ele>764.0</ele><time>2026-04-30T11:19:34.002Z</time></trkpt><trkpt lat="31.269897574855776" lon="-4.38133718161855"><ele>764.0</ele><time>2026-04-30T11:19:35.002Z</time></trkpt><trkpt lat="31.26994437079032" lon="-4.381117302338391"><ele>764.0</ele><time>2026-04-30T11:19:36.002Z</time></trkpt><trkpt lat="31.269989971034803" lon="-4.380901362456247"><ele>764.0</ele><time>2026-04-30T11:19:37.002Z</time></trkpt><trkpt lat="31.270035478072266" lon="-4.380679642756304"><ele>764.3333333333333</ele><time>2026-04-30T11:19:38.002Z</time></trkpt><trkpt lat="31.270076924555067" lon="-4.380461923853842"><ele>764.6666666666666</ele><time>2026-04-30T11:19:39.002Z</time></trkpt><trkpt lat="31.2701280492462" lon="-4.380239400567446"><ele>765.0</ele><time>2026-04-30T11:19:40.002Z</time></trkpt><trkpt lat="31.27017297184457" lon="-4.3800109516734"><ele>765.0</ele><time>2026-04-30T11:19:41.002Z</time></trkpt><trkpt lat="31.270223248936887" lon="-4.37978476606342"><ele>765.0</ele><time>2026-04-30T11:19:42.002Z</time></trkpt><trkpt lat="31.2702727758878" lon="-4.379555958024461"><ele>765.0</ele><time>2026-04-30T11:19:43.002Z</time></trkpt><trkpt lat="31.270322748869013" lon="-4.379330051100892"><ele>764.6666666666666</ele><time>2026-04-30T11:19:44.002Z</time></trkpt><trkpt lat="31.270374743500774" lon="-4.379112487638546"><ele>764.3333333333333</ele><time>2026-04-30T11:19:45.002Z</time></trkpt><trkpt lat="31.270419321650536" lon="-4.378893363720366"><ele>764.0</ele><time>2026-04-30T11:19:46.002Z</time></trkpt><trkpt lat="31.27046266085916" lon="-4.378675485699983"><ele>763.6666666666666</ele><time>2026-04-30T11:19:47.002Z</time></trkpt><trkpt lat="31.2705089228134" lon="-4.378467385369296"><ele>763.3333333333334</ele><time>2026-04-30T11:19:48.002Z</time></trkpt><trkpt lat="31.270551078643546" lon="-4.378255922640281"><ele>763.0</ele><time>2026-04-30T11:19:49.002Z</time></trkpt><trkpt lat="31.270593147401488" lon="-4.378039611967647"><ele>762.3333333333334</ele><time>2026-04-30T11:19:50.002Z</time></trkpt><trkpt lat="31.27065106653131" lon="-4.377831152441123"><ele>761.6666666666666</ele><time>2026-04-30T11:19:51.002Z</time></trkpt><trkpt lat="31.270701923420237" lon="-4.3776248125117645"><ele>761.0</ele><time>2026-04-30T11:19:52.002Z</time></trkpt><trkpt lat="31.27074510237703" lon="-4.377415037497244"><ele>761.0</ele><time>2026-04-30T11:19:53.002Z</time></trkpt><trkpt lat="31.270788668894223" lon="-4.377204607119655"><ele>761.0</ele><time>2026-04-30T11:19:54.002Z</time></trkpt><trkpt lat="31.270831823954474" lon="-4.37699014084192"><ele>761.0</ele><time>2026-04-30T11:19:55.002Z</time></trkpt><trkpt lat="31.270876963909885" lon="-4.376777978937071"><ele>761.0</ele><time>2026-04-30T11:19:56.002Z</time></trkpt><trkpt lat="31.270921059217105" lon="-4.376565088051013"><ele>761.0</ele><time>2026-04-30T11:19:57.002Z</time></trkpt><trkpt lat="31.27096134819996" lon="-4.376357528674366"><ele>761.0</ele><time>2026-04-30T11:19:58.002Z</time></trkpt><trkpt lat="31.27101019000476" lon="-4.376142767650988"><ele>760.3333333333333</ele><time>2026-04-30T11:19:59.002Z</time></trkpt><trkpt lat="31.271060720340085" lon="-4.3759352189941065"><ele>759.6666666666666</ele><time>2026-04-30T11:20:00.002Z</time></trkpt><trkpt lat="31.271101875234276" lon="-4.375722271781175"><ele>759.0</ele><time>2026-04-30T11:20:01.002Z</time></trkpt><trkpt lat="31.27114796491238" lon="-4.375514681474183"><ele>758.3333333333334</ele><time>2026-04-30T11:20:02.002Z</time></trkpt><trkpt lat="31.27119405553852" lon="-4.3753077357471115"><ele>757.6666666666667</ele><time>2026-04-30T11:20:03.002Z</time></trkpt><trkpt lat="31.271237520237833" lon="-4.375103204540658"><ele>757.0</ele><time>2026-04-30T11:20:04.002Z</time></trkpt><trkpt lat="31.271278241909062" lon="-4.374901763979604"><ele>757.0</ele><time>2026-04-30T11:20:05.002Z</time></trkpt><trkpt lat="31.271321314444275" lon="-4.374703612353726"><ele>757.0</ele><time>2026-04-30T11:20:06.002Z</time></trkpt><trkpt lat="31.27136919252204" lon="-4.374505250991737"><ele>757.0</ele><time>2026-04-30T11:20:07.002Z</time></trkpt><trkpt lat="31.271418145603903" lon="-4.374305291522223"><ele>757.0</ele><time>2026-04-30T11:20:08.002Z</time></trkpt><trkpt lat="31.271462686782165" lon="-4.374106799819833"><ele>757.0</ele><time>2026-04-30T11:20:09.002Z</time></trkpt><trkpt lat="31.271500546331044" lon="-4.373905237021732"><ele>757.0</ele><time>2026-04-30T11:20:10.002Z</time></trkpt><trkpt lat="31.271541342529925" lon="-4.373703545291307"><ele>757.0</ele><time>2026-04-30T11:20:11.002Z</time></trkpt><trkpt lat="31.271585852964797" lon="-4.37350617622417"><ele>757.0</ele><time>2026-04-30T11:20:12.002Z</time></trkpt><trkpt lat="31.271629533542786" lon="-4.373306370651125"><ele>757.0</ele><time>2026-04-30T11:20:13.002Z</time></trkpt><trkpt lat="31.271661168077312" lon="-4.373105244464984"><ele>757.3333333333334</ele><time>2026-04-30T11:20:14.002Z</time></trkpt><trkpt lat="31.271671807517375" lon="-4.372899565805933"><ele>757.6666666666666</ele><time>2026-04-30T11:20:15.002Z</time></trkpt><trkpt lat="31.271665385570255" lon="-4.37269386002984"><ele>758.0</ele><time>2026-04-30T11:20:16.002Z</time></trkpt><trkpt lat="31.271643112559463" lon="-4.372490261809625"><ele>758.0</ele><time>2026-04-30T11:20:17.002Z</time></trkpt><trkpt lat="31.271600023877728" lon="-4.372289090686935"><ele>758.0</ele><time>2026-04-30T11:20:18.002Z</time></trkpt><trkpt lat="31.271536425985307" lon="-4.372094592928634"><ele>758.0</ele><time>2026-04-30T11:20:19.002Z</time></trkpt><trkpt lat="31.27146577781018" lon="-4.3719031509762605"><ele>759.0</ele><time>2026-04-30T11:20:20.002Z</time></trkpt><trkpt lat="31.271394342093533" lon="-4.371711656300312"><ele>760.0</ele><time>2026-04-30T11:20:21.002Z</time></trkpt><trkpt lat="31.271320379278194" lon="-4.371521815005341"><ele>761.0</ele><time>2026-04-30T11:20:22.002Z</time></trkpt><trkpt lat="31.27124623991271" lon="-4.37133544030783"><ele>762.0</ele><time>2026-04-30T11:20:23.002Z</time></trkpt><trkpt lat="31.271176961849996" lon="-4.371148674739012"><ele>763.0</ele><time>2026-04-30T11:20:24.002Z</time></trkpt><trkpt lat="31.271111981428998" lon="-4.370957568963917"><ele>764.0</ele><time>2026-04-30T11:20:25.002Z</time></trkpt><trkpt lat="31.27104940277852" lon="-4.370762470663792"><ele>764.0</ele><time>2026-04-30T11:20:26.002Z</time></trkpt><trkpt lat="31.270984048740925" lon="-4.370569338413972"><ele>764.0</ele><time>2026-04-30T11:20:27.002Z</time></trkpt><trkpt lat="31.270923616584454" lon="-4.370374091323286"><ele>764.0</ele><time>2026-04-30T11:20:28.002Z</time></trkpt><trkpt lat="31.27086161833861" lon="-4.370178212751629"><ele>764.0</ele><time>2026-04-30T11:20:29.002Z</time></trkpt><trkpt lat="31.270801350787366" lon="-4.369983799202713"><ele>764.0</ele><time>2026-04-30T11:20:30.002Z</time></trkpt><trkpt lat="31.2707450515149" lon="-4.369785294084575"><ele>764.0</ele><time>2026-04-30T11:20:31.002Z</time></trkpt><trkpt lat="31.27069122012622" lon="-4.369585635678245"><ele>764.3333333333333</ele><time>2026-04-30T11:20:32.002Z</time></trkpt><trkpt lat="31.270636708781545" lon="-4.36938287305759"><ele>764.6666666666666</ele><time>2026-04-30T11:20:33.001Z</time></trkpt><trkpt lat="31.270580682854604" lon="-4.36918085265966"><ele>765.0</ele><time>2026-04-30T11:20:34.001Z</time></trkpt><trkpt lat="31.27052467176529" lon="-4.368978842173126"><ele>763.0</ele><time>2026-04-30T11:20:35.001Z</time></trkpt><trkpt lat="31.270468431495555" lon="-4.368774901657858"><ele>761.0</ele><time>2026-04-30T11:20:36.001Z</time></trkpt><trkpt lat="31.270413659753793" lon="-4.368572002632796"><ele>759.0</ele><time>2026-04-30T11:20:37.001Z</time></trkpt><trkpt lat="31.270361277229902" lon="-4.368367369059057"><ele>759.0</ele><time>2026-04-30T11:20:38.001Z</time></trkpt><trkpt lat="31.27030543504606" lon="-4.368168901474253"><ele>759.0</ele><time>2026-04-30T11:20:39.001Z</time></trkpt><trkpt lat="31.27024185140304" lon="-4.3679742948564"><ele>759.0</ele><time>2026-04-30T11:20:40.001Z</time></trkpt><trkpt lat="31.270183912792643" lon="-4.367779357114405"><ele>759.0</ele><time>2026-04-30T11:20:41.001Z</time></trkpt><trkpt lat="31.270134419279646" lon="-4.367579686609107"><ele>759.0</ele><time>2026-04-30T11:20:42.001Z</time></trkpt><trkpt lat="31.270086936949596" lon="-4.367381582955273"><ele>759.0</ele><time>2026-04-30T11:20:43.001Z</time></trkpt><trkpt lat="31.270038821077467" lon="-4.367183982904214"><ele>758.6666666666666</ele><time>2026-04-30T11:20:44.001Z</time></trkpt><trkpt lat="31.26999724924236" lon="-4.366986712942132"><ele>758.3333333333333</ele><time>2026-04-30T11:20:45.001Z</time></trkpt><trkpt lat="31.26996906883959" lon="-4.366785078290219"><ele>758.0</ele><time>2026-04-30T11:20:46.001Z</time></trkpt><trkpt lat="31.269960792240283" lon="-4.366577391685711"><ele>758.0</ele><time>2026-04-30T11:20:47.001Z</time></trkpt><trkpt lat="31.269969707404947" lon="-4.366363651813708"><ele>758.0</ele><time>2026-04-30T11:20:48.001Z</time></trkpt><trkpt lat="31.269997726944133" lon="-4.366153058740477"><ele>758.0</ele><time>2026-04-30T11:20:49.001Z</time></trkpt><trkpt lat="31.270027247117095" lon="-4.365941905875286"><ele>757.6666666666666</ele><time>2026-04-30T11:20:50.001Z</time></trkpt><trkpt lat="31.27005670526961" lon="-4.365730687495878"><ele>757.3333333333334</ele><time>2026-04-30T11:20:51.001Z</time></trkpt><trkpt lat="31.27009354421171" lon="-4.365525624699037"><ele>757.0</ele><time>2026-04-30T11:20:52.001Z</time></trkpt><trkpt lat="31.270130787333347" lon="-4.365324508840583"><ele>756.0</ele><time>2026-04-30T11:20:53.001Z</time></trkpt><trkpt lat="31.270165223853983" lon="-4.365128890043661"><ele>755.0</ele><time>2026-04-30T11:20:54.001Z</time></trkpt><trkpt lat="31.270193574880395" lon="-4.364933853076278"><ele>754.0</ele><time>2026-04-30T11:20:55.001Z</time></trkpt><trkpt lat="31.27022332140326" lon="-4.36473707485758"><ele>754.3333333333334</ele><time>2026-04-30T11:20:56.001Z</time></trkpt><trkpt lat="31.27025936934265" lon="-4.364537694943217"><ele>754.6666666666666</ele><time>2026-04-30T11:20:57.001Z</time></trkpt><trkpt lat="31.27028860877798" lon="-4.364337104450873"><ele>755.0</ele><time>2026-04-30T11:20:58.001Z</time></trkpt><trkpt lat="31.270312434768346" lon="-4.364140776437879"><ele>755.0</ele><time>2026-04-30T11:20:59.001Z</time></trkpt><trkpt lat="31.27034209855598" lon="-4.363943058339718"><ele>755.0</ele><time>2026-04-30T11:21:00.001Z</time></trkpt><trkpt lat="31.270375244825832" lon="-4.3637485163140415"><ele>755.0</ele><time>2026-04-30T11:21:01.001Z</time></trkpt><trkpt lat="31.270409330879215" lon="-4.363554369786643"><ele>755.0</ele><time>2026-04-30T11:21:02.001Z</time></trkpt><trkpt lat="31.270442441211163" lon="-4.363361801861313"><ele>755.0</ele><time>2026-04-30T11:21:03.001Z</time></trkpt><trkpt lat="31.270469738103895" lon="-4.363170469897185"><ele>755.0</ele><time>2026-04-30T11:21:04.001Z</time></trkpt><trkpt lat="31.270493983208446" lon="-4.3629761148790305"><ele>754.3333333333333</ele><time>2026-04-30T11:21:05.001Z</time></trkpt><trkpt lat="31.270521629232867" lon="-4.362784476818189"><ele>753.6666666666666</ele><time>2026-04-30T11:21:06.001Z</time></trkpt><trkpt lat="31.270557665043352" lon="-4.362589825216012"><ele>753.0</ele><time>2026-04-30T11:21:07.001Z</time></trkpt><trkpt lat="31.27059691801513" lon="-4.362389398403233"><ele>753.3333333333334</ele><time>2026-04-30T11:21:08.001Z</time></trkpt><trkpt lat="31.270629533400886" lon="-4.362178843408344"><ele>753.6666666666667</ele><time>2026-04-30T11:21:09.001Z</time></trkpt><trkpt lat="31.270653972606816" lon="-4.361970243629246"><ele>754.0</ele><time>2026-04-30T11:21:10.001Z</time></trkpt><trkpt lat="31.270683164956395" lon="-4.361756503560379"><ele>754.0</ele><time>2026-04-30T11:21:11.001Z</time></trkpt><trkpt lat="31.270715988891077" lon="-4.361548778866336"><ele>754.0</ele><time>2026-04-30T11:21:12.001Z</time></trkpt><trkpt lat="31.270748363164202" lon="-4.361341131084542"><ele>754.0</ele><time>2026-04-30T11:21:13.001Z</time></trkpt><trkpt lat="31.2707762552568" lon="-4.361134207288627"><ele>754.0</ele><time>2026-04-30T11:21:14.001Z</time></trkpt><trkpt lat="31.270801992102967" lon="-4.3609274988162765"><ele>754.0</ele><time>2026-04-30T11:21:15.001Z</time></trkpt><trkpt lat="31.270833911438373" lon="-4.360718150586765"><ele>754.0</ele><time>2026-04-30T11:21:16.001Z</time></trkpt><trkpt lat="31.27087436626845" lon="-4.360510443719167"><ele>754.0</ele><time>2026-04-30T11:21:17.001Z</time></trkpt><trkpt lat="31.270914100234247" lon="-4.360303482334813"><ele>754.0</ele><time>2026-04-30T11:21:18.001Z</time></trkpt><trkpt lat="31.27094858113457" lon="-4.360093562347908"><ele>754.0</ele><time>2026-04-30T11:21:19.001Z</time></trkpt><trkpt lat="31.270976526337037" lon="-4.359880299021863"><ele>753.0</ele><time>2026-04-30T11:21:20.001Z</time></trkpt><trkpt lat="31.271002871454527" lon="-4.359682184249915"><ele>752.0</ele><time>2026-04-30T11:21:21.001Z</time></trkpt><trkpt lat="31.27103358692368" lon="-4.359476413079043"><ele>751.0</ele><time>2026-04-30T11:21:22.001Z</time></trkpt><trkpt lat="31.271068233128833" lon="-4.359273276111101"><ele>751.0</ele><time>2026-04-30T11:21:23.001Z</time></trkpt><trkpt lat="31.271102367056443" lon="-4.359073481635754"><ele>751.0</ele><time>2026-04-30T11:21:24.001Z</time></trkpt><trkpt lat="31.271131765318515" lon="-4.358874496174539"><ele>751.0</ele><time>2026-04-30T11:21:25.001Z</time></trkpt><trkpt lat="31.27116101194799" lon="-4.3586812374804795"><ele>751.0</ele><time>2026-04-30T11:21:26.001Z</time></trkpt><trkpt lat="31.27119111487013" lon="-4.358487080866962"><ele>751.0</ele><time>2026-04-30T11:21:27.001Z</time></trkpt><trkpt lat="31.271220462818412" lon="-4.358300392513531"><ele>751.0</ele><time>2026-04-30T11:21:28.001Z</time></trkpt><trkpt lat="31.27125081588646" lon="-4.358109229320044"><ele>751.0</ele><time>2026-04-30T11:21:29.001Z</time></trkpt><trkpt lat="31.27128224365737" lon="-4.357925790955057"><ele>751.0</ele><time>2026-04-30T11:21:30.002Z</time></trkpt><trkpt lat="31.27130976257716" lon="-4.357740106575174"><ele>751.0</ele><time>2026-04-30T11:21:31.002Z</time></trkpt><trkpt lat="31.27133656068273" lon="-4.357557763173339"><ele>751.0</ele><time>2026-04-30T11:21:32.002Z</time></trkpt><trkpt lat="31.271362566171465" lon="-4.357376559025666"><ele>751.0</ele><time>2026-04-30T11:21:33.002Z</time></trkpt><trkpt lat="31.271392268120177" lon="-4.357195854374546"><ele>751.0</ele><time>2026-04-30T11:21:34.002Z</time></trkpt><trkpt lat="31.27142169011067" lon="-4.357012544832404"><ele>751.6666666666667</ele><time>2026-04-30T11:21:35.002Z</time></trkpt><trkpt lat="31.271448665073674" lon="-4.3568237231387235"><ele>752.3333333333334</ele><time>2026-04-30T11:21:36.002Z</time></trkpt><trkpt lat="31.271475460896667" lon="-4.356632125850442"><ele>753.0</ele><time>2026-04-30T11:21:37.002Z</time></trkpt><trkpt lat="31.271509831127876" lon="-4.356437760471648"><ele>753.0</ele><time>2026-04-30T11:21:38.002Z</time></trkpt><trkpt lat="31.27154261576069" lon="-4.356236805413849"><ele>753.0</ele><time>2026-04-30T11:21:39.002Z</time></trkpt><trkpt lat="31.271572466980146" lon="-4.356039716761475"><ele>753.0</ele><time>2026-04-30T11:21:40.002Z</time></trkpt><trkpt lat="31.271603952527585" lon="-4.355839178870435"><ele>753.0</ele><time>2026-04-30T11:21:41.002Z</time></trkpt><trkpt lat="31.271633452223345" lon="-4.355642294843775"><ele>753.0</ele><time>2026-04-30T11:21:42.002Z</time></trkpt><trkpt lat="31.27166613824863" lon="-4.3554473922061225"><ele>753.0</ele><time>2026-04-30T11:21:43.002Z</time></trkpt><trkpt lat="31.271701153583525" lon="-4.355258877361014"><ele>753.3333333333334</ele><time>2026-04-30T11:21:44.002Z</time></trkpt><trkpt lat="31.271741450257288" lon="-4.355072548348634"><ele>753.6666666666667</ele><time>2026-04-30T11:21:45.002Z</time></trkpt><trkpt lat="31.271793809973328" lon="-4.354888669975002"><ele>754.0</ele><time>2026-04-30T11:21:46.002Z</time></trkpt><trkpt lat="31.271856298318554" lon="-4.354708526700266"><ele>753.6666666666667</ele><time>2026-04-30T11:21:47.002Z</time></trkpt><trkpt lat="31.27192778326835" lon="-4.3545376205127075"><ele>753.3333333333334</ele><time>2026-04-30T11:21:48.002Z</time></trkpt><trkpt lat="31.272004761179392" lon="-4.354366639302195"><ele>753.0</ele><time>2026-04-30T11:21:49.002Z</time></trkpt><trkpt lat="31.27207727503488" lon="-4.354195345866716"><ele>753.0</ele><time>2026-04-30T11:21:50.002Z</time></trkpt><trkpt lat="31.272154053056724" lon="-4.354021218511957"><ele>753.0</ele><time>2026-04-30T11:21:51.002Z</time></trkpt><trkpt lat="31.272235583844694" lon="-4.353851095336662"><ele>753.0</ele><time>2026-04-30T11:21:52.002Z</time></trkpt><trkpt lat="31.27231850558877" lon="-4.353679901546442"><ele>753.6666666666666</ele><time>2026-04-30T11:21:53.002Z</time></trkpt><trkpt lat="31.272401469635454" lon="-4.353507818635174"><ele>754.3333333333333</ele><time>2026-04-30T11:21:54.002Z</time></trkpt><trkpt lat="31.272493228679316" lon="-4.353337821346308"><ele>755.0</ele><time>2026-04-30T11:21:55.002Z</time></trkpt><trkpt lat="31.272582900517794" lon="-4.353157947412756"><ele>754.0</ele><time>2026-04-30T11:21:56.002Z</time></trkpt><trkpt lat="31.272665268717805" lon="-4.352981187091411"><ele>753.0</ele><time>2026-04-30T11:21:57.002Z</time></trkpt><trkpt lat="31.27275144318959" lon="-4.352797457601154"><ele>752.0</ele><time>2026-04-30T11:21:58.002Z</time></trkpt><trkpt lat="31.272839767575896" lon="-4.352609119897988"><ele>752.0</ele><time>2026-04-30T11:21:59.002Z</time></trkpt><trkpt lat="31.272928997179097" lon="-4.3524204753636075"><ele>752.0</ele><time>2026-04-30T11:22:00.002Z</time></trkpt><trkpt lat="31.27301628108697" lon="-4.352234964877477"><ele>752.0</ele><time>2026-04-30T11:22:01.002Z</time></trkpt><trkpt lat="31.273105108199786" lon="-4.352051892479713"><ele>751.6666666666666</ele><time>2026-04-30T11:22:02.002Z</time></trkpt><trkpt lat="31.27319979783249" lon="-4.3518692624872"><ele>751.3333333333334</ele><time>2026-04-30T11:22:03.002Z</time></trkpt><trkpt lat="31.27329471175525" lon="-4.3516839371302884"><ele>751.0</ele><time>2026-04-30T11:22:04.002Z</time></trkpt><trkpt lat="31.273380979184704" lon="-4.351495358347539"><ele>750.6666666666667</ele><time>2026-04-30T11:22:05.002Z</time></trkpt><trkpt lat="31.273465419741694" lon="-4.351307706282417"><ele>750.3333333333334</ele><time>2026-04-30T11:22:06.002Z</time></trkpt><trkpt lat="31.273549417385883" lon="-4.351120900833363"><ele>750.0</ele><time>2026-04-30T11:22:07.002Z</time></trkpt><trkpt lat="31.273637715990706" lon="-4.350935256138023"><ele>750.0</ele><time>2026-04-30T11:22:08.002Z</time></trkpt><trkpt lat="31.273731729598012" lon="-4.350753980036281"><ele>750.0</ele><time>2026-04-30T11:22:09.002Z</time></trkpt><trkpt lat="31.273825865693823" lon="-4.350567545925071"><ele>750.0</ele><time>2026-04-30T11:22:10.002Z</time></trkpt><trkpt lat="31.273910733759422" lon="-4.3503799425768594"><ele>750.3333333333334</ele><time>2026-04-30T11:22:11.002Z</time></trkpt><trkpt lat="31.27399665069682" lon="-4.3501929775624735"><ele>750.6666666666667</ele><time>2026-04-30T11:22:12.002Z</time></trkpt><trkpt lat="31.274084975385154" lon="-4.350013085917286"><ele>751.0</ele><time>2026-04-30T11:22:13.002Z</time></trkpt><trkpt lat="31.27417361699663" lon="-4.349830231839933"><ele>750.3333333333334</ele><time>2026-04-30T11:22:14.002Z</time></trkpt><trkpt lat="31.27426032390736" lon="-4.349648536230145"><ele>749.6666666666666</ele><time>2026-04-30T11:22:15.002Z</time></trkpt><trkpt lat="31.274344882550295" lon="-4.34946874944445"><ele>749.0</ele><time>2026-04-30T11:22:16.002Z</time></trkpt><trkpt lat="31.274434298481555" lon="-4.349289323138501"><ele>749.0</ele><time>2026-04-30T11:22:17.002Z</time></trkpt><trkpt lat="31.274522104924564" lon="-4.349108417896743"><ele>749.0</ele><time>2026-04-30T11:22:18.002Z</time></trkpt><trkpt lat="31.274605074404196" lon="-4.348925764221678"><ele>749.0</ele><time>2026-04-30T11:22:19.002Z</time></trkpt><trkpt lat="31.274686738051237" lon="-4.348741312339961"><ele>749.6666666666666</ele><time>2026-04-30T11:22:20.002Z</time></trkpt><trkpt lat="31.27477288969206" lon="-4.348558457191213"><ele>750.3333333333334</ele><time>2026-04-30T11:22:21.002Z</time></trkpt><trkpt lat="31.27485557598304" lon="-4.348375736773298"><ele>751.0</ele><time>2026-04-30T11:22:22.002Z</time></trkpt><trkpt lat="31.27492297679634" lon="-4.348182038887694"><ele>751.0</ele><time>2026-04-30T11:22:23.002Z</time></trkpt><trkpt lat="31.274971345000594" lon="-4.347977131831637"><ele>751.0</ele><time>2026-04-30T11:22:24.002Z</time></trkpt><trkpt lat="31.275008216605883" lon="-4.347771613673573"><ele>751.0</ele><time>2026-04-30T11:22:25.002Z</time></trkpt><trkpt lat="31.275031021353414" lon="-4.347563935258623"><ele>751.0</ele><time>2026-04-30T11:22:26.002Z</time></trkpt><trkpt lat="31.275037999276837" lon="-4.34735710198067"><ele>751.0</ele><time>2026-04-30T11:22:27.002Z</time></trkpt><trkpt lat="31.275039978667245" lon="-4.347150220471148"><ele>751.0</ele><time>2026-04-30T11:22:28.002Z</time></trkpt><trkpt lat="31.275039766678763" lon="-4.346946023212269"><ele>751.0</ele><time>2026-04-30T11:22:29.002Z</time></trkpt><trkpt lat="31.275034198698503" lon="-4.346756308439097"><ele>751.0</ele><time>2026-04-30T11:22:30.002Z</time></trkpt><trkpt lat="31.275022050498315" lon="-4.3465751094246485"><ele>751.0</ele><time>2026-04-30T11:22:31.002Z</time></trkpt><trkpt lat="31.27500959704938" lon="-4.346400931011175"><ele>751.0</ele><time>2026-04-30T11:22:32.002Z</time></trkpt><trkpt lat="31.274997480558202" lon="-4.346231988901812"><ele>751.0</ele><time>2026-04-30T11:22:33.001Z</time></trkpt><trkpt lat="31.27498443549861" lon="-4.346062140436921"><ele>751.0</ele><time>2026-04-30T11:22:34.001Z</time></trkpt><trkpt lat="31.27496826127916" lon="-4.345891672109818"><ele>751.0</ele><time>2026-04-30T11:22:35.001Z</time></trkpt><trkpt lat="31.27495290962938" lon="-4.345715447094268"><ele>751.3333333333334</ele><time>2026-04-30T11:22:36.001Z</time></trkpt><trkpt lat="31.274939056155983" lon="-4.345532444361521"><ele>751.6666666666666</ele><time>2026-04-30T11:22:37.001Z</time></trkpt><trkpt lat="31.27492791031556" lon="-4.345342662535183"><ele>752.0</ele><time>2026-04-30T11:22:38.001Z</time></trkpt><trkpt lat="31.274907738622506" lon="-4.345145370058558"><ele>752.0</ele><time>2026-04-30T11:22:39.001Z</time></trkpt><trkpt lat="31.274892354314606" lon="-4.344946392567168"><ele>752.0</ele><time>2026-04-30T11:22:40.001Z</time></trkpt><trkpt lat="31.27487537366396" lon="-4.344742740676293"><ele>752.0</ele><time>2026-04-30T11:22:41.001Z</time></trkpt><trkpt lat="31.274858509334425" lon="-4.344533341690573"><ele>751.6666666666666</ele><time>2026-04-30T11:22:42.001Z</time></trkpt><trkpt lat="31.274841468872232" lon="-4.3443217588616285"><ele>751.3333333333334</ele><time>2026-04-30T11:22:43.001Z</time></trkpt><trkpt lat="31.2748237311104" lon="-4.344108320379334"><ele>751.0</ele><time>2026-04-30T11:22:44.001Z</time></trkpt><trkpt lat="31.27480895032503" lon="-4.343897118549477"><ele>751.0</ele><time>2026-04-30T11:22:45.001Z</time></trkpt><trkpt lat="31.274792734414298" lon="-4.343682525850506"><ele>751.0</ele><time>2026-04-30T11:22:46.001Z</time></trkpt><trkpt lat="31.27477621988123" lon="-4.343472995284763"><ele>751.0</ele><time>2026-04-30T11:22:47.001Z</time></trkpt><trkpt lat="31.274760814426507" lon="-4.343260724787841"><ele>751.0</ele><time>2026-04-30T11:22:48.001Z</time></trkpt><trkpt lat="31.274746062267457" lon="-4.343049879382236"><ele>751.0</ele><time>2026-04-30T11:22:49.001Z</time></trkpt><trkpt lat="31.27473252239603" lon="-4.342835682746261"><ele>751.0</ele><time>2026-04-30T11:22:50.001Z</time></trkpt><trkpt lat="31.27471513809162" lon="-4.3426241596929325"><ele>751.0</ele><time>2026-04-30T11:22:51.001Z</time></trkpt><trkpt lat="31.274701254472614" lon="-4.342410796576008"><ele>751.0</ele><time>2026-04-30T11:22:52.001Z</time></trkpt><trkpt lat="31.27468649688797" lon="-4.342197077142879"><ele>751.0</ele><time>2026-04-30T11:22:53.001Z</time></trkpt><trkpt lat="31.274667316462935" lon="-4.341986990771136"><ele>750.6666666666667</ele><time>2026-04-30T11:22:54.001Z</time></trkpt><trkpt lat="31.27464963453833" lon="-4.341777227770698"><ele>750.3333333333334</ele><time>2026-04-30T11:22:55.001Z</time></trkpt><trkpt lat="31.274632993003742" lon="-4.341568504979002"><ele>750.0</ele><time>2026-04-30T11:22:56.001Z</time></trkpt><trkpt lat="31.274610920383587" lon="-4.341359919629537"><ele>750.0</ele><time>2026-04-30T11:22:57.001Z</time></trkpt><trkpt lat="31.274585796354266" lon="-4.341154016255599"><ele>750.0</ele><time>2026-04-30T11:22:58.001Z</time></trkpt><trkpt lat="31.27454619161125" lon="-4.34095047972341"><ele>750.0</ele><time>2026-04-30T11:22:59.001Z</time></trkpt><trkpt lat="31.274489489110472" lon="-4.340753412609409"><ele>750.0</ele><time>2026-04-30T11:23:00.001Z</time></trkpt><trkpt lat="31.274424610670305" lon="-4.340558559778176"><ele>750.0</ele><time>2026-04-30T11:23:01.001Z</time></trkpt><trkpt lat="31.27435849213918" lon="-4.340362714302214"><ele>750.0</ele><time>2026-04-30T11:23:02.001Z</time></trkpt><trkpt lat="31.27429655692518" lon="-4.34016365717745"><ele>750.0</ele><time>2026-04-30T11:23:03.001Z</time></trkpt><trkpt lat="31.27423430511479" lon="-4.3399643600894136"><ele>750.0</ele><time>2026-04-30T11:23:04.001Z</time></trkpt><trkpt lat="31.27417118326964" lon="-4.33976330791894"><ele>750.0</ele><time>2026-04-30T11:23:05.001Z</time></trkpt><trkpt lat="31.274109897993334" lon="-4.339558256599342"><ele>750.0</ele><time>2026-04-30T11:23:06.001Z</time></trkpt><trkpt lat="31.274046621906606" lon="-4.3393511787033745"><ele>750.0</ele><time>2026-04-30T11:23:07.001Z</time></trkpt><trkpt lat="31.273978218707356" lon="-4.33914596822019"><ele>750.0</ele><time>2026-04-30T11:23:08.001Z</time></trkpt><trkpt lat="31.27390923130032" lon="-4.33893577537363"><ele>750.0</ele><time>2026-04-30T11:23:09.001Z</time></trkpt><trkpt lat="31.27386193087479" lon="-4.338719643015299"><ele>750.0</ele><time>2026-04-30T11:23:10.001Z</time></trkpt><trkpt lat="31.273834780086176" lon="-4.338498734225956"><ele>750.0</ele><time>2026-04-30T11:23:11.001Z</time></trkpt><trkpt lat="31.27382401290341" lon="-4.338275353950182"><ele>750.0</ele><time>2026-04-30T11:23:12.001Z</time></trkpt><trkpt lat="31.27384144031234" lon="-4.338053635768893"><ele>750.0</ele><time>2026-04-30T11:23:13.001Z</time></trkpt><trkpt lat="31.2738763213746" lon="-4.337836992477976"><ele>750.0</ele><time>2026-04-30T11:23:14.001Z</time></trkpt><trkpt lat="31.27393537306892" lon="-4.3376290920738665"><ele>750.0</ele><time>2026-04-30T11:23:15.001Z</time></trkpt><trkpt lat="31.274000460110717" lon="-4.337423779883218"><ele>750.0</ele><time>2026-04-30T11:23:16.001Z</time></trkpt><trkpt lat="31.274081409461175" lon="-4.337224490567785"><ele>750.0</ele><time>2026-04-30T11:23:17.001Z</time></trkpt><trkpt lat="31.274182448706394" lon="-4.337043230580068"><ele>750.0</ele><time>2026-04-30T11:23:18.001Z</time></trkpt><trkpt lat="31.27429149785553" lon="-4.33687453057211"><ele>750.0</ele><time>2026-04-30T11:23:19.001Z</time></trkpt><trkpt lat="31.274406149441816" lon="-4.336717255218703"><ele>750.0</ele><time>2026-04-30T11:23:20.001Z</time></trkpt><trkpt lat="31.274523663995556" lon="-4.336560763067456"><ele>750.0</ele><time>2026-04-30T11:23:21.001Z</time></trkpt><trkpt lat="31.274640462188273" lon="-4.336400525568872"><ele>750.0</ele><time>2026-04-30T11:23:22.001Z</time></trkpt><trkpt lat="31.274752454332955" lon="-4.336234203029086"><ele>750.0</ele><time>2026-04-30T11:23:23.001Z</time></trkpt><trkpt lat="31.27486565977985" lon="-4.336073269076186"><ele>750.3333333333334</ele><time>2026-04-30T11:23:24.001Z</time></trkpt><trkpt lat="31.27498083323245" lon="-4.33591533697654"><ele>750.6666666666667</ele><time>2026-04-30T11:23:25.001Z</time></trkpt><trkpt lat="31.275091838980185" lon="-4.335766184881902"><ele>751.0</ele><time>2026-04-30T11:23:26.001Z</time></trkpt><trkpt lat="31.275204486850026" lon="-4.335614754851202"><ele>751.3333333333334</ele><time>2026-04-30T11:23:27.001Z</time></trkpt><trkpt lat="31.27531624241829" lon="-4.33545936428196"><ele>751.6666666666666</ele><time>2026-04-30T11:23:28.001Z</time></trkpt><trkpt lat="31.275429933957778" lon="-4.335305089624929"><ele>752.0</ele><time>2026-04-30T11:23:29.001Z</time></trkpt><trkpt lat="31.27554371971737" lon="-4.335147318157161"><ele>752.0</ele><time>2026-04-30T11:23:30.001Z</time></trkpt><trkpt lat="31.27565798853799" lon="-4.3349903391707425"><ele>752.0</ele><time>2026-04-30T11:23:31.001Z</time></trkpt><trkpt lat="31.27577195709846" lon="-4.334829764842858"><ele>752.0</ele><time>2026-04-30T11:23:32.001Z</time></trkpt><trkpt lat="31.275885197036917" lon="-4.334666714206704"><ele>752.3333333333333</ele><time>2026-04-30T11:23:33.001Z</time></trkpt><trkpt lat="31.276000186509403" lon="-4.334502099602743"><ele>752.6666666666666</ele><time>2026-04-30T11:23:34.001Z</time></trkpt><trkpt lat="31.276118482179044" lon="-4.334338281775992"><ele>753.0</ele><time>2026-04-30T11:23:35.001Z</time></trkpt><trkpt lat="31.27623877241001" lon="-4.334173296252935"><ele>753.0</ele><time>2026-04-30T11:23:36.001Z</time></trkpt><trkpt lat="31.27635698597699" lon="-4.334006144918206"><ele>753.0</ele><time>2026-04-30T11:23:37.001Z</time></trkpt><trkpt lat="31.276474873564084" lon="-4.33383991521455"><ele>753.0</ele><time>2026-04-30T11:23:38.001Z</time></trkpt><trkpt lat="31.27659314482017" lon="-4.333672231323341"><ele>752.6666666666666</ele><time>2026-04-30T11:23:39.001Z</time></trkpt><trkpt lat="31.276711565347224" lon="-4.333507569809953"><ele>752.3333333333333</ele><time>2026-04-30T11:23:40.001Z</time></trkpt><trkpt lat="31.276831102184737" lon="-4.333343284799973"><ele>752.0</ele><time>2026-04-30T11:23:41.001Z</time></trkpt><trkpt lat="31.276950714140874" lon="-4.333179195946821"><ele>752.3333333333333</ele><time>2026-04-30T11:23:42.001Z</time></trkpt><trkpt lat="31.27707029666385" lon="-4.333014530775453"><ele>752.6666666666666</ele><time>2026-04-30T11:23:43.001Z</time></trkpt><trkpt lat="31.27718798722774" lon="-4.332849817402849"><ele>753.0</ele><time>2026-04-30T11:23:44.001Z</time></trkpt><trkpt lat="31.277305748348418" lon="-4.332683725766176"><ele>753.0</ele><time>2026-04-30T11:23:45.001Z</time></trkpt><trkpt lat="31.277424903762142" lon="-4.332519623798485"><ele>753.0</ele><time>2026-04-30T11:23:46.001Z</time></trkpt><trkpt lat="31.27754402893917" lon="-4.332356549283017"><ele>753.0</ele><time>2026-04-30T11:23:47.001Z</time></trkpt><trkpt lat="31.277666718173904" lon="-4.332191502529964"><ele>752.6666666666666</ele><time>2026-04-30T11:23:48.001Z</time></trkpt><trkpt lat="31.27778991983704" lon="-4.332025552216969"><ele>752.3333333333333</ele><time>2026-04-30T11:23:49.001Z</time></trkpt><trkpt lat="31.277908012789773" lon="-4.331861216757409"><ele>752.0</ele><time>2026-04-30T11:23:50.001Z</time></trkpt><trkpt lat="31.278026299538077" lon="-4.331694221249992"><ele>752.3333333333333</ele><time>2026-04-30T11:23:51.001Z</time></trkpt><trkpt lat="31.278146740530065" lon="-4.3315307346919205"><ele>752.6666666666666</ele><time>2026-04-30T11:23:52.001Z</time></trkpt><trkpt lat="31.27826610590214" lon="-4.331367533115759"><ele>753.0</ele><time>2026-04-30T11:23:53.001Z</time></trkpt><trkpt lat="31.278386934890314" lon="-4.331204541525513"><ele>753.3333333333334</ele><time>2026-04-30T11:23:54.001Z</time></trkpt><trkpt lat="31.278502652693412" lon="-4.3310406453011305"><ele>753.6666666666667</ele><time>2026-04-30T11:23:55.001Z</time></trkpt><trkpt lat="31.278619504965455" lon="-4.33087264138342"><ele>754.0</ele><time>2026-04-30T11:23:56.001Z</time></trkpt><trkpt lat="31.278735899188263" lon="-4.330709631055498"><ele>754.0</ele><time>2026-04-30T11:23:57.001Z</time></trkpt><trkpt lat="31.278848589913178" lon="-4.3305585778749665"><ele>754.0</ele><time>2026-04-30T11:23:58.001Z</time></trkpt><trkpt lat="31.27895339922061" lon="-4.330406534225596"><ele>754.0</ele><time>2026-04-30T11:23:59.001Z</time></trkpt><trkpt lat="31.279054016451447" lon="-4.330267609251806"><ele>754.0</ele><time>2026-04-30T11:24:00.001Z</time></trkpt><trkpt lat="31.279151039330635" lon="-4.330130208413054"><ele>754.0</ele><time>2026-04-30T11:24:01.001Z</time></trkpt><trkpt lat="31.27924506786143" lon="-4.330000983873787"><ele>754.0</ele><time>2026-04-30T11:24:02.001Z</time></trkpt><trkpt lat="31.279342841604006" lon="-4.3298604169027834"><ele>754.3333333333334</ele><time>2026-04-30T11:24:03.001Z</time></trkpt><trkpt lat="31.27944646302176" lon="-4.3297249062340235"><ele>754.6666666666666</ele><time>2026-04-30T11:24:04.001Z</time></trkpt><trkpt lat="31.279550984096915" lon="-4.329586384344207"><ele>755.0</ele><time>2026-04-30T11:24:05.001Z</time></trkpt><trkpt lat="31.279654206834326" lon="-4.329441130528779"><ele>755.0</ele><time>2026-04-30T11:24:06.001Z</time></trkpt><trkpt lat="31.279756769107436" lon="-4.329295619889945"><ele>755.0</ele><time>2026-04-30T11:24:07.001Z</time></trkpt><trkpt lat="31.279864207595807" lon="-4.329142215185455"><ele>755.0</ele><time>2026-04-30T11:24:08.001Z</time></trkpt><trkpt lat="31.279975621636126" lon="-4.32898532520642"><ele>755.3333333333333</ele><time>2026-04-30T11:24:09.001Z</time></trkpt><trkpt lat="31.280095402970186" lon="-4.328828369830662"><ele>755.6666666666666</ele><time>2026-04-30T11:24:10.001Z</time></trkpt><trkpt lat="31.280216309870045" lon="-4.328665728910651"><ele>756.0</ele><time>2026-04-30T11:24:11.001Z</time></trkpt><trkpt lat="31.280338628874986" lon="-4.328500558796213"><ele>756.0</ele><time>2026-04-30T11:24:12.001Z</time></trkpt><trkpt lat="31.280457135432563" lon="-4.328332217505256"><ele>756.0</ele><time>2026-04-30T11:24:13.001Z</time></trkpt><trkpt lat="31.280573989799663" lon="-4.328165018676596"><ele>756.0</ele><time>2026-04-30T11:24:14.001Z</time></trkpt><trkpt lat="31.28069063528232" lon="-4.3280015687109845"><ele>755.6666666666666</ele><time>2026-04-30T11:24:15.001Z</time></trkpt><trkpt lat="31.28080438932479" lon="-4.327846307577541"><ele>755.3333333333333</ele><time>2026-04-30T11:24:16.001Z</time></trkpt><trkpt lat="31.28091225229173" lon="-4.327700672108935"><ele>755.0</ele><time>2026-04-30T11:24:17.001Z</time></trkpt><trkpt lat="31.281013328326516" lon="-4.327559266216787"><ele>755.0</ele><time>2026-04-30T11:24:18.001Z</time></trkpt><trkpt lat="31.28110734217162" lon="-4.327422714892755"><ele>755.0</ele><time>2026-04-30T11:24:19.001Z</time></trkpt><trkpt lat="31.28119998697664" lon="-4.3272922852625735"><ele>755.0</ele><time>2026-04-30T11:24:20.001Z</time></trkpt><trkpt lat="31.281289879766387" lon="-4.327169065027258"><ele>755.0</ele><time>2026-04-30T11:24:21.001Z</time></trkpt><trkpt lat="31.281376100907348" lon="-4.327050641364798"><ele>754.5</ele><time>2026-04-30T11:24:22.001Z</time></trkpt><trkpt lat="31.28145497803951" lon="-4.326935988756856"><ele>754.0</ele><time>2026-04-30T11:24:23.001Z</time></trkpt><trkpt lat="31.281538935239944" lon="-4.32681541501406"><ele>753.5</ele><time>2026-04-30T11:24:24.001Z</time></trkpt><trkpt lat="31.281636728175044" lon="-4.326681798355606"><ele>753.0</ele><time>2026-04-30T11:24:25.001Z</time></trkpt><trkpt lat="31.281740569091603" lon="-4.326541141447155"><ele>753.0</ele><time>2026-04-30T11:24:26.001Z</time></trkpt><trkpt lat="31.281842692617715" lon="-4.326399505980164"><ele>753.0</ele><time>2026-04-30T11:24:27.001Z</time></trkpt><trkpt lat="31.281945638420712" lon="-4.326258369536019"><ele>753.0</ele><time>2026-04-30T11:24:28.001Z</time></trkpt><trkpt lat="31.282041467227348" lon="-4.326122393070424"><ele>753.25</ele><time>2026-04-30T11:24:29.001Z</time></trkpt><trkpt lat="31.282132552036785" lon="-4.32599075938092"><ele>753.5</ele><time>2026-04-30T11:24:30.001Z</time></trkpt><trkpt lat="31.282223436075043" lon="-4.32586130768127"><ele>753.75</ele><time>2026-04-30T11:24:31.001Z</time></trkpt><trkpt lat="31.28231846307658" lon="-4.3257296478515945"><ele>754.0</ele><time>2026-04-30T11:24:32.001Z</time></trkpt><trkpt lat="31.28241728299628" lon="-4.325596105137849"><ele>754.3333333333334</ele><time>2026-04-30T11:24:33.001Z</time></trkpt><trkpt lat="31.28249908629779" lon="-4.325461374195235"><ele>754.6666666666666</ele><time>2026-04-30T11:24:34.001Z</time></trkpt><trkpt lat="31.28260818033116" lon="-4.325319886684976"><ele>755.0</ele><time>2026-04-30T11:24:35.001Z</time></trkpt><trkpt lat="31.28272191229242" lon="-4.325167765345433"><ele>755.0</ele><time>2026-04-30T11:24:36.001Z</time></trkpt><trkpt lat="31.282837831425972" lon="-4.32501043167427"><ele>755.0</ele><time>2026-04-30T11:24:37.001Z</time></trkpt><trkpt lat="31.28295331386541" lon="-4.32485181811311"><ele>755.0</ele><time>2026-04-30T11:24:38.001Z</time></trkpt><trkpt lat="31.283066733356435" lon="-4.324700721972663"><ele>755.0</ele><time>2026-04-30T11:24:39.001Z</time></trkpt><trkpt lat="31.283170915185465" lon="-4.324553761261091"><ele>755.0</ele><time>2026-04-30T11:24:40.001Z</time></trkpt><trkpt lat="31.283273025728413" lon="-4.324418505982582"><ele>755.0</ele><time>2026-04-30T11:24:41.001Z</time></trkpt><trkpt lat="31.28336941576215" lon="-4.324290609981887"><ele>755.0</ele><time>2026-04-30T11:24:42.001Z</time></trkpt><trkpt lat="31.283464735631956" lon="-4.324153388218233"><ele>755.0</ele><time>2026-04-30T11:24:43.001Z</time></trkpt><trkpt lat="31.283567998520393" lon="-4.324011820343255"><ele>755.0</ele><time>2026-04-30T11:24:44.001Z</time></trkpt><trkpt lat="31.283677296389733" lon="-4.323867029827682"><ele>755.0</ele><time>2026-04-30T11:24:45.001Z</time></trkpt><trkpt lat="31.283794039623924" lon="-4.323730848349195"><ele>755.0</ele><time>2026-04-30T11:24:46.001Z</time></trkpt><trkpt lat="31.28392124061352" lon="-4.323603372210466"><ele>755.0</ele><time>2026-04-30T11:24:47.001Z</time></trkpt><trkpt lat="31.284051828653926" lon="-4.323481602431906"><ele>754.6666666666666</ele><time>2026-04-30T11:24:48.001Z</time></trkpt><trkpt lat="31.28418478546864" lon="-4.323360256358186"><ele>754.3333333333334</ele><time>2026-04-30T11:24:49.001Z</time></trkpt><trkpt lat="31.28431516016039" lon="-4.323240391842038"><ele>754.0</ele><time>2026-04-30T11:24:50.001Z</time></trkpt><trkpt lat="31.284452046120666" lon="-4.323126627372261"><ele>754.0</ele><time>2026-04-30T11:24:51.001Z</time></trkpt><trkpt lat="31.284582558915016" lon="-4.323000520175956"><ele>754.0</ele><time>2026-04-30T11:24:52.001Z</time></trkpt><trkpt lat="31.284703363171456" lon="-4.322879640065517"><ele>754.0</ele><time>2026-04-30T11:24:53.001Z</time></trkpt><trkpt lat="31.284821971066975" lon="-4.322748530920334"><ele>754.0</ele><time>2026-04-30T11:24:54.001Z</time></trkpt><trkpt lat="31.28493755746241" lon="-4.322619095553606"><ele>754.0</ele><time>2026-04-30T11:24:55.001Z</time></trkpt><trkpt lat="31.285050444329922" lon="-4.322478617414438"><ele>754.0</ele><time>2026-04-30T11:24:56.001Z</time></trkpt><trkpt lat="31.28514658776875" lon="-4.3223347854286684"><ele>753.6666666666667</ele><time>2026-04-30T11:24:57.001Z</time></trkpt><trkpt lat="31.285246599091842" lon="-4.322186291013862"><ele>753.3333333333334</ele><time>2026-04-30T11:24:58.001Z</time></trkpt><trkpt lat="31.285343858159237" lon="-4.322036512698424"><ele>753.0</ele><time>2026-04-30T11:24:59.001Z</time></trkpt><trkpt lat="31.28544358023723" lon="-4.321884913684201"><ele>753.0</ele><time>2026-04-30T11:25:00.001Z</time></trkpt><trkpt lat="31.285545258277477" lon="-4.321733857680384"><ele>753.0</ele><time>2026-04-30T11:25:01.001Z</time></trkpt><trkpt lat="31.285644954878933" lon="-4.321583445500327"><ele>753.0</ele><time>2026-04-30T11:25:02.001Z</time></trkpt><trkpt lat="31.28574309248198" lon="-4.321430079141134"><ele>752.6666666666666</ele><time>2026-04-30T11:25:03.001Z</time></trkpt><trkpt lat="31.2858403606075" lon="-4.321274113479711"><ele>752.3333333333333</ele><time>2026-04-30T11:25:04.001Z</time></trkpt><trkpt lat="31.28593872273605" lon="-4.32112335742077"><ele>752.0</ele><time>2026-04-30T11:25:05.001Z</time></trkpt><trkpt lat="31.286040176336048" lon="-4.320973115509288"><ele>752.0</ele><time>2026-04-30T11:25:06.001Z</time></trkpt><trkpt lat="31.286141721507065" lon="-4.320822262404145"><ele>752.0</ele><time>2026-04-30T11:25:07.001Z</time></trkpt><trkpt lat="31.28623665348075" lon="-4.320671034878101"><ele>752.0</ele><time>2026-04-30T11:25:08.001Z</time></trkpt><trkpt lat="31.286334181850957" lon="-4.320519071341544"><ele>751.6666666666666</ele><time>2026-04-30T11:25:09.001Z</time></trkpt><trkpt lat="31.286431614346952" lon="-4.320372401200124"><ele>751.3333333333334</ele><time>2026-04-30T11:25:10.001Z</time></trkpt><trkpt lat="31.286527261839776" lon="-4.320230632430871"><ele>751.0</ele><time>2026-04-30T11:25:11.001Z</time></trkpt><trkpt lat="31.28661757502613" lon="-4.3200895225498686"><ele>751.0</ele><time>2026-04-30T11:25:12.001Z</time></trkpt><trkpt lat="31.286704921830534" lon="-4.319946480529564"><ele>751.0</ele><time>2026-04-30T11:25:13.001Z</time></trkpt><trkpt lat="31.286792585020688" lon="-4.319807837822023"><ele>751.0</ele><time>2026-04-30T11:25:14.001Z</time></trkpt><trkpt lat="31.286886323531096" lon="-4.319681507487939"><ele>751.0</ele><time>2026-04-30T11:25:15.001Z</time></trkpt><trkpt lat="31.2869886565546" lon="-4.319555177938752"><ele>752.5</ele><time>2026-04-30T11:25:16.001Z</time></trkpt><trkpt lat="31.287095547408054" lon="-4.31943179618689"><ele>754.0</ele><time>2026-04-30T11:25:17.001Z</time></trkpt><trkpt lat="31.287201782700414" lon="-4.319310200531985"><ele>755.5</ele><time>2026-04-30T11:25:18.001Z</time></trkpt><trkpt lat="31.287307069626948" lon="-4.319186776715355"><ele>757.0</ele><time>2026-04-30T11:25:19.001Z</time></trkpt><trkpt lat="31.287396949444837" lon="-4.319050431720171"><ele>756.3333333333334</ele><time>2026-04-30T11:25:20.001Z</time></trkpt><trkpt lat="31.287473749480537" lon="-4.318898963071724"><ele>755.6666666666666</ele><time>2026-04-30T11:25:21.001Z</time></trkpt><trkpt lat="31.287533979065742" lon="-4.318732553373808"><ele>755.0</ele><time>2026-04-30T11:25:22.001Z</time></trkpt><trkpt lat="31.28757150732337" lon="-4.318556082044465"><ele>755.0</ele><time>2026-04-30T11:25:23.001Z</time></trkpt><trkpt lat="31.28758735317749" lon="-4.318372990728728"><ele>755.0</ele><time>2026-04-30T11:25:24.001Z</time></trkpt><trkpt lat="31.28758922316791" lon="-4.318187771339856"><ele>755.0</ele><time>2026-04-30T11:25:25.001Z</time></trkpt><trkpt lat="31.287582736692748" lon="-4.317998517247666"><ele>755.6666666666666</ele><time>2026-04-30T11:25:26.001Z</time></trkpt><trkpt lat="31.28757938558177" lon="-4.317808446721902"><ele>756.3333333333334</ele><time>2026-04-30T11:25:27.001Z</time></trkpt><trkpt lat="31.28758440981735" lon="-4.317618118999479"><ele>757.0</ele><time>2026-04-30T11:25:28.001Z</time></trkpt><trkpt lat="31.287591179210914" lon="-4.317428050005024"><ele>757.0</ele><time>2026-04-30T11:25:29.001Z</time></trkpt><trkpt lat="31.287598046018587" lon="-4.3172406479233985"><ele>757.0</ele><time>2026-04-30T11:25:30.001Z</time></trkpt><trkpt lat="31.287608521295635" lon="-4.317058502886529"><ele>757.0</ele><time>2026-04-30T11:25:31.001Z</time></trkpt><trkpt lat="31.287616900729613" lon="-4.316887701089208"><ele>757.75</ele><time>2026-04-30T11:25:32.001Z</time></trkpt><trkpt lat="31.287607304315674" lon="-4.316730516929743"><ele>758.5</ele><time>2026-04-30T11:25:33.001Z</time></trkpt><trkpt lat="31.287591631591468" lon="-4.316579514072549"><ele>759.25</ele><time>2026-04-30T11:25:34.001Z</time></trkpt><trkpt lat="31.28759025438844" lon="-4.3164205638508175"><ele>760.0</ele><time>2026-04-30T11:25:35.001Z</time></trkpt><trkpt lat="31.287595837746487" lon="-4.316240914475737"><ele>760.0</ele><time>2026-04-30T11:25:36.001Z</time></trkpt><trkpt lat="31.287602671481263" lon="-4.316037661481255"><ele>760.0</ele><time>2026-04-30T11:25:37.001Z</time></trkpt><trkpt lat="31.28761030039913" lon="-4.3158209312332625"><ele>760.0</ele><time>2026-04-30T11:25:38.001Z</time></trkpt><trkpt lat="31.287614969460908" lon="-4.3155953035659005"><ele>759.6666666666667</ele><time>2026-04-30T11:25:39.001Z</time></trkpt><trkpt lat="31.28761794173315" lon="-4.315366013860485"><ele>759.3333333333334</ele><time>2026-04-30T11:25:40.001Z</time></trkpt><trkpt lat="31.28762131751536" lon="-4.315142372878498"><ele>759.0</ele><time>2026-04-30T11:25:41.001Z</time></trkpt><trkpt lat="31.287624218855616" lon="-4.314921721477781"><ele>759.3333333333334</ele><time>2026-04-30T11:25:42.001Z</time></trkpt><trkpt lat="31.287626509578384" lon="-4.314701430050284"><ele>759.6666666666667</ele><time>2026-04-30T11:25:43.001Z</time></trkpt><trkpt lat="31.287629081989675" lon="-4.314483865537294"><ele>760.0</ele><time>2026-04-30T11:25:44.001Z</time></trkpt><trkpt lat="31.287634222892194" lon="-4.314269460211278"><ele>760.0</ele><time>2026-04-30T11:25:45.001Z</time></trkpt><trkpt lat="31.28763539452313" lon="-4.314055665124088"><ele>760.0</ele><time>2026-04-30T11:25:46.001Z</time></trkpt><trkpt lat="31.287636049706045" lon="-4.313843169640032"><ele>760.0</ele><time>2026-04-30T11:25:47.001Z</time></trkpt><trkpt lat="31.287637759963008" lon="-4.313630291813248"><ele>760.3333333333334</ele><time>2026-04-30T11:25:48.001Z</time></trkpt><trkpt lat="31.28764228147917" lon="-4.31341679269063"><ele>760.6666666666666</ele><time>2026-04-30T11:25:49.001Z</time></trkpt><trkpt lat="31.28764498866096" lon="-4.313204997047247"><ele>761.0</ele><time>2026-04-30T11:25:50.001Z</time></trkpt><trkpt lat="31.287646312912308" lon="-4.31299021603021"><ele>760.3333333333333</ele><time>2026-04-30T11:25:51.001Z</time></trkpt><trkpt lat="31.287646303669213" lon="-4.312778136060522"><ele>759.6666666666666</ele><time>2026-04-30T11:25:52.001Z</time></trkpt><trkpt lat="31.28764823978619" lon="-4.31256571832558"><ele>759.0</ele><time>2026-04-30T11:25:53.001Z</time></trkpt><trkpt lat="31.28764942765053" lon="-4.312354895214194"><ele>758.3333333333334</ele><time>2026-04-30T11:25:54.001Z</time></trkpt><trkpt lat="31.28765258829959" lon="-4.3121440752393"><ele>757.6666666666667</ele><time>2026-04-30T11:25:55.001Z</time></trkpt><trkpt lat="31.28765572840465" lon="-4.3119351087602364"><ele>757.0</ele><time>2026-04-30T11:25:56.001Z</time></trkpt><trkpt lat="31.287658691746447" lon="-4.311726231627183"><ele>757.0</ele><time>2026-04-30T11:25:57.001Z</time></trkpt><trkpt lat="31.28766256134931" lon="-4.311520227967956"><ele>757.0</ele><time>2026-04-30T11:25:58.001Z</time></trkpt><trkpt lat="31.287664856621866" lon="-4.311316060150668"><ele>757.0</ele><time>2026-04-30T11:25:59.001Z</time></trkpt><trkpt lat="31.287668214667157" lon="-4.311112366905419"><ele>757.0</ele><time>2026-04-30T11:26:00.001Z</time></trkpt><trkpt lat="31.287670947551728" lon="-4.3109063614255"><ele>757.0</ele><time>2026-04-30T11:26:01.001Z</time></trkpt><trkpt lat="31.287673399568483" lon="-4.310703228358283"><ele>757.0</ele><time>2026-04-30T11:26:02.001Z</time></trkpt><trkpt lat="31.28767568927373" lon="-4.31049824133313"><ele>757.0</ele><time>2026-04-30T11:26:03.001Z</time></trkpt><trkpt lat="31.28767880888555" lon="-4.310293198988581"><ele>757.0</ele><time>2026-04-30T11:26:04.001Z</time></trkpt><trkpt lat="31.287682713272048" lon="-4.310088379383712"><ele>757.0</ele><time>2026-04-30T11:26:05.001Z</time></trkpt><trkpt lat="31.28768646716772" lon="-4.309881131992589"><ele>757.0</ele><time>2026-04-30T11:26:06.001Z</time></trkpt><trkpt lat="31.287686603061466" lon="-4.3096724385343865"><ele>757.0</ele><time>2026-04-30T11:26:07.001Z</time></trkpt><trkpt lat="31.287688343981614" lon="-4.309460518931028"><ele>757.0</ele><time>2026-04-30T11:26:08.001Z</time></trkpt><trkpt lat="31.287693079487944" lon="-4.309249414453236"><ele>757.0</ele><time>2026-04-30T11:26:09.001Z</time></trkpt><trkpt lat="31.287696494229635" lon="-4.309040375270531"><ele>757.0</ele><time>2026-04-30T11:26:10.001Z</time></trkpt><trkpt lat="31.28769351934567" lon="-4.3088340032237085"><ele>757.0</ele><time>2026-04-30T11:26:11.001Z</time></trkpt><trkpt lat="31.28769356562047" lon="-4.308631063913926"><ele>757.6666666666667</ele><time>2026-04-30T11:26:12.001Z</time></trkpt><trkpt lat="31.287697197142958" lon="-4.3084293815654835"><ele>758.3333333333334</ele><time>2026-04-30T11:26:13.001Z</time></trkpt><trkpt lat="31.2876999505344" lon="-4.308224613467333"><ele>759.0</ele><time>2026-04-30T11:26:14.001Z</time></trkpt><trkpt lat="31.28770280338594" lon="-4.308022930433026"><ele>759.0</ele><time>2026-04-30T11:26:15.001Z</time></trkpt><trkpt lat="31.287706482143268" lon="-4.307817513579235"><ele>759.0</ele><time>2026-04-30T11:26:16.001Z</time></trkpt><trkpt lat="31.287710070238987" lon="-4.307607767012353"><ele>759.0</ele><time>2026-04-30T11:26:17.001Z</time></trkpt><trkpt lat="31.287712772231995" lon="-4.307398117039396"><ele>758.3333333333334</ele><time>2026-04-30T11:26:18.001Z</time></trkpt><trkpt lat="31.2877159744431" lon="-4.307183527867731"><ele>757.6666666666667</ele><time>2026-04-30T11:26:19.001Z</time></trkpt><trkpt lat="31.28771931427936" lon="-4.306966500668713"><ele>757.0</ele><time>2026-04-30T11:26:20.001Z</time></trkpt><trkpt lat="31.28772272980532" lon="-4.306753292346314"><ele>757.0</ele><time>2026-04-30T11:26:21.001Z</time></trkpt><trkpt lat="31.287723237167732" lon="-4.3065372965597755"><ele>757.0</ele><time>2026-04-30T11:26:22.001Z</time></trkpt><trkpt lat="31.287727831302966" lon="-4.30632107034959"><ele>757.0</ele><time>2026-04-30T11:26:23.001Z</time></trkpt><trkpt lat="31.28773031753175" lon="-4.306102048796506"><ele>757.0</ele><time>2026-04-30T11:26:24.001Z</time></trkpt><trkpt lat="31.28773768573978" lon="-4.305884216181195"><ele>757.0</ele><time>2026-04-30T11:26:25.001Z</time></trkpt><trkpt lat="31.28773681871694" lon="-4.305667208280062"><ele>757.0</ele><time>2026-04-30T11:26:26.001Z</time></trkpt><trkpt lat="31.287737694729458" lon="-4.305447714731303"><ele>757.0</ele><time>2026-04-30T11:26:27.001Z</time></trkpt><trkpt lat="31.287739709220975" lon="-4.305224807708237"><ele>757.0</ele><time>2026-04-30T11:26:28.001Z</time></trkpt><trkpt lat="31.287744538306626" lon="-4.305004166273447"><ele>757.0</ele><time>2026-04-30T11:26:29.001Z</time></trkpt><trkpt lat="31.28775021167088" lon="-4.304785266824593"><ele>756.6666666666667</ele><time>2026-04-30T11:26:30.001Z</time></trkpt><trkpt lat="31.28775269455837" lon="-4.3045640869221105"><ele>756.3333333333334</ele><time>2026-04-30T11:26:31.001Z</time></trkpt><trkpt lat="31.28775500941015" lon="-4.304340072806084"><ele>756.0</ele><time>2026-04-30T11:26:32.001Z</time></trkpt><trkpt lat="31.287756524624633" lon="-4.3041215446133485"><ele>756.3333333333334</ele><time>2026-04-30T11:26:33.001Z</time></trkpt><trkpt lat="31.287753907972647" lon="-4.303896197759252"><ele>756.6666666666667</ele><time>2026-04-30T11:26:34.001Z</time></trkpt><trkpt lat="31.287757189262695" lon="-4.303675058882684"><ele>757.0</ele><time>2026-04-30T11:26:35.001Z</time></trkpt><trkpt lat="31.287760001154165" lon="-4.303449665563273"><ele>757.0</ele><time>2026-04-30T11:26:36.001Z</time></trkpt><trkpt lat="31.28776422928559" lon="-4.3032292231220355"><ele>757.0</ele><time>2026-04-30T11:26:37.001Z</time></trkpt><trkpt lat="31.28776623025706" lon="-4.303005920872643"><ele>757.0</ele><time>2026-04-30T11:26:38.001Z</time></trkpt><trkpt lat="31.2877718800618" lon="-4.302784866646524"><ele>757.3333333333334</ele><time>2026-04-30T11:26:39.001Z</time></trkpt><trkpt lat="31.287773660710453" lon="-4.302562393830712"><ele>757.6666666666666</ele><time>2026-04-30T11:26:40.001Z</time></trkpt><trkpt lat="31.28777327184045" lon="-4.302341519873704"><ele>758.0</ele><time>2026-04-30T11:26:41.001Z</time></trkpt><trkpt lat="31.28777674095702" lon="-4.302121011735219"><ele>758.0</ele><time>2026-04-30T11:26:42.001Z</time></trkpt><trkpt lat="31.2877801338879" lon="-4.301902390898125"><ele>758.0</ele><time>2026-04-30T11:26:43.001Z</time></trkpt><trkpt lat="31.287782893091475" lon="-4.301681409190125"><ele>758.0</ele><time>2026-04-30T11:26:44.001Z</time></trkpt><trkpt lat="31.28778754213705" lon="-4.301465084177342"><ele>757.0</ele><time>2026-04-30T11:26:45Z</time></trkpt><trkpt lat="31.2877883087164" lon="-4.301251775878003"><ele>756.0</ele><time>2026-04-30T11:26:46Z</time></trkpt><trkpt lat="31.287790221228583" lon="-4.301037921557278"><ele>755.0</ele><time>2026-04-30T11:26:47Z</time></trkpt><trkpt lat="31.287793226719444" lon="-4.3008259598635465"><ele>755.0</ele><time>2026-04-30T11:26:48Z</time></trkpt><trkpt lat="31.28779606706121" lon="-4.300616383890229"><ele>755.0</ele><time>2026-04-30T11:26:49Z</time></trkpt><trkpt lat="31.287798450233616" lon="-4.300412278660016"><ele>755.0</ele><time>2026-04-30T11:26:50Z</time></trkpt><trkpt lat="31.28780568804737" lon="-4.3002180468032885"><ele>755.6666666666666</ele><time>2026-04-30T11:26:51Z</time></trkpt><trkpt lat="31.287813820541942" lon="-4.300029098563803"><ele>756.3333333333334</ele><time>2026-04-30T11:26:52Z</time></trkpt><trkpt lat="31.287815940212745" lon="-4.299845617441365"><ele>757.0</ele><time>2026-04-30T11:26:53Z</time></trkpt><trkpt lat="31.28781309938719" lon="-4.299658888004216"><ele>757.6666666666667</ele><time>2026-04-30T11:26:54Z</time></trkpt><trkpt lat="31.287811516153997" lon="-4.299467628708189"><ele>758.3333333333334</ele><time>2026-04-30T11:26:55Z</time></trkpt><trkpt lat="31.287810745681032" lon="-4.299273112513411"><ele>759.0</ele><time>2026-04-30T11:26:56Z</time></trkpt><trkpt lat="31.287812375764084" lon="-4.2990769881912065"><ele>759.0</ele><time>2026-04-30T11:26:57Z</time></trkpt><trkpt lat="31.287815301325573" lon="-4.298884162306978"><ele>759.0</ele><time>2026-04-30T11:26:58Z</time></trkpt><trkpt lat="31.287820762990705" lon="-4.298695477172436"><ele>759.0</ele><time>2026-04-30T11:26:59Z</time></trkpt><trkpt lat="31.287830228051174" lon="-4.298488657656063"><ele>759.0</ele><time>2026-04-30T11:27:00Z</time></trkpt><trkpt lat="31.28783368906061" lon="-4.298291208591154"><ele>759.0</ele><time>2026-04-30T11:27:01Z</time></trkpt><trkpt lat="31.287830700728072" lon="-4.2980862266986675"><ele>759.0</ele><time>2026-04-30T11:27:02Z</time></trkpt><trkpt lat="31.287836835655284" lon="-4.2978874637398174"><ele>758.3333333333334</ele><time>2026-04-30T11:27:03Z</time></trkpt><trkpt lat="31.287832366327773" lon="-4.297683652210117"><ele>757.6666666666667</ele><time>2026-04-30T11:27:04Z</time></trkpt><trkpt lat="31.287831029446714" lon="-4.297479358051113"><ele>757.0</ele><time>2026-04-30T11:27:05Z</time></trkpt><trkpt lat="31.28783154219747" lon="-4.297278482698318"><ele>757.6666666666667</ele><time>2026-04-30T11:27:06Z</time></trkpt><trkpt lat="31.28783433759173" lon="-4.29707307635104"><ele>758.3333333333334</ele><time>2026-04-30T11:27:07Z</time></trkpt><trkpt lat="31.287838289665793" lon="-4.296874117232383"><ele>759.0</ele><time>2026-04-30T11:27:08Z</time></trkpt><trkpt lat="31.287842498550837" lon="-4.296674125175706"><ele>759.0</ele><time>2026-04-30T11:27:09Z</time></trkpt><trkpt lat="31.28785148793439" lon="-4.296473369971924"><ele>759.0</ele><time>2026-04-30T11:27:10Z</time></trkpt><trkpt lat="31.287853907953966" lon="-4.296272345300985"><ele>759.0</ele><time>2026-04-30T11:27:11Z</time></trkpt><trkpt lat="31.28785624941453" lon="-4.2960718333948185"><ele>759.0</ele><time>2026-04-30T11:27:12Z</time></trkpt><trkpt lat="31.287855681626343" lon="-4.29587377085305"><ele>759.0</ele><time>2026-04-30T11:27:13Z</time></trkpt><trkpt lat="31.28785882817101" lon="-4.295669111964395"><ele>759.0</ele><time>2026-04-30T11:27:14Z</time></trkpt><trkpt lat="31.28786223949608" lon="-4.295468565759273"><ele>758.6666666666666</ele><time>2026-04-30T11:27:15Z</time></trkpt><trkpt lat="31.28786560705218" lon="-4.2952692696871315"><ele>758.3333333333333</ele><time>2026-04-30T11:27:16Z</time></trkpt><trkpt lat="31.287864494746263" lon="-4.295072163028447"><ele>758.0</ele><time>2026-04-30T11:27:17Z</time></trkpt><trkpt lat="31.287867185978623" lon="-4.294869206325818"><ele>758.3333333333333</ele><time>2026-04-30T11:27:18Z</time></trkpt><trkpt lat="31.28786877636776" lon="-4.2946737137885265"><ele>758.6666666666666</ele><time>2026-04-30T11:27:19Z</time></trkpt><trkpt lat="31.287869352571875" lon="-4.294474849584496"><ele>759.0</ele><time>2026-04-30T11:27:20Z</time></trkpt><trkpt lat="31.287873023006387" lon="-4.294275497237163"><ele>759.0</ele><time>2026-04-30T11:27:21Z</time></trkpt><trkpt lat="31.287877699182356" lon="-4.294079790351197"><ele>759.0</ele><time>2026-04-30T11:27:22Z</time></trkpt><trkpt lat="31.287882106845775" lon="-4.29388452813294"><ele>759.0</ele><time>2026-04-30T11:27:23Z</time></trkpt><trkpt lat="31.287884084110612" lon="-4.293688103876343"><ele>759.0</ele><time>2026-04-30T11:27:24Z</time></trkpt><trkpt lat="31.287884883276096" lon="-4.293490924610349"><ele>759.0</ele><time>2026-04-30T11:27:25Z</time></trkpt><trkpt lat="31.28788690931701" lon="-4.293295939202318"><ele>759.0</ele><time>2026-04-30T11:27:26Z</time></trkpt><trkpt lat="31.287889162142864" lon="-4.293095559795893"><ele>758.6666666666666</ele><time>2026-04-30T11:27:27Z</time></trkpt><trkpt lat="31.287893116301976" lon="-4.2928970673777505"><ele>758.3333333333333</ele><time>2026-04-30T11:27:28Z</time></trkpt><trkpt lat="31.28789559181655" lon="-4.2927005539755845"><ele>758.0</ele><time>2026-04-30T11:27:29Z</time></trkpt><trkpt lat="31.287896671289747" lon="-4.29250647567629"><ele>758.0</ele><time>2026-04-30T11:27:30Z</time></trkpt><trkpt lat="31.28789898047128" lon="-4.292311282486435"><ele>758.0</ele><time>2026-04-30T11:27:31Z</time></trkpt><trkpt lat="31.28789789103995" lon="-4.292120081395468"><ele>758.0</ele><time>2026-04-30T11:27:32Z</time></trkpt><trkpt lat="31.287903668766287" lon="-4.291941330146717"><ele>758.5</ele><time>2026-04-30T11:27:33Z</time></trkpt><trkpt lat="31.2879075643921" lon="-4.291769523215429"><ele>759.0</ele><time>2026-04-30T11:27:34Z</time></trkpt><trkpt lat="31.28791105929397" lon="-4.291602717952573"><ele>759.5</ele><time>2026-04-30T11:27:35Z</time></trkpt><trkpt lat="31.287913212336022" lon="-4.2914389456581254"><ele>760.0</ele><time>2026-04-30T11:27:36Z</time></trkpt><trkpt lat="31.287916102529696" lon="-4.291280987927125"><ele>760.25</ele><time>2026-04-30T11:27:37Z</time></trkpt><trkpt lat="31.28792134750734" lon="-4.291128621250665"><ele>760.5</ele><time>2026-04-30T11:27:38Z</time></trkpt><trkpt lat="31.287926387746268" lon="-4.290982493393507"><ele>760.75</ele><time>2026-04-30T11:27:39Z</time></trkpt><trkpt lat="31.28792974161303" lon="-4.290855123852675"><ele>761.0</ele><time>2026-04-30T11:27:40Z</time></trkpt><trkpt lat="31.28793061380349" lon="-4.290745935508945"><ele>761.0</ele><time>2026-04-30T11:27:41Z</time></trkpt><trkpt lat="31.28793355775994" lon="-4.290653711959722"><ele>761.0</ele><time>2026-04-30T11:27:42Z</time></trkpt><trkpt lat="31.287933914426112" lon="-4.290577026196239"><ele>761.0</ele><time>2026-04-30T11:27:43Z</time></trkpt><trkpt lat="31.287922202126186" lon="-4.290504019571767"><ele>761.0</ele><time>2026-04-30T11:27:44Z</time></trkpt><trkpt lat="31.287854286704125" lon="-4.290396947637306"><ele>761.0</ele><time>2026-04-30T11:27:46Z</time></trkpt><trkpt lat="31.28777672498946" lon="-4.29035187693325"><ele>761.0</ele><time>2026-04-30T11:27:47Z</time></trkpt><trkpt lat="31.287673959391004" lon="-4.290308059533868"><ele>761.0</ele><time>2026-04-30T11:27:48Z</time></trkpt><trkpt lat="31.287563206700394" lon="-4.29025608204969"><ele>761.0</ele><time>2026-04-30T11:27:49Z</time></trkpt><trkpt lat="31.287459726123018" lon="-4.290206721640342"><ele>761.0</ele><time>2026-04-30T11:27:50Z</time></trkpt><trkpt lat="31.28734672435264" lon="-4.290144431972196"><ele>761.0</ele><time>2026-04-30T11:27:51Z</time></trkpt><trkpt lat="31.28721946149425" lon="-4.290074467451264"><ele>761.25</ele><time>2026-04-30T11:27:52Z</time></trkpt><trkpt lat="31.287089776336913" lon="-4.289997503874292"><ele>761.5</ele><time>2026-04-30T11:27:53Z</time></trkpt><trkpt lat="31.28696377385671" lon="-4.289924234486255"><ele>761.75</ele><time>2026-04-30T11:27:54Z</time></trkpt><trkpt lat="31.28682798427152" lon="-4.289850828429905"><ele>762.0</ele><time>2026-04-30T11:27:55Z</time></trkpt><trkpt lat="31.286685584607746" lon="-4.289774533199765"><ele>761.6666666666666</ele><time>2026-04-30T11:27:56Z</time></trkpt><trkpt lat="31.286541804139297" lon="-4.289693720749452"><ele>761.3333333333333</ele><time>2026-04-30T11:27:57Z</time></trkpt><trkpt lat="31.2863924203528" lon="-4.289614610381347"><ele>761.0</ele><time>2026-04-30T11:27:58Z</time></trkpt><trkpt lat="31.286242440509362" lon="-4.2895342370949425"><ele>761.0</ele><time>2026-04-30T11:27:59Z</time></trkpt><trkpt lat="31.286091380615918" lon="-4.289453453160734"><ele>761.0</ele><time>2026-04-30T11:28:00Z</time></trkpt><trkpt lat="31.285938171233827" lon="-4.28936853822821"><ele>761.0</ele><time>2026-04-30T11:28:01Z</time></trkpt><trkpt lat="31.28578997821667" lon="-4.289290466924642"><ele>761.0</ele><time>2026-04-30T11:28:02Z</time></trkpt><trkpt lat="31.285640812165152" lon="-4.289208396084517"><ele>761.0</ele><time>2026-04-30T11:28:03Z</time></trkpt><trkpt lat="31.28548733245851" lon="-4.289131209186014"><ele>761.0</ele><time>2026-04-30T11:28:04Z</time></trkpt><trkpt lat="31.285330598708047" lon="-4.289046139650108"><ele>761.0</ele><time>2026-04-30T11:28:05Z</time></trkpt><trkpt lat="31.28517453023098" lon="-4.288961059441267"><ele>761.0</ele><time>2026-04-30T11:28:06Z</time></trkpt><trkpt lat="31.28501419813909" lon="-4.288877796816458"><ele>761.0</ele><time>2026-04-30T11:28:07Z</time></trkpt><trkpt lat="31.28485495493745" lon="-4.288797450211331"><ele>761.0</ele><time>2026-04-30T11:28:08Z</time></trkpt><trkpt lat="31.28469305498237" lon="-4.288724761371622"><ele>761.0</ele><time>2026-04-30T11:28:09Z</time></trkpt><trkpt lat="31.2845253673464" lon="-4.28864894292082"><ele>761.0</ele><time>2026-04-30T11:28:10Z</time></trkpt><trkpt lat="31.284355361509498" lon="-4.288580321685479"><ele>761.0</ele><time>2026-04-30T11:28:11Z</time></trkpt><trkpt lat="31.28417939118738" lon="-4.288518058045024"><ele>761.0</ele><time>2026-04-30T11:28:12Z</time></trkpt><trkpt lat="31.284007282201877" lon="-4.288454518581877"><ele>761.0</ele><time>2026-04-30T11:28:13Z</time></trkpt><trkpt lat="31.283831669131025" lon="-4.28838753169624"><ele>761.0</ele><time>2026-04-30T11:28:14Z</time></trkpt><trkpt lat="31.283660776539868" lon="-4.288319202150925"><ele>761.0</ele><time>2026-04-30T11:28:15Z</time></trkpt><trkpt lat="31.283489982652394" lon="-4.288252606860407"><ele>761.0</ele><time>2026-04-30T11:28:16Z</time></trkpt><trkpt lat="31.283320174826336" lon="-4.288189644447459"><ele>761.0</ele><time>2026-04-30T11:28:17Z</time></trkpt><trkpt lat="31.283149607574895" lon="-4.288129191263491"><ele>761.0</ele><time>2026-04-30T11:28:18Z</time></trkpt><trkpt lat="31.28297890055598" lon="-4.2880677568121195"><ele>761.0</ele><time>2026-04-30T11:28:19Z</time></trkpt><trkpt lat="31.282819141959116" lon="-4.288003346964055"><ele>761.6666666666666</ele><time>2026-04-30T11:28:20Z</time></trkpt><trkpt lat="31.282654928577116" lon="-4.287934636727769"><ele>762.3333333333334</ele><time>2026-04-30T11:28:21Z</time></trkpt><trkpt lat="31.282493587468384" lon="-4.2878733362722175"><ele>763.0</ele><time>2026-04-30T11:28:22Z</time></trkpt><trkpt lat="31.282333703958717" lon="-4.287813957138535"><ele>763.0</ele><time>2026-04-30T11:28:23Z</time></trkpt><trkpt lat="31.282170639408015" lon="-4.287752654378403"><ele>763.0</ele><time>2026-04-30T11:28:24Z</time></trkpt><trkpt lat="31.282009881192025" lon="-4.287695103742558"><ele>763.0</ele><time>2026-04-30T11:28:25Z</time></trkpt><trkpt lat="31.2818470740726" lon="-4.2876296414492785"><ele>763.0</ele><time>2026-04-30T11:28:26Z</time></trkpt><trkpt lat="31.281688756860245" lon="-4.287563210077056"><ele>763.0</ele><time>2026-04-30T11:28:27Z</time></trkpt><trkpt lat="31.281534354724933" lon="-4.287495083196528"><ele>763.0</ele><time>2026-04-30T11:28:28Z</time></trkpt><trkpt lat="31.281377832953705" lon="-4.287429069571128"><ele>762.0</ele><time>2026-04-30T11:28:29Z</time></trkpt><trkpt lat="31.281220794186485" lon="-4.2873632091101355"><ele>761.0</ele><time>2026-04-30T11:28:30Z</time></trkpt><trkpt lat="31.281066665181555" lon="-4.287299743679832"><ele>760.0</ele><time>2026-04-30T11:28:31Z</time></trkpt><trkpt lat="31.280905499836233" lon="-4.2872431653580545"><ele>760.0</ele><time>2026-04-30T11:28:32Z</time></trkpt><trkpt lat="31.280728837780295" lon="-4.287210490625748"><ele>760.0</ele><time>2026-04-30T11:28:33Z</time></trkpt><trkpt lat="31.28055649001919" lon="-4.287173159934688"><ele>760.0</ele><time>2026-04-30T11:28:34Z</time></trkpt><trkpt lat="31.280440178985135" lon="-4.287063434273393"><ele>760.0</ele><time>2026-04-30T11:28:35Z</time></trkpt><trkpt lat="31.280285036226793" lon="-4.287005031865547"><ele>760.0</ele><time>2026-04-30T11:28:36Z</time></trkpt><trkpt lat="31.280129739109714" lon="-4.286957641327269"><ele>760.0</ele><time>2026-04-30T11:28:37Z</time></trkpt><trkpt lat="31.279975971029714" lon="-4.286910470169003"><ele>760.0</ele><time>2026-04-30T11:28:38Z</time></trkpt><trkpt lat="31.279829605882288" lon="-4.286864973342947"><ele>760.0</ele><time>2026-04-30T11:28:39Z</time></trkpt><trkpt lat="31.27968203891414" lon="-4.286821071039376"><ele>760.0</ele><time>2026-04-30T11:28:40Z</time></trkpt><trkpt lat="31.279534571019763" lon="-4.286775995760839"><ele>759.5</ele><time>2026-04-30T11:28:41Z</time></trkpt><trkpt lat="31.27938979518647" lon="-4.286730633152132"><ele>759.0</ele><time>2026-04-30T11:28:42Z</time></trkpt><trkpt lat="31.2792481508755" lon="-4.286687677559728"><ele>758.5</ele><time>2026-04-30T11:28:43Z</time></trkpt><trkpt lat="31.27910991962989" lon="-4.2866448553476495"><ele>758.0</ele><time>2026-04-30T11:28:44Z</time></trkpt><trkpt lat="31.278976304264198" lon="-4.286599777126608"><ele>758.75</ele><time>2026-04-30T11:28:45Z</time></trkpt><trkpt lat="31.27884282200041" lon="-4.286549293292067"><ele>759.5</ele><time>2026-04-30T11:28:46Z</time></trkpt><trkpt lat="31.278713008565713" lon="-4.286498691514469"><ele>760.25</ele><time>2026-04-30T11:28:47Z</time></trkpt><trkpt lat="31.278586955002943" lon="-4.2864528814065155"><ele>761.0</ele><time>2026-04-30T11:28:48Z</time></trkpt><trkpt lat="31.27846829300223" lon="-4.2864064166044775"><ele>761.1999999999999</ele><time>2026-04-30T11:28:49Z</time></trkpt><trkpt lat="31.27835629704288" lon="-4.286349244124427"><ele>761.4</ele><time>2026-04-30T11:28:50Z</time></trkpt><trkpt lat="31.27825044949767" lon="-4.286283117795417"><ele>761.6</ele><time>2026-04-30T11:28:51Z</time></trkpt><trkpt lat="31.278152609117406" lon="-4.286232425834436"><ele>761.8</ele><time>2026-04-30T11:28:52Z</time></trkpt><trkpt lat="31.278056530967536" lon="-4.286210674844715"><ele>762.0</ele><time>2026-04-30T11:28:53Z</time></trkpt><trkpt lat="31.27796717484858" lon="-4.2862019486886815"><ele>761.6666666666666</ele><time>2026-04-30T11:28:54Z</time></trkpt><trkpt lat="31.277887399054677" lon="-4.286175858901201"><ele>761.3333333333334</ele><time>2026-04-30T11:28:55Z</time></trkpt><trkpt lat="31.277827201150327" lon="-4.286119795855895"><ele>761.0</ele><time>2026-04-30T11:28:56Z</time></trkpt><trkpt lat="31.277789872938556" lon="-4.286037484415705"><ele>760.6666666666667</ele><time>2026-04-30T11:28:57Z</time></trkpt><trkpt lat="31.277783199673774" lon="-4.285948081766086"><ele>760.3333333333334</ele><time>2026-04-30T11:28:58Z</time></trkpt><trkpt lat="31.277796640884148" lon="-4.285850092210428"><ele>760.0</ele><time>2026-04-30T11:28:59Z</time></trkpt><trkpt lat="31.27780874971029" lon="-4.285744935413327"><ele>760.0</ele><time>2026-04-30T11:29:00Z</time></trkpt><trkpt lat="31.27780674313327" lon="-4.28563034379083"><ele>760.0</ele><time>2026-04-30T11:29:01Z</time></trkpt><trkpt lat="31.277798926706726" lon="-4.2855149012164"><ele>760.0</ele><time>2026-04-30T11:29:02Z</time></trkpt><trkpt lat="31.27779332812884" lon="-4.28540052231195"><ele>760.0</ele><time>2026-04-30T11:29:03Z</time></trkpt><trkpt lat="31.27778637888808" lon="-4.285285852814967"><ele>760.0</ele><time>2026-04-30T11:29:04Z</time></trkpt><trkpt lat="31.277785412175074" lon="-4.285169441163955"><ele>760.0</ele><time>2026-04-30T11:29:05Z</time></trkpt><trkpt lat="31.277789385591348" lon="-4.2850399289312735"><ele>760.0</ele><time>2026-04-30T11:29:06Z</time></trkpt><trkpt lat="31.277794494756805" lon="-4.284904507932785"><ele>760.0</ele><time>2026-04-30T11:29:07Z</time></trkpt><trkpt lat="31.277798016013346" lon="-4.284772539709798"><ele>760.0</ele><time>2026-04-30T11:29:08Z</time></trkpt><trkpt lat="31.277796375663566" lon="-4.284639350685365"><ele>760.25</ele><time>2026-04-30T11:29:09Z</time></trkpt><trkpt lat="31.277797768479115" lon="-4.284499975620756"><ele>760.5</ele><time>2026-04-30T11:29:10Z</time></trkpt><trkpt lat="31.277809161184393" lon="-4.284354616269294"><ele>760.75</ele><time>2026-04-30T11:29:11Z</time></trkpt><trkpt lat="31.27782480952672" lon="-4.284207105317389"><ele>761.0</ele><time>2026-04-30T11:29:12Z</time></trkpt><trkpt lat="31.27783286314448" lon="-4.284062892958635"><ele>761.25</ele><time>2026-04-30T11:29:13Z</time></trkpt><trkpt lat="31.277839550025508" lon="-4.283926406282356"><ele>761.5</ele><time>2026-04-30T11:29:14Z</time></trkpt><trkpt lat="31.277849802047836" lon="-4.283786932905373"><ele>761.75</ele><time>2026-04-30T11:29:15Z</time></trkpt><trkpt lat="31.27786090844944" lon="-4.283642432029102"><ele>762.0</ele><time>2026-04-30T11:29:16Z</time></trkpt><trkpt lat="31.277866435530946" lon="-4.283491116015989"><ele>762.0</ele><time>2026-04-30T11:29:17Z</time></trkpt><trkpt lat="31.277876314166512" lon="-4.283338935420386"><ele>762.0</ele><time>2026-04-30T11:29:18Z</time></trkpt><trkpt lat="31.277885842345032" lon="-4.283183839639431"><ele>762.0</ele><time>2026-04-30T11:29:19Z</time></trkpt><trkpt lat="31.277894104146316" lon="-4.2830313759793786"><ele>762.0</ele><time>2026-04-30T11:29:20Z</time></trkpt><trkpt lat="31.27790073096318" lon="-4.282884957734802"><ele>762.0</ele><time>2026-04-30T11:29:21Z</time></trkpt><trkpt lat="31.27790495925717" lon="-4.282744267358994"><ele>762.0</ele><time>2026-04-30T11:29:22Z</time></trkpt><trkpt lat="31.277915991838675" lon="-4.282618706818131"><ele>762.0</ele><time>2026-04-30T11:29:23Z</time></trkpt><trkpt lat="31.27792314683826" lon="-4.282496443836723"><ele>762.0</ele><time>2026-04-30T11:29:24Z</time></trkpt><trkpt lat="31.277930577402607" lon="-4.282381487728334"><ele>762.0</ele><time>2026-04-30T11:29:25Z</time></trkpt><trkpt lat="31.27793835153936" lon="-4.282271838558186"><ele>761.8333333333334</ele><time>2026-04-30T11:29:26Z</time></trkpt><trkpt lat="31.277944009362326" lon="-4.282164145819435"><ele>761.6666666666666</ele><time>2026-04-30T11:29:27Z</time></trkpt><trkpt lat="31.277948846280772" lon="-4.282060209816681"><ele>761.5</ele><time>2026-04-30T11:29:28Z</time></trkpt><trkpt lat="31.27795441244131" lon="-4.281965087353389"><ele>761.3333333333333</ele><time>2026-04-30T11:29:29Z</time></trkpt><trkpt lat="31.277960048673975" lon="-4.281877529078936"><ele>761.1666666666666</ele><time>2026-04-30T11:29:30Z</time></trkpt><trkpt lat="31.277966232308916" lon="-4.281790466911032"><ele>761.0</ele><time>2026-04-30T11:29:31Z</time></trkpt><trkpt lat="31.277971972661717" lon="-4.281705466109013"><ele>761.0</ele><time>2026-04-30T11:29:32Z</time></trkpt><trkpt lat="31.277978379407084" lon="-4.281627307615349"><ele>761.0</ele><time>2026-04-30T11:29:33Z</time></trkpt><trkpt lat="31.277991276892024" lon="-4.281523130757989"><ele>761.0</ele><time>2026-04-30T11:29:35Z</time></trkpt><trkpt lat="31.277999547713936" lon="-4.28141876310966"><ele>761.0</ele><time>2026-04-30T11:29:38Z</time></trkpt><trkpt lat="31.278010124957138" lon="-4.281292990426185"><ele>761.0</ele><time>2026-04-30T11:29:41Z</time></trkpt><trkpt lat="31.27803746511154" lon="-4.28114941130511"><ele>760.8333333333333</ele><time>2026-04-30T11:29:43Z</time></trkpt><trkpt lat="31.278054739044848" lon="-4.281065333336924"><ele>760.6666666666666</ele><time>2026-04-30T11:29:44Z</time></trkpt><trkpt lat="31.278064439164652" lon="-4.280970801697528"><ele>760.5</ele><time>2026-04-30T11:29:45Z</time></trkpt><trkpt lat="31.27807194808678" lon="-4.280875737556867"><ele>760.3333333333334</ele><time>2026-04-30T11:29:46Z</time></trkpt><trkpt lat="31.278074863886932" lon="-4.280772402211856"><ele>760.1666666666667</ele><time>2026-04-30T11:29:47Z</time></trkpt><trkpt lat="31.278076996900563" lon="-4.280654322825099"><ele>760.0</ele><time>2026-04-30T11:29:48Z</time></trkpt><trkpt lat="31.278086244192096" lon="-4.280525395804875"><ele>760.0</ele><time>2026-04-30T11:29:49Z</time></trkpt><trkpt lat="31.27809968153169" lon="-4.280396525015457"><ele>760.0</ele><time>2026-04-30T11:29:50Z</time></trkpt><trkpt lat="31.278114958830265" lon="-4.280272174608863"><ele>760.0</ele><time>2026-04-30T11:29:51Z</time></trkpt><trkpt lat="31.278131296189184" lon="-4.280143121541319"><ele>760.0</ele><time>2026-04-30T11:29:52Z</time></trkpt><trkpt lat="31.278145788150738" lon="-4.280007202209745"><ele>760.0</ele><time>2026-04-30T11:29:53Z</time></trkpt><trkpt lat="31.27816015034033" lon="-4.279868858422683"><ele>760.25</ele><time>2026-04-30T11:29:54Z</time></trkpt><trkpt lat="31.27817252237346" lon="-4.279726396031798"><ele>760.5</ele><time>2026-04-30T11:29:55Z</time></trkpt><trkpt lat="31.278185571299424" lon="-4.279580906605489"><ele>760.75</ele><time>2026-04-30T11:29:56Z</time></trkpt><trkpt lat="31.278202508696367" lon="-4.279431159156994"><ele>761.0</ele><time>2026-04-30T11:29:57Z</time></trkpt><trkpt lat="31.278214921741895" lon="-4.279277512758366"><ele>761.0</ele><time>2026-04-30T11:29:58Z</time></trkpt><trkpt lat="31.278226442465513" lon="-4.279122111502844"><ele>761.0</ele><time>2026-04-30T11:29:59Z</time></trkpt><trkpt lat="31.27824173517557" lon="-4.27896580016719"><ele>761.0</ele><time>2026-04-30T11:30:00Z</time></trkpt><trkpt lat="31.27826112902643" lon="-4.278808745125132"><ele>761.0</ele><time>2026-04-30T11:30:01Z</time></trkpt><trkpt lat="31.27828251900892" lon="-4.2786629819895685"><ele>760.8</ele><time>2026-04-30T11:30:02Z</time></trkpt><trkpt lat="31.27830343757676" lon="-4.27852689624018"><ele>760.5999999999999</ele><time>2026-04-30T11:30:03Z</time></trkpt><trkpt lat="31.278322388549647" lon="-4.2784019715752635"><ele>760.4</ele><time>2026-04-30T11:30:04Z</time></trkpt><trkpt lat="31.278340794760936" lon="-4.27828347350115"><ele>760.2</ele><time>2026-04-30T11:30:05Z</time></trkpt><trkpt lat="31.278357307226678" lon="-4.278171197552095"><ele>760.0</ele><time>2026-04-30T11:30:06Z</time></trkpt><trkpt lat="31.278371409697176" lon="-4.278066363371352"><ele>760.4</ele><time>2026-04-30T11:30:07Z</time></trkpt><trkpt lat="31.278383937179367" lon="-4.277963861150347"><ele>760.8</ele><time>2026-04-30T11:30:08Z</time></trkpt><trkpt lat="31.27840160103335" lon="-4.277853618164601"><ele>761.2</ele><time>2026-04-30T11:30:09Z</time></trkpt><trkpt lat="31.278424588362373" lon="-4.277737611690473"><ele>761.6</ele><time>2026-04-30T11:30:10Z</time></trkpt><trkpt lat="31.27844866959648" lon="-4.27761795383576"><ele>762.0</ele><time>2026-04-30T11:30:11Z</time></trkpt><trkpt lat="31.278477559713178" lon="-4.277495769911784"><ele>762.0</ele><time>2026-04-30T11:30:12Z</time></trkpt><trkpt lat="31.278511956638877" lon="-4.277371949358496"><ele>762.0</ele><time>2026-04-30T11:30:13Z</time></trkpt><trkpt lat="31.278552231472393" lon="-4.277248515519735"><ele>762.0</ele><time>2026-04-30T11:30:14Z</time></trkpt><trkpt lat="31.278598139927794" lon="-4.277121828090896"><ele>762.0</ele><time>2026-04-30T11:30:15Z</time></trkpt><trkpt lat="31.278652438925178" lon="-4.276992416706029"><ele>762.5</ele><time>2026-04-30T11:30:16Z</time></trkpt><trkpt lat="31.27871101148957" lon="-4.276861801111343"><ele>763.0</ele><time>2026-04-30T11:30:17Z</time></trkpt><trkpt lat="31.278775101396977" lon="-4.2767314649565344"><ele>763.5</ele><time>2026-04-30T11:30:18Z</time></trkpt><trkpt lat="31.278839894738105" lon="-4.27659838382767"><ele>764.0</ele><time>2026-04-30T11:30:19Z</time></trkpt><trkpt lat="31.278904853186262" lon="-4.2764624569778364"><ele>764.25</ele><time>2026-04-30T11:30:20Z</time></trkpt><trkpt lat="31.278967997407268" lon="-4.276321708235243"><ele>764.5</ele><time>2026-04-30T11:30:21Z</time></trkpt><trkpt lat="31.279034540571626" lon="-4.276181619721768"><ele>764.75</ele><time>2026-04-30T11:30:22Z</time></trkpt><trkpt lat="31.27909993290843" lon="-4.276050111643451"><ele>765.0</ele><time>2026-04-30T11:30:23Z</time></trkpt><trkpt lat="31.279162546283995" lon="-4.275929602547393"><ele>765.0</ele><time>2026-04-30T11:30:24Z</time></trkpt><trkpt lat="31.279218149541386" lon="-4.275813239341919"><ele>765.0</ele><time>2026-04-30T11:30:25Z</time></trkpt><trkpt lat="31.27927062869554" lon="-4.275699125653583"><ele>765.0</ele><time>2026-04-30T11:30:26Z</time></trkpt><trkpt lat="31.279326761546315" lon="-4.275592105714724"><ele>765.0</ele><time>2026-04-30T11:30:27Z</time></trkpt><trkpt lat="31.27938177401261" lon="-4.275488087411624"><ele>765.0</ele><time>2026-04-30T11:30:28Z</time></trkpt><trkpt lat="31.279435012492456" lon="-4.275385174227705"><ele>764.6</ele><time>2026-04-30T11:30:29Z</time></trkpt><trkpt lat="31.279487312528644" lon="-4.275286338920478"><ele>764.2</ele><time>2026-04-30T11:30:30Z</time></trkpt><trkpt lat="31.27953833743572" lon="-4.275183451656679"><ele>763.8</ele><time>2026-04-30T11:30:31Z</time></trkpt><trkpt lat="31.279591092546177" lon="-4.275073794907213"><ele>763.4</ele><time>2026-04-30T11:30:32Z</time></trkpt><trkpt lat="31.279644657637693" lon="-4.274958390513771"><ele>763.0</ele><time>2026-04-30T11:30:33Z</time></trkpt><trkpt lat="31.27969914010253" lon="-4.274841758115728"><ele>762.8</ele><time>2026-04-30T11:30:34Z</time></trkpt><trkpt lat="31.279744293327074" lon="-4.274724939103385"><ele>762.5999999999999</ele><time>2026-04-30T11:30:35Z</time></trkpt><trkpt lat="31.27978008997858" lon="-4.274610758090003"><ele>762.4000000000001</ele><time>2026-04-30T11:30:36Z</time></trkpt><trkpt lat="31.279811237443123" lon="-4.27450180287431"><ele>762.2</ele><time>2026-04-30T11:30:37Z</time></trkpt><trkpt lat="31.279849061624578" lon="-4.2744014307537235"><ele>762.0</ele><time>2026-04-30T11:30:38Z</time></trkpt><trkpt lat="31.27990227230817" lon="-4.274314518027827"><ele>762.0</ele><time>2026-04-30T11:30:39Z</time></trkpt><trkpt lat="31.279972069171407" lon="-4.27423151266639"><ele>762.0</ele><time>2026-04-30T11:30:40Z</time></trkpt><trkpt lat="31.28003997917455" lon="-4.2741436554131536"><ele>762.0</ele><time>2026-04-30T11:30:41Z</time></trkpt><trkpt lat="31.28009803746737" lon="-4.274043401967849"><ele>762.0</ele><time>2026-04-30T11:30:42Z</time></trkpt><trkpt lat="31.28015347908247" lon="-4.273938136522809"><ele>762.0</ele><time>2026-04-30T11:30:43Z</time></trkpt><trkpt lat="31.280207173284282" lon="-4.2738297878272355"><ele>762.2</ele><time>2026-04-30T11:30:44Z</time></trkpt><trkpt lat="31.280260024718864" lon="-4.273717423256872"><ele>762.4000000000001</ele><time>2026-04-30T11:30:45Z</time></trkpt><trkpt lat="31.280315548834892" lon="-4.2736046349600185"><ele>762.5999999999999</ele><time>2026-04-30T11:30:46Z</time></trkpt><trkpt lat="31.28037212989214" lon="-4.2734927223188794"><ele>762.8</ele><time>2026-04-30T11:30:47Z</time></trkpt><trkpt lat="31.280428143853545" lon="-4.273376844500988"><ele>763.0</ele><time>2026-04-30T11:30:48Z</time></trkpt><trkpt lat="31.28048492947609" lon="-4.27326815033416"><ele>763.0</ele><time>2026-04-30T11:30:49Z</time></trkpt><trkpt lat="31.280534935649037" lon="-4.273165265937513"><ele>763.0</ele><time>2026-04-30T11:30:50Z</time></trkpt><trkpt lat="31.280583815410942" lon="-4.273066892781289"><ele>763.0</ele><time>2026-04-30T11:30:51Z</time></trkpt><trkpt lat="31.280632260619956" lon="-4.272971856777463"><ele>763.0</ele><time>2026-04-30T11:30:52Z</time></trkpt><trkpt lat="31.28068285224565" lon="-4.272874153539907"><ele>763.0</ele><time>2026-04-30T11:30:53Z</time></trkpt><trkpt lat="31.280736480413832" lon="-4.272775487149476"><ele>762.8</ele><time>2026-04-30T11:30:54Z</time></trkpt><trkpt lat="31.28079549177671" lon="-4.272676815772953"><ele>762.5999999999999</ele><time>2026-04-30T11:30:55Z</time></trkpt><trkpt lat="31.28085792452209" lon="-4.272580995813232"><ele>762.4000000000001</ele><time>2026-04-30T11:30:56Z</time></trkpt><trkpt lat="31.280915824036217" lon="-4.272489262428986"><ele>762.2</ele><time>2026-04-30T11:30:57Z</time></trkpt><trkpt lat="31.28097320842384" lon="-4.272404430239716"><ele>762.0</ele><time>2026-04-30T11:30:58Z</time></trkpt><trkpt lat="31.281032101040164" lon="-4.272323818569351"><ele>761.6</ele><time>2026-04-30T11:30:59Z</time></trkpt><trkpt lat="31.28109044949279" lon="-4.272240282671946"><ele>761.2</ele><time>2026-04-30T11:31:00Z</time></trkpt><trkpt lat="31.281155569946915" lon="-4.272157832805181"><ele>760.8</ele><time>2026-04-30T11:31:01Z</time></trkpt><trkpt lat="31.281218805037597" lon="-4.272080495591266"><ele>760.4</ele><time>2026-04-30T11:31:02Z</time></trkpt><trkpt lat="31.281280237691274" lon="-4.272000951527027"><ele>760.0</ele><time>2026-04-30T11:31:03Z</time></trkpt><trkpt lat="31.281340929708563" lon="-4.271920079045404"><ele>760.0</ele><time>2026-04-30T11:31:04Z</time></trkpt><trkpt lat="31.281402429362444" lon="-4.2718437209157205"><ele>760.0</ele><time>2026-04-30T11:31:05Z</time></trkpt><trkpt lat="31.281462033560462" lon="-4.271770687040446"><ele>760.0</ele><time>2026-04-30T11:31:06Z</time></trkpt><trkpt lat="31.28152080594052" lon="-4.27170401709289"><ele>760.0</ele><time>2026-04-30T11:31:07Z</time></trkpt><trkpt lat="31.281580594156367" lon="-4.271642493341995"><ele>760.0</ele><time>2026-04-30T11:31:08Z</time></trkpt><trkpt lat="31.281640517059756" lon="-4.271579138033397"><ele>760.0</ele><time>2026-04-30T11:31:09Z</time></trkpt><trkpt lat="31.281701890952373" lon="-4.271507486770449"><ele>760.4</ele><time>2026-04-30T11:31:10Z</time></trkpt><trkpt lat="31.28176940321195" lon="-4.271418187733038"><ele>760.8</ele><time>2026-04-30T11:31:11Z</time></trkpt><trkpt lat="31.281834508794123" lon="-4.271322997084756"><ele>761.2</ele><time>2026-04-30T11:31:12Z</time></trkpt><trkpt lat="31.281898923894012" lon="-4.27124469224171"><ele>761.6</ele><time>2026-04-30T11:31:13Z</time></trkpt><trkpt lat="31.28196295743695" lon="-4.2711724985912465"><ele>762.0</ele><time>2026-04-30T11:31:14Z</time></trkpt><trkpt lat="31.282023458964463" lon="-4.271106405322018"><ele>762.0</ele><time>2026-04-30T11:31:15Z</time></trkpt><trkpt lat="31.282082745140475" lon="-4.271041209076016"><ele>762.0</ele><time>2026-04-30T11:31:16Z</time></trkpt><trkpt lat="31.28214366278602" lon="-4.2709708925227226"><ele>762.0</ele><time>2026-04-30T11:31:17Z</time></trkpt><trkpt lat="31.282202705178022" lon="-4.270900641420985"><ele>762.0</ele><time>2026-04-30T11:31:18Z</time></trkpt><trkpt lat="31.282260891500666" lon="-4.270835736635212"><ele>762.0</ele><time>2026-04-30T11:31:19Z</time></trkpt><trkpt lat="31.28231723721368" lon="-4.270773138692903"><ele>762.0</ele><time>2026-04-30T11:31:20Z</time></trkpt><trkpt lat="31.282373200439377" lon="-4.270705663577065"><ele>762.0</ele><time>2026-04-30T11:31:21Z</time></trkpt><trkpt lat="31.282436355602943" lon="-4.270634133810485"><ele>762.0</ele><time>2026-04-30T11:31:22Z</time></trkpt><trkpt lat="31.28250358333117" lon="-4.270559426498771"><ele>762.0</ele><time>2026-04-30T11:31:23Z</time></trkpt><trkpt lat="31.28256758121503" lon="-4.270484326886398"><ele>762.0</ele><time>2026-04-30T11:31:24Z</time></trkpt><trkpt lat="31.282628373252802" lon="-4.270415044779459"><ele>762.0</ele><time>2026-04-30T11:31:25Z</time></trkpt><trkpt lat="31.282689355428083" lon="-4.270350990609938"><ele>762.0</ele><time>2026-04-30T11:31:26Z</time></trkpt><trkpt lat="31.28274804821594" lon="-4.2702817338081225"><ele>762.0</ele><time>2026-04-30T11:31:27Z</time></trkpt><trkpt lat="31.28280682589825" lon="-4.270208409360694"><ele>762.0</ele><time>2026-04-30T11:31:28Z</time></trkpt><trkpt lat="31.28286856823763" lon="-4.270134644492955"><ele>762.0</ele><time>2026-04-30T11:31:29Z</time></trkpt><trkpt lat="31.282930834642276" lon="-4.270063358201025"><ele>762.0</ele><time>2026-04-30T11:31:30Z</time></trkpt><trkpt lat="31.28299348653016" lon="-4.2699923755335565"><ele>762.0</ele><time>2026-04-30T11:31:31Z</time></trkpt><trkpt lat="31.28305660013255" lon="-4.269919958761515"><ele>762.0</ele><time>2026-04-30T11:31:32Z</time></trkpt><trkpt lat="31.28311957530797" lon="-4.269843208605568"><ele>762.0</ele><time>2026-04-30T11:31:33Z</time></trkpt><trkpt lat="31.28318514398979" lon="-4.2697642432356675"><ele>762.0</ele><time>2026-04-30T11:31:34Z</time></trkpt><trkpt lat="31.283254474791814" lon="-4.269687363616055"><ele>762.0</ele><time>2026-04-30T11:31:35Z</time></trkpt><trkpt lat="31.2833173314869" lon="-4.269610946162756"><ele>762.0</ele><time>2026-04-30T11:31:36Z</time></trkpt><trkpt lat="31.28337579748362" lon="-4.269534947985562"><ele>762.0</ele><time>2026-04-30T11:31:37Z</time></trkpt><trkpt lat="31.28343100324134" lon="-4.269462582163891"><ele>762.0</ele><time>2026-04-30T11:31:38Z</time></trkpt><trkpt lat="31.283482958759375" lon="-4.269392173853597"><ele>762.0</ele><time>2026-04-30T11:31:39Z</time></trkpt><trkpt lat="31.283522435646784" lon="-4.269315679887853"><ele>762.0</ele><time>2026-04-30T11:31:40Z</time></trkpt><trkpt lat="31.28355420929128" lon="-4.2692450634714865"><ele>762.0</ele><time>2026-04-30T11:31:41Z</time></trkpt><trkpt lat="31.283594237168384" lon="-4.269126004133839"><ele>762.0</ele><time>2026-04-30T11:31:43Z</time></trkpt><trkpt lat="31.28363544917997" lon="-4.269019662485979"><ele>762.0</ele><time>2026-04-30T11:31:45Z</time></trkpt><trkpt lat="31.28366959986775" lon="-4.268938575276994"><ele>761.5</ele><time>2026-04-30T11:31:47Z</time></trkpt><trkpt lat="31.28370491178637" lon="-4.268849637878353"><ele>761.0</ele><time>2026-04-30T11:31:49Z</time></trkpt><trkpt lat="31.283725354595095" lon="-4.268778681420971"><ele>760.5</ele><time>2026-04-30T11:31:50Z</time></trkpt><trkpt lat="31.283746188882148" lon="-4.268691980557075"><ele>760.0</ele><time>2026-04-30T11:31:51Z</time></trkpt><trkpt lat="31.28376945987445" lon="-4.268582105980792"><ele>759.5</ele><time>2026-04-30T11:31:52Z</time></trkpt><trkpt lat="31.283788724542607" lon="-4.268481580404954"><ele>759.0</ele><time>2026-04-30T11:31:53Z</time></trkpt><trkpt lat="31.2838063629063" lon="-4.268389850086262"><ele>759.0</ele><time>2026-04-30T11:31:54Z</time></trkpt><trkpt lat="31.283821450262643" lon="-4.268302735934032"><ele>759.0</ele><time>2026-04-30T11:31:55Z</time></trkpt><trkpt lat="31.2838214450325" lon="-4.268214845903618"><ele>759.0</ele><time>2026-04-30T11:31:56Z</time></trkpt><trkpt lat="31.28380607710001" lon="-4.268122221881129"><ele>759.0</ele><time>2026-04-30T11:31:57Z</time></trkpt><trkpt lat="31.2837960974711" lon="-4.268015863979146"><ele>759.0</ele><time>2026-04-30T11:31:58Z</time></trkpt><trkpt lat="31.283800629376852" lon="-4.267902018149334"><ele>759.0</ele><time>2026-04-30T11:31:59Z</time></trkpt><trkpt lat="31.283797061192622" lon="-4.26778390332549"><ele>759.0</ele><time>2026-04-30T11:32:00Z</time></trkpt><trkpt lat="31.28379225196514" lon="-4.267667341444869"><ele>759.0</ele><time>2026-04-30T11:32:01Z</time></trkpt><trkpt lat="31.28378883983034" lon="-4.267552974082351"><ele>759.0</ele><time>2026-04-30T11:32:02Z</time></trkpt><trkpt lat="31.283791707437594" lon="-4.267441599270451"><ele>759.0</ele><time>2026-04-30T11:32:03Z</time></trkpt><trkpt lat="31.283791294733476" lon="-4.267329969005728"><ele>759.0</ele><time>2026-04-30T11:32:04Z</time></trkpt><trkpt lat="31.283800529279624" lon="-4.267222524076851"><ele>759.3333333333334</ele><time>2026-04-30T11:32:05Z</time></trkpt><trkpt lat="31.28381701374822" lon="-4.267116538057983"><ele>759.6666666666666</ele><time>2026-04-30T11:32:06Z</time></trkpt><trkpt lat="31.283831933818377" lon="-4.267011802157632"><ele>760.0</ele><time>2026-04-30T11:32:07Z</time></trkpt><trkpt lat="31.283850893758792" lon="-4.266912245122713"><ele>760.3333333333333</ele><time>2026-04-30T11:32:08Z</time></trkpt><trkpt lat="31.28386477007733" lon="-4.2668235516272945"><ele>760.6666666666666</ele><time>2026-04-30T11:32:09Z</time></trkpt><trkpt lat="31.283867505618456" lon="-4.266727842774713"><ele>761.0</ele><time>2026-04-30T11:32:10Z</time></trkpt><trkpt lat="31.283872003369677" lon="-4.266627166936742"><ele>761.0</ele><time>2026-04-30T11:32:11Z</time></trkpt><trkpt lat="31.283869276806602" lon="-4.266520538535946"><ele>761.0</ele><time>2026-04-30T11:32:12Z</time></trkpt><trkpt lat="31.28385732783768" lon="-4.266410188850878"><ele>761.0</ele><time>2026-04-30T11:32:13Z</time></trkpt><trkpt lat="31.283847914073945" lon="-4.266294345596953"><ele>761.0</ele><time>2026-04-30T11:32:14Z</time></trkpt><trkpt lat="31.283844360800007" lon="-4.266175431892758"><ele>761.0</ele><time>2026-04-30T11:32:15Z</time></trkpt><trkpt lat="31.283840563260586" lon="-4.266054674757835"><ele>761.0</ele><time>2026-04-30T11:32:16Z</time></trkpt><trkpt lat="31.283843721883873" lon="-4.265950745831442"><ele>761.0</ele><time>2026-04-30T11:32:17Z</time></trkpt><trkpt lat="31.28382413054149" lon="-4.26583913326228"><ele>761.0</ele><time>2026-04-30T11:32:18Z</time></trkpt><trkpt lat="31.28382604504869" lon="-4.265739074504782"><ele>761.0</ele><time>2026-04-30T11:32:19Z</time></trkpt><trkpt lat="31.28382378069692" lon="-4.265649469361779"><ele>761.0</ele><time>2026-04-30T11:32:20Z</time></trkpt><trkpt lat="31.283814943208" lon="-4.2655619387781964"><ele>761.0</ele><time>2026-04-30T11:32:21Z</time></trkpt><trkpt lat="31.283800123093656" lon="-4.26548898052081"><ele>761.1666666666666</ele><time>2026-04-30T11:32:22Z</time></trkpt><trkpt lat="31.283792998317427" lon="-4.26539928570173"><ele>761.3333333333333</ele><time>2026-04-30T11:32:25Z</time></trkpt><trkpt lat="31.28385204641614" lon="-4.265313837762723"><ele>761.5</ele><time>2026-04-30T11:32:32.999Z</time></trkpt><trkpt lat="31.28392963814155" lon="-4.265318059388493"><ele>761.6666666666666</ele><time>2026-04-30T11:32:35.999Z</time></trkpt><trkpt lat="31.2840123668533" lon="-4.265331992792295"><ele>761.8333333333334</ele><time>2026-04-30T11:32:38.999Z</time></trkpt><trkpt lat="31.284091719820147" lon="-4.2653185722416485"><ele>762.0</ele><time>2026-04-30T11:32:41.999Z</time></trkpt><trkpt lat="31.284164106831597" lon="-4.265317057790167"><ele>762.0</ele><time>2026-04-30T11:32:45Z</time></trkpt><trkpt lat="31.28425719170074" lon="-4.265311101080924"><ele>762.0</ele><time>2026-04-30T11:32:48Z</time></trkpt><trkpt lat="31.28433321154886" lon="-4.265310595989405"><ele>762.0</ele><time>2026-04-30T11:32:50Z</time></trkpt><trkpt lat="31.28442928983447" lon="-4.265307802053826"><ele>762.0</ele><time>2026-04-30T11:32:52Z</time></trkpt><trkpt lat="31.284515892814284" lon="-4.26530500344552"><ele>762.0</ele><time>2026-04-30T11:32:54Z</time></trkpt><trkpt lat="31.284581603702073" lon="-4.2653082214205025"><ele>762.0</ele><time>2026-04-30T11:32:56Z</time></trkpt><trkpt lat="31.284710253446583" lon="-4.265298201108012"><ele>762.2</ele><time>2026-04-30T11:32:58Z</time></trkpt><trkpt lat="31.28480569618105" lon="-4.2652924434822275"><ele>762.4000000000001</ele><time>2026-04-30T11:33:00Z</time></trkpt><trkpt lat="31.284894992252347" lon="-4.2652839841965715"><ele>762.5999999999999</ele><time>2026-04-30T11:33:02Z</time></trkpt><trkpt lat="31.285002651949167" lon="-4.265258176984163"><ele>762.8</ele><time>2026-04-30T11:33:03.999Z</time></trkpt><trkpt lat="31.28509425917247" lon="-4.265226788190466"><ele>763.0</ele><time>2026-04-30T11:33:05.999Z</time></trkpt><trkpt lat="31.285179677631376" lon="-4.265189460200005"><ele>763.0</ele><time>2026-04-30T11:33:07.999Z</time></trkpt><trkpt lat="31.28526142589286" lon="-4.265146056183294"><ele>763.0</ele><time>2026-04-30T11:33:09.999Z</time></trkpt><trkpt lat="31.2853449234229" lon="-4.265086233012316"><ele>763.0</ele><time>2026-04-30T11:33:11.999Z</time></trkpt><trkpt lat="31.285414957697892" lon="-4.265020891268024"><ele>763.0</ele><time>2026-04-30T11:33:13.999Z</time></trkpt><trkpt lat="31.285476121036904" lon="-4.264956880083537"><ele>763.0</ele><time>2026-04-30T11:33:15.999Z</time></trkpt><trkpt lat="31.285522263937544" lon="-4.264889772778669"><ele>763.0</ele><time>2026-04-30T11:33:17.999Z</time></trkpt><trkpt lat="31.285565332618415" lon="-4.264821732590887"><ele>763.2857142857143</ele><time>2026-04-30T11:33:19.999Z</time></trkpt><trkpt lat="31.285611943890007" lon="-4.264746731681035"><ele>763.5714285714286</ele><time>2026-04-30T11:33:21.999Z</time></trkpt><trkpt lat="31.285651046064405" lon="-4.264676658331746"><ele>763.8571428571429</ele><time>2026-04-30T11:33:23.999Z</time></trkpt><trkpt lat="31.285689554595525" lon="-4.264610412277696"><ele>764.1428571428571</ele><time>2026-04-30T11:33:25.999Z</time></trkpt><trkpt lat="31.285733548753864" lon="-4.264548687310961"><ele>764.4285714285714</ele><time>2026-04-30T11:33:27.999Z</time></trkpt><trkpt lat="31.285772410236618" lon="-4.264475434190168"><ele>764.7142857142858</ele><time>2026-04-30T11:33:29.999Z</time></trkpt><trkpt lat="31.285809770698798" lon="-4.264395800105052"><ele>765.0</ele><time>2026-04-30T11:33:31.999Z</time></trkpt><trkpt lat="31.285849239021736" lon="-4.264313905882376"><ele>765.0</ele><time>2026-04-30T11:33:33.999Z</time></trkpt><trkpt lat="31.285889539822637" lon="-4.26423040443273"><ele>765.0</ele><time>2026-04-30T11:33:35.999Z</time></trkpt><trkpt lat="31.285928433958034" lon="-4.264154522884165"><ele>765.0</ele><time>2026-04-30T11:33:37.999Z</time></trkpt><trkpt lat="31.28596625781747" lon="-4.264088126654047"><ele>765.0</ele><time>2026-04-30T11:33:39.999Z</time></trkpt><trkpt lat="31.286000971082366" lon="-4.264022726731968"><ele>765.0</ele><time>2026-04-30T11:33:42.999Z</time></trkpt><trkpt lat="31.286035860948136" lon="-4.263935421357279"><ele>765.0</ele><time>2026-04-30T11:33:45.999Z</time></trkpt><trkpt lat="31.286083031731735" lon="-4.26384465079993"><ele>765.5</ele><time>2026-04-30T11:33:48.999Z</time></trkpt><trkpt lat="31.286143905022314" lon="-4.263759625849558"><ele>766.0</ele><time>2026-04-30T11:33:51.999Z</time></trkpt><trkpt lat="31.286188650640863" lon="-4.263667851537779"><ele>766.5</ele><time>2026-04-30T11:33:53.999Z</time></trkpt><trkpt lat="31.286240956502837" lon="-4.263553259907241"><ele>767.0</ele><time>2026-04-30T11:33:55.999Z</time></trkpt><trkpt lat="31.286266265161547" lon="-4.263482629295149"><ele>767.5</ele><time>2026-04-30T11:33:56.999Z</time></trkpt><trkpt lat="31.286295498318736" lon="-4.263406711682588"><ele>768.0</ele><time>2026-04-30T11:33:57.999Z</time></trkpt><trkpt lat="31.286321783236357" lon="-4.263339151684976"><ele>768.0</ele><time>2026-04-30T11:33:58.999Z</time></trkpt><trkpt lat="31.286366579549405" lon="-4.263207499254473"><ele>768.0</ele><time>2026-04-30T11:34:00.999Z</time></trkpt><trkpt lat="31.286389041793218" lon="-4.263137325913349"><ele>768.0</ele><time>2026-04-30T11:34:01.999Z</time></trkpt><trkpt lat="31.286407871891903" lon="-4.263062702345032"><ele>768.0</ele><time>2026-04-30T11:34:02.999Z</time></trkpt><trkpt lat="31.286427936504065" lon="-4.262987255774798"><ele>768.0</ele><time>2026-04-30T11:34:03.999Z</time></trkpt><trkpt lat="31.2864448825905" lon="-4.262905074485653"><ele>768.0</ele><time>2026-04-30T11:34:04.999Z</time></trkpt><trkpt lat="31.286463487810675" lon="-4.262825848134903"><ele>767.5714285714286</ele><time>2026-04-30T11:34:05.999Z</time></trkpt><trkpt lat="31.28648576026602" lon="-4.2627485046821425"><ele>767.1428571428571</ele><time>2026-04-30T11:34:06.999Z</time></trkpt><trkpt lat="31.28650126315694" lon="-4.262668610947253"><ele>766.7142857142858</ele><time>2026-04-30T11:34:07.999Z</time></trkpt><trkpt lat="31.286518176970265" lon="-4.262593371431754"><ele>766.2857142857142</ele><time>2026-04-30T11:34:08.999Z</time></trkpt><trkpt lat="31.286537937724205" lon="-4.262517598686694"><ele>765.8571428571429</ele><time>2026-04-30T11:34:09.999Z</time></trkpt><trkpt lat="31.286552962389326" lon="-4.2624431375095755"><ele>765.4285714285714</ele><time>2026-04-30T11:34:10.999Z</time></trkpt><trkpt lat="31.28656814727388" lon="-4.262366308408837"><ele>765.0</ele><time>2026-04-30T11:34:11.999Z</time></trkpt><trkpt lat="31.286591301621893" lon="-4.262281236234216"><ele>765.0</ele><time>2026-04-30T11:34:12.999Z</time></trkpt><trkpt lat="31.28661496660251" lon="-4.262203432391304"><ele>765.0</ele><time>2026-04-30T11:34:13.999Z</time></trkpt><trkpt lat="31.286632857307595" lon="-4.262123738331783"><ele>765.0</ele><time>2026-04-30T11:34:14.999Z</time></trkpt><trkpt lat="31.28665913251329" lon="-4.262044764306336"><ele>765.0</ele><time>2026-04-30T11:34:15.999Z</time></trkpt><trkpt lat="31.286684834777184" lon="-4.261957087245566"><ele>765.0</ele><time>2026-04-30T11:34:16.999Z</time></trkpt><trkpt lat="31.286701234527268" lon="-4.261868286386451"><ele>765.0</ele><time>2026-04-30T11:34:17.999Z</time></trkpt><trkpt lat="31.286716930982486" lon="-4.261773763617562"><ele>765.0</ele><time>2026-04-30T11:34:18.999Z</time></trkpt><trkpt lat="31.286731849282653" lon="-4.261678558952754"><ele>765.0</ele><time>2026-04-30T11:34:19.999Z</time></trkpt><trkpt lat="31.286751321764907" lon="-4.261576449940228"><ele>765.0</ele><time>2026-04-30T11:34:20.999Z</time></trkpt><trkpt lat="31.286768582324704" lon="-4.261483153081159"><ele>765.0</ele><time>2026-04-30T11:34:21.999Z</time></trkpt><trkpt lat="31.286787898107487" lon="-4.261400624835846"><ele>765.0</ele><time>2026-04-30T11:34:22.999Z</time></trkpt><trkpt lat="31.286806981131818" lon="-4.2613203487969304"><ele>765.0</ele><time>2026-04-30T11:34:23.999Z</time></trkpt><trkpt lat="31.286822471250414" lon="-4.261236663828931"><ele>764.8333333333334</ele><time>2026-04-30T11:34:24.999Z</time></trkpt><trkpt lat="31.286844989862434" lon="-4.261148581892189"><ele>764.6666666666666</ele><time>2026-04-30T11:34:25.999Z</time></trkpt><trkpt lat="31.28686771483415" lon="-4.261062698472244"><ele>764.5</ele><time>2026-04-30T11:34:26.999Z</time></trkpt><trkpt lat="31.28689036529551" lon="-4.260976213189972"><ele>764.3333333333333</ele><time>2026-04-30T11:34:27.999Z</time></trkpt><trkpt lat="31.286912028368782" lon="-4.260888355145347"><ele>764.1666666666666</ele><time>2026-04-30T11:34:28.999Z</time></trkpt><trkpt lat="31.28693277880887" lon="-4.260803587189817"><ele>764.0</ele><time>2026-04-30T11:34:29.999Z</time></trkpt><trkpt lat="31.28695513491487" lon="-4.260718516194188"><ele>764.0</ele><time>2026-04-30T11:34:30.999Z</time></trkpt><trkpt lat="31.286971369071804" lon="-4.26063060538687"><ele>764.0</ele><time>2026-04-30T11:34:31.999Z</time></trkpt><trkpt lat="31.286992323846235" lon="-4.260546751428348"><ele>764.0</ele><time>2026-04-30T11:34:32.999Z</time></trkpt><trkpt lat="31.287013959231604" lon="-4.260460794936396"><ele>764.0</ele><time>2026-04-30T11:34:33.999Z</time></trkpt><trkpt lat="31.287034415249455" lon="-4.260378243714813"><ele>764.0</ele><time>2026-04-30T11:34:34.999Z</time></trkpt><trkpt lat="31.287051362920536" lon="-4.260292529311668"><ele>764.0</ele><time>2026-04-30T11:34:35.999Z</time></trkpt><trkpt lat="31.287075635251906" lon="-4.260202653668167"><ele>763.8333333333333</ele><time>2026-04-30T11:34:36.999Z</time></trkpt><trkpt lat="31.287092581603883" lon="-4.260105119321664"><ele>763.6666666666666</ele><time>2026-04-30T11:34:37.999Z</time></trkpt><trkpt lat="31.287117661117748" lon="-4.260007976160717"><ele>763.5</ele><time>2026-04-30T11:34:38.999Z</time></trkpt><trkpt lat="31.287142581107236" lon="-4.25990605553668"><ele>763.3333333333334</ele><time>2026-04-30T11:34:39.999Z</time></trkpt><trkpt lat="31.287165712455117" lon="-4.259809823108021"><ele>763.1666666666667</ele><time>2026-04-30T11:34:40.999Z</time></trkpt><trkpt lat="31.287191115453453" lon="-4.259714985825726"><ele>763.0</ele><time>2026-04-30T11:34:41.999Z</time></trkpt><trkpt lat="31.287214269437087" lon="-4.259619363907313"><ele>763.0</ele><time>2026-04-30T11:34:42.999Z</time></trkpt><trkpt lat="31.287235620184724" lon="-4.259521334790244"><ele>763.0</ele><time>2026-04-30T11:34:43.999Z</time></trkpt><trkpt lat="31.287259041537595" lon="-4.259422885037053"><ele>763.0</ele><time>2026-04-30T11:34:44.999Z</time></trkpt><trkpt lat="31.28728011450204" lon="-4.259325940344563"><ele>763.0</ele><time>2026-04-30T11:34:45.999Z</time></trkpt><trkpt lat="31.287303221593714" lon="-4.259229306682194"><ele>763.0</ele><time>2026-04-30T11:34:46.999Z</time></trkpt><trkpt lat="31.287330105606035" lon="-4.259138106005307"><ele>763.0</ele><time>2026-04-30T11:34:47.999Z</time></trkpt><trkpt lat="31.287354429041308" lon="-4.259048721014856"><ele>763.0</ele><time>2026-04-30T11:34:48.999Z</time></trkpt><trkpt lat="31.287374860307718" lon="-4.258961365266509"><ele>763.0</ele><time>2026-04-30T11:34:49.999Z</time></trkpt><trkpt lat="31.287394269651397" lon="-4.258870094114845"><ele>763.0</ele><time>2026-04-30T11:34:50.999Z</time></trkpt><trkpt lat="31.28741834159705" lon="-4.258776678249601"><ele>763.0</ele><time>2026-04-30T11:34:51.999Z</time></trkpt><trkpt lat="31.28743828789076" lon="-4.258682216676364"><ele>763.0</ele><time>2026-04-30T11:34:52.999Z</time></trkpt><trkpt lat="31.28746249325714" lon="-4.258596403515079"><ele>763.0</ele><time>2026-04-30T11:34:53.999Z</time></trkpt><trkpt lat="31.287483788412775" lon="-4.258517140568988"><ele>762.8</ele><time>2026-04-30T11:34:54.999Z</time></trkpt><trkpt lat="31.287504810274818" lon="-4.258435957961255"><ele>762.5999999999999</ele><time>2026-04-30T11:34:55.999Z</time></trkpt><trkpt lat="31.287525246598758" lon="-4.258336939659431"><ele>762.4000000000001</ele><time>2026-04-30T11:34:56.999Z</time></trkpt><trkpt lat="31.287553720547788" lon="-4.258226999054301"><ele>762.2</ele><time>2026-04-30T11:34:57.999Z</time></trkpt><trkpt lat="31.287580504677994" lon="-4.258103815286142"><ele>762.0</ele><time>2026-04-30T11:34:58.999Z</time></trkpt><trkpt lat="31.287614186358354" lon="-4.257972867740929"><ele>761.6</ele><time>2026-04-30T11:34:59.999Z</time></trkpt><trkpt lat="31.287645416363755" lon="-4.257854907273166"><ele>761.2</ele><time>2026-04-30T11:35:00.999Z</time></trkpt><trkpt lat="31.287675171494364" lon="-4.2577390991728805"><ele>760.8</ele><time>2026-04-30T11:35:01.999Z</time></trkpt><trkpt lat="31.287703075007844" lon="-4.257620714579432"><ele>760.4</ele><time>2026-04-30T11:35:02.999Z</time></trkpt><trkpt lat="31.287718932781136" lon="-4.257501957497036"><ele>760.0</ele><time>2026-04-30T11:35:03.999Z</time></trkpt><trkpt lat="31.28772157125943" lon="-4.257391294115008"><ele>759.8333333333334</ele><time>2026-04-30T11:35:04.999Z</time></trkpt><trkpt lat="31.28771859116049" lon="-4.257284889119145"><ele>759.6666666666667</ele><time>2026-04-30T11:35:05.999Z</time></trkpt><trkpt lat="31.287706751496774" lon="-4.257183167128581"><ele>759.5</ele><time>2026-04-30T11:35:06.999Z</time></trkpt><trkpt lat="31.287689873922456" lon="-4.257087565838447"><ele>759.3333333333334</ele><time>2026-04-30T11:35:07.999Z</time></trkpt><trkpt lat="31.287692138322026" lon="-4.256998360350209"><ele>759.1666666666666</ele><time>2026-04-30T11:35:08.999Z</time></trkpt><trkpt lat="31.2877232748514" lon="-4.256916123693712"><ele>759.0</ele><time>2026-04-30T11:35:09.999Z</time></trkpt><trkpt lat="31.287786178140912" lon="-4.256860131613923"><ele>759.0</ele><time>2026-04-30T11:35:10.999Z</time></trkpt><trkpt lat="31.2878687761596" lon="-4.256837000880074"><ele>759.0</ele><time>2026-04-30T11:35:11.999Z</time></trkpt><trkpt lat="31.287966481702313" lon="-4.256833725743665"><ele>759.0</ele><time>2026-04-30T11:35:12.999Z</time></trkpt><trkpt lat="31.288063460870294" lon="-4.256804871755799"><ele>759.0</ele><time>2026-04-30T11:35:13.999Z</time></trkpt><trkpt lat="31.288156123282345" lon="-4.256750855957954"><ele>759.0</ele><time>2026-04-30T11:35:14.999Z</time></trkpt><trkpt lat="31.288223651993935" lon="-4.256671906386396"><ele>759.6</ele><time>2026-04-30T11:35:16Z</time></trkpt><trkpt lat="31.288285837542958" lon="-4.25658059697029"><ele>760.2</ele><time>2026-04-30T11:35:17Z</time></trkpt><trkpt lat="31.28834277037506" lon="-4.256479294716004"><ele>760.8000000000001</ele><time>2026-04-30T11:35:18Z</time></trkpt><trkpt lat="31.288392667571827" lon="-4.256368307451922"><ele>761.4000000000001</ele><time>2026-04-30T11:35:19Z</time></trkpt><trkpt lat="31.28844275092982" lon="-4.256261275412909"><ele>762.0</ele><time>2026-04-30T11:35:20Z</time></trkpt><trkpt lat="31.288491730332375" lon="-4.256164981939166"><ele>762.0</ele><time>2026-04-30T11:35:21Z</time></trkpt><trkpt lat="31.288547075943846" lon="-4.256070031318091"><ele>762.0</ele><time>2026-04-30T11:35:22Z</time></trkpt><trkpt lat="31.28860005897354" lon="-4.255976313103804"><ele>762.0</ele><time>2026-04-30T11:35:23Z</time></trkpt><trkpt lat="31.288654682347367" lon="-4.255891788653767"><ele>762.0</ele><time>2026-04-30T11:35:24Z</time></trkpt><trkpt lat="31.288707415993176" lon="-4.25581508776841"><ele>762.0</ele><time>2026-04-30T11:35:25Z</time></trkpt><trkpt lat="31.288766055506137" lon="-4.255729368783336"><ele>762.0</ele><time>2026-04-30T11:35:26Z</time></trkpt><trkpt lat="31.28882104894469" lon="-4.255642369510624"><ele>762.0</ele><time>2026-04-30T11:35:27Z</time></trkpt><trkpt lat="31.28886766483256" lon="-4.255559348221431"><ele>762.0</ele><time>2026-04-30T11:35:28Z</time></trkpt><trkpt lat="31.288918327757226" lon="-4.255473836150071"><ele>762.0</ele><time>2026-04-30T11:35:29Z</time></trkpt><trkpt lat="31.28897305828255" lon="-4.255403321948945"><ele>762.0</ele><time>2026-04-30T11:35:30Z</time></trkpt><trkpt lat="31.28902125271403" lon="-4.255325172651953"><ele>762.0</ele><time>2026-04-30T11:35:31Z</time></trkpt><trkpt lat="31.28906850039669" lon="-4.255249088428139"><ele>762.0</ele><time>2026-04-30T11:35:32Z</time></trkpt><trkpt lat="31.28912648841524" lon="-4.255173604481425"><ele>762.0</ele><time>2026-04-30T11:35:33Z</time></trkpt><trkpt lat="31.289171264400647" lon="-4.255094675986624"><ele>762.0</ele><time>2026-04-30T11:35:34Z</time></trkpt><trkpt lat="31.289221160147925" lon="-4.255013810660055"><ele>762.0</ele><time>2026-04-30T11:35:35Z</time></trkpt><trkpt lat="31.289268428771123" lon="-4.254919899493893"><ele>762.0</ele><time>2026-04-30T11:35:36Z</time></trkpt><trkpt lat="31.289320345018222" lon="-4.254827694668087"><ele>762.0</ele><time>2026-04-30T11:35:37Z</time></trkpt><trkpt lat="31.289364547731804" lon="-4.254754578658558"><ele>761.6</ele><time>2026-04-30T11:35:38Z</time></trkpt><trkpt lat="31.289419964893035" lon="-4.25467100285091"><ele>761.2</ele><time>2026-04-30T11:35:39Z</time></trkpt><trkpt lat="31.289474080140817" lon="-4.254578240745482"><ele>760.8</ele><time>2026-04-30T11:35:40Z</time></trkpt><trkpt lat="31.289522315371443" lon="-4.254491654449449"><ele>760.4</ele><time>2026-04-30T11:35:41Z</time></trkpt><trkpt lat="31.28956990935516" lon="-4.25440268809037"><ele>760.0</ele><time>2026-04-30T11:35:42Z</time></trkpt><trkpt lat="31.289612052444763" lon="-4.254307482880334"><ele>760.0</ele><time>2026-04-30T11:35:43Z</time></trkpt><trkpt lat="31.289662463137788" lon="-4.254198275489701"><ele>760.0</ele><time>2026-04-30T11:35:44Z</time></trkpt><trkpt lat="31.289719110964484" lon="-4.254079501237581"><ele>760.0</ele><time>2026-04-30T11:35:45Z</time></trkpt><trkpt lat="31.28977641547379" lon="-4.2539691107761515"><ele>760.0</ele><time>2026-04-30T11:35:46Z</time></trkpt><trkpt lat="31.289839710277025" lon="-4.253844875273336"><ele>759.75</ele><time>2026-04-30T11:35:47Z</time></trkpt><trkpt lat="31.289908104436183" lon="-4.253710382034963"><ele>759.5</ele><time>2026-04-30T11:35:48Z</time></trkpt><trkpt lat="31.289980932395956" lon="-4.253571679734079"><ele>759.25</ele><time>2026-04-30T11:35:49Z</time></trkpt><trkpt lat="31.290057631402313" lon="-4.2534223955314845"><ele>759.0</ele><time>2026-04-30T11:35:50Z</time></trkpt><trkpt lat="31.290139321890337" lon="-4.253276923489776"><ele>759.0</ele><time>2026-04-30T11:35:51Z</time></trkpt><trkpt lat="31.290220253318953" lon="-4.253134016023766"><ele>759.0</ele><time>2026-04-30T11:35:52Z</time></trkpt><trkpt lat="31.290298690476835" lon="-4.252998118558146"><ele>759.0</ele><time>2026-04-30T11:35:53Z</time></trkpt><trkpt lat="31.2903736396456" lon="-4.25286796817683"><ele>759.0</ele><time>2026-04-30T11:35:54Z</time></trkpt><trkpt lat="31.2904475809849" lon="-4.252741385706179"><ele>759.0</ele><time>2026-04-30T11:35:55Z</time></trkpt><trkpt lat="31.290517699571648" lon="-4.25261717206909"><ele>759.0</ele><time>2026-04-30T11:35:56Z</time></trkpt><trkpt lat="31.29059069591805" lon="-4.252496587626467"><ele>759.0</ele><time>2026-04-30T11:35:57Z</time></trkpt><trkpt lat="31.29066358439791" lon="-4.2523785436888435"><ele>759.0</ele><time>2026-04-30T11:35:58Z</time></trkpt><trkpt lat="31.290733913428173" lon="-4.252259286828482"><ele>759.25</ele><time>2026-04-30T11:35:59Z</time></trkpt><trkpt lat="31.290802056027587" lon="-4.252139288629459"><ele>759.5</ele><time>2026-04-30T11:36:00Z</time></trkpt><trkpt lat="31.29087068369713" lon="-4.252018320875523"><ele>759.75</ele><time>2026-04-30T11:36:01Z</time></trkpt><trkpt lat="31.29093570308459" lon="-4.251896049973824"><ele>760.0</ele><time>2026-04-30T11:36:02Z</time></trkpt><trkpt lat="31.29100382965918" lon="-4.251774491513932"><ele>760.0</ele><time>2026-04-30T11:36:03Z</time></trkpt><trkpt lat="31.29108144689784" lon="-4.25165244256757"><ele>760.0</ele><time>2026-04-30T11:36:04Z</time></trkpt><trkpt lat="31.291157143220264" lon="-4.251527196467536"><ele>760.0</ele><time>2026-04-30T11:36:05Z</time></trkpt><trkpt lat="31.29123196013321" lon="-4.2513969613566855"><ele>760.0</ele><time>2026-04-30T11:36:06Z</time></trkpt><trkpt lat="31.291306455206023" lon="-4.251266061541937"><ele>759.75</ele><time>2026-04-30T11:36:07Z</time></trkpt><trkpt lat="31.29138074880732" lon="-4.251135835815438"><ele>759.5</ele><time>2026-04-30T11:36:08Z</time></trkpt><trkpt lat="31.291457382820948" lon="-4.25100482530022"><ele>759.25</ele><time>2026-04-30T11:36:09Z</time></trkpt><trkpt lat="31.291536046989464" lon="-4.250872600868805"><ele>759.0</ele><time>2026-04-30T11:36:10Z</time></trkpt><trkpt lat="31.291610418392583" lon="-4.25074228815879"><ele>759.25</ele><time>2026-04-30T11:36:11Z</time></trkpt><trkpt lat="31.291683317451596" lon="-4.250611806828301"><ele>759.5</ele><time>2026-04-30T11:36:12Z</time></trkpt><trkpt lat="31.29175932536091" lon="-4.250482179477687"><ele>759.75</ele><time>2026-04-30T11:36:13Z</time></trkpt><trkpt lat="31.29183633281536" lon="-4.25035043682361"><ele>760.0</ele><time>2026-04-30T11:36:14Z</time></trkpt><trkpt lat="31.291913512304614" lon="-4.250215303345436"><ele>760.0</ele><time>2026-04-30T11:36:15Z</time></trkpt><trkpt lat="31.29199175616948" lon="-4.250083698925021"><ele>760.0</ele><time>2026-04-30T11:36:16Z</time></trkpt><trkpt lat="31.292074201604986" lon="-4.249941698639098"><ele>760.0</ele><time>2026-04-30T11:36:17Z</time></trkpt><trkpt lat="31.292163407504464" lon="-4.249782368403095"><ele>760.0</ele><time>2026-04-30T11:36:18Z</time></trkpt><trkpt lat="31.29226025115249" lon="-4.24961606969085"><ele>760.0</ele><time>2026-04-30T11:36:19Z</time></trkpt><trkpt lat="31.292359546461164" lon="-4.249450097417421"><ele>760.0</ele><time>2026-04-30T11:36:20Z</time></trkpt><trkpt lat="31.29245706171576" lon="-4.249287630068315"><ele>760.0</ele><time>2026-04-30T11:36:21Z</time></trkpt><trkpt lat="31.29255325375708" lon="-4.249131514167079"><ele>760.0</ele><time>2026-04-30T11:36:22Z</time></trkpt><trkpt lat="31.292646934357897" lon="-4.248978313367965"><ele>760.0</ele><time>2026-04-30T11:36:23Z</time></trkpt><trkpt lat="31.29272779791489" lon="-4.248824268231889"><ele>760.0</ele><time>2026-04-30T11:36:24Z</time></trkpt><trkpt lat="31.292795396252977" lon="-4.248666621808532"><ele>760.6666666666667</ele><time>2026-04-30T11:36:25Z</time></trkpt><trkpt lat="31.29286210512169" lon="-4.248506636734026"><ele>761.3333333333334</ele><time>2026-04-30T11:36:26Z</time></trkpt><trkpt lat="31.29292937105036" lon="-4.248343243537804"><ele>762.0</ele><time>2026-04-30T11:36:27Z</time></trkpt><trkpt lat="31.292998789331396" lon="-4.248176267269827"><ele>762.6666666666666</ele><time>2026-04-30T11:36:28Z</time></trkpt><trkpt lat="31.293066747896614" lon="-4.248007561273149"><ele>763.3333333333333</ele><time>2026-04-30T11:36:29Z</time></trkpt><trkpt lat="31.2931302104018" lon="-4.247841385539847"><ele>764.0</ele><time>2026-04-30T11:36:30Z</time></trkpt><trkpt lat="31.29319183769009" lon="-4.247671394774979"><ele>762.6666666666666</ele><time>2026-04-30T11:36:31Z</time></trkpt><trkpt lat="31.29324998175903" lon="-4.2474954210599005"><ele>761.3333333333334</ele><time>2026-04-30T11:36:32Z</time></trkpt><trkpt lat="31.293310160000516" lon="-4.247319703441188"><ele>760.0</ele><time>2026-04-30T11:36:33Z</time></trkpt><trkpt lat="31.293370279562637" lon="-4.247144862500361"><ele>759.3333333333334</ele><time>2026-04-30T11:36:34Z</time></trkpt><trkpt lat="31.293430259447955" lon="-4.24697717128265"><ele>758.6666666666666</ele><time>2026-04-30T11:36:35Z</time></trkpt><trkpt lat="31.29349116154274" lon="-4.246813385010829"><ele>758.0</ele><time>2026-04-30T11:36:36Z</time></trkpt><trkpt lat="31.29355366099505" lon="-4.246652850697834"><ele>758.0</ele><time>2026-04-30T11:36:37Z</time></trkpt><trkpt lat="31.29361249487427" lon="-4.24649445342575"><ele>758.0</ele><time>2026-04-30T11:36:38Z</time></trkpt><trkpt lat="31.29366798462948" lon="-4.246340399275854"><ele>758.0</ele><time>2026-04-30T11:36:39Z</time></trkpt><trkpt lat="31.293721425700774" lon="-4.246197426964737"><ele>758.0</ele><time>2026-04-30T11:36:40Z</time></trkpt><trkpt lat="31.293775294856417" lon="-4.246060504071226"><ele>758.25</ele><time>2026-04-30T11:36:41Z</time></trkpt><trkpt lat="31.293826973721124" lon="-4.24593197892782"><ele>758.5</ele><time>2026-04-30T11:36:42Z</time></trkpt><trkpt lat="31.2938726480092" lon="-4.245811759114748"><ele>758.75</ele><time>2026-04-30T11:36:43Z</time></trkpt><trkpt lat="31.293913283279075" lon="-4.245696277939515"><ele>759.0</ele><time>2026-04-30T11:36:44Z</time></trkpt><trkpt lat="31.293936133548918" lon="-4.245566264455091"><ele>759.0</ele><time>2026-04-30T11:36:45Z</time></trkpt><trkpt lat="31.293941459128252" lon="-4.245428029037267"><ele>759.0</ele><time>2026-04-30T11:36:46Z</time></trkpt><trkpt lat="31.293943368716043" lon="-4.245304451355831"><ele>759.0</ele><time>2026-04-30T11:36:47Z</time></trkpt><trkpt lat="31.293938316240084" lon="-4.245188284424396"><ele>759.0</ele><time>2026-04-30T11:36:48Z</time></trkpt><trkpt lat="31.293911727555038" lon="-4.245079651506374"><ele>759.0</ele><time>2026-04-30T11:36:49Z</time></trkpt><trkpt lat="31.2938536782838" lon="-4.244979075824685"><ele>759.2</ele><time>2026-04-30T11:36:50Z</time></trkpt><trkpt lat="31.293773001340135" lon="-4.244893869010897"><ele>759.4000000000001</ele><time>2026-04-30T11:36:51Z</time></trkpt><trkpt lat="31.293685466516756" lon="-4.2448115828110655"><ele>759.6</ele><time>2026-04-30T11:36:52Z</time></trkpt><trkpt lat="31.293599004179395" lon="-4.244722203098498"><ele>759.8</ele><time>2026-04-30T11:36:53Z</time></trkpt><trkpt lat="31.293512493533463" lon="-4.244642097133321"><ele>760.0</ele><time>2026-04-30T11:36:54Z</time></trkpt><trkpt lat="31.29342070471288" lon="-4.244575879786986"><ele>760.0</ele><time>2026-04-30T11:36:55Z</time></trkpt><trkpt lat="31.293316206735007" lon="-4.2445207073479025"><ele>760.0</ele><time>2026-04-30T11:36:56Z</time></trkpt><trkpt lat="31.293200283603305" lon="-4.24447267539789"><ele>760.0</ele><time>2026-04-30T11:36:57Z</time></trkpt><trkpt lat="31.293072636297907" lon="-4.244426021190336"><ele>760.0</ele><time>2026-04-30T11:36:58Z</time></trkpt><trkpt lat="31.292933444730856" lon="-4.24437957571927"><ele>759.75</ele><time>2026-04-30T11:36:59Z</time></trkpt><trkpt lat="31.2927946759278" lon="-4.244339153485489"><ele>759.5</ele><time>2026-04-30T11:37:00Z</time></trkpt><trkpt lat="31.292650556699865" lon="-4.244306876094412"><ele>759.25</ele><time>2026-04-30T11:37:01Z</time></trkpt><trkpt lat="31.292506067291566" lon="-4.244264208671459"><ele>759.0</ele><time>2026-04-30T11:37:02Z</time></trkpt><trkpt lat="31.292360924297515" lon="-4.244214435200237"><ele>759.0</ele><time>2026-04-30T11:37:03Z</time></trkpt><trkpt lat="31.292217574413506" lon="-4.244156161221092"><ele>759.0</ele><time>2026-04-30T11:37:04Z</time></trkpt><trkpt lat="31.29207562127174" lon="-4.244093683844665"><ele>759.0</ele><time>2026-04-30T11:37:05Z</time></trkpt><trkpt lat="31.2919357863527" lon="-4.244029851260505"><ele>758.6666666666666</ele><time>2026-04-30T11:37:06Z</time></trkpt><trkpt lat="31.291794669480705" lon="-4.243957552951038"><ele>758.3333333333333</ele><time>2026-04-30T11:37:07Z</time></trkpt><trkpt lat="31.291655275904606" lon="-4.243886305995358"><ele>758.0</ele><time>2026-04-30T11:37:08Z</time></trkpt><trkpt lat="31.291513951190122" lon="-4.243820032647604"><ele>757.6666666666666</ele><time>2026-04-30T11:37:09Z</time></trkpt><trkpt lat="31.291372192535743" lon="-4.243752596003535"><ele>757.3333333333334</ele><time>2026-04-30T11:37:10Z</time></trkpt><trkpt lat="31.29123428845374" lon="-4.24368422930304"><ele>757.0</ele><time>2026-04-30T11:37:11Z</time></trkpt><trkpt lat="31.291096688547956" lon="-4.2436132533930655"><ele>757.0</ele><time>2026-04-30T11:37:12Z</time></trkpt><trkpt lat="31.290959455881435" lon="-4.243535222734708"><ele>757.0</ele><time>2026-04-30T11:37:13Z</time></trkpt><trkpt lat="31.290820221454236" lon="-4.243464836632463"><ele>757.0</ele><time>2026-04-30T11:37:14Z</time></trkpt><trkpt lat="31.290684116620174" lon="-4.243402777540852"><ele>757.5</ele><time>2026-04-30T11:37:15Z</time></trkpt><trkpt lat="31.29055582020222" lon="-4.243343223000361"><ele>758.0</ele><time>2026-04-30T11:37:16Z</time></trkpt><trkpt lat="31.29042766890815" lon="-4.243279068037001"><ele>758.5</ele><time>2026-04-30T11:37:17Z</time></trkpt><trkpt lat="31.29029524381452" lon="-4.243210583427677"><ele>759.0</ele><time>2026-04-30T11:37:18Z</time></trkpt><trkpt lat="31.290160780123962" lon="-4.2431445339603755"><ele>758.75</ele><time>2026-04-30T11:37:19Z</time></trkpt><trkpt lat="31.29002467612785" lon="-4.243080042593993"><ele>758.5</ele><time>2026-04-30T11:37:20Z</time></trkpt><trkpt lat="31.28989472076738" lon="-4.243017890335358"><ele>758.25</ele><time>2026-04-30T11:37:21Z</time></trkpt><trkpt lat="31.28976445350653" lon="-4.242956562855064"><ele>758.0</ele><time>2026-04-30T11:37:22Z</time></trkpt><trkpt lat="31.28962993499546" lon="-4.242891349038638"><ele>758.0</ele><time>2026-04-30T11:37:23Z</time></trkpt><trkpt lat="31.289496256799225" lon="-4.242826776827248"><ele>758.0</ele><time>2026-04-30T11:37:24Z</time></trkpt><trkpt lat="31.289360822385277" lon="-4.242761706607074"><ele>758.0</ele><time>2026-04-30T11:37:25Z</time></trkpt><trkpt lat="31.289230311664426" lon="-4.242692300839165"><ele>758.0</ele><time>2026-04-30T11:37:26Z</time></trkpt><trkpt lat="31.28909360437808" lon="-4.242637340232058"><ele>758.0</ele><time>2026-04-30T11:37:27Z</time></trkpt><trkpt lat="31.288956715271883" lon="-4.242602708849528"><ele>758.0</ele><time>2026-04-30T11:37:28Z</time></trkpt><trkpt lat="31.288824479425205" lon="-4.2425795779605355"><ele>758.0</ele><time>2026-04-30T11:37:29Z</time></trkpt><trkpt lat="31.2887053347098" lon="-4.242545332758853"><ele>758.0</ele><time>2026-04-30T11:37:30Z</time></trkpt><trkpt lat="31.2885910796237" lon="-4.2425015647925495"><ele>757.5999999999999</ele><time>2026-04-30T11:37:31Z</time></trkpt><trkpt lat="31.288476776012644" lon="-4.242457934326514"><ele>757.1999999999999</ele><time>2026-04-30T11:37:32Z</time></trkpt><trkpt lat="31.288367233752208" lon="-4.2424142426772615"><ele>756.8</ele><time>2026-04-30T11:37:33Z</time></trkpt><trkpt lat="31.288271844614826" lon="-4.242360417348946"><ele>756.4</ele><time>2026-04-30T11:37:34Z</time></trkpt><trkpt lat="31.28820000910395" lon="-4.242274179936738"><ele>756.0</ele><time>2026-04-30T11:37:35Z</time></trkpt><trkpt lat="31.28816289496518" lon="-4.242155260505912"><ele>756.0</ele><time>2026-04-30T11:37:36Z</time></trkpt><trkpt lat="31.28815202001866" lon="-4.2420086628285105"><ele>756.0</ele><time>2026-04-30T11:37:37Z</time></trkpt><trkpt lat="31.28815311869695" lon="-4.24184693751068"><ele>756.0</ele><time>2026-04-30T11:37:38Z</time></trkpt><trkpt lat="31.28815450163476" lon="-4.241676195393945"><ele>756.0</ele><time>2026-04-30T11:37:39Z</time></trkpt><trkpt lat="31.288153458805425" lon="-4.241503771649868"><ele>756.3333333333334</ele><time>2026-04-30T11:37:40Z</time></trkpt><trkpt lat="31.288153865218135" lon="-4.241327695484261"><ele>756.6666666666667</ele><time>2026-04-30T11:37:41Z</time></trkpt><trkpt lat="31.28815373801004" lon="-4.241146604540426"><ele>757.0</ele><time>2026-04-30T11:37:42Z</time></trkpt><trkpt lat="31.288151834877837" lon="-4.240960145667633"><ele>757.0</ele><time>2026-04-30T11:37:43Z</time></trkpt><trkpt lat="31.288152559515726" lon="-4.240774325697494"><ele>757.0</ele><time>2026-04-30T11:37:44Z</time></trkpt><trkpt lat="31.288156574336142" lon="-4.240590283218409"><ele>757.0</ele><time>2026-04-30T11:37:45Z</time></trkpt><trkpt lat="31.288165428571183" lon="-4.240412978062503"><ele>757.25</ele><time>2026-04-30T11:37:46Z</time></trkpt><trkpt lat="31.28818070106421" lon="-4.240239704366291"><ele>757.5</ele><time>2026-04-30T11:37:47Z</time></trkpt><trkpt lat="31.28819820440715" lon="-4.240065576708999"><ele>757.75</ele><time>2026-04-30T11:37:48Z</time></trkpt><trkpt lat="31.28821485566137" lon="-4.239896146966851"><ele>758.0</ele><time>2026-04-30T11:37:49Z</time></trkpt><trkpt lat="31.28823151054002" lon="-4.239730475247379"><ele>758.0</ele><time>2026-04-30T11:37:50Z</time></trkpt><trkpt lat="31.28824844392125" lon="-4.2395600206453565"><ele>758.0</ele><time>2026-04-30T11:37:51Z</time></trkpt><trkpt lat="31.288270552096595" lon="-4.239392840332584"><ele>758.0</ele><time>2026-04-30T11:37:52Z</time></trkpt><trkpt lat="31.28829848946771" lon="-4.239228006200017"><ele>758.0</ele><time>2026-04-30T11:37:53Z</time></trkpt><trkpt lat="31.288332639592635" lon="-4.239066317614424"><ele>757.5</ele><time>2026-04-30T11:37:54Z</time></trkpt><trkpt lat="31.28837304786114" lon="-4.238907080199669"><ele>757.0</ele><time>2026-04-30T11:37:55Z</time></trkpt><trkpt lat="31.288413803471325" lon="-4.238752048605612"><ele>756.5</ele><time>2026-04-30T11:37:56Z</time></trkpt><trkpt lat="31.28844941190388" lon="-4.238598579988414"><ele>756.0</ele><time>2026-04-30T11:37:57Z</time></trkpt><trkpt lat="31.288483894406745" lon="-4.238446274977329"><ele>756.0</ele><time>2026-04-30T11:37:58Z</time></trkpt><trkpt lat="31.288518920261023" lon="-4.238296856392963"><ele>756.0</ele><time>2026-04-30T11:37:59Z</time></trkpt><trkpt lat="31.288553009573008" lon="-4.238148178720563"><ele>756.0</ele><time>2026-04-30T11:38:00Z</time></trkpt><trkpt lat="31.288589590779637" lon="-4.2380014348220545"><ele>756.0</ele><time>2026-04-30T11:38:01Z</time></trkpt><trkpt lat="31.288624663016055" lon="-4.237857256458191"><ele>756.5</ele><time>2026-04-30T11:38:02Z</time></trkpt><trkpt lat="31.288659321721397" lon="-4.237714913216478"><ele>757.0</ele><time>2026-04-30T11:38:03Z</time></trkpt><trkpt lat="31.28869186934198" lon="-4.237572940358067"><ele>757.5</ele><time>2026-04-30T11:38:04Z</time></trkpt><trkpt lat="31.28872127543984" lon="-4.237430093613839"><ele>758.0</ele><time>2026-04-30T11:38:05Z</time></trkpt><trkpt lat="31.288752274178126" lon="-4.237290278313444"><ele>758.0</ele><time>2026-04-30T11:38:06Z</time></trkpt><trkpt lat="31.288780080679324" lon="-4.237149969295572"><ele>758.0</ele><time>2026-04-30T11:38:07Z</time></trkpt><trkpt lat="31.288798937861397" lon="-4.237006791782147"><ele>758.0</ele><time>2026-04-30T11:38:08Z</time></trkpt><trkpt lat="31.28880846645342" lon="-4.236854947064631"><ele>758.0</ele><time>2026-04-30T11:38:09Z</time></trkpt><trkpt lat="31.28880408333193" lon="-4.23670134034445"><ele>758.0</ele><time>2026-04-30T11:38:10Z</time></trkpt><trkpt lat="31.288786094625543" lon="-4.236549842585822"><ele>758.0</ele><time>2026-04-30T11:38:11Z</time></trkpt><trkpt lat="31.288762390420693" lon="-4.236396224682585"><ele>758.0</ele><time>2026-04-30T11:38:12Z</time></trkpt><trkpt lat="31.288742806350815" lon="-4.236240107903438"><ele>758.0</ele><time>2026-04-30T11:38:13Z</time></trkpt><trkpt lat="31.28873960440096" lon="-4.236083357657828"><ele>757.75</ele><time>2026-04-30T11:38:14Z</time></trkpt><trkpt lat="31.288750137096603" lon="-4.235925548412282"><ele>757.5</ele><time>2026-04-30T11:38:15Z</time></trkpt><trkpt lat="31.288773854158112" lon="-4.235770566934144"><ele>757.25</ele><time>2026-04-30T11:38:16Z</time></trkpt><trkpt lat="31.28880883774675" lon="-4.235619524056862"><ele>757.0</ele><time>2026-04-30T11:38:17Z</time></trkpt><trkpt lat="31.288842148845323" lon="-4.235463847354519"><ele>757.0</ele><time>2026-04-30T11:38:18Z</time></trkpt><trkpt lat="31.288881479014712" lon="-4.23531659754631"><ele>757.0</ele><time>2026-04-30T11:38:19Z</time></trkpt><trkpt lat="31.288920415833807" lon="-4.235179092922624"><ele>757.0</ele><time>2026-04-30T11:38:20Z</time></trkpt><trkpt lat="31.28892721344255" lon="-4.235041881735301"><ele>757.0</ele><time>2026-04-30T11:38:21Z</time></trkpt><trkpt lat="31.288898186043493" lon="-4.234914020464774"><ele>756.75</ele><time>2026-04-30T11:38:22Z</time></trkpt><trkpt lat="31.288837236344474" lon="-4.2348063774482725"><ele>756.5</ele><time>2026-04-30T11:38:23Z</time></trkpt><trkpt lat="31.288748254697946" lon="-4.234729458595299"><ele>756.25</ele><time>2026-04-30T11:38:24Z</time></trkpt><trkpt lat="31.288641785153867" lon="-4.234659758729196"><ele>756.0</ele><time>2026-04-30T11:38:25Z</time></trkpt><trkpt lat="31.288531420340263" lon="-4.2345781354975855"><ele>756.0</ele><time>2026-04-30T11:38:26Z</time></trkpt><trkpt lat="31.288425733217935" lon="-4.234494417741559"><ele>756.0</ele><time>2026-04-30T11:38:27Z</time></trkpt><trkpt lat="31.28832663256209" lon="-4.234417798813665"><ele>756.0</ele><time>2026-04-30T11:38:28Z</time></trkpt><trkpt lat="31.28823114901941" lon="-4.234334964038979"><ele>756.0</ele><time>2026-04-30T11:38:29Z</time></trkpt><trkpt lat="31.28815475810098" lon="-4.234234715974439"><ele>756.0</ele><time>2026-04-30T11:38:30Z</time></trkpt><trkpt lat="31.288102881834124" lon="-4.234125900435113"><ele>756.0</ele><time>2026-04-30T11:38:31Z</time></trkpt><trkpt lat="31.28808172130031" lon="-4.234005343114448"><ele>756.0</ele><time>2026-04-30T11:38:32Z</time></trkpt><trkpt lat="31.288088152156956" lon="-4.233870344987511"><ele>756.0</ele><time>2026-04-30T11:38:33Z</time></trkpt><trkpt lat="31.288120286495552" lon="-4.233729460738378"><ele>756.0</ele><time>2026-04-30T11:38:34Z</time></trkpt><trkpt lat="31.28816449519392" lon="-4.233579429342306"><ele>756.0</ele><time>2026-04-30T11:38:35Z</time></trkpt><trkpt lat="31.288202035649167" lon="-4.233418676218519"><ele>756.0</ele><time>2026-04-30T11:38:36Z</time></trkpt><trkpt lat="31.288239284703476" lon="-4.233255699328411"><ele>756.0</ele><time>2026-04-30T11:38:37Z</time></trkpt><trkpt lat="31.288273152437686" lon="-4.2330923383787145"><ele>756.0</ele><time>2026-04-30T11:38:38Z</time></trkpt><trkpt lat="31.288306660446093" lon="-4.232928337425354"><ele>756.0</ele><time>2026-04-30T11:38:39Z</time></trkpt><trkpt lat="31.288341856919487" lon="-4.232765607520075"><ele>756.0</ele><time>2026-04-30T11:38:40Z</time></trkpt><trkpt lat="31.288376205606024" lon="-4.232601983061058"><ele>756.0</ele><time>2026-04-30T11:38:41Z</time></trkpt><trkpt lat="31.288412747207172" lon="-4.232436857374645"><ele>755.75</ele><time>2026-04-30T11:38:42Z</time></trkpt><trkpt lat="31.28845342437947" lon="-4.23227381021021"><ele>755.5</ele><time>2026-04-30T11:38:43Z</time></trkpt><trkpt lat="31.28849563019276" lon="-4.232113585753472"><ele>755.25</ele><time>2026-04-30T11:38:44Z</time></trkpt><trkpt lat="31.288539020284883" lon="-4.231954279030712"><ele>755.0</ele><time>2026-04-30T11:38:45Z</time></trkpt><trkpt lat="31.288588812452264" lon="-4.231791307768903"><ele>755.0</ele><time>2026-04-30T11:38:46Z</time></trkpt><trkpt lat="31.28863329064694" lon="-4.231626736067001"><ele>755.0</ele><time>2026-04-30T11:38:47Z</time></trkpt><trkpt lat="31.288670993166736" lon="-4.231461604104441"><ele>755.0</ele><time>2026-04-30T11:38:48Z</time></trkpt><trkpt lat="31.28870401611782" lon="-4.231294678570563"><ele>755.0</ele><time>2026-04-30T11:38:49Z</time></trkpt><trkpt lat="31.288737696234197" lon="-4.231130184947014"><ele>755.25</ele><time>2026-04-30T11:38:50Z</time></trkpt><trkpt lat="31.288780363993993" lon="-4.230965973005985"><ele>755.5</ele><time>2026-04-30T11:38:51Z</time></trkpt><trkpt lat="31.28883335586751" lon="-4.230806790080981"><ele>755.75</ele><time>2026-04-30T11:38:52Z</time></trkpt><trkpt lat="31.288903016530462" lon="-4.230656890120809"><ele>756.0</ele><time>2026-04-30T11:38:53Z</time></trkpt><trkpt lat="31.28899668008504" lon="-4.230525435031034"><ele>756.25</ele><time>2026-04-30T11:38:54Z</time></trkpt><trkpt lat="31.289108171832275" lon="-4.230412861702235"><ele>756.5</ele><time>2026-04-30T11:38:55Z</time></trkpt><trkpt lat="31.289217450535094" lon="-4.230300270932354"><ele>756.75</ele><time>2026-04-30T11:38:56Z</time></trkpt><trkpt lat="31.289307933747118" lon="-4.230168064564693"><ele>757.0</ele><time>2026-04-30T11:38:57Z</time></trkpt><trkpt lat="31.289375161322805" lon="-4.23001604721572"><ele>757.0</ele><time>2026-04-30T11:38:58Z</time></trkpt><trkpt lat="31.289441527715606" lon="-4.229859893594429"><ele>757.0</ele><time>2026-04-30T11:38:59Z</time></trkpt><trkpt lat="31.289514383344954" lon="-4.229707324152173"><ele>757.0</ele><time>2026-04-30T11:39:00Z</time></trkpt><trkpt lat="31.28958015600802" lon="-4.229551340354109"><ele>757.0</ele><time>2026-04-30T11:39:01Z</time></trkpt><trkpt lat="31.289636656900228" lon="-4.229389420286542"><ele>756.6666666666667</ele><time>2026-04-30T11:39:02Z</time></trkpt><trkpt lat="31.289688266753167" lon="-4.229224892618321"><ele>756.3333333333334</ele><time>2026-04-30T11:39:03Z</time></trkpt><trkpt lat="31.289740730495815" lon="-4.2290595287978485"><ele>756.0</ele><time>2026-04-30T11:39:04Z</time></trkpt><trkpt lat="31.289789235441436" lon="-4.228893422134881"><ele>756.0</ele><time>2026-04-30T11:39:05Z</time></trkpt><trkpt lat="31.289837442383337" lon="-4.228731376244896"><ele>756.0</ele><time>2026-04-30T11:39:06Z</time></trkpt><trkpt lat="31.289890892156986" lon="-4.228565558534712"><ele>756.0</ele><time>2026-04-30T11:39:07Z</time></trkpt><trkpt lat="31.289945535095814" lon="-4.228399076896607"><ele>756.0</ele><time>2026-04-30T11:39:08Z</time></trkpt><trkpt lat="31.289994515252786" lon="-4.228236743214317"><ele>756.0</ele><time>2026-04-30T11:39:09Z</time></trkpt><trkpt lat="31.290028219697785" lon="-4.2280721292917045"><ele>756.0</ele><time>2026-04-30T11:39:10Z</time></trkpt><trkpt lat="31.29004680482899" lon="-4.227905802394778"><ele>756.0</ele><time>2026-04-30T11:39:11Z</time></trkpt><trkpt lat="31.290065123609143" lon="-4.22773843254799"><ele>756.0</ele><time>2026-04-30T11:39:12Z</time></trkpt><trkpt lat="31.290089688380007" lon="-4.22757617983503"><ele>756.0</ele><time>2026-04-30T11:39:13Z</time></trkpt><trkpt lat="31.290115009342998" lon="-4.227424673686871"><ele>756.0</ele><time>2026-04-30T11:39:14Z</time></trkpt><trkpt lat="31.290144406437044" lon="-4.227283553634274"><ele>756.0</ele><time>2026-04-30T11:39:15Z</time></trkpt><trkpt lat="31.290184301509367" lon="-4.227152190602853"><ele>756.0</ele><time>2026-04-30T11:39:16Z</time></trkpt><trkpt lat="31.290245848268942" lon="-4.22703795876526"><ele>756.0</ele><time>2026-04-30T11:39:17Z</time></trkpt><trkpt lat="31.290326439292173" lon="-4.226947996888611"><ele>756.0</ele><time>2026-04-30T11:39:18Z</time></trkpt><trkpt lat="31.29043430902596" lon="-4.226895317418506"><ele>756.0</ele><time>2026-04-30T11:39:19Z</time></trkpt><trkpt lat="31.29056181970959" lon="-4.226878967475211"><ele>756.0</ele><time>2026-04-30T11:39:20Z</time></trkpt><trkpt lat="31.290698481676984" lon="-4.226887288267876"><ele>756.0</ele><time>2026-04-30T11:39:21Z</time></trkpt><trkpt lat="31.290828717584404" lon="-4.226893324969318"><ele>756.0</ele><time>2026-04-30T11:39:22Z</time></trkpt><trkpt lat="31.29095325821727" lon="-4.226888360013087"><ele>756.0</ele><time>2026-04-30T11:39:23Z</time></trkpt><trkpt lat="31.291067696138228" lon="-4.2268593105561845"><ele>756.0</ele><time>2026-04-30T11:39:24Z</time></trkpt><trkpt lat="31.291165435270994" lon="-4.226791888143422"><ele>756.0</ele><time>2026-04-30T11:39:25Z</time></trkpt><trkpt lat="31.291242480611384" lon="-4.226680708833236"><ele>756.0</ele><time>2026-04-30T11:39:26Z</time></trkpt><trkpt lat="31.291298603594953" lon="-4.226546202767697"><ele>756.0</ele><time>2026-04-30T11:39:27Z</time></trkpt><trkpt lat="31.291346922706303" lon="-4.226391713065263"><ele>756.25</ele><time>2026-04-30T11:39:28Z</time></trkpt><trkpt lat="31.29140371330331" lon="-4.226238550819753"><ele>756.5</ele><time>2026-04-30T11:39:29Z</time></trkpt><trkpt lat="31.2914699228149" lon="-4.226082992928791"><ele>756.75</ele><time>2026-04-30T11:39:30Z</time></trkpt><trkpt lat="31.29154265125337" lon="-4.225929449298534"><ele>757.0</ele><time>2026-04-30T11:39:31Z</time></trkpt><trkpt lat="31.2916241962598" lon="-4.225783897652574"><ele>756.5</ele><time>2026-04-30T11:39:32Z</time></trkpt><trkpt lat="31.291711246159345" lon="-4.225640027023981"><ele>756.0</ele><time>2026-04-30T11:39:33Z</time></trkpt><trkpt lat="31.291795891591523" lon="-4.2254972392753825"><ele>755.5</ele><time>2026-04-30T11:39:34Z</time></trkpt><trkpt lat="31.29188210159178" lon="-4.225357648088511"><ele>755.0</ele><time>2026-04-30T11:39:35Z</time></trkpt><trkpt lat="31.291961597518455" lon="-4.225214341643469"><ele>755.0</ele><time>2026-04-30T11:39:36Z</time></trkpt><trkpt lat="31.292038496584627" lon="-4.22506887978421"><ele>755.0</ele><time>2026-04-30T11:39:37Z</time></trkpt><trkpt lat="31.29211426189443" lon="-4.224930024860908"><ele>755.0</ele><time>2026-04-30T11:39:38Z</time></trkpt><trkpt lat="31.292190339303065" lon="-4.224793050450881"><ele>755.0</ele><time>2026-04-30T11:39:39Z</time></trkpt><trkpt lat="31.292263407023672" lon="-4.2246578685706675"><ele>755.0</ele><time>2026-04-30T11:39:40Z</time></trkpt><trkpt lat="31.292337388651088" lon="-4.224520312173457"><ele>755.0</ele><time>2026-04-30T11:39:41Z</time></trkpt><trkpt lat="31.292407365290696" lon="-4.2243839264273255"><ele>755.0</ele><time>2026-04-30T11:39:42Z</time></trkpt><trkpt lat="31.29247684314267" lon="-4.22424965840822"><ele>755.0</ele><time>2026-04-30T11:39:43Z</time></trkpt><trkpt lat="31.292538711836226" lon="-4.22411538185794"><ele>755.0</ele><time>2026-04-30T11:39:44Z</time></trkpt><trkpt lat="31.292568617398246" lon="-4.223964646981524"><ele>755.0</ele><time>2026-04-30T11:39:45Z</time></trkpt><trkpt lat="31.292568661563767" lon="-4.223796175213234"><ele>755.0</ele><time>2026-04-30T11:39:46Z</time></trkpt><trkpt lat="31.292564881643905" lon="-4.223618946089831"><ele>755.0</ele><time>2026-04-30T11:39:47Z</time></trkpt><trkpt lat="31.292565120028527" lon="-4.223437515981703"><ele>755.0</ele><time>2026-04-30T11:39:48Z</time></trkpt><trkpt lat="31.292563961422474" lon="-4.2232587073171"><ele>755.0</ele><time>2026-04-30T11:39:49Z</time></trkpt><trkpt lat="31.29256435793761" lon="-4.223077832622866"><ele>755.0</ele><time>2026-04-30T11:39:50Z</time></trkpt><trkpt lat="31.2925625938145" lon="-4.222896800647338"><ele>755.0</ele><time>2026-04-30T11:39:51Z</time></trkpt><trkpt lat="31.29255890883677" lon="-4.222723675415234"><ele>755.0</ele><time>2026-04-30T11:39:52Z</time></trkpt><trkpt lat="31.29255723011531" lon="-4.222560193606721"><ele>755.0</ele><time>2026-04-30T11:39:53Z</time></trkpt><trkpt lat="31.29255280982918" lon="-4.222404739974574"><ele>755.0</ele><time>2026-04-30T11:39:54Z</time></trkpt><trkpt lat="31.29254715292528" lon="-4.222246614844352"><ele>754.75</ele><time>2026-04-30T11:39:55Z</time></trkpt><trkpt lat="31.292549598947367" lon="-4.222088256972974"><ele>754.5</ele><time>2026-04-30T11:39:56Z</time></trkpt><trkpt lat="31.2925599731246" lon="-4.221925970796085"><ele>754.25</ele><time>2026-04-30T11:39:57Z</time></trkpt><trkpt lat="31.29257369033028" lon="-4.221764455567841"><ele>754.0</ele><time>2026-04-30T11:39:58Z</time></trkpt><trkpt lat="31.292586661209732" lon="-4.221605911139212"><ele>754.0</ele><time>2026-04-30T11:39:59Z</time></trkpt><trkpt lat="31.29259767527099" lon="-4.221444174149031"><ele>754.0</ele><time>2026-04-30T11:40:00Z</time></trkpt><trkpt lat="31.292610554138196" lon="-4.221284588956379"><ele>754.0</ele><time>2026-04-30T11:40:01Z</time></trkpt><trkpt lat="31.292626116237248" lon="-4.22112240594648"><ele>754.0</ele><time>2026-04-30T11:40:02Z</time></trkpt><trkpt lat="31.292641945642288" lon="-4.22095984605929"><ele>754.0</ele><time>2026-04-30T11:40:03Z</time></trkpt><trkpt lat="31.292659830850727" lon="-4.220797236774899"><ele>754.0</ele><time>2026-04-30T11:40:04Z</time></trkpt><trkpt lat="31.292679827344372" lon="-4.2206341231101705"><ele>754.0</ele><time>2026-04-30T11:40:05Z</time></trkpt><trkpt lat="31.292700048207365" lon="-4.220470206201042"><ele>754.0</ele><time>2026-04-30T11:40:06Z</time></trkpt><trkpt lat="31.292719067856925" lon="-4.220303966076883"><ele>754.0</ele><time>2026-04-30T11:40:07Z</time></trkpt><trkpt lat="31.29273554717408" lon="-4.220137715778564"><ele>754.0</ele><time>2026-04-30T11:40:08Z</time></trkpt><trkpt lat="31.292750327634906" lon="-4.219969978089692"><ele>754.0</ele><time>2026-04-30T11:40:09Z</time></trkpt><trkpt lat="31.292768281073368" lon="-4.219801179335356"><ele>754.0</ele><time>2026-04-30T11:40:10Z</time></trkpt><trkpt lat="31.292790674240585" lon="-4.219633003788365"><ele>754.0</ele><time>2026-04-30T11:40:11Z</time></trkpt><trkpt lat="31.292811679419685" lon="-4.219465480690307"><ele>754.0</ele><time>2026-04-30T11:40:12Z</time></trkpt><trkpt lat="31.29283296104054" lon="-4.2192968277673355"><ele>754.0</ele><time>2026-04-30T11:40:13Z</time></trkpt><trkpt lat="31.292858588877184" lon="-4.21912963638832"><ele>754.0</ele><time>2026-04-30T11:40:14Z</time></trkpt><trkpt lat="31.292886620350615" lon="-4.218961638311484"><ele>753.75</ele><time>2026-04-30T11:40:15Z</time></trkpt><trkpt lat="31.29291663595466" lon="-4.218795406707687"><ele>753.5</ele><time>2026-04-30T11:40:16Z</time></trkpt><trkpt lat="31.292947209165526" lon="-4.2186353891563595"><ele>753.25</ele><time>2026-04-30T11:40:17Z</time></trkpt><trkpt lat="31.292977517949026" lon="-4.21848409458843"><ele>753.0</ele><time>2026-04-30T11:40:18Z</time></trkpt><trkpt lat="31.293011018007064" lon="-4.218331277957211"><ele>753.0</ele><time>2026-04-30T11:40:19Z</time></trkpt><trkpt lat="31.29304756106966" lon="-4.218182024982015"><ele>753.0</ele><time>2026-04-30T11:40:20Z</time></trkpt><trkpt lat="31.29308422776847" lon="-4.218041296864478"><ele>753.0</ele><time>2026-04-30T11:40:21Z</time></trkpt><trkpt lat="31.293119409871032" lon="-4.217905812262473"><ele>753.0</ele><time>2026-04-30T11:40:22Z</time></trkpt><trkpt lat="31.29315685274383" lon="-4.217768405680319"><ele>753.25</ele><time>2026-04-30T11:40:23Z</time></trkpt><trkpt lat="31.293194072788427" lon="-4.217619446776258"><ele>753.5</ele><time>2026-04-30T11:40:24Z</time></trkpt><trkpt lat="31.293231963566974" lon="-4.2174625324798685"><ele>753.75</ele><time>2026-04-30T11:40:25Z</time></trkpt><trkpt lat="31.293275751173926" lon="-4.217300076553207"><ele>754.0</ele><time>2026-04-30T11:40:26Z</time></trkpt><trkpt lat="31.2933201040733" lon="-4.217133782046184"><ele>754.0</ele><time>2026-04-30T11:40:27Z</time></trkpt><trkpt lat="31.293365683811018" lon="-4.216967917556351"><ele>754.0</ele><time>2026-04-30T11:40:28Z</time></trkpt><trkpt lat="31.293408891437206" lon="-4.216800199345795"><ele>754.0</ele><time>2026-04-30T11:40:29Z</time></trkpt><trkpt lat="31.29344950984039" lon="-4.216628929364702"><ele>753.6666666666667</ele><time>2026-04-30T11:40:30Z</time></trkpt><trkpt lat="31.29348684849112" lon="-4.216455501163786"><ele>753.3333333333334</ele><time>2026-04-30T11:40:31Z</time></trkpt><trkpt lat="31.29351991309928" lon="-4.216277532922589"><ele>753.0</ele><time>2026-04-30T11:40:32Z</time></trkpt><trkpt lat="31.293550260260794" lon="-4.216100322156393"><ele>753.0</ele><time>2026-04-30T11:40:33Z</time></trkpt><trkpt lat="31.293573074197397" lon="-4.215916568672739"><ele>753.0</ele><time>2026-04-30T11:40:34Z</time></trkpt><trkpt lat="31.293594222700207" lon="-4.215733572340851"><ele>753.0</ele><time>2026-04-30T11:40:35Z</time></trkpt><trkpt lat="31.293608452703854" lon="-4.21554637161961"><ele>753.0</ele><time>2026-04-30T11:40:36Z</time></trkpt><trkpt lat="31.293616138293913" lon="-4.215357129188182"><ele>753.0</ele><time>2026-04-30T11:40:37Z</time></trkpt><trkpt lat="31.2936207273073" lon="-4.215163644644257"><ele>753.0</ele><time>2026-04-30T11:40:38Z</time></trkpt><trkpt lat="31.29362384313608" lon="-4.2149694114842875"><ele>754.3333333333334</ele><time>2026-04-30T11:40:39Z</time></trkpt><trkpt lat="31.293629418000307" lon="-4.21477167940532"><ele>755.6666666666667</ele><time>2026-04-30T11:40:40Z</time></trkpt><trkpt lat="31.29363099383889" lon="-4.214573093861402"><ele>757.0</ele><time>2026-04-30T11:40:41Z</time></trkpt><trkpt lat="31.293633431541554" lon="-4.214370683611524"><ele>757.0</ele><time>2026-04-30T11:40:42Z</time></trkpt><trkpt lat="31.29363811021642" lon="-4.214163542518542"><ele>757.0</ele><time>2026-04-30T11:40:43Z</time></trkpt><trkpt lat="31.293643786906554" lon="-4.213952878714515"><ele>757.0</ele><time>2026-04-30T11:40:44Z</time></trkpt><trkpt lat="31.293649549534393" lon="-4.2137432975834805"><ele>756.6666666666667</ele><time>2026-04-30T11:40:45Z</time></trkpt><trkpt lat="31.29365290014514" lon="-4.213531539834555"><ele>756.3333333333334</ele><time>2026-04-30T11:40:46Z</time></trkpt><trkpt lat="31.293653638897144" lon="-4.213312437980818"><ele>756.0</ele><time>2026-04-30T11:40:47Z</time></trkpt><trkpt lat="31.293655881117644" lon="-4.213093004994655"><ele>755.3333333333334</ele><time>2026-04-30T11:40:48Z</time></trkpt><trkpt lat="31.293660804879234" lon="-4.212872568089516"><ele>754.6666666666667</ele><time>2026-04-30T11:40:49Z</time></trkpt><trkpt lat="31.293665124892502" lon="-4.212649480487255"><ele>754.0</ele><time>2026-04-30T11:40:50Z</time></trkpt><trkpt lat="31.293672191134597" lon="-4.212432850455737"><ele>753.6666666666667</ele><time>2026-04-30T11:40:51Z</time></trkpt><trkpt lat="31.293676607904402" lon="-4.212204242190687"><ele>753.3333333333334</ele><time>2026-04-30T11:40:52Z</time></trkpt><trkpt lat="31.293686070994067" lon="-4.2119778473556915"><ele>753.0</ele><time>2026-04-30T11:40:53Z</time></trkpt><trkpt lat="31.293690277633402" lon="-4.211753502864458"><ele>753.0</ele><time>2026-04-30T11:40:54Z</time></trkpt><trkpt lat="31.293691907438365" lon="-4.211530988474204"><ele>753.0</ele><time>2026-04-30T11:40:55Z</time></trkpt><trkpt lat="31.293695149062323" lon="-4.211307405165667"><ele>753.0</ele><time>2026-04-30T11:40:56Z</time></trkpt><trkpt lat="31.29370282178898" lon="-4.211080364439185"><ele>752.3333333333334</ele><time>2026-04-30T11:40:57Z</time></trkpt><trkpt lat="31.293708484186435" lon="-4.21085325724559"><ele>751.6666666666667</ele><time>2026-04-30T11:40:58Z</time></trkpt><trkpt lat="31.29371462791415" lon="-4.21062255343488"><ele>751.0</ele><time>2026-04-30T11:40:59Z</time></trkpt><trkpt lat="31.293718836585892" lon="-4.21038911187045"><ele>751.3333333333334</ele><time>2026-04-30T11:41:00Z</time></trkpt><trkpt lat="31.293721132794087" lon="-4.2101602163441445"><ele>751.6666666666666</ele><time>2026-04-30T11:41:01Z</time></trkpt><trkpt lat="31.2937233773202" lon="-4.2099327000868385"><ele>752.0</ele><time>2026-04-30T11:41:02Z</time></trkpt><trkpt lat="31.29372847140114" lon="-4.209707963856796"><ele>752.0</ele><time>2026-04-30T11:41:03Z</time></trkpt><trkpt lat="31.293733894460896" lon="-4.209479388984876"><ele>752.0</ele><time>2026-04-30T11:41:04Z</time></trkpt><trkpt lat="31.29373972917076" lon="-4.209250123244229"><ele>752.0</ele><time>2026-04-30T11:41:05Z</time></trkpt><trkpt lat="31.293748339802764" lon="-4.209020365958943"><ele>752.0</ele><time>2026-04-30T11:41:06Z</time></trkpt><trkpt lat="31.29376157685023" lon="-4.208783623339531"><ele>752.0</ele><time>2026-04-30T11:41:07Z</time></trkpt><trkpt lat="31.293763694511494" lon="-4.208556325631075"><ele>752.0</ele><time>2026-04-30T11:41:08Z</time></trkpt><trkpt lat="31.29376514966035" lon="-4.208331915861597"><ele>751.6666666666666</ele><time>2026-04-30T11:41:09Z</time></trkpt><trkpt lat="31.29376490769083" lon="-4.208110534162257"><ele>751.3333333333334</ele><time>2026-04-30T11:41:10Z</time></trkpt><trkpt lat="31.29377319176802" lon="-4.207891571114589"><ele>751.0</ele><time>2026-04-30T11:41:11Z</time></trkpt><trkpt lat="31.29378140945636" lon="-4.207677068781315"><ele>751.0</ele><time>2026-04-30T11:41:12Z</time></trkpt><trkpt lat="31.29378425651568" lon="-4.207461934772757"><ele>751.0</ele><time>2026-04-30T11:41:13Z</time></trkpt><trkpt lat="31.29378898170339" lon="-4.20724169972909"><ele>751.0</ele><time>2026-04-30T11:41:14Z</time></trkpt><trkpt lat="31.293792988207795" lon="-4.2070220370450455"><ele>751.3333333333334</ele><time>2026-04-30T11:41:15Z</time></trkpt><trkpt lat="31.293792922176124" lon="-4.206795273668329"><ele>751.6666666666666</ele><time>2026-04-30T11:41:16Z</time></trkpt><trkpt lat="31.293796195615727" lon="-4.206565948574352"><ele>752.0</ele><time>2026-04-30T11:41:17Z</time></trkpt><trkpt lat="31.293800527157423" lon="-4.20633366946825"><ele>751.3333333333333</ele><time>2026-04-30T11:41:18Z</time></trkpt><trkpt lat="31.293805297814668" lon="-4.206099059787348"><ele>750.6666666666666</ele><time>2026-04-30T11:41:19Z</time></trkpt><trkpt lat="31.29380906750198" lon="-4.205866918951714"><ele>750.0</ele><time>2026-04-30T11:41:20Z</time></trkpt><trkpt lat="31.29381359289599" lon="-4.205630848892859"><ele>750.0</ele><time>2026-04-30T11:41:21Z</time></trkpt><trkpt lat="31.293822562031732" lon="-4.205394927891553"><ele>750.0</ele><time>2026-04-30T11:41:22Z</time></trkpt><trkpt lat="31.293828894304895" lon="-4.205155310535023"><ele>750.0</ele><time>2026-04-30T11:41:23Z</time></trkpt><trkpt lat="31.293833799579264" lon="-4.204916378014977"><ele>751.0</ele><time>2026-04-30T11:41:24Z</time></trkpt><trkpt lat="31.29383812318728" lon="-4.204674905776491"><ele>752.0</ele><time>2026-04-30T11:41:25Z</time></trkpt><trkpt lat="31.293841156816782" lon="-4.204432697475993"><ele>753.0</ele><time>2026-04-30T11:41:26Z</time></trkpt><trkpt lat="31.29384725923617" lon="-4.204187837016186"><ele>752.0</ele><time>2026-04-30T11:41:27Z</time></trkpt><trkpt lat="31.293852707429572" lon="-4.203942405818394"><ele>751.0</ele><time>2026-04-30T11:41:28Z</time></trkpt><trkpt lat="31.293856398257173" lon="-4.203696272269954"><ele>750.0</ele><time>2026-04-30T11:41:29Z</time></trkpt><trkpt lat="31.293860343324546" lon="-4.203449096579705"><ele>750.0</ele><time>2026-04-30T11:41:30Z</time></trkpt><trkpt lat="31.293867533653483" lon="-4.203203928489475"><ele>750.0</ele><time>2026-04-30T11:41:31Z</time></trkpt><trkpt lat="31.293873470567927" lon="-4.202953588675091"><ele>750.0</ele><time>2026-04-30T11:41:32Z</time></trkpt><trkpt lat="31.293878642550716" lon="-4.202705713410269"><ele>750.0</ele><time>2026-04-30T11:41:33Z</time></trkpt><trkpt lat="31.2938820184922" lon="-4.202452828920021"><ele>750.0</ele><time>2026-04-30T11:41:34Z</time></trkpt><trkpt lat="31.293885490465915" lon="-4.202199500816019"><ele>750.0</ele><time>2026-04-30T11:41:35Z</time></trkpt><trkpt lat="31.293889662685448" lon="-4.2019461436113765"><ele>750.0</ele><time>2026-04-30T11:41:36Z</time></trkpt><trkpt lat="31.293895695168533" lon="-4.201692450379232"><ele>750.0</ele><time>2026-04-30T11:41:37Z</time></trkpt><trkpt lat="31.293901633543847" lon="-4.201437769554274"><ele>750.0</ele><time>2026-04-30T11:41:38Z</time></trkpt><trkpt lat="31.29390790462159" lon="-4.201185375371506"><ele>750.6666666666666</ele><time>2026-04-30T11:41:39Z</time></trkpt><trkpt lat="31.29391187211679" lon="-4.20092887656211"><ele>751.3333333333333</ele><time>2026-04-30T11:41:40Z</time></trkpt><trkpt lat="31.293911941091253" lon="-4.200672482535053"><ele>752.0</ele><time>2026-04-30T11:41:41Z</time></trkpt><trkpt lat="31.293916170831828" lon="-4.200416190204402"><ele>751.6666666666666</ele><time>2026-04-30T11:41:42Z</time></trkpt><trkpt lat="31.293920861105466" lon="-4.200164238690642"><ele>751.3333333333334</ele><time>2026-04-30T11:41:43Z</time></trkpt><trkpt lat="31.293925454013856" lon="-4.199923295014035"><ele>751.0</ele><time>2026-04-30T11:41:44Z</time></trkpt><trkpt lat="31.293931058128507" lon="-4.199687446476346"><ele>751.0</ele><time>2026-04-30T11:41:45Z</time></trkpt><trkpt lat="31.293938272881686" lon="-4.199452464469686"><ele>751.0</ele><time>2026-04-30T11:41:46Z</time></trkpt><trkpt lat="31.29394533162334" lon="-4.199214906304236"><ele>751.0</ele><time>2026-04-30T11:41:47Z</time></trkpt><trkpt lat="31.293951078761232" lon="-4.198976448884569"><ele>750.6666666666667</ele><time>2026-04-30T11:41:48Z</time></trkpt><trkpt lat="31.29395523636641" lon="-4.198738704083598"><ele>750.3333333333334</ele><time>2026-04-30T11:41:49Z</time></trkpt><trkpt lat="31.293958478300002" lon="-4.1985005876694075"><ele>750.0</ele><time>2026-04-30T11:41:50Z</time></trkpt><trkpt lat="31.29396101357251" lon="-4.198259400421242"><ele>750.3333333333334</ele><time>2026-04-30T11:41:51Z</time></trkpt><trkpt lat="31.29396460805535" lon="-4.198019407953641"><ele>750.6666666666667</ele><time>2026-04-30T11:41:52Z</time></trkpt><trkpt lat="31.293969988921756" lon="-4.197779812998048"><ele>751.0</ele><time>2026-04-30T11:41:53Z</time></trkpt><trkpt lat="31.293975790158093" lon="-4.197538940753915"><ele>751.0</ele><time>2026-04-30T11:41:54Z</time></trkpt><trkpt lat="31.293981547846286" lon="-4.197297098642529"><ele>751.0</ele><time>2026-04-30T11:41:55Z</time></trkpt><trkpt lat="31.293985131796695" lon="-4.197052135645544"><ele>751.0</ele><time>2026-04-30T11:41:56Z</time></trkpt><trkpt lat="31.293989943532523" lon="-4.196808869334317"><ele>751.0</ele><time>2026-04-30T11:41:57Z</time></trkpt><trkpt lat="31.293995626826582" lon="-4.196567309079777"><ele>751.0</ele><time>2026-04-30T11:41:58Z</time></trkpt><trkpt lat="31.294000219420063" lon="-4.196324776941713"><ele>751.0</ele><time>2026-04-30T11:41:59Z</time></trkpt><trkpt lat="31.294002101691458" lon="-4.1960880668993905"><ele>751.6666666666667</ele><time>2026-04-30T11:42:00Z</time></trkpt><trkpt lat="31.294005188898776" lon="-4.195858606282523"><ele>752.3333333333334</ele><time>2026-04-30T11:42:01Z</time></trkpt><trkpt lat="31.2940072939102" lon="-4.195640147178972"><ele>753.0</ele><time>2026-04-30T11:42:02Z</time></trkpt><trkpt lat="31.294010596025856" lon="-4.195419349072766"><ele>753.0</ele><time>2026-04-30T11:42:03Z</time></trkpt><trkpt lat="31.294017073269128" lon="-4.195195391951556"><ele>753.0</ele><time>2026-04-30T11:42:04Z</time></trkpt><trkpt lat="31.294022084797902" lon="-4.194972992732999"><ele>753.0</ele><time>2026-04-30T11:42:05Z</time></trkpt><trkpt lat="31.29402618142467" lon="-4.1947494923388655"><ele>752.3333333333334</ele><time>2026-04-30T11:42:06Z</time></trkpt><trkpt lat="31.294028997674445" lon="-4.194524865047371"><ele>751.6666666666667</ele><time>2026-04-30T11:42:07Z</time></trkpt><trkpt lat="31.29403158235531" lon="-4.194299712707191"><ele>751.0</ele><time>2026-04-30T11:42:08Z</time></trkpt><trkpt lat="31.294034929668758" lon="-4.19407439122356"><ele>751.0</ele><time>2026-04-30T11:42:09Z</time></trkpt><trkpt lat="31.294042442818423" lon="-4.193846974019315"><ele>751.0</ele><time>2026-04-30T11:42:10Z</time></trkpt><trkpt lat="31.29405433539283" lon="-4.193616986394791"><ele>751.0</ele><time>2026-04-30T11:42:11Z</time></trkpt><trkpt lat="31.294063749472155" lon="-4.193388153951191"><ele>751.3333333333334</ele><time>2026-04-30T11:42:12Z</time></trkpt><trkpt lat="31.29406879555807" lon="-4.193156210950127"><ele>751.6666666666666</ele><time>2026-04-30T11:42:13Z</time></trkpt><trkpt lat="31.294067295968176" lon="-4.19292252774945"><ele>752.0</ele><time>2026-04-30T11:42:14Z</time></trkpt><trkpt lat="31.294070175007246" lon="-4.192689854528086"><ele>752.0</ele><time>2026-04-30T11:42:15Z</time></trkpt><trkpt lat="31.29407877555178" lon="-4.192453426856243"><ele>752.0</ele><time>2026-04-30T11:42:16Z</time></trkpt><trkpt lat="31.294084880563304" lon="-4.192218745063859"><ele>752.0</ele><time>2026-04-30T11:42:17Z</time></trkpt><trkpt lat="31.294089873224486" lon="-4.191984434606449"><ele>752.0</ele><time>2026-04-30T11:42:18Z</time></trkpt><trkpt lat="31.29409514353379" lon="-4.191748280772134"><ele>752.0</ele><time>2026-04-30T11:42:19Z</time></trkpt><trkpt lat="31.29409879090573" lon="-4.191508527485486"><ele>752.0</ele><time>2026-04-30T11:42:20Z</time></trkpt><trkpt lat="31.294105354757946" lon="-4.191267762292594"><ele>752.0</ele><time>2026-04-30T11:42:21Z</time></trkpt><trkpt lat="31.294110487710853" lon="-4.191023982947042"><ele>752.0</ele><time>2026-04-30T11:42:22Z</time></trkpt><trkpt lat="31.29411549795336" lon="-4.190780132161245"><ele>752.0</ele><time>2026-04-30T11:42:23Z</time></trkpt><trkpt lat="31.294121706809214" lon="-4.190535274902509"><ele>752.0</ele><time>2026-04-30T11:42:24Z</time></trkpt><trkpt lat="31.294126080456188" lon="-4.190289295115142"><ele>752.0</ele><time>2026-04-30T11:42:25Z</time></trkpt><trkpt lat="31.294128651081223" lon="-4.190039553013444"><ele>752.0</ele><time>2026-04-30T11:42:26Z</time></trkpt><trkpt lat="31.294131057645608" lon="-4.189791742342194"><ele>752.0</ele><time>2026-04-30T11:42:27Z</time></trkpt><trkpt lat="31.294136240229864" lon="-4.189543290529875"><ele>752.0</ele><time>2026-04-30T11:42:28Z</time></trkpt><trkpt lat="31.29414377441161" lon="-4.189293341618665"><ele>752.0</ele><time>2026-04-30T11:42:29Z</time></trkpt><trkpt lat="31.29415033526731" lon="-4.1890423778115"><ele>751.6666666666666</ele><time>2026-04-30T11:42:30Z</time></trkpt><trkpt lat="31.294156498545366" lon="-4.188789691419032"><ele>751.3333333333334</ele><time>2026-04-30T11:42:31Z</time></trkpt><trkpt lat="31.294163813297008" lon="-4.188538675374469"><ele>751.0</ele><time>2026-04-30T11:42:32Z</time></trkpt><trkpt lat="31.294170296547158" lon="-4.188288895560607"><ele>751.3333333333334</ele><time>2026-04-30T11:42:33Z</time></trkpt><trkpt lat="31.29417404982492" lon="-4.188038581375814"><ele>751.6666666666666</ele><time>2026-04-30T11:42:34Z</time></trkpt><trkpt lat="31.2941760031827" lon="-4.187787087062595"><ele>752.0</ele><time>2026-04-30T11:42:35Z</time></trkpt><trkpt lat="31.294179885790996" lon="-4.187537753331687"><ele>751.6666666666666</ele><time>2026-04-30T11:42:36Z</time></trkpt><trkpt lat="31.294185142080774" lon="-4.187292336668234"><ele>751.3333333333334</ele><time>2026-04-30T11:42:37Z</time></trkpt><trkpt lat="31.2941879333505" lon="-4.187050367379111"><ele>751.0</ele><time>2026-04-30T11:42:38Z</time></trkpt><trkpt lat="31.294188763927508" lon="-4.186807970143948"><ele>751.0</ele><time>2026-04-30T11:42:39Z</time></trkpt><trkpt lat="31.294191758218933" lon="-4.18656718365765"><ele>751.0</ele><time>2026-04-30T11:42:40Z</time></trkpt><trkpt lat="31.294195874064656" lon="-4.186328372214469"><ele>751.0</ele><time>2026-04-30T11:42:41Z</time></trkpt><trkpt lat="31.294193488351514" lon="-4.186088638580978"><ele>751.0</ele><time>2026-04-30T11:42:42Z</time></trkpt><trkpt lat="31.294178494534854" lon="-4.185853305741072"><ele>751.0</ele><time>2026-04-30T11:42:43Z</time></trkpt><trkpt lat="31.294145534719476" lon="-4.185620611732956"><ele>751.0</ele><time>2026-04-30T11:42:44Z</time></trkpt><trkpt lat="31.294097324703582" lon="-4.18539522431181"><ele>751.0</ele><time>2026-04-30T11:42:45Z</time></trkpt><trkpt lat="31.29403423477204" lon="-4.185186207066665"><ele>751.0</ele><time>2026-04-30T11:42:46Z</time></trkpt><trkpt lat="31.293959684019573" lon="-4.184987798555862"><ele>751.0</ele><time>2026-04-30T11:42:47Z</time></trkpt><trkpt lat="31.293870407099565" lon="-4.1847953493364916"><ele>751.3333333333334</ele><time>2026-04-30T11:42:48Z</time></trkpt><trkpt lat="31.293764516185078" lon="-4.184616279746694"><ele>751.6666666666666</ele><time>2026-04-30T11:42:49Z</time></trkpt><trkpt lat="31.29363989622902" lon="-4.184448075841532"><ele>752.0</ele><time>2026-04-30T11:42:50Z</time></trkpt><trkpt lat="31.293510324767798" lon="-4.184285734553085"><ele>752.0</ele><time>2026-04-30T11:42:51Z</time></trkpt><trkpt lat="31.293379286135824" lon="-4.18412135449131"><ele>752.0</ele><time>2026-04-30T11:42:52Z</time></trkpt><trkpt lat="31.29324500429345" lon="-4.183959022588304"><ele>752.0</ele><time>2026-04-30T11:42:53Z</time></trkpt><trkpt lat="31.293105466320487" lon="-4.183797069570347"><ele>751.6666666666666</ele><time>2026-04-30T11:42:54Z</time></trkpt><trkpt lat="31.29296214457709" lon="-4.18363556854823"><ele>751.3333333333334</ele><time>2026-04-30T11:42:55Z</time></trkpt><trkpt lat="31.292817775835832" lon="-4.183477529274421"><ele>751.0</ele><time>2026-04-30T11:42:56Z</time></trkpt><trkpt lat="31.292672228239944" lon="-4.183317522551752"><ele>751.3333333333334</ele><time>2026-04-30T11:42:57Z</time></trkpt><trkpt lat="31.292526707046136" lon="-4.183158246533719"><ele>751.6666666666666</ele><time>2026-04-30T11:42:58Z</time></trkpt><trkpt lat="31.29237956637008" lon="-4.18299587627899"><ele>752.0</ele><time>2026-04-30T11:42:59Z</time></trkpt><trkpt lat="31.292233041789842" lon="-4.182833184704822"><ele>752.0</ele><time>2026-04-30T11:43:00Z</time></trkpt><trkpt lat="31.292089133561912" lon="-4.182669330168866"><ele>752.0</ele><time>2026-04-30T11:43:01Z</time></trkpt><trkpt lat="31.29194411691751" lon="-4.182505406922491"><ele>752.0</ele><time>2026-04-30T11:43:02Z</time></trkpt><trkpt lat="31.29179908862671" lon="-4.182340385634742"><ele>751.6666666666666</ele><time>2026-04-30T11:43:03Z</time></trkpt><trkpt lat="31.291654932305576" lon="-4.1821742268906785"><ele>751.3333333333334</ele><time>2026-04-30T11:43:04Z</time></trkpt><trkpt lat="31.2915073312212" lon="-4.182010236605491"><ele>751.0</ele><time>2026-04-30T11:43:05Z</time></trkpt><trkpt lat="31.291363311915543" lon="-4.181846170842155"><ele>750.6666666666667</ele><time>2026-04-30T11:43:06Z</time></trkpt><trkpt lat="31.29121972762117" lon="-4.181677603720534"><ele>750.3333333333334</ele><time>2026-04-30T11:43:07Z</time></trkpt><trkpt lat="31.291072667744405" lon="-4.181507864072742"><ele>750.0</ele><time>2026-04-30T11:43:08Z</time></trkpt><trkpt lat="31.2909265391458" lon="-4.181340843964616"><ele>750.0</ele><time>2026-04-30T11:43:09Z</time></trkpt><trkpt lat="31.29077900642438" lon="-4.181173698151513"><ele>750.0</ele><time>2026-04-30T11:43:10Z</time></trkpt><trkpt lat="31.290627831158343" lon="-4.181005983781834"><ele>750.0</ele><time>2026-04-30T11:43:11Z</time></trkpt><trkpt lat="31.29047872006788" lon="-4.180843048202895"><ele>750.0</ele><time>2026-04-30T11:43:12Z</time></trkpt><trkpt lat="31.29033132602096" lon="-4.180685460948325"><ele>750.0</ele><time>2026-04-30T11:43:13Z</time></trkpt><trkpt lat="31.290188526714662" lon="-4.18053111324212"><ele>750.0</ele><time>2026-04-30T11:43:14Z</time></trkpt><trkpt lat="31.290048338489843" lon="-4.180372834501595"><ele>750.0</ele><time>2026-04-30T11:43:15Z</time></trkpt><trkpt lat="31.28991022689088" lon="-4.180214012227584"><ele>750.0</ele><time>2026-04-30T11:43:16Z</time></trkpt><trkpt lat="31.28977151541705" lon="-4.180056971371842"><ele>750.0</ele><time>2026-04-30T11:43:17Z</time></trkpt><trkpt lat="31.28963342141042" lon="-4.179901218667571"><ele>750.0</ele><time>2026-04-30T11:43:18Z</time></trkpt><trkpt lat="31.28949021772382" lon="-4.17973708238185"><ele>750.0</ele><time>2026-04-30T11:43:19Z</time></trkpt><trkpt lat="31.289348420301927" lon="-4.179580184973341"><ele>750.0</ele><time>2026-04-30T11:43:20Z</time></trkpt><trkpt lat="31.28919963508124" lon="-4.179422417434363"><ele>750.0</ele><time>2026-04-30T11:43:21Z</time></trkpt><trkpt lat="31.289055274149344" lon="-4.179264951619182"><ele>750.0</ele><time>2026-04-30T11:43:22Z</time></trkpt><trkpt lat="31.28890467711291" lon="-4.179108998604788"><ele>750.0</ele><time>2026-04-30T11:43:23Z</time></trkpt><trkpt lat="31.288750009997" lon="-4.178956814027924"><ele>750.3333333333334</ele><time>2026-04-30T11:43:24Z</time></trkpt><trkpt lat="31.288596446998355" lon="-4.178802353537722"><ele>750.6666666666667</ele><time>2026-04-30T11:43:25Z</time></trkpt><trkpt lat="31.28843530912873" lon="-4.178649590318755"><ele>751.0</ele><time>2026-04-30T11:43:26Z</time></trkpt><trkpt lat="31.288272802824416" lon="-4.178501807353544"><ele>751.0</ele><time>2026-04-30T11:43:27Z</time></trkpt><trkpt lat="31.288104087800118" lon="-4.1783555274208535"><ele>751.0</ele><time>2026-04-30T11:43:28Z</time></trkpt><trkpt lat="31.28793380280992" lon="-4.17821067730929"><ele>751.0</ele><time>2026-04-30T11:43:29Z</time></trkpt><trkpt lat="31.287762263567885" lon="-4.178064774914189"><ele>751.0</ele><time>2026-04-30T11:43:30Z</time></trkpt><trkpt lat="31.287590371732804" lon="-4.177918652214058"><ele>751.0</ele><time>2026-04-30T11:43:31Z</time></trkpt><trkpt lat="31.287413918512375" lon="-4.177771774635568"><ele>751.0</ele><time>2026-04-30T11:43:32Z</time></trkpt><trkpt lat="31.287239836839603" lon="-4.177626649712556"><ele>750.3333333333334</ele><time>2026-04-30T11:43:33Z</time></trkpt><trkpt lat="31.287064334331596" lon="-4.177479550187481"><ele>749.6666666666666</ele><time>2026-04-30T11:43:34Z</time></trkpt><trkpt lat="31.286890961286005" lon="-4.177331341640167"><ele>749.0</ele><time>2026-04-30T11:43:35Z</time></trkpt><trkpt lat="31.28671593982087" lon="-4.17718222350851"><ele>749.0</ele><time>2026-04-30T11:43:36Z</time></trkpt><trkpt lat="31.286540621968133" lon="-4.1770335588992324"><ele>749.0</ele><time>2026-04-30T11:43:37Z</time></trkpt><trkpt lat="31.286368387456623" lon="-4.176884055418413"><ele>749.0</ele><time>2026-04-30T11:43:38Z</time></trkpt><trkpt lat="31.28619609503978" lon="-4.176734504853964"><ele>749.0</ele><time>2026-04-30T11:43:39Z</time></trkpt><trkpt lat="31.286023132151794" lon="-4.176584758831929"><ele>749.0</ele><time>2026-04-30T11:43:40Z</time></trkpt><trkpt lat="31.285849962202995" lon="-4.17643522135389"><ele>749.0</ele><time>2026-04-30T11:43:41Z</time></trkpt><trkpt lat="31.28567958206477" lon="-4.1762850161246785"><ele>749.0</ele><time>2026-04-30T11:43:42Z</time></trkpt><trkpt lat="31.285506378334173" lon="-4.176133070945369"><ele>749.0</ele><time>2026-04-30T11:43:43Z</time></trkpt><trkpt lat="31.2853297902406" lon="-4.175984684926427"><ele>749.0</ele><time>2026-04-30T11:43:44Z</time></trkpt><trkpt lat="31.285152229736028" lon="-4.175836558598366"><ele>749.0</ele><time>2026-04-30T11:43:45Z</time></trkpt><trkpt lat="31.284984034685287" lon="-4.175698647084657"><ele>749.0</ele><time>2026-04-30T11:43:46Z</time></trkpt><trkpt lat="31.284818027835865" lon="-4.175554049083409"><ele>749.0</ele><time>2026-04-30T11:43:47Z</time></trkpt><trkpt lat="31.284652362864303" lon="-4.175412064599526"><ele>749.3333333333333</ele><time>2026-04-30T11:43:48Z</time></trkpt><trkpt lat="31.28448794200694" lon="-4.1752715209075895"><ele>749.6666666666666</ele><time>2026-04-30T11:43:49Z</time></trkpt><trkpt lat="31.284323297001876" lon="-4.175130627586555"><ele>750.0</ele><time>2026-04-30T11:43:50Z</time></trkpt><trkpt lat="31.284159660874444" lon="-4.174987568367625"><ele>750.0</ele><time>2026-04-30T11:43:51Z</time></trkpt><trkpt lat="31.283993877286726" lon="-4.1748497133886"><ele>750.0</ele><time>2026-04-30T11:43:52Z</time></trkpt><trkpt lat="31.283825470069576" lon="-4.1747114525716364"><ele>750.0</ele><time>2026-04-30T11:43:53Z</time></trkpt><trkpt lat="31.283652792393326" lon="-4.174581653327125"><ele>749.6666666666666</ele><time>2026-04-30T11:43:54Z</time></trkpt><trkpt lat="31.28347942764435" lon="-4.174455126405393"><ele>749.3333333333333</ele><time>2026-04-30T11:43:55Z</time></trkpt><trkpt lat="31.28330208256709" lon="-4.174327830764358"><ele>749.0</ele><time>2026-04-30T11:43:56Z</time></trkpt><trkpt lat="31.283127567858262" lon="-4.174200487967898"><ele>748.6666666666666</ele><time>2026-04-30T11:43:57Z</time></trkpt><trkpt lat="31.282955775143463" lon="-4.174072954352843"><ele>748.3333333333334</ele><time>2026-04-30T11:43:58Z</time></trkpt><trkpt lat="31.282785774189406" lon="-4.173942263633703"><ele>748.0</ele><time>2026-04-30T11:43:59Z</time></trkpt><trkpt lat="31.282616672418317" lon="-4.173816794330086"><ele>748.0</ele><time>2026-04-30T11:44:00Z</time></trkpt><trkpt lat="31.282443874233394" lon="-4.173687369212458"><ele>748.0</ele><time>2026-04-30T11:44:01Z</time></trkpt><trkpt lat="31.282273715763615" lon="-4.1735578814566505"><ele>748.0</ele><time>2026-04-30T11:44:02Z</time></trkpt><trkpt lat="31.282102681632743" lon="-4.173431020924454"><ele>748.0</ele><time>2026-04-30T11:44:03Z</time></trkpt><trkpt lat="31.28193050437057" lon="-4.173303602620578"><ele>748.0</ele><time>2026-04-30T11:44:04Z</time></trkpt><trkpt lat="31.281756662068833" lon="-4.173175750550997"><ele>748.0</ele><time>2026-04-30T11:44:05Z</time></trkpt><trkpt lat="31.281584695727677" lon="-4.173046442455941"><ele>748.0</ele><time>2026-04-30T11:44:06Z</time></trkpt><trkpt lat="31.281412676907287" lon="-4.17291719090541"><ele>748.0</ele><time>2026-04-30T11:44:07Z</time></trkpt><trkpt lat="31.281239841751617" lon="-4.172789161612089"><ele>748.0</ele><time>2026-04-30T11:44:08Z</time></trkpt><trkpt lat="31.28106842881235" lon="-4.1726608114257475"><ele>748.0</ele><time>2026-04-30T11:44:09Z</time></trkpt><trkpt lat="31.280896530410907" lon="-4.172530531249047"><ele>748.0</ele><time>2026-04-30T11:44:10Z</time></trkpt><trkpt lat="31.28072465266987" lon="-4.172402473719779"><ele>748.0</ele><time>2026-04-30T11:44:11Z</time></trkpt><trkpt lat="31.28055325502887" lon="-4.17227823889612"><ele>747.6666666666667</ele><time>2026-04-30T11:44:12Z</time></trkpt><trkpt lat="31.280382891839693" lon="-4.172152068838223"><ele>747.3333333333334</ele><time>2026-04-30T11:44:13Z</time></trkpt><trkpt lat="31.280211405722383" lon="-4.172024562184711"><ele>747.0</ele><time>2026-04-30T11:44:14Z</time></trkpt><trkpt lat="31.280042060680856" lon="-4.171899224826147"><ele>747.0</ele><time>2026-04-30T11:44:15Z</time></trkpt><trkpt lat="31.279873163912743" lon="-4.171769421892477"><ele>747.0</ele><time>2026-04-30T11:44:16Z</time></trkpt><trkpt lat="31.279703553100404" lon="-4.1716398722225225"><ele>747.0</ele><time>2026-04-30T11:44:17Z</time></trkpt><trkpt lat="31.27953133101003" lon="-4.171513170919554"><ele>747.0</ele><time>2026-04-30T11:44:18Z</time></trkpt><trkpt lat="31.27935709092698" lon="-4.1713876444503715"><ele>747.0</ele><time>2026-04-30T11:44:19Z</time></trkpt><trkpt lat="31.279185787971702" lon="-4.171254412643174"><ele>747.0</ele><time>2026-04-30T11:44:20Z</time></trkpt><trkpt lat="31.279010102612162" lon="-4.171121283986354"><ele>747.3333333333334</ele><time>2026-04-30T11:44:21Z</time></trkpt><trkpt lat="31.2788288150899" lon="-4.170996113425025"><ele>747.6666666666667</ele><time>2026-04-30T11:44:22Z</time></trkpt><trkpt lat="31.27865366508553" lon="-4.170863165937581"><ele>748.0</ele><time>2026-04-30T11:44:23Z</time></trkpt><trkpt lat="31.27848035580427" lon="-4.1707190859144285"><ele>747.3333333333334</ele><time>2026-04-30T11:44:24Z</time></trkpt><trkpt lat="31.278300465896304" lon="-4.170589474638796"><ele>746.6666666666666</ele><time>2026-04-30T11:44:25Z</time></trkpt><trkpt lat="31.278119857188734" lon="-4.170457172451805"><ele>746.0</ele><time>2026-04-30T11:44:26Z</time></trkpt><trkpt lat="31.277941999907686" lon="-4.170318524891996"><ele>745.6666666666666</ele><time>2026-04-30T11:44:27Z</time></trkpt><trkpt lat="31.277760676700854" lon="-4.170185687217741"><ele>745.3333333333334</ele><time>2026-04-30T11:44:28Z</time></trkpt><trkpt lat="31.27757943181479" lon="-4.170057283057231"><ele>745.0</ele><time>2026-04-30T11:44:29Z</time></trkpt><trkpt lat="31.277402108639613" lon="-4.169924862911839"><ele>746.0</ele><time>2026-04-30T11:44:30Z</time></trkpt><trkpt lat="31.277223759974376" lon="-4.169792120717202"><ele>747.0</ele><time>2026-04-30T11:44:31Z</time></trkpt><trkpt lat="31.277046685712367" lon="-4.169658343782943"><ele>748.0</ele><time>2026-04-30T11:44:32Z</time></trkpt><trkpt lat="31.276869383900888" lon="-4.169521284201761"><ele>748.0</ele><time>2026-04-30T11:44:33Z</time></trkpt><trkpt lat="31.27668771849465" lon="-4.1693858808937625"><ele>748.0</ele><time>2026-04-30T11:44:34Z</time></trkpt><trkpt lat="31.276505193361597" lon="-4.1692537268838645"><ele>748.0</ele><time>2026-04-30T11:44:35Z</time></trkpt><trkpt lat="31.276325037022932" lon="-4.16911945122407"><ele>747.3333333333334</ele><time>2026-04-30T11:44:36Z</time></trkpt><trkpt lat="31.27614808461804" lon="-4.168984189559488"><ele>746.6666666666666</ele><time>2026-04-30T11:44:37Z</time></trkpt><trkpt lat="31.275971525267853" lon="-4.168851574874022"><ele>746.0</ele><time>2026-04-30T11:44:38Z</time></trkpt><trkpt lat="31.275792722857393" lon="-4.168718273790154"><ele>746.0</ele><time>2026-04-30T11:44:39Z</time></trkpt><trkpt lat="31.275613070383102" lon="-4.168581984001563"><ele>746.0</ele><time>2026-04-30T11:44:40Z</time></trkpt><trkpt lat="31.275433988043524" lon="-4.168447337373576"><ele>746.0</ele><time>2026-04-30T11:44:41Z</time></trkpt><trkpt lat="31.275254272877692" lon="-4.168313249474935"><ele>746.0</ele><time>2026-04-30T11:44:42Z</time></trkpt><trkpt lat="31.275074934997882" lon="-4.168183562473892"><ele>746.0</ele><time>2026-04-30T11:44:43Z</time></trkpt><trkpt lat="31.274893154852066" lon="-4.168053167662436"><ele>746.0</ele><time>2026-04-30T11:44:44Z</time></trkpt><trkpt lat="31.274712235550584" lon="-4.167921302558772"><ele>746.0</ele><time>2026-04-30T11:44:45Z</time></trkpt><trkpt lat="31.27453206237289" lon="-4.167785471544994"><ele>746.0</ele><time>2026-04-30T11:44:46Z</time></trkpt><trkpt lat="31.274351160024175" lon="-4.167645280231352"><ele>746.0</ele><time>2026-04-30T11:44:47Z</time></trkpt><trkpt lat="31.274168699284953" lon="-4.167507666009421"><ele>746.0</ele><time>2026-04-30T11:44:48Z</time></trkpt><trkpt lat="31.27398428412732" lon="-4.1673697271327965"><ele>746.0</ele><time>2026-04-30T11:44:49Z</time></trkpt><trkpt lat="31.273798389856395" lon="-4.16723081815361"><ele>746.0</ele><time>2026-04-30T11:44:50Z</time></trkpt><trkpt lat="31.273614965791094" lon="-4.167093898581783"><ele>746.0</ele><time>2026-04-30T11:44:51Z</time></trkpt><trkpt lat="31.27342722405132" lon="-4.16695541798236"><ele>746.0</ele><time>2026-04-30T11:44:52Z</time></trkpt><trkpt lat="31.27323988142195" lon="-4.166814681147264"><ele>746.0</ele><time>2026-04-30T11:44:53Z</time></trkpt><trkpt lat="31.273053959521153" lon="-4.166671642432322"><ele>745.6666666666666</ele><time>2026-04-30T11:44:54Z</time></trkpt><trkpt lat="31.2728672044424" lon="-4.166525453258078"><ele>745.3333333333334</ele><time>2026-04-30T11:44:55Z</time></trkpt><trkpt lat="31.27268196810782" lon="-4.166382264760432"><ele>745.0</ele><time>2026-04-30T11:44:56Z</time></trkpt><trkpt lat="31.272494346940714" lon="-4.166240776184945"><ele>745.0</ele><time>2026-04-30T11:44:57Z</time></trkpt><trkpt lat="31.27230701008213" lon="-4.166104517480753"><ele>745.0</ele><time>2026-04-30T11:44:58Z</time></trkpt><trkpt lat="31.272117124086538" lon="-4.165969931943234"><ele>745.0</ele><time>2026-04-30T11:44:59Z</time></trkpt><trkpt lat="31.271925171814708" lon="-4.165839100383919"><ele>745.0</ele><time>2026-04-30T11:45:00Z</time></trkpt><trkpt lat="31.27173792146562" lon="-4.165703666591402"><ele>745.0</ele><time>2026-04-30T11:45:01Z</time></trkpt><trkpt lat="31.27155433684602" lon="-4.165562274074393"><ele>745.0</ele><time>2026-04-30T11:45:02Z</time></trkpt><trkpt lat="31.271371186707754" lon="-4.165419355183072"><ele>745.0</ele><time>2026-04-30T11:45:03Z</time></trkpt><trkpt lat="31.271189059929338" lon="-4.165281348655468"><ele>745.0</ele><time>2026-04-30T11:45:04Z</time></trkpt><trkpt lat="31.271008136367303" lon="-4.165141135642924"><ele>745.0</ele><time>2026-04-30T11:45:05Z</time></trkpt><trkpt lat="31.270825325597894" lon="-4.165003117124853"><ele>745.0</ele><time>2026-04-30T11:45:06Z</time></trkpt><trkpt lat="31.270643759115345" lon="-4.1648671053170405"><ele>745.0</ele><time>2026-04-30T11:45:07Z</time></trkpt><trkpt lat="31.270460962365703" lon="-4.164729816308747"><ele>745.0</ele><time>2026-04-30T11:45:08Z</time></trkpt><trkpt lat="31.27027806864134" lon="-4.164595051249637"><ele>745.0</ele><time>2026-04-30T11:45:09Z</time></trkpt><trkpt lat="31.270095246191403" lon="-4.164463777711748"><ele>745.0</ele><time>2026-04-30T11:45:10Z</time></trkpt><trkpt lat="31.269916361982038" lon="-4.164332061142423"><ele>745.0</ele><time>2026-04-30T11:45:11Z</time></trkpt><trkpt lat="31.269740393938417" lon="-4.164194927368129"><ele>745.0</ele><time>2026-04-30T11:45:12Z</time></trkpt><trkpt lat="31.269561990407688" lon="-4.164059954299431"><ele>745.0</ele><time>2026-04-30T11:45:13Z</time></trkpt><trkpt lat="31.269385275158086" lon="-4.163928358210341"><ele>745.0</ele><time>2026-04-30T11:45:14Z</time></trkpt><trkpt lat="31.269205288613342" lon="-4.1637952400457845"><ele>744.6666666666667</ele><time>2026-04-30T11:45:15Z</time></trkpt><trkpt lat="31.269028008394006" lon="-4.163663732374535"><ele>744.3333333333334</ele><time>2026-04-30T11:45:16Z</time></trkpt><trkpt lat="31.26885184926741" lon="-4.163532641667972"><ele>744.0</ele><time>2026-04-30T11:45:17Z</time></trkpt><trkpt lat="31.268678321411254" lon="-4.163401015101882"><ele>744.0</ele><time>2026-04-30T11:45:18Z</time></trkpt><trkpt lat="31.2685076946675" lon="-4.1632613359771735"><ele>744.0</ele><time>2026-04-30T11:45:19.001Z</time></trkpt><trkpt lat="31.26833854751795" lon="-4.163121281084714"><ele>744.0</ele><time>2026-04-30T11:45:20.001Z</time></trkpt><trkpt lat="31.26816912336918" lon="-4.162975548588931"><ele>744.0</ele><time>2026-04-30T11:45:21.001Z</time></trkpt><trkpt lat="31.268005520185305" lon="-4.1628188630812275"><ele>744.0</ele><time>2026-04-30T11:45:22.001Z</time></trkpt><trkpt lat="31.267847074441672" lon="-4.162645840596195"><ele>744.0</ele><time>2026-04-30T11:45:23.001Z</time></trkpt><trkpt lat="31.267699832338145" lon="-4.162462808683242"><ele>744.0</ele><time>2026-04-30T11:45:24.001Z</time></trkpt><trkpt lat="31.267562238665292" lon="-4.162276301443633"><ele>744.0</ele><time>2026-04-30T11:45:25.001Z</time></trkpt><trkpt lat="31.267430375479286" lon="-4.162084967238762"><ele>744.0</ele><time>2026-04-30T11:45:26.001Z</time></trkpt><trkpt lat="31.267306647588672" lon="-4.16188586903958"><ele>744.0</ele><time>2026-04-30T11:45:27.001Z</time></trkpt><trkpt lat="31.26718947020889" lon="-4.161678602531429"><ele>744.0</ele><time>2026-04-30T11:45:28.001Z</time></trkpt><trkpt lat="31.267084840600347" lon="-4.161462333987723"><ele>744.0</ele><time>2026-04-30T11:45:29.001Z</time></trkpt><trkpt lat="31.26698998425949" lon="-4.161244570813067"><ele>744.3333333333334</ele><time>2026-04-30T11:45:30.001Z</time></trkpt><trkpt lat="31.266897855323474" lon="-4.1610301899387965"><ele>744.6666666666667</ele><time>2026-04-30T11:45:31.001Z</time></trkpt><trkpt lat="31.266807056924762" lon="-4.160813680214606"><ele>745.0</ele><time>2026-04-30T11:45:32.001Z</time></trkpt><trkpt lat="31.26672140750745" lon="-4.1605945643363365"><ele>744.3333333333334</ele><time>2026-04-30T11:45:33.001Z</time></trkpt><trkpt lat="31.266635919841374" lon="-4.160374120699296"><ele>743.6666666666666</ele><time>2026-04-30T11:45:34.001Z</time></trkpt><trkpt lat="31.266549551164957" lon="-4.16015314728331"><ele>743.0</ele><time>2026-04-30T11:45:35.001Z</time></trkpt><trkpt lat="31.266460283946802" lon="-4.159933663420227"><ele>742.0</ele><time>2026-04-30T11:45:36.001Z</time></trkpt><trkpt lat="31.266372525905282" lon="-4.159707309105207"><ele>741.0</ele><time>2026-04-30T11:45:37.001Z</time></trkpt><trkpt lat="31.266285186273517" lon="-4.159483976555161"><ele>740.0</ele><time>2026-04-30T11:45:38.001Z</time></trkpt><trkpt lat="31.266196430233244" lon="-4.159261147731035"><ele>740.0</ele><time>2026-04-30T11:45:39.001Z</time></trkpt><trkpt lat="31.266105448384955" lon="-4.159035626611047"><ele>740.0</ele><time>2026-04-30T11:45:40.001Z</time></trkpt><trkpt lat="31.266016709487477" lon="-4.158810815631444"><ele>740.0</ele><time>2026-04-30T11:45:41.001Z</time></trkpt><trkpt lat="31.265927324415404" lon="-4.158586419260329"><ele>739.6666666666666</ele><time>2026-04-30T11:45:42.001Z</time></trkpt><trkpt lat="31.265839580638154" lon="-4.158367061944322"><ele>739.3333333333334</ele><time>2026-04-30T11:45:43.001Z</time></trkpt><trkpt lat="31.26575344340797" lon="-4.158148610512526"><ele>739.0</ele><time>2026-04-30T11:45:44.001Z</time></trkpt><trkpt lat="31.26567023031706" lon="-4.157931503258575"><ele>739.0</ele><time>2026-04-30T11:45:45.001Z</time></trkpt><trkpt lat="31.265586243105407" lon="-4.15771644308273"><ele>739.0</ele><time>2026-04-30T11:45:46Z</time></trkpt><trkpt lat="31.265502244942507" lon="-4.157500327919407"><ele>739.0</ele><time>2026-04-30T11:45:47Z</time></trkpt><trkpt lat="31.26541947926363" lon="-4.15728628848906"><ele>738.6666666666667</ele><time>2026-04-30T11:45:48Z</time></trkpt><trkpt lat="31.26533419176633" lon="-4.1570737508794355"><ele>738.3333333333334</ele><time>2026-04-30T11:45:49Z</time></trkpt><trkpt lat="31.26524867208485" lon="-4.156859483813883"><ele>738.0</ele><time>2026-04-30T11:45:50Z</time></trkpt><trkpt lat="31.265161465195913" lon="-4.156644702410596"><ele>737.0</ele><time>2026-04-30T11:45:51Z</time></trkpt><trkpt lat="31.265073050130948" lon="-4.156430983812562"><ele>736.0</ele><time>2026-04-30T11:45:52Z</time></trkpt><trkpt lat="31.264985396462425" lon="-4.15621196831923"><ele>735.0</ele><time>2026-04-30T11:45:53Z</time></trkpt><trkpt lat="31.264899891746357" lon="-4.155991596293952"><ele>735.0</ele><time>2026-04-30T11:45:54Z</time></trkpt><trkpt lat="31.26481496040221" lon="-4.155773496506668"><ele>735.0</ele><time>2026-04-30T11:45:55Z</time></trkpt><trkpt lat="31.26472778957449" lon="-4.155555557408107"><ele>735.0</ele><time>2026-04-30T11:45:56Z</time></trkpt><trkpt lat="31.264639563700616" lon="-4.1553367313514595"><ele>734.6666666666666</ele><time>2026-04-30T11:45:57Z</time></trkpt><trkpt lat="31.26455545682187" lon="-4.1551161551412035"><ele>734.3333333333333</ele><time>2026-04-30T11:45:58Z</time></trkpt><trkpt lat="31.26446822831941" lon="-4.154896721533185"><ele>734.0</ele><time>2026-04-30T11:45:59Z</time></trkpt><trkpt lat="31.264383590890166" lon="-4.154685322899577"><ele>734.0</ele><time>2026-04-30T11:46:00Z</time></trkpt><trkpt lat="31.264299235763268" lon="-4.1544778273763985"><ele>734.0</ele><time>2026-04-30T11:46:01Z</time></trkpt><trkpt lat="31.264215238555572" lon="-4.154271541829834"><ele>734.0</ele><time>2026-04-30T11:46:02Z</time></trkpt><trkpt lat="31.264132935131826" lon="-4.154064019521224"><ele>735.6666666666666</ele><time>2026-04-30T11:46:03Z</time></trkpt><trkpt lat="31.264050003905275" lon="-4.153858070051415"><ele>737.3333333333334</ele><time>2026-04-30T11:46:04Z</time></trkpt><trkpt lat="31.263969221871044" lon="-4.153650950790455"><ele>739.0</ele><time>2026-04-30T11:46:05Z</time></trkpt><trkpt lat="31.263888732757046" lon="-4.1534403001001055"><ele>739.3333333333334</ele><time>2026-04-30T11:46:06Z</time></trkpt><trkpt lat="31.263807247888952" lon="-4.15322942947361"><ele>739.6666666666666</ele><time>2026-04-30T11:46:07Z</time></trkpt><trkpt lat="31.26372629531858" lon="-4.153024163017896"><ele>740.0</ele><time>2026-04-30T11:46:08Z</time></trkpt><trkpt lat="31.263650556028335" lon="-4.152832588886673"><ele>741.0</ele><time>2026-04-30T11:46:09Z</time></trkpt><trkpt lat="31.263579156516762" lon="-4.152648863642248"><ele>742.0</ele><time>2026-04-30T11:46:10Z</time></trkpt><trkpt lat="31.263510968930074" lon="-4.152476431231391"><ele>743.0</ele><time>2026-04-30T11:46:11Z</time></trkpt><trkpt lat="31.263446294610063" lon="-4.152309719519305"><ele>743.0</ele><time>2026-04-30T11:46:12Z</time></trkpt><trkpt lat="31.26338326530765" lon="-4.152159399960307"><ele>743.0</ele><time>2026-04-30T11:46:13Z</time></trkpt><trkpt lat="31.26331804967515" lon="-4.1520004669215815"><ele>743.0</ele><time>2026-04-30T11:46:14Z</time></trkpt><trkpt lat="31.263257262650217" lon="-4.151851648722336"><ele>743.0</ele><time>2026-04-30T11:46:15Z</time></trkpt><trkpt lat="31.26320173222349" lon="-4.1517080081439035"><ele>743.0</ele><time>2026-04-30T11:46:16Z</time></trkpt><trkpt lat="31.263151229573523" lon="-4.151574429372344"><ele>743.0</ele><time>2026-04-30T11:46:17Z</time></trkpt><trkpt lat="31.26310139889992" lon="-4.151438164978675"><ele>743.0</ele><time>2026-04-30T11:46:18Z</time></trkpt><trkpt lat="31.263047662892355" lon="-4.151302897821408"><ele>743.0</ele><time>2026-04-30T11:46:19Z</time></trkpt><trkpt lat="31.2629958928004" lon="-4.15117277143421"><ele>743.0</ele><time>2026-04-30T11:46:20Z</time></trkpt><trkpt lat="31.26294805588974" lon="-4.15105172251379"><ele>743.0</ele><time>2026-04-30T11:46:21Z</time></trkpt><trkpt lat="31.262901909407613" lon="-4.15093994041025"><ele>743.0</ele><time>2026-04-30T11:46:22Z</time></trkpt><trkpt lat="31.262862630959876" lon="-4.150848798629576"><ele>743.0</ele><time>2026-04-30T11:46:23Z</time></trkpt><trkpt lat="31.262829086576076" lon="-4.15077795855398"><ele>743.0</ele><time>2026-04-30T11:46:24Z</time></trkpt><trkpt lat="31.262779065124768" lon="-4.1506706676237055"><ele>743.0</ele><time>2026-04-30T11:46:26Z</time></trkpt><trkpt lat="31.262764822775637" lon="-4.1505922209537145"><ele>743.0</ele><time>2026-04-30T11:46:29Z</time></trkpt><trkpt lat="31.262831422502263" lon="-4.150624016279125"><ele>743.0</ele><time>2026-04-30T11:46:32Z</time></trkpt><trkpt lat="31.262863401331842" lon="-4.150786342854336"><ele>743.0</ele><time>2026-04-30T11:46:34Z</time></trkpt><trkpt lat="31.262894772037566" lon="-4.150874885727948"><ele>743.0</ele><time>2026-04-30T11:46:35Z</time></trkpt><trkpt lat="31.262919097322275" lon="-4.150957255535798"><ele>743.0</ele><time>2026-04-30T11:46:36Z</time></trkpt><trkpt lat="31.26298515568286" lon="-4.151051671151751"><ele>743.0</ele><time>2026-04-30T11:46:38Z</time></trkpt><trkpt lat="31.263058843617742" lon="-4.151047736532575"><ele>743.0</ele><time>2026-04-30T11:46:40Z</time></trkpt><trkpt lat="31.26315014304378" lon="-4.15100022354422"><ele>743.0</ele><time>2026-04-30T11:46:42Z</time></trkpt><trkpt lat="31.263195320927277" lon="-4.150893281745048"><ele>743.0</ele><time>2026-04-30T11:46:44Z</time></trkpt><trkpt lat="31.263268704422003" lon="-4.150775682909384"><ele>743.0</ele><time>2026-04-30T11:46:46Z</time></trkpt><trkpt lat="31.263326935595316" lon="-4.150725101933586"><ele>743.0</ele><time>2026-04-30T11:46:47Z</time></trkpt><trkpt lat="31.26337453238642" lon="-4.15066985612021"><ele>743.0</ele><time>2026-04-30T11:46:48Z</time></trkpt><trkpt lat="31.263418529025113" lon="-4.150600330312684"><ele>743.0</ele><time>2026-04-30T11:46:49Z</time></trkpt><trkpt lat="31.26344915284779" lon="-4.150522899837935"><ele>743.0</ele><time>2026-04-30T11:46:50Z</time></trkpt><trkpt lat="31.26347508472468" lon="-4.150423832887719"><ele>743.0</ele><time>2026-04-30T11:46:51Z</time></trkpt><trkpt lat="31.263487246539817" lon="-4.15031991102928"><ele>743.0</ele><time>2026-04-30T11:46:52Z</time></trkpt><trkpt lat="31.263486494969765" lon="-4.150198914003091"><ele>743.0</ele><time>2026-04-30T11:46:53Z</time></trkpt><trkpt lat="31.263488272822308" lon="-4.150082828111994"><ele>743.0</ele><time>2026-04-30T11:46:54Z</time></trkpt><trkpt lat="31.263498234544723" lon="-4.149942147182725"><ele>743.0</ele><time>2026-04-30T11:46:55Z</time></trkpt><trkpt lat="31.263523146718168" lon="-4.149803151097858"><ele>743.0</ele><time>2026-04-30T11:46:56Z</time></trkpt><trkpt lat="31.26355844145456" lon="-4.1496735687709725"><ele>742.75</ele><time>2026-04-30T11:46:57Z</time></trkpt><trkpt lat="31.263581810684293" lon="-4.149532397304278"><ele>742.5</ele><time>2026-04-30T11:46:58Z</time></trkpt><trkpt lat="31.263608471558186" lon="-4.149387719209059"><ele>742.25</ele><time>2026-04-30T11:46:59Z</time></trkpt><trkpt lat="31.263638117585014" lon="-4.149237911914879"><ele>742.0</ele><time>2026-04-30T11:47:00Z</time></trkpt><trkpt lat="31.26366737933209" lon="-4.149101506726206"><ele>742.5</ele><time>2026-04-30T11:47:01Z</time></trkpt><trkpt lat="31.26369244720781" lon="-4.1489734276391905"><ele>743.0</ele><time>2026-04-30T11:47:02Z</time></trkpt><trkpt lat="31.263715709077864" lon="-4.148844543663024"><ele>743.5</ele><time>2026-04-30T11:47:03Z</time></trkpt><trkpt lat="31.263748705091857" lon="-4.148716777820301"><ele>744.0</ele><time>2026-04-30T11:47:04Z</time></trkpt><trkpt lat="31.26378959107225" lon="-4.148595209906994"><ele>744.0</ele><time>2026-04-30T11:47:05Z</time></trkpt><trkpt lat="31.263834042215564" lon="-4.14847334947598"><ele>744.0</ele><time>2026-04-30T11:47:06Z</time></trkpt><trkpt lat="31.263875068777892" lon="-4.148350706728116"><ele>744.0</ele><time>2026-04-30T11:47:07Z</time></trkpt><trkpt lat="31.263915372128842" lon="-4.148217443095142"><ele>744.0</ele><time>2026-04-30T11:47:08Z</time></trkpt><trkpt lat="31.26395394689499" lon="-4.14807775097965"><ele>744.0</ele><time>2026-04-30T11:47:09Z</time></trkpt><trkpt lat="31.26399005013052" lon="-4.147959850020735"><ele>744.0</ele><time>2026-04-30T11:47:10Z</time></trkpt><trkpt lat="31.264027767238968" lon="-4.147850796648691"><ele>744.0</ele><time>2026-04-30T11:47:11Z</time></trkpt><trkpt lat="31.264064881381934" lon="-4.147748373145671"><ele>744.0</ele><time>2026-04-30T11:47:12Z</time></trkpt><trkpt lat="31.26410198646936" lon="-4.147639326966886"><ele>744.0</ele><time>2026-04-30T11:47:13Z</time></trkpt><trkpt lat="31.264130323222975" lon="-4.147516413787299"><ele>744.0</ele><time>2026-04-30T11:47:14Z</time></trkpt><trkpt lat="31.26416530518862" lon="-4.147379238287262"><ele>744.0</ele><time>2026-04-30T11:47:15Z</time></trkpt><trkpt lat="31.264201948162228" lon="-4.147233278715497"><ele>744.0</ele><time>2026-04-30T11:47:16Z</time></trkpt><trkpt lat="31.26423920057804" lon="-4.1470837972003025"><ele>744.0</ele><time>2026-04-30T11:47:17Z</time></trkpt><trkpt lat="31.264274279209275" lon="-4.146926657556126"><ele>744.0</ele><time>2026-04-30T11:47:18Z</time></trkpt><trkpt lat="31.264309162075396" lon="-4.1467668608945365"><ele>744.0</ele><time>2026-04-30T11:47:19Z</time></trkpt><trkpt lat="31.264341119465367" lon="-4.146609227626733"><ele>744.0</ele><time>2026-04-30T11:47:20Z</time></trkpt><trkpt lat="31.264367530449487" lon="-4.146452497775885"><ele>744.0</ele><time>2026-04-30T11:47:21Z</time></trkpt><trkpt lat="31.26439276310952" lon="-4.146302337403409"><ele>744.0</ele><time>2026-04-30T11:47:22Z</time></trkpt><trkpt lat="31.264413027966995" lon="-4.146154711441218"><ele>744.0</ele><time>2026-04-30T11:47:23Z</time></trkpt><trkpt lat="31.26443177920672" lon="-4.146011082929706"><ele>744.0</ele><time>2026-04-30T11:47:24Z</time></trkpt><trkpt lat="31.26445442176333" lon="-4.14587193928993"><ele>744.0</ele><time>2026-04-30T11:47:25.001Z</time></trkpt><trkpt lat="31.264477173637225" lon="-4.145734331637274"><ele>744.25</ele><time>2026-04-30T11:47:26.001Z</time></trkpt><trkpt lat="31.264505504492647" lon="-4.14560114691064"><ele>744.5</ele><time>2026-04-30T11:47:27.001Z</time></trkpt><trkpt lat="31.264546654407287" lon="-4.145467925054883"><ele>744.75</ele><time>2026-04-30T11:47:28.001Z</time></trkpt><trkpt lat="31.26459313729967" lon="-4.145338980000952"><ele>745.0</ele><time>2026-04-30T11:47:29.001Z</time></trkpt><trkpt lat="31.264632161064114" lon="-4.145209535502546"><ele>745.0</ele><time>2026-04-30T11:47:30.001Z</time></trkpt><trkpt lat="31.264671731828965" lon="-4.145088300142501"><ele>745.0</ele><time>2026-04-30T11:47:31.001Z</time></trkpt><trkpt lat="31.264709420748897" lon="-4.144956589873725"><ele>745.0</ele><time>2026-04-30T11:47:32.001Z</time></trkpt><trkpt lat="31.264747108457538" lon="-4.144817397822661"><ele>745.0</ele><time>2026-04-30T11:47:33.001Z</time></trkpt><trkpt lat="31.264785088763826" lon="-4.144682486520943"><ele>744.5</ele><time>2026-04-30T11:47:34.001Z</time></trkpt><trkpt lat="31.264817782647555" lon="-4.144541336055356"><ele>744.0</ele><time>2026-04-30T11:47:35.001Z</time></trkpt><trkpt lat="31.26485139055562" lon="-4.144397614125325"><ele>743.5</ele><time>2026-04-30T11:47:36.001Z</time></trkpt><trkpt lat="31.264881284405348" lon="-4.144248121520475"><ele>743.0</ele><time>2026-04-30T11:47:37.001Z</time></trkpt><trkpt lat="31.26491408862746" lon="-4.144093644418955"><ele>743.5</ele><time>2026-04-30T11:47:38.001Z</time></trkpt><trkpt lat="31.26494196004273" lon="-4.1439426069846625"><ele>744.0</ele><time>2026-04-30T11:47:39.001Z</time></trkpt><trkpt lat="31.264969775743253" lon="-4.1437901339277365"><ele>744.5</ele><time>2026-04-30T11:47:40.001Z</time></trkpt><trkpt lat="31.26499355757231" lon="-4.143639536898221"><ele>745.0</ele><time>2026-04-30T11:47:41.001Z</time></trkpt><trkpt lat="31.265019383604944" lon="-4.14349037713013"><ele>745.0</ele><time>2026-04-30T11:47:42.001Z</time></trkpt><trkpt lat="31.26504653563844" lon="-4.143339489002794"><ele>745.0</ele><time>2026-04-30T11:47:43Z</time></trkpt><trkpt lat="31.265078862220054" lon="-4.143193488251702"><ele>745.0</ele><time>2026-04-30T11:47:44Z</time></trkpt><trkpt lat="31.265109872453266" lon="-4.143045732907765"><ele>745.0</ele><time>2026-04-30T11:47:45Z</time></trkpt><trkpt lat="31.26514184587407" lon="-4.1428949776304"><ele>745.0</ele><time>2026-04-30T11:47:46Z</time></trkpt><trkpt lat="31.265178089983642" lon="-4.142744523973345"><ele>745.0</ele><time>2026-04-30T11:47:47Z</time></trkpt><trkpt lat="31.265214180833173" lon="-4.142591218683144"><ele>745.0</ele><time>2026-04-30T11:47:48Z</time></trkpt><trkpt lat="31.265253151097074" lon="-4.14244049910934"><ele>745.0</ele><time>2026-04-30T11:47:49Z</time></trkpt><trkpt lat="31.26529740849516" lon="-4.142290562232499"><ele>745.0</ele><time>2026-04-30T11:47:50Z</time></trkpt><trkpt lat="31.265340177411428" lon="-4.142138544263725"><ele>745.0</ele><time>2026-04-30T11:47:51Z</time></trkpt><trkpt lat="31.26538120767083" lon="-4.141989788162309"><ele>745.0</ele><time>2026-04-30T11:47:52Z</time></trkpt><trkpt lat="31.26542382410119" lon="-4.141841275037157"><ele>745.0</ele><time>2026-04-30T11:47:53Z</time></trkpt><trkpt lat="31.265467152491723" lon="-4.141693874302208"><ele>745.0</ele><time>2026-04-30T11:47:54Z</time></trkpt><trkpt lat="31.265506462341897" lon="-4.141544999012598"><ele>745.0</ele><time>2026-04-30T11:47:55Z</time></trkpt><trkpt lat="31.265546573083117" lon="-4.141394919991758"><ele>745.0</ele><time>2026-04-30T11:47:56Z</time></trkpt><trkpt lat="31.265584666485974" lon="-4.141242253594811"><ele>745.0</ele><time>2026-04-30T11:47:57Z</time></trkpt><trkpt lat="31.26562038513783" lon="-4.14108626062009"><ele>745.0</ele><time>2026-04-30T11:47:58Z</time></trkpt><trkpt lat="31.265653674256985" lon="-4.140937994607093"><ele>745.0</ele><time>2026-04-30T11:47:59Z</time></trkpt><trkpt lat="31.265685931499124" lon="-4.140801561879635"><ele>745.0</ele><time>2026-04-30T11:48:00Z</time></trkpt><trkpt lat="31.265718045635676" lon="-4.1406743529732415"><ele>745.0</ele><time>2026-04-30T11:48:01Z</time></trkpt><trkpt lat="31.265746280096185" lon="-4.140554580814554"><ele>744.8</ele><time>2026-04-30T11:48:02Z</time></trkpt><trkpt lat="31.265774481918825" lon="-4.140435708192021"><ele>744.6</ele><time>2026-04-30T11:48:03Z</time></trkpt><trkpt lat="31.26580679260776" lon="-4.1403156087979065"><ele>744.4000000000001</ele><time>2026-04-30T11:48:04Z</time></trkpt><trkpt lat="31.265834122671478" lon="-4.140203275123981"><ele>744.2</ele><time>2026-04-30T11:48:05Z</time></trkpt><trkpt lat="31.26586270927788" lon="-4.140104880940641"><ele>744.0</ele><time>2026-04-30T11:48:06Z</time></trkpt><trkpt lat="31.265896634304607" lon="-4.140012920889083"><ele>744.0</ele><time>2026-04-30T11:48:07Z</time></trkpt><trkpt lat="31.265922036596425" lon="-4.139931341865655"><ele>744.0</ele><time>2026-04-30T11:48:08Z</time></trkpt><trkpt lat="31.26592763192346" lon="-4.139851710465475"><ele>744.0</ele><time>2026-04-30T11:48:09Z</time></trkpt><trkpt lat="31.265871695991944" lon="-4.139748325519668"><ele>744.0</ele><time>2026-04-30T11:48:11Z</time></trkpt><trkpt lat="31.265825167479175" lon="-4.139627019151599"><ele>744.0</ele><time>2026-04-30T11:48:13Z</time></trkpt><trkpt lat="31.265853178109715" lon="-4.139468479913221"><ele>744.0</ele><time>2026-04-30T11:48:15Z</time></trkpt><trkpt lat="31.26590019044821" lon="-4.139346884894141"><ele>744.0</ele><time>2026-04-30T11:48:16Z</time></trkpt><trkpt lat="31.265941591666095" lon="-4.139208303034946"><ele>744.0</ele><time>2026-04-30T11:48:17Z</time></trkpt><trkpt lat="31.26598162014732" lon="-4.139061740152511"><ele>744.0</ele><time>2026-04-30T11:48:18Z</time></trkpt><trkpt lat="31.266021702579625" lon="-4.138903767040142"><ele>744.0</ele><time>2026-04-30T11:48:19Z</time></trkpt><trkpt lat="31.266062025148496" lon="-4.138735724707572"><ele>744.0</ele><time>2026-04-30T11:48:20Z</time></trkpt><trkpt lat="31.266102608721845" lon="-4.13856202273184"><ele>744.0</ele><time>2026-04-30T11:48:21Z</time></trkpt><trkpt lat="31.2661470221055" lon="-4.138384725203429"><ele>744.75</ele><time>2026-04-30T11:48:22Z</time></trkpt><trkpt lat="31.266195051005507" lon="-4.138211123018085"><ele>745.5</ele><time>2026-04-30T11:48:23Z</time></trkpt><trkpt lat="31.266237096234363" lon="-4.138045858029724"><ele>746.25</ele><time>2026-04-30T11:48:24Z</time></trkpt><trkpt lat="31.266276611225287" lon="-4.137887320933811"><ele>747.0</ele><time>2026-04-30T11:48:25Z</time></trkpt><trkpt lat="31.266317393190786" lon="-4.137729815629607"><ele>747.0</ele><time>2026-04-30T11:48:26Z</time></trkpt><trkpt lat="31.26635818474125" lon="-4.137571786375094"><ele>747.0</ele><time>2026-04-30T11:48:27Z</time></trkpt><trkpt lat="31.266398541046346" lon="-4.13741547283157"><ele>747.0</ele><time>2026-04-30T11:48:28Z</time></trkpt><trkpt lat="31.266436565382243" lon="-4.137267624900578"><ele>747.0</ele><time>2026-04-30T11:48:29Z</time></trkpt><trkpt lat="31.26647411931684" lon="-4.137132559466889"><ele>747.0</ele><time>2026-04-30T11:48:30Z</time></trkpt><trkpt lat="31.26650602286471" lon="-4.1370086045184395"><ele>747.0</ele><time>2026-04-30T11:48:31Z</time></trkpt><trkpt lat="31.26653517255694" lon="-4.136887153506863"><ele>747.0</ele><time>2026-04-30T11:48:32Z</time></trkpt><trkpt lat="31.26656832170945" lon="-4.136751794933888"><ele>747.0</ele><time>2026-04-30T11:48:33Z</time></trkpt><trkpt lat="31.266607784085704" lon="-4.136605883170459"><ele>747.0</ele><time>2026-04-30T11:48:34Z</time></trkpt><trkpt lat="31.266649374674675" lon="-4.136448226196516"><ele>747.0</ele><time>2026-04-30T11:48:35Z</time></trkpt><trkpt lat="31.26669436154313" lon="-4.136283847308912"><ele>747.0</ele><time>2026-04-30T11:48:36Z</time></trkpt><trkpt lat="31.266733589121547" lon="-4.136126483776609"><ele>747.0</ele><time>2026-04-30T11:48:37Z</time></trkpt><trkpt lat="31.266766630215198" lon="-4.135981298678499"><ele>747.0</ele><time>2026-04-30T11:48:38Z</time></trkpt><trkpt lat="31.266800139277482" lon="-4.135847550855406"><ele>747.0</ele><time>2026-04-30T11:48:39Z</time></trkpt><trkpt lat="31.266840326651064" lon="-4.135716837326373"><ele>747.0</ele><time>2026-04-30T11:48:40Z</time></trkpt><trkpt lat="31.266879327818774" lon="-4.135582693163875"><ele>747.0</ele><time>2026-04-30T11:48:41Z</time></trkpt><trkpt lat="31.26691512366448" lon="-4.135443105483842"><ele>747.0</ele><time>2026-04-30T11:48:42Z</time></trkpt><trkpt lat="31.266949053423012" lon="-4.135293888600888"><ele>747.0</ele><time>2026-04-30T11:48:43Z</time></trkpt><trkpt lat="31.26698764831164" lon="-4.135142343419787"><ele>747.0</ele><time>2026-04-30T11:48:44Z</time></trkpt><trkpt lat="31.26702821000522" lon="-4.134986247925118"><ele>747.0</ele><time>2026-04-30T11:48:45Z</time></trkpt><trkpt lat="31.267074119639137" lon="-4.134826288739702"><ele>747.0</ele><time>2026-04-30T11:48:46Z</time></trkpt><trkpt lat="31.26710877630042" lon="-4.134679682438815"><ele>747.0</ele><time>2026-04-30T11:48:47Z</time></trkpt><trkpt lat="31.26714563341378" lon="-4.134539079712081"><ele>747.0</ele><time>2026-04-30T11:48:48Z</time></trkpt><trkpt lat="31.267181010708203" lon="-4.134401488949786"><ele>747.0</ele><time>2026-04-30T11:48:49Z</time></trkpt><trkpt lat="31.2672179280897" lon="-4.134272448716724"><ele>747.0</ele><time>2026-04-30T11:48:50Z</time></trkpt><trkpt lat="31.267251839372104" lon="-4.134148629386335"><ele>747.0</ele><time>2026-04-30T11:48:51Z</time></trkpt><trkpt lat="31.26727617350288" lon="-4.134037067199173"><ele>747.0</ele><time>2026-04-30T11:48:52Z</time></trkpt><trkpt lat="31.26729999073954" lon="-4.133940047991712"><ele>747.0</ele><time>2026-04-30T11:48:53Z</time></trkpt><trkpt lat="31.267321820881875" lon="-4.133859509664335"><ele>747.0</ele><time>2026-04-30T11:48:54Z</time></trkpt><trkpt lat="31.267345354866997" lon="-4.133772776579732"><ele>747.0</ele><time>2026-04-30T11:48:55Z</time></trkpt><trkpt lat="31.267379214067144" lon="-4.133672623443391"><ele>747.0</ele><time>2026-04-30T11:48:56Z</time></trkpt><trkpt lat="31.267409983233307" lon="-4.133566366563549"><ele>747.0</ele><time>2026-04-30T11:48:57Z</time></trkpt><trkpt lat="31.267435402053618" lon="-4.133449148306529"><ele>747.0</ele><time>2026-04-30T11:48:58Z</time></trkpt><trkpt lat="31.267459166899034" lon="-4.133333288967485"><ele>747.0</ele><time>2026-04-30T11:48:59Z</time></trkpt><trkpt lat="31.267481127295017" lon="-4.133238603049188"><ele>747.0</ele><time>2026-04-30T11:49:00Z</time></trkpt><trkpt lat="31.267502603973064" lon="-4.133161032417749"><ele>747.0</ele><time>2026-04-30T11:49:01Z</time></trkpt><trkpt lat="31.26752703137425" lon="-4.133044674884759"><ele>747.0</ele><time>2026-04-30T11:49:03Z</time></trkpt><trkpt lat="31.267563580074782" lon="-4.132973318771013"><ele>747.0</ele><time>2026-04-30T11:49:06Z</time></trkpt><trkpt lat="31.267637060811985" lon="-4.133013629304002"><ele>747.0</ele><time>2026-04-30T11:49:10Z</time></trkpt><trkpt lat="31.267739536976787" lon="-4.133059695949772"><ele>747.0</ele><time>2026-04-30T11:49:12Z</time></trkpt><trkpt lat="31.267845463350696" lon="-4.133051470454204"><ele>747.0</ele><time>2026-04-30T11:49:14Z</time></trkpt><trkpt lat="31.26794169956306" lon="-4.132952770020646"><ele>747.0</ele><time>2026-04-30T11:49:16Z</time></trkpt><trkpt lat="31.267974990105127" lon="-4.13287132634341"><ele>747.0</ele><time>2026-04-30T11:49:17Z</time></trkpt><trkpt lat="31.2679949747337" lon="-4.1327863995521295"><ele>747.0</ele><time>2026-04-30T11:49:18Z</time></trkpt><trkpt lat="31.268061446887792" lon="-4.132688826365495"><ele>747.0</ele><time>2026-04-30T11:49:20Z</time></trkpt><trkpt lat="31.268179071873394" lon="-4.132664201733951"><ele>747.1666666666666</ele><time>2026-04-30T11:49:22Z</time></trkpt><trkpt lat="31.26830547852693" lon="-4.132639184394452"><ele>747.3333333333334</ele><time>2026-04-30T11:49:24Z</time></trkpt><trkpt lat="31.268378253944803" lon="-4.1326193069689445"><ele>747.5</ele><time>2026-04-30T11:49:25Z</time></trkpt><trkpt lat="31.268450322310546" lon="-4.132592060286712"><ele>747.6666666666667</ele><time>2026-04-30T11:49:26Z</time></trkpt><trkpt lat="31.268517498501453" lon="-4.132562330619894"><ele>747.8333333333334</ele><time>2026-04-30T11:49:27Z</time></trkpt><trkpt lat="31.268585006631714" lon="-4.132534539631991"><ele>748.0</ele><time>2026-04-30T11:49:28Z</time></trkpt><trkpt lat="31.26865119723442" lon="-4.132504541967376"><ele>748.0</ele><time>2026-04-30T11:49:29Z</time></trkpt><trkpt lat="31.268730481727232" lon="-4.132458418271938"><ele>748.0</ele><time>2026-04-30T11:49:30Z</time></trkpt><trkpt lat="31.268823109769215" lon="-4.132392646069536"><ele>748.0</ele><time>2026-04-30T11:49:31.001Z</time></trkpt><trkpt lat="31.268914834912003" lon="-4.132304346849219"><ele>748.0</ele><time>2026-04-30T11:49:32.001Z</time></trkpt><trkpt lat="31.26899875078173" lon="-4.132208954229539"><ele>748.0</ele><time>2026-04-30T11:49:33.001Z</time></trkpt><trkpt lat="31.269079350025734" lon="-4.132100075774957"><ele>748.0</ele><time>2026-04-30T11:49:34.001Z</time></trkpt><trkpt lat="31.269153433908553" lon="-4.1319767892538986"><ele>748.0</ele><time>2026-04-30T11:49:35.001Z</time></trkpt><trkpt lat="31.269219767407456" lon="-4.1318482240995955"><ele>748.0</ele><time>2026-04-30T11:49:36.001Z</time></trkpt><trkpt lat="31.2692833145866" lon="-4.13170490527004"><ele>748.0</ele><time>2026-04-30T11:49:37.001Z</time></trkpt><trkpt lat="31.269358395937672" lon="-4.131538246263093"><ele>748.0</ele><time>2026-04-30T11:49:38.001Z</time></trkpt><trkpt lat="31.26943047110533" lon="-4.131361171290041"><ele>748.0</ele><time>2026-04-30T11:49:39.001Z</time></trkpt><trkpt lat="31.269504882869988" lon="-4.1311903443137"><ele>748.0</ele><time>2026-04-30T11:49:40Z</time></trkpt><trkpt lat="31.269575610287802" lon="-4.131033891630491"><ele>748.0</ele><time>2026-04-30T11:49:41Z</time></trkpt><trkpt lat="31.269645783013598" lon="-4.130873727790245"><ele>748.0</ele><time>2026-04-30T11:49:42Z</time></trkpt><trkpt lat="31.26971198119141" lon="-4.130722040833624"><ele>748.0</ele><time>2026-04-30T11:49:43Z</time></trkpt><trkpt lat="31.269775041264584" lon="-4.130573375662024"><ele>748.0</ele><time>2026-04-30T11:49:44Z</time></trkpt><trkpt lat="31.269840185791526" lon="-4.130422273738872"><ele>747.6666666666667</ele><time>2026-04-30T11:49:45Z</time></trkpt><trkpt lat="31.269902346512893" lon="-4.13027065473152"><ele>747.3333333333334</ele><time>2026-04-30T11:49:46Z</time></trkpt><trkpt lat="31.26997154875326" lon="-4.130110445765673"><ele>747.0</ele><time>2026-04-30T11:49:47Z</time></trkpt><trkpt lat="31.270042619955476" lon="-4.129941190019144"><ele>747.6666666666666</ele><time>2026-04-30T11:49:48Z</time></trkpt><trkpt lat="31.270113774613073" lon="-4.1297720258963695"><ele>748.3333333333333</ele><time>2026-04-30T11:49:49Z</time></trkpt><trkpt lat="31.27018433737248" lon="-4.129602005791232"><ele>749.0</ele><time>2026-04-30T11:49:50Z</time></trkpt><trkpt lat="31.270257399399714" lon="-4.1294321882697815"><ele>749.0</ele><time>2026-04-30T11:49:51Z</time></trkpt><trkpt lat="31.270335453495882" lon="-4.1292541043114275"><ele>749.0</ele><time>2026-04-30T11:49:52Z</time></trkpt><trkpt lat="31.270413550540944" lon="-4.129071160517588"><ele>749.0</ele><time>2026-04-30T11:49:53Z</time></trkpt><trkpt lat="31.270487630011747" lon="-4.128900992802288"><ele>749.0</ele><time>2026-04-30T11:49:54Z</time></trkpt><trkpt lat="31.270558599707293" lon="-4.128737995441608"><ele>749.0</ele><time>2026-04-30T11:49:55Z</time></trkpt><trkpt lat="31.27062431905447" lon="-4.128584967455159"><ele>749.0</ele><time>2026-04-30T11:49:56Z</time></trkpt><trkpt lat="31.270689657821208" lon="-4.128437319829661"><ele>749.0</ele><time>2026-04-30T11:49:57Z</time></trkpt><trkpt lat="31.27075873920916" lon="-4.128291056256984"><ele>748.75</ele><time>2026-04-30T11:49:58Z</time></trkpt><trkpt lat="31.27082597866695" lon="-4.128138754791564"><ele>748.5</ele><time>2026-04-30T11:49:59Z</time></trkpt><trkpt lat="31.27089414754256" lon="-4.127992197945451"><ele>748.25</ele><time>2026-04-30T11:50:00Z</time></trkpt><trkpt lat="31.270961441659765" lon="-4.127849268145556"><ele>748.0</ele><time>2026-04-30T11:50:01Z</time></trkpt><trkpt lat="31.271023282754047" lon="-4.127709123932024"><ele>748.0</ele><time>2026-04-30T11:50:02Z</time></trkpt><trkpt lat="31.27108671694618" lon="-4.127564172153594"><ele>748.0</ele><time>2026-04-30T11:50:03Z</time></trkpt><trkpt lat="31.271151367538096" lon="-4.127417352992931"><ele>748.0</ele><time>2026-04-30T11:50:04Z</time></trkpt><trkpt lat="31.271215814864938" lon="-4.127275062273251"><ele>748.0</ele><time>2026-04-30T11:50:05Z</time></trkpt><trkpt lat="31.27127792399658" lon="-4.12713326320586"><ele>748.0</ele><time>2026-04-30T11:50:06Z</time></trkpt><trkpt lat="31.271341795602815" lon="-4.126990389586482"><ele>748.0</ele><time>2026-04-30T11:50:07Z</time></trkpt><trkpt lat="31.2714076190738" lon="-4.126841789084303"><ele>748.0</ele><time>2026-04-30T11:50:08Z</time></trkpt><trkpt lat="31.27146569433029" lon="-4.1266867010981345"><ele>748.0</ele><time>2026-04-30T11:50:09Z</time></trkpt><trkpt lat="31.271514628339023" lon="-4.126522048219455"><ele>748.0</ele><time>2026-04-30T11:50:10Z</time></trkpt><trkpt lat="31.27155939886872" lon="-4.126356914551556"><ele>748.0</ele><time>2026-04-30T11:50:11Z</time></trkpt><trkpt lat="31.271593746103147" lon="-4.1261997274954565"><ele>748.0</ele><time>2026-04-30T11:50:12Z</time></trkpt><trkpt lat="31.271630054249304" lon="-4.1260397915695"><ele>748.0</ele><time>2026-04-30T11:50:13Z</time></trkpt><trkpt lat="31.271673602686914" lon="-4.125878049034086"><ele>748.0</ele><time>2026-04-30T11:50:14Z</time></trkpt><trkpt lat="31.271722420497845" lon="-4.125715633847359"><ele>748.0</ele><time>2026-04-30T11:50:15Z</time></trkpt><trkpt lat="31.27177389343405" lon="-4.125550759643505"><ele>748.0</ele><time>2026-04-30T11:50:16Z</time></trkpt><trkpt lat="31.271824521340157" lon="-4.125393615771028"><ele>748.0</ele><time>2026-04-30T11:50:17Z</time></trkpt><trkpt lat="31.27187166001547" lon="-4.125248449853564"><ele>748.0</ele><time>2026-04-30T11:50:18Z</time></trkpt><trkpt lat="31.271920702610412" lon="-4.125097120447593"><ele>748.0</ele><time>2026-04-30T11:50:19Z</time></trkpt><trkpt lat="31.2719715075909" lon="-4.124941539075336"><ele>748.0</ele><time>2026-04-30T11:50:20Z</time></trkpt><trkpt lat="31.27201978999048" lon="-4.124779914807906"><ele>748.0</ele><time>2026-04-30T11:50:21Z</time></trkpt><trkpt lat="31.272068961037455" lon="-4.124619164709923"><ele>748.5</ele><time>2026-04-30T11:50:22Z</time></trkpt><trkpt lat="31.27212216567686" lon="-4.124456883848762"><ele>749.0</ele><time>2026-04-30T11:50:23Z</time></trkpt><trkpt lat="31.272170317445955" lon="-4.124298619131774"><ele>749.5</ele><time>2026-04-30T11:50:24Z</time></trkpt><trkpt lat="31.272218732328547" lon="-4.124140427240738"><ele>750.0</ele><time>2026-04-30T11:50:25Z</time></trkpt><trkpt lat="31.27226907645697" lon="-4.1239815353233045"><ele>749.5</ele><time>2026-04-30T11:50:26Z</time></trkpt><trkpt lat="31.272322881355574" lon="-4.123819941208351"><ele>749.0</ele><time>2026-04-30T11:50:27Z</time></trkpt><trkpt lat="31.27237796375165" lon="-4.123653748789783"><ele>748.5</ele><time>2026-04-30T11:50:28Z</time></trkpt><trkpt lat="31.27243785851574" lon="-4.1234944963838505"><ele>748.0</ele><time>2026-04-30T11:50:29Z</time></trkpt><trkpt lat="31.272494415155833" lon="-4.123335067504442"><ele>748.75</ele><time>2026-04-30T11:50:30Z</time></trkpt><trkpt lat="31.272550290646933" lon="-4.123179831587365"><ele>749.5</ele><time>2026-04-30T11:50:31Z</time></trkpt><trkpt lat="31.272603083364075" lon="-4.123023638376188"><ele>750.25</ele><time>2026-04-30T11:50:32Z</time></trkpt><trkpt lat="31.272657367865346" lon="-4.122871437300998"><ele>751.0</ele><time>2026-04-30T11:50:33Z</time></trkpt><trkpt lat="31.27271171623356" lon="-4.122714927040129"><ele>751.0</ele><time>2026-04-30T11:50:34Z</time></trkpt><trkpt lat="31.272767999185266" lon="-4.122560062241663"><ele>751.0</ele><time>2026-04-30T11:50:35Z</time></trkpt><trkpt lat="31.272825156023536" lon="-4.122406505025255"><ele>751.0</ele><time>2026-04-30T11:50:36Z</time></trkpt><trkpt lat="31.27288187145673" lon="-4.12225496234063"><ele>751.0</ele><time>2026-04-30T11:50:37Z</time></trkpt><trkpt lat="31.272932719866784" lon="-4.122105734653668"><ele>750.75</ele><time>2026-04-30T11:50:38Z</time></trkpt><trkpt lat="31.2729842422521" lon="-4.121948865118176"><ele>750.5</ele><time>2026-04-30T11:50:39Z</time></trkpt><trkpt lat="31.273035760439058" lon="-4.121797468905298"><ele>750.25</ele><time>2026-04-30T11:50:40Z</time></trkpt><trkpt lat="31.27308865662985" lon="-4.12164349332323"><ele>750.0</ele><time>2026-04-30T11:50:41Z</time></trkpt><trkpt lat="31.273138746964918" lon="-4.121494158226913"><ele>750.0</ele><time>2026-04-30T11:50:42Z</time></trkpt><trkpt lat="31.27318619356706" lon="-4.121350813291093"><ele>750.0</ele><time>2026-04-30T11:50:43Z</time></trkpt><trkpt lat="31.27324073621442" lon="-4.121213491924974"><ele>750.0</ele><time>2026-04-30T11:50:44Z</time></trkpt><trkpt lat="31.273291072925016" lon="-4.121071928879836"><ele>750.0</ele><time>2026-04-30T11:50:45Z</time></trkpt><trkpt lat="31.273339848120006" lon="-4.120934540620039"><ele>750.0</ele><time>2026-04-30T11:50:46Z</time></trkpt><trkpt lat="31.27338227383536" lon="-4.12080075735846"><ele>750.0</ele><time>2026-04-30T11:50:47Z</time></trkpt><trkpt lat="31.273425015264824" lon="-4.1206688922589905"><ele>750.0</ele><time>2026-04-30T11:50:48Z</time></trkpt><trkpt lat="31.273470808285985" lon="-4.120534189179111"><ele>750.0</ele><time>2026-04-30T11:50:49Z</time></trkpt><trkpt lat="31.27352213710492" lon="-4.120398309496247"><ele>750.0</ele><time>2026-04-30T11:50:50Z</time></trkpt><trkpt lat="31.273571681326338" lon="-4.120257745791103"><ele>750.0</ele><time>2026-04-30T11:50:51Z</time></trkpt><trkpt lat="31.273620930655436" lon="-4.12012018741861"><ele>750.0</ele><time>2026-04-30T11:50:52Z</time></trkpt><trkpt lat="31.27367190110673" lon="-4.119975241047269"><ele>750.0</ele><time>2026-04-30T11:50:53Z</time></trkpt><trkpt lat="31.27372353084253" lon="-4.119835102614173"><ele>750.25</ele><time>2026-04-30T11:50:54Z</time></trkpt><trkpt lat="31.273778145093797" lon="-4.119692346498659"><ele>750.5</ele><time>2026-04-30T11:50:55Z</time></trkpt><trkpt lat="31.27383467468615" lon="-4.11955368857934"><ele>750.75</ele><time>2026-04-30T11:50:56Z</time></trkpt><trkpt lat="31.273885950024145" lon="-4.1194150060170855"><ele>751.0</ele><time>2026-04-30T11:50:57Z</time></trkpt><trkpt lat="31.273937782653693" lon="-4.119273486437322"><ele>750.75</ele><time>2026-04-30T11:50:58Z</time></trkpt><trkpt lat="31.273994213374124" lon="-4.119129206375079"><ele>750.5</ele><time>2026-04-30T11:50:59Z</time></trkpt><trkpt lat="31.274044611254087" lon="-4.1189921993359215"><ele>750.25</ele><time>2026-04-30T11:51:00Z</time></trkpt><trkpt lat="31.274098518779073" lon="-4.118850145578655"><ele>750.0</ele><time>2026-04-30T11:51:01Z</time></trkpt><trkpt lat="31.274158440126218" lon="-4.118702708279689"><ele>750.0</ele><time>2026-04-30T11:51:02Z</time></trkpt><trkpt lat="31.27421394644636" lon="-4.118559056051241"><ele>750.0</ele><time>2026-04-30T11:51:03Z</time></trkpt><trkpt lat="31.274272531686236" lon="-4.118416694102149"><ele>750.0</ele><time>2026-04-30T11:51:04Z</time></trkpt><trkpt lat="31.27433118163162" lon="-4.118270945688011"><ele>750.0</ele><time>2026-04-30T11:51:05Z</time></trkpt><trkpt lat="31.274390316199067" lon="-4.118123872224339"><ele>750.25</ele><time>2026-04-30T11:51:06Z</time></trkpt><trkpt lat="31.274448942522444" lon="-4.117979845332962"><ele>750.5</ele><time>2026-04-30T11:51:07Z</time></trkpt><trkpt lat="31.274510216809837" lon="-4.117837859242739"><ele>750.75</ele><time>2026-04-30T11:51:08Z</time></trkpt><trkpt lat="31.274570171644353" lon="-4.117702305812112"><ele>751.0</ele><time>2026-04-30T11:51:09Z</time></trkpt><trkpt lat="31.274631773619316" lon="-4.117564173293618"><ele>751.0</ele><time>2026-04-30T11:51:10Z</time></trkpt><trkpt lat="31.274692978495796" lon="-4.1174256608505635"><ele>751.0</ele><time>2026-04-30T11:51:11Z</time></trkpt><trkpt lat="31.274760056678552" lon="-4.117280817655638"><ele>751.0</ele><time>2026-04-30T11:51:12Z</time></trkpt><trkpt lat="31.274827132222754" lon="-4.117139167100262"><ele>751.0</ele><time>2026-04-30T11:51:13Z</time></trkpt><trkpt lat="31.274895317123445" lon="-4.116997805008103"><ele>751.0</ele><time>2026-04-30T11:51:14Z</time></trkpt><trkpt lat="31.274960630103003" lon="-4.116856541587244"><ele>751.0</ele><time>2026-04-30T11:51:15Z</time></trkpt><trkpt lat="31.27502898744601" lon="-4.116716879829307"><ele>751.0</ele><time>2026-04-30T11:51:16Z</time></trkpt><trkpt lat="31.275098838434563" lon="-4.11658670049414"><ele>751.0</ele><time>2026-04-30T11:51:17Z</time></trkpt><trkpt lat="31.275165928252598" lon="-4.116462693783249"><ele>750.75</ele><time>2026-04-30T11:51:18Z</time></trkpt><trkpt lat="31.275231814375104" lon="-4.116339829118895"><ele>750.5</ele><time>2026-04-30T11:51:19Z</time></trkpt><trkpt lat="31.27529268249294" lon="-4.116218236279656"><ele>750.25</ele><time>2026-04-30T11:51:20Z</time></trkpt><trkpt lat="31.275356731961775" lon="-4.116096763620789"><ele>750.0</ele><time>2026-04-30T11:51:21Z</time></trkpt><trkpt lat="31.275427274445086" lon="-4.115973491124417"><ele>750.0</ele><time>2026-04-30T11:51:22Z</time></trkpt><trkpt lat="31.275494977464053" lon="-4.115850140102662"><ele>750.0</ele><time>2026-04-30T11:51:23Z</time></trkpt><trkpt lat="31.275558668743987" lon="-4.115729829832383"><ele>750.0</ele><time>2026-04-30T11:51:24Z</time></trkpt><trkpt lat="31.2756214069067" lon="-4.115600717587689"><ele>750.0</ele><time>2026-04-30T11:51:25Z</time></trkpt><trkpt lat="31.27567920295984" lon="-4.11547708369809"><ele>750.25</ele><time>2026-04-30T11:51:26Z</time></trkpt><trkpt lat="31.27573690082025" lon="-4.115346264567079"><ele>750.5</ele><time>2026-04-30T11:51:27Z</time></trkpt><trkpt lat="31.275800837414415" lon="-4.115206704790425"><ele>750.75</ele><time>2026-04-30T11:51:28Z</time></trkpt><trkpt lat="31.275865129064798" lon="-4.1150648284612314"><ele>751.0</ele><time>2026-04-30T11:51:29Z</time></trkpt><trkpt lat="31.275928627572636" lon="-4.114922003356154"><ele>751.0</ele><time>2026-04-30T11:51:30Z</time></trkpt><trkpt lat="31.275993056162886" lon="-4.114771645026796"><ele>751.0</ele><time>2026-04-30T11:51:31Z</time></trkpt><trkpt lat="31.276058828817977" lon="-4.114617826772423"><ele>751.0</ele><time>2026-04-30T11:51:32Z</time></trkpt><trkpt lat="31.276123132343596" lon="-4.114456997280137"><ele>751.0</ele><time>2026-04-30T11:51:33Z</time></trkpt><trkpt lat="31.27618806201466" lon="-4.114293203189066"><ele>751.0</ele><time>2026-04-30T11:51:34Z</time></trkpt><trkpt lat="31.27624869263491" lon="-4.114132978969871"><ele>751.0</ele><time>2026-04-30T11:51:35Z</time></trkpt><trkpt lat="31.27631069106032" lon="-4.113973586096673"><ele>751.0</ele><time>2026-04-30T11:51:36Z</time></trkpt><trkpt lat="31.2763771942687" lon="-4.113816167242515"><ele>751.0</ele><time>2026-04-30T11:51:37Z</time></trkpt><trkpt lat="31.27644713197895" lon="-4.113660187032671"><ele>751.0</ele><time>2026-04-30T11:51:38Z</time></trkpt><trkpt lat="31.276518006193086" lon="-4.113502961998046"><ele>751.0</ele><time>2026-04-30T11:51:39Z</time></trkpt><trkpt lat="31.276588253751505" lon="-4.113350006834793"><ele>751.0</ele><time>2026-04-30T11:51:40Z</time></trkpt><trkpt lat="31.276660315073737" lon="-4.1131968988909104"><ele>751.25</ele><time>2026-04-30T11:51:41Z</time></trkpt><trkpt lat="31.276729852760806" lon="-4.113046544751413"><ele>751.5</ele><time>2026-04-30T11:51:42Z</time></trkpt><trkpt lat="31.276797138226794" lon="-4.112895498648111"><ele>751.75</ele><time>2026-04-30T11:51:43Z</time></trkpt><trkpt lat="31.276863869862577" lon="-4.112744696312784"><ele>752.0</ele><time>2026-04-30T11:51:44Z</time></trkpt><trkpt lat="31.276929790954977" lon="-4.112597731694883"><ele>752.0</ele><time>2026-04-30T11:51:45Z</time></trkpt><trkpt lat="31.27699862055677" lon="-4.112450705703974"><ele>752.0</ele><time>2026-04-30T11:51:46Z</time></trkpt><trkpt lat="31.277069763318668" lon="-4.112300642594977"><ele>752.0</ele><time>2026-04-30T11:51:47Z</time></trkpt><trkpt lat="31.277144712838446" lon="-4.112147369042025"><ele>752.0</ele><time>2026-04-30T11:51:48Z</time></trkpt><trkpt lat="31.277220230013683" lon="-4.111991411701255"><ele>751.6666666666666</ele><time>2026-04-30T11:51:49Z</time></trkpt><trkpt lat="31.277297830866885" lon="-4.111836546299583"><ele>751.3333333333334</ele><time>2026-04-30T11:51:50Z</time></trkpt><trkpt lat="31.27738064734779" lon="-4.111688133122947"><ele>751.0</ele><time>2026-04-30T11:51:51Z</time></trkpt><trkpt lat="31.277463846842245" lon="-4.1115471783376325"><ele>751.5</ele><time>2026-04-30T11:51:52Z</time></trkpt><trkpt lat="31.277541549071962" lon="-4.111400821545705"><ele>752.0</ele><time>2026-04-30T11:51:53Z</time></trkpt><trkpt lat="31.277609336410443" lon="-4.1112521005759035"><ele>752.5</ele><time>2026-04-30T11:51:54Z</time></trkpt><trkpt lat="31.277667429483714" lon="-4.111098572639876"><ele>753.0</ele><time>2026-04-30T11:51:55Z</time></trkpt><trkpt lat="31.27772148042614" lon="-4.110941194275507"><ele>753.0</ele><time>2026-04-30T11:51:56Z</time></trkpt><trkpt lat="31.277773503637714" lon="-4.1107800105411245"><ele>753.0</ele><time>2026-04-30T11:51:57Z</time></trkpt><trkpt lat="31.277829397377843" lon="-4.110616034250149"><ele>753.0</ele><time>2026-04-30T11:51:58Z</time></trkpt><trkpt lat="31.2778919193203" lon="-4.110454988105927"><ele>753.0</ele><time>2026-04-30T11:51:59Z</time></trkpt><trkpt lat="31.277957191078126" lon="-4.11029673744352"><ele>753.0</ele><time>2026-04-30T11:52:00Z</time></trkpt><trkpt lat="31.278019170317837" lon="-4.110136706443167"><ele>753.0</ele><time>2026-04-30T11:52:01Z</time></trkpt><trkpt lat="31.27808452112771" lon="-4.109978646896363"><ele>753.0</ele><time>2026-04-30T11:52:02Z</time></trkpt><trkpt lat="31.278148949256455" lon="-4.109819595801142"><ele>752.75</ele><time>2026-04-30T11:52:03Z</time></trkpt><trkpt lat="31.278215600666673" lon="-4.1096627053075245"><ele>752.5</ele><time>2026-04-30T11:52:04Z</time></trkpt><trkpt lat="31.278281803168902" lon="-4.10951242114719"><ele>752.25</ele><time>2026-04-30T11:52:05Z</time></trkpt><trkpt lat="31.278353930473227" lon="-4.109368239064681"><ele>752.0</ele><time>2026-04-30T11:52:06Z</time></trkpt><trkpt lat="31.278426174082366" lon="-4.109221682817029"><ele>752.0</ele><time>2026-04-30T11:52:07Z</time></trkpt><trkpt lat="31.27849806723142" lon="-4.109080448391474"><ele>752.0</ele><time>2026-04-30T11:52:08Z</time></trkpt><trkpt lat="31.278573979581804" lon="-4.10893843550935"><ele>752.0</ele><time>2026-04-30T11:52:09Z</time></trkpt><trkpt lat="31.278649464827687" lon="-4.108796462872675"><ele>752.0</ele><time>2026-04-30T11:52:10Z</time></trkpt><trkpt lat="31.278725129736554" lon="-4.108651419385286"><ele>752.0</ele><time>2026-04-30T11:52:11Z</time></trkpt><trkpt lat="31.278802015116135" lon="-4.108506683206123"><ele>752.0</ele><time>2026-04-30T11:52:12Z</time></trkpt><trkpt lat="31.278878087338896" lon="-4.108365774674931"><ele>752.0</ele><time>2026-04-30T11:52:13Z</time></trkpt><trkpt lat="31.27895580548524" lon="-4.108223120984023"><ele>752.0</ele><time>2026-04-30T11:52:14Z</time></trkpt><trkpt lat="31.279033812108196" lon="-4.108080873815541"><ele>752.25</ele><time>2026-04-30T11:52:15Z</time></trkpt><trkpt lat="31.279105723120555" lon="-4.107939928987566"><ele>752.5</ele><time>2026-04-30T11:52:16Z</time></trkpt><trkpt lat="31.279176932441416" lon="-4.107798036806104"><ele>752.75</ele><time>2026-04-30T11:52:17Z</time></trkpt><trkpt lat="31.279251721127505" lon="-4.107658983351075"><ele>753.0</ele><time>2026-04-30T11:52:18Z</time></trkpt><trkpt lat="31.27932564775389" lon="-4.107517623191478"><ele>753.25</ele><time>2026-04-30T11:52:19Z</time></trkpt><trkpt lat="31.279400324289522" lon="-4.107377405695153"><ele>753.5</ele><time>2026-04-30T11:52:20Z</time></trkpt><trkpt lat="31.279476063824976" lon="-4.107235814315828"><ele>753.75</ele><time>2026-04-30T11:52:21Z</time></trkpt><trkpt lat="31.279548845454386" lon="-4.107093870712739"><ele>754.0</ele><time>2026-04-30T11:52:22Z</time></trkpt><trkpt lat="31.279622977241726" lon="-4.106951168348942"><ele>754.0</ele><time>2026-04-30T11:52:23Z</time></trkpt><trkpt lat="31.279701466854018" lon="-4.1068084114816585"><ele>754.0</ele><time>2026-04-30T11:52:24Z</time></trkpt><trkpt lat="31.27977583075627" lon="-4.1066622611491805"><ele>754.0</ele><time>2026-04-30T11:52:25Z</time></trkpt><trkpt lat="31.279848119197386" lon="-4.1065175568366215"><ele>754.0</ele><time>2026-04-30T11:52:26Z</time></trkpt><trkpt lat="31.279921861276723" lon="-4.106375749717258"><ele>754.0</ele><time>2026-04-30T11:52:27Z</time></trkpt><trkpt lat="31.279995195290816" lon="-4.106233735882717"><ele>754.0</ele><time>2026-04-30T11:52:28Z</time></trkpt><trkpt lat="31.28006773166339" lon="-4.1060924394775276"><ele>754.0</ele><time>2026-04-30T11:52:29Z</time></trkpt><trkpt lat="31.280141843421557" lon="-4.105951962935071"><ele>754.0</ele><time>2026-04-30T11:52:30Z</time></trkpt><trkpt lat="31.280213666914104" lon="-4.1058145796213665"><ele>753.75</ele><time>2026-04-30T11:52:31Z</time></trkpt><trkpt lat="31.280284951605154" lon="-4.10567611969321"><ele>753.5</ele><time>2026-04-30T11:52:32Z</time></trkpt><trkpt lat="31.280357862025888" lon="-4.105534090642876"><ele>753.25</ele><time>2026-04-30T11:52:33Z</time></trkpt><trkpt lat="31.28043286141561" lon="-4.105394781756237"><ele>753.0</ele><time>2026-04-30T11:52:34Z</time></trkpt><trkpt lat="31.280510375711007" lon="-4.105250360611284"><ele>753.0</ele><time>2026-04-30T11:52:35Z</time></trkpt><trkpt lat="31.280587140526123" lon="-4.105106206768976"><ele>753.0</ele><time>2026-04-30T11:52:36Z</time></trkpt><trkpt lat="31.280665359756785" lon="-4.104967145456427"><ele>753.0</ele><time>2026-04-30T11:52:37Z</time></trkpt><trkpt lat="31.28073881011293" lon="-4.104828124927197"><ele>753.0</ele><time>2026-04-30T11:52:38Z</time></trkpt><trkpt lat="31.28081321047353" lon="-4.1046921680453705"><ele>753.25</ele><time>2026-04-30T11:52:39Z</time></trkpt><trkpt lat="31.28088649204285" lon="-4.104551805643023"><ele>753.5</ele><time>2026-04-30T11:52:40Z</time></trkpt><trkpt lat="31.280958417810194" lon="-4.104414742218608"><ele>753.75</ele><time>2026-04-30T11:52:41Z</time></trkpt><trkpt lat="31.28103552678789" lon="-4.104273171132516"><ele>754.0</ele><time>2026-04-30T11:52:42Z</time></trkpt><trkpt lat="31.281112961829756" lon="-4.104130992029128"><ele>754.0</ele><time>2026-04-30T11:52:43Z</time></trkpt><trkpt lat="31.28119063345147" lon="-4.103986595041921"><ele>754.0</ele><time>2026-04-30T11:52:44Z</time></trkpt><trkpt lat="31.281268940696737" lon="-4.1038404491668965"><ele>754.0</ele><time>2026-04-30T11:52:45Z</time></trkpt><trkpt lat="31.281345012412586" lon="-4.103694941721297"><ele>754.0</ele><time>2026-04-30T11:52:46Z</time></trkpt><trkpt lat="31.2814225561716" lon="-4.1035526897399786"><ele>754.0</ele><time>2026-04-30T11:52:47Z</time></trkpt><trkpt lat="31.281501527293702" lon="-4.1034103069929815"><ele>754.0</ele><time>2026-04-30T11:52:48Z</time></trkpt><trkpt lat="31.281582185239586" lon="-4.10326497859997"><ele>754.0</ele><time>2026-04-30T11:52:49Z</time></trkpt><trkpt lat="31.281659657497116" lon="-4.103123654382003"><ele>754.0</ele><time>2026-04-30T11:52:50Z</time></trkpt><trkpt lat="31.281735793584737" lon="-4.102976772209285"><ele>754.25</ele><time>2026-04-30T11:52:51Z</time></trkpt><trkpt lat="31.281809813278006" lon="-4.102837833404859"><ele>754.5</ele><time>2026-04-30T11:52:52Z</time></trkpt><trkpt lat="31.28188708768269" lon="-4.102699750274096"><ele>754.75</ele><time>2026-04-30T11:52:53Z</time></trkpt><trkpt lat="31.28195689867961" lon="-4.10256293138844"><ele>755.0</ele><time>2026-04-30T11:52:54Z</time></trkpt><trkpt lat="31.28202952715928" lon="-4.102428541960466"><ele>755.0</ele><time>2026-04-30T11:52:55Z</time></trkpt><trkpt lat="31.28209997352728" lon="-4.102285046303594"><ele>755.0</ele><time>2026-04-30T11:52:56Z</time></trkpt><trkpt lat="31.282166129224784" lon="-4.1021401876208525"><ele>755.0</ele><time>2026-04-30T11:52:57Z</time></trkpt><trkpt lat="31.282235897954084" lon="-4.101991164703512"><ele>755.0</ele><time>2026-04-30T11:52:58Z</time></trkpt><trkpt lat="31.28229827642469" lon="-4.101840116353141"><ele>755.0</ele><time>2026-04-30T11:52:59Z</time></trkpt><trkpt lat="31.28236105172076" lon="-4.101683051904148"><ele>755.0</ele><time>2026-04-30T11:53:00Z</time></trkpt><trkpt lat="31.282424403572083" lon="-4.101525966378212"><ele>755.0</ele><time>2026-04-30T11:53:01Z</time></trkpt><trkpt lat="31.28248344862505" lon="-4.101371812374314"><ele>755.0</ele><time>2026-04-30T11:53:02Z</time></trkpt><trkpt lat="31.28253377807379" lon="-4.101216263571732"><ele>755.0</ele><time>2026-04-30T11:53:03Z</time></trkpt><trkpt lat="31.282574252554408" lon="-4.101062377419561"><ele>755.0</ele><time>2026-04-30T11:53:04Z</time></trkpt><trkpt lat="31.282608825667467" lon="-4.1009019636098945"><ele>755.0</ele><time>2026-04-30T11:53:05Z</time></trkpt><trkpt lat="31.282643620094248" lon="-4.1007371432008"><ele>755.0</ele><time>2026-04-30T11:53:06Z</time></trkpt><trkpt lat="31.28266792597643" lon="-4.100572018653228"><ele>755.0</ele><time>2026-04-30T11:53:07Z</time></trkpt><trkpt lat="31.282688377664787" lon="-4.100399063641402"><ele>755.0</ele><time>2026-04-30T11:53:08Z</time></trkpt><trkpt lat="31.282706121286694" lon="-4.100224389004014"><ele>755.0</ele><time>2026-04-30T11:53:09Z</time></trkpt><trkpt lat="31.282719972497755" lon="-4.10005410519938"><ele>755.0</ele><time>2026-04-30T11:53:10Z</time></trkpt><trkpt lat="31.28273483446767" lon="-4.099887148004941"><ele>755.0</ele><time>2026-04-30T11:53:11Z</time></trkpt><trkpt lat="31.2827520944236" lon="-4.0997292823561216"><ele>755.0</ele><time>2026-04-30T11:53:12Z</time></trkpt><trkpt lat="31.28276788907867" lon="-4.099575926395751"><ele>755.0</ele><time>2026-04-30T11:53:13Z</time></trkpt><trkpt lat="31.282780531328786" lon="-4.09942283099175"><ele>755.0</ele><time>2026-04-30T11:53:14Z</time></trkpt><trkpt lat="31.282789379748603" lon="-4.099278481440577"><ele>755.0</ele><time>2026-04-30T11:53:15Z</time></trkpt><trkpt lat="31.282802419209403" lon="-4.099121067271742"><ele>755.0</ele><time>2026-04-30T11:53:16Z</time></trkpt><trkpt lat="31.282811188288917" lon="-4.098964542008861"><ele>755.0</ele><time>2026-04-30T11:53:17Z</time></trkpt><trkpt lat="31.282826581768308" lon="-4.098812258505057"><ele>755.0</ele><time>2026-04-30T11:53:18Z</time></trkpt><trkpt lat="31.28284341239428" lon="-4.098663195054265"><ele>755.0</ele><time>2026-04-30T11:53:19Z</time></trkpt><trkpt lat="31.282853202203533" lon="-4.0985221938612915"><ele>755.0</ele><time>2026-04-30T11:53:20Z</time></trkpt><trkpt lat="31.282856043675373" lon="-4.098382336115824"><ele>755.0</ele><time>2026-04-30T11:53:21Z</time></trkpt><trkpt lat="31.282854492883736" lon="-4.098236507974589"><ele>755.0</ele><time>2026-04-30T11:53:22Z</time></trkpt><trkpt lat="31.28286414846009" lon="-4.098104019366452"><ele>755.25</ele><time>2026-04-30T11:53:23Z</time></trkpt><trkpt lat="31.282887475658896" lon="-4.097966594112015"><ele>755.5</ele><time>2026-04-30T11:53:24Z</time></trkpt><trkpt lat="31.282914122553333" lon="-4.09782149839002"><ele>755.75</ele><time>2026-04-30T11:53:25Z</time></trkpt><trkpt lat="31.282945817637042" lon="-4.09766967276922"><ele>756.0</ele><time>2026-04-30T11:53:26Z</time></trkpt><trkpt lat="31.28298168693068" lon="-4.0975224973295115"><ele>756.25</ele><time>2026-04-30T11:53:27Z</time></trkpt><trkpt lat="31.283019673918716" lon="-4.097372526462196"><ele>756.5</ele><time>2026-04-30T11:53:28Z</time></trkpt><trkpt lat="31.2830693525924" lon="-4.097230504842041"><ele>756.75</ele><time>2026-04-30T11:53:29Z</time></trkpt><trkpt lat="31.283123892110456" lon="-4.097083710554633"><ele>757.0</ele><time>2026-04-30T11:53:30Z</time></trkpt><trkpt lat="31.28318461877271" lon="-4.096939242975961"><ele>757.0</ele><time>2026-04-30T11:53:31Z</time></trkpt><trkpt lat="31.28324440740483" lon="-4.096795122067031"><ele>757.0</ele><time>2026-04-30T11:53:32Z</time></trkpt><trkpt lat="31.283300786649697" lon="-4.096648929778136"><ele>757.0</ele><time>2026-04-30T11:53:33Z</time></trkpt><trkpt lat="31.283357343938775" lon="-4.096496857018737"><ele>757.0</ele><time>2026-04-30T11:53:34Z</time></trkpt><trkpt lat="31.283419223726572" lon="-4.09634465724362"><ele>757.0</ele><time>2026-04-30T11:53:35Z</time></trkpt><trkpt lat="31.28348049790311" lon="-4.0961982220458575"><ele>757.0</ele><time>2026-04-30T11:53:36Z</time></trkpt><trkpt lat="31.283544517133677" lon="-4.096054396359306"><ele>757.0</ele><time>2026-04-30T11:53:37Z</time></trkpt><trkpt lat="31.283602942906594" lon="-4.095917346545538"><ele>757.0</ele><time>2026-04-30T11:53:38Z</time></trkpt><trkpt lat="31.28365654102275" lon="-4.095790222127226"><ele>757.0</ele><time>2026-04-30T11:53:39Z</time></trkpt><trkpt lat="31.283709255777826" lon="-4.095662943271475"><ele>757.0</ele><time>2026-04-30T11:53:40Z</time></trkpt><trkpt lat="31.28376412727076" lon="-4.095526888691352"><ele>757.0</ele><time>2026-04-30T11:53:41Z</time></trkpt><trkpt lat="31.283818520350696" lon="-4.095389551788537"><ele>757.0</ele><time>2026-04-30T11:53:42Z</time></trkpt><trkpt lat="31.283876119449722" lon="-4.0952471833764355"><ele>757.0</ele><time>2026-04-30T11:53:43Z</time></trkpt><trkpt lat="31.28392985664978" lon="-4.0951061989959525"><ele>757.0</ele><time>2026-04-30T11:53:44Z</time></trkpt><trkpt lat="31.283985035009742" lon="-4.094951002875427"><ele>757.0</ele><time>2026-04-30T11:53:45Z</time></trkpt><trkpt lat="31.284045325832288" lon="-4.094790106553962"><ele>757.0</ele><time>2026-04-30T11:53:46Z</time></trkpt><trkpt lat="31.28410218732273" lon="-4.094625798724835"><ele>756.0</ele><time>2026-04-30T11:53:47Z</time></trkpt><trkpt lat="31.284158122888744" lon="-4.094464963544354"><ele>755.0</ele><time>2026-04-30T11:53:48Z</time></trkpt><trkpt lat="31.284208879211207" lon="-4.094321294673059"><ele>754.0</ele><time>2026-04-30T11:53:49Z</time></trkpt><trkpt lat="31.284261765337984" lon="-4.094176688120402"><ele>753.0</ele><time>2026-04-30T11:53:50Z</time></trkpt><trkpt lat="31.284309549577035" lon="-4.094025687854081"><ele>753.0</ele><time>2026-04-30T11:53:51Z</time></trkpt><trkpt lat="31.284345736423084" lon="-4.093868906335032"><ele>753.0</ele><time>2026-04-30T11:53:52Z</time></trkpt><trkpt lat="31.284377498069283" lon="-4.093708254205461"><ele>753.0</ele><time>2026-04-30T11:53:53Z</time></trkpt><trkpt lat="31.284403470294386" lon="-4.093543957012273"><ele>753.0</ele><time>2026-04-30T11:53:54Z</time></trkpt><trkpt lat="31.28443658652456" lon="-4.093375617613167"><ele>754.25</ele><time>2026-04-30T11:53:55Z</time></trkpt><trkpt lat="31.284473487928032" lon="-4.093207284431855"><ele>755.5</ele><time>2026-04-30T11:53:56Z</time></trkpt><trkpt lat="31.284516725202675" lon="-4.093040624086115"><ele>756.75</ele><time>2026-04-30T11:53:57Z</time></trkpt><trkpt lat="31.284559758306287" lon="-4.092873947634076"><ele>758.0</ele><time>2026-04-30T11:53:58Z</time></trkpt><trkpt lat="31.284600572122912" lon="-4.09271176592538"><ele>758.0</ele><time>2026-04-30T11:53:59Z</time></trkpt><trkpt lat="31.284641041077837" lon="-4.092560128932097"><ele>758.0</ele><time>2026-04-30T11:54:00Z</time></trkpt><trkpt lat="31.284681289720744" lon="-4.092414510119019"><ele>758.0</ele><time>2026-04-30T11:54:01Z</time></trkpt><trkpt lat="31.284719074633934" lon="-4.092280193006784"><ele>758.0</ele><time>2026-04-30T11:54:02Z</time></trkpt><trkpt lat="31.284754031763967" lon="-4.092158700884175"><ele>758.0</ele><time>2026-04-30T11:54:03Z</time></trkpt><trkpt lat="31.284783429639766" lon="-4.09203423750595"><ele>758.0</ele><time>2026-04-30T11:54:04Z</time></trkpt><trkpt lat="31.284813092827445" lon="-4.0919132873799695"><ele>758.0</ele><time>2026-04-30T11:54:05Z</time></trkpt><trkpt lat="31.284839207764307" lon="-4.091808993031889"><ele>758.0</ele><time>2026-04-30T11:54:06Z</time></trkpt><trkpt lat="31.28486313904302" lon="-4.0917141732898505"><ele>758.0</ele><time>2026-04-30T11:54:07Z</time></trkpt><trkpt lat="31.284886828606318" lon="-4.091627353459462"><ele>758.1666666666666</ele><time>2026-04-30T11:54:08Z</time></trkpt><trkpt lat="31.284913903332065" lon="-4.091529995120738"><ele>758.3333333333333</ele><time>2026-04-30T11:54:09Z</time></trkpt><trkpt lat="31.284933157929007" lon="-4.091426076198353"><ele>758.5</ele><time>2026-04-30T11:54:10Z</time></trkpt><trkpt lat="31.284951109430168" lon="-4.091329386106267"><ele>758.6666666666666</ele><time>2026-04-30T11:54:11Z</time></trkpt><trkpt lat="31.28497065770022" lon="-4.0912308955864"><ele>758.8333333333334</ele><time>2026-04-30T11:54:12Z</time></trkpt><trkpt lat="31.28498218160069" lon="-4.091155295740909"><ele>759.0</ele><time>2026-04-30T11:54:13Z</time></trkpt><trkpt lat="31.28499431760366" lon="-4.091005356750061"><ele>759.0</ele><time>2026-04-30T11:54:15Z</time></trkpt><trkpt lat="31.284992031886144" lon="-4.090894192672791"><ele>759.0</ele><time>2026-04-30T11:54:16Z</time></trkpt><trkpt lat="31.284981831640124" lon="-4.090776727595591"><ele>759.0</ele><time>2026-04-30T11:54:17Z</time></trkpt><trkpt lat="31.284972527372666" lon="-4.0906674009860655"><ele>759.0</ele><time>2026-04-30T11:54:18Z</time></trkpt><trkpt lat="31.284963836530157" lon="-4.090543004106591"><ele>759.0</ele><time>2026-04-30T11:54:19Z</time></trkpt><trkpt lat="31.284955850383774" lon="-4.0904077414009725"><ele>758.5</ele><time>2026-04-30T11:54:20Z</time></trkpt><trkpt lat="31.284948059339715" lon="-4.0902568958774"><ele>758.0</ele><time>2026-04-30T11:54:21Z</time></trkpt><trkpt lat="31.284939558745027" lon="-4.090115299930876"><ele>757.5</ele><time>2026-04-30T11:54:22Z</time></trkpt><trkpt lat="31.28493493068353" lon="-4.0899854461522045"><ele>757.0</ele><time>2026-04-30T11:54:23Z</time></trkpt><trkpt lat="31.284935817977257" lon="-4.089850938019697"><ele>756.8</ele><time>2026-04-30T11:54:24Z</time></trkpt><trkpt lat="31.284944472404213" lon="-4.089715938561698"><ele>756.6</ele><time>2026-04-30T11:54:25Z</time></trkpt><trkpt lat="31.284966615564286" lon="-4.089582930013562"><ele>756.4</ele><time>2026-04-30T11:54:26Z</time></trkpt><trkpt lat="31.284995229522693" lon="-4.089458918551461"><ele>756.1999999999999</ele><time>2026-04-30T11:54:27Z</time></trkpt><trkpt lat="31.28502859028227" lon="-4.08934578133405"><ele>756.0</ele><time>2026-04-30T11:54:28Z</time></trkpt><trkpt lat="31.285057313921577" lon="-4.089243051696092"><ele>756.0</ele><time>2026-04-30T11:54:29Z</time></trkpt><trkpt lat="31.285080642521567" lon="-4.089139497281888"><ele>756.0</ele><time>2026-04-30T11:54:30Z</time></trkpt><trkpt lat="31.285101425447614" lon="-4.089038216583671"><ele>756.0</ele><time>2026-04-30T11:54:31Z</time></trkpt><trkpt lat="31.28510791693311" lon="-4.088938321211389"><ele>756.0</ele><time>2026-04-30T11:54:32Z</time></trkpt><trkpt lat="31.285107679501646" lon="-4.088833870981617"><ele>756.0</ele><time>2026-04-30T11:54:33Z</time></trkpt><trkpt lat="31.28509053236404" lon="-4.088725089299323"><ele>756.0</ele><time>2026-04-30T11:54:34Z</time></trkpt><trkpt lat="31.28505601397159" lon="-4.08863329374443"><ele>756.0</ele><time>2026-04-30T11:54:35Z</time></trkpt><trkpt lat="31.28500135723965" lon="-4.088560780083342"><ele>756.0</ele><time>2026-04-30T11:54:36Z</time></trkpt><trkpt lat="31.284959227419595" lon="-4.088484874567056"><ele>756.0</ele><time>2026-04-30T11:54:37Z</time></trkpt><trkpt lat="31.284933360209912" lon="-4.08839825726237"><ele>756.0</ele><time>2026-04-30T11:54:38Z</time></trkpt><trkpt lat="31.28493027253073" lon="-4.088303147886962"><ele>756.0</ele><time>2026-04-30T11:54:39Z</time></trkpt><trkpt lat="31.284937818093567" lon="-4.088198495410004"><ele>756.0</ele><time>2026-04-30T11:54:40Z</time></trkpt><trkpt lat="31.28495006465931" lon="-4.0880823830780075"><ele>756.0</ele><time>2026-04-30T11:54:41Z</time></trkpt><trkpt lat="31.28495262018505" lon="-4.087966579874502"><ele>756.0</ele><time>2026-04-30T11:54:42Z</time></trkpt><trkpt lat="31.284956540615607" lon="-4.0878371702538825"><ele>756.0</ele><time>2026-04-30T11:54:43Z</time></trkpt><trkpt lat="31.284959221269705" lon="-4.0876970542472"><ele>756.0</ele><time>2026-04-30T11:54:44Z</time></trkpt><trkpt lat="31.284966042582308" lon="-4.087552770383066"><ele>756.0</ele><time>2026-04-30T11:54:45Z</time></trkpt><trkpt lat="31.284972770426446" lon="-4.087414343221207"><ele>756.0</ele><time>2026-04-30T11:54:46Z</time></trkpt><trkpt lat="31.284980643758725" lon="-4.087283943906578"><ele>756.0</ele><time>2026-04-30T11:54:47Z</time></trkpt><trkpt lat="31.284992684297727" lon="-4.087148841355927"><ele>756.0</ele><time>2026-04-30T11:54:48Z</time></trkpt><trkpt lat="31.285003331895208" lon="-4.087016965171677"><ele>756.0</ele><time>2026-04-30T11:54:49Z</time></trkpt><trkpt lat="31.28501329246304" lon="-4.086892219018837"><ele>756.0</ele><time>2026-04-30T11:54:50Z</time></trkpt><trkpt lat="31.28503384612691" lon="-4.086761432121605"><ele>756.0</ele><time>2026-04-30T11:54:51Z</time></trkpt><trkpt lat="31.28505656719677" lon="-4.086650089018269"><ele>756.0</ele><time>2026-04-30T11:54:52Z</time></trkpt><trkpt lat="31.28508846842317" lon="-4.086531201333867"><ele>756.0</ele><time>2026-04-30T11:54:53Z</time></trkpt><trkpt lat="31.2851193041403" lon="-4.086426230469834"><ele>756.5</ele><time>2026-04-30T11:54:54Z</time></trkpt><trkpt lat="31.28514993919398" lon="-4.086333593470714"><ele>757.0</ele><time>2026-04-30T11:54:55Z</time></trkpt><trkpt lat="31.285179623486552" lon="-4.086249216256821"><ele>757.5</ele><time>2026-04-30T11:54:56Z</time></trkpt><trkpt lat="31.28520407028665" lon="-4.086166775407923"><ele>758.0</ele><time>2026-04-30T11:54:57Z</time></trkpt><trkpt lat="31.285217973485697" lon="-4.086090558932651"><ele>758.5</ele><time>2026-04-30T11:54:58Z</time></trkpt><trkpt lat="31.285221398874192" lon="-4.085961298028335"><ele>759.0</ele><time>2026-04-30T11:55:00Z</time></trkpt><trkpt lat="31.285223302943034" lon="-4.085871429787184"><ele>759.0</ele><time>2026-04-30T11:55:02Z</time></trkpt><trkpt lat="31.285189779894626" lon="-4.0857805512051355"><ele>759.0</ele><time>2026-04-30T11:55:26Z</time></trkpt><trkpt lat="31.285128650983744" lon="-4.08564242895211"><ele>759.0</ele><time>2026-04-30T11:55:28Z</time></trkpt><trkpt lat="31.285078146461384" lon="-4.085557884085521"><ele>759.0</ele><time>2026-04-30T11:55:29Z</time></trkpt><trkpt lat="31.28501295867273" lon="-4.085461636664294"><ele>759.0</ele><time>2026-04-30T11:55:30Z</time></trkpt><trkpt lat="31.28493468355613" lon="-4.085366487757217"><ele>758.75</ele><time>2026-04-30T11:55:31Z</time></trkpt><trkpt lat="31.284845920070367" lon="-4.08525363043654"><ele>758.5</ele><time>2026-04-30T11:55:32Z</time></trkpt><trkpt lat="31.284750811028637" lon="-4.085133698271201"><ele>758.25</ele><time>2026-04-30T11:55:33Z</time></trkpt><trkpt lat="31.28465191887361" lon="-4.085014719510458"><ele>758.0</ele><time>2026-04-30T11:55:34Z</time></trkpt><trkpt lat="31.284637903201403" lon="-4.084861584960413"><ele>758.0</ele><time>2026-04-30T11:55:35Z</time></trkpt><trkpt lat="31.284549128409488" lon="-4.084715128647002"><ele>758.0</ele><time>2026-04-30T11:55:36Z</time></trkpt><trkpt lat="31.28446056829826" lon="-4.084566025886907"><ele>758.0</ele><time>2026-04-30T11:55:37Z</time></trkpt><trkpt lat="31.284366639922126" lon="-4.084410786252622"><ele>758.0</ele><time>2026-04-30T11:55:38Z</time></trkpt><trkpt lat="31.284270927699083" lon="-4.084251463783306"><ele>758.0</ele><time>2026-04-30T11:55:39Z</time></trkpt><trkpt lat="31.284174590575358" lon="-4.0841079242323355"><ele>758.0</ele><time>2026-04-30T11:55:40Z</time></trkpt><trkpt lat="31.28407699970241" lon="-4.0839592888994485"><ele>757.6666666666666</ele><time>2026-04-30T11:55:41Z</time></trkpt><trkpt lat="31.283981688902067" lon="-4.083809751408421"><ele>757.3333333333334</ele><time>2026-04-30T11:55:42Z</time></trkpt><trkpt lat="31.283892415770385" lon="-4.083658124587419"><ele>757.0</ele><time>2026-04-30T11:55:43Z</time></trkpt><trkpt lat="31.283800499190086" lon="-4.083508582151236"><ele>757.6666666666667</ele><time>2026-04-30T11:55:44Z</time></trkpt><trkpt lat="31.28370388362001" lon="-4.0833577154918785"><ele>758.3333333333334</ele><time>2026-04-30T11:55:45Z</time></trkpt><trkpt lat="31.28361144593111" lon="-4.083209023456119"><ele>759.0</ele><time>2026-04-30T11:55:46Z</time></trkpt><trkpt lat="31.283517770337394" lon="-4.083060079763197"><ele>759.0</ele><time>2026-04-30T11:55:47Z</time></trkpt><trkpt lat="31.283425998661677" lon="-4.082907910648128"><ele>759.0</ele><time>2026-04-30T11:55:48Z</time></trkpt><trkpt lat="31.28332898376004" lon="-4.082757829134447"><ele>759.0</ele><time>2026-04-30T11:55:49Z</time></trkpt><trkpt lat="31.2832383222677" lon="-4.082616324876088"><ele>759.0</ele><time>2026-04-30T11:55:50Z</time></trkpt><trkpt lat="31.28314088372555" lon="-4.082473447170785"><ele>759.0</ele><time>2026-04-30T11:55:51Z</time></trkpt><trkpt lat="31.28305159901629" lon="-4.0823306219094135"><ele>759.0</ele><time>2026-04-30T11:55:52Z</time></trkpt><trkpt lat="31.282955539613745" lon="-4.082176488839912"><ele>759.6666666666666</ele><time>2026-04-30T11:55:53Z</time></trkpt><trkpt lat="31.282856848929335" lon="-4.08202768020824"><ele>760.3333333333333</ele><time>2026-04-30T11:55:54Z</time></trkpt><trkpt lat="31.282760543815805" lon="-4.081878005839323"><ele>761.0</ele><time>2026-04-30T11:55:55Z</time></trkpt><trkpt lat="31.282668430598044" lon="-4.081726800674487"><ele>760.3333333333333</ele><time>2026-04-30T11:55:56Z</time></trkpt><trkpt lat="31.282584337031874" lon="-4.081562764205881"><ele>759.6666666666666</ele><time>2026-04-30T11:55:57Z</time></trkpt><trkpt lat="31.282493086822367" lon="-4.08139997206997"><ele>759.0</ele><time>2026-04-30T11:55:58Z</time></trkpt><trkpt lat="31.282402322035374" lon="-4.081232354987643"><ele>759.0</ele><time>2026-04-30T11:55:59Z</time></trkpt><trkpt lat="31.282309980739768" lon="-4.08106508162119"><ele>759.0</ele><time>2026-04-30T11:56:00Z</time></trkpt><trkpt lat="31.282210919075606" lon="-4.080897467003816"><ele>759.0</ele><time>2026-04-30T11:56:01Z</time></trkpt><trkpt lat="31.282113271681816" lon="-4.080728841795211"><ele>759.0</ele><time>2026-04-30T11:56:02Z</time></trkpt><trkpt lat="31.28202177014602" lon="-4.080560305711892"><ele>759.0</ele><time>2026-04-30T11:56:03Z</time></trkpt><trkpt lat="31.281928968052625" lon="-4.080389978678618"><ele>759.0</ele><time>2026-04-30T11:56:04Z</time></trkpt><trkpt lat="31.281838122631036" lon="-4.080219647408757"><ele>759.0</ele><time>2026-04-30T11:56:05Z</time></trkpt><trkpt lat="31.28174568742676" lon="-4.08004665529497"><ele>759.0</ele><time>2026-04-30T11:56:06Z</time></trkpt><trkpt lat="31.281652433832793" lon="-4.079873847597931"><ele>759.0</ele><time>2026-04-30T11:56:07Z</time></trkpt><trkpt lat="31.281559916133613" lon="-4.079700030897065"><ele>759.0</ele><time>2026-04-30T11:56:08Z</time></trkpt><trkpt lat="31.281466713294638" lon="-4.0795243569399355"><ele>759.0</ele><time>2026-04-30T11:56:09Z</time></trkpt><trkpt lat="31.281371468967954" lon="-4.079347090868504"><ele>759.0</ele><time>2026-04-30T11:56:10Z</time></trkpt><trkpt lat="31.281280936773946" lon="-4.079168708259281"><ele>759.0</ele><time>2026-04-30T11:56:11Z</time></trkpt><trkpt lat="31.281189928066926" lon="-4.078986388120326"><ele>759.0</ele><time>2026-04-30T11:56:12Z</time></trkpt><trkpt lat="31.281098840735336" lon="-4.07880472854935"><ele>759.0</ele><time>2026-04-30T11:56:13Z</time></trkpt><trkpt lat="31.281006588103697" lon="-4.078621141811998"><ele>759.0</ele><time>2026-04-30T11:56:14Z</time></trkpt><trkpt lat="31.280913418367884" lon="-4.078436595815279"><ele>759.0</ele><time>2026-04-30T11:56:15Z</time></trkpt><trkpt lat="31.280819541382836" lon="-4.078254565400201"><ele>759.0</ele><time>2026-04-30T11:56:16Z</time></trkpt><trkpt lat="31.28072382534187" lon="-4.078071002051688"><ele>760.0</ele><time>2026-04-30T11:56:17Z</time></trkpt><trkpt lat="31.28062512633665" lon="-4.077886636138138"><ele>761.0</ele><time>2026-04-30T11:56:18Z</time></trkpt><trkpt lat="31.280529431731082" lon="-4.0777037181714055"><ele>762.0</ele><time>2026-04-30T11:56:19Z</time></trkpt><trkpt lat="31.280436547676544" lon="-4.077521214426218"><ele>761.0</ele><time>2026-04-30T11:56:20Z</time></trkpt><trkpt lat="31.280337379953448" lon="-4.07733917918465"><ele>760.0</ele><time>2026-04-30T11:56:21Z</time></trkpt><trkpt lat="31.28024277955243" lon="-4.077160369942497"><ele>759.0</ele><time>2026-04-30T11:56:22Z</time></trkpt><trkpt lat="31.280149330612016" lon="-4.076977477707318"><ele>759.0</ele><time>2026-04-30T11:56:23Z</time></trkpt><trkpt lat="31.280055500671406" lon="-4.076798737173718"><ele>759.0</ele><time>2026-04-30T11:56:24Z</time></trkpt><trkpt lat="31.279960606709775" lon="-4.076618601119157"><ele>759.0</ele><time>2026-04-30T11:56:25Z</time></trkpt><trkpt lat="31.279869628053298" lon="-4.076437870998361"><ele>759.0</ele><time>2026-04-30T11:56:26Z</time></trkpt><trkpt lat="31.279773436561218" lon="-4.07625925258212"><ele>759.0</ele><time>2026-04-30T11:56:27Z</time></trkpt><trkpt lat="31.27967827410244" lon="-4.076078846444635"><ele>759.0</ele><time>2026-04-30T11:56:28Z</time></trkpt><trkpt lat="31.27958369659644" lon="-4.075896591537223"><ele>759.3333333333334</ele><time>2026-04-30T11:56:29Z</time></trkpt><trkpt lat="31.279492234650302" lon="-4.0757181602224275"><ele>759.6666666666667</ele><time>2026-04-30T11:56:30Z</time></trkpt><trkpt lat="31.279395688483707" lon="-4.075536629643282"><ele>760.0</ele><time>2026-04-30T11:56:31Z</time></trkpt><trkpt lat="31.27929603505047" lon="-4.075358015634616"><ele>760.0</ele><time>2026-04-30T11:56:32Z</time></trkpt><trkpt lat="31.279192138732487" lon="-4.075185977703584"><ele>760.0</ele><time>2026-04-30T11:56:33Z</time></trkpt><trkpt lat="31.279084861718072" lon="-4.075013015761963"><ele>760.0</ele><time>2026-04-30T11:56:34Z</time></trkpt><trkpt lat="31.278967081548384" lon="-4.074847986720257"><ele>760.6666666666667</ele><time>2026-04-30T11:56:35Z</time></trkpt><trkpt lat="31.2788431205325" lon="-4.074695831675849"><ele>761.3333333333334</ele><time>2026-04-30T11:56:36Z</time></trkpt><trkpt lat="31.27871131990299" lon="-4.0745475698262785"><ele>762.0</ele><time>2026-04-30T11:56:37Z</time></trkpt><trkpt lat="31.27858414286189" lon="-4.074398146618252"><ele>762.0</ele><time>2026-04-30T11:56:38Z</time></trkpt><trkpt lat="31.278460397723826" lon="-4.074250206073175"><ele>762.0</ele><time>2026-04-30T11:56:39Z</time></trkpt><trkpt lat="31.278335022410655" lon="-4.074105806510369"><ele>762.0</ele><time>2026-04-30T11:56:40Z</time></trkpt><trkpt lat="31.278207657954308" lon="-4.073964045026564"><ele>762.0</ele><time>2026-04-30T11:56:41Z</time></trkpt><trkpt lat="31.278077042196315" lon="-4.073821137163603"><ele>762.0</ele><time>2026-04-30T11:56:42Z</time></trkpt><trkpt lat="31.277949988894093" lon="-4.0736711991249495"><ele>762.0</ele><time>2026-04-30T11:56:43Z</time></trkpt><trkpt lat="31.277826433735758" lon="-4.073516248015108"><ele>762.0</ele><time>2026-04-30T11:56:44Z</time></trkpt><trkpt lat="31.277709559702036" lon="-4.073350602075835"><ele>762.0</ele><time>2026-04-30T11:56:45Z</time></trkpt><trkpt lat="31.277601210878096" lon="-4.0731810475529295"><ele>762.0</ele><time>2026-04-30T11:56:46Z</time></trkpt><trkpt lat="31.27748648352887" lon="-4.073008375185723"><ele>761.6666666666666</ele><time>2026-04-30T11:56:47Z</time></trkpt><trkpt lat="31.277374658204533" lon="-4.072839210206737"><ele>761.3333333333333</ele><time>2026-04-30T11:56:48Z</time></trkpt><trkpt lat="31.277263626071598" lon="-4.07267059506423"><ele>761.0</ele><time>2026-04-30T11:56:49Z</time></trkpt><trkpt lat="31.277152160999297" lon="-4.072501345750573"><ele>760.0</ele><time>2026-04-30T11:56:50Z</time></trkpt><trkpt lat="31.277041465470138" lon="-4.072331038933555"><ele>759.0</ele><time>2026-04-30T11:56:51Z</time></trkpt><trkpt lat="31.27693336628408" lon="-4.072160188767812"><ele>758.0</ele><time>2026-04-30T11:56:52Z</time></trkpt><trkpt lat="31.276822857460154" lon="-4.071993145450369"><ele>758.0</ele><time>2026-04-30T11:56:53Z</time></trkpt><trkpt lat="31.276706923485552" lon="-4.07183137342116"><ele>758.0</ele><time>2026-04-30T11:56:54Z</time></trkpt><trkpt lat="31.276593989482084" lon="-4.071674045363808"><ele>758.0</ele><time>2026-04-30T11:56:55Z</time></trkpt><trkpt lat="31.27647944793067" lon="-4.071511076240561"><ele>759.3333333333333</ele><time>2026-04-30T11:56:56Z</time></trkpt><trkpt lat="31.276359136087155" lon="-4.071352433246551"><ele>760.6666666666666</ele><time>2026-04-30T11:56:57Z</time></trkpt><trkpt lat="31.276233574805996" lon="-4.071202736628915"><ele>762.0</ele><time>2026-04-30T11:56:58Z</time></trkpt><trkpt lat="31.276105595513943" lon="-4.071053548776233"><ele>762.0</ele><time>2026-04-30T11:56:59Z</time></trkpt><trkpt lat="31.275977526485455" lon="-4.07090206612122"><ele>762.0</ele><time>2026-04-30T11:57:00Z</time></trkpt><trkpt lat="31.275850179407136" lon="-4.070746451342545"><ele>762.0</ele><time>2026-04-30T11:57:01Z</time></trkpt><trkpt lat="31.275719818750638" lon="-4.0705889721174175"><ele>761.3333333333334</ele><time>2026-04-30T11:57:02Z</time></trkpt><trkpt lat="31.275588850861478" lon="-4.070426644571036"><ele>760.6666666666667</ele><time>2026-04-30T11:57:03Z</time></trkpt><trkpt lat="31.27546124179149" lon="-4.070253223958786"><ele>760.0</ele><time>2026-04-30T11:57:04Z</time></trkpt><trkpt lat="31.27533303585066" lon="-4.0700739965945445"><ele>760.3333333333334</ele><time>2026-04-30T11:57:05Z</time></trkpt><trkpt lat="31.275203764394846" lon="-4.069893311342973"><ele>760.6666666666666</ele><time>2026-04-30T11:57:06Z</time></trkpt><trkpt lat="31.27507674280059" lon="-4.069711170237912"><ele>761.0</ele><time>2026-04-30T11:57:07Z</time></trkpt><trkpt lat="31.274952497448393" lon="-4.069527810361668"><ele>761.0</ele><time>2026-04-30T11:57:08Z</time></trkpt><trkpt lat="31.27482764113508" lon="-4.069343725639292"><ele>761.0</ele><time>2026-04-30T11:57:09Z</time></trkpt><trkpt lat="31.27470498788444" lon="-4.069160710697584"><ele>761.0</ele><time>2026-04-30T11:57:10Z</time></trkpt><trkpt lat="31.274581351918865" lon="-4.0689763481300165"><ele>759.6666666666666</ele><time>2026-04-30T11:57:11Z</time></trkpt><trkpt lat="31.274459911599315" lon="-4.068798019994214"><ele>758.3333333333334</ele><time>2026-04-30T11:57:12Z</time></trkpt><trkpt lat="31.274340330015665" lon="-4.068623146672713"><ele>757.0</ele><time>2026-04-30T11:57:13Z</time></trkpt><trkpt lat="31.274222874959108" lon="-4.068447932638657"><ele>757.6666666666667</ele><time>2026-04-30T11:57:14Z</time></trkpt><trkpt lat="31.27410722152101" lon="-4.068272446984486"><ele>758.3333333333334</ele><time>2026-04-30T11:57:15Z</time></trkpt><trkpt lat="31.273989734870423" lon="-4.0680975364457"><ele>759.0</ele><time>2026-04-30T11:57:16Z</time></trkpt><trkpt lat="31.27387274838046" lon="-4.067929663808611"><ele>759.0</ele><time>2026-04-30T11:57:17Z</time></trkpt><trkpt lat="31.27375436631724" lon="-4.067759130626783"><ele>759.0</ele><time>2026-04-30T11:57:18Z</time></trkpt><trkpt lat="31.27363625912226" lon="-4.06759177421772"><ele>759.0</ele><time>2026-04-30T11:57:19Z</time></trkpt><trkpt lat="31.27351826496977" lon="-4.067424757720268"><ele>759.0</ele><time>2026-04-30T11:57:20Z</time></trkpt><trkpt lat="31.27340072816557" lon="-4.067255369125063"><ele>759.0</ele><time>2026-04-30T11:57:21Z</time></trkpt><trkpt lat="31.273285997017155" lon="-4.067079699662753"><ele>759.0</ele><time>2026-04-30T11:57:22Z</time></trkpt><trkpt lat="31.273169802249512" lon="-4.066903620135584"><ele>759.0</ele><time>2026-04-30T11:57:23Z</time></trkpt><trkpt lat="31.27305053659464" lon="-4.066730925952212"><ele>759.0</ele><time>2026-04-30T11:57:24Z</time></trkpt><trkpt lat="31.27292891886433" lon="-4.0665560647548284"><ele>759.0</ele><time>2026-04-30T11:57:25Z</time></trkpt><trkpt lat="31.272806756365217" lon="-4.066376898760623"><ele>759.0</ele><time>2026-04-30T11:57:26Z</time></trkpt><trkpt lat="31.27268338792468" lon="-4.06619761929062"><ele>759.0</ele><time>2026-04-30T11:57:27Z</time></trkpt><trkpt lat="31.27255901184294" lon="-4.066015413781191"><ele>759.0</ele><time>2026-04-30T11:57:28Z</time></trkpt><trkpt lat="31.272432609357555" lon="-4.0658349946572425"><ele>759.6666666666666</ele><time>2026-04-30T11:57:29Z</time></trkpt><trkpt lat="31.27230700387356" lon="-4.065654593576691"><ele>760.3333333333333</ele><time>2026-04-30T11:57:30Z</time></trkpt><trkpt lat="31.2721824620551" lon="-4.065475145537482"><ele>761.0</ele><time>2026-04-30T11:57:31Z</time></trkpt><trkpt lat="31.272061665134245" lon="-4.065294827189237"><ele>761.0</ele><time>2026-04-30T11:57:32Z</time></trkpt><trkpt lat="31.27194155100258" lon="-4.065111468598458"><ele>761.0</ele><time>2026-04-30T11:57:33Z</time></trkpt><trkpt lat="31.271821242250496" lon="-4.064930016526336"><ele>761.0</ele><time>2026-04-30T11:57:34Z</time></trkpt><trkpt lat="31.271699704217134" lon="-4.064751064513972"><ele>761.0</ele><time>2026-04-30T11:57:35Z</time></trkpt><trkpt lat="31.271577729333004" lon="-4.064572140966872"><ele>761.0</ele><time>2026-04-30T11:57:36Z</time></trkpt><trkpt lat="31.271453986643014" lon="-4.064393038802786"><ele>761.0</ele><time>2026-04-30T11:57:37Z</time></trkpt><trkpt lat="31.271329138511465" lon="-4.064214291711418"><ele>760.6666666666666</ele><time>2026-04-30T11:57:38Z</time></trkpt><trkpt lat="31.271208300960005" lon="-4.0640323381959975"><ele>760.3333333333334</ele><time>2026-04-30T11:57:39Z</time></trkpt><trkpt lat="31.27108956662154" lon="-4.063850588251965"><ele>760.0</ele><time>2026-04-30T11:57:40Z</time></trkpt><trkpt lat="31.270968534253875" lon="-4.063672128385684"><ele>760.0</ele><time>2026-04-30T11:57:41Z</time></trkpt><trkpt lat="31.270847240301368" lon="-4.063496145158151"><ele>760.0</ele><time>2026-04-30T11:57:42Z</time></trkpt><trkpt lat="31.270724971538954" lon="-4.063316878429869"><ele>760.0</ele><time>2026-04-30T11:57:43Z</time></trkpt><trkpt lat="31.2706028919188" lon="-4.063140037295228"><ele>759.6666666666667</ele><time>2026-04-30T11:57:44Z</time></trkpt><trkpt lat="31.270480130135457" lon="-4.062962386633824"><ele>759.3333333333334</ele><time>2026-04-30T11:57:45Z</time></trkpt><trkpt lat="31.270357450580995" lon="-4.062786376084813"><ele>759.0</ele><time>2026-04-30T11:57:46Z</time></trkpt><trkpt lat="31.270235036238333" lon="-4.062610240916632"><ele>759.6666666666666</ele><time>2026-04-30T11:57:47Z</time></trkpt><trkpt lat="31.270112070066848" lon="-4.062435020226722"><ele>760.3333333333333</ele><time>2026-04-30T11:57:48Z</time></trkpt><trkpt lat="31.269990560119115" lon="-4.06225689300872"><ele>761.0</ele><time>2026-04-30T11:57:49Z</time></trkpt><trkpt lat="31.269871610176" lon="-4.062079134710858"><ele>761.0</ele><time>2026-04-30T11:57:50Z</time></trkpt><trkpt lat="31.269755913195752" lon="-4.061900721124639"><ele>761.0</ele><time>2026-04-30T11:57:51Z</time></trkpt><trkpt lat="31.26963845874608" lon="-4.061722693537136"><ele>761.0</ele><time>2026-04-30T11:57:52Z</time></trkpt><trkpt lat="31.269519128606728" lon="-4.061546234918044"><ele>761.0</ele><time>2026-04-30T11:57:53Z</time></trkpt><trkpt lat="31.26940137333829" lon="-4.061364808386587"><ele>761.0</ele><time>2026-04-30T11:57:54Z</time></trkpt><trkpt lat="31.269284706767245" lon="-4.061188430998005"><ele>761.0</ele><time>2026-04-30T11:57:55Z</time></trkpt><trkpt lat="31.269167696237258" lon="-4.061013103676709"><ele>761.0</ele><time>2026-04-30T11:57:56Z</time></trkpt><trkpt lat="31.269049331927587" lon="-4.060835525718552"><ele>761.0</ele><time>2026-04-30T11:57:57Z</time></trkpt><trkpt lat="31.268929602861675" lon="-4.060658839923884"><ele>761.0</ele><time>2026-04-30T11:57:58Z</time></trkpt><trkpt lat="31.268811409976077" lon="-4.060487077615288"><ele>760.6666666666666</ele><time>2026-04-30T11:57:59Z</time></trkpt><trkpt lat="31.268692386239444" lon="-4.060315963947525"><ele>760.3333333333334</ele><time>2026-04-30T11:58:00Z</time></trkpt><trkpt lat="31.268574717002053" lon="-4.060144292324106"><ele>760.0</ele><time>2026-04-30T11:58:01Z</time></trkpt><trkpt lat="31.268453238542165" lon="-4.0599736779336615"><ele>760.6666666666667</ele><time>2026-04-30T11:58:02Z</time></trkpt><trkpt lat="31.268332605182035" lon="-4.059802905338906"><ele>761.3333333333334</ele><time>2026-04-30T11:58:03Z</time></trkpt><trkpt lat="31.26821532511546" lon="-4.059636397680373"><ele>762.0</ele><time>2026-04-30T11:58:04Z</time></trkpt><trkpt lat="31.26809459280089" lon="-4.059466661786954"><ele>762.0</ele><time>2026-04-30T11:58:05Z</time></trkpt><trkpt lat="31.267972076856957" lon="-4.05930256390062"><ele>762.0</ele><time>2026-04-30T11:58:06Z</time></trkpt><trkpt lat="31.267846975213434" lon="-4.0591397138062515"><ele>762.0</ele><time>2026-04-30T11:58:07Z</time></trkpt><trkpt lat="31.267717742940622" lon="-4.058984592932894"><ele>762.6666666666666</ele><time>2026-04-30T11:58:08Z</time></trkpt><trkpt lat="31.26758805311064" lon="-4.0588300443204455"><ele>763.3333333333333</ele><time>2026-04-30T11:58:09Z</time></trkpt><trkpt lat="31.267457407889616" lon="-4.05866784535574"><ele>764.0</ele><time>2026-04-30T11:58:10Z</time></trkpt><trkpt lat="31.267316913707663" lon="-4.058518016832459"><ele>763.0</ele><time>2026-04-30T11:58:11Z</time></trkpt><trkpt lat="31.26717048373265" lon="-4.05837540721732"><ele>762.0</ele><time>2026-04-30T11:58:12Z</time></trkpt><trkpt lat="31.267028452058355" lon="-4.058231738556075"><ele>761.0</ele><time>2026-04-30T11:58:13Z</time></trkpt><trkpt lat="31.266889287917557" lon="-4.058088493586421"><ele>761.0</ele><time>2026-04-30T11:58:14Z</time></trkpt><trkpt lat="31.266747224502247" lon="-4.057946427730137"><ele>761.0</ele><time>2026-04-30T11:58:15Z</time></trkpt><trkpt lat="31.26660613396545" lon="-4.0578016803243635"><ele>761.0</ele><time>2026-04-30T11:58:16Z</time></trkpt><trkpt lat="31.266465862891998" lon="-4.057655662603971"><ele>761.6666666666666</ele><time>2026-04-30T11:58:17Z</time></trkpt><trkpt lat="31.26632334492682" lon="-4.057509764728479"><ele>762.3333333333334</ele><time>2026-04-30T11:58:18Z</time></trkpt><trkpt lat="31.266179302425275" lon="-4.05736321595162"><ele>763.0</ele><time>2026-04-30T11:58:19Z</time></trkpt><trkpt lat="31.26603254800906" lon="-4.057213295751316"><ele>762.3333333333334</ele><time>2026-04-30T11:58:20Z</time></trkpt><trkpt lat="31.26588621478857" lon="-4.057061242480126"><ele>761.6666666666666</ele><time>2026-04-30T11:58:21Z</time></trkpt><trkpt lat="31.26573764035831" lon="-4.056907803052037"><ele>761.0</ele><time>2026-04-30T11:58:22Z</time></trkpt><trkpt lat="31.265590172514184" lon="-4.056752653874373"><ele>761.0</ele><time>2026-04-30T11:58:23Z</time></trkpt><trkpt lat="31.26544193508344" lon="-4.056595141457908"><ele>761.0</ele><time>2026-04-30T11:58:24Z</time></trkpt><trkpt lat="31.265291519573875" lon="-4.0564378216681325"><ele>761.0</ele><time>2026-04-30T11:58:25Z</time></trkpt><trkpt lat="31.265143911937724" lon="-4.056280309579859"><ele>761.0</ele><time>2026-04-30T11:58:26Z</time></trkpt><trkpt lat="31.264997835858416" lon="-4.056118614341781"><ele>761.0</ele><time>2026-04-30T11:58:27Z</time></trkpt><trkpt lat="31.264857030977815" lon="-4.055957061075893"><ele>761.0</ele><time>2026-04-30T11:58:28Z</time></trkpt><trkpt lat="31.264721168752654" lon="-4.055794826903221"><ele>761.6666666666666</ele><time>2026-04-30T11:58:29Z</time></trkpt><trkpt lat="31.26458219858573" lon="-4.055635408795813"><ele>762.3333333333334</ele><time>2026-04-30T11:58:30Z</time></trkpt><trkpt lat="31.264444367997438" lon="-4.055486231041161"><ele>763.0</ele><time>2026-04-30T11:58:31Z</time></trkpt><trkpt lat="31.264310159019214" lon="-4.055332633868709"><ele>763.0</ele><time>2026-04-30T11:58:32Z</time></trkpt><trkpt lat="31.26418226471829" lon="-4.055176595423222"><ele>763.0</ele><time>2026-04-30T11:58:33Z</time></trkpt><trkpt lat="31.26404666809868" lon="-4.055025335184037"><ele>763.0</ele><time>2026-04-30T11:58:34Z</time></trkpt><trkpt lat="31.263918326303816" lon="-4.054863466963033"><ele>763.3333333333334</ele><time>2026-04-30T11:58:35Z</time></trkpt><trkpt lat="31.26379291857943" lon="-4.0547048917874005"><ele>763.6666666666666</ele><time>2026-04-30T11:58:36Z</time></trkpt><trkpt lat="31.263664612579966" lon="-4.05454862513624"><ele>764.0</ele><time>2026-04-30T11:58:37Z</time></trkpt><trkpt lat="31.263541099353223" lon="-4.054389806723702"><ele>764.0</ele><time>2026-04-30T11:58:38Z</time></trkpt><trkpt lat="31.26341697138429" lon="-4.054232244267392"><ele>764.0</ele><time>2026-04-30T11:58:39Z</time></trkpt><trkpt lat="31.26328999878484" lon="-4.054075897456032"><ele>764.0</ele><time>2026-04-30T11:58:40Z</time></trkpt><trkpt lat="31.263165309339065" lon="-4.053917118418253"><ele>764.0</ele><time>2026-04-30T11:58:41Z</time></trkpt><trkpt lat="31.263045377986973" lon="-4.053754998433779"><ele>764.0</ele><time>2026-04-30T11:58:42Z</time></trkpt><trkpt lat="31.2629169061592" lon="-4.053592765571062"><ele>764.0</ele><time>2026-04-30T11:58:43Z</time></trkpt><trkpt lat="31.262791119225543" lon="-4.053429233135502"><ele>764.0</ele><time>2026-04-30T11:58:44Z</time></trkpt><trkpt lat="31.26266410306379" lon="-4.053266590332491"><ele>764.0</ele><time>2026-04-30T11:58:45Z</time></trkpt><trkpt lat="31.26252698081342" lon="-4.053104924330926"><ele>764.0</ele><time>2026-04-30T11:58:46Z</time></trkpt><trkpt lat="31.262393464163736" lon="-4.05294216405318"><ele>764.3333333333333</ele><time>2026-04-30T11:58:47Z</time></trkpt><trkpt lat="31.26226328343701" lon="-4.052770896660129"><ele>764.6666666666666</ele><time>2026-04-30T11:58:48Z</time></trkpt><trkpt lat="31.262130177916344" lon="-4.052596789297329"><ele>765.0</ele><time>2026-04-30T11:58:49Z</time></trkpt><trkpt lat="31.261992656526882" lon="-4.052426740416498"><ele>763.6666666666666</ele><time>2026-04-30T11:58:50Z</time></trkpt><trkpt lat="31.26186658517917" lon="-4.052257274998381"><ele>762.3333333333333</ele><time>2026-04-30T11:58:51Z</time></trkpt><trkpt lat="31.261740754937698" lon="-4.052087884796615"><ele>761.0</ele><time>2026-04-30T11:58:52Z</time></trkpt><trkpt lat="31.26161378400637" lon="-4.0519221504381955"><ele>761.0</ele><time>2026-04-30T11:58:53Z</time></trkpt><trkpt lat="31.26148294322327" lon="-4.051756159423219"><ele>761.0</ele><time>2026-04-30T11:58:54Z</time></trkpt><trkpt lat="31.261352381282215" lon="-4.051597870384909"><ele>761.0</ele><time>2026-04-30T11:58:55Z</time></trkpt><trkpt lat="31.2612318968089" lon="-4.051435303062498"><ele>764.0</ele><time>2026-04-30T11:58:56Z</time></trkpt><trkpt lat="31.261102343769217" lon="-4.05127669059518"><ele>767.0</ele><time>2026-04-30T11:58:57Z</time></trkpt><trkpt lat="31.260971602763565" lon="-4.051115283348156"><ele>770.0</ele><time>2026-04-30T11:58:58Z</time></trkpt><trkpt lat="31.260849818326218" lon="-4.050956082998039"><ele>770.0</ele><time>2026-04-30T11:58:59Z</time></trkpt><trkpt lat="31.260724177347402" lon="-4.050797246027205"><ele>770.0</ele><time>2026-04-30T11:59:00Z</time></trkpt><trkpt lat="31.26059804677381" lon="-4.050637559708792"><ele>770.0</ele><time>2026-04-30T11:59:01Z</time></trkpt><trkpt lat="31.26047752221178" lon="-4.050476236255571"><ele>770.6666666666667</ele><time>2026-04-30T11:59:02Z</time></trkpt><trkpt lat="31.260351118444884" lon="-4.050315529453547"><ele>771.3333333333333</ele><time>2026-04-30T11:59:03Z</time></trkpt><trkpt lat="31.260221696330895" lon="-4.0501546635894465"><ele>772.0</ele><time>2026-04-30T11:59:04Z</time></trkpt><trkpt lat="31.260096067800305" lon="-4.049998473722285"><ele>772.3333333333333</ele><time>2026-04-30T11:59:05Z</time></trkpt><trkpt lat="31.259971627004393" lon="-4.049834086631403"><ele>772.6666666666667</ele><time>2026-04-30T11:59:06Z</time></trkpt><trkpt lat="31.25983839330096" lon="-4.049670856853035"><ele>773.0</ele><time>2026-04-30T11:59:07Z</time></trkpt><trkpt lat="31.25971483483739" lon="-4.049498282203498"><ele>773.0</ele><time>2026-04-30T11:59:08Z</time></trkpt><trkpt lat="31.25960073276834" lon="-4.049324862920107"><ele>773.0</ele><time>2026-04-30T11:59:09Z</time></trkpt><trkpt lat="31.259478123339424" lon="-4.049146714591489"><ele>773.0</ele><time>2026-04-30T11:59:10Z</time></trkpt><trkpt lat="31.259356361986423" lon="-4.048965214995359"><ele>773.3333333333334</ele><time>2026-04-30T11:59:11Z</time></trkpt><trkpt lat="31.25925049918688" lon="-4.048786293419795"><ele>773.6666666666667</ele><time>2026-04-30T11:59:12Z</time></trkpt><trkpt lat="31.25914812171143" lon="-4.048602204170446"><ele>774.0</ele><time>2026-04-30T11:59:13Z</time></trkpt><trkpt lat="31.2590592849687" lon="-4.048420609938743"><ele>774.6666666666667</ele><time>2026-04-30T11:59:14Z</time></trkpt><trkpt lat="31.25897202996786" lon="-4.048249343220197"><ele>775.3333333333334</ele><time>2026-04-30T11:59:15Z</time></trkpt><trkpt lat="31.258891156733295" lon="-4.048078454251997"><ele>776.0</ele><time>2026-04-30T11:59:16Z</time></trkpt><trkpt lat="31.258808297118076" lon="-4.04791363477256"><ele>775.6666666666667</ele><time>2026-04-30T11:59:17Z</time></trkpt><trkpt lat="31.258731193615485" lon="-4.047765065718921"><ele>775.3333333333333</ele><time>2026-04-30T11:59:18Z</time></trkpt><trkpt lat="31.258657478539867" lon="-4.047610245846098"><ele>775.0</ele><time>2026-04-30T11:59:19Z</time></trkpt><trkpt lat="31.258581791837955" lon="-4.047446377776151"><ele>775.0</ele><time>2026-04-30T11:59:20Z</time></trkpt><trkpt lat="31.25850922778629" lon="-4.047282656122325"><ele>775.0</ele><time>2026-04-30T11:59:21Z</time></trkpt><trkpt lat="31.2584292354808" lon="-4.047112702505688"><ele>775.0</ele><time>2026-04-30T11:59:22Z</time></trkpt><trkpt lat="31.25835010388719" lon="-4.046945913825481"><ele>775.0</ele><time>2026-04-30T11:59:23Z</time></trkpt><trkpt lat="31.258269268659884" lon="-4.046774453800038"><ele>775.0</ele><time>2026-04-30T11:59:24Z</time></trkpt><trkpt lat="31.258185142147628" lon="-4.046617354824689"><ele>775.0</ele><time>2026-04-30T11:59:25Z</time></trkpt><trkpt lat="31.25809679181972" lon="-4.046465752608724"><ele>773.3333333333333</ele><time>2026-04-30T11:59:26Z</time></trkpt><trkpt lat="31.25800679594618" lon="-4.046324247905664"><ele>771.6666666666667</ele><time>2026-04-30T11:59:27Z</time></trkpt><trkpt lat="31.25791238398519" lon="-4.046182494786347"><ele>770.0</ele><time>2026-04-30T11:59:28Z</time></trkpt><trkpt lat="31.257807640411116" lon="-4.046037597791589"><ele>770.0</ele><time>2026-04-30T11:59:29Z</time></trkpt><trkpt lat="31.25769411242736" lon="-4.045907495484272"><ele>770.0</ele><time>2026-04-30T11:59:30Z</time></trkpt><trkpt lat="31.257586124697234" lon="-4.045782073486041"><ele>770.0</ele><time>2026-04-30T11:59:31Z</time></trkpt><trkpt lat="31.257465642284366" lon="-4.04566253982679"><ele>769.6666666666667</ele><time>2026-04-30T11:59:32Z</time></trkpt><trkpt lat="31.257339058149586" lon="-4.045551057151507"><ele>769.3333333333333</ele><time>2026-04-30T11:59:33Z</time></trkpt><trkpt lat="31.2572037127483" lon="-4.0454425679523975"><ele>769.0</ele><time>2026-04-30T11:59:34Z</time></trkpt><trkpt lat="31.257065093608812" lon="-4.045337022727167"><ele>769.0</ele><time>2026-04-30T11:59:35Z</time></trkpt><trkpt lat="31.25691972019788" lon="-4.045245040576058"><ele>769.0</ele><time>2026-04-30T11:59:36Z</time></trkpt><trkpt lat="31.25677511979272" lon="-4.045160011495237"><ele>769.0</ele><time>2026-04-30T11:59:37Z</time></trkpt><trkpt lat="31.25662386219825" lon="-4.045082537618575"><ele>769.0</ele><time>2026-04-30T11:59:38Z</time></trkpt><trkpt lat="31.256468377401557" lon="-4.045021213668062"><ele>769.0</ele><time>2026-04-30T11:59:39Z</time></trkpt><trkpt lat="31.256319008831486" lon="-4.044957081997408"><ele>769.0</ele><time>2026-04-30T11:59:40Z</time></trkpt><trkpt lat="31.256170773863456" lon="-4.0448911279317015"><ele>769.3333333333333</ele><time>2026-04-30T11:59:41Z</time></trkpt><trkpt lat="31.2560214122422" lon="-4.044817543238432"><ele>769.6666666666667</ele><time>2026-04-30T11:59:42Z</time></trkpt><trkpt lat="31.255871994792056" lon="-4.0447358722775615"><ele>770.0</ele><time>2026-04-30T11:59:43Z</time></trkpt><trkpt lat="31.255731460904595" lon="-4.044641343200267"><ele>770.6666666666667</ele><time>2026-04-30T11:59:44Z</time></trkpt><trkpt lat="31.255590532904527" lon="-4.044536807430981"><ele>771.3333333333333</ele><time>2026-04-30T11:59:45Z</time></trkpt><trkpt lat="31.255457052816052" lon="-4.0444298528422555"><ele>772.0</ele><time>2026-04-30T11:59:46Z</time></trkpt><trkpt lat="31.255335264109554" lon="-4.044303756596014"><ele>772.0</ele><time>2026-04-30T11:59:47Z</time></trkpt><trkpt lat="31.255222243793067" lon="-4.044163875596839"><ele>772.0</ele><time>2026-04-30T11:59:48Z</time></trkpt><trkpt lat="31.255118595510492" lon="-4.0440143554157375"><ele>772.0</ele><time>2026-04-30T11:59:49Z</time></trkpt><trkpt lat="31.255019439412866" lon="-4.043863913398813"><ele>773.0</ele><time>2026-04-30T11:59:50Z</time></trkpt><trkpt lat="31.254924249932014" lon="-4.043706945471222"><ele>774.0</ele><time>2026-04-30T11:59:51Z</time></trkpt><trkpt lat="31.254839271243156" lon="-4.043540206074511"><ele>775.0</ele><time>2026-04-30T11:59:52Z</time></trkpt><trkpt lat="31.254761817905266" lon="-4.0433730910756776"><ele>775.0</ele><time>2026-04-30T11:59:53Z</time></trkpt><trkpt lat="31.254689067115315" lon="-4.043203075887026"><ele>775.0</ele><time>2026-04-30T11:59:54Z</time></trkpt><trkpt lat="31.254619110530648" lon="-4.043029706200366"><ele>775.0</ele><time>2026-04-30T11:59:55Z</time></trkpt><trkpt lat="31.254551934838886" lon="-4.042848911526959"><ele>775.0</ele><time>2026-04-30T11:59:56Z</time></trkpt><trkpt lat="31.254470833440845" lon="-4.042676991764618"><ele>775.0</ele><time>2026-04-30T11:59:57Z</time></trkpt><trkpt lat="31.254402571208548" lon="-4.042503638367118"><ele>775.0</ele><time>2026-04-30T11:59:58Z</time></trkpt><trkpt lat="31.254344386073537" lon="-4.042323645811166"><ele>774.3333333333333</ele><time>2026-04-30T11:59:59Z</time></trkpt><trkpt lat="31.25428125475382" lon="-4.042137877020323"><ele>773.6666666666667</ele><time>2026-04-30T12:00:00Z</time></trkpt><trkpt lat="31.254214787532565" lon="-4.041961425529139"><ele>773.0</ele><time>2026-04-30T12:00:00.999Z</time></trkpt><trkpt lat="31.254142649523946" lon="-4.041783626113098"><ele>773.0</ele><time>2026-04-30T12:00:01.999Z</time></trkpt><trkpt lat="31.254068464075765" lon="-4.041611675291803"><ele>773.0</ele><time>2026-04-30T12:00:02.999Z</time></trkpt><trkpt lat="31.253989207433097" lon="-4.041437774615188"><ele>773.0</ele><time>2026-04-30T12:00:03.999Z</time></trkpt><trkpt lat="31.253915550592893" lon="-4.041267190375111"><ele>774.0</ele><time>2026-04-30T12:00:04.999Z</time></trkpt><trkpt lat="31.25383311499844" lon="-4.041099928844712"><ele>775.0</ele><time>2026-04-30T12:00:05.999Z</time></trkpt><trkpt lat="31.253755558827578" lon="-4.040941584225372"><ele>776.0</ele><time>2026-04-30T12:00:06.999Z</time></trkpt><trkpt lat="31.253654452429174" lon="-4.040795932804116"><ele>776.3333333333334</ele><time>2026-04-30T12:00:07.999Z</time></trkpt><trkpt lat="31.25355975324025" lon="-4.040640446068124"><ele>776.6666666666667</ele><time>2026-04-30T12:00:08.999Z</time></trkpt><trkpt lat="31.253458976608183" lon="-4.0404917538968625"><ele>777.0</ele><time>2026-04-30T12:00:09.999Z</time></trkpt><trkpt lat="31.253354861212582" lon="-4.040345755238663"><ele>777.0</ele><time>2026-04-30T12:00:10.999Z</time></trkpt><trkpt lat="31.253247646914613" lon="-4.04019996686965"><ele>777.0</ele><time>2026-04-30T12:00:11.999Z</time></trkpt><trkpt lat="31.25313283992875" lon="-4.040053588493296"><ele>777.0</ele><time>2026-04-30T12:00:12.999Z</time></trkpt><trkpt lat="31.253006098027296" lon="-4.039916353439117"><ele>776.6666666666667</ele><time>2026-04-30T12:00:13.999Z</time></trkpt><trkpt lat="31.25287211051521" lon="-4.039783155777275"><ele>776.3333333333334</ele><time>2026-04-30T12:00:14.999Z</time></trkpt><trkpt lat="31.25274041887457" lon="-4.039649159470905"><ele>776.0</ele><time>2026-04-30T12:00:15.999Z</time></trkpt><trkpt lat="31.252607370147484" lon="-4.039517789458474"><ele>776.0</ele><time>2026-04-30T12:00:16.999Z</time></trkpt><trkpt lat="31.252466066775753" lon="-4.0393887786296805"><ele>776.0</ele><time>2026-04-30T12:00:17.999Z</time></trkpt><trkpt lat="31.252329020368112" lon="-4.0392574454036945"><ele>776.0</ele><time>2026-04-30T12:00:18.999Z</time></trkpt><trkpt lat="31.25219540309221" lon="-4.039130639412069"><ele>776.3333333333334</ele><time>2026-04-30T12:00:19.999Z</time></trkpt><trkpt lat="31.252066459942057" lon="-4.039006067881511"><ele>776.6666666666667</ele><time>2026-04-30T12:00:20.999Z</time></trkpt><trkpt lat="31.251937165462973" lon="-4.0388850452905"><ele>777.0</ele><time>2026-04-30T12:00:21.999Z</time></trkpt><trkpt lat="31.251804373700722" lon="-4.03877092241304"><ele>777.0</ele><time>2026-04-30T12:00:22.999Z</time></trkpt><trkpt lat="31.25167462161122" lon="-4.038649335344008"><ele>777.0</ele><time>2026-04-30T12:00:23.999Z</time></trkpt><trkpt lat="31.251536123939367" lon="-4.038528217988965"><ele>777.0</ele><time>2026-04-30T12:00:24.999Z</time></trkpt><trkpt lat="31.2513797839817" lon="-4.038430690870034"><ele>776.0</ele><time>2026-04-30T12:00:25.999Z</time></trkpt><trkpt lat="31.251213367750378" lon="-4.03835795994431"><ele>775.0</ele><time>2026-04-30T12:00:26.999Z</time></trkpt><trkpt lat="31.251042565681963" lon="-4.038303198142789"><ele>774.0</ele><time>2026-04-30T12:00:27.999Z</time></trkpt><trkpt lat="31.250867765728827" lon="-4.038260626357427"><ele>774.0</ele><time>2026-04-30T12:00:28.999Z</time></trkpt><trkpt lat="31.250690719325547" lon="-4.038233754058389"><ele>774.0</ele><time>2026-04-30T12:00:29.999Z</time></trkpt><trkpt lat="31.25051235595255" lon="-4.038236090860822"><ele>774.0</ele><time>2026-04-30T12:00:30.999Z</time></trkpt><trkpt lat="31.250335720486227" lon="-4.038236013648622"><ele>773.6666666666667</ele><time>2026-04-30T12:00:31.999Z</time></trkpt><trkpt lat="31.25015862260931" lon="-4.038245501244303"><ele>773.3333333333334</ele><time>2026-04-30T12:00:32.999Z</time></trkpt><trkpt lat="31.249983786279643" lon="-4.038272495559318"><ele>773.0</ele><time>2026-04-30T12:00:33.999Z</time></trkpt><trkpt lat="31.249818470587265" lon="-4.038304072198687"><ele>771.6666666666667</ele><time>2026-04-30T12:00:34.999Z</time></trkpt><trkpt lat="31.249655785073237" lon="-4.038348777234603"><ele>770.3333333333333</ele><time>2026-04-30T12:00:35.999Z</time></trkpt><trkpt lat="31.24949386718233" lon="-4.038399416389736"><ele>769.0</ele><time>2026-04-30T12:00:36.999Z</time></trkpt><trkpt lat="31.249329041849904" lon="-4.0384520910644"><ele>769.0</ele><time>2026-04-30T12:00:37.999Z</time></trkpt><trkpt lat="31.249159514114393" lon="-4.0384949982587575"><ele>769.0</ele><time>2026-04-30T12:00:38.999Z</time></trkpt><trkpt lat="31.24897691884745" lon="-4.038537037369332"><ele>769.0</ele><time>2026-04-30T12:00:39.999Z</time></trkpt><trkpt lat="31.248795030352323" lon="-4.038582706194004"><ele>769.6666666666666</ele><time>2026-04-30T12:00:40.999Z</time></trkpt><trkpt lat="31.248610539421115" lon="-4.038624433290773"><ele>770.3333333333333</ele><time>2026-04-30T12:00:41.999Z</time></trkpt><trkpt lat="31.248430354021096" lon="-4.038676776316237"><ele>771.0</ele><time>2026-04-30T12:00:42.999Z</time></trkpt><trkpt lat="31.24824390341415" lon="-4.038714149209005"><ele>768.6666666666666</ele><time>2026-04-30T12:00:43.999Z</time></trkpt><trkpt lat="31.248055130804868" lon="-4.0387497489327755"><ele>766.3333333333333</ele><time>2026-04-30T12:00:44.999Z</time></trkpt><trkpt lat="31.24787240713977" lon="-4.0387921240462665"><ele>764.0</ele><time>2026-04-30T12:00:45.999Z</time></trkpt><trkpt lat="31.24769006568109" lon="-4.038840086786487"><ele>764.0</ele><time>2026-04-30T12:00:46.999Z</time></trkpt><trkpt lat="31.24750272731911" lon="-4.038884911295878"><ele>764.0</ele><time>2026-04-30T12:00:47.999Z</time></trkpt><trkpt lat="31.247317388485918" lon="-4.038933106315163"><ele>764.0</ele><time>2026-04-30T12:00:48.999Z</time></trkpt><trkpt lat="31.247131483866983" lon="-4.038982167628145"><ele>762.6666666666666</ele><time>2026-04-30T12:00:49.999Z</time></trkpt><trkpt lat="31.246946130331136" lon="-4.039030134242807"><ele>761.3333333333334</ele><time>2026-04-30T12:00:50.999Z</time></trkpt><trkpt lat="31.246758976985035" lon="-4.039075794233317"><ele>760.0</ele><time>2026-04-30T12:00:51.999Z</time></trkpt><trkpt lat="31.246570912944186" lon="-4.039124388403663"><ele>761.6666666666667</ele><time>2026-04-30T12:00:52.999Z</time></trkpt><trkpt lat="31.2463779208152" lon="-4.0391630938673515"><ele>763.3333333333334</ele><time>2026-04-30T12:00:53.999Z</time></trkpt><trkpt lat="31.246187131153913" lon="-4.039187522152296"><ele>765.0</ele><time>2026-04-30T12:00:54.999Z</time></trkpt><trkpt lat="31.245997982533062" lon="-4.039204426363838"><ele>765.0</ele><time>2026-04-30T12:00:55.999Z</time></trkpt><trkpt lat="31.245808008502163" lon="-4.0392147956590465"><ele>765.0</ele><time>2026-04-30T12:00:56.999Z</time></trkpt><trkpt lat="31.245619309827475" lon="-4.039217224298651"><ele>765.0</ele><time>2026-04-30T12:00:57.999Z</time></trkpt><trkpt lat="31.245428966237746" lon="-4.039209196642367"><ele>764.0</ele><time>2026-04-30T12:00:58.999Z</time></trkpt><trkpt lat="31.245238907393347" lon="-4.039193485763374"><ele>763.0</ele><time>2026-04-30T12:00:59.999Z</time></trkpt><trkpt lat="31.24504678013873" lon="-4.03917208047194"><ele>762.0</ele><time>2026-04-30T12:01:00.999Z</time></trkpt><trkpt lat="31.244851406255453" lon="-4.039147550732019"><ele>761.3333333333334</ele><time>2026-04-30T12:01:01.999Z</time></trkpt><trkpt lat="31.24465231057385" lon="-4.039119756321328"><ele>760.6666666666667</ele><time>2026-04-30T12:01:02.999Z</time></trkpt><trkpt lat="31.244448729719053" lon="-4.039087897848433"><ele>760.0</ele><time>2026-04-30T12:01:03.999Z</time></trkpt><trkpt lat="31.24424194562719" lon="-4.039056648148884"><ele>760.0</ele><time>2026-04-30T12:01:04.999Z</time></trkpt><trkpt lat="31.2440349133105" lon="-4.039026414239948"><ele>760.0</ele><time>2026-04-30T12:01:05.999Z</time></trkpt><trkpt lat="31.243833097105266" lon="-4.038984023513214"><ele>760.0</ele><time>2026-04-30T12:01:06.999Z</time></trkpt><trkpt lat="31.243634574787954" lon="-4.038922449212903"><ele>759.3333333333334</ele><time>2026-04-30T12:01:07.999Z</time></trkpt><trkpt lat="31.243440572820848" lon="-4.038844140017817"><ele>758.6666666666666</ele><time>2026-04-30T12:01:08.999Z</time></trkpt><trkpt lat="31.24324873321606" lon="-4.0387599505851925"><ele>758.0</ele><time>2026-04-30T12:01:09.999Z</time></trkpt><trkpt lat="31.243063364718367" lon="-4.038659815137744"><ele>757.6666666666666</ele><time>2026-04-30T12:01:10.999Z</time></trkpt><trkpt lat="31.24288240477852" lon="-4.038542352828095"><ele>757.3333333333334</ele><time>2026-04-30T12:01:11.999Z</time></trkpt><trkpt lat="31.242700080382207" lon="-4.038427535394761"><ele>757.0</ele><time>2026-04-30T12:01:12.999Z</time></trkpt><trkpt lat="31.24251413833388" lon="-4.038315245833424"><ele>757.0</ele><time>2026-04-30T12:01:13.999Z</time></trkpt><trkpt lat="31.242329232136836" lon="-4.038203592212797"><ele>757.0</ele><time>2026-04-30T12:01:14.999Z</time></trkpt><trkpt lat="31.242138764125887" lon="-4.03809630522443"><ele>757.0</ele><time>2026-04-30T12:01:15.999Z</time></trkpt><trkpt lat="31.241947418758876" lon="-4.037998179300209"><ele>757.0</ele><time>2026-04-30T12:01:16.999Z</time></trkpt><trkpt lat="31.241753753243433" lon="-4.037904051825413"><ele>757.0</ele><time>2026-04-30T12:01:17.999Z</time></trkpt><trkpt lat="31.241558687301417" lon="-4.037814258255209"><ele>757.0</ele><time>2026-04-30T12:01:18.999Z</time></trkpt><trkpt lat="31.241360422404632" lon="-4.037732313675537"><ele>754.3333333333334</ele><time>2026-04-30T12:01:19.999Z</time></trkpt><trkpt lat="31.241159247646255" lon="-4.037652057912681"><ele>751.6666666666666</ele><time>2026-04-30T12:01:20.999Z</time></trkpt><trkpt lat="31.240959556975643" lon="-4.03757661407009"><ele>749.0</ele><time>2026-04-30T12:01:21.999Z</time></trkpt><trkpt lat="31.24075898776773" lon="-4.037502003202092"><ele>750.0</ele><time>2026-04-30T12:01:22.999Z</time></trkpt><trkpt lat="31.24056129307081" lon="-4.037431635747354"><ele>751.0</ele><time>2026-04-30T12:01:23.999Z</time></trkpt><trkpt lat="31.240363509261474" lon="-4.037363688160344"><ele>752.0</ele><time>2026-04-30T12:01:24.999Z</time></trkpt><trkpt lat="31.240167619613025" lon="-4.0372944672613285"><ele>752.0</ele><time>2026-04-30T12:01:25.999Z</time></trkpt><trkpt lat="31.23997192348682" lon="-4.03722433883657"><ele>752.0</ele><time>2026-04-30T12:01:26.999Z</time></trkpt><trkpt lat="31.239779144704634" lon="-4.0371541021817565"><ele>752.0</ele><time>2026-04-30T12:01:27.999Z</time></trkpt><trkpt lat="31.23958688021815" lon="-4.037085058792938"><ele>752.3333333333333</ele><time>2026-04-30T12:01:28.999Z</time></trkpt><trkpt lat="31.23939420719633" lon="-4.0370147816686694"><ele>752.6666666666666</ele><time>2026-04-30T12:01:29.999Z</time></trkpt><trkpt lat="31.23920029364932" lon="-4.036940178356329"><ele>753.0</ele><time>2026-04-30T12:01:30.999Z</time></trkpt><trkpt lat="31.23900286258039" lon="-4.036861376260761"><ele>751.6666666666666</ele><time>2026-04-30T12:01:31.999Z</time></trkpt><trkpt lat="31.238804836266098" lon="-4.0367839481681616"><ele>750.3333333333333</ele><time>2026-04-30T12:01:32.999Z</time></trkpt><trkpt lat="31.238605338739408" lon="-4.036708562181799"><ele>749.0</ele><time>2026-04-30T12:01:33.999Z</time></trkpt><trkpt lat="31.238405499668062" lon="-4.036634268135015"><ele>749.0</ele><time>2026-04-30T12:01:34.999Z</time></trkpt><trkpt lat="31.238202936293654" lon="-4.036559794135613"><ele>749.0</ele><time>2026-04-30T12:01:35.999Z</time></trkpt><trkpt lat="31.238003781953804" lon="-4.036480395107867"><ele>749.0</ele><time>2026-04-30T12:01:36.999Z</time></trkpt><trkpt lat="31.237802166884794" lon="-4.036402407120147"><ele>748.3333333333333</ele><time>2026-04-30T12:01:37.999Z</time></trkpt><trkpt lat="31.237599318772517" lon="-4.036327953139748"><ele>747.6666666666666</ele><time>2026-04-30T12:01:38.999Z</time></trkpt><trkpt lat="31.237394024705992" lon="-4.036252134464595"><ele>747.0</ele><time>2026-04-30T12:01:39.999Z</time></trkpt><trkpt lat="31.237190038050805" lon="-4.036177439693495"><ele>747.0</ele><time>2026-04-30T12:01:40.999Z</time></trkpt><trkpt lat="31.236986318237328" lon="-4.036103904870831"><ele>747.0</ele><time>2026-04-30T12:01:41.999Z</time></trkpt><trkpt lat="31.236781867534237" lon="-4.036025113536481"><ele>747.0</ele><time>2026-04-30T12:01:42.999Z</time></trkpt><trkpt lat="31.236576266627775" lon="-4.035947574442909"><ele>746.6666666666666</ele><time>2026-04-30T12:01:43.999Z</time></trkpt><trkpt lat="31.23637645425441" lon="-4.035872840113664"><ele>746.3333333333333</ele><time>2026-04-30T12:01:44.999Z</time></trkpt><trkpt lat="31.236172447019403" lon="-4.035795602139574"><ele>746.0</ele><time>2026-04-30T12:01:45.999Z</time></trkpt><trkpt lat="31.235969160206587" lon="-4.0357195528858805"><ele>746.0</ele><time>2026-04-30T12:01:46.999Z</time></trkpt><trkpt lat="31.235763001148893" lon="-4.035641404900739"><ele>746.0</ele><time>2026-04-30T12:01:47.999Z</time></trkpt><trkpt lat="31.235555854499122" lon="-4.035564974420382"><ele>746.0</ele><time>2026-04-30T12:01:48.999Z</time></trkpt><trkpt lat="31.23534859899397" lon="-4.035488502766991"><ele>747.3333333333333</ele><time>2026-04-30T12:01:49.999Z</time></trkpt><trkpt lat="31.235137444996468" lon="-4.035414376148407"><ele>748.6666666666666</ele><time>2026-04-30T12:01:50.999Z</time></trkpt><trkpt lat="31.234927188719688" lon="-4.035339153137931"><ele>750.0</ele><time>2026-04-30T12:01:51.999Z</time></trkpt><trkpt lat="31.23471558999745" lon="-4.0352615385519615"><ele>750.0</ele><time>2026-04-30T12:01:52.999Z</time></trkpt><trkpt lat="31.23450376152237" lon="-4.03517979153557"><ele>750.0</ele><time>2026-04-30T12:01:53.999Z</time></trkpt><trkpt lat="31.234292911489256" lon="-4.035098700760916"><ele>750.0</ele><time>2026-04-30T12:01:54.999Z</time></trkpt><trkpt lat="31.234087865409666" lon="-4.03502013175707"><ele>748.3333333333334</ele><time>2026-04-30T12:01:55.999Z</time></trkpt><trkpt lat="31.233879859523498" lon="-4.034943932919988"><ele>746.6666666666667</ele><time>2026-04-30T12:01:56.999Z</time></trkpt><trkpt lat="31.23367937404619" lon="-4.034868027505902"><ele>745.0</ele><time>2026-04-30T12:01:57.999Z</time></trkpt><trkpt lat="31.233475242256887" lon="-4.034793318003665"><ele>745.0</ele><time>2026-04-30T12:01:58.999Z</time></trkpt><trkpt lat="31.233274869261265" lon="-4.034712495931479"><ele>745.0</ele><time>2026-04-30T12:01:59.999Z</time></trkpt><trkpt lat="31.233073081850748" lon="-4.0346317729517835"><ele>745.0</ele><time>2026-04-30T12:02:00.999Z</time></trkpt><trkpt lat="31.232876240838834" lon="-4.034543747355546"><ele>744.6666666666667</ele><time>2026-04-30T12:02:01.999Z</time></trkpt><trkpt lat="31.232678347334048" lon="-4.034450193332281"><ele>744.3333333333334</ele><time>2026-04-30T12:02:02.999Z</time></trkpt><trkpt lat="31.232480872751317" lon="-4.034358401321598"><ele>744.0</ele><time>2026-04-30T12:02:03.999Z</time></trkpt><trkpt lat="31.23228532027542" lon="-4.034262762183443"><ele>743.6666666666666</ele><time>2026-04-30T12:02:04.999Z</time></trkpt><trkpt lat="31.232090731305515" lon="-4.034166781941413"><ele>743.3333333333333</ele><time>2026-04-30T12:02:05.998Z</time></trkpt><trkpt lat="31.23189884980174" lon="-4.03406717889514"><ele>743.0</ele><time>2026-04-30T12:02:06.998Z</time></trkpt><trkpt lat="31.231705962608757" lon="-4.033970145036179"><ele>743.0</ele><time>2026-04-30T12:02:07.998Z</time></trkpt><trkpt lat="31.23151420903739" lon="-4.033870834128222"><ele>743.0</ele><time>2026-04-30T12:02:08.998Z</time></trkpt><trkpt lat="31.231325505539722" lon="-4.033767278997908"><ele>743.0</ele><time>2026-04-30T12:02:09.998Z</time></trkpt><trkpt lat="31.231137195396233" lon="-4.033658417794091"><ele>743.6666666666666</ele><time>2026-04-30T12:02:10.998Z</time></trkpt><trkpt lat="31.230947708186772" lon="-4.033550624130059"><ele>744.3333333333334</ele><time>2026-04-30T12:02:11.998Z</time></trkpt><trkpt lat="31.230759988325953" lon="-4.033445290235645"><ele>745.0</ele><time>2026-04-30T12:02:12.998Z</time></trkpt><trkpt lat="31.230572995385796" lon="-4.03333972067005"><ele>743.6666666666667</ele><time>2026-04-30T12:02:13.998Z</time></trkpt><trkpt lat="31.230384541780253" lon="-4.03323421137502"><ele>742.3333333333334</ele><time>2026-04-30T12:02:14.998Z</time></trkpt><trkpt lat="31.230199132096764" lon="-4.0331281038765034"><ele>741.0</ele><time>2026-04-30T12:02:15.998Z</time></trkpt><trkpt lat="31.230013590381713" lon="-4.033021489268928"><ele>741.0</ele><time>2026-04-30T12:02:16.998Z</time></trkpt><trkpt lat="31.22982778431507" lon="-4.0329172475326525"><ele>741.0</ele><time>2026-04-30T12:02:17.998Z</time></trkpt><trkpt lat="31.22964459716972" lon="-4.0328113097446305"><ele>741.0</ele><time>2026-04-30T12:02:18.998Z</time></trkpt><trkpt lat="31.22946222030647" lon="-4.032707312218209"><ele>740.0</ele><time>2026-04-30T12:02:19.998Z</time></trkpt><trkpt lat="31.229279093960084" lon="-4.032601066164677"><ele>739.0</ele><time>2026-04-30T12:02:20.998Z</time></trkpt><trkpt lat="31.229094396387996" lon="-4.032494979946008"><ele>738.0</ele><time>2026-04-30T12:02:21.998Z</time></trkpt><trkpt lat="31.228914871762594" lon="-4.032389734224202"><ele>740.3333333333334</ele><time>2026-04-30T12:02:22.999Z</time></trkpt><trkpt lat="31.228732238029966" lon="-4.0322818099088895"><ele>742.6666666666667</ele><time>2026-04-30T12:02:23.999Z</time></trkpt><trkpt lat="31.228548595297784" lon="-4.032176139496999"><ele>745.0</ele><time>2026-04-30T12:02:24.999Z</time></trkpt><trkpt lat="31.228367293333836" lon="-4.032072096974561"><ele>745.0</ele><time>2026-04-30T12:02:25.999Z</time></trkpt><trkpt lat="31.228182017666484" lon="-4.031967026701148"><ele>745.0</ele><time>2026-04-30T12:02:26.999Z</time></trkpt><trkpt lat="31.228006465105985" lon="-4.031866849842545"><ele>745.0</ele><time>2026-04-30T12:02:27.999Z</time></trkpt><trkpt lat="31.22784249701746" lon="-4.0317703299980545"><ele>745.0</ele><time>2026-04-30T12:02:28.999Z</time></trkpt><trkpt lat="31.227681062135698" lon="-4.031674059072207"><ele>745.0</ele><time>2026-04-30T12:02:29.999Z</time></trkpt><trkpt lat="31.227524001937432" lon="-4.031583517819007"><ele>745.0</ele><time>2026-04-30T12:02:30.999Z</time></trkpt><trkpt lat="31.227372641777126" lon="-4.031500063201729"><ele>745.0</ele><time>2026-04-30T12:02:31.999Z</time></trkpt><trkpt lat="31.227226785216697" lon="-4.031416988862823"><ele>745.0</ele><time>2026-04-30T12:02:32.999Z</time></trkpt><trkpt lat="31.227081778044024" lon="-4.031332292502823"><ele>745.0</ele><time>2026-04-30T12:02:33.999Z</time></trkpt><trkpt lat="31.22694047908289" lon="-4.031254335680628"><ele>745.0</ele><time>2026-04-30T12:02:34.999Z</time></trkpt><trkpt lat="31.226801532984958" lon="-4.031176480204265"><ele>745.0</ele><time>2026-04-30T12:02:35.999Z</time></trkpt><trkpt lat="31.22666082320401" lon="-4.031097587437918"><ele>745.0</ele><time>2026-04-30T12:02:36.999Z</time></trkpt><trkpt lat="31.226519858661515" lon="-4.0310177675710595"><ele>745.0</ele><time>2026-04-30T12:02:37.999Z</time></trkpt><trkpt lat="31.226376534922643" lon="-4.030938333812765"><ele>745.0</ele><time>2026-04-30T12:02:38.999Z</time></trkpt><trkpt lat="31.226236639195285" lon="-4.030858868358198"><ele>745.0</ele><time>2026-04-30T12:02:39.999Z</time></trkpt><trkpt lat="31.226101693568083" lon="-4.030777048336211"><ele>745.3333333333334</ele><time>2026-04-30T12:02:40.999Z</time></trkpt><trkpt lat="31.225963031253023" lon="-4.030693414488006"><ele>745.6666666666666</ele><time>2026-04-30T12:02:41.999Z</time></trkpt><trkpt lat="31.225829051780977" lon="-4.030613802107795"><ele>746.0</ele><time>2026-04-30T12:02:42.999Z</time></trkpt><trkpt lat="31.225688620513015" lon="-4.030534872926606"><ele>747.0</ele><time>2026-04-30T12:02:43.999Z</time></trkpt><trkpt lat="31.22554438579971" lon="-4.030454328371399"><ele>748.0</ele><time>2026-04-30T12:02:44.999Z</time></trkpt><trkpt lat="31.225396045138297" lon="-4.0303713758936635"><ele>749.0</ele><time>2026-04-30T12:02:45.999Z</time></trkpt><trkpt lat="31.22524394814638" lon="-4.03029459448213"><ele>749.0</ele><time>2026-04-30T12:02:46.999Z</time></trkpt><trkpt lat="31.22509798229673" lon="-4.030201750849657"><ele>749.0</ele><time>2026-04-30T12:02:47.999Z</time></trkpt><trkpt lat="31.224943489492226" lon="-4.030129978798422"><ele>749.0</ele><time>2026-04-30T12:02:48.999Z</time></trkpt><trkpt lat="31.22478814543168" lon="-4.030071738347752"><ele>748.5</ele><time>2026-04-30T12:02:49.999Z</time></trkpt><trkpt lat="31.224642653984763" lon="-4.030021983999593"><ele>748.0</ele><time>2026-04-30T12:02:50.999Z</time></trkpt><trkpt lat="31.224507500865368" lon="-4.029979925921271"><ele>747.5</ele><time>2026-04-30T12:02:51.999Z</time></trkpt><trkpt lat="31.224371734308423" lon="-4.029946687236063"><ele>747.0</ele><time>2026-04-30T12:02:52.999Z</time></trkpt><trkpt lat="31.224238207922262" lon="-4.029899081397469"><ele>747.0</ele><time>2026-04-30T12:02:53.999Z</time></trkpt><trkpt lat="31.224098091680524" lon="-4.029854518085868"><ele>747.0</ele><time>2026-04-30T12:02:54.999Z</time></trkpt><trkpt lat="31.223958817656502" lon="-4.0298205354938075"><ele>747.0</ele><time>2026-04-30T12:02:55.999Z</time></trkpt><trkpt lat="31.223812974953887" lon="-4.029787451328101"><ele>747.0</ele><time>2026-04-30T12:02:56.999Z</time></trkpt><trkpt lat="31.223663684544935" lon="-4.029748277949268"><ele>746.6666666666666</ele><time>2026-04-30T12:02:57.999Z</time></trkpt><trkpt lat="31.223512602496836" lon="-4.029701123035201"><ele>746.3333333333333</ele><time>2026-04-30T12:02:58.999Z</time></trkpt><trkpt lat="31.223362941019115" lon="-4.029658825285201"><ele>746.0</ele><time>2026-04-30T12:02:59.999Z</time></trkpt><trkpt lat="31.223206709685037" lon="-4.029621724319902"><ele>746.6666666666666</ele><time>2026-04-30T12:03:00.999Z</time></trkpt><trkpt lat="31.223043392599134" lon="-4.029584150150832"><ele>747.3333333333334</ele><time>2026-04-30T12:03:01.999Z</time></trkpt><trkpt lat="31.222879161416827" lon="-4.029544429954027"><ele>748.0</ele><time>2026-04-30T12:03:02.999Z</time></trkpt><trkpt lat="31.222713136419298" lon="-4.029510380788128"><ele>748.0</ele><time>2026-04-30T12:03:03.999Z</time></trkpt><trkpt lat="31.222535550214406" lon="-4.029484623760886"><ele>748.0</ele><time>2026-04-30T12:03:04.999Z</time></trkpt><trkpt lat="31.222345736795816" lon="-4.029474329774087"><ele>748.0</ele><time>2026-04-30T12:03:05.999Z</time></trkpt><trkpt lat="31.222155625257074" lon="-4.029466509278017"><ele>748.3333333333334</ele><time>2026-04-30T12:03:06.999Z</time></trkpt><trkpt lat="31.22197632082788" lon="-4.0294408842963"><ele>748.6666666666666</ele><time>2026-04-30T12:03:07.999Z</time></trkpt><trkpt lat="31.221800358010597" lon="-4.0293897329902615"><ele>749.0</ele><time>2026-04-30T12:03:08.999Z</time></trkpt><trkpt lat="31.221628870364206" lon="-4.029304928663655"><ele>748.6666666666666</ele><time>2026-04-30T12:03:09.999Z</time></trkpt><trkpt lat="31.221455703062453" lon="-4.029184242879948"><ele>748.3333333333334</ele><time>2026-04-30T12:03:10.999Z</time></trkpt><trkpt lat="31.22128769236863" lon="-4.029072002003992"><ele>748.0</ele><time>2026-04-30T12:03:11.999Z</time></trkpt><trkpt lat="31.221114784279756" lon="-4.028981121783788"><ele>748.0</ele><time>2026-04-30T12:03:12.999Z</time></trkpt><trkpt lat="31.220939312085633" lon="-4.028916473861303"><ele>748.0</ele><time>2026-04-30T12:03:13.999Z</time></trkpt><trkpt lat="31.220759560465453" lon="-4.028865017746145"><ele>748.0</ele><time>2026-04-30T12:03:14.999Z</time></trkpt><trkpt lat="31.220576637313574" lon="-4.0288178578679394"><ele>748.0</ele><time>2026-04-30T12:03:15.999Z</time></trkpt><trkpt lat="31.220392660298696" lon="-4.028763854563743"><ele>748.0</ele><time>2026-04-30T12:03:16.999Z</time></trkpt><trkpt lat="31.220210500780905" lon="-4.028701464256015"><ele>748.0</ele><time>2026-04-30T12:03:17.999Z</time></trkpt><trkpt lat="31.220026834469333" lon="-4.028640138270605"><ele>748.0</ele><time>2026-04-30T12:03:18.999Z</time></trkpt><trkpt lat="31.219842261986454" lon="-4.028580615844937"><ele>748.0</ele><time>2026-04-30T12:03:19.999Z</time></trkpt><trkpt lat="31.21965535243114" lon="-4.028521352899292"><ele>748.0</ele><time>2026-04-30T12:03:20.999Z</time></trkpt><trkpt lat="31.219469997389123" lon="-4.028462066914402"><ele>748.0</ele><time>2026-04-30T12:03:21.999Z</time></trkpt><trkpt lat="31.219292128202465" lon="-4.028412192817132"><ele>748.0</ele><time>2026-04-30T12:03:22.999Z</time></trkpt><trkpt lat="31.219123706640644" lon="-4.028373781771959"><ele>748.0</ele><time>2026-04-30T12:03:23.999Z</time></trkpt><trkpt lat="31.21895966972824" lon="-4.028345291301026"><ele>747.0</ele><time>2026-04-30T12:03:24.999Z</time></trkpt><trkpt lat="31.21878700304541" lon="-4.028324416998316"><ele>746.0</ele><time>2026-04-30T12:03:25.999Z</time></trkpt><trkpt lat="31.218608757890593" lon="-4.028316940863423"><ele>745.0</ele><time>2026-04-30T12:03:26.999Z</time></trkpt><trkpt lat="31.218428011230465" lon="-4.028320478080324"><ele>745.0</ele><time>2026-04-30T12:03:27.999Z</time></trkpt><trkpt lat="31.21824025378404" lon="-4.028334304320559"><ele>745.0</ele><time>2026-04-30T12:03:28.999Z</time></trkpt><trkpt lat="31.21805125642085" lon="-4.028362739347203"><ele>745.0</ele><time>2026-04-30T12:03:29.999Z</time></trkpt><trkpt lat="31.21786362540386" lon="-4.028394684505866"><ele>747.0</ele><time>2026-04-30T12:03:30.999Z</time></trkpt><trkpt lat="31.217679275418302" lon="-4.028429827288963"><ele>749.0</ele><time>2026-04-30T12:03:31.999Z</time></trkpt><trkpt lat="31.217502906949576" lon="-4.028464848951446"><ele>751.0</ele><time>2026-04-30T12:03:32.999Z</time></trkpt><trkpt lat="31.21733565646141" lon="-4.028505957058153"><ele>749.3333333333334</ele><time>2026-04-30T12:03:33.999Z</time></trkpt><trkpt lat="31.217177170134594" lon="-4.028562841420606"><ele>747.6666666666666</ele><time>2026-04-30T12:03:34.999Z</time></trkpt><trkpt lat="31.217021062552465" lon="-4.028647386277821"><ele>746.0</ele><time>2026-04-30T12:03:35.999Z</time></trkpt><trkpt lat="31.21686607394963" lon="-4.028751197591887"><ele>746.0</ele><time>2026-04-30T12:03:36.999Z</time></trkpt><trkpt lat="31.216708637705537" lon="-4.028863963841461"><ele>746.0</ele><time>2026-04-30T12:03:37.999Z</time></trkpt><trkpt lat="31.216550517992548" lon="-4.028984390077392"><ele>746.0</ele><time>2026-04-30T12:03:38.999Z</time></trkpt><trkpt lat="31.21638824555478" lon="-4.029105912698562"><ele>746.0</ele><time>2026-04-30T12:03:39.999Z</time></trkpt><trkpt lat="31.21622582829486" lon="-4.029229245555843"><ele>746.0</ele><time>2026-04-30T12:03:40.999Z</time></trkpt><trkpt lat="31.216062598605642" lon="-4.029351831592771"><ele>746.0</ele><time>2026-04-30T12:03:41.999Z</time></trkpt><trkpt lat="31.215901149180308" lon="-4.029473122033166"><ele>746.0</ele><time>2026-04-30T12:03:42.999Z</time></trkpt><trkpt lat="31.215740324079857" lon="-4.029595945106984"><ele>746.0</ele><time>2026-04-30T12:03:43.999Z</time></trkpt><trkpt lat="31.215578255046932" lon="-4.029719920527481"><ele>746.0</ele><time>2026-04-30T12:03:44.999Z</time></trkpt><trkpt lat="31.215411211382005" lon="-4.029842660981995"><ele>745.3333333333333</ele><time>2026-04-30T12:03:45.999Z</time></trkpt><trkpt lat="31.21524162663475" lon="-4.02997048440602"><ele>744.6666666666666</ele><time>2026-04-30T12:03:46.999Z</time></trkpt><trkpt lat="31.215071995097375" lon="-4.030100541322119"><ele>744.0</ele><time>2026-04-30T12:03:47.999Z</time></trkpt><trkpt lat="31.214902455952167" lon="-4.030230595536125"><ele>743.0</ele><time>2026-04-30T12:03:48.999Z</time></trkpt><trkpt lat="31.214729628683667" lon="-4.030363541072136"><ele>742.0</ele><time>2026-04-30T12:03:49.999Z</time></trkpt><trkpt lat="31.214556222582168" lon="-4.0304996648710585"><ele>741.0</ele><time>2026-04-30T12:03:50.999Z</time></trkpt><trkpt lat="31.214381407762446" lon="-4.030633423323807"><ele>741.0</ele><time>2026-04-30T12:03:51.999Z</time></trkpt><trkpt lat="31.2142075086585" lon="-4.030763687799136"><ele>741.0</ele><time>2026-04-30T12:03:52.999Z</time></trkpt><trkpt lat="31.21403371119278" lon="-4.030893626248639"><ele>741.0</ele><time>2026-04-30T12:03:53.999Z</time></trkpt><trkpt lat="31.213861870812533" lon="-4.031025634019807"><ele>740.6666666666666</ele><time>2026-04-30T12:03:54.999Z</time></trkpt><trkpt lat="31.213690175541462" lon="-4.031154953080925"><ele>740.3333333333333</ele><time>2026-04-30T12:03:55.999Z</time></trkpt><trkpt lat="31.213517663198818" lon="-4.031282565088087"><ele>740.0</ele><time>2026-04-30T12:03:56.999Z</time></trkpt><trkpt lat="31.213344237904202" lon="-4.031408617161058"><ele>740.0</ele><time>2026-04-30T12:03:57.999Z</time></trkpt><trkpt lat="31.213172234936636" lon="-4.031535631991646"><ele>740.0</ele><time>2026-04-30T12:03:58.999Z</time></trkpt><trkpt lat="31.21300342717605" lon="-4.031667751577566"><ele>740.0</ele><time>2026-04-30T12:03:59.999Z</time></trkpt><trkpt lat="31.212836210810178" lon="-4.031801923108787"><ele>740.0</ele><time>2026-04-30T12:04:00.999Z</time></trkpt><trkpt lat="31.21266757297642" lon="-4.031932455696441"><ele>740.0</ele><time>2026-04-30T12:04:01.999Z</time></trkpt><trkpt lat="31.212494139284683" lon="-4.032061664488617"><ele>740.0</ele><time>2026-04-30T12:04:02.999Z</time></trkpt><trkpt lat="31.21232266981357" lon="-4.032190010148407"><ele>739.0</ele><time>2026-04-30T12:04:03.999Z</time></trkpt><trkpt lat="31.212151970179715" lon="-4.032319040886813"><ele>738.0</ele><time>2026-04-30T12:04:04.999Z</time></trkpt><trkpt lat="31.211979046991825" lon="-4.032449739909262"><ele>737.0</ele><time>2026-04-30T12:04:05.999Z</time></trkpt><trkpt lat="31.211812018331884" lon="-4.032576490925433"><ele>737.0</ele><time>2026-04-30T12:04:06.999Z</time></trkpt><trkpt lat="31.21164371044851" lon="-4.0326999772837215"><ele>737.0</ele><time>2026-04-30T12:04:07.999Z</time></trkpt><trkpt lat="31.211479429592746" lon="-4.032824809624447"><ele>737.0</ele><time>2026-04-30T12:04:08.999Z</time></trkpt><trkpt lat="31.21131296896727" lon="-4.032951802100066"><ele>736.6666666666666</ele><time>2026-04-30T12:04:09.999Z</time></trkpt><trkpt lat="31.211147713085943" lon="-4.033081321092072"><ele>736.3333333333334</ele><time>2026-04-30T12:04:10.999Z</time></trkpt><trkpt lat="31.210983094024503" lon="-4.033207707476756"><ele>736.0</ele><time>2026-04-30T12:04:11.998Z</time></trkpt><trkpt lat="31.21082116085642" lon="-4.033335276472954"><ele>736.6666666666667</ele><time>2026-04-30T12:04:12.998Z</time></trkpt><trkpt lat="31.210655092185203" lon="-4.03346343152887"><ele>737.3333333333334</ele><time>2026-04-30T12:04:13.998Z</time></trkpt><trkpt lat="31.210486332231294" lon="-4.0335975927697225"><ele>738.0</ele><time>2026-04-30T12:04:14.998Z</time></trkpt><trkpt lat="31.210321709354577" lon="-4.033735305842814"><ele>738.0</ele><time>2026-04-30T12:04:15.998Z</time></trkpt><trkpt lat="31.21014542870907" lon="-4.033889582913044"><ele>738.0</ele><time>2026-04-30T12:04:16.998Z</time></trkpt><trkpt lat="31.20996780646492" lon="-4.034045785727028"><ele>738.0</ele><time>2026-04-30T12:04:17.998Z</time></trkpt><trkpt lat="31.20979097418649" lon="-4.034214667041355"><ele>738.0</ele><time>2026-04-30T12:04:18.998Z</time></trkpt><trkpt lat="31.209617003196495" lon="-4.034392129185916"><ele>738.0</ele><time>2026-04-30T12:04:19.998Z</time></trkpt><trkpt lat="31.20945125562511" lon="-4.034575881107473"><ele>738.0</ele><time>2026-04-30T12:04:20.998Z</time></trkpt><trkpt lat="31.20929701214293" lon="-4.034764374673522"><ele>738.0</ele><time>2026-04-30T12:04:21.998Z</time></trkpt><trkpt lat="31.209154415459867" lon="-4.034951188066035"><ele>738.0</ele><time>2026-04-30T12:04:22.998Z</time></trkpt><trkpt lat="31.20901985019777" lon="-4.03513810532033"><ele>738.6666666666666</ele><time>2026-04-30T12:04:23.998Z</time></trkpt><trkpt lat="31.208888442079992" lon="-4.0353287717032"><ele>739.3333333333333</ele><time>2026-04-30T12:04:24.999Z</time></trkpt><trkpt lat="31.208761690399893" lon="-4.035517376382883"><ele>740.0</ele><time>2026-04-30T12:04:25.999Z</time></trkpt><trkpt lat="31.208635919718276" lon="-4.035709288028539"><ele>740.3333333333333</ele><time>2026-04-30T12:04:26.999Z</time></trkpt><trkpt lat="31.20851156891684" lon="-4.035905842433491"><ele>740.6666666666666</ele><time>2026-04-30T12:04:27.999Z</time></trkpt><trkpt lat="31.208390499307416" lon="-4.0361013535616355"><ele>741.0</ele><time>2026-04-30T12:04:28.999Z</time></trkpt><trkpt lat="31.20826944689999" lon="-4.036298018050426"><ele>741.0</ele><time>2026-04-30T12:04:29.999Z</time></trkpt><trkpt lat="31.208147862430494" lon="-4.036494273154324"><ele>741.0</ele><time>2026-04-30T12:04:30.999Z</time></trkpt><trkpt lat="31.208026238796496" lon="-4.0366901824625625"><ele>741.0</ele><time>2026-04-30T12:04:31.999Z</time></trkpt><trkpt lat="31.207907258051243" lon="-4.036885115124879"><ele>741.0</ele><time>2026-04-30T12:04:32.999Z</time></trkpt><trkpt lat="31.207786920653152" lon="-4.037083587757157"><ele>741.0</ele><time>2026-04-30T12:04:33.999Z</time></trkpt><trkpt lat="31.207667303480918" lon="-4.037281902868295"><ele>741.0</ele><time>2026-04-30T12:04:34.999Z</time></trkpt><trkpt lat="31.207549906487944" lon="-4.037478131380872"><ele>741.0</ele><time>2026-04-30T12:04:35.999Z</time></trkpt><trkpt lat="31.207433282963322" lon="-4.03767869676294"><ele>741.0</ele><time>2026-04-30T12:04:36.999Z</time></trkpt><trkpt lat="31.20731362701124" lon="-4.037876358550739"><ele>741.0</ele><time>2026-04-30T12:04:37.999Z</time></trkpt><trkpt lat="31.20719448624458" lon="-4.038072023671067"><ele>741.0</ele><time>2026-04-30T12:04:38.999Z</time></trkpt><trkpt lat="31.207078605439463" lon="-4.03826840523511"><ele>741.0</ele><time>2026-04-30T12:04:39.999Z</time></trkpt><trkpt lat="31.206961883417808" lon="-4.038462161572064"><ele>741.0</ele><time>2026-04-30T12:04:40.999Z</time></trkpt><trkpt lat="31.206846345025042" lon="-4.038655926958373"><ele>739.6666666666666</ele><time>2026-04-30T12:04:41.999Z</time></trkpt><trkpt lat="31.206727448176995" lon="-4.038854684307129"><ele>738.3333333333333</ele><time>2026-04-30T12:04:42.999Z</time></trkpt><trkpt lat="31.206605425256086" lon="-4.039053795810225"><ele>737.0</ele><time>2026-04-30T12:04:43.999Z</time></trkpt><trkpt lat="31.206482972386805" lon="-4.0392551784857185"><ele>737.0</ele><time>2026-04-30T12:04:44.999Z</time></trkpt><trkpt lat="31.20636213125246" lon="-4.039456042473716"><ele>737.0</ele><time>2026-04-30T12:04:45.999Z</time></trkpt><trkpt lat="31.206241173062747" lon="-4.039655159394608"><ele>737.0</ele><time>2026-04-30T12:04:46.999Z</time></trkpt><trkpt lat="31.2061202351694" lon="-4.039854583708045"><ele>737.0</ele><time>2026-04-30T12:04:47.999Z</time></trkpt><trkpt lat="31.206002036185836" lon="-4.0400515951275064"><ele>737.0</ele><time>2026-04-30T12:04:48.999Z</time></trkpt><trkpt lat="31.205883337379976" lon="-4.040250078174155"><ele>737.0</ele><time>2026-04-30T12:04:49.999Z</time></trkpt><trkpt lat="31.20576477155989" lon="-4.040444723399439"><ele>736.6666666666666</ele><time>2026-04-30T12:04:50.999Z</time></trkpt><trkpt lat="31.205647762433184" lon="-4.0406377210700795"><ele>736.3333333333334</ele><time>2026-04-30T12:04:51.999Z</time></trkpt><trkpt lat="31.20553164182208" lon="-4.040832207987713"><ele>736.0</ele><time>2026-04-30T12:04:52.999Z</time></trkpt><trkpt lat="31.205412514841843" lon="-4.041026761941141"><ele>735.6666666666667</ele><time>2026-04-30T12:04:53.999Z</time></trkpt><trkpt lat="31.205293222711962" lon="-4.041221238874837"><ele>735.3333333333334</ele><time>2026-04-30T12:04:54.999Z</time></trkpt><trkpt lat="31.205174940129645" lon="-4.041418854071184"><ele>735.0</ele><time>2026-04-30T12:04:55.999Z</time></trkpt><trkpt lat="31.205056048039744" lon="-4.041613663937093"><ele>735.0</ele><time>2026-04-30T12:04:56.999Z</time></trkpt><trkpt lat="31.204931772973257" lon="-4.041808345611969"><ele>735.0</ele><time>2026-04-30T12:04:57.999Z</time></trkpt><trkpt lat="31.204809349292365" lon="-4.041998247182996"><ele>735.0</ele><time>2026-04-30T12:04:58.999Z</time></trkpt><trkpt lat="31.204684594807997" lon="-4.0421823905306296"><ele>735.0</ele><time>2026-04-30T12:04:59.999Z</time></trkpt><trkpt lat="31.20455840131147" lon="-4.042362053651117"><ele>735.0</ele><time>2026-04-30T12:05:00.999Z</time></trkpt><trkpt lat="31.20442764750625" lon="-4.04253934972753"><ele>735.0</ele><time>2026-04-30T12:05:01.999Z</time></trkpt><trkpt lat="31.204292007665728" lon="-4.0427137314453"><ele>735.0</ele><time>2026-04-30T12:05:02.999Z</time></trkpt><trkpt lat="31.204152948339857" lon="-4.042881989590118"><ele>735.0</ele><time>2026-04-30T12:05:03.999Z</time></trkpt><trkpt lat="31.204010175857643" lon="-4.043047026372997"><ele>735.0</ele><time>2026-04-30T12:05:04.999Z</time></trkpt><trkpt lat="31.203870716290254" lon="-4.043209899294459"><ele>735.0</ele><time>2026-04-30T12:05:05.999Z</time></trkpt><trkpt lat="31.20372707212929" lon="-4.043368188967497"><ele>735.0</ele><time>2026-04-30T12:05:06.999Z</time></trkpt><trkpt lat="31.20357985376208" lon="-4.043520133063147"><ele>735.0</ele><time>2026-04-30T12:05:07.999Z</time></trkpt><trkpt lat="31.203429945592262" lon="-4.043662749981751"><ele>735.0</ele><time>2026-04-30T12:05:08.999Z</time></trkpt><trkpt lat="31.203282688722965" lon="-4.043800664960147"><ele>735.0</ele><time>2026-04-30T12:05:09.999Z</time></trkpt><trkpt lat="31.20314136238258" lon="-4.043931513701572"><ele>735.0</ele><time>2026-04-30T12:05:10.999Z</time></trkpt><trkpt lat="31.203006543839713" lon="-4.044053073329956"><ele>735.0</ele><time>2026-04-30T12:05:11.999Z</time></trkpt><trkpt lat="31.202862469300346" lon="-4.044173472924228"><ele>735.0</ele><time>2026-04-30T12:05:12.999Z</time></trkpt><trkpt lat="31.20271101144814" lon="-4.04429009238835"><ele>735.0</ele><time>2026-04-30T12:05:13.999Z</time></trkpt><trkpt lat="31.20255322783128" lon="-4.044411756184698"><ele>735.0</ele><time>2026-04-30T12:05:14.999Z</time></trkpt><trkpt lat="31.202387069106823" lon="-4.044536304111573"><ele>735.0</ele><time>2026-04-30T12:05:15.999Z</time></trkpt><trkpt lat="31.20221710315224" lon="-4.044661312845471"><ele>735.0</ele><time>2026-04-30T12:05:16.999Z</time></trkpt><trkpt lat="31.202051159447937" lon="-4.04477094980704"><ele>734.3333333333334</ele><time>2026-04-30T12:05:17.999Z</time></trkpt><trkpt lat="31.201875059447037" lon="-4.044877260167756"><ele>733.6666666666667</ele><time>2026-04-30T12:05:18.999Z</time></trkpt><trkpt lat="31.201703456657917" lon="-4.044979177817761"><ele>733.0</ele><time>2026-04-30T12:05:19.999Z</time></trkpt><trkpt lat="31.201531038282152" lon="-4.045078965047602"><ele>733.3333333333334</ele><time>2026-04-30T12:05:20.999Z</time></trkpt><trkpt lat="31.20135820868156" lon="-4.0451711394729175"><ele>733.6666666666666</ele><time>2026-04-30T12:05:21.999Z</time></trkpt><trkpt lat="31.201186190834306" lon="-4.045264869286394"><ele>734.0</ele><time>2026-04-30T12:05:22.999Z</time></trkpt><trkpt lat="31.201015178463543" lon="-4.045354198307726"><ele>734.0</ele><time>2026-04-30T12:05:23.999Z</time></trkpt><trkpt lat="31.200845789133243" lon="-4.0454412749969455"><ele>734.0</ele><time>2026-04-30T12:05:24.999Z</time></trkpt><trkpt lat="31.200683634949762" lon="-4.045528707333059"><ele>734.0</ele><time>2026-04-30T12:05:25.999Z</time></trkpt><trkpt lat="31.200526789549272" lon="-4.045615776257306"><ele>733.0</ele><time>2026-04-30T12:05:26.999Z</time></trkpt><trkpt lat="31.20037338803325" lon="-4.045698093883419"><ele>732.0</ele><time>2026-04-30T12:05:27.999Z</time></trkpt><trkpt lat="31.200221640130497" lon="-4.045777454930477"><ele>731.0</ele><time>2026-04-30T12:05:28.999Z</time></trkpt><trkpt lat="31.200069468774473" lon="-4.0458531442416685"><ele>731.0</ele><time>2026-04-30T12:05:29.999Z</time></trkpt><trkpt lat="31.199914771096843" lon="-4.045933925319687"><ele>731.0</ele><time>2026-04-30T12:05:30.999Z</time></trkpt><trkpt lat="31.19976100555888" lon="-4.046015695655223"><ele>731.0</ele><time>2026-04-30T12:05:31.999Z</time></trkpt><trkpt lat="31.19961399546933" lon="-4.046094515267602"><ele>731.0</ele><time>2026-04-30T12:05:32.999Z</time></trkpt><trkpt lat="31.19947519939082" lon="-4.046167049873479"><ele>731.0</ele><time>2026-04-30T12:05:33.999Z</time></trkpt><trkpt lat="31.199343771239096" lon="-4.04623841477242"><ele>731.0</ele><time>2026-04-30T12:05:34.999Z</time></trkpt><trkpt lat="31.199218588064014" lon="-4.046307275506654"><ele>731.0</ele><time>2026-04-30T12:05:35.999Z</time></trkpt><trkpt lat="31.199099169654367" lon="-4.046370939462693"><ele>731.0</ele><time>2026-04-30T12:05:36.999Z</time></trkpt><trkpt lat="31.1989785816297" lon="-4.046433790000486"><ele>731.0</ele><time>2026-04-30T12:05:37.999Z</time></trkpt><trkpt lat="31.198849176979813" lon="-4.046497598567056"><ele>731.0</ele><time>2026-04-30T12:05:38.999Z</time></trkpt><trkpt lat="31.198715007022766" lon="-4.046563671989468"><ele>731.0</ele><time>2026-04-30T12:05:39.999Z</time></trkpt><trkpt lat="31.19857717840059" lon="-4.046635316137401"><ele>731.0</ele><time>2026-04-30T12:05:40.999Z</time></trkpt><trkpt lat="31.198434909007016" lon="-4.046710066730759"><ele>731.0</ele><time>2026-04-30T12:05:41.999Z</time></trkpt><trkpt lat="31.198292789013376" lon="-4.046783840743746"><ele>731.0</ele><time>2026-04-30T12:05:42.999Z</time></trkpt><trkpt lat="31.198159415998973" lon="-4.046853260548841"><ele>731.0</ele><time>2026-04-30T12:05:43.999Z</time></trkpt><trkpt lat="31.198031919348114" lon="-4.046919648131441"><ele>731.0</ele><time>2026-04-30T12:05:44.999Z</time></trkpt><trkpt lat="31.197907461918973" lon="-4.046984374144376"><ele>731.0</ele><time>2026-04-30T12:05:45.999Z</time></trkpt><trkpt lat="31.197788511784967" lon="-4.047047999457395"><ele>731.0</ele><time>2026-04-30T12:05:46.999Z</time></trkpt><trkpt lat="31.197679606375917" lon="-4.047106436988807"><ele>731.0</ele><time>2026-04-30T12:05:47.999Z</time></trkpt><trkpt lat="31.19758013999691" lon="-4.047158443045427"><ele>731.0</ele><time>2026-04-30T12:05:48.999Z</time></trkpt><trkpt lat="31.197484522486345" lon="-4.047207639954361"><ele>731.0</ele><time>2026-04-30T12:05:49.999Z</time></trkpt><trkpt lat="31.197395757342097" lon="-4.047252912138753"><ele>731.0</ele><time>2026-04-30T12:05:50.999Z</time></trkpt><trkpt lat="31.19731812353439" lon="-4.047292876094441"><ele>731.0</ele><time>2026-04-30T12:05:51.999Z</time></trkpt><trkpt lat="31.197245298246813" lon="-4.047324943947185"><ele>730.3333333333333</ele><time>2026-04-30T12:05:52.999Z</time></trkpt><trkpt lat="31.197149062077752" lon="-4.047317386152779"><ele>729.6666666666666</ele><time>2026-04-30T12:05:54.999Z</time></trkpt><trkpt lat="31.197082438742164" lon="-4.047211331755906"><ele>729.0</ele><time>2026-04-30T12:05:56.999Z</time></trkpt><trkpt lat="31.197066256238827" lon="-4.047136564141323"><ele>728.3333333333334</ele><time>2026-04-30T12:05:57.999Z</time></trkpt><trkpt lat="31.197059674880904" lon="-4.047053852886802"><ele>727.6666666666667</ele><time>2026-04-30T12:05:59Z</time></trkpt><trkpt lat="31.197060661525764" lon="-4.046970216989232"><ele>727.0</ele><time>2026-04-30T12:06:00Z</time></trkpt><trkpt lat="31.197068684173953" lon="-4.046865972782462"><ele>727.0</ele><time>2026-04-30T12:06:01Z</time></trkpt><trkpt lat="31.197086235377245" lon="-4.0467561329152355"><ele>727.0</ele><time>2026-04-30T12:06:02Z</time></trkpt><trkpt lat="31.197106268044458" lon="-4.046642070261451"><ele>727.0</ele><time>2026-04-30T12:06:03Z</time></trkpt><trkpt lat="31.197117962684093" lon="-4.046516428122233"><ele>727.0</ele><time>2026-04-30T12:06:04Z</time></trkpt><trkpt lat="31.197134640520083" lon="-4.046384829948305"><ele>727.0</ele><time>2026-04-30T12:06:05Z</time></trkpt><trkpt lat="31.197150864854123" lon="-4.046259708571365"><ele>727.0</ele><time>2026-04-30T12:06:06Z</time></trkpt><trkpt lat="31.197158250510178" lon="-4.046125760130094"><ele>727.0</ele><time>2026-04-30T12:06:07Z</time></trkpt><trkpt lat="31.197154193558365" lon="-4.045984350769047"><ele>727.0</ele><time>2026-04-30T12:06:08Z</time></trkpt><trkpt lat="31.197158626165077" lon="-4.045837563988268"><ele>727.0</ele><time>2026-04-30T12:06:09Z</time></trkpt><trkpt lat="31.19716170404777" lon="-4.045698262886255"><ele>728.0</ele><time>2026-04-30T12:06:10Z</time></trkpt><trkpt lat="31.19719281809717" lon="-4.045541711832273"><ele>729.0</ele><time>2026-04-30T12:06:11Z</time></trkpt><trkpt lat="31.197202024521133" lon="-4.045369153673529"><ele>730.0</ele><time>2026-04-30T12:06:12Z</time></trkpt><trkpt lat="31.19721497050419" lon="-4.045215269051063"><ele>731.0</ele><time>2026-04-30T12:06:13Z</time></trkpt><trkpt lat="31.197227397629934" lon="-4.045062379947374"><ele>730.5999999999999</ele><time>2026-04-30T12:06:14Z</time></trkpt><trkpt lat="31.19724178059758" lon="-4.044913045971968"><ele>730.2</ele><time>2026-04-30T12:06:15Z</time></trkpt><trkpt lat="31.197256917232437" lon="-4.044788649401598"><ele>729.8</ele><time>2026-04-30T12:06:16Z</time></trkpt><trkpt lat="31.197269559510353" lon="-4.044660014545931"><ele>729.4000000000001</ele><time>2026-04-30T12:06:17Z</time></trkpt><trkpt lat="31.19727821409879" lon="-4.044551491891896"><ele>729.0</ele><time>2026-04-30T12:06:17.999Z</time></trkpt><trkpt lat="31.197289506166104" lon="-4.044428141167342"><ele>729.0</ele><time>2026-04-30T12:06:18.999Z</time></trkpt><trkpt lat="31.197303372904766" lon="-4.044295713090686"><ele>729.0</ele><time>2026-04-30T12:06:19.999Z</time></trkpt><trkpt lat="31.19731403997061" lon="-4.04416606516884"><ele>729.0</ele><time>2026-04-30T12:06:20.999Z</time></trkpt><trkpt lat="31.19732809419004" lon="-4.04404263862489"><ele>729.0</ele><time>2026-04-30T12:06:21.999Z</time></trkpt><trkpt lat="31.197337780215427" lon="-4.0439315236931055"><ele>729.0</ele><time>2026-04-30T12:06:22.999Z</time></trkpt><trkpt lat="31.197340288036717" lon="-4.043824042393324"><ele>729.2</ele><time>2026-04-30T12:06:23.999Z</time></trkpt><trkpt lat="31.19733143985997" lon="-4.043708403590624"><ele>729.4000000000001</ele><time>2026-04-30T12:06:24.999Z</time></trkpt><trkpt lat="31.19731527962945" lon="-4.043578901070817"><ele>729.6</ele><time>2026-04-30T12:06:25.999Z</time></trkpt><trkpt lat="31.197294199932262" lon="-4.04345169322939"><ele>729.8</ele><time>2026-04-30T12:06:26.999Z</time></trkpt><trkpt lat="31.197268677531426" lon="-4.043313658654703"><ele>730.0</ele><time>2026-04-30T12:06:27.999Z</time></trkpt><trkpt lat="31.19724175562354" lon="-4.0431691535866605"><ele>729.0</ele><time>2026-04-30T12:06:28.999Z</time></trkpt><trkpt lat="31.197202485757888" lon="-4.043053994241834"><ele>728.0</ele><time>2026-04-30T12:06:29.999Z</time></trkpt><trkpt lat="31.19718004888524" lon="-4.042923151704715"><ele>727.0</ele><time>2026-04-30T12:06:30.999Z</time></trkpt><trkpt lat="31.197164561376916" lon="-4.042786915683263"><ele>726.0</ele><time>2026-04-30T12:06:31.999Z</time></trkpt><trkpt lat="31.197143863063875" lon="-4.042650905827151"><ele>726.0</ele><time>2026-04-30T12:06:32.999Z</time></trkpt><trkpt lat="31.19711957080805" lon="-4.0424992109611075"><ele>726.0</ele><time>2026-04-30T12:06:33.999Z</time></trkpt><trkpt lat="31.197088282539205" lon="-4.042340829014387"><ele>726.0</ele><time>2026-04-30T12:06:34.999Z</time></trkpt><trkpt lat="31.19705727254837" lon="-4.042174092306548"><ele>726.0</ele><time>2026-04-30T12:06:35.999Z</time></trkpt><trkpt lat="31.19702816556424" lon="-4.042007943918362"><ele>727.0</ele><time>2026-04-30T12:06:36.999Z</time></trkpt><trkpt lat="31.196998606842268" lon="-4.041832575372808"><ele>728.0</ele><time>2026-04-30T12:06:37.999Z</time></trkpt><trkpt lat="31.196968293679603" lon="-4.041658577590911"><ele>729.0</ele><time>2026-04-30T12:06:38.999Z</time></trkpt><trkpt lat="31.196936574426772" lon="-4.0414891662713135"><ele>729.5</ele><time>2026-04-30T12:06:39.999Z</time></trkpt><trkpt lat="31.19690818117543" lon="-4.04132239305824"><ele>730.0</ele><time>2026-04-30T12:06:40.999Z</time></trkpt><trkpt lat="31.196881455314845" lon="-4.0411587191948035"><ele>730.5</ele><time>2026-04-30T12:06:41.999Z</time></trkpt><trkpt lat="31.196857446780506" lon="-4.040997996019682"><ele>731.0</ele><time>2026-04-30T12:06:42.999Z</time></trkpt><trkpt lat="31.19683274801862" lon="-4.040826655573748"><ele>730.75</ele><time>2026-04-30T12:06:43.999Z</time></trkpt><trkpt lat="31.196807930467514" lon="-4.040657244238864"><ele>730.5</ele><time>2026-04-30T12:06:44.999Z</time></trkpt><trkpt lat="31.196783465377994" lon="-4.040488851843934"><ele>730.25</ele><time>2026-04-30T12:06:45.999Z</time></trkpt><trkpt lat="31.196759060956314" lon="-4.040323217463992"><ele>730.0</ele><time>2026-04-30T12:06:46.999Z</time></trkpt><trkpt lat="31.19673374477885" lon="-4.040152803849775"><ele>730.0</ele><time>2026-04-30T12:06:47.999Z</time></trkpt><trkpt lat="31.196707010041578" lon="-4.0399805525650585"><ele>730.0</ele><time>2026-04-30T12:06:48.999Z</time></trkpt><trkpt lat="31.196682601094196" lon="-4.039816504702115"><ele>730.0</ele><time>2026-04-30T12:06:49.999Z</time></trkpt><trkpt lat="31.19665561969828" lon="-4.039658378468813"><ele>730.0</ele><time>2026-04-30T12:06:50.999Z</time></trkpt><trkpt lat="31.19662582810767" lon="-4.039499658394223"><ele>729.75</ele><time>2026-04-30T12:06:51.999Z</time></trkpt><trkpt lat="31.196603280065524" lon="-4.039351065800541"><ele>729.5</ele><time>2026-04-30T12:06:52.999Z</time></trkpt><trkpt lat="31.196579113751824" lon="-4.0391933506254585"><ele>729.25</ele><time>2026-04-30T12:06:53.999Z</time></trkpt><trkpt lat="31.196557204132535" lon="-4.03903628373955"><ele>729.0</ele><time>2026-04-30T12:06:54.999Z</time></trkpt><trkpt lat="31.196533648519093" lon="-4.038878099717717"><ele>729.0</ele><time>2026-04-30T12:06:55.999Z</time></trkpt><trkpt lat="31.19650811711798" lon="-4.038722108402997"><ele>729.0</ele><time>2026-04-30T12:06:56.999Z</time></trkpt><trkpt lat="31.196484033838676" lon="-4.03857019742512"><ele>729.0</ele><time>2026-04-30T12:06:57.999Z</time></trkpt><trkpt lat="31.19646240459696" lon="-4.038419175361775"><ele>729.0</ele><time>2026-04-30T12:06:58.999Z</time></trkpt><trkpt lat="31.196440498486172" lon="-4.038269130688964"><ele>728.75</ele><time>2026-04-30T12:06:59.999Z</time></trkpt><trkpt lat="31.196419585046833" lon="-4.038120503580472"><ele>728.5</ele><time>2026-04-30T12:07:00.999Z</time></trkpt><trkpt lat="31.196399943063753" lon="-4.0379719237523535"><ele>728.25</ele><time>2026-04-30T12:07:01.999Z</time></trkpt><trkpt lat="31.196376976467583" lon="-4.037821370375873"><ele>728.0</ele><time>2026-04-30T12:07:02.999Z</time></trkpt><trkpt lat="31.196353029514054" lon="-4.037668370413988"><ele>728.0</ele><time>2026-04-30T12:07:03.999Z</time></trkpt><trkpt lat="31.196329618191932" lon="-4.037514124684959"><ele>728.0</ele><time>2026-04-30T12:07:04.999Z</time></trkpt><trkpt lat="31.196304151589615" lon="-4.037361058661132"><ele>728.0</ele><time>2026-04-30T12:07:05.999Z</time></trkpt><trkpt lat="31.19627751682979" lon="-4.037201862312441"><ele>728.0</ele><time>2026-04-30T12:07:06.999Z</time></trkpt><trkpt lat="31.196257017057572" lon="-4.0370445444628595"><ele>728.0</ele><time>2026-04-30T12:07:07.999Z</time></trkpt><trkpt lat="31.196232108468063" lon="-4.036880912488864"><ele>728.0</ele><time>2026-04-30T12:07:08.999Z</time></trkpt><trkpt lat="31.196208640872754" lon="-4.036726745904343"><ele>728.0</ele><time>2026-04-30T12:07:10Z</time></trkpt><trkpt lat="31.19618854957272" lon="-4.0365761685638"><ele>728.0</ele><time>2026-04-30T12:07:11Z</time></trkpt><trkpt lat="31.196165197818633" lon="-4.036418375969937"><ele>728.0</ele><time>2026-04-30T12:07:12Z</time></trkpt><trkpt lat="31.19614192506664" lon="-4.036266736073704"><ele>728.0</ele><time>2026-04-30T12:07:13Z</time></trkpt><trkpt lat="31.19611726279834" lon="-4.0361137547806365"><ele>728.0</ele><time>2026-04-30T12:07:14Z</time></trkpt><trkpt lat="31.19609519496501" lon="-4.035960215815818"><ele>728.0</ele><time>2026-04-30T12:07:15Z</time></trkpt><trkpt lat="31.196072460620698" lon="-4.035806818935508"><ele>728.25</ele><time>2026-04-30T12:07:16Z</time></trkpt><trkpt lat="31.19604857683529" lon="-4.035669105024045"><ele>728.5</ele><time>2026-04-30T12:07:17Z</time></trkpt><trkpt lat="31.196021264137492" lon="-4.035527218550884"><ele>728.75</ele><time>2026-04-30T12:07:18Z</time></trkpt><trkpt lat="31.19599950562885" lon="-4.035381647472335"><ele>729.0</ele><time>2026-04-30T12:07:19Z</time></trkpt><trkpt lat="31.19598046126774" lon="-4.035231437348276"><ele>729.0</ele><time>2026-04-30T12:07:20Z</time></trkpt><trkpt lat="31.19596454140631" lon="-4.035078971173784"><ele>729.0</ele><time>2026-04-30T12:07:21Z</time></trkpt><trkpt lat="31.195947479733988" lon="-4.034926852857548"><ele>729.0</ele><time>2026-04-30T12:07:22Z</time></trkpt><trkpt lat="31.195923532509735" lon="-4.034768324454032"><ele>729.0</ele><time>2026-04-30T12:07:23Z</time></trkpt><trkpt lat="31.195891680029167" lon="-4.034611032616165"><ele>728.75</ele><time>2026-04-30T12:07:24Z</time></trkpt><trkpt lat="31.19586272945657" lon="-4.0344672840591675"><ele>728.5</ele><time>2026-04-30T12:07:25Z</time></trkpt><trkpt lat="31.195837991535996" lon="-4.034324906391781"><ele>728.25</ele><time>2026-04-30T12:07:26Z</time></trkpt><trkpt lat="31.195818153490443" lon="-4.034182261976881"><ele>728.0</ele><time>2026-04-30T12:07:27Z</time></trkpt><trkpt lat="31.19579931198387" lon="-4.034044311368586"><ele>728.0</ele><time>2026-04-30T12:07:28Z</time></trkpt><trkpt lat="31.195781080159954" lon="-4.033898550130234"><ele>728.0</ele><time>2026-04-30T12:07:29Z</time></trkpt><trkpt lat="31.195760444111368" lon="-4.033764214647551"><ele>728.0</ele><time>2026-04-30T12:07:30Z</time></trkpt><trkpt lat="31.195737111836593" lon="-4.033626873086358"><ele>728.0</ele><time>2026-04-30T12:07:31Z</time></trkpt><trkpt lat="31.195721151885547" lon="-4.033493614790403"><ele>728.0</ele><time>2026-04-30T12:07:32Z</time></trkpt><trkpt lat="31.19570044395045" lon="-4.033358752793165"><ele>728.0</ele><time>2026-04-30T12:07:33Z</time></trkpt><trkpt lat="31.195674076750628" lon="-4.03322308138323"><ele>728.0</ele><time>2026-04-30T12:07:34Z</time></trkpt><trkpt lat="31.19565043836813" lon="-4.033091762382009"><ele>728.0</ele><time>2026-04-30T12:07:35Z</time></trkpt><trkpt lat="31.19563026525674" lon="-4.03296995961009"><ele>728.0</ele><time>2026-04-30T12:07:36Z</time></trkpt><trkpt lat="31.195614993326288" lon="-4.032857482713903"><ele>728.0</ele><time>2026-04-30T12:07:37Z</time></trkpt><trkpt lat="31.195596457857622" lon="-4.032752908439993"><ele>728.0</ele><time>2026-04-30T12:07:38Z</time></trkpt><trkpt lat="31.19557719453235" lon="-4.0326405391962625"><ele>728.0</ele><time>2026-04-30T12:07:39Z</time></trkpt><trkpt lat="31.195559129272727" lon="-4.032532576250162"><ele>728.0</ele><time>2026-04-30T12:07:40Z</time></trkpt><trkpt lat="31.195544064133372" lon="-4.032431182745348"><ele>728.0</ele><time>2026-04-30T12:07:41Z</time></trkpt><trkpt lat="31.19552571427052" lon="-4.032328139694711"><ele>728.0</ele><time>2026-04-30T12:07:42Z</time></trkpt><trkpt lat="31.195509922240525" lon="-4.03223283145594"><ele>728.0</ele><time>2026-04-30T12:07:43Z</time></trkpt><trkpt lat="31.19549718286296" lon="-4.032139886312909"><ele>728.0</ele><time>2026-04-30T12:07:44Z</time></trkpt><trkpt lat="31.195487013842975" lon="-4.032055991664988"><ele>728.0</ele><time>2026-04-30T12:07:45Z</time></trkpt><trkpt lat="31.195471649148786" lon="-4.0319816740851335"><ele>728.0</ele><time>2026-04-30T12:07:46Z</time></trkpt><trkpt lat="31.195394646079144" lon="-4.031886635296508"><ele>728.0</ele><time>2026-04-30T12:07:48Z</time></trkpt><trkpt lat="31.195286947281666" lon="-4.031887107694285"><ele>728.0</ele><time>2026-04-30T12:07:50Z</time></trkpt><trkpt lat="31.195222285795253" lon="-4.031917179503843"><ele>728.0</ele><time>2026-04-30T12:07:51Z</time></trkpt><trkpt lat="31.195152066799817" lon="-4.031943398547576"><ele>728.0</ele><time>2026-04-30T12:07:52Z</time></trkpt><trkpt lat="31.19507295474237" lon="-4.031956457706756"><ele>728.0</ele><time>2026-04-30T12:07:53Z</time></trkpt><trkpt lat="31.19499104344105" lon="-4.0319539923746355"><ele>728.0</ele><time>2026-04-30T12:07:54Z</time></trkpt><trkpt lat="31.194917073050746" lon="-4.031936528346635"><ele>728.0</ele><time>2026-04-30T12:07:55Z</time></trkpt><trkpt lat="31.194841037147373" lon="-4.031920121217724"><ele>728.0</ele><time>2026-04-30T12:07:56Z</time></trkpt><trkpt lat="31.194755091985883" lon="-4.031924036568936"><ele>728.0</ele><time>2026-04-30T12:07:57Z</time></trkpt><trkpt lat="31.194664766335045" lon="-4.031942558632782"><ele>728.0</ele><time>2026-04-30T12:07:58Z</time></trkpt><trkpt lat="31.194578785094624" lon="-4.031971058145475"><ele>728.0</ele><time>2026-04-30T12:07:59Z</time></trkpt><trkpt lat="31.194489296302564" lon="-4.031990122098701"><ele>728.0</ele><time>2026-04-30T12:08:00Z</time></trkpt><trkpt lat="31.194394508977844" lon="-4.032005011011412"><ele>727.8</ele><time>2026-04-30T12:08:01Z</time></trkpt><trkpt lat="31.194296726668195" lon="-4.032015369990192"><ele>727.5999999999999</ele><time>2026-04-30T12:08:02Z</time></trkpt><trkpt lat="31.194193949642425" lon="-4.032025073171482"><ele>727.4000000000001</ele><time>2026-04-30T12:08:03Z</time></trkpt><trkpt lat="31.19409257069662" lon="-4.032042761667346"><ele>727.2</ele><time>2026-04-30T12:08:04Z</time></trkpt><trkpt lat="31.193998202741398" lon="-4.032059550671232"><ele>727.0</ele><time>2026-04-30T12:08:05Z</time></trkpt><trkpt lat="31.193902664345053" lon="-4.032072013364787"><ele>727.0</ele><time>2026-04-30T12:08:06Z</time></trkpt><trkpt lat="31.19380549796938" lon="-4.032094496749361"><ele>727.0</ele><time>2026-04-30T12:08:07Z</time></trkpt><trkpt lat="31.193717673940363" lon="-4.032118444965642"><ele>727.0</ele><time>2026-04-30T12:08:08Z</time></trkpt><trkpt lat="31.1936215756695" lon="-4.03215367708454"><ele>727.0</ele><time>2026-04-30T12:08:09Z</time></trkpt><trkpt lat="31.193515222620814" lon="-4.032187922635824"><ele>727.0</ele><time>2026-04-30T12:08:10Z</time></trkpt><trkpt lat="31.19339871496517" lon="-4.032226486484431"><ele>727.0</ele><time>2026-04-30T12:08:11Z</time></trkpt><trkpt lat="31.193281539499587" lon="-4.032266385419494"><ele>727.0</ele><time>2026-04-30T12:08:12Z</time></trkpt><trkpt lat="31.193179419410324" lon="-4.032288984878525"><ele>727.0</ele><time>2026-04-30T12:08:13Z</time></trkpt><trkpt lat="31.193076285893433" lon="-4.032322343286659"><ele>727.0</ele><time>2026-04-30T12:08:14Z</time></trkpt><trkpt lat="31.192972376536215" lon="-4.032355489063222"><ele>727.0</ele><time>2026-04-30T12:08:15Z</time></trkpt><trkpt lat="31.19285792814217" lon="-4.0323884513286"><ele>726.0</ele><time>2026-04-30T12:08:16Z</time></trkpt><trkpt lat="31.192743304535917" lon="-4.032424247777209"><ele>725.0</ele><time>2026-04-30T12:08:17Z</time></trkpt><trkpt lat="31.192625392902812" lon="-4.032463140716217"><ele>724.0</ele><time>2026-04-30T12:08:18Z</time></trkpt><trkpt lat="31.192499679845415" lon="-4.032505102397247"><ele>723.0</ele><time>2026-04-30T12:08:19Z</time></trkpt><trkpt lat="31.19238185106643" lon="-4.032533855558317"><ele>723.0</ele><time>2026-04-30T12:08:20Z</time></trkpt><trkpt lat="31.192266282921526" lon="-4.032559005051052"><ele>723.0</ele><time>2026-04-30T12:08:21Z</time></trkpt><trkpt lat="31.192147096812704" lon="-4.032572985455453"><ele>723.0</ele><time>2026-04-30T12:08:22Z</time></trkpt><trkpt lat="31.19203240120838" lon="-4.032580499357628"><ele>723.0</ele><time>2026-04-30T12:08:23Z</time></trkpt><trkpt lat="31.191914486634513" lon="-4.032583632101362"><ele>723.0</ele><time>2026-04-30T12:08:23.999Z</time></trkpt><trkpt lat="31.191792954271783" lon="-4.032580907699599"><ele>723.0</ele><time>2026-04-30T12:08:24.999Z</time></trkpt><trkpt lat="31.19167473805012" lon="-4.032571039569444"><ele>723.0</ele><time>2026-04-30T12:08:25.999Z</time></trkpt><trkpt lat="31.191557464197132" lon="-4.032557218613255"><ele>723.0</ele><time>2026-04-30T12:08:26.999Z</time></trkpt><trkpt lat="31.191437015242766" lon="-4.032537533137761"><ele>724.25</ele><time>2026-04-30T12:08:27.999Z</time></trkpt><trkpt lat="31.191316060509966" lon="-4.032511715319122"><ele>725.5</ele><time>2026-04-30T12:08:28.999Z</time></trkpt><trkpt lat="31.191195178039944" lon="-4.032497215258389"><ele>726.75</ele><time>2026-04-30T12:08:29.999Z</time></trkpt><trkpt lat="31.191076723144633" lon="-4.032498276987575"><ele>728.0</ele><time>2026-04-30T12:08:30.999Z</time></trkpt><trkpt lat="31.19096096970258" lon="-4.03251364286247"><ele>728.0</ele><time>2026-04-30T12:08:31.999Z</time></trkpt><trkpt lat="31.190845584396765" lon="-4.032541791966513"><ele>728.0</ele><time>2026-04-30T12:08:32.999Z</time></trkpt><trkpt lat="31.190725345496308" lon="-4.0325754175790225"><ele>728.0</ele><time>2026-04-30T12:08:33.999Z</time></trkpt><trkpt lat="31.19060618898771" lon="-4.0326041272867785"><ele>728.0</ele><time>2026-04-30T12:08:34.999Z</time></trkpt><trkpt lat="31.190493437522925" lon="-4.032631175051384"><ele>727.75</ele><time>2026-04-30T12:08:35.999Z</time></trkpt><trkpt lat="31.190368281953265" lon="-4.032653297800791"><ele>727.5</ele><time>2026-04-30T12:08:36.999Z</time></trkpt><trkpt lat="31.19024685302182" lon="-4.032664621817395"><ele>727.25</ele><time>2026-04-30T12:08:37.999Z</time></trkpt><trkpt lat="31.190122295978558" lon="-4.032670101101406"><ele>727.0</ele><time>2026-04-30T12:08:38.999Z</time></trkpt><trkpt lat="31.190002535828512" lon="-4.032678873681101"><ele>727.0</ele><time>2026-04-30T12:08:39.999Z</time></trkpt><trkpt lat="31.189882987784056" lon="-4.0326883487747285"><ele>727.0</ele><time>2026-04-30T12:08:40.999Z</time></trkpt><trkpt lat="31.189760067071695" lon="-4.032694792180421"><ele>727.0</ele><time>2026-04-30T12:08:41.999Z</time></trkpt><trkpt lat="31.189634252110494" lon="-4.032691862592571"><ele>727.0</ele><time>2026-04-30T12:08:42.999Z</time></trkpt><trkpt lat="31.18950534719536" lon="-4.03268713608666"><ele>727.0</ele><time>2026-04-30T12:08:43.999Z</time></trkpt><trkpt lat="31.18937545730317" lon="-4.032691311491368"><ele>727.0</ele><time>2026-04-30T12:08:45Z</time></trkpt><trkpt lat="31.189244942246216" lon="-4.032701139975434"><ele>727.0</ele><time>2026-04-30T12:08:46Z</time></trkpt><trkpt lat="31.18911732195647" lon="-4.032709648241223"><ele>727.0</ele><time>2026-04-30T12:08:47Z</time></trkpt><trkpt lat="31.188987771859953" lon="-4.032714344496296"><ele>726.5</ele><time>2026-04-30T12:08:48Z</time></trkpt><trkpt lat="31.18886242145145" lon="-4.032718730865219"><ele>726.0</ele><time>2026-04-30T12:08:49Z</time></trkpt><trkpt lat="31.18873607706333" lon="-4.032729604770225"><ele>725.5</ele><time>2026-04-30T12:08:50Z</time></trkpt><trkpt lat="31.188609393260283" lon="-4.0327415139628044"><ele>725.0</ele><time>2026-04-30T12:08:51Z</time></trkpt><trkpt lat="31.188489392148472" lon="-4.03275778551354"><ele>725.0</ele><time>2026-04-30T12:08:52Z</time></trkpt><trkpt lat="31.18837923901979" lon="-4.0327657654349505"><ele>725.0</ele><time>2026-04-30T12:08:53Z</time></trkpt><trkpt lat="31.188267458400535" lon="-4.0327741623224735"><ele>725.0</ele><time>2026-04-30T12:08:54Z</time></trkpt><trkpt lat="31.18814662589268" lon="-4.032793647637809"><ele>725.0</ele><time>2026-04-30T12:08:55Z</time></trkpt><trkpt lat="31.18802428925466" lon="-4.032810377611071"><ele>724.5</ele><time>2026-04-30T12:08:56Z</time></trkpt><trkpt lat="31.18789554421601" lon="-4.032818067761785"><ele>724.0</ele><time>2026-04-30T12:08:57Z</time></trkpt><trkpt lat="31.18778753379292" lon="-4.032821845572293"><ele>723.5</ele><time>2026-04-30T12:08:58Z</time></trkpt><trkpt lat="31.18766024352816" lon="-4.032822641791273"><ele>723.0</ele><time>2026-04-30T12:08:59Z</time></trkpt><trkpt lat="31.18754352756636" lon="-4.03281576178145"><ele>723.0</ele><time>2026-04-30T12:09:00Z</time></trkpt><trkpt lat="31.187421084368648" lon="-4.032810787949925"><ele>723.0</ele><time>2026-04-30T12:09:01Z</time></trkpt><trkpt lat="31.18730077579986" lon="-4.03281003879822"><ele>723.0</ele><time>2026-04-30T12:09:02Z</time></trkpt><trkpt lat="31.187178741433083" lon="-4.032812429704175"><ele>723.0</ele><time>2026-04-30T12:09:03Z</time></trkpt><trkpt lat="31.187055891293916" lon="-4.0328153920620675"><ele>723.25</ele><time>2026-04-30T12:09:04Z</time></trkpt><trkpt lat="31.186932103909687" lon="-4.032818199891717"><ele>723.5</ele><time>2026-04-30T12:09:05Z</time></trkpt><trkpt lat="31.18681229165389" lon="-4.032818144340056"><ele>723.75</ele><time>2026-04-30T12:09:06Z</time></trkpt><trkpt lat="31.18668587692831" lon="-4.0328225492476335"><ele>724.0</ele><time>2026-04-30T12:09:07Z</time></trkpt><trkpt lat="31.186560482324804" lon="-4.032820182451224"><ele>724.0</ele><time>2026-04-30T12:09:08Z</time></trkpt><trkpt lat="31.18643859732378" lon="-4.03281541099079"><ele>724.0</ele><time>2026-04-30T12:09:09Z</time></trkpt><trkpt lat="31.186312873596" lon="-4.032813903784498"><ele>724.0</ele><time>2026-04-30T12:09:10Z</time></trkpt><trkpt lat="31.18618708146868" lon="-4.032812777114501"><ele>724.0</ele><time>2026-04-30T12:09:11Z</time></trkpt><trkpt lat="31.18606099863884" lon="-4.032809328989153"><ele>724.0</ele><time>2026-04-30T12:09:12Z</time></trkpt><trkpt lat="31.18593314555848" lon="-4.032808661596693"><ele>724.0</ele><time>2026-04-30T12:09:13Z</time></trkpt><trkpt lat="31.18580844123887" lon="-4.032800987627369"><ele>724.0</ele><time>2026-04-30T12:09:14Z</time></trkpt><trkpt lat="31.185690402367207" lon="-4.0327862484414005"><ele>724.0</ele><time>2026-04-30T12:09:15Z</time></trkpt><trkpt lat="31.18557107531171" lon="-4.0327807362140025"><ele>723.75</ele><time>2026-04-30T12:09:16Z</time></trkpt><trkpt lat="31.185453157615527" lon="-4.032779324132732"><ele>723.5</ele><time>2026-04-30T12:09:17Z</time></trkpt><trkpt lat="31.18533907430419" lon="-4.032775750271816"><ele>723.25</ele><time>2026-04-30T12:09:18Z</time></trkpt><trkpt lat="31.18522955139591" lon="-4.032772557709221"><ele>723.0</ele><time>2026-04-30T12:09:19Z</time></trkpt><trkpt lat="31.18511341296897" lon="-4.032763421395069"><ele>723.0</ele><time>2026-04-30T12:09:20Z</time></trkpt><trkpt lat="31.184998016962616" lon="-4.032765646682166"><ele>723.0</ele><time>2026-04-30T12:09:21Z</time></trkpt><trkpt lat="31.184883021738624" lon="-4.032781101921216"><ele>723.0</ele><time>2026-04-30T12:09:22Z</time></trkpt><trkpt lat="31.184770336074596" lon="-4.032801304754255"><ele>723.0</ele><time>2026-04-30T12:09:23Z</time></trkpt><trkpt lat="31.184660641487273" lon="-4.032820860506121"><ele>723.8</ele><time>2026-04-30T12:09:24Z</time></trkpt><trkpt lat="31.184554340569207" lon="-4.032837992110163"><ele>724.5999999999999</ele><time>2026-04-30T12:09:25Z</time></trkpt><trkpt lat="31.184447325868145" lon="-4.03285659965208"><ele>725.4000000000001</ele><time>2026-04-30T12:09:26Z</time></trkpt><trkpt lat="31.184350388488653" lon="-4.0328688583366405"><ele>726.2</ele><time>2026-04-30T12:09:27Z</time></trkpt><trkpt lat="31.18426488784007" lon="-4.032874874981244"><ele>727.0</ele><time>2026-04-30T12:09:28Z</time></trkpt><trkpt lat="31.184170324263402" lon="-4.032866859486744"><ele>727.0</ele><time>2026-04-30T12:09:29Z</time></trkpt><trkpt lat="31.184080876997847" lon="-4.03285463701169"><ele>727.0</ele><time>2026-04-30T12:09:30Z</time></trkpt><trkpt lat="31.183994425836715" lon="-4.03285876005714"><ele>727.0</ele><time>2026-04-30T12:09:31Z</time></trkpt><trkpt lat="31.183916602358632" lon="-4.032804778465173"><ele>727.0</ele><time>2026-04-30T12:09:32Z</time></trkpt><trkpt lat="31.18383631948311" lon="-4.032780108118947"><ele>727.0</ele><time>2026-04-30T12:09:33Z</time></trkpt><trkpt lat="31.18375709622109" lon="-4.03276302606383"><ele>727.0</ele><time>2026-04-30T12:09:34Z</time></trkpt><trkpt lat="31.183677880768546" lon="-4.032747699750306"><ele>726.8333333333334</ele><time>2026-04-30T12:09:35Z</time></trkpt><trkpt lat="31.183597660003784" lon="-4.032736381105627"><ele>726.6666666666667</ele><time>2026-04-30T12:09:36Z</time></trkpt><trkpt lat="31.183518759736" lon="-4.032721905482137"><ele>726.5</ele><time>2026-04-30T12:09:37Z</time></trkpt><trkpt lat="31.183441800843802" lon="-4.0327098326349216"><ele>726.3333333333334</ele><time>2026-04-30T12:09:38Z</time></trkpt><trkpt lat="31.183370483674324" lon="-4.03269659640418"><ele>726.1666666666666</ele><time>2026-04-30T12:09:39Z</time></trkpt><trkpt lat="31.18330125697827" lon="-4.0326796917590935"><ele>726.0</ele><time>2026-04-30T12:09:40Z</time></trkpt><trkpt lat="31.183233008066154" lon="-4.03267136349933"><ele>726.8</ele><time>2026-04-30T12:09:41Z</time></trkpt><trkpt lat="31.18310720105373" lon="-4.032666168087928"><ele>727.5999999999999</ele><time>2026-04-30T12:09:43Z</time></trkpt><trkpt lat="31.183041476828855" lon="-4.0326615961138526"><ele>728.4</ele><time>2026-04-30T12:09:44Z</time></trkpt><trkpt lat="31.18292600767285" lon="-4.0326424773728915"><ele>729.2</ele><time>2026-04-30T12:09:46Z</time></trkpt><trkpt lat="31.182841977525957" lon="-4.0326034128061865"><ele>730.0</ele><time>2026-04-30T12:09:48Z</time></trkpt><trkpt lat="31.18279174514145" lon="-4.032532533249935"><ele>729.6666666666667</ele><time>2026-04-30T12:09:50Z</time></trkpt><trkpt lat="31.182780923864065" lon="-4.032438937599214"><ele>729.3333333333334</ele><time>2026-04-30T12:09:52Z</time></trkpt><trkpt lat="31.182796460099443" lon="-4.032351324099559"><ele>729.0</ele><time>2026-04-30T12:09:54Z</time></trkpt><trkpt lat="31.18281783810778" lon="-4.032254054926639"><ele>728.6666666666666</ele><time>2026-04-30T12:09:56Z</time></trkpt><trkpt lat="31.182839343553788" lon="-4.032158279147895"><ele>728.3333333333333</ele><time>2026-04-30T12:09:58Z</time></trkpt><trkpt lat="31.18285511867122" lon="-4.03205720237302"><ele>728.0</ele><time>2026-04-30T12:10:00Z</time></trkpt><trkpt lat="31.182870165795674" lon="-4.031978879849216"><ele>728.0</ele><time>2026-04-30T12:10:02Z</time></trkpt><trkpt lat="31.182878238963166" lon="-4.031888413465293"><ele>728.0</ele><time>2026-04-30T12:10:06Z</time></trkpt><trkpt lat="31.18287323220269" lon="-4.031798166593209"><ele>728.0</ele><time>2026-04-30T12:10:09Z</time></trkpt><trkpt lat="31.182882311685628" lon="-4.031724655605981"><ele>728.0</ele><time>2026-04-30T12:10:15Z</time></trkpt><trkpt lat="31.182900794669912" lon="-4.031643993551883"><ele>728.0</ele><time>2026-04-30T12:10:18Z</time></trkpt><trkpt lat="31.182827485437574" lon="-4.031613176934268"><ele>728.0</ele><time>2026-04-30T12:10:22Z</time></trkpt><trkpt lat="31.182861795246055" lon="-4.03167601968292"><ele>728.0</ele><time>2026-04-30T12:11:25Z</time></trkpt><trkpt lat="31.18284838314141" lon="-4.03175236355922"><ele>728.0</ele><time>2026-04-30T12:11:31Z</time></trkpt><trkpt lat="31.18278690792867" lon="-4.031784073053904"><ele>728.0</ele><time>2026-04-30T12:11:39Z</time></trkpt><trkpt lat="31.18271970713724" lon="-4.031781854349063"><ele>728.0</ele><time>2026-04-30T12:11:48Z</time></trkpt><trkpt lat="31.18264229501089" lon="-4.031788700413943"><ele>728.0</ele><time>2026-04-30T12:11:56Z</time></trkpt><trkpt lat="31.18262076867485" lon="-4.031695148966534"><ele>728.0</ele><time>2026-04-30T12:12:05Z</time></trkpt><trkpt lat="31.182665529617726" lon="-4.031750075506561"><ele>728.0</ele><time>2026-04-30T12:13:15Z</time></trkpt><trkpt lat="31.182730273660066" lon="-4.031747619673246"><ele>728.0</ele><time>2026-04-30T12:13:22Z</time></trkpt><trkpt lat="31.182798274093653" lon="-4.031747413575695"><ele>728.0</ele><time>2026-04-30T12:13:28Z</time></trkpt><trkpt lat="31.182859740708636" lon="-4.031721191096171"><ele>728.0</ele><time>2026-04-30T12:13:35Z</time></trkpt><trkpt lat="31.182878812293318" lon="-4.031639854150068"><ele>728.0</ele><time>2026-04-30T12:13:41Z</time></trkpt><trkpt lat="31.182887234249346" lon="-4.031730673308376"><ele>728.0</ele><time>2026-04-30T12:15:25Z</time></trkpt><trkpt lat="31.18289226481682" lon="-4.031869034330488"><ele>728.0</ele><time>2026-04-30T12:15:27Z</time></trkpt><trkpt lat="31.18289244605074" lon="-4.032008388611251"><ele>728.0</ele><time>2026-04-30T12:15:29Z</time></trkpt><trkpt lat="31.18285671588268" lon="-4.032147268524413"><ele>728.0</ele><time>2026-04-30T12:15:31Z</time></trkpt><trkpt lat="31.182841135187054" lon="-4.032218846753515"><ele>728.0</ele><time>2026-04-30T12:15:32Z</time></trkpt><trkpt lat="31.182827266078952" lon="-4.032294968500222"><ele>728.0</ele><time>2026-04-30T12:15:33Z</time></trkpt><trkpt lat="31.182801711570075" lon="-4.032433479381533"><ele>728.0</ele><time>2026-04-30T12:15:35Z</time></trkpt><trkpt lat="31.18276529308724" lon="-4.032576450892665"><ele>728.3333333333333</ele><time>2026-04-30T12:15:37Z</time></trkpt><trkpt lat="31.182737005919563" lon="-4.032648904294253"><ele>728.6666666666666</ele><time>2026-04-30T12:15:38Z</time></trkpt><trkpt lat="31.182688149122843" lon="-4.032720764600189"><ele>729.0</ele><time>2026-04-30T12:15:39Z</time></trkpt><trkpt lat="31.18262559631325" lon="-4.032781526261121"><ele>729.3333333333334</ele><time>2026-04-30T12:15:40Z</time></trkpt><trkpt lat="31.18255327273034" lon="-4.032834697335401"><ele>729.6666666666667</ele><time>2026-04-30T12:15:41Z</time></trkpt><trkpt lat="31.182476654415296" lon="-4.032884655604403"><ele>730.0</ele><time>2026-04-30T12:15:42Z</time></trkpt><trkpt lat="31.182410414967716" lon="-4.032938648940907"><ele>730.0</ele><time>2026-04-30T12:15:43Z</time></trkpt><trkpt lat="31.18235269121927" lon="-4.033001065423486"><ele>730.0</ele><time>2026-04-30T12:15:44Z</time></trkpt><trkpt lat="31.182291452801092" lon="-4.033066221748911"><ele>730.0</ele><time>2026-04-30T12:15:45Z</time></trkpt><trkpt lat="31.182237746138107" lon="-4.033140777638023"><ele>730.0</ele><time>2026-04-30T12:15:46Z</time></trkpt><trkpt lat="31.182190796936005" lon="-4.033205741497672"><ele>730.0</ele><time>2026-04-30T12:15:47Z</time></trkpt><trkpt lat="31.182142246974717" lon="-4.033264942948343"><ele>730.0</ele><time>2026-04-30T12:15:48Z</time></trkpt><trkpt lat="31.182075653580316" lon="-4.033319763758826"><ele>730.0</ele><time>2026-04-30T12:15:49Z</time></trkpt><trkpt lat="31.182001891050305" lon="-4.03336677161659"><ele>730.0</ele><time>2026-04-30T12:15:50Z</time></trkpt><trkpt lat="31.181920254530773" lon="-4.033393176741921"><ele>730.0</ele><time>2026-04-30T12:15:51Z</time></trkpt><trkpt lat="31.18183379476953" lon="-4.033407535898952"><ele>730.0</ele><time>2026-04-30T12:15:52Z</time></trkpt><trkpt lat="31.181736735712896" lon="-4.033406900924406"><ele>730.0</ele><time>2026-04-30T12:15:53Z</time></trkpt><trkpt lat="31.18164704733779" lon="-4.033393292452479"><ele>730.0</ele><time>2026-04-30T12:15:54Z</time></trkpt><trkpt lat="31.1815566755553" lon="-4.033372840980805"><ele>727.5</ele><time>2026-04-30T12:15:55Z</time></trkpt><trkpt lat="31.181177649624367" lon="-4.033387045559668"><ele>725.0</ele><time>2026-04-30T12:15:59Z</time></trkpt><trkpt lat="31.181086258662013" lon="-4.0333990212651685"><ele>725.0</ele><time>2026-04-30T12:16:00Z</time></trkpt><trkpt lat="31.181002286336845" lon="-4.033412711130923"><ele>725.0</ele><time>2026-04-30T12:16:01Z</time></trkpt><trkpt lat="31.180923637532057" lon="-4.033430607570682"><ele>725.0</ele><time>2026-04-30T12:16:02Z</time></trkpt><trkpt lat="31.180833820135305" lon="-4.033456345456564"><ele>725.0</ele><time>2026-04-30T12:16:03Z</time></trkpt><trkpt lat="31.180730706089168" lon="-4.033471256171014"><ele>725.0</ele><time>2026-04-30T12:16:04Z</time></trkpt><trkpt lat="31.180621950604046" lon="-4.033494189020593"><ele>725.75</ele><time>2026-04-30T12:16:05Z</time></trkpt><trkpt lat="31.18050782486551" lon="-4.033511921195525"><ele>726.5</ele><time>2026-04-30T12:16:06Z</time></trkpt><trkpt lat="31.180404788731362" lon="-4.033526713483279"><ele>727.25</ele><time>2026-04-30T12:16:07Z</time></trkpt><trkpt lat="31.180296785834244" lon="-4.033544827701743"><ele>728.0</ele><time>2026-04-30T12:16:08Z</time></trkpt><trkpt lat="31.18017827412824" lon="-4.0333768372318195"><ele>728.0</ele><time>2026-04-30T12:16:09Z</time></trkpt><trkpt lat="31.180072383239644" lon="-4.03338619789874"><ele>728.0</ele><time>2026-04-30T12:16:10Z</time></trkpt><trkpt lat="31.17996986396766" lon="-4.033395260522293"><ele>728.0</ele><time>2026-04-30T12:16:11Z</time></trkpt><trkpt lat="31.179862493898664" lon="-4.033404894871244"><ele>728.0</ele><time>2026-04-30T12:16:12Z</time></trkpt><trkpt lat="31.179755011027208" lon="-4.03341480676103"><ele>728.0</ele><time>2026-04-30T12:16:13Z</time></trkpt><trkpt lat="31.179602152451103" lon="-4.033474819912501"><ele>727.25</ele><time>2026-04-30T12:16:14Z</time></trkpt><trkpt lat="31.17949864329114" lon="-4.033520066072265"><ele>726.5</ele><time>2026-04-30T12:16:15Z</time></trkpt><trkpt lat="31.17942223887649" lon="-4.033521788871998"><ele>725.75</ele><time>2026-04-30T12:16:16Z</time></trkpt><trkpt lat="31.179307712508667" lon="-4.033534918489642"><ele>725.0</ele><time>2026-04-30T12:16:17Z</time></trkpt><trkpt lat="31.179173328055057" lon="-4.033664224808951"><ele>725.0</ele><time>2026-04-30T12:16:18Z</time></trkpt><trkpt lat="31.179102683120398" lon="-4.03380173058928"><ele>725.0</ele><time>2026-04-30T12:16:19Z</time></trkpt><trkpt lat="31.17898913805764" lon="-4.033826621512877"><ele>725.0</ele><time>2026-04-30T12:16:20Z</time></trkpt><trkpt lat="31.178883628332095" lon="-4.033862549043872"><ele>725.0</ele><time>2026-04-30T12:16:21Z</time></trkpt><trkpt lat="31.17877021494874" lon="-4.033895067861745"><ele>725.25</ele><time>2026-04-30T12:16:22Z</time></trkpt><trkpt lat="31.17864047662731" lon="-4.033881843770082"><ele>725.5</ele><time>2026-04-30T12:16:23Z</time></trkpt><trkpt lat="31.178523657422712" lon="-4.033925680883623"><ele>725.75</ele><time>2026-04-30T12:16:24Z</time></trkpt><trkpt lat="31.178414237466676" lon="-4.033966523799124"><ele>726.0</ele><time>2026-04-30T12:16:25Z</time></trkpt><trkpt lat="31.17831068517057" lon="-4.034005169519983"><ele>726.0</ele><time>2026-04-30T12:16:26Z</time></trkpt><trkpt lat="31.178204924598553" lon="-4.034044639348797"><ele>726.0</ele><time>2026-04-30T12:16:27Z</time></trkpt><trkpt lat="31.178102234971714" lon="-4.034082963102258"><ele>726.0</ele><time>2026-04-30T12:16:28Z</time></trkpt><trkpt lat="31.177991522914724" lon="-4.034125312411553"><ele>726.0</ele><time>2026-04-30T12:16:29Z</time></trkpt><trkpt lat="31.177883741181933" lon="-4.034166873676466"><ele>726.0</ele><time>2026-04-30T12:16:30Z</time></trkpt><trkpt lat="31.177781883614156" lon="-4.034206150554592"><ele>725.5999999999999</ele><time>2026-04-30T12:16:31Z</time></trkpt><trkpt lat="31.1776799703231" lon="-4.034245448921415"><ele>725.2</ele><time>2026-04-30T12:16:32Z</time></trkpt><trkpt lat="31.177579068034433" lon="-4.0342843940737305"><ele>724.8</ele><time>2026-04-30T12:16:33Z</time></trkpt><trkpt lat="31.177476952349693" lon="-4.034323832035264"><ele>724.4000000000001</ele><time>2026-04-30T12:16:34Z</time></trkpt><trkpt lat="31.177376709447962" lon="-4.03436254671166"><ele>724.0</ele><time>2026-04-30T12:16:35Z</time></trkpt><trkpt lat="31.177275320701213" lon="-4.034401703920433"><ele>724.0</ele><time>2026-04-30T12:16:36Z</time></trkpt><trkpt lat="31.177179588491732" lon="-4.03443835262558"><ele>724.0</ele><time>2026-04-30T12:16:37Z</time></trkpt><trkpt lat="31.177088802450598" lon="-4.034472957937197"><ele>724.0</ele><time>2026-04-30T12:16:38Z</time></trkpt><trkpt lat="31.176989154146973" lon="-4.034511462140575"><ele>724.0</ele><time>2026-04-30T12:16:39Z</time></trkpt><trkpt lat="31.176892965295213" lon="-4.034548572466279"><ele>724.0</ele><time>2026-04-30T12:16:40Z</time></trkpt><trkpt lat="31.17679112612116" lon="-4.034587529578522"><ele>724.0</ele><time>2026-04-30T12:16:41Z</time></trkpt><trkpt lat="31.176691149576488" lon="-4.034626537262183"><ele>724.0</ele><time>2026-04-30T12:16:42Z</time></trkpt><trkpt lat="31.176592598755473" lon="-4.034664988676417"><ele>724.0</ele><time>2026-04-30T12:16:43Z</time></trkpt><trkpt lat="31.176498725706125" lon="-4.034701614969088"><ele>724.0</ele><time>2026-04-30T12:16:44Z</time></trkpt><trkpt lat="31.176400493604866" lon="-4.034739942023217"><ele>724.0</ele><time>2026-04-30T12:16:45Z</time></trkpt><trkpt lat="31.176306411349124" lon="-4.034776649938144"><ele>724.4000000000001</ele><time>2026-04-30T12:16:46Z</time></trkpt><trkpt lat="31.1762116163268" lon="-4.034813635043821"><ele>724.8</ele><time>2026-04-30T12:16:47Z</time></trkpt><trkpt lat="31.176118621122797" lon="-4.03484991882057"><ele>725.2</ele><time>2026-04-30T12:16:48Z</time></trkpt><trkpt lat="31.17604970228378" lon="-4.034871420861131"><ele>725.5999999999999</ele><time>2026-04-30T12:16:49Z</time></trkpt><trkpt lat="31.175955853433024" lon="-4.034897709185695"><ele>726.0</ele><time>2026-04-30T12:16:50Z</time></trkpt><trkpt lat="31.175866094564416" lon="-4.0349232931316035"><ele>726.0</ele><time>2026-04-30T12:16:51Z</time></trkpt><trkpt lat="31.175776383322546" lon="-4.034949321664527"><ele>726.0</ele><time>2026-04-30T12:16:52Z</time></trkpt><trkpt lat="31.175689573904467" lon="-4.034974398146149"><ele>726.0</ele><time>2026-04-30T12:16:53Z</time></trkpt><trkpt lat="31.175605739337588" lon="-4.035003198942166"><ele>726.0</ele><time>2026-04-30T12:16:54Z</time></trkpt><trkpt lat="31.175513121318165" lon="-4.03502022338517"><ele>726.0</ele><time>2026-04-30T12:16:55Z</time></trkpt><trkpt lat="31.175417379105184" lon="-4.035037822472697"><ele>724.5999999999999</ele><time>2026-04-30T12:16:56Z</time></trkpt><trkpt lat="31.175329925647006" lon="-4.035053897946283"><ele>723.2</ele><time>2026-04-30T12:16:57Z</time></trkpt><trkpt lat="31.17523000961003" lon="-4.035072486977135"><ele>721.8</ele><time>2026-04-30T12:16:58Z</time></trkpt><trkpt lat="31.175127859247883" lon="-4.035091719134836"><ele>720.4000000000001</ele><time>2026-04-30T12:16:59Z</time></trkpt><trkpt lat="31.175033933240503" lon="-4.035109441648721"><ele>719.0</ele><time>2026-04-30T12:17:00Z</time></trkpt><trkpt lat="31.174932382181485" lon="-4.0351287468004235"><ele>718.8000000000001</ele><time>2026-04-30T12:17:01Z</time></trkpt><trkpt lat="31.174826568566026" lon="-4.035145487199939"><ele>718.6</ele><time>2026-04-30T12:17:02Z</time></trkpt><trkpt lat="31.174718395032" lon="-4.03516242138841"><ele>718.4</ele><time>2026-04-30T12:17:03Z</time></trkpt><trkpt lat="31.174608346743227" lon="-4.035179803580208"><ele>718.2</ele><time>2026-04-30T12:17:04Z</time></trkpt><trkpt lat="31.17450265908428" lon="-4.035214102622043"><ele>718.0</ele><time>2026-04-30T12:17:05Z</time></trkpt><trkpt lat="31.174394313981306" lon="-4.035219756461916"><ele>718.0</ele><time>2026-04-30T12:17:06Z</time></trkpt><trkpt lat="31.174279078766208" lon="-4.03523322701356"><ele>718.0</ele><time>2026-04-30T12:17:07Z</time></trkpt><trkpt lat="31.17416705268179" lon="-4.035241954860064"><ele>718.0</ele><time>2026-04-30T12:17:08Z</time></trkpt><trkpt lat="31.174061300994307" lon="-4.035258276708894"><ele>718.0</ele><time>2026-04-30T12:17:09Z</time></trkpt><trkpt lat="31.173947680134894" lon="-4.0352758226723635"><ele>718.0</ele><time>2026-04-30T12:17:10Z</time></trkpt><trkpt lat="31.173837036078076" lon="-4.035289129098382"><ele>717.0</ele><time>2026-04-30T12:17:11Z</time></trkpt><trkpt lat="31.173721853616243" lon="-4.0353135175272286"><ele>716.0</ele><time>2026-04-30T12:17:12Z</time></trkpt><trkpt lat="31.17361213829365" lon="-4.035333654893014"><ele>715.0</ele><time>2026-04-30T12:17:13Z</time></trkpt><trkpt lat="31.173497745671497" lon="-4.03535532195315"><ele>714.0</ele><time>2026-04-30T12:17:14Z</time></trkpt><trkpt lat="31.173393285774544" lon="-4.035371437754774"><ele>713.0</ele><time>2026-04-30T12:17:15Z</time></trkpt><trkpt lat="31.17329222063354" lon="-4.03539251902362"><ele>714.2</ele><time>2026-04-30T12:17:16Z</time></trkpt><trkpt lat="31.173187833016133" lon="-4.03540941359879"><ele>715.4</ele><time>2026-04-30T12:17:17Z</time></trkpt><trkpt lat="31.17308630545705" lon="-4.035441586549926"><ele>716.6</ele><time>2026-04-30T12:17:18Z</time></trkpt><trkpt lat="31.17298463273579" lon="-4.035459849024481"><ele>717.8000000000001</ele><time>2026-04-30T12:17:19Z</time></trkpt><trkpt lat="31.1728748656968" lon="-4.035459377478112"><ele>719.0</ele><time>2026-04-30T12:17:20Z</time></trkpt><trkpt lat="31.172773654759613" lon="-4.035476494413573"><ele>719.0</ele><time>2026-04-30T12:17:21Z</time></trkpt><trkpt lat="31.17266982429826" lon="-4.035494558470515"><ele>719.0</ele><time>2026-04-30T12:17:22Z</time></trkpt><trkpt lat="31.17257241744829" lon="-4.035515015407648"><ele>719.0</ele><time>2026-04-30T12:17:23Z</time></trkpt><trkpt lat="31.17248545409278" lon="-4.03553327906328"><ele>719.0</ele><time>2026-04-30T12:17:24Z</time></trkpt><trkpt lat="31.17238535437645" lon="-4.035554301552099"><ele>719.0</ele><time>2026-04-30T12:17:25Z</time></trkpt><trkpt lat="31.17228970357699" lon="-4.035587018993469"><ele>719.8000000000001</ele><time>2026-04-30T12:17:26Z</time></trkpt><trkpt lat="31.172192068545247" lon="-4.035593845008972"><ele>720.6</ele><time>2026-04-30T12:17:27Z</time></trkpt><trkpt lat="31.172097175457157" lon="-4.035615036612757"><ele>721.4</ele><time>2026-04-30T12:17:28Z</time></trkpt><trkpt lat="31.171999024836154" lon="-4.0356314567946"><ele>722.2</ele><time>2026-04-30T12:17:29Z</time></trkpt><trkpt lat="31.171894359487133" lon="-4.035642364136696"><ele>723.0</ele><time>2026-04-30T12:17:30Z</time></trkpt><trkpt lat="31.171811203732886" lon="-4.0356616060573245"><ele>723.0</ele><time>2026-04-30T12:17:31Z</time></trkpt><trkpt lat="31.17170883608669" lon="-4.035679202595765"><ele>723.0</ele><time>2026-04-30T12:17:32Z</time></trkpt><trkpt lat="31.171619129079858" lon="-4.035700353490835"><ele>723.0</ele><time>2026-04-30T12:17:33Z</time></trkpt><trkpt lat="31.171524525881992" lon="-4.03572102445331"><ele>723.0</ele><time>2026-04-30T12:17:34Z</time></trkpt><trkpt lat="31.171425853706474" lon="-4.0357433754348815"><ele>723.0</ele><time>2026-04-30T12:17:35Z</time></trkpt><trkpt lat="31.171328506567598" lon="-4.035765483511327"><ele>723.0</ele><time>2026-04-30T12:17:36Z</time></trkpt><trkpt lat="31.171226754312436" lon="-4.0357865093592515"><ele>723.0</ele><time>2026-04-30T12:17:37Z</time></trkpt><trkpt lat="31.1711247880378" lon="-4.035808457998321"><ele>723.0</ele><time>2026-04-30T12:17:38Z</time></trkpt><trkpt lat="31.171025634001047" lon="-4.0358457193662485"><ele>723.0</ele><time>2026-04-30T12:17:39Z</time></trkpt><trkpt lat="31.170915721794845" lon="-4.035849261158719"><ele>723.0</ele><time>2026-04-30T12:17:40Z</time></trkpt><trkpt lat="31.17081029486666" lon="-4.035873730746484"><ele>722.5999999999999</ele><time>2026-04-30T12:17:41Z</time></trkpt><trkpt lat="31.170704823488524" lon="-4.035880306262968"><ele>722.1999999999999</ele><time>2026-04-30T12:17:42Z</time></trkpt><trkpt lat="31.17059293127362" lon="-4.035884270390915"><ele>721.8</ele><time>2026-04-30T12:17:43Z</time></trkpt><trkpt lat="31.170488018869936" lon="-4.0358856812456985"><ele>721.4</ele><time>2026-04-30T12:17:44Z</time></trkpt><trkpt lat="31.170378360942806" lon="-4.035889007118908"><ele>721.0</ele><time>2026-04-30T12:17:45Z</time></trkpt><trkpt lat="31.170285515346677" lon="-4.035892545711599"><ele>720.8</ele><time>2026-04-30T12:17:46Z</time></trkpt><trkpt lat="31.170174947017397" lon="-4.035897504169006"><ele>720.5999999999999</ele><time>2026-04-30T12:17:47Z</time></trkpt><trkpt lat="31.170062416061693" lon="-4.035917023369573"><ele>720.4</ele><time>2026-04-30T12:17:48Z</time></trkpt><trkpt lat="31.1699644094397" lon="-4.035922154571072"><ele>720.2</ele><time>2026-04-30T12:17:49Z</time></trkpt><trkpt lat="31.169856126225543" lon="-4.035928553808962"><ele>720.0</ele><time>2026-04-30T12:17:50Z</time></trkpt><trkpt lat="31.169756916567273" lon="-4.035934036382063"><ele>720.8</ele><time>2026-04-30T12:17:51Z</time></trkpt><trkpt lat="31.169655283090876" lon="-4.0359396529197085"><ele>721.6</ele><time>2026-04-30T12:17:52Z</time></trkpt><trkpt lat="31.16955967792065" lon="-4.035944936303183"><ele>722.4000000000001</ele><time>2026-04-30T12:17:53Z</time></trkpt><trkpt lat="31.16945807660005" lon="-4.03593995704911"><ele>723.2</ele><time>2026-04-30T12:17:54Z</time></trkpt><trkpt lat="31.16934847948522" lon="-4.035922081012425"><ele>724.0</ele><time>2026-04-30T12:17:55Z</time></trkpt><trkpt lat="31.169244805125743" lon="-4.035905147950157"><ele>724.0</ele><time>2026-04-30T12:17:56Z</time></trkpt><trkpt lat="31.169142722808107" lon="-4.035888481541182"><ele>724.0</ele><time>2026-04-30T12:17:57Z</time></trkpt><trkpt lat="31.169043865220306" lon="-4.03587305811551"><ele>724.0</ele><time>2026-04-30T12:17:58Z</time></trkpt><trkpt lat="31.16894389298285" lon="-4.035853922572729"><ele>724.0</ele><time>2026-04-30T12:17:59Z</time></trkpt><trkpt lat="31.1688458534036" lon="-4.035834234548603"><ele>724.0</ele><time>2026-04-30T12:18:00Z</time></trkpt><trkpt lat="31.168745646860696" lon="-4.035814111400756"><ele>722.8000000000001</ele><time>2026-04-30T12:18:01Z</time></trkpt><trkpt lat="31.16864099491076" lon="-4.035793441768735"><ele>721.6</ele><time>2026-04-30T12:18:02Z</time></trkpt><trkpt lat="31.168540936497816" lon="-4.03577374296589"><ele>720.4</ele><time>2026-04-30T12:18:03Z</time></trkpt><trkpt lat="31.168446166666747" lon="-4.035755085348647"><ele>719.2</ele><time>2026-04-30T12:18:04Z</time></trkpt><trkpt lat="31.168346453136866" lon="-4.035728094917672"><ele>718.0</ele><time>2026-04-30T12:18:05Z</time></trkpt><trkpt lat="31.168249967370382" lon="-4.03569869267282"><ele>718.5999999999999</ele><time>2026-04-30T12:18:06Z</time></trkpt><trkpt lat="31.16815396657484" lon="-4.035669438221173"><ele>719.1999999999999</ele><time>2026-04-30T12:18:07Z</time></trkpt><trkpt lat="31.168056787203533" lon="-4.035639824625951"><ele>719.8</ele><time>2026-04-30T12:18:08Z</time></trkpt><trkpt lat="31.167952730982073" lon="-4.03558879642817"><ele>720.4</ele><time>2026-04-30T12:18:09Z</time></trkpt><trkpt lat="31.167856356766386" lon="-4.035537622203487"><ele>721.0</ele><time>2026-04-30T12:18:10Z</time></trkpt><trkpt lat="31.167758007504375" lon="-4.0354852855214745"><ele>721.0</ele><time>2026-04-30T12:18:11Z</time></trkpt><trkpt lat="31.167660505032377" lon="-4.035433399456495"><ele>721.0</ele><time>2026-04-30T12:18:12Z</time></trkpt><trkpt lat="31.167559700806507" lon="-4.035379756283065"><ele>721.0</ele><time>2026-04-30T12:18:13Z</time></trkpt><trkpt lat="31.167453445096974" lon="-4.03532337303624"><ele>721.0</ele><time>2026-04-30T12:18:14Z</time></trkpt><trkpt lat="31.167333996500414" lon="-4.035259012505969"><ele>721.0</ele><time>2026-04-30T12:18:15Z</time></trkpt><trkpt lat="31.16724127806741" lon="-4.035191589433424"><ele>721.0</ele><time>2026-04-30T12:18:16Z</time></trkpt><trkpt lat="31.167143309866177" lon="-4.035121432966056"><ele>721.0</ele><time>2026-04-30T12:18:17Z</time></trkpt><trkpt lat="31.167047598517936" lon="-4.035052892616878"><ele>721.0</ele><time>2026-04-30T12:18:18Z</time></trkpt><trkpt lat="31.166948485786488" lon="-4.0349819165658145"><ele>720.75</ele><time>2026-04-30T12:18:19Z</time></trkpt><trkpt lat="31.16684854658766" lon="-4.034909702170218"><ele>720.5</ele><time>2026-04-30T12:18:20Z</time></trkpt><trkpt lat="31.16674105917628" lon="-4.034832666641397"><ele>720.25</ele><time>2026-04-30T12:18:21Z</time></trkpt><trkpt lat="31.166633661743603" lon="-4.034800853632131"><ele>720.0</ele><time>2026-04-30T12:18:22Z</time></trkpt><trkpt lat="31.166510121663283" lon="-4.03475617322483"><ele>719.5</ele><time>2026-04-30T12:18:23Z</time></trkpt><trkpt lat="31.166387628992002" lon="-4.0347114046112305"><ele>719.0</ele><time>2026-04-30T12:18:24Z</time></trkpt><trkpt lat="31.166263926537795" lon="-4.034666194014905"><ele>718.5</ele><time>2026-04-30T12:18:25Z</time></trkpt><trkpt lat="31.166118071052583" lon="-4.0346128872922185"><ele>718.0</ele><time>2026-04-30T12:18:26Z</time></trkpt><trkpt lat="31.166012197157773" lon="-4.03459373429239"><ele>718.0</ele><time>2026-04-30T12:18:27Z</time></trkpt><trkpt lat="31.165892630082293" lon="-4.034568890854249"><ele>718.0</ele><time>2026-04-30T12:18:28Z</time></trkpt><trkpt lat="31.165776028633395" lon="-4.034542882426005"><ele>718.0</ele><time>2026-04-30T12:18:29Z</time></trkpt><trkpt lat="31.16566949514281" lon="-4.034529404205789"><ele>718.0</ele><time>2026-04-30T12:18:30Z</time></trkpt><trkpt lat="31.16555296918743" lon="-4.034511973237166"><ele>718.0</ele><time>2026-04-30T12:18:31Z</time></trkpt><trkpt lat="31.165441604796708" lon="-4.034495314375212"><ele>718.0</ele><time>2026-04-30T12:18:32Z</time></trkpt><trkpt lat="31.165328445858766" lon="-4.034478387074842"><ele>718.0</ele><time>2026-04-30T12:18:33Z</time></trkpt><trkpt lat="31.165214896666342" lon="-4.0344614013956965"><ele>718.0</ele><time>2026-04-30T12:18:34.001Z</time></trkpt><trkpt lat="31.165094606843066" lon="-4.034443407399841"><ele>718.0</ele><time>2026-04-30T12:18:35.001Z</time></trkpt><trkpt lat="31.16499531465816" lon="-4.03443906195138"><ele>718.0</ele><time>2026-04-30T12:18:36.001Z</time></trkpt><trkpt lat="31.164876530161397" lon="-4.034434703877104"><ele>718.0</ele><time>2026-04-30T12:18:37.001Z</time></trkpt><trkpt lat="31.164762954884935" lon="-4.034430611622274"><ele>718.0</ele><time>2026-04-30T12:18:38.001Z</time></trkpt><trkpt lat="31.164645886716013" lon="-4.034426393522207"><ele>718.0</ele><time>2026-04-30T12:18:39.001Z</time></trkpt><trkpt lat="31.16453253665623" lon="-4.034422309381826"><ele>719.5</ele><time>2026-04-30T12:18:40.001Z</time></trkpt><trkpt lat="31.164418997806248" lon="-4.034418218364062"><ele>721.0</ele><time>2026-04-30T12:18:41.001Z</time></trkpt><trkpt lat="31.164355222126826" lon="-4.03443888771482"><ele>722.5</ele><time>2026-04-30T12:18:42.001Z</time></trkpt><trkpt lat="31.164244744884584" lon="-4.034451283779786"><ele>724.0</ele><time>2026-04-30T12:18:43.001Z</time></trkpt><trkpt lat="31.164047375757637" lon="-4.03446675198029"><ele>723.5</ele><time>2026-04-30T12:18:44.001Z</time></trkpt><trkpt lat="31.16393211553948" lon="-4.034456173023434"><ele>723.0</ele><time>2026-04-30T12:18:45.001Z</time></trkpt><trkpt lat="31.163811321042775" lon="-4.0344436851059875"><ele>722.5</ele><time>2026-04-30T12:18:46.001Z</time></trkpt><trkpt lat="31.163695881757615" lon="-4.034432299248547"><ele>722.0</ele><time>2026-04-30T12:18:47.001Z</time></trkpt><trkpt lat="31.163583238922893" lon="-4.034421697093177"><ele>722.0</ele><time>2026-04-30T12:18:48.001Z</time></trkpt><trkpt lat="31.163468174449232" lon="-4.034410867025549"><ele>722.0</ele><time>2026-04-30T12:18:49.001Z</time></trkpt><trkpt lat="31.163267771396132" lon="-4.034333858269698"><ele>722.0</ele><time>2026-04-30T12:18:50.001Z</time></trkpt><trkpt lat="31.16315773022519" lon="-4.034290883919821"><ele>722.0</ele><time>2026-04-30T12:18:51.001Z</time></trkpt><trkpt lat="31.16303465357842" lon="-4.0342367849812435"><ele>721.75</ele><time>2026-04-30T12:18:52.001Z</time></trkpt><trkpt lat="31.16292596530273" lon="-4.034188731035668"><ele>721.5</ele><time>2026-04-30T12:18:53.001Z</time></trkpt><trkpt lat="31.162818952329395" lon="-4.034141417771219"><ele>721.25</ele><time>2026-04-30T12:18:54.001Z</time></trkpt><trkpt lat="31.162710684378954" lon="-4.034060723892236"><ele>721.0</ele><time>2026-04-30T12:18:55.001Z</time></trkpt><trkpt lat="31.162610874577254" lon="-4.034011845367819"><ele>721.0</ele><time>2026-04-30T12:18:56.001Z</time></trkpt><trkpt lat="31.162510074354113" lon="-4.033961216981099"><ele>721.0</ele><time>2026-04-30T12:18:57.001Z</time></trkpt><trkpt lat="31.16242922266096" lon="-4.033921116306879"><ele>721.0</ele><time>2026-04-30T12:18:58.001Z</time></trkpt><trkpt lat="31.162322264295945" lon="-4.033859631123811"><ele>721.0</ele><time>2026-04-30T12:18:59.001Z</time></trkpt><trkpt lat="31.162224904524187" lon="-4.033801021039086"><ele>721.0</ele><time>2026-04-30T12:19:00.001Z</time></trkpt><trkpt lat="31.162133134215953" lon="-4.033745482535256"><ele>720.0</ele><time>2026-04-30T12:19:01.001Z</time></trkpt><trkpt lat="31.16203783961825" lon="-4.033687812066989"><ele>719.0</ele><time>2026-04-30T12:19:02.001Z</time></trkpt><trkpt lat="31.161938441055153" lon="-4.0336272281432715"><ele>718.0</ele><time>2026-04-30T12:19:03.001Z</time></trkpt><trkpt lat="31.161834073084098" lon="-4.033564016360698"><ele>717.0</ele><time>2026-04-30T12:19:04.001Z</time></trkpt><trkpt lat="31.161742708864555" lon="-4.0335204428121685"><ele>716.0</ele><time>2026-04-30T12:19:05.001Z</time></trkpt><trkpt lat="31.16163767054367" lon="-4.033475888950432"><ele>716.0</ele><time>2026-04-30T12:19:06.001Z</time></trkpt><trkpt lat="31.161527476731568" lon="-4.033428894763726"><ele>716.0</ele><time>2026-04-30T12:19:07.001Z</time></trkpt><trkpt lat="31.161419009705224" lon="-4.03338221669345"><ele>716.0</ele><time>2026-04-30T12:19:08.001Z</time></trkpt><trkpt lat="31.161308152596284" lon="-4.033335303875811"><ele>716.0</ele><time>2026-04-30T12:19:09.001Z</time></trkpt><trkpt lat="31.161186178136823" lon="-4.033280580220332"><ele>716.0</ele><time>2026-04-30T12:19:10.001Z</time></trkpt><trkpt lat="31.161084036787038" lon="-4.033231922103016"><ele>716.0</ele><time>2026-04-30T12:19:11.001Z</time></trkpt><trkpt lat="31.160965283159992" lon="-4.033177066942012"><ele>716.0</ele><time>2026-04-30T12:19:12.001Z</time></trkpt><trkpt lat="31.16086020626142" lon="-4.033119950538503"><ele>716.0</ele><time>2026-04-30T12:19:13.001Z</time></trkpt><trkpt lat="31.160759905114347" lon="-4.0330654300015425"><ele>716.4</ele><time>2026-04-30T12:19:14.001Z</time></trkpt><trkpt lat="31.160655953846142" lon="-4.033008925364392"><ele>716.8</ele><time>2026-04-30T12:19:15.001Z</time></trkpt><trkpt lat="31.160551138312538" lon="-4.032948623326903"><ele>717.1999999999999</ele><time>2026-04-30T12:19:16.001Z</time></trkpt><trkpt lat="31.16046416305217" lon="-4.032897764404911"><ele>717.5999999999999</ele><time>2026-04-30T12:19:17.001Z</time></trkpt><trkpt lat="31.16038380171633" lon="-4.0328509117032905"><ele>718.0</ele><time>2026-04-30T12:19:18.001Z</time></trkpt><trkpt lat="31.16030179385943" lon="-4.03280327767743"><ele>718.0</ele><time>2026-04-30T12:19:19.001Z</time></trkpt><trkpt lat="31.160214941545657" lon="-4.032752829779129"><ele>718.0</ele><time>2026-04-30T12:19:20.001Z</time></trkpt><trkpt lat="31.160125101282247" lon="-4.032699744480224"><ele>718.0</ele><time>2026-04-30T12:19:21.001Z</time></trkpt><trkpt lat="31.160040823718507" lon="-4.032649912304506"><ele>718.0</ele><time>2026-04-30T12:19:22.001Z</time></trkpt><trkpt lat="31.15992398138018" lon="-4.0325553979120095"><ele>718.0</ele><time>2026-04-30T12:19:23.001Z</time></trkpt><trkpt lat="31.15983993172422" lon="-4.032482819409142"><ele>718.0</ele><time>2026-04-30T12:19:24.001Z</time></trkpt><trkpt lat="31.159749459649188" lon="-4.032404695018681"><ele>718.0</ele><time>2026-04-30T12:19:25.001Z</time></trkpt><trkpt lat="31.15965797400075" lon="-4.032325695394019"><ele>718.0</ele><time>2026-04-30T12:19:26.001Z</time></trkpt><trkpt lat="31.15956562263066" lon="-4.032245948219331"><ele>718.0</ele><time>2026-04-30T12:19:27.001Z</time></trkpt><trkpt lat="31.15947961959502" lon="-4.032176218854184"><ele>718.0</ele><time>2026-04-30T12:19:28.001Z</time></trkpt><trkpt lat="31.159383116018034" lon="-4.032098067910061"><ele>718.0</ele><time>2026-04-30T12:19:29.001Z</time></trkpt><trkpt lat="31.159290716398154" lon="-4.032023648247865"><ele>718.0</ele><time>2026-04-30T12:19:30.001Z</time></trkpt><trkpt lat="31.159201427436653" lon="-4.031951422463195"><ele>718.0</ele><time>2026-04-30T12:19:31.001Z</time></trkpt><trkpt lat="31.159109053671056" lon="-4.0318765259752585"><ele>718.0</ele><time>2026-04-30T12:19:32.001Z</time></trkpt><trkpt lat="31.159009564918467" lon="-4.03178840229171"><ele>717.8</ele><time>2026-04-30T12:19:33.001Z</time></trkpt><trkpt lat="31.158924933834868" lon="-4.031711697530073"><ele>717.5999999999999</ele><time>2026-04-30T12:19:34.001Z</time></trkpt><trkpt lat="31.15884093492863" lon="-4.031635985410077"><ele>717.4000000000001</ele><time>2026-04-30T12:19:35.001Z</time></trkpt><trkpt lat="31.15875627042403" lon="-4.0315597207621225"><ele>717.2</ele><time>2026-04-30T12:19:36.001Z</time></trkpt><trkpt lat="31.15867402801666" lon="-4.0314849139218"><ele>717.0</ele><time>2026-04-30T12:19:37.001Z</time></trkpt><trkpt lat="31.158596617319578" lon="-4.031415079778585"><ele>717.4000000000001</ele><time>2026-04-30T12:19:38.001Z</time></trkpt><trkpt lat="31.15850658037087" lon="-4.031318280322879"><ele>717.8000000000001</ele><time>2026-04-30T12:19:39.001Z</time></trkpt><trkpt lat="31.15844459068781" lon="-4.031244715871015"><ele>718.2</ele><time>2026-04-30T12:19:40.001Z</time></trkpt><trkpt lat="31.15838318991794" lon="-4.0311718503226786"><ele>718.6</ele><time>2026-04-30T12:19:41.001Z</time></trkpt><trkpt lat="31.15832243760621" lon="-4.03109975431209"><ele>719.0</ele><time>2026-04-30T12:19:42.001Z</time></trkpt><trkpt lat="31.158259393023773" lon="-4.031024937940728"><ele>719.0</ele><time>2026-04-30T12:19:43.001Z</time></trkpt><trkpt lat="31.158201513744192" lon="-4.030956251430564"><ele>719.0</ele><time>2026-04-30T12:19:44.001Z</time></trkpt><trkpt lat="31.15814447571265" lon="-4.030888563185243"><ele>719.0</ele><time>2026-04-30T12:19:45.001Z</time></trkpt><trkpt lat="31.158096957191532" lon="-4.030832171987584"><ele>719.0</ele><time>2026-04-30T12:19:46.001Z</time></trkpt><trkpt lat="31.158048357819265" lon="-4.030774498093752"><ele>719.0</ele><time>2026-04-30T12:19:47.001Z</time></trkpt><trkpt lat="31.15796439661625" lon="-4.030674859596604"><ele>719.0</ele><time>2026-04-30T12:19:49.001Z</time></trkpt><trkpt lat="31.157891626529114" lon="-4.030588501609653"><ele>718.5</ele><time>2026-04-30T12:19:51.001Z</time></trkpt><trkpt lat="31.1578278926556" lon="-4.030546349124662"><ele>718.0</ele><time>2026-04-30T12:19:53.001Z</time></trkpt><trkpt lat="31.15776503651387" lon="-4.030502317713405"><ele>717.5</ele><time>2026-04-30T12:19:54.001Z</time></trkpt><trkpt lat="31.1576971952295" lon="-4.030454793982521"><ele>717.0</ele><time>2026-04-30T12:19:55.001Z</time></trkpt><trkpt lat="31.15762810215665" lon="-4.030406393406181"><ele>716.5</ele><time>2026-04-30T12:19:56.001Z</time></trkpt><trkpt lat="31.157557935931145" lon="-4.030357241119857"><ele>716.0</ele><time>2026-04-30T12:19:57.001Z</time></trkpt><trkpt lat="31.157469373725103" lon="-4.030288810935884"><ele>716.0</ele><time>2026-04-30T12:19:58.001Z</time></trkpt><trkpt lat="31.1573936699756" lon="-4.030225666928794"><ele>716.0</ele><time>2026-04-30T12:19:59.001Z</time></trkpt><trkpt lat="31.157310627875898" lon="-4.030156402007677"><ele>716.0</ele><time>2026-04-30T12:20:00.001Z</time></trkpt><trkpt lat="31.157233536901924" lon="-4.0300953967647155"><ele>716.0</ele><time>2026-04-30T12:20:01.001Z</time></trkpt><trkpt lat="31.15717234294658" lon="-4.02978774733004"><ele>716.4</ele><time>2026-04-30T12:20:03.001Z</time></trkpt><trkpt lat="31.157081510920932" lon="-4.029745919814214"><ele>716.8</ele><time>2026-04-30T12:20:04.001Z</time></trkpt><trkpt lat="31.156992001633924" lon="-4.029700079331871"><ele>717.1999999999999</ele><time>2026-04-30T12:20:05.001Z</time></trkpt><trkpt lat="31.1569024746528" lon="-4.029650962308077"><ele>717.5999999999999</ele><time>2026-04-30T12:20:06.001Z</time></trkpt><trkpt lat="31.156774269966043" lon="-4.0296826229938025"><ele>718.0</ele><time>2026-04-30T12:20:07.001Z</time></trkpt><trkpt lat="31.156688778827625" lon="-4.029624632502063"><ele>718.0</ele><time>2026-04-30T12:20:08.001Z</time></trkpt><trkpt lat="31.156605192714675" lon="-4.029567934231169"><ele>718.0</ele><time>2026-04-30T12:20:09.001Z</time></trkpt><trkpt lat="31.156517640005262" lon="-4.0295080046372425"><ele>718.0</ele><time>2026-04-30T12:20:10.001Z</time></trkpt><trkpt lat="31.156435522237416" lon="-4.029452198154426"><ele>718.0</ele><time>2026-04-30T12:20:11.001Z</time></trkpt><trkpt lat="31.156339558843808" lon="-4.029389541124518"><ele>718.0</ele><time>2026-04-30T12:20:12.001Z</time></trkpt><trkpt lat="31.156242638014245" lon="-4.029327541302957"><ele>717.4</ele><time>2026-04-30T12:20:13.001Z</time></trkpt><trkpt lat="31.15614461092014" lon="-4.029265018336961"><ele>716.8</ele><time>2026-04-30T12:20:14.001Z</time></trkpt><trkpt lat="31.156049557403247" lon="-4.029196225017367"><ele>716.2</ele><time>2026-04-30T12:20:15.001Z</time></trkpt><trkpt lat="31.15595975546203" lon="-4.029128212656607"><ele>715.6</ele><time>2026-04-30T12:20:16.001Z</time></trkpt><trkpt lat="31.155861477416654" lon="-4.029080122615541"><ele>715.0</ele><time>2026-04-30T12:20:17.001Z</time></trkpt><trkpt lat="31.155772123271976" lon="-4.029008762900323"><ele>714.2</ele><time>2026-04-30T12:20:18.001Z</time></trkpt><trkpt lat="31.155675023482235" lon="-4.028965095643403"><ele>713.4</ele><time>2026-04-30T12:20:19.001Z</time></trkpt><trkpt lat="31.15556994474458" lon="-4.0289026521465825"><ele>712.5999999999999</ele><time>2026-04-30T12:20:20.001Z</time></trkpt><trkpt lat="31.15547825574981" lon="-4.028848196044047"><ele>711.8</ele><time>2026-04-30T12:20:21.001Z</time></trkpt><trkpt lat="31.155386234470882" lon="-4.02879354260113"><ele>711.0</ele><time>2026-04-30T12:20:22.001Z</time></trkpt><trkpt lat="31.155292753992715" lon="-4.028738094465994"><ele>711.0</ele><time>2026-04-30T12:20:23.001Z</time></trkpt><trkpt lat="31.15519987447504" lon="-4.028683442075953"><ele>711.0</ele><time>2026-04-30T12:20:24.001Z</time></trkpt><trkpt lat="31.155074127120297" lon="-4.028628797047785"><ele>711.0</ele><time>2026-04-30T12:20:25.001Z</time></trkpt><trkpt lat="31.15497274865424" lon="-4.028594968578979"><ele>711.0</ele><time>2026-04-30T12:20:26.001Z</time></trkpt><trkpt lat="31.154869142698793" lon="-4.0285603968252595"><ele>711.5999999999999</ele><time>2026-04-30T12:20:27.001Z</time></trkpt><trkpt lat="31.154763259360973" lon="-4.028525065146803"><ele>712.2</ele><time>2026-04-30T12:20:28.001Z</time></trkpt><trkpt lat="31.15465736633863" lon="-4.028489730226225"><ele>712.8</ele><time>2026-04-30T12:20:29.001Z</time></trkpt><trkpt lat="31.154553687229797" lon="-4.028455134064872"><ele>713.4000000000001</ele><time>2026-04-30T12:20:30.001Z</time></trkpt><trkpt lat="31.1544454463629" lon="-4.028421360177439"><ele>714.0</ele><time>2026-04-30T12:20:31.001Z</time></trkpt><trkpt lat="31.15434118454595" lon="-4.028392253750117"><ele>714.0</ele><time>2026-04-30T12:20:32.001Z</time></trkpt><trkpt lat="31.1542375259054" lon="-4.0283633157148975"><ele>714.0</ele><time>2026-04-30T12:20:33.001Z</time></trkpt><trkpt lat="31.15413457624733" lon="-4.0283348279271936"><ele>714.0</ele><time>2026-04-30T12:20:34.001Z</time></trkpt><trkpt lat="31.15404451029177" lon="-4.0283099363363535"><ele>714.0</ele><time>2026-04-30T12:20:35.001Z</time></trkpt><trkpt lat="31.15397860888082" lon="-4.02829172311436"><ele>714.0</ele><time>2026-04-30T12:20:36.001Z</time></trkpt><trkpt lat="31.15385444777133" lon="-4.028267050188463"><ele>714.5</ele><time>2026-04-30T12:20:38.001Z</time></trkpt><trkpt lat="31.153717112940203" lon="-4.028233839585324"><ele>715.0</ele><time>2026-04-30T12:20:39.001Z</time></trkpt><trkpt lat="31.153641212349648" lon="-4.028787851841281"><ele>714.6666666666667</ele><time>2026-04-30T12:20:40.001Z</time></trkpt><trkpt lat="31.15357851332891" lon="-4.028848738596955"><ele>714.3333333333334</ele><time>2026-04-30T12:20:41.001Z</time></trkpt><trkpt lat="31.153516105961437" lon="-4.028919446253942"><ele>714.0</ele><time>2026-04-30T12:20:42.001Z</time></trkpt><trkpt lat="31.153453049490007" lon="-4.028989899000607"><ele>713.6666666666666</ele><time>2026-04-30T12:20:43.001Z</time></trkpt><trkpt lat="31.153389910362048" lon="-4.029060262806461"><ele>713.3333333333333</ele><time>2026-04-30T12:20:44.001Z</time></trkpt><trkpt lat="31.1533293713267" lon="-4.029096754160542"><ele>713.0</ele><time>2026-04-30T12:20:45.001Z</time></trkpt><trkpt lat="31.153256430133045" lon="-4.029109022967376"><ele>713.1666666666666</ele><time>2026-04-30T12:20:46.001Z</time></trkpt><trkpt lat="31.153186059956095" lon="-4.029102997928779"><ele>713.3333333333333</ele><time>2026-04-30T12:20:47.001Z</time></trkpt><trkpt lat="31.153110072872963" lon="-4.029088058562518"><ele>713.5</ele><time>2026-04-30T12:20:48.001Z</time></trkpt><trkpt lat="31.15301603567595" lon="-4.029085046913619"><ele>713.6666666666666</ele><time>2026-04-30T12:20:49.001Z</time></trkpt><trkpt lat="31.152924338289743" lon="-4.029099445986663"><ele>713.8333333333334</ele><time>2026-04-30T12:20:50.001Z</time></trkpt><trkpt lat="31.152833523990882" lon="-4.029120195282751"><ele>714.0</ele><time>2026-04-30T12:20:51.001Z</time></trkpt><trkpt lat="31.15274409876224" lon="-4.029141985609066"><ele>713.8333333333334</ele><time>2026-04-30T12:20:52.001Z</time></trkpt><trkpt lat="31.152659617331302" lon="-4.0291657565437164"><ele>713.6666666666666</ele><time>2026-04-30T12:20:53.001Z</time></trkpt><trkpt lat="31.15258010648844" lon="-4.02920277958197"><ele>713.5</ele><time>2026-04-30T12:20:54.001Z</time></trkpt><trkpt lat="31.15248595515753" lon="-4.02922150811185"><ele>713.3333333333333</ele><time>2026-04-30T12:20:55.001Z</time></trkpt><trkpt lat="31.15239888518474" lon="-4.029242391519416"><ele>713.1666666666666</ele><time>2026-04-30T12:20:56.001Z</time></trkpt><trkpt lat="31.152325369160447" lon="-4.029267373198601"><ele>713.0</ele><time>2026-04-30T12:20:57.001Z</time></trkpt><trkpt lat="31.152239037749382" lon="-4.029270532453763"><ele>713.0</ele><time>2026-04-30T12:20:58.001Z</time></trkpt><trkpt lat="31.15216249927561" lon="-4.029259229016761"><ele>713.0</ele><time>2026-04-30T12:20:59.001Z</time></trkpt><trkpt lat="31.152086403005452" lon="-4.029219752403819"><ele>713.0</ele><time>2026-04-30T12:21:00.001Z</time></trkpt><trkpt lat="31.152017775976915" lon="-4.029188979001404"><ele>713.0</ele><time>2026-04-30T12:21:01.001Z</time></trkpt><trkpt lat="31.151947796113564" lon="-4.029143852842459"><ele>713.0</ele><time>2026-04-30T12:21:02.001Z</time></trkpt><trkpt lat="31.151872501692008" lon="-4.029091489485421"><ele>713.0</ele><time>2026-04-30T12:21:03.001Z</time></trkpt><trkpt lat="31.151796347383414" lon="-4.029036618182389"><ele>713.2</ele><time>2026-04-30T12:21:04.001Z</time></trkpt><trkpt lat="31.151723848415717" lon="-4.0289782658541995"><ele>713.4</ele><time>2026-04-30T12:21:05.001Z</time></trkpt><trkpt lat="31.15165355398395" lon="-4.028916149283064"><ele>713.6</ele><time>2026-04-30T12:21:06.001Z</time></trkpt><trkpt lat="31.151579921854278" lon="-4.028853190686103"><ele>713.8000000000001</ele><time>2026-04-30T12:21:07.001Z</time></trkpt><trkpt lat="31.151500933277813" lon="-4.028793820737374"><ele>714.0</ele><time>2026-04-30T12:21:08.001Z</time></trkpt><trkpt lat="31.151415429654243" lon="-4.028738738084964"><ele>714.0</ele><time>2026-04-30T12:21:09.001Z</time></trkpt><trkpt lat="31.151337432606773" lon="-4.028693489315493"><ele>714.0</ele><time>2026-04-30T12:21:10.001Z</time></trkpt><trkpt lat="31.151247152146365" lon="-4.028658136560547"><ele>714.0</ele><time>2026-04-30T12:21:11.001Z</time></trkpt><trkpt lat="31.15115758822798" lon="-4.028632585969034"><ele>714.0</ele><time>2026-04-30T12:21:12.001Z</time></trkpt><trkpt lat="31.151073857966352" lon="-4.02849326171921"><ele>714.0</ele><time>2026-04-30T12:21:13.001Z</time></trkpt><trkpt lat="31.15097471577738" lon="-4.028480326316821"><ele>714.0</ele><time>2026-04-30T12:21:14.001Z</time></trkpt><trkpt lat="31.15087883483057" lon="-4.028467868280338"><ele>714.0</ele><time>2026-04-30T12:21:15.001Z</time></trkpt><trkpt lat="31.15078328257803" lon="-4.028455674671831"><ele>714.0</ele><time>2026-04-30T12:21:16.001Z</time></trkpt><trkpt lat="31.15069715919962" lon="-4.028444684299789"><ele>714.0</ele><time>2026-04-30T12:21:17.001Z</time></trkpt><trkpt lat="31.150618085259463" lon="-4.02843459352371"><ele>714.0</ele><time>2026-04-30T12:21:18.001Z</time></trkpt><trkpt lat="31.150551559688207" lon="-4.0284261040651685"><ele>714.0</ele><time>2026-04-30T12:21:19.001Z</time></trkpt><trkpt lat="31.15048701814961" lon="-4.028417867793821"><ele>713.8000000000001</ele><time>2026-04-30T12:21:20.001Z</time></trkpt><trkpt lat="31.15036427438699" lon="-4.028402176529774"><ele>713.6</ele><time>2026-04-30T12:21:22.001Z</time></trkpt><trkpt lat="31.15029794117416" lon="-4.028394279715168"><ele>713.4</ele><time>2026-04-30T12:21:23.001Z</time></trkpt><trkpt lat="31.15021380464639" lon="-4.028384261036977"><ele>713.2</ele><time>2026-04-30T12:21:24.001Z</time></trkpt><trkpt lat="31.150113751631118" lon="-4.028371232815428"><ele>713.0</ele><time>2026-04-30T12:21:25.001Z</time></trkpt><trkpt lat="31.150007244265012" lon="-4.028357364155429"><ele>713.0</ele><time>2026-04-30T12:21:26.001Z</time></trkpt><trkpt lat="31.149907595085793" lon="-4.028345396463812"><ele>713.0</ele><time>2026-04-30T12:21:27.001Z</time></trkpt><trkpt lat="31.149752798553997" lon="-4.028302814462999"><ele>713.0</ele><time>2026-04-30T12:21:29.001Z</time></trkpt><trkpt lat="31.149660829944654" lon="-4.028253875581687"><ele>713.0</ele><time>2026-04-30T12:21:30.001Z</time></trkpt><trkpt lat="31.149560745658956" lon="-4.028200648954349"><ele>713.0</ele><time>2026-04-30T12:21:31.001Z</time></trkpt><trkpt lat="31.149457881067587" lon="-4.02814613032504"><ele>713.0</ele><time>2026-04-30T12:21:32.001Z</time></trkpt><trkpt lat="31.149357032429222" lon="-4.028092680158564"><ele>713.0</ele><time>2026-04-30T12:21:33.001Z</time></trkpt><trkpt lat="31.14926164199341" lon="-4.028041851592846"><ele>713.0</ele><time>2026-04-30T12:21:34.001Z</time></trkpt><trkpt lat="31.149163154911232" lon="-4.027989170057706"><ele>713.0</ele><time>2026-04-30T12:21:35.001Z</time></trkpt><trkpt lat="31.149067036671543" lon="-4.0279381636102025"><ele>713.0</ele><time>2026-04-30T12:21:36.001Z</time></trkpt><trkpt lat="31.148965041812563" lon="-4.027884290801095"><ele>713.0</ele><time>2026-04-30T12:21:37.001Z</time></trkpt><trkpt lat="31.14886817899053" lon="-4.027833382477573"><ele>713.0</ele><time>2026-04-30T12:21:38.001Z</time></trkpt><trkpt lat="31.1487647098242" lon="-4.027778871623254"><ele>713.0</ele><time>2026-04-30T12:21:39.001Z</time></trkpt><trkpt lat="31.148665933435968" lon="-4.027726412561912"><ele>713.0</ele><time>2026-04-30T12:21:40.001Z</time></trkpt><trkpt lat="31.148566955191065" lon="-4.027673846284604"><ele>713.0</ele><time>2026-04-30T12:21:41.001Z</time></trkpt><trkpt lat="31.148492370162028" lon="-4.027625248494868"><ele>713.0</ele><time>2026-04-30T12:21:42.001Z</time></trkpt><trkpt lat="31.148393830801442" lon="-4.027561876004748"><ele>713.0</ele><time>2026-04-30T12:21:43.001Z</time></trkpt><trkpt lat="31.148293108402427" lon="-4.0274971826155745"><ele>713.0</ele><time>2026-04-30T12:21:44.001Z</time></trkpt><trkpt lat="31.14820366642027" lon="-4.027440189415146"><ele>713.0</ele><time>2026-04-30T12:21:45.001Z</time></trkpt><trkpt lat="31.148118134816574" lon="-4.027385421472005"><ele>712.5999999999999</ele><time>2026-04-30T12:21:46.001Z</time></trkpt><trkpt lat="31.148029374158593" lon="-4.027328585902465"><ele>712.1999999999999</ele><time>2026-04-30T12:21:47.001Z</time></trkpt><trkpt lat="31.14794904061079" lon="-4.027277146413402"><ele>711.8</ele><time>2026-04-30T12:21:48.001Z</time></trkpt><trkpt lat="31.147858202085036" lon="-4.027218977884792"><ele>711.4</ele><time>2026-04-30T12:21:49.001Z</time></trkpt><trkpt lat="31.147776577568987" lon="-4.027166707987744"><ele>711.0</ele><time>2026-04-30T12:21:50.001Z</time></trkpt><trkpt lat="31.147696225002864" lon="-4.027115251725192"><ele>711.0</ele><time>2026-04-30T12:21:51.001Z</time></trkpt><trkpt lat="31.14762664836355" lon="-4.027070696909783"><ele>711.0</ele><time>2026-04-30T12:21:52.001Z</time></trkpt><trkpt lat="31.147557634507436" lon="-4.027026502510913"><ele>711.0</ele><time>2026-04-30T12:21:53.001Z</time></trkpt><trkpt lat="31.147488266864592" lon="-4.026982081517585"><ele>711.0</ele><time>2026-04-30T12:21:54.001Z</time></trkpt><trkpt lat="31.147415411593776" lon="-4.026935427176472"><ele>711.0</ele><time>2026-04-30T12:21:55.001Z</time></trkpt><trkpt lat="31.147356901003374" lon="-4.0268979587448115"><ele>711.0</ele><time>2026-04-30T12:21:56.001Z</time></trkpt><trkpt lat="31.14724703660821" lon="-4.026845545384034"><ele>711.0</ele><time>2026-04-30T12:21:58.001Z</time></trkpt><trkpt lat="31.14715857923225" lon="-4.0268305950765475"><ele>711.0</ele><time>2026-04-30T12:22:00.001Z</time></trkpt><trkpt lat="31.146801420679424" lon="-4.027450654157129"><ele>711.0</ele><time>2026-04-30T12:22:02.001Z</time></trkpt><trkpt lat="31.14673747977751" lon="-4.027567293464197"><ele>711.0</ele><time>2026-04-30T12:22:04.001Z</time></trkpt><trkpt lat="31.146708699710135" lon="-4.027639685455939"><ele>711.0</ele><time>2026-04-30T12:22:06.001Z</time></trkpt><trkpt lat="31.14666935028808" lon="-4.027697811667024"><ele>711.0</ele><time>2026-04-30T12:22:08.001Z</time></trkpt><trkpt lat="31.14660073471414" lon="-4.027731878663634"><ele>711.0</ele><time>2026-04-30T12:22:10.001Z</time></trkpt><trkpt lat="31.146513627904984" lon="-4.02770571046447"><ele>711.0</ele><time>2026-04-30T12:22:12.001Z</time></trkpt><trkpt lat="31.14642139309533" lon="-4.027602919103089"><ele>710.8333333333334</ele><time>2026-04-30T12:22:14.001Z</time></trkpt><trkpt lat="31.14637064563325" lon="-4.027555805499575"><ele>710.6666666666666</ele><time>2026-04-30T12:22:15.001Z</time></trkpt><trkpt lat="31.14631486089007" lon="-4.027514245413383"><ele>710.5</ele><time>2026-04-30T12:22:16.001Z</time></trkpt><trkpt lat="31.14619202251143" lon="-4.027478857029091"><ele>710.3333333333333</ele><time>2026-04-30T12:22:18.001Z</time></trkpt><trkpt lat="31.14612033198472" lon="-4.027484390294072"><ele>710.1666666666666</ele><time>2026-04-30T12:22:19.001Z</time></trkpt><trkpt lat="31.146046203856518" lon="-4.027497443782669"><ele>710.0</ele><time>2026-04-30T12:22:20.001Z</time></trkpt><trkpt lat="31.14597069332915" lon="-4.027517606676526"><ele>710.0</ele><time>2026-04-30T12:22:21.001Z</time></trkpt><trkpt lat="31.14589829888347" lon="-4.027551044912914"><ele>710.0</ele><time>2026-04-30T12:22:22.001Z</time></trkpt><trkpt lat="31.14583391352508" lon="-4.027593006410563"><ele>710.0</ele><time>2026-04-30T12:22:23.001Z</time></trkpt><trkpt lat="31.145770573102595" lon="-4.027613181973881"><ele>710.0</ele><time>2026-04-30T12:22:24.001Z</time></trkpt><trkpt lat="31.145713723325578" lon="-4.0276699518762245"><ele>710.0</ele><time>2026-04-30T12:22:25.001Z</time></trkpt><trkpt lat="31.145595597036348" lon="-4.027690949592795"><ele>710.0</ele><time>2026-04-30T12:22:27.001Z</time></trkpt><trkpt lat="31.14549345348362" lon="-4.027699003138982"><ele>710.2</ele><time>2026-04-30T12:22:29.001Z</time></trkpt><trkpt lat="31.145435222594024" lon="-4.027783125568083"><ele>710.4</ele><time>2026-04-30T12:22:31.001Z</time></trkpt><trkpt lat="31.14538825924846" lon="-4.0279203932480225"><ele>710.5999999999999</ele><time>2026-04-30T12:22:33.001Z</time></trkpt><trkpt lat="31.14531160261459" lon="-4.027983062570994"><ele>710.8</ele><time>2026-04-30T12:22:35.001Z</time></trkpt><trkpt lat="31.145190172985895" lon="-4.027941830957798"><ele>711.0</ele><time>2026-04-30T12:22:37.001Z</time></trkpt><trkpt lat="31.145127864450618" lon="-4.027895475677896"><ele>711.0</ele><time>2026-04-30T12:22:38.001Z</time></trkpt><trkpt lat="31.14506444929522" lon="-4.0278403227576325"><ele>711.0</ele><time>2026-04-30T12:22:39.001Z</time></trkpt><trkpt lat="31.145000438570836" lon="-4.027793688036623"><ele>711.0</ele><time>2026-04-30T12:22:40.001Z</time></trkpt><trkpt lat="31.1449352621043" lon="-4.027752234158831"><ele>711.0</ele><time>2026-04-30T12:22:41.001Z</time></trkpt><trkpt lat="31.144869622883196" lon="-4.027707643636188"><ele>711.0</ele><time>2026-04-30T12:22:42.001Z</time></trkpt><trkpt lat="31.144801119318686" lon="-4.027666180557732"><ele>711.0</ele><time>2026-04-30T12:22:43.001Z</time></trkpt><trkpt lat="31.144732686879287" lon="-4.02762650834149"><ele>711.2857142857143</ele><time>2026-04-30T12:22:44.001Z</time></trkpt><trkpt lat="31.144665827256638" lon="-4.027593205940362"><ele>711.5714285714286</ele><time>2026-04-30T12:22:45.001Z</time></trkpt><trkpt lat="31.14460334478863" lon="-4.027567881122746"><ele>711.8571428571429</ele><time>2026-04-30T12:22:46.001Z</time></trkpt><trkpt lat="31.144531824010382" lon="-4.027545528046663"><ele>712.1428571428571</ele><time>2026-04-30T12:22:47.001Z</time></trkpt><trkpt lat="31.14446555364342" lon="-4.027528189939452"><ele>712.4285714285714</ele><time>2026-04-30T12:22:48.001Z</time></trkpt><trkpt lat="31.144400738068175" lon="-4.027507686628038"><ele>712.7142857142857</ele><time>2026-04-30T12:22:49.001Z</time></trkpt><trkpt lat="31.144329105040175" lon="-4.02747668771515"><ele>713.0</ele><time>2026-04-30T12:22:50.001Z</time></trkpt><trkpt lat="31.144253212593036" lon="-4.0274733762043535"><ele>713.2</ele><time>2026-04-30T12:22:51.001Z</time></trkpt><trkpt lat="31.144197205178614" lon="-4.027430255678735"><ele>713.4</ele><time>2026-04-30T12:22:52.001Z</time></trkpt><trkpt lat="31.14413677891745" lon="-4.0274042002820405"><ele>713.6</ele><time>2026-04-30T12:22:53.001Z</time></trkpt><trkpt lat="31.144021090270858" lon="-4.0273573276527115"><ele>713.8000000000001</ele><time>2026-04-30T12:22:55.001Z</time></trkpt><trkpt lat="31.143908911336137" lon="-4.02729640745222"><ele>714.0</ele><time>2026-04-30T12:22:57.001Z</time></trkpt><trkpt lat="31.14382612112944" lon="-4.027237411407609"><ele>713.6</ele><time>2026-04-30T12:22:59.001Z</time></trkpt><trkpt lat="31.143739440270906" lon="-4.027183054725266"><ele>713.2</ele><time>2026-04-30T12:23:01.001Z</time></trkpt><trkpt lat="31.14373621106242" lon="-4.027088130193569"><ele>712.8000000000001</ele><time>2026-04-30T12:23:02.001Z</time></trkpt><trkpt lat="31.143686641418487" lon="-4.026964136212515"><ele>712.4000000000001</ele><time>2026-04-30T12:23:04.001Z</time></trkpt><trkpt lat="31.143657396232065" lon="-4.02685792837053"><ele>712.0</ele><time>2026-04-30T12:23:06.001Z</time></trkpt><trkpt lat="31.143638460387688" lon="-4.026768165509435"><ele>712.0</ele><time>2026-04-30T12:23:08.001Z</time></trkpt><trkpt lat="31.14349909199705" lon="-4.026745053972754"><ele>712.0</ele><time>2026-04-30T12:23:11.001Z</time></trkpt><trkpt lat="31.143412810955322" lon="-4.02674820854749"><ele>712.0</ele><time>2026-04-30T12:23:13.001Z</time></trkpt><trkpt lat="31.143329264263805" lon="-4.026751192357803"><ele>712.0</ele><time>2026-04-30T12:23:15.001Z</time></trkpt><trkpt lat="31.143238059103922" lon="-4.026754400984864"><ele>712.0</ele><time>2026-04-30T12:23:17.001Z</time></trkpt><trkpt lat="31.143185651797076" lon="-4.026695423091801"><ele>712.0</ele><time>2026-04-30T12:23:18.001Z</time></trkpt><trkpt lat="31.143093381920934" lon="-4.0266466293954615"><ele>712.0</ele><time>2026-04-30T12:23:20.001Z</time></trkpt><trkpt lat="31.14301424823146" lon="-4.026596537510093"><ele>712.0</ele><time>2026-04-30T12:23:22.001Z</time></trkpt><trkpt lat="31.142928080950202" lon="-4.026542257913581"><ele>712.0</ele><time>2026-04-30T12:23:24.001Z</time></trkpt><trkpt lat="31.142848532335698" lon="-4.026492673772184"><ele>712.0</ele><time>2026-04-30T12:23:26.001Z</time></trkpt><trkpt lat="31.142763777888923" lon="-4.026436445983505"><ele>712.0</ele><time>2026-04-30T12:23:28.001Z</time></trkpt><trkpt lat="31.142686487962816" lon="-4.026375751375653"><ele>712.0</ele><time>2026-04-30T12:23:30.001Z</time></trkpt><trkpt lat="31.142614894025655" lon="-4.026320066967041"><ele>712.0</ele><time>2026-04-30T12:23:32.001Z</time></trkpt><trkpt lat="31.14253559444101" lon="-4.026258093913177"><ele>712.0</ele><time>2026-04-30T12:23:34.001Z</time></trkpt><trkpt lat="31.142476548487352" lon="-4.026210948985588"><ele>712.0</ele><time>2026-04-30T12:23:36.001Z</time></trkpt><trkpt lat="31.142389557650212" lon="-4.026213142911757"><ele>712.0</ele><time>2026-04-30T12:23:38.001Z</time></trkpt><trkpt lat="31.142300896307553" lon="-4.026225500231627"><ele>712.5</ele><time>2026-04-30T12:23:40.001Z</time></trkpt><trkpt lat="31.142197332769896" lon="-4.026209923786177"><ele>713.0</ele><time>2026-04-30T12:23:42.001Z</time></trkpt><trkpt lat="31.142094719635868" lon="-4.026156944368262"><ele>713.5</ele><time>2026-04-30T12:23:44.001Z</time></trkpt><trkpt lat="31.141985109334936" lon="-4.026100352407719"><ele>714.0</ele><time>2026-04-30T12:23:46.001Z</time></trkpt><trkpt lat="31.14190012193591" lon="-4.026001851970695"><ele>714.0</ele><time>2026-04-30T12:23:48.001Z</time></trkpt><trkpt lat="31.141806537193016" lon="-4.025937520799065"><ele>714.0</ele><time>2026-04-30T12:23:50.001Z</time></trkpt><trkpt lat="31.1417151319307" lon="-4.025874688051269"><ele>714.0</ele><time>2026-04-30T12:23:52.001Z</time></trkpt><trkpt lat="31.141634448596964" lon="-4.025803798227412"><ele>714.0</ele><time>2026-04-30T12:23:54.001Z</time></trkpt><trkpt lat="31.141556878808736" lon="-4.025734771836252"><ele>714.0</ele><time>2026-04-30T12:23:56.001Z</time></trkpt><trkpt lat="31.141486496541557" lon="-4.025655135201297"><ele>713.6</ele><time>2026-04-30T12:23:58.001Z</time></trkpt><trkpt lat="31.141395652322977" lon="-4.025617096016781"><ele>713.2</ele><time>2026-04-30T12:24:00.001Z</time></trkpt><trkpt lat="31.14128103577231" lon="-4.025597248929304"><ele>712.8000000000001</ele><time>2026-04-30T12:24:02.001Z</time></trkpt><trkpt lat="31.141160557358212" lon="-4.025580117239232"><ele>712.4000000000001</ele><time>2026-04-30T12:24:04.001Z</time></trkpt><trkpt lat="31.1410970146378" lon="-4.025568655079666"><ele>712.0</ele><time>2026-04-30T12:24:05.001Z</time></trkpt><trkpt lat="31.14097271448079" lon="-4.02554545870965"><ele>712.0</ele><time>2026-04-30T12:24:07.001Z</time></trkpt><trkpt lat="31.14090169038529" lon="-4.025533929376514"><ele>712.0</ele><time>2026-04-30T12:24:08.001Z</time></trkpt><trkpt lat="31.14083784105317" lon="-4.025523468369178"><ele>712.0</ele><time>2026-04-30T12:24:09.001Z</time></trkpt><trkpt lat="31.140721446650335" lon="-4.025493644832421"><ele>712.0</ele><time>2026-04-30T12:24:11.001Z</time></trkpt><trkpt lat="31.1406502972714" lon="-4.025479729230883"><ele>712.0</ele><time>2026-04-30T12:24:12.001Z</time></trkpt><trkpt lat="31.140584318192406" lon="-4.025464556576636"><ele>712.0</ele><time>2026-04-30T12:24:13.001Z</time></trkpt><trkpt lat="31.14051675546831" lon="-4.025447719903547"><ele>711.8</ele><time>2026-04-30T12:24:14.001Z</time></trkpt><trkpt lat="31.14045160276678" lon="-4.025431839915971"><ele>711.6</ele><time>2026-04-30T12:24:15.001Z</time></trkpt><trkpt lat="31.14034438511045" lon="-4.025402196827278"><ele>711.4</ele><time>2026-04-30T12:24:17.001Z</time></trkpt><trkpt lat="31.140270444227355" lon="-4.0253918701084785"><ele>711.1999999999999</ele><time>2026-04-30T12:24:19.001Z</time></trkpt><trkpt lat="31.140177227054973" lon="-4.0253901530894804"><ele>711.0</ele><time>2026-04-30T12:24:23.001Z</time></trkpt><trkpt lat="31.140088005423305" lon="-4.025258605341839"><ele>711.0</ele><time>2026-04-30T12:24:25.001Z</time></trkpt><trkpt lat="31.140031557225107" lon="-4.02514024972848"><ele>711.0</ele><time>2026-04-30T12:24:27.001Z</time></trkpt><trkpt lat="31.139981143213568" lon="-4.025032445086729"><ele>711.0</ele><time>2026-04-30T12:24:29.001Z</time></trkpt><trkpt lat="31.139935973541085" lon="-4.024925641248181"><ele>711.0</ele><time>2026-04-30T12:24:31.001Z</time></trkpt><trkpt lat="31.139882274584444" lon="-4.024815982339449"><ele>711.0</ele><time>2026-04-30T12:24:33.001Z</time></trkpt><trkpt lat="31.139802451155624" lon="-4.0247383502972145"><ele>710.5999999999999</ele><time>2026-04-30T12:24:35.001Z</time></trkpt><trkpt lat="31.139722042769726" lon="-4.024743864978137"><ele>710.2</ele><time>2026-04-30T12:24:36.001Z</time></trkpt><trkpt lat="31.139607598652674" lon="-4.024712858897968"><ele>709.8</ele><time>2026-04-30T12:24:38.001Z</time></trkpt><trkpt lat="31.139503278116177" lon="-4.0246650980555785"><ele>709.4000000000001</ele><time>2026-04-30T12:24:40.001Z</time></trkpt><trkpt lat="31.13942201415738" lon="-4.02459608681122"><ele>709.0</ele><time>2026-04-30T12:24:42.001Z</time></trkpt><trkpt lat="31.139407411751467" lon="-4.024448363109254"><ele>709.0</ele><time>2026-04-30T12:24:44.001Z</time></trkpt><trkpt lat="31.139405626731357" lon="-4.024327812794741"><ele>709.0</ele><time>2026-04-30T12:24:46.001Z</time></trkpt><trkpt lat="31.139404025363536" lon="-4.024219665256635"><ele>709.0</ele><time>2026-04-30T12:24:48.001Z</time></trkpt><trkpt lat="31.139278261682964" lon="-4.024138671348078"><ele>709.0</ele><time>2026-04-30T12:24:51.001Z</time></trkpt><trkpt lat="31.139197193532347" lon="-4.024118820480631"><ele>709.0</ele><time>2026-04-30T12:24:52.001Z</time></trkpt><trkpt lat="31.139108807065103" lon="-4.024072541492132"><ele>709.8000000000001</ele><time>2026-04-30T12:24:53.001Z</time></trkpt><trkpt lat="31.139013074495143" lon="-4.024016921880687"><ele>710.6</ele><time>2026-04-30T12:24:54.001Z</time></trkpt><trkpt lat="31.138920894039675" lon="-4.0239833891729235"><ele>711.4</ele><time>2026-04-30T12:24:55.001Z</time></trkpt><trkpt lat="31.13882845179414" lon="-4.023967236177476"><ele>712.2</ele><time>2026-04-30T12:24:56.001Z</time></trkpt><trkpt lat="31.13873685806415" lon="-4.023938660605317"><ele>713.0</ele><time>2026-04-30T12:24:57.001Z</time></trkpt><trkpt lat="31.138647665252872" lon="-4.023913115070646"><ele>713.0</ele><time>2026-04-30T12:24:58.001Z</time></trkpt><trkpt lat="31.138556225355963" lon="-4.023879982773497"><ele>713.0</ele><time>2026-04-30T12:24:59.001Z</time></trkpt><trkpt lat="31.138459609108132" lon="-4.023841901084959"><ele>713.0</ele><time>2026-04-30T12:25:00.001Z</time></trkpt><trkpt lat="31.13836262505881" lon="-4.023801457941516"><ele>713.0</ele><time>2026-04-30T12:25:01.001Z</time></trkpt><trkpt lat="31.138266851179157" lon="-4.0237612945218455"><ele>713.0</ele><time>2026-04-30T12:25:02.001Z</time></trkpt><trkpt lat="31.13816846781033" lon="-4.023730018543263"><ele>713.0</ele><time>2026-04-30T12:25:03.001Z</time></trkpt><trkpt lat="31.138071611134563" lon="-4.023686966493575"><ele>713.0</ele><time>2026-04-30T12:25:04.001Z</time></trkpt><trkpt lat="31.137979771885995" lon="-4.023647937722248"><ele>713.0</ele><time>2026-04-30T12:25:05.001Z</time></trkpt><trkpt lat="31.137898124936843" lon="-4.023602945880731"><ele>713.0</ele><time>2026-04-30T12:25:06.001Z</time></trkpt><trkpt lat="31.137814972399994" lon="-4.023561443759665"><ele>713.0</ele><time>2026-04-30T12:25:07.001Z</time></trkpt><trkpt lat="31.137735807067504" lon="-4.023519786879985"><ele>713.0</ele><time>2026-04-30T12:25:08.001Z</time></trkpt><trkpt lat="31.137654248806886" lon="-4.023478044213433"><ele>713.0</ele><time>2026-04-30T12:25:09.001Z</time></trkpt><trkpt lat="31.137556511348567" lon="-4.023430346853078"><ele>713.0</ele><time>2026-04-30T12:25:10.001Z</time></trkpt><trkpt lat="31.137452906626564" lon="-4.023379712525657"><ele>713.0</ele><time>2026-04-30T12:25:11.001Z</time></trkpt><trkpt lat="31.137349417778633" lon="-4.023328989067167"><ele>713.0</ele><time>2026-04-30T12:25:12.001Z</time></trkpt><trkpt lat="31.137245035824026" lon="-4.02327819528772"><ele>712.0</ele><time>2026-04-30T12:25:13.001Z</time></trkpt><trkpt lat="31.137140866555303" lon="-4.023225055533596"><ele>711.0</ele><time>2026-04-30T12:25:14.001Z</time></trkpt><trkpt lat="31.13703286546098" lon="-4.023170812286981"><ele>710.0</ele><time>2026-04-30T12:25:15.001Z</time></trkpt><trkpt lat="31.13692394538224" lon="-4.023114529738009"><ele>709.0</ele><time>2026-04-30T12:25:16.001Z</time></trkpt><trkpt lat="31.13681217981458" lon="-4.023058399897772"><ele>709.0</ele><time>2026-04-30T12:25:17.001Z</time></trkpt><trkpt lat="31.13669729834149" lon="-4.023004403489219"><ele>709.0</ele><time>2026-04-30T12:25:18.001Z</time></trkpt><trkpt lat="31.136582405410287" lon="-4.022952526261337"><ele>709.0</ele><time>2026-04-30T12:25:19.001Z</time></trkpt><trkpt lat="31.13646351376095" lon="-4.022902174928296"><ele>709.0</ele><time>2026-04-30T12:25:20.001Z</time></trkpt><trkpt lat="31.136347274712254" lon="-4.022846578942467"><ele>709.25</ele><time>2026-04-30T12:25:21.001Z</time></trkpt><trkpt lat="31.136231205308007" lon="-4.022782751859835"><ele>709.5</ele><time>2026-04-30T12:25:22.001Z</time></trkpt><trkpt lat="31.136114477967784" lon="-4.022714785853223"><ele>709.75</ele><time>2026-04-30T12:25:23.001Z</time></trkpt><trkpt lat="31.135993287268544" lon="-4.022655426041747"><ele>710.0</ele><time>2026-04-30T12:25:24.001Z</time></trkpt><trkpt lat="31.135867420091742" lon="-4.022603337347383"><ele>710.0</ele><time>2026-04-30T12:25:25.001Z</time></trkpt><trkpt lat="31.135743081473645" lon="-4.022556364660131"><ele>710.0</ele><time>2026-04-30T12:25:26.001Z</time></trkpt><trkpt lat="31.13562694969371" lon="-4.022515313052147"><ele>710.0</ele><time>2026-04-30T12:25:27.001Z</time></trkpt><trkpt lat="31.135521054854443" lon="-4.022473501213354"><ele>710.0</ele><time>2026-04-30T12:25:28.001Z</time></trkpt><trkpt lat="31.13541370740084" lon="-4.022429168585645"><ele>708.75</ele><time>2026-04-30T12:25:29.001Z</time></trkpt><trkpt lat="31.13529915677628" lon="-4.022386210876992"><ele>707.5</ele><time>2026-04-30T12:25:30.001Z</time></trkpt><trkpt lat="31.135179633804796" lon="-4.022347372067905"><ele>706.25</ele><time>2026-04-30T12:25:31.001Z</time></trkpt><trkpt lat="31.135060441993986" lon="-4.022303200580512"><ele>705.0</ele><time>2026-04-30T12:25:32.001Z</time></trkpt><trkpt lat="31.1349427969811" lon="-4.0222485613201115"><ele>705.5</ele><time>2026-04-30T12:25:33.001Z</time></trkpt><trkpt lat="31.134822169699927" lon="-4.022195741823112"><ele>706.0</ele><time>2026-04-30T12:25:34.001Z</time></trkpt><trkpt lat="31.13470311314394" lon="-4.022142012293329"><ele>706.5</ele><time>2026-04-30T12:25:35.001Z</time></trkpt><trkpt lat="31.13458233123932" lon="-4.022086158195869"><ele>707.0</ele><time>2026-04-30T12:25:36.001Z</time></trkpt><trkpt lat="31.1344605679736" lon="-4.022029296518772"><ele>707.0</ele><time>2026-04-30T12:25:37.001Z</time></trkpt><trkpt lat="31.13433743088986" lon="-4.021973916329808"><ele>707.0</ele><time>2026-04-30T12:25:38.001Z</time></trkpt><trkpt lat="31.134212994858586" lon="-4.021916313386224"><ele>707.0</ele><time>2026-04-30T12:25:39.001Z</time></trkpt><trkpt lat="31.134086780309993" lon="-4.0218549774870525"><ele>707.0</ele><time>2026-04-30T12:25:40.001Z</time></trkpt><trkpt lat="31.133961474806586" lon="-4.021790332456082"><ele>707.5</ele><time>2026-04-30T12:25:41.001Z</time></trkpt><trkpt lat="31.13383714198099" lon="-4.021729572004999"><ele>708.0</ele><time>2026-04-30T12:25:42.001Z</time></trkpt><trkpt lat="31.133715047008305" lon="-4.021673697254912"><ele>708.5</ele><time>2026-04-30T12:25:43.001Z</time></trkpt><trkpt lat="31.13358703598622" lon="-4.021615105019354"><ele>709.0</ele><time>2026-04-30T12:25:44.001Z</time></trkpt><trkpt lat="31.133457202689222" lon="-4.02155012243663"><ele>708.25</ele><time>2026-04-30T12:25:45.001Z</time></trkpt><trkpt lat="31.13332693622155" lon="-4.021483754292376"><ele>707.5</ele><time>2026-04-30T12:25:46.001Z</time></trkpt><trkpt lat="31.133195997061428" lon="-4.02141830236635"><ele>706.75</ele><time>2026-04-30T12:25:47.001Z</time></trkpt><trkpt lat="31.133062599461155" lon="-4.021348929932827"><ele>706.0</ele><time>2026-04-30T12:25:48.001Z</time></trkpt><trkpt lat="31.132928645645766" lon="-4.021284149284458"><ele>706.0</ele><time>2026-04-30T12:25:49.001Z</time></trkpt><trkpt lat="31.132792112723305" lon="-4.021211882531038"><ele>706.0</ele><time>2026-04-30T12:25:50.001Z</time></trkpt><trkpt lat="31.132662529019512" lon="-4.021136537652959"><ele>706.0</ele><time>2026-04-30T12:25:51.001Z</time></trkpt><trkpt lat="31.13253135087539" lon="-4.021050469127724"><ele>706.0</ele><time>2026-04-30T12:25:52.001Z</time></trkpt><trkpt lat="31.132398780435985" lon="-4.020962388469031"><ele>706.0</ele><time>2026-04-30T12:25:53.001Z</time></trkpt><trkpt lat="31.132268557008338" lon="-4.020876380231948"><ele>706.0</ele><time>2026-04-30T12:25:54.001Z</time></trkpt><trkpt lat="31.132141558732204" lon="-4.02079012225816"><ele>706.0</ele><time>2026-04-30T12:25:55.001Z</time></trkpt><trkpt lat="31.132020432133125" lon="-4.020708252943212"><ele>706.0</ele><time>2026-04-30T12:25:56.001Z</time></trkpt><trkpt lat="31.13189631020051" lon="-4.020625801199743"><ele>705.75</ele><time>2026-04-30T12:25:57.001Z</time></trkpt><trkpt lat="31.131772777872687" lon="-4.020541529075484"><ele>705.5</ele><time>2026-04-30T12:25:58.001Z</time></trkpt><trkpt lat="31.131648155710923" lon="-4.020453595778853"><ele>705.25</ele><time>2026-04-30T12:25:59.001Z</time></trkpt><trkpt lat="31.131524483643254" lon="-4.020364267211003"><ele>705.0</ele><time>2026-04-30T12:26:00.001Z</time></trkpt><trkpt lat="31.13140058600852" lon="-4.020277807426243"><ele>705.0</ele><time>2026-04-30T12:26:01.001Z</time></trkpt><trkpt lat="31.131276813043666" lon="-4.0201912208701005"><ele>705.0</ele><time>2026-04-30T12:26:02.001Z</time></trkpt><trkpt lat="31.13114092577481" lon="-4.020128907719392"><ele>705.0</ele><time>2026-04-30T12:26:03.001Z</time></trkpt><trkpt lat="31.131007014682787" lon="-4.020070550691032"><ele>705.0</ele><time>2026-04-30T12:26:04.001Z</time></trkpt><trkpt lat="31.130873168747687" lon="-4.020013465701326"><ele>705.0</ele><time>2026-04-30T12:26:05.001Z</time></trkpt><trkpt lat="31.130735438445974" lon="-4.0199547240460065"><ele>705.0</ele><time>2026-04-30T12:26:06.001Z</time></trkpt><trkpt lat="31.130600723988284" lon="-4.019897449125289"><ele>705.0</ele><time>2026-04-30T12:26:07.001Z</time></trkpt><trkpt lat="31.130461062593625" lon="-4.019838143880654"><ele>705.0</ele><time>2026-04-30T12:26:08.001Z</time></trkpt><trkpt lat="31.130322614693306" lon="-4.019778639782366"><ele>705.5</ele><time>2026-04-30T12:26:09.001Z</time></trkpt><trkpt lat="31.13018522207557" lon="-4.019720293240345"><ele>706.0</ele><time>2026-04-30T12:26:10.001Z</time></trkpt><trkpt lat="31.130049552401424" lon="-4.019660857293562"><ele>706.5</ele><time>2026-04-30T12:26:11.001Z</time></trkpt><trkpt lat="31.12991779939831" lon="-4.019582066220504"><ele>707.0</ele><time>2026-04-30T12:26:12.001Z</time></trkpt><trkpt lat="31.129782008994063" lon="-4.019525509319042"><ele>707.0</ele><time>2026-04-30T12:26:13.001Z</time></trkpt><trkpt lat="31.1296448241278" lon="-4.0194702824112"><ele>707.0</ele><time>2026-04-30T12:26:14.001Z</time></trkpt><trkpt lat="31.129509930309105" lon="-4.019417164343366"><ele>707.0</ele><time>2026-04-30T12:26:15.001Z</time></trkpt><trkpt lat="31.129366136801252" lon="-4.019382328045754"><ele>707.0</ele><time>2026-04-30T12:26:16.001Z</time></trkpt><trkpt lat="31.12922804929237" lon="-4.0193294982378145"><ele>707.0</ele><time>2026-04-30T12:26:17.001Z</time></trkpt><trkpt lat="31.129090461612662" lon="-4.01927685963554"><ele>707.0</ele><time>2026-04-30T12:26:18.001Z</time></trkpt><trkpt lat="31.128952807782273" lon="-4.019224580828455"><ele>707.0</ele><time>2026-04-30T12:26:19.001Z</time></trkpt><trkpt lat="31.12881329700277" lon="-4.019157703206152"><ele>707.0</ele><time>2026-04-30T12:26:20.001Z</time></trkpt><trkpt lat="31.128669646165015" lon="-4.01911919737556"><ele>706.3333333333333</ele><time>2026-04-30T12:26:21.001Z</time></trkpt><trkpt lat="31.128522544700154" lon="-4.019076620105037"><ele>705.6666666666666</ele><time>2026-04-30T12:26:22.001Z</time></trkpt><trkpt lat="31.128376338585486" lon="-4.019041426945844"><ele>705.0</ele><time>2026-04-30T12:26:23.001Z</time></trkpt><trkpt lat="31.128225662340853" lon="-4.0190079798209375"><ele>705.0</ele><time>2026-04-30T12:26:24.001Z</time></trkpt><trkpt lat="31.128078553021165" lon="-4.0189795964518025"><ele>705.0</ele><time>2026-04-30T12:26:25.001Z</time></trkpt><trkpt lat="31.127932371266397" lon="-4.018957822846128"><ele>705.0</ele><time>2026-04-30T12:26:26.001Z</time></trkpt><trkpt lat="31.127785142961372" lon="-4.018934959305444"><ele>705.0</ele><time>2026-04-30T12:26:27.001Z</time></trkpt><trkpt lat="31.1276369212851" lon="-4.018906426253552"><ele>705.0</ele><time>2026-04-30T12:26:28.001Z</time></trkpt><trkpt lat="31.12748576139651" lon="-4.018884628988366"><ele>705.0</ele><time>2026-04-30T12:26:29.001Z</time></trkpt><trkpt lat="31.12733646153963" lon="-4.018861855692065"><ele>705.0</ele><time>2026-04-30T12:26:30.001Z</time></trkpt><trkpt lat="31.127183011552432" lon="-4.018847581903696"><ele>705.3333333333334</ele><time>2026-04-30T12:26:31.001Z</time></trkpt><trkpt lat="31.127030880223238" lon="-4.018827082129795"><ele>705.6666666666667</ele><time>2026-04-30T12:26:32.001Z</time></trkpt><trkpt lat="31.1268761269775" lon="-4.018810233592659"><ele>706.0</ele><time>2026-04-30T12:26:33.001Z</time></trkpt><trkpt lat="31.126721033993796" lon="-4.018790989568588"><ele>706.0</ele><time>2026-04-30T12:26:34.001Z</time></trkpt><trkpt lat="31.126565395693696" lon="-4.018763818196577"><ele>706.0</ele><time>2026-04-30T12:26:35.001Z</time></trkpt><trkpt lat="31.126406812186637" lon="-4.018737263877485"><ele>706.0</ele><time>2026-04-30T12:26:36.001Z</time></trkpt><trkpt lat="31.126248209639968" lon="-4.018704284894869"><ele>706.3333333333334</ele><time>2026-04-30T12:26:37.001Z</time></trkpt><trkpt lat="31.12609752435684" lon="-4.018659270569455"><ele>706.6666666666666</ele><time>2026-04-30T12:26:38.001Z</time></trkpt><trkpt lat="31.12594999522135" lon="-4.018612907382794"><ele>707.0</ele><time>2026-04-30T12:26:39.001Z</time></trkpt><trkpt lat="31.125811176268236" lon="-4.018568515680893"><ele>706.75</ele><time>2026-04-30T12:26:40.001Z</time></trkpt><trkpt lat="31.12567613173267" lon="-4.0185145850458195"><ele>706.5</ele><time>2026-04-30T12:26:41.001Z</time></trkpt><trkpt lat="31.125542803458224" lon="-4.018464135308655"><ele>706.25</ele><time>2026-04-30T12:26:42.001Z</time></trkpt><trkpt lat="31.125403315684913" lon="-4.018418715052805"><ele>706.0</ele><time>2026-04-30T12:26:43.001Z</time></trkpt><trkpt lat="31.125265996069807" lon="-4.018363390819789"><ele>705.75</ele><time>2026-04-30T12:26:44.001Z</time></trkpt><trkpt lat="31.12512944484215" lon="-4.018308963290305"><ele>705.5</ele><time>2026-04-30T12:26:45.001Z</time></trkpt><trkpt lat="31.124988328950547" lon="-4.018245251736043"><ele>705.25</ele><time>2026-04-30T12:26:46.001Z</time></trkpt><trkpt lat="31.12484887922965" lon="-4.01817413994646"><ele>705.0</ele><time>2026-04-30T12:26:47.001Z</time></trkpt><trkpt lat="31.124713607724882" lon="-4.01809577833785"><ele>705.0</ele><time>2026-04-30T12:26:48.001Z</time></trkpt><trkpt lat="31.124589464794106" lon="-4.018001541637436"><ele>705.0</ele><time>2026-04-30T12:26:49.001Z</time></trkpt><trkpt lat="31.124428291833347" lon="-4.017947047678313"><ele>705.0</ele><time>2026-04-30T12:26:50.001Z</time></trkpt><trkpt lat="31.124292593800675" lon="-4.017871482554549"><ele>705.0</ele><time>2026-04-30T12:26:51.001Z</time></trkpt><trkpt lat="31.1241555780736" lon="-4.017801071940355"><ele>705.0</ele><time>2026-04-30T12:26:52.001Z</time></trkpt><trkpt lat="31.12401706835191" lon="-4.0177316584535845"><ele>705.0</ele><time>2026-04-30T12:26:53.001Z</time></trkpt><trkpt lat="31.123878310622914" lon="-4.017660490335227"><ele>705.0</ele><time>2026-04-30T12:26:54.001Z</time></trkpt><trkpt lat="31.123734456569863" lon="-4.017601777946623"><ele>705.0</ele><time>2026-04-30T12:26:55.001Z</time></trkpt><trkpt lat="31.123592149394383" lon="-4.017534817115409"><ele>705.0</ele><time>2026-04-30T12:26:56.001Z</time></trkpt><trkpt lat="31.123449686583225" lon="-4.01746797883984"><ele>705.3333333333334</ele><time>2026-04-30T12:26:57.001Z</time></trkpt><trkpt lat="31.12330501135274" lon="-4.017400111677236"><ele>705.6666666666667</ele><time>2026-04-30T12:26:58.001Z</time></trkpt><trkpt lat="31.12315695023086" lon="-4.01733065618393"><ele>706.0</ele><time>2026-04-30T12:26:59.001Z</time></trkpt><trkpt lat="31.123015326511428" lon="-4.0172494956158005"><ele>706.0</ele><time>2026-04-30T12:27:00.001Z</time></trkpt><trkpt lat="31.122862832955548" lon="-4.017236809249039"><ele>706.0</ele><time>2026-04-30T12:27:01.001Z</time></trkpt><trkpt lat="31.12271201937273" lon="-4.0172154847709125"><ele>706.0</ele><time>2026-04-30T12:27:02.001Z</time></trkpt><trkpt lat="31.122556282257133" lon="-4.017192986090605"><ele>706.0</ele><time>2026-04-30T12:27:03.001Z</time></trkpt><trkpt lat="31.122402053370784" lon="-4.017170654059052"><ele>706.0</ele><time>2026-04-30T12:27:04.001Z</time></trkpt><trkpt lat="31.12224800032212" lon="-4.017148347493437"><ele>706.0</ele><time>2026-04-30T12:27:05.001Z</time></trkpt><trkpt lat="31.122092969520494" lon="-4.017125899352323"><ele>705.3333333333334</ele><time>2026-04-30T12:27:06.001Z</time></trkpt><trkpt lat="31.121940650467685" lon="-4.017103843868355"><ele>704.6666666666666</ele><time>2026-04-30T12:27:07.001Z</time></trkpt><trkpt lat="31.121789128244956" lon="-4.017081903724874"><ele>704.0</ele><time>2026-04-30T12:27:08.001Z</time></trkpt><trkpt lat="31.12163799215735" lon="-4.017055367185616"><ele>705.0</ele><time>2026-04-30T12:27:09.001Z</time></trkpt><trkpt lat="31.121485507682397" lon="-4.017091871367268"><ele>706.0</ele><time>2026-04-30T12:27:10.001Z</time></trkpt><trkpt lat="31.12132971045044" lon="-4.017112860816061"><ele>707.0</ele><time>2026-04-30T12:27:11.001Z</time></trkpt><trkpt lat="31.121177392263213" lon="-4.017133299000217"><ele>707.0</ele><time>2026-04-30T12:27:12.001Z</time></trkpt><trkpt lat="31.121026154734317" lon="-4.017153487605517"><ele>707.0</ele><time>2026-04-30T12:27:13.001Z</time></trkpt><trkpt lat="31.120871853272213" lon="-4.01717408524509"><ele>707.0</ele><time>2026-04-30T12:27:14.001Z</time></trkpt><trkpt lat="31.12071956090708" lon="-4.017194414645914"><ele>706.6666666666666</ele><time>2026-04-30T12:27:15.001Z</time></trkpt><trkpt lat="31.120569405336543" lon="-4.017214458842457"><ele>706.3333333333334</ele><time>2026-04-30T12:27:16.001Z</time></trkpt><trkpt lat="31.120414919223922" lon="-4.017223832130624"><ele>706.0</ele><time>2026-04-30T12:27:17.001Z</time></trkpt><trkpt lat="31.120259396702796" lon="-4.017250197059925"><ele>706.0</ele><time>2026-04-30T12:27:18.001Z</time></trkpt><trkpt lat="31.12010235898376" lon="-4.0172732952326955"><ele>706.0</ele><time>2026-04-30T12:27:19.001Z</time></trkpt><trkpt lat="31.119945651251015" lon="-4.017295208863362"><ele>706.0</ele><time>2026-04-30T12:27:20.001Z</time></trkpt><trkpt lat="31.119787452535885" lon="-4.0173180491055165"><ele>705.0</ele><time>2026-04-30T12:27:21.001Z</time></trkpt><trkpt lat="31.119628742345462" lon="-4.017342676826683"><ele>704.0</ele><time>2026-04-30T12:27:22.001Z</time></trkpt><trkpt lat="31.119471270167903" lon="-4.0173720175269505"><ele>703.0</ele><time>2026-04-30T12:27:23.001Z</time></trkpt><trkpt lat="31.119312121563308" lon="-4.017398566895742"><ele>703.0</ele><time>2026-04-30T12:27:24.001Z</time></trkpt><trkpt lat="31.11915486579003" lon="-4.0174228585514715"><ele>703.0</ele><time>2026-04-30T12:27:25.001Z</time></trkpt><trkpt lat="31.118996696586116" lon="-4.0174453207841445"><ele>703.0</ele><time>2026-04-30T12:27:26.001Z</time></trkpt><trkpt lat="31.118837539702227" lon="-4.017468295649368"><ele>705.0</ele><time>2026-04-30T12:27:27.001Z</time></trkpt><trkpt lat="31.118682096748934" lon="-4.017490509281417"><ele>707.0</ele><time>2026-04-30T12:27:28.001Z</time></trkpt><trkpt lat="31.118524600071094" lon="-4.017512014554848"><ele>709.0</ele><time>2026-04-30T12:27:29.001Z</time></trkpt><trkpt lat="31.118368071094395" lon="-4.017534184589012"><ele>707.6666666666667</ele><time>2026-04-30T12:27:30.001Z</time></trkpt><trkpt lat="31.118210576677743" lon="-4.017555732000188"><ele>706.3333333333334</ele><time>2026-04-30T12:27:31.001Z</time></trkpt><trkpt lat="31.11805414432721" lon="-4.017580548273514"><ele>705.0</ele><time>2026-04-30T12:27:32.001Z</time></trkpt><trkpt lat="31.117898395897374" lon="-4.017604519737015"><ele>705.0</ele><time>2026-04-30T12:27:33.001Z</time></trkpt><trkpt lat="31.1177413016487" lon="-4.0176258301666135"><ele>705.0</ele><time>2026-04-30T12:27:34.001Z</time></trkpt><trkpt lat="31.117582462362193" lon="-4.017643523393169"><ele>705.0</ele><time>2026-04-30T12:27:35.001Z</time></trkpt><trkpt lat="31.117423274495817" lon="-4.017659582854973"><ele>705.0</ele><time>2026-04-30T12:27:36.001Z</time></trkpt><trkpt lat="31.11726180803" lon="-4.017669278798041"><ele>705.0</ele><time>2026-04-30T12:27:37.001Z</time></trkpt><trkpt lat="31.117101909702647" lon="-4.017678599890233"><ele>705.0</ele><time>2026-04-30T12:27:38.001Z</time></trkpt><trkpt lat="31.1169419732781" lon="-4.0176824251478145"><ele>705.0</ele><time>2026-04-30T12:27:39.001Z</time></trkpt><trkpt lat="31.116784005517363" lon="-4.017682631503534"><ele>705.0</ele><time>2026-04-30T12:27:40.001Z</time></trkpt><trkpt lat="31.11662321113626" lon="-4.017683115373573"><ele>705.0</ele><time>2026-04-30T12:27:41.001Z</time></trkpt><trkpt lat="31.11646622167416" lon="-4.017681142748734"><ele>705.0</ele><time>2026-04-30T12:27:42.001Z</time></trkpt><trkpt lat="31.116308087107" lon="-4.017676582782513"><ele>705.0</ele><time>2026-04-30T12:27:43.001Z</time></trkpt><trkpt lat="31.116150817014887" lon="-4.017663131090535"><ele>705.0</ele><time>2026-04-30T12:27:44.001Z</time></trkpt><trkpt lat="31.115999640781858" lon="-4.01764563317499"><ele>705.0</ele><time>2026-04-30T12:27:45.001Z</time></trkpt><trkpt lat="31.11584807951183" lon="-4.017630790258552"><ele>705.0</ele><time>2026-04-30T12:27:46.001Z</time></trkpt><trkpt lat="31.115697410176285" lon="-4.01761536673937"><ele>705.0</ele><time>2026-04-30T12:27:47.001Z</time></trkpt><trkpt lat="31.115550641235515" lon="-4.017596054717099"><ele>705.5</ele><time>2026-04-30T12:27:48.001Z</time></trkpt><trkpt lat="31.1154014580555" lon="-4.017580002227151"><ele>706.0</ele><time>2026-04-30T12:27:49.001Z</time></trkpt><trkpt lat="31.11525454444818" lon="-4.017562651489402"><ele>706.5</ele><time>2026-04-30T12:27:50.001Z</time></trkpt><trkpt lat="31.115107816671994" lon="-4.017544870536248"><ele>707.0</ele><time>2026-04-30T12:27:51.001Z</time></trkpt><trkpt lat="31.114959297356414" lon="-4.017524924291352"><ele>707.0</ele><time>2026-04-30T12:27:52.001Z</time></trkpt><trkpt lat="31.11481225249571" lon="-4.017503854230297"><ele>707.0</ele><time>2026-04-30T12:27:53.001Z</time></trkpt><trkpt lat="31.114662464505958" lon="-4.017485327552647"><ele>707.0</ele><time>2026-04-30T12:27:54.001Z</time></trkpt><trkpt lat="31.11451073724081" lon="-4.017469576656156"><ele>707.0</ele><time>2026-04-30T12:27:55.001Z</time></trkpt><trkpt lat="31.114358523818634" lon="-4.017450937026217"><ele>707.0</ele><time>2026-04-30T12:27:56.001Z</time></trkpt><trkpt lat="31.11420563689181" lon="-4.017433499611499"><ele>707.0</ele><time>2026-04-30T12:27:57.001Z</time></trkpt><trkpt lat="31.114057242603923" lon="-4.017413495820313"><ele>706.75</ele><time>2026-04-30T12:27:58.001Z</time></trkpt><trkpt lat="31.11391112454057" lon="-4.0173942333375"><ele>706.5</ele><time>2026-04-30T12:27:59.001Z</time></trkpt><trkpt lat="31.113767060680882" lon="-4.017369868551267"><ele>706.25</ele><time>2026-04-30T12:28:00.001Z</time></trkpt><trkpt lat="31.113626220221306" lon="-4.017348928896776"><ele>706.0</ele><time>2026-04-30T12:28:01.001Z</time></trkpt><trkpt lat="31.113483924285873" lon="-4.017323534033157"><ele>706.0</ele><time>2026-04-30T12:28:02.001Z</time></trkpt><trkpt lat="31.11334592001728" lon="-4.017327662506815"><ele>706.0</ele><time>2026-04-30T12:28:03.001Z</time></trkpt><trkpt lat="31.11320989057589" lon="-4.017311072345427"><ele>706.0</ele><time>2026-04-30T12:28:04.001Z</time></trkpt><trkpt lat="31.113075524260857" lon="-4.017292663733704"><ele>706.0</ele><time>2026-04-30T12:28:05.001Z</time></trkpt><trkpt lat="31.112944574298908" lon="-4.017274306785358"><ele>706.5</ele><time>2026-04-30T12:28:06.001Z</time></trkpt><trkpt lat="31.11281584812909" lon="-4.017237582291778"><ele>707.0</ele><time>2026-04-30T12:28:07.001Z</time></trkpt><trkpt lat="31.112689034836055" lon="-4.017202742137413"><ele>707.5</ele><time>2026-04-30T12:28:08.001Z</time></trkpt><trkpt lat="31.112562412791668" lon="-4.0171690100363415"><ele>708.0</ele><time>2026-04-30T12:28:09.001Z</time></trkpt><trkpt lat="31.112446630307996" lon="-4.017120110560539"><ele>707.8</ele><time>2026-04-30T12:28:10.001Z</time></trkpt><trkpt lat="31.112332737676137" lon="-4.017094713639692"><ele>707.5999999999999</ele><time>2026-04-30T12:28:11.001Z</time></trkpt><trkpt lat="31.11222231564041" lon="-4.017068935567346"><ele>707.4000000000001</ele><time>2026-04-30T12:28:12.001Z</time></trkpt><trkpt lat="31.112117007752268" lon="-4.017045968752278"><ele>707.2</ele><time>2026-04-30T12:28:13.001Z</time></trkpt><trkpt lat="31.112015135067892" lon="-4.017020703253259"><ele>707.0</ele><time>2026-04-30T12:28:14.001Z</time></trkpt><trkpt lat="31.11191511591309" lon="-4.016995256632042"><ele>707.0</ele><time>2026-04-30T12:28:15.001Z</time></trkpt><trkpt lat="31.111809736839614" lon="-4.016966687625727"><ele>707.0</ele><time>2026-04-30T12:28:16.001Z</time></trkpt><trkpt lat="31.111701222805813" lon="-4.016935677686109"><ele>707.0</ele><time>2026-04-30T12:28:17.001Z</time></trkpt><trkpt lat="31.111591643876814" lon="-4.016905116940701"><ele>707.0</ele><time>2026-04-30T12:28:18.001Z</time></trkpt><trkpt lat="31.111482879126566" lon="-4.016872860917234"><ele>707.0</ele><time>2026-04-30T12:28:19.001Z</time></trkpt><trkpt lat="31.111375107193055" lon="-4.016842180645903"><ele>706.5</ele><time>2026-04-30T12:28:20.001Z</time></trkpt><trkpt lat="31.111264377714637" lon="-4.016811178783235"><ele>706.0</ele><time>2026-04-30T12:28:21.001Z</time></trkpt><trkpt lat="31.111152580868843" lon="-4.016783713441839"><ele>705.5</ele><time>2026-04-30T12:28:22.001Z</time></trkpt><trkpt lat="31.11103862742573" lon="-4.016753610211921"><ele>705.0</ele><time>2026-04-30T12:28:23.001Z</time></trkpt><trkpt lat="31.110921470778173" lon="-4.0167238109887675"><ele>705.0</ele><time>2026-04-30T12:28:24.001Z</time></trkpt><trkpt lat="31.110803670169485" lon="-4.016690889244824"><ele>705.0</ele><time>2026-04-30T12:28:25.001Z</time></trkpt><trkpt lat="31.110681925186935" lon="-4.016653024769986"><ele>705.0</ele><time>2026-04-30T12:28:26.001Z</time></trkpt><trkpt lat="31.110562179039448" lon="-4.0166213873989465"><ele>705.0</ele><time>2026-04-30T12:28:27.001Z</time></trkpt><trkpt lat="31.110440503383096" lon="-4.016589939260425"><ele>705.0</ele><time>2026-04-30T12:28:28.001Z</time></trkpt><trkpt lat="31.11032093630096" lon="-4.016553326281064"><ele>705.0</ele><time>2026-04-30T12:28:29.001Z</time></trkpt><trkpt lat="31.11020139084194" lon="-4.016515342816588"><ele>705.0</ele><time>2026-04-30T12:28:30.001Z</time></trkpt><trkpt lat="31.11008393811813" lon="-4.016481458068942"><ele>705.0</ele><time>2026-04-30T12:28:31.001Z</time></trkpt><trkpt lat="31.109970432710316" lon="-4.0164468431075715"><ele>704.25</ele><time>2026-04-30T12:28:32.001Z</time></trkpt><trkpt lat="31.109858724382516" lon="-4.0164114869479715"><ele>703.5</ele><time>2026-04-30T12:28:33.001Z</time></trkpt><trkpt lat="31.10974287863359" lon="-4.0163968074962035"><ele>702.75</ele><time>2026-04-30T12:28:34.001Z</time></trkpt><trkpt lat="31.109630769188648" lon="-4.01636539418877"><ele>702.0</ele><time>2026-04-30T12:28:35.001Z</time></trkpt><trkpt lat="31.109517956589688" lon="-4.016333879585841"><ele>702.0</ele><time>2026-04-30T12:28:36.001Z</time></trkpt><trkpt lat="31.10940836351732" lon="-4.016302789600761"><ele>702.0</ele><time>2026-04-30T12:28:37.001Z</time></trkpt><trkpt lat="31.109301154431506" lon="-4.016268849296401"><ele>702.0</ele><time>2026-04-30T12:28:38.001Z</time></trkpt><trkpt lat="31.109203134463453" lon="-4.016219484303997"><ele>702.0</ele><time>2026-04-30T12:28:39.001Z</time></trkpt><trkpt lat="31.109102016200573" lon="-4.016191536206046"><ele>702.0</ele><time>2026-04-30T12:28:40.001Z</time></trkpt><trkpt lat="31.109002358073457" lon="-4.016164456796673"><ele>701.4000000000001</ele><time>2026-04-30T12:28:41.001Z</time></trkpt><trkpt lat="31.10890390858621" lon="-4.016131283080503"><ele>700.8000000000001</ele><time>2026-04-30T12:28:42.001Z</time></trkpt><trkpt lat="31.10880854874232" lon="-4.016098634650415"><ele>700.2</ele><time>2026-04-30T12:28:43.001Z</time></trkpt><trkpt lat="31.10870919849947" lon="-4.01606359786641"><ele>699.6</ele><time>2026-04-30T12:28:44.001Z</time></trkpt><trkpt lat="31.108605099601526" lon="-4.016054793470995"><ele>699.0</ele><time>2026-04-30T12:28:45.001Z</time></trkpt><trkpt lat="31.108503424174156" lon="-4.01602531189434"><ele>699.0</ele><time>2026-04-30T12:28:46.001Z</time></trkpt><trkpt lat="31.10840123419617" lon="-4.015995493849605"><ele>699.0</ele><time>2026-04-30T12:28:47.001Z</time></trkpt><trkpt lat="31.108295518442098" lon="-4.015964646819243"><ele>699.0</ele><time>2026-04-30T12:28:48.001Z</time></trkpt><trkpt lat="31.108188204578028" lon="-4.015933958299581"><ele>699.0</ele><time>2026-04-30T12:28:49.001Z</time></trkpt><trkpt lat="31.108079101614905" lon="-4.0159024903582505"><ele>699.0</ele><time>2026-04-30T12:28:50.001Z</time></trkpt><trkpt lat="31.10796829779499" lon="-4.015870679313079"><ele>699.2</ele><time>2026-04-30T12:28:51.001Z</time></trkpt><trkpt lat="31.10785921983325" lon="-4.015839363752524"><ele>699.4000000000001</ele><time>2026-04-30T12:28:52.001Z</time></trkpt><trkpt lat="31.10775208736273" lon="-4.015808606726684"><ele>699.6</ele><time>2026-04-30T12:28:53.001Z</time></trkpt><trkpt lat="31.107643363081383" lon="-4.015777349698035"><ele>699.8</ele><time>2026-04-30T12:28:54.001Z</time></trkpt><trkpt lat="31.107535340522112" lon="-4.015746211666433"><ele>700.0</ele><time>2026-04-30T12:28:55.001Z</time></trkpt><trkpt lat="31.10742437990932" lon="-4.015714226722818"><ele>699.8</ele><time>2026-04-30T12:28:56.001Z</time></trkpt><trkpt lat="31.1073129810087" lon="-4.015680207502774"><ele>699.6</ele><time>2026-04-30T12:28:57.001Z</time></trkpt><trkpt lat="31.10720462468777" lon="-4.015643992409513"><ele>699.4000000000001</ele><time>2026-04-30T12:28:58.001Z</time></trkpt><trkpt lat="31.1070990404873" lon="-4.015609164354017"><ele>699.2</ele><time>2026-04-30T12:28:59.001Z</time></trkpt><trkpt lat="31.106995143921537" lon="-4.015577067194019"><ele>699.0</ele><time>2026-04-30T12:29:00.001Z</time></trkpt><trkpt lat="31.106892716535867" lon="-4.0155447012150285"><ele>699.0</ele><time>2026-04-30T12:29:01.001Z</time></trkpt><trkpt lat="31.10679104912961" lon="-4.01550851663781"><ele>699.0</ele><time>2026-04-30T12:29:02.001Z</time></trkpt><trkpt lat="31.106696807269714" lon="-4.015455215407885"><ele>699.0</ele><time>2026-04-30T12:29:03.001Z</time></trkpt><trkpt lat="31.106592162178668" lon="-4.015428119760862"><ele>699.0</ele><time>2026-04-30T12:29:04.001Z</time></trkpt><trkpt lat="31.10648810328507" lon="-4.015397029764441"><ele>699.0</ele><time>2026-04-30T12:29:05.001Z</time></trkpt><trkpt lat="31.106386787256955" lon="-4.015395615940679"><ele>699.0</ele><time>2026-04-30T12:29:06.001Z</time></trkpt><trkpt lat="31.106286601863786" lon="-4.015393817281941"><ele>699.0</ele><time>2026-04-30T12:29:07.001Z</time></trkpt><trkpt lat="31.106184217298136" lon="-4.0153922517482865"><ele>699.0</ele><time>2026-04-30T12:29:08.001Z</time></trkpt><trkpt lat="31.106082665942168" lon="-4.015378351911135"><ele>699.0</ele><time>2026-04-30T12:29:09.001Z</time></trkpt><trkpt lat="31.105975657819" lon="-4.015402951944234"><ele>699.0</ele><time>2026-04-30T12:29:10.001Z</time></trkpt><trkpt lat="31.1058626156261" lon="-4.015429564943263"><ele>699.0</ele><time>2026-04-30T12:29:11.001Z</time></trkpt><trkpt lat="31.10575264797582" lon="-4.015452641761503"><ele>699.0</ele><time>2026-04-30T12:29:12.001Z</time></trkpt><trkpt lat="31.105649057162907" lon="-4.015477236647742"><ele>699.0</ele><time>2026-04-30T12:29:13.001Z</time></trkpt><trkpt lat="31.105546005897438" lon="-4.0155018900917465"><ele>699.0</ele><time>2026-04-30T12:29:14.001Z</time></trkpt><trkpt lat="31.10544676247082" lon="-4.015526070642516"><ele>699.0</ele><time>2026-04-30T12:29:15.001Z</time></trkpt><trkpt lat="31.105346749330128" lon="-4.01555457363948"><ele>699.0</ele><time>2026-04-30T12:29:16.001Z</time></trkpt><trkpt lat="31.105244176668787" lon="-4.015578418867797"><ele>699.0</ele><time>2026-04-30T12:29:17.001Z</time></trkpt><trkpt lat="31.105144085608792" lon="-4.0156254271688505"><ele>699.0</ele><time>2026-04-30T12:29:18.001Z</time></trkpt><trkpt lat="31.105038327152027" lon="-4.0156547872268575"><ele>699.0</ele><time>2026-04-30T12:29:19.001Z</time></trkpt><trkpt lat="31.104931843735063" lon="-4.015673933678842"><ele>699.0</ele><time>2026-04-30T12:29:20.001Z</time></trkpt><trkpt lat="31.104830209370057" lon="-4.015674521019322"><ele>699.0</ele><time>2026-04-30T12:29:21.001Z</time></trkpt><trkpt lat="31.1047405313501" lon="-4.015694503173401"><ele>699.0</ele><time>2026-04-30T12:29:22.001Z</time></trkpt><trkpt lat="31.104657391547583" lon="-4.015707921837417"><ele>699.0</ele><time>2026-04-30T12:29:23.001Z</time></trkpt><trkpt lat="31.104577041811265" lon="-4.01571663346563"><ele>699.0</ele><time>2026-04-30T12:29:24.001Z</time></trkpt><trkpt lat="31.104498855536246" lon="-4.015718700458716"><ele>699.0</ele><time>2026-04-30T12:29:25.001Z</time></trkpt><trkpt lat="31.10441342236906" lon="-4.015719787781072"><ele>699.0</ele><time>2026-04-30T12:29:26.001Z</time></trkpt><trkpt lat="31.10431775665048" lon="-4.015720152825758"><ele>699.0</ele><time>2026-04-30T12:29:27.001Z</time></trkpt><trkpt lat="31.104214484754245" lon="-4.01572197399937"><ele>699.0</ele><time>2026-04-30T12:29:28.001Z</time></trkpt><trkpt lat="31.104114615521393" lon="-4.015722979234614"><ele>699.0</ele><time>2026-04-30T12:29:29.001Z</time></trkpt><trkpt lat="31.104017358721112" lon="-4.015723940871364"><ele>699.0</ele><time>2026-04-30T12:29:30.001Z</time></trkpt><trkpt lat="31.103923673954547" lon="-4.015727008282605"><ele>699.0</ele><time>2026-04-30T12:29:31.001Z</time></trkpt><trkpt lat="31.103829958012987" lon="-4.015729400998124"><ele>699.0</ele><time>2026-04-30T12:29:32.001Z</time></trkpt><trkpt lat="31.103735197749025" lon="-4.015727397957782"><ele>699.0</ele><time>2026-04-30T12:29:33.001Z</time></trkpt><trkpt lat="31.103641300514028" lon="-4.015724559651581"><ele>699.0</ele><time>2026-04-30T12:29:34.001Z</time></trkpt><trkpt lat="31.10354741088344" lon="-4.015723322012621"><ele>699.0</ele><time>2026-04-30T12:29:35.001Z</time></trkpt><trkpt lat="31.103458769991853" lon="-4.015715994356663"><ele>699.0</ele><time>2026-04-30T12:29:36.001Z</time></trkpt><trkpt lat="31.103376985340205" lon="-4.015708462021592"><ele>699.0</ele><time>2026-04-30T12:29:37.001Z</time></trkpt><trkpt lat="31.103287185111768" lon="-4.015701663747362"><ele>699.0</ele><time>2026-04-30T12:29:38.001Z</time></trkpt><trkpt lat="31.10319196639883" lon="-4.015693280488647"><ele>699.0</ele><time>2026-04-30T12:29:39.001Z</time></trkpt><trkpt lat="31.103094315522995" lon="-4.015704099090907"><ele>699.0</ele><time>2026-04-30T12:29:40.001Z</time></trkpt><trkpt lat="31.102994805817406" lon="-4.015681518550563"><ele>699.0</ele><time>2026-04-30T12:29:41.001Z</time></trkpt><trkpt lat="31.102894138217152" lon="-4.01568858313576"><ele>699.0</ele><time>2026-04-30T12:29:42.001Z</time></trkpt><trkpt lat="31.102798613345737" lon="-4.015698398271214"><ele>699.0</ele><time>2026-04-30T12:29:43.001Z</time></trkpt><trkpt lat="31.10270536053302" lon="-4.0157094039975645"><ele>699.0</ele><time>2026-04-30T12:29:44.001Z</time></trkpt><trkpt lat="31.102608532860685" lon="-4.0157277247528596"><ele>699.0</ele><time>2026-04-30T12:29:45.001Z</time></trkpt><trkpt lat="31.102508767804327" lon="-4.015745643934635"><ele>699.0</ele><time>2026-04-30T12:29:46.001Z</time></trkpt><trkpt lat="31.102431630487207" lon="-4.015771429283677"><ele>699.0</ele><time>2026-04-30T12:29:47Z</time></trkpt><trkpt lat="31.102332561063676" lon="-4.015807226367536"><ele>699.0</ele><time>2026-04-30T12:29:48Z</time></trkpt><trkpt lat="31.102234131592166" lon="-4.015839975638264"><ele>699.0</ele><time>2026-04-30T12:29:49Z</time></trkpt><trkpt lat="31.102137129521946" lon="-4.015866790096033"><ele>699.0</ele><time>2026-04-30T12:29:50Z</time></trkpt><trkpt lat="31.102043416657875" lon="-4.0159104270753785"><ele>699.0</ele><time>2026-04-30T12:29:51Z</time></trkpt><trkpt lat="31.101947819379294" lon="-4.015920808418495"><ele>699.0</ele><time>2026-04-30T12:29:52Z</time></trkpt><trkpt lat="31.10185581561917" lon="-4.015939735468788"><ele>699.0</ele><time>2026-04-30T12:29:53Z</time></trkpt><trkpt lat="31.101766620490917" lon="-4.015955898326516"><ele>699.0</ele><time>2026-04-30T12:29:54Z</time></trkpt><trkpt lat="31.101681876330794" lon="-4.015966274807655"><ele>699.0</ele><time>2026-04-30T12:29:55Z</time></trkpt><trkpt lat="31.10159669168192" lon="-4.015988311794585"><ele>699.0</ele><time>2026-04-30T12:29:56Z</time></trkpt><trkpt lat="31.101515736507217" lon="-4.016019837606735"><ele>699.0</ele><time>2026-04-30T12:29:57Z</time></trkpt><trkpt lat="31.101436355557773" lon="-4.0160490394972905"><ele>699.0</ele><time>2026-04-30T12:29:58Z</time></trkpt><trkpt lat="31.101357896029914" lon="-4.0161006806042465"><ele>699.0</ele><time>2026-04-30T12:29:59Z</time></trkpt><trkpt lat="31.10128434413398" lon="-4.016155120566929"><ele>699.0</ele><time>2026-04-30T12:30:00Z</time></trkpt><trkpt lat="31.10120922487852" lon="-4.016200341580653"><ele>699.0</ele><time>2026-04-30T12:30:01Z</time></trkpt><trkpt lat="31.101138266195775" lon="-4.016242782771093"><ele>699.0</ele><time>2026-04-30T12:30:02Z</time></trkpt><trkpt lat="31.101072618970463" lon="-4.016270785263285"><ele>699.0</ele><time>2026-04-30T12:30:03Z</time></trkpt><trkpt lat="31.100955071616443" lon="-4.016300844391086"><ele>699.0</ele><time>2026-04-30T12:30:05Z</time></trkpt><trkpt lat="31.10088562170616" lon="-4.016312031938051"><ele>699.0</ele><time>2026-04-30T12:30:06Z</time></trkpt><trkpt lat="31.10080575372878" lon="-4.016333223365026"><ele>699.0</ele><time>2026-04-30T12:30:07Z</time></trkpt><trkpt lat="31.100716796634924" lon="-4.016366415066896"><ele>699.0</ele><time>2026-04-30T12:30:08Z</time></trkpt><trkpt lat="31.100622383928755" lon="-4.016408657133907"><ele>699.0</ele><time>2026-04-30T12:30:09Z</time></trkpt><trkpt lat="31.10052570004046" lon="-4.0164388034823135"><ele>699.0</ele><time>2026-04-30T12:30:10Z</time></trkpt><trkpt lat="31.10043772711463" lon="-4.016462671457662"><ele>699.8000000000001</ele><time>2026-04-30T12:30:11Z</time></trkpt><trkpt lat="31.100350882500425" lon="-4.01649182592562"><ele>700.6</ele><time>2026-04-30T12:30:12Z</time></trkpt><trkpt lat="31.100265096472786" lon="-4.016531749452166"><ele>701.4</ele><time>2026-04-30T12:30:13Z</time></trkpt><trkpt lat="31.10018356185207" lon="-4.016586340304075"><ele>702.2</ele><time>2026-04-30T12:30:14Z</time></trkpt><trkpt lat="31.100112783062464" lon="-4.0166541270442"><ele>703.0</ele><time>2026-04-30T12:30:15Z</time></trkpt><trkpt lat="31.10005583540921" lon="-4.016726759172085"><ele>703.0</ele><time>2026-04-30T12:30:16Z</time></trkpt><trkpt lat="31.100010859334397" lon="-4.016811100112346"><ele>703.0</ele><time>2026-04-30T12:30:17Z</time></trkpt><trkpt lat="31.09994408611662" lon="-4.016888287254367"><ele>703.0</ele><time>2026-04-30T12:30:18Z</time></trkpt><trkpt lat="31.099916510117705" lon="-4.016973935730185"><ele>703.0</ele><time>2026-04-30T12:30:19Z</time></trkpt><trkpt lat="31.099892410034613" lon="-4.017048970920577"><ele>703.0</ele><time>2026-04-30T12:30:20Z</time></trkpt><trkpt lat="31.09988888610973" lon="-4.017133026502941"><ele>703.0</ele><time>2026-04-30T12:30:21Z</time></trkpt><trkpt lat="31.099901718381936" lon="-4.017291721090121"><ele>703.0</ele><time>2026-04-30T12:30:23Z</time></trkpt><trkpt lat="31.099970404780766" lon="-4.017375998716186"><ele>703.0</ele><time>2026-04-30T12:30:24Z</time></trkpt><trkpt lat="31.099996973569368" lon="-4.01747481464418"><ele>703.0</ele><time>2026-04-30T12:30:25Z</time></trkpt><trkpt lat="31.100008745724242" lon="-4.017578023328975"><ele>703.0</ele><time>2026-04-30T12:30:26Z</time></trkpt><trkpt lat="31.09997246210747" lon="-4.017674043746693"><ele>703.0</ele><time>2026-04-30T12:30:27Z</time></trkpt><trkpt lat="31.099944552906635" lon="-4.017764606470149"><ele>703.2</ele><time>2026-04-30T12:30:28Z</time></trkpt><trkpt lat="31.099874311266227" lon="-4.0178292253807175"><ele>703.4</ele><time>2026-04-30T12:30:29Z</time></trkpt><trkpt lat="31.099785294584102" lon="-4.017877409615437"><ele>703.6</ele><time>2026-04-30T12:30:30Z</time></trkpt><trkpt lat="31.099692263862895" lon="-4.017891089113062"><ele>703.8000000000001</ele><time>2026-04-30T12:30:31Z</time></trkpt><trkpt lat="31.099596907611847" lon="-4.017872237109424"><ele>704.0</ele><time>2026-04-30T12:30:32Z</time></trkpt><trkpt lat="31.099515008239795" lon="-4.017814799675359"><ele>704.0</ele><time>2026-04-30T12:30:33Z</time></trkpt><trkpt lat="31.09945018723175" lon="-4.017731622478464"><ele>704.0</ele><time>2026-04-30T12:30:34Z</time></trkpt><trkpt lat="31.099387499802987" lon="-4.017642930478202"><ele>704.0</ele><time>2026-04-30T12:30:35Z</time></trkpt><trkpt lat="31.099367045124207" lon="-4.017523141048888"><ele>704.0</ele><time>2026-04-30T12:30:36Z</time></trkpt><trkpt lat="31.09938386433733" lon="-4.017401539292107"><ele>704.0</ele><time>2026-04-30T12:30:37Z</time></trkpt><trkpt lat="31.0994360977018" lon="-4.0172922310113"><ele>704.0</ele><time>2026-04-30T12:30:38Z</time></trkpt><trkpt lat="31.0994999594473" lon="-4.017203512706028"><ele>704.0</ele><time>2026-04-30T12:30:39Z</time></trkpt><trkpt lat="31.09946482827153" lon="-4.017098080269501"><ele>704.0</ele><time>2026-04-30T12:30:40Z</time></trkpt><trkpt lat="31.09944621860936" lon="-4.01699559807816"><ele>704.0</ele><time>2026-04-30T12:30:41Z</time></trkpt><trkpt lat="31.099402927151655" lon="-4.0169118971451665"><ele>704.0</ele><time>2026-04-30T12:30:42Z</time></trkpt><trkpt lat="31.09937465139813" lon="-4.016819692640968"><ele>704.0</ele><time>2026-04-30T12:30:43Z</time></trkpt><trkpt lat="31.09930448577451" lon="-4.0167707893148465"><ele>704.0</ele><time>2026-04-30T12:30:44Z</time></trkpt><trkpt lat="31.099237951344474" lon="-4.01669310774164"><ele>704.0</ele><time>2026-04-30T12:30:45Z</time></trkpt><trkpt lat="31.099169133562537" lon="-4.016612375917729"><ele>704.0</ele><time>2026-04-30T12:30:46Z</time></trkpt><trkpt lat="31.099097345608524" lon="-4.0165278977506125"><ele>704.0</ele><time>2026-04-30T12:30:47Z</time></trkpt><trkpt lat="31.099023198110793" lon="-4.016440642235657"><ele>703.4000000000001</ele><time>2026-04-30T12:30:48Z</time></trkpt><trkpt lat="31.098951956192042" lon="-4.016353129494325"><ele>702.8</ele><time>2026-04-30T12:30:49Z</time></trkpt><trkpt lat="31.09887805920167" lon="-4.016262413901906"><ele>702.2</ele><time>2026-04-30T12:30:50Z</time></trkpt><trkpt lat="31.098806772464098" lon="-4.016174902679248"><ele>701.5999999999999</ele><time>2026-04-30T12:30:51Z</time></trkpt><trkpt lat="31.09873673733278" lon="-4.0160889265293935"><ele>701.0</ele><time>2026-04-30T12:30:52Z</time></trkpt><trkpt lat="31.098664542222945" lon="-4.016000298731793"><ele>701.0</ele><time>2026-04-30T12:30:53Z</time></trkpt><trkpt lat="31.098619116592758" lon="-4.015904228010069"><ele>701.0</ele><time>2026-04-30T12:30:54Z</time></trkpt><trkpt lat="31.09855833439044" lon="-4.015831789099296"><ele>701.0</ele><time>2026-04-30T12:30:55Z</time></trkpt><trkpt lat="31.098501968949126" lon="-4.015762286000242"><ele>701.0</ele><time>2026-04-30T12:30:56Z</time></trkpt><trkpt lat="31.098450542493584" lon="-4.015695823614195"><ele>701.0</ele><time>2026-04-30T12:30:57Z</time></trkpt><trkpt lat="31.0983966671067" lon="-4.015632723116352"><ele>701.0</ele><time>2026-04-30T12:30:58Z</time></trkpt><trkpt lat="31.098338421319152" lon="-4.015558104152321"><ele>701.0</ele><time>2026-04-30T12:30:59Z</time></trkpt><trkpt lat="31.098276567827934" lon="-4.015480292134236"><ele>701.0</ele><time>2026-04-30T12:31:00Z</time></trkpt><trkpt lat="31.098210784554492" lon="-4.015402822297483"><ele>701.0</ele><time>2026-04-30T12:31:01Z</time></trkpt><trkpt lat="31.098137281903284" lon="-4.0153171027991705"><ele>701.0</ele><time>2026-04-30T12:31:02Z</time></trkpt><trkpt lat="31.098049769243605" lon="-4.015263876442822"><ele>701.0</ele><time>2026-04-30T12:31:03Z</time></trkpt><trkpt lat="31.097989681547194" lon="-4.015193699392748"><ele>701.0</ele><time>2026-04-30T12:31:04Z</time></trkpt><trkpt lat="31.097931541708036" lon="-4.01512579687785"><ele>701.0</ele><time>2026-04-30T12:31:05Z</time></trkpt><trkpt lat="31.097877516901537" lon="-4.015053812790332"><ele>701.0</ele><time>2026-04-30T12:31:06Z</time></trkpt><trkpt lat="31.097825350537036" lon="-4.0149870190928185"><ele>701.0</ele><time>2026-04-30T12:31:07Z</time></trkpt><trkpt lat="31.097773247840305" lon="-4.014920306969239"><ele>701.0</ele><time>2026-04-30T12:31:08Z</time></trkpt><trkpt lat="31.09772348946716" lon="-4.014856596569341"><ele>701.0</ele><time>2026-04-30T12:31:09Z</time></trkpt><trkpt lat="31.097674229733475" lon="-4.014793524586433"><ele>700.8571428571429</ele><time>2026-04-30T12:31:10Z</time></trkpt><trkpt lat="31.097626723746888" lon="-4.0147326980686335"><ele>700.7142857142857</ele><time>2026-04-30T12:31:11Z</time></trkpt><trkpt lat="31.097579399049323" lon="-4.014672103268635"><ele>700.5714285714286</ele><time>2026-04-30T12:31:12Z</time></trkpt><trkpt lat="31.09753249955845" lon="-4.014612257314085"><ele>700.4285714285714</ele><time>2026-04-30T12:31:13Z</time></trkpt><trkpt lat="31.097485226807382" lon="-4.01455171125591"><ele>700.2857142857142</ele><time>2026-04-30T12:31:14Z</time></trkpt><trkpt lat="31.0974387722161" lon="-4.014492522936187"><ele>700.1428571428571</ele><time>2026-04-30T12:31:15Z</time></trkpt><trkpt lat="31.097391383831045" lon="-4.014432144821781"><ele>700.0</ele><time>2026-04-30T12:31:16Z</time></trkpt><trkpt lat="31.0973435846473" lon="-4.014371242573131"><ele>700.0</ele><time>2026-04-30T12:31:17Z</time></trkpt><trkpt lat="31.097295440582602" lon="-4.014310653510804"><ele>700.0</ele><time>2026-04-30T12:31:18Z</time></trkpt><trkpt lat="31.09724908466189" lon="-4.0142518379029735"><ele>700.0</ele><time>2026-04-30T12:31:19Z</time></trkpt><trkpt lat="31.097203773883308" lon="-4.014194350686327"><ele>700.0</ele><time>2026-04-30T12:31:20Z</time></trkpt><trkpt lat="31.097171115387017" lon="-4.014123060612812"><ele>700.0</ele><time>2026-04-30T12:31:21Z</time></trkpt><trkpt lat="31.097125454950053" lon="-4.0140667371923024"><ele>700.0</ele><time>2026-04-30T12:31:22Z</time></trkpt><trkpt lat="31.097082101361167" lon="-4.014012262700709"><ele>700.0</ele><time>2026-04-30T12:31:23Z</time></trkpt><trkpt lat="31.097036617523376" lon="-4.013956390599058"><ele>699.5</ele><time>2026-04-30T12:31:24Z</time></trkpt><trkpt lat="31.096994011521428" lon="-4.013902076156261"><ele>699.0</ele><time>2026-04-30T12:31:25Z</time></trkpt><trkpt lat="31.09695096332903" lon="-4.013845687018719"><ele>698.5</ele><time>2026-04-30T12:31:26Z</time></trkpt><trkpt lat="31.09687497458801" lon="-4.013737727831381"><ele>698.0</ele><time>2026-04-30T12:31:28Z</time></trkpt><trkpt lat="31.09682216468173" lon="-4.013691938695438"><ele>697.5</ele><time>2026-04-30T12:31:29Z</time></trkpt><trkpt lat="31.09677128625739" lon="-4.013629360990811"><ele>697.0</ele><time>2026-04-30T12:31:30Z</time></trkpt><trkpt lat="31.096715884067038" lon="-4.0135612192677605"><ele>697.0</ele><time>2026-04-30T12:31:31Z</time></trkpt><trkpt lat="31.096673197069354" lon="-4.013480643947756"><ele>697.0</ele><time>2026-04-30T12:31:32Z</time></trkpt><trkpt lat="31.096623423479507" lon="-4.013419884212603"><ele>697.0</ele><time>2026-04-30T12:31:33Z</time></trkpt><trkpt lat="31.096560597959726" lon="-4.013370377967341"><ele>697.0</ele><time>2026-04-30T12:31:34Z</time></trkpt><trkpt lat="31.09650664551075" lon="-4.013304080886745"><ele>697.0</ele><time>2026-04-30T12:31:35Z</time></trkpt><trkpt lat="31.096452584066974" lon="-4.013237707361435"><ele>697.0</ele><time>2026-04-30T12:31:36Z</time></trkpt><trkpt lat="31.096400536107016" lon="-4.013173885312401"><ele>696.8333333333334</ele><time>2026-04-30T12:31:37Z</time></trkpt><trkpt lat="31.0963480096812" lon="-4.013109476536876"><ele>696.6666666666667</ele><time>2026-04-30T12:31:38Z</time></trkpt><trkpt lat="31.096296812571318" lon="-4.013046697779539"><ele>696.5</ele><time>2026-04-30T12:31:39Z</time></trkpt><trkpt lat="31.09624411589203" lon="-4.012982080289855"><ele>696.3333333333334</ele><time>2026-04-30T12:31:40Z</time></trkpt><trkpt lat="31.096192105185825" lon="-4.012918303897251"><ele>696.1666666666666</ele><time>2026-04-30T12:31:41Z</time></trkpt><trkpt lat="31.096136911083512" lon="-4.012849951926022"><ele>696.0</ele><time>2026-04-30T12:31:42Z</time></trkpt><trkpt lat="31.09608603950801" lon="-4.012785304634271"><ele>696.0</ele><time>2026-04-30T12:31:43Z</time></trkpt><trkpt lat="31.096032340012158" lon="-4.012717063751992"><ele>696.0</ele><time>2026-04-30T12:31:44Z</time></trkpt><trkpt lat="31.095975576845195" lon="-4.012645020096601"><ele>696.0</ele><time>2026-04-30T12:31:45Z</time></trkpt><trkpt lat="31.095916059971067" lon="-4.012569640275912"><ele>696.0</ele><time>2026-04-30T12:31:46Z</time></trkpt><trkpt lat="31.095860816134977" lon="-4.012499102490344"><ele>696.0</ele><time>2026-04-30T12:31:47Z</time></trkpt><trkpt lat="31.09581043701687" lon="-4.012434589780764"><ele>696.0</ele><time>2026-04-30T12:31:48Z</time></trkpt><trkpt lat="31.09576417312265" lon="-4.012375346736705"><ele>696.1666666666666</ele><time>2026-04-30T12:31:49Z</time></trkpt><trkpt lat="31.095721262080346" lon="-4.012320397267769"><ele>696.3333333333334</ele><time>2026-04-30T12:31:50Z</time></trkpt><trkpt lat="31.095637745042087" lon="-4.0122161659377245"><ele>696.5</ele><time>2026-04-30T12:31:52Z</time></trkpt><trkpt lat="31.095593630273743" lon="-4.012160062127429"><ele>696.6666666666667</ele><time>2026-04-30T12:31:53Z</time></trkpt><trkpt lat="31.095549559971555" lon="-4.012104014849091"><ele>696.8333333333334</ele><time>2026-04-30T12:31:54Z</time></trkpt><trkpt lat="31.095504664847446" lon="-4.0120469187802446"><ele>697.0</ele><time>2026-04-30T12:31:55Z</time></trkpt><trkpt lat="31.095428466574585" lon="-4.011950012843037"><ele>697.0</ele><time>2026-04-30T12:31:57Z</time></trkpt><trkpt lat="31.095362958943713" lon="-4.011864214569109"><ele>697.0</ele><time>2026-04-30T12:31:59Z</time></trkpt><trkpt lat="31.09530723091648" lon="-4.011784167427796"><ele>697.0</ele><time>2026-04-30T12:32:01Z</time></trkpt><trkpt lat="31.095247632148425" lon="-4.011711220189818"><ele>697.0</ele><time>2026-04-30T12:32:03Z</time></trkpt><trkpt lat="31.09518517183977" lon="-4.01163485790784"><ele>697.0</ele><time>2026-04-30T12:32:05Z</time></trkpt><trkpt lat="31.09513613454849" lon="-4.011574951045301"><ele>697.0</ele><time>2026-04-30T12:32:07Z</time></trkpt><trkpt lat="31.095071292154227" lon="-4.011497792062837"><ele>697.4000000000001</ele><time>2026-04-30T12:32:09Z</time></trkpt><trkpt lat="31.095004216416225" lon="-4.011418454541728"><ele>697.8000000000001</ele><time>2026-04-30T12:32:11Z</time></trkpt><trkpt lat="31.094926829882386" lon="-4.011325575177418"><ele>698.2</ele><time>2026-04-30T12:32:13Z</time></trkpt><trkpt lat="31.094844929939374" lon="-4.011221341042974"><ele>698.6</ele><time>2026-04-30T12:32:15Z</time></trkpt><trkpt lat="31.09479963000506" lon="-4.011164844470026"><ele>699.0</ele><time>2026-04-30T12:32:16Z</time></trkpt><trkpt lat="31.094751716202214" lon="-4.011104173247534"><ele>698.6666666666666</ele><time>2026-04-30T12:32:17Z</time></trkpt><trkpt lat="31.094700245238084" lon="-4.011039433735841"><ele>698.3333333333334</ele><time>2026-04-30T12:32:18Z</time></trkpt><trkpt lat="31.094643406457763" lon="-4.010968181844451"><ele>698.0</ele><time>2026-04-30T12:32:19Z</time></trkpt><trkpt lat="31.094591300673656" lon="-4.010902863091493"><ele>697.6666666666667</ele><time>2026-04-30T12:32:20Z</time></trkpt><trkpt lat="31.094529459362278" lon="-4.010825340050358"><ele>697.3333333333334</ele><time>2026-04-30T12:32:21Z</time></trkpt><trkpt lat="31.094468156114676" lon="-4.010748491500864"><ele>697.0</ele><time>2026-04-30T12:32:22Z</time></trkpt><trkpt lat="31.094407527365618" lon="-4.010673074015502"><ele>697.0</ele><time>2026-04-30T12:32:23Z</time></trkpt><trkpt lat="31.09434731278664" lon="-4.010598161026718"><ele>697.0</ele><time>2026-04-30T12:32:24Z</time></trkpt><trkpt lat="31.094282793807395" lon="-4.010517568972976"><ele>697.0</ele><time>2026-04-30T12:32:25Z</time></trkpt><trkpt lat="31.094213689682135" lon="-4.010431244577486"><ele>697.0</ele><time>2026-04-30T12:32:26Z</time></trkpt><trkpt lat="31.09414116148034" lon="-4.010340642775523"><ele>697.0</ele><time>2026-04-30T12:32:27Z</time></trkpt><trkpt lat="31.094068377079793" lon="-4.010249073894587"><ele>697.0</ele><time>2026-04-30T12:32:28Z</time></trkpt><trkpt lat="31.093990900083263" lon="-4.010152168589404"><ele>697.0</ele><time>2026-04-30T12:32:29Z</time></trkpt><trkpt lat="31.09390048754638" lon="-4.010039789801173"><ele>697.0</ele><time>2026-04-30T12:32:30Z</time></trkpt><trkpt lat="31.09380225456254" lon="-4.009917241124396"><ele>697.0</ele><time>2026-04-30T12:32:31Z</time></trkpt><trkpt lat="31.09369913657207" lon="-4.009788523267703"><ele>697.0</ele><time>2026-04-30T12:32:32Z</time></trkpt><trkpt lat="31.093595093572258" lon="-4.009659219062666"><ele>697.0</ele><time>2026-04-30T12:32:33Z</time></trkpt><trkpt lat="31.093497119655545" lon="-4.009537511567467"><ele>697.0</ele><time>2026-04-30T12:32:34Z</time></trkpt><trkpt lat="31.09340640107135" lon="-4.009424557430645"><ele>697.0</ele><time>2026-04-30T12:32:35Z</time></trkpt><trkpt lat="31.093323064367585" lon="-4.009321167027797"><ele>697.2</ele><time>2026-04-30T12:32:36Z</time></trkpt><trkpt lat="31.093248162570085" lon="-4.0092271997311775"><ele>697.4000000000001</ele><time>2026-04-30T12:32:37Z</time></trkpt><trkpt lat="31.09317942762985" lon="-4.009141408137807"><ele>697.5999999999999</ele><time>2026-04-30T12:32:38Z</time></trkpt><trkpt lat="31.09311871457962" lon="-4.009065629142155"><ele>697.8</ele><time>2026-04-30T12:32:39Z</time></trkpt><trkpt lat="31.093054862082795" lon="-4.00898593165382"><ele>698.0</ele><time>2026-04-30T12:32:40Z</time></trkpt><trkpt lat="31.092981758241702" lon="-4.008894687088797"><ele>698.0</ele><time>2026-04-30T12:32:41Z</time></trkpt><trkpt lat="31.092901449843627" lon="-4.008795336619011"><ele>698.0</ele><time>2026-04-30T12:32:42Z</time></trkpt><trkpt lat="31.092815409384716" lon="-4.008689558511752"><ele>698.0</ele><time>2026-04-30T12:32:43Z</time></trkpt><trkpt lat="31.09272715472255" lon="-4.008579959450351"><ele>698.0</ele><time>2026-04-30T12:32:44Z</time></trkpt><trkpt lat="31.092631663281516" lon="-4.008462316579303"><ele>698.0</ele><time>2026-04-30T12:32:45Z</time></trkpt><trkpt lat="31.092534118085936" lon="-4.008342143514313"><ele>698.0</ele><time>2026-04-30T12:32:46Z</time></trkpt><trkpt lat="31.092433635542232" lon="-4.008218375195398"><ele>698.0</ele><time>2026-04-30T12:32:47Z</time></trkpt><trkpt lat="31.092335606115615" lon="-4.008097401135727"><ele>698.0</ele><time>2026-04-30T12:32:48Z</time></trkpt><trkpt lat="31.09224445030811" lon="-4.007984526369582"><ele>697.25</ele><time>2026-04-30T12:32:49Z</time></trkpt><trkpt lat="31.092158242050672" lon="-4.007878079362696"><ele>696.5</ele><time>2026-04-30T12:32:50Z</time></trkpt><trkpt lat="31.092072014006504" lon="-4.007771607647169"><ele>695.75</ele><time>2026-04-30T12:32:51Z</time></trkpt><trkpt lat="31.0919904981705" lon="-4.007670955541478"><ele>695.0</ele><time>2026-04-30T12:32:52Z</time></trkpt><trkpt lat="31.09190744748739" lon="-4.007573392493302"><ele>695.5</ele><time>2026-04-30T12:32:53Z</time></trkpt><trkpt lat="31.091823180995902" lon="-4.007472045663409"><ele>696.0</ele><time>2026-04-30T12:32:54Z</time></trkpt><trkpt lat="31.09173970820083" lon="-4.007372074481614"><ele>696.5</ele><time>2026-04-30T12:32:55Z</time></trkpt><trkpt lat="31.091655090869875" lon="-4.0072707341931695"><ele>697.0</ele><time>2026-04-30T12:32:56Z</time></trkpt><trkpt lat="31.091572864375916" lon="-4.007169591568378"><ele>697.0</ele><time>2026-04-30T12:32:57Z</time></trkpt><trkpt lat="31.091492030449686" lon="-4.007070163774565"><ele>697.0</ele><time>2026-04-30T12:32:58Z</time></trkpt><trkpt lat="31.091410735600512" lon="-4.006970169109563"><ele>697.0</ele><time>2026-04-30T12:32:59Z</time></trkpt><trkpt lat="31.09133043065108" lon="-4.006871513590033"><ele>697.0</ele><time>2026-04-30T12:33:00Z</time></trkpt><trkpt lat="31.091250946973673" lon="-4.006773994196432"><ele>697.0</ele><time>2026-04-30T12:33:01Z</time></trkpt><trkpt lat="31.091176025784982" lon="-4.006682072540653"><ele>697.0</ele><time>2026-04-30T12:33:02Z</time></trkpt><trkpt lat="31.091104791780936" lon="-4.0065946747396035"><ele>697.0</ele><time>2026-04-30T12:33:03Z</time></trkpt><trkpt lat="31.091035131598602" lon="-4.006509207979103"><ele>697.0</ele><time>2026-04-30T12:33:04Z</time></trkpt><trkpt lat="31.09096488371766" lon="-4.006423019989221"><ele>697.0</ele><time>2026-04-30T12:33:05Z</time></trkpt><trkpt lat="31.090894587880282" lon="-4.006336718026864"><ele>697.0</ele><time>2026-04-30T12:33:06Z</time></trkpt><trkpt lat="31.09082416566966" lon="-4.0062501418856975"><ele>697.0</ele><time>2026-04-30T12:33:07Z</time></trkpt><trkpt lat="31.090755848084548" lon="-4.006166153071959"><ele>697.0</ele><time>2026-04-30T12:33:08Z</time></trkpt><trkpt lat="31.090689366670862" lon="-4.006084422205477"><ele>697.0</ele><time>2026-04-30T12:33:09Z</time></trkpt><trkpt lat="31.090622226129586" lon="-4.006005768100158"><ele>697.0</ele><time>2026-04-30T12:33:10Z</time></trkpt><trkpt lat="31.09055358185591" lon="-4.005924869561236"><ele>696.8</ele><time>2026-04-30T12:33:11Z</time></trkpt><trkpt lat="31.090486238108856" lon="-4.005845136649007"><ele>696.6</ele><time>2026-04-30T12:33:12Z</time></trkpt><trkpt lat="31.090419704428342" lon="-4.0057668825218"><ele>696.4</ele><time>2026-04-30T12:33:13Z</time></trkpt><trkpt lat="31.090356237016394" lon="-4.005690805533716"><ele>696.1999999999999</ele><time>2026-04-30T12:33:14Z</time></trkpt><trkpt lat="31.090295938499107" lon="-4.005610588138122"><ele>696.0</ele><time>2026-04-30T12:33:15Z</time></trkpt><trkpt lat="31.09023997097336" lon="-4.005538969910291"><ele>696.2857142857142</ele><time>2026-04-30T12:33:16Z</time></trkpt><trkpt lat="31.090187266342866" lon="-4.005471488732107"><ele>696.5714285714286</ele><time>2026-04-30T12:33:17Z</time></trkpt><trkpt lat="31.090138829588096" lon="-4.0054094717653745"><ele>696.8571428571429</ele><time>2026-04-30T12:33:18Z</time></trkpt><trkpt lat="31.090092969206875" lon="-4.005345963371502"><ele>697.1428571428571</ele><time>2026-04-30T12:33:19Z</time></trkpt><trkpt lat="31.090044771556922" lon="-4.005271483380938"><ele>697.4285714285714</ele><time>2026-04-30T12:33:20Z</time></trkpt><trkpt lat="31.090005628761332" lon="-4.0052043370361625"><ele>697.7142857142857</ele><time>2026-04-30T12:33:21Z</time></trkpt><trkpt lat="31.089969220338464" lon="-4.005136020129735"><ele>698.0</ele><time>2026-04-30T12:33:22Z</time></trkpt><trkpt lat="31.089933604686777" lon="-4.005061408859507"><ele>697.9999999999999</ele><time>2026-04-30T12:33:23Z</time></trkpt><trkpt lat="31.08990572161037" lon="-4.004993049392439"><ele>698.0</ele><time>2026-04-30T12:33:24Z</time></trkpt><trkpt lat="31.089878183621458" lon="-4.004925536124573"><ele>698.0</ele><time>2026-04-30T12:33:25Z</time></trkpt><trkpt lat="31.08983190062225" lon="-4.004812066437772"><ele>698.0</ele><time>2026-04-30T12:33:27Z</time></trkpt><trkpt lat="31.089804606392942" lon="-4.004738738038586"><ele>698.0</ele><time>2026-04-30T12:33:29Z</time></trkpt><trkpt lat="31.08983239744164" lon="-4.004813284498935"><ele>697.9999999999999</ele><time>2026-04-30T12:33:56Z</time></trkpt><trkpt lat="31.089862942786333" lon="-4.0048881709065105"><ele>698.0</ele><time>2026-04-30T12:33:58Z</time></trkpt><trkpt lat="31.0899052740877" lon="-4.0049919526540165"><ele>697.9999999999999</ele><time>2026-04-30T12:34:00Z</time></trkpt><trkpt lat="31.089932496949654" lon="-4.005058693853081"><ele>698.0</ele><time>2026-04-30T12:34:01Z</time></trkpt><trkpt lat="31.089969059274818" lon="-4.005135693834021"><ele>698.0</ele><time>2026-04-30T12:34:02Z</time></trkpt><trkpt lat="31.090009184335866" lon="-4.005210667200722"><ele>698.0</ele><time>2026-04-30T12:34:03Z</time></trkpt><trkpt lat="31.09004897617585" lon="-4.005281500521773"><ele>698.0</ele><time>2026-04-30T12:34:04Z</time></trkpt><trkpt lat="31.09009598506157" lon="-4.005352515535151"><ele>697.9999999999999</ele><time>2026-04-30T12:34:05Z</time></trkpt><trkpt lat="31.090136032662855" lon="-4.005415879332902"><ele>698.0</ele><time>2026-04-30T12:34:06Z</time></trkpt><trkpt lat="31.09019372636656" lon="-4.00548474808806"><ele>698.0</ele><time>2026-04-30T12:34:07Z</time></trkpt><trkpt lat="31.09024692698288" lon="-4.0055580268177735"><ele>698.0</ele><time>2026-04-30T12:34:08Z</time></trkpt><trkpt lat="31.090298221382792" lon="-4.005613555168353"><ele>698.0</ele><time>2026-04-30T12:34:09Z</time></trkpt><trkpt lat="31.090358163000968" lon="-4.005690302987552"><ele>698.0</ele><time>2026-04-30T12:34:10Z</time></trkpt><trkpt lat="31.09040609451053" lon="-4.005751673345193"><ele>698.0</ele><time>2026-04-30T12:34:11Z</time></trkpt><trkpt lat="31.090461306748317" lon="-4.005822024709883"><ele>698.0</ele><time>2026-04-30T12:34:12Z</time></trkpt><trkpt lat="31.09051738844222" lon="-4.005893729020248"><ele>697.75</ele><time>2026-04-30T12:34:13Z</time></trkpt><trkpt lat="31.090685592806334" lon="-4.005946267265605"><ele>697.5</ele><time>2026-04-30T12:34:14Z</time></trkpt><trkpt lat="31.09074471663986" lon="-4.0060345210974875"><ele>697.25</ele><time>2026-04-30T12:34:15Z</time></trkpt><trkpt lat="31.09080358763541" lon="-4.006113151263571"><ele>697.0</ele><time>2026-04-30T12:34:16Z</time></trkpt><trkpt lat="31.090868938560003" lon="-4.006188642412956"><ele>697.0</ele><time>2026-04-30T12:34:17Z</time></trkpt><trkpt lat="31.090936805861784" lon="-4.006264920741249"><ele>697.0</ele><time>2026-04-30T12:34:18Z</time></trkpt><trkpt lat="31.09100293609645" lon="-4.006343711310699"><ele>697.0</ele><time>2026-04-30T12:34:19Z</time></trkpt><trkpt lat="31.091071953584496" lon="-4.0064230085760055"><ele>697.0</ele><time>2026-04-30T12:34:20Z</time></trkpt><trkpt lat="31.091141075704908" lon="-4.0065071755781005"><ele>697.0</ele><time>2026-04-30T12:34:21Z</time></trkpt><trkpt lat="31.091210194667276" lon="-4.0065949797562075"><ele>697.0</ele><time>2026-04-30T12:34:22Z</time></trkpt><trkpt lat="31.09128494201764" lon="-4.00666859111271"><ele>697.0</ele><time>2026-04-30T12:34:23Z</time></trkpt><trkpt lat="31.091356800526327" lon="-4.006768276245678"><ele>697.0</ele><time>2026-04-30T12:34:24Z</time></trkpt><trkpt lat="31.091414074732995" lon="-4.006889581517887"><ele>697.0</ele><time>2026-04-30T12:34:25Z</time></trkpt><trkpt lat="31.09149744063028" lon="-4.00699212364635"><ele>697.0</ele><time>2026-04-30T12:34:26Z</time></trkpt><trkpt lat="31.091574594513265" lon="-4.007087024907399"><ele>697.0</ele><time>2026-04-30T12:34:27Z</time></trkpt><trkpt lat="31.09165156641142" lon="-4.007181702179994"><ele>697.0</ele><time>2026-04-30T12:34:28Z</time></trkpt><trkpt lat="31.091730937841255" lon="-4.007279332339941"><ele>697.0</ele><time>2026-04-30T12:34:29Z</time></trkpt><trkpt lat="31.091814344369432" lon="-4.007377938233133"><ele>697.0</ele><time>2026-04-30T12:34:30Z</time></trkpt><trkpt lat="31.091895801035236" lon="-4.007475494724458"><ele>696.5</ele><time>2026-04-30T12:34:31Z</time></trkpt><trkpt lat="31.091977337204394" lon="-4.0075731463864415"><ele>696.0</ele><time>2026-04-30T12:34:32Z</time></trkpt><trkpt lat="31.09205884211467" lon="-4.007670762347606"><ele>695.5</ele><time>2026-04-30T12:34:33Z</time></trkpt><trkpt lat="31.09213859912794" lon="-4.007768957229221"><ele>695.0</ele><time>2026-04-30T12:34:34Z</time></trkpt><trkpt lat="31.09221859242638" lon="-4.007867730381749"><ele>695.0</ele><time>2026-04-30T12:34:35Z</time></trkpt><trkpt lat="31.092310561568773" lon="-4.007957307069028"><ele>695.0</ele><time>2026-04-30T12:34:36Z</time></trkpt><trkpt lat="31.09238817466235" lon="-4.008054429428917"><ele>695.0</ele><time>2026-04-30T12:34:37Z</time></trkpt><trkpt lat="31.0924566039255" lon="-4.00816192103229"><ele>695.0</ele><time>2026-04-30T12:34:38Z</time></trkpt><trkpt lat="31.09254502772505" lon="-4.00825433982742"><ele>695.75</ele><time>2026-04-30T12:34:39Z</time></trkpt><trkpt lat="31.09262415110145" lon="-4.008358486703059"><ele>696.5</ele><time>2026-04-30T12:34:40Z</time></trkpt><trkpt lat="31.092704620771844" lon="-4.008462753555454"><ele>697.25</ele><time>2026-04-30T12:34:41Z</time></trkpt><trkpt lat="31.092790445103834" lon="-4.008565464512421"><ele>698.0</ele><time>2026-04-30T12:34:42Z</time></trkpt><trkpt lat="31.09288003130506" lon="-4.008671663289296"><ele>698.0</ele><time>2026-04-30T12:34:43Z</time></trkpt><trkpt lat="31.092962418379045" lon="-4.0087779545890685"><ele>698.0</ele><time>2026-04-30T12:34:44Z</time></trkpt><trkpt lat="31.093053391965757" lon="-4.008880902857022"><ele>698.0</ele><time>2026-04-30T12:34:45Z</time></trkpt><trkpt lat="31.093136514848233" lon="-4.008981643682168"><ele>698.0</ele><time>2026-04-30T12:34:46Z</time></trkpt><trkpt lat="31.093209763895704" lon="-4.009073666579913"><ele>697.8</ele><time>2026-04-30T12:34:47Z</time></trkpt><trkpt lat="31.093283009523617" lon="-4.009165592212344"><ele>697.5999999999999</ele><time>2026-04-30T12:34:48Z</time></trkpt><trkpt lat="31.09335702668013" lon="-4.009261577981912"><ele>697.4000000000001</ele><time>2026-04-30T12:34:49Z</time></trkpt><trkpt lat="31.093434143103313" lon="-4.009362772695079"><ele>697.2</ele><time>2026-04-30T12:34:50Z</time></trkpt><trkpt lat="31.093510520423685" lon="-4.009461954390368"><ele>697.0</ele><time>2026-04-30T12:34:51Z</time></trkpt><trkpt lat="31.093588186003863" lon="-4.00955868690365"><ele>697.0</ele><time>2026-04-30T12:34:52Z</time></trkpt><trkpt lat="31.093667834855633" lon="-4.009654562715962"><ele>697.0</ele><time>2026-04-30T12:34:53Z</time></trkpt><trkpt lat="31.093749078157707" lon="-4.009751655402498"><ele>697.0</ele><time>2026-04-30T12:34:54Z</time></trkpt><trkpt lat="31.09382960943079" lon="-4.009848898417005"><ele>697.0</ele><time>2026-04-30T12:34:55Z</time></trkpt><trkpt lat="31.093909305171096" lon="-4.009948892474424"><ele>697.0</ele><time>2026-04-30T12:34:56Z</time></trkpt><trkpt lat="31.093990133639657" lon="-4.01004617458179"><ele>697.0</ele><time>2026-04-30T12:34:57Z</time></trkpt><trkpt lat="31.094070068420685" lon="-4.010146623845079"><ele>697.0</ele><time>2026-04-30T12:34:58Z</time></trkpt><trkpt lat="31.094148964909685" lon="-4.010248229139643"><ele>697.0</ele><time>2026-04-30T12:34:59Z</time></trkpt><trkpt lat="31.09422759784116" lon="-4.010347053211968"><ele>697.0</ele><time>2026-04-30T12:35:00Z</time></trkpt><trkpt lat="31.094306120738345" lon="-4.01044319917146"><ele>697.0</ele><time>2026-04-30T12:35:01Z</time></trkpt><trkpt lat="31.094377132071582" lon="-4.010531965821426"><ele>697.0</ele><time>2026-04-30T12:35:02Z</time></trkpt><trkpt lat="31.094443951723655" lon="-4.010611682951194"><ele>697.0</ele><time>2026-04-30T12:35:03Z</time></trkpt><trkpt lat="31.094506720114822" lon="-4.010689372637164"><ele>697.0</ele><time>2026-04-30T12:35:04Z</time></trkpt><trkpt lat="31.094564987118343" lon="-4.010762513403519"><ele>696.5</ele><time>2026-04-30T12:35:05Z</time></trkpt><trkpt lat="31.094624698726708" lon="-4.010839969989092"><ele>696.0</ele><time>2026-04-30T12:35:06Z</time></trkpt><trkpt lat="31.094687505351047" lon="-4.01091595414139"><ele>695.5</ele><time>2026-04-30T12:35:07Z</time></trkpt><trkpt lat="31.09473923742323" lon="-4.011002757215449"><ele>695.0</ele><time>2026-04-30T12:35:08Z</time></trkpt><trkpt lat="31.094805542430997" lon="-4.011067913544946"><ele>694.5</ele><time>2026-04-30T12:35:09Z</time></trkpt><trkpt lat="31.094862372583727" lon="-4.011134602851903"><ele>694.0</ele><time>2026-04-30T12:35:10Z</time></trkpt><trkpt lat="31.09491074427185" lon="-4.011196793366829"><ele>695.0</ele><time>2026-04-30T12:35:11Z</time></trkpt><trkpt lat="31.094957918115348" lon="-4.011249689815912"><ele>696.0</ele><time>2026-04-30T12:35:12Z</time></trkpt><trkpt lat="31.0950248357898" lon="-4.011359305863942"><ele>697.0</ele><time>2026-04-30T12:35:14Z</time></trkpt><trkpt lat="31.095116383418215" lon="-4.0114412722164"><ele>698.0</ele><time>2026-04-30T12:35:16Z</time></trkpt><trkpt lat="31.09517063275094" lon="-4.011532704458418"><ele>699.0</ele><time>2026-04-30T12:35:18Z</time></trkpt><trkpt lat="31.095223011837312" lon="-4.011596693885561"><ele>698.6</ele><time>2026-04-30T12:35:20Z</time></trkpt><trkpt lat="31.095296710925172" lon="-4.01166968784171"><ele>698.2</ele><time>2026-04-30T12:35:22Z</time></trkpt><trkpt lat="31.095371928876055" lon="-4.011767838352786"><ele>697.8000000000001</ele><time>2026-04-30T12:35:24Z</time></trkpt><trkpt lat="31.095420368930636" lon="-4.011851879163805"><ele>697.4000000000001</ele><time>2026-04-30T12:35:26Z</time></trkpt><trkpt lat="31.095358623439203" lon="-4.011833306533014"><ele>697.0</ele><time>2026-04-30T12:35:32Z</time></trkpt><trkpt lat="31.095311568693635" lon="-4.011738956176996"><ele>697.0</ele><time>2026-04-30T12:35:33Z</time></trkpt><trkpt lat="31.095256095259387" lon="-4.01166135984075"><ele>697.0</ele><time>2026-04-30T12:35:34Z</time></trkpt><trkpt lat="31.095199648875834" lon="-4.011596423260493"><ele>697.0</ele><time>2026-04-30T12:35:35Z</time></trkpt><trkpt lat="31.095148667843095" lon="-4.0115326176499995"><ele>697.0</ele><time>2026-04-30T12:35:36Z</time></trkpt><trkpt lat="31.095103475533502" lon="-4.011480144540281"><ele>697.0</ele><time>2026-04-30T12:35:37Z</time></trkpt><trkpt lat="31.095050831323544" lon="-4.011367835426366"><ele>697.0</ele><time>2026-04-30T12:35:39Z</time></trkpt><trkpt lat="31.095095527883657" lon="-4.011249023889734"><ele>697.4000000000001</ele><time>2026-04-30T12:35:41Z</time></trkpt><trkpt lat="31.095153605553065" lon="-4.0112103816614155"><ele>697.8000000000001</ele><time>2026-04-30T12:35:42Z</time></trkpt><trkpt lat="31.095216356581727" lon="-4.011181454842933"><ele>698.2</ele><time>2026-04-30T12:35:43Z</time></trkpt><trkpt lat="31.09532794495071" lon="-4.011122783949972"><ele>698.6</ele><time>2026-04-30T12:35:45Z</time></trkpt><trkpt lat="31.09543376819768" lon="-4.011063725520223"><ele>699.0</ele><time>2026-04-30T12:35:47Z</time></trkpt><trkpt lat="31.09553944758532" lon="-4.011000294764229"><ele>699.0</ele><time>2026-04-30T12:35:49Z</time></trkpt><trkpt lat="31.09563341093957" lon="-4.010943402011298"><ele>699.0</ele><time>2026-04-30T12:35:51Z</time></trkpt><trkpt lat="31.095719162767658" lon="-4.010892828751213"><ele>699.0</ele><time>2026-04-30T12:35:53Z</time></trkpt><trkpt lat="31.095817160245375" lon="-4.010854316867867"><ele>699.0</ele><time>2026-04-30T12:35:55Z</time></trkpt><trkpt lat="31.09590098581442" lon="-4.010802908960192"><ele>699.0</ele><time>2026-04-30T12:35:57Z</time></trkpt><trkpt lat="31.095972884604983" lon="-4.010766004591086"><ele>698.8333333333334</ele><time>2026-04-30T12:35:59Z</time></trkpt><trkpt lat="31.096038061022615" lon="-4.010718344271396"><ele>698.6666666666666</ele><time>2026-04-30T12:36:01Z</time></trkpt><trkpt lat="31.09611404501769" lon="-4.010666728854742"><ele>698.5</ele><time>2026-04-30T12:36:03Z</time></trkpt><trkpt lat="31.096199704778954" lon="-4.010621224722781"><ele>698.3333333333333</ele><time>2026-04-30T12:36:05Z</time></trkpt><trkpt lat="31.09628385961179" lon="-4.0105754463158565"><ele>698.1666666666666</ele><time>2026-04-30T12:36:07Z</time></trkpt><trkpt lat="31.096361779868978" lon="-4.010545589900733"><ele>698.0</ele><time>2026-04-30T12:36:09Z</time></trkpt><trkpt lat="31.096435783536457" lon="-4.010540162386975"><ele>698.0</ele><time>2026-04-30T12:36:12Z</time></trkpt><trkpt lat="31.096377882906317" lon="-4.010605127483326"><ele>698.0</ele><time>2026-04-30T12:36:15Z</time></trkpt><trkpt lat="31.096316204112604" lon="-4.010631711950326"><ele>698.0</ele><time>2026-04-30T12:36:19Z</time></trkpt><trkpt lat="31.096373900976317" lon="-4.0107074539623735"><ele>698.0</ele><time>2026-04-30T12:39:09Z</time></trkpt><trkpt lat="31.09638170378367" lon="-4.010786416549948"><ele>698.0</ele><time>2026-04-30T13:56:22Z</time></trkpt><trkpt lat="31.096359915958114" lon="-4.01071523254935"><ele>698.0</ele><time>2026-04-30T13:57:21.001Z</time></trkpt><trkpt lat="31.096267527557977" lon="-4.010740333571389"><ele>698.0</ele><time>2026-04-30T13:58:47.001Z</time></trkpt><trkpt lat="31.096211335386645" lon="-4.010777113088126"><ele>698.0</ele><time>2026-04-30T13:58:48.001Z</time></trkpt><trkpt lat="31.09612874127604" lon="-4.010828462307363"><ele>698.0</ele><time>2026-04-30T13:58:49.001Z</time></trkpt><trkpt lat="31.09606353628723" lon="-4.010873869377779"><ele>698.0</ele><time>2026-04-30T13:58:50.001Z</time></trkpt><trkpt lat="31.095988292640495" lon="-4.01086304858831"><ele>698.0</ele><time>2026-04-30T13:58:51.001Z</time></trkpt><trkpt lat="31.09592977849777" lon="-4.010904552213042"><ele>698.0</ele><time>2026-04-30T13:58:52.001Z</time></trkpt><trkpt lat="31.095870060368462" lon="-4.010950831394285"><ele>698.2</ele><time>2026-04-30T13:58:53.001Z</time></trkpt><trkpt lat="31.095815834639073" lon="-4.0109927557118725"><ele>698.4</ele><time>2026-04-30T13:58:54.001Z</time></trkpt><trkpt lat="31.095717187319927" lon="-4.011069527273636"><ele>698.6</ele><time>2026-04-30T13:58:56.001Z</time></trkpt><trkpt lat="31.09565331420986" lon="-4.0110734758266515"><ele>698.8000000000001</ele><time>2026-04-30T13:58:58.001Z</time></trkpt><trkpt lat="31.09564102397046" lon="-4.010976356395486"><ele>699.0</ele><time>2026-04-30T13:59:00.001Z</time></trkpt><trkpt lat="31.095742186381035" lon="-4.010892609232098"><ele>699.0</ele><time>2026-04-30T13:59:02.001Z</time></trkpt><trkpt lat="31.095823564285464" lon="-4.010855068391513"><ele>699.0</ele><time>2026-04-30T13:59:03.001Z</time></trkpt><trkpt lat="31.095887169990537" lon="-4.010810643874331"><ele>699.0</ele><time>2026-04-30T13:59:04.001Z</time></trkpt><trkpt lat="31.09594614339499" lon="-4.010775181016887"><ele>699.0</ele><time>2026-04-30T13:59:05.001Z</time></trkpt><trkpt lat="31.09605966026916" lon="-4.010714407624691"><ele>699.0</ele><time>2026-04-30T13:59:07.001Z</time></trkpt><trkpt lat="31.09616545630506" lon="-4.010662882965036"><ele>699.0</ele><time>2026-04-30T13:59:09.001Z</time></trkpt><trkpt lat="31.096264354399125" lon="-4.010586481485966"><ele>699.0</ele><time>2026-04-30T13:59:11.001Z</time></trkpt><trkpt lat="31.096384644458514" lon="-4.010552256747097"><ele>699.0</ele><time>2026-04-30T13:59:13.001Z</time></trkpt><trkpt lat="31.096445204862004" lon="-4.010517792160252"><ele>699.0</ele><time>2026-04-30T13:59:14.001Z</time></trkpt><trkpt lat="31.096499557454063" lon="-4.010462927070367"><ele>699.0</ele><time>2026-04-30T13:59:15.001Z</time></trkpt><trkpt lat="31.096557961262924" lon="-4.010429834573289"><ele>699.0</ele><time>2026-04-30T13:59:16.001Z</time></trkpt><trkpt lat="31.09661749596823" lon="-4.010396069074787"><ele>699.0</ele><time>2026-04-30T13:59:17.001Z</time></trkpt><trkpt lat="31.096674760910286" lon="-4.010363353821823"><ele>699.0</ele><time>2026-04-30T13:59:18.001Z</time></trkpt><trkpt lat="31.096731772167743" lon="-4.0103313034675985"><ele>699.0</ele><time>2026-04-30T13:59:19.001Z</time></trkpt><trkpt lat="31.096789379450918" lon="-4.010300674919796"><ele>699.0</ele><time>2026-04-30T13:59:20.001Z</time></trkpt><trkpt lat="31.096850176255593" lon="-4.010268350560568"><ele>699.0</ele><time>2026-04-30T13:59:21.001Z</time></trkpt><trkpt lat="31.096910151918856" lon="-4.010236462806398"><ele>699.0</ele><time>2026-04-30T13:59:22.001Z</time></trkpt><trkpt lat="31.096971126726917" lon="-4.010204043815578"><ele>699.0</ele><time>2026-04-30T13:59:23.001Z</time></trkpt><trkpt lat="31.097031251135583" lon="-4.010171974425789"><ele>699.0</ele><time>2026-04-30T13:59:24.001Z</time></trkpt><trkpt lat="31.09709340651797" lon="-4.01013982103986"><ele>699.0</ele><time>2026-04-30T13:59:25.001Z</time></trkpt><trkpt lat="31.097157965349087" lon="-4.010106774627816"><ele>699.0</ele><time>2026-04-30T13:59:26.001Z</time></trkpt><trkpt lat="31.09722000185665" lon="-4.01007503134126"><ele>699.0</ele><time>2026-04-30T13:59:27.001Z</time></trkpt><trkpt lat="31.097277169263783" lon="-4.010037980063768"><ele>699.0</ele><time>2026-04-30T13:59:28.001Z</time></trkpt><trkpt lat="31.097335696040886" lon="-4.010004439762657"><ele>699.0</ele><time>2026-04-30T13:59:29.001Z</time></trkpt><trkpt lat="31.09739520606226" lon="-4.009974047484245"><ele>699.0</ele><time>2026-04-30T13:59:30.001Z</time></trkpt><trkpt lat="31.097509797590106" lon="-4.0099133866380585"><ele>698.5714285714286</ele><time>2026-04-30T13:59:32.001Z</time></trkpt><trkpt lat="31.097570660548975" lon="-4.009880318747033"><ele>698.1428571428572</ele><time>2026-04-30T13:59:33.001Z</time></trkpt><trkpt lat="31.097634029808003" lon="-4.0098457266379075"><ele>697.7142857142858</ele><time>2026-04-30T13:59:34.001Z</time></trkpt><trkpt lat="31.0976910690439" lon="-4.00980738538886"><ele>697.2857142857142</ele><time>2026-04-30T13:59:35.001Z</time></trkpt><trkpt lat="31.097750062875416" lon="-4.009772087436733"><ele>696.8571428571429</ele><time>2026-04-30T13:59:36.001Z</time></trkpt><trkpt lat="31.097805583311054" lon="-4.009728370531209"><ele>696.4285714285714</ele><time>2026-04-30T13:59:37.001Z</time></trkpt><trkpt lat="31.09786338011841" lon="-4.009682861453902"><ele>696.0</ele><time>2026-04-30T13:59:38.001Z</time></trkpt><trkpt lat="31.097920198921184" lon="-4.00963812245305"><ele>696.0</ele><time>2026-04-30T13:59:39.001Z</time></trkpt><trkpt lat="31.09797644358938" lon="-4.009593835398746"><ele>696.0</ele><time>2026-04-30T13:59:40.001Z</time></trkpt><trkpt lat="31.098026265157852" lon="-4.00954698056412"><ele>696.0</ele><time>2026-04-30T13:59:41Z</time></trkpt><trkpt lat="31.098075846333387" lon="-4.009501346416573"><ele>696.0</ele><time>2026-04-30T13:59:42Z</time></trkpt><trkpt lat="31.09812533859002" lon="-4.009455794172335"><ele>696.0</ele><time>2026-04-30T13:59:43Z</time></trkpt><trkpt lat="31.098224792896843" lon="-4.0093642571925745"><ele>696.0</ele><time>2026-04-30T13:59:45Z</time></trkpt><trkpt lat="31.098316604530268" lon="-4.0092797544812875"><ele>696.1666666666666</ele><time>2026-04-30T13:59:47Z</time></trkpt><trkpt lat="31.098387025595915" lon="-4.009214939486656"><ele>696.3333333333334</ele><time>2026-04-30T13:59:49Z</time></trkpt><trkpt lat="31.098464383555797" lon="-4.009143739819326"><ele>696.5</ele><time>2026-04-30T13:59:51Z</time></trkpt><trkpt lat="31.09851964730325" lon="-4.00910119364656"><ele>696.6666666666667</ele><time>2026-04-30T13:59:52Z</time></trkpt><trkpt lat="31.098587598573726" lon="-4.009052632165054"><ele>696.8333333333334</ele><time>2026-04-30T13:59:54Z</time></trkpt><trkpt lat="31.098662814493803" lon="-4.0089966978885"><ele>697.0</ele><time>2026-04-30T13:59:57Z</time></trkpt><trkpt lat="31.098697764682633" lon="-4.008935167149503"><ele>697.0</ele><time>2026-04-30T13:59:59Z</time></trkpt><trkpt lat="31.098641129195972" lon="-4.009038699114511"><ele>697.0</ele><time>2026-04-30T14:00:02Z</time></trkpt><trkpt lat="31.09856071354832" lon="-4.009107160815145"><ele>697.0</ele><time>2026-04-30T14:00:04Z</time></trkpt><trkpt lat="31.098452254583083" lon="-4.009217727169931"><ele>697.0</ele><time>2026-04-30T14:00:06Z</time></trkpt><trkpt lat="31.098378578823095" lon="-4.009281755934019"><ele>697.0</ele><time>2026-04-30T14:00:07Z</time></trkpt><trkpt lat="31.098324026047184" lon="-4.009325877218603"><ele>696.8</ele><time>2026-04-30T14:00:08Z</time></trkpt><trkpt lat="31.098226054793585" lon="-4.0094144710163695"><ele>696.6</ele><time>2026-04-30T14:00:10Z</time></trkpt><trkpt lat="31.09815703579532" lon="-4.00947876074157"><ele>696.4</ele><time>2026-04-30T14:00:11Z</time></trkpt><trkpt lat="31.098092863554196" lon="-4.009539071166106"><ele>696.1999999999999</ele><time>2026-04-30T14:00:12Z</time></trkpt><trkpt lat="31.098025918833784" lon="-4.009599944277522"><ele>696.0</ele><time>2026-04-30T14:00:13Z</time></trkpt><trkpt lat="31.09795822001261" lon="-4.009651913898378"><ele>696.0</ele><time>2026-04-30T14:00:14Z</time></trkpt><trkpt lat="31.097885074924168" lon="-4.009702119919015"><ele>696.0</ele><time>2026-04-30T14:00:15Z</time></trkpt><trkpt lat="31.09781461005505" lon="-4.009754903874907"><ele>696.0</ele><time>2026-04-30T14:00:16Z</time></trkpt><trkpt lat="31.097745697197766" lon="-4.0098065714708815"><ele>696.0</ele><time>2026-04-30T14:00:17Z</time></trkpt><trkpt lat="31.0976760579985" lon="-4.009854218571137"><ele>696.0</ele><time>2026-04-30T14:00:18Z</time></trkpt><trkpt lat="31.097609165952907" lon="-4.00988989784098"><ele>696.0</ele><time>2026-04-30T14:00:19Z</time></trkpt><trkpt lat="31.097537709625723" lon="-4.009928216971642"><ele>696.3333333333334</ele><time>2026-04-30T14:00:20Z</time></trkpt><trkpt lat="31.097452776426525" lon="-4.010019600212345"><ele>696.6666666666666</ele><time>2026-04-30T14:00:22.001Z</time></trkpt><trkpt lat="31.097391056080724" lon="-4.010058166329925"><ele>697.0</ele><time>2026-04-30T14:00:23.001Z</time></trkpt><trkpt lat="31.09732842791" lon="-4.010098299607645"><ele>697.3333333333333</ele><time>2026-04-30T14:00:24.001Z</time></trkpt><trkpt lat="31.09725530362887" lon="-4.0101349685440635"><ele>697.6666666666666</ele><time>2026-04-30T14:00:25.001Z</time></trkpt><trkpt lat="31.097165422057028" lon="-4.0101787323204094"><ele>698.0</ele><time>2026-04-30T14:00:26.001Z</time></trkpt><trkpt lat="31.097083058630528" lon="-4.010221812229757"><ele>698.1666666666666</ele><time>2026-04-30T14:00:27.001Z</time></trkpt><trkpt lat="31.097009805844365" lon="-4.010264403967671"><ele>698.3333333333333</ele><time>2026-04-30T14:00:28.001Z</time></trkpt><trkpt lat="31.096938656518194" lon="-4.010303412986314"><ele>698.5</ele><time>2026-04-30T14:00:29.001Z</time></trkpt><trkpt lat="31.096870810394037" lon="-4.010345145493141"><ele>698.6666666666666</ele><time>2026-04-30T14:00:30.001Z</time></trkpt><trkpt lat="31.09680422317148" lon="-4.010387185768771"><ele>698.8333333333334</ele><time>2026-04-30T14:00:31.001Z</time></trkpt><trkpt lat="31.096740208040682" lon="-4.010428270933801"><ele>699.0</ele><time>2026-04-30T14:00:32.001Z</time></trkpt><trkpt lat="31.096683467741403" lon="-4.010464553093971"><ele>698.8333333333334</ele><time>2026-04-30T14:00:33.001Z</time></trkpt><trkpt lat="31.096561666860147" lon="-4.010492445553471"><ele>698.6666666666666</ele><time>2026-04-30T14:00:35.001Z</time></trkpt><trkpt lat="31.0965001892711" lon="-4.010527278856021"><ele>698.5</ele><time>2026-04-30T14:00:36.001Z</time></trkpt><trkpt lat="31.09640593035328" lon="-4.010559558685898"><ele>698.3333333333333</ele><time>2026-04-30T14:00:37.001Z</time></trkpt><trkpt lat="31.096342023635273" lon="-4.0106124420458045"><ele>698.1666666666666</ele><time>2026-04-30T14:00:38.001Z</time></trkpt><trkpt lat="31.096278952283594" lon="-4.010656795161653"><ele>698.0</ele><time>2026-04-30T14:00:39.001Z</time></trkpt><trkpt lat="31.096219086019126" lon="-4.010698971914554"><ele>698.0</ele><time>2026-04-30T14:00:40.001Z</time></trkpt><trkpt lat="31.09616204690391" lon="-4.010739267308938"><ele>698.0</ele><time>2026-04-30T14:00:41.001Z</time></trkpt><trkpt lat="31.09605951105432" lon="-4.010812282206248"><ele>698.0</ele><time>2026-04-30T14:00:43.001Z</time></trkpt><trkpt lat="31.095998442012345" lon="-4.010855814194959"><ele>698.0</ele><time>2026-04-30T14:00:44.001Z</time></trkpt><trkpt lat="31.095941364421186" lon="-4.010896349271729"><ele>698.0</ele><time>2026-04-30T14:00:45.001Z</time></trkpt><trkpt lat="31.09588691197309" lon="-4.010937952997597"><ele>698.0</ele><time>2026-04-30T14:00:46.001Z</time></trkpt><trkpt lat="31.09583409186774" lon="-4.010978558189713"><ele>698.1666666666666</ele><time>2026-04-30T14:00:47.001Z</time></trkpt><trkpt lat="31.095729193712174" lon="-4.0110601740950536"><ele>698.3333333333333</ele><time>2026-04-30T14:00:49.001Z</time></trkpt><trkpt lat="31.09567636216369" lon="-4.011101332339017"><ele>698.5</ele><time>2026-04-30T14:00:50.001Z</time></trkpt><trkpt lat="31.095623367414717" lon="-4.011142618253414"><ele>698.6666666666666</ele><time>2026-04-30T14:00:51.001Z</time></trkpt><trkpt lat="31.095568285226353" lon="-4.0111849638100985"><ele>698.8333333333334</ele><time>2026-04-30T14:00:52.001Z</time></trkpt><trkpt lat="31.095478218022325" lon="-4.011260963865395"><ele>699.0</ele><time>2026-04-30T14:00:54.001Z</time></trkpt><trkpt lat="31.095416553324227" lon="-4.011312997458489"><ele>699.0</ele><time>2026-04-30T14:00:56.001Z</time></trkpt><trkpt lat="31.095350513821387" lon="-4.0113694626980365"><ele>699.0</ele><time>2026-04-30T14:00:59.001Z</time></trkpt><trkpt lat="31.095273066566154" lon="-4.01143798683119"><ele>699.0</ele><time>2026-04-30T14:01:02.001Z</time></trkpt><trkpt lat="31.09521099391717" lon="-4.011492907744244"><ele>699.0</ele><time>2026-04-30T14:01:04.001Z</time></trkpt><trkpt lat="31.095277797210038" lon="-4.011690435477065"><ele>699.0</ele><time>2026-04-30T14:01:08.001Z</time></trkpt><trkpt lat="31.09534961087413" lon="-4.011777180199036"><ele>698.5</ele><time>2026-04-30T14:01:09.001Z</time></trkpt><trkpt lat="31.095436171209226" lon="-4.011874354510669"><ele>698.0</ele><time>2026-04-30T14:01:10.001Z</time></trkpt><trkpt lat="31.09552277239985" lon="-4.011980425812534"><ele>697.5</ele><time>2026-04-30T14:01:11.001Z</time></trkpt><trkpt lat="31.095611412170346" lon="-4.012099178470748"><ele>697.0</ele><time>2026-04-30T14:01:12.001Z</time></trkpt><trkpt lat="31.095699541453676" lon="-4.012219297375921"><ele>697.25</ele><time>2026-04-30T14:01:13.001Z</time></trkpt><trkpt lat="31.095784581256463" lon="-4.012334701487327"><ele>697.5</ele><time>2026-04-30T14:01:14.001Z</time></trkpt><trkpt lat="31.095869382782936" lon="-4.012447778822958"><ele>697.75</ele><time>2026-04-30T14:01:15.001Z</time></trkpt><trkpt lat="31.095955048738944" lon="-4.012557862951582"><ele>698.0</ele><time>2026-04-30T14:01:16.001Z</time></trkpt><trkpt lat="31.096041143735157" lon="-4.012662830340753"><ele>697.5</ele><time>2026-04-30T14:01:17.001Z</time></trkpt><trkpt lat="31.09612302673703" lon="-4.0127694752577625"><ele>697.0</ele><time>2026-04-30T14:01:18.001Z</time></trkpt><trkpt lat="31.096197831566837" lon="-4.01287049051616"><ele>696.5</ele><time>2026-04-30T14:01:19.001Z</time></trkpt><trkpt lat="31.09627163310895" lon="-4.012965077206602"><ele>696.0</ele><time>2026-04-30T14:01:20.001Z</time></trkpt><trkpt lat="31.096340457811667" lon="-4.013055919934302"><ele>696.0</ele><time>2026-04-30T14:01:21.001Z</time></trkpt><trkpt lat="31.096411683389316" lon="-4.013147307641098"><ele>696.0</ele><time>2026-04-30T14:01:22.001Z</time></trkpt><trkpt lat="31.09648141237463" lon="-4.013236525252451"><ele>696.0</ele><time>2026-04-30T14:01:23.001Z</time></trkpt><trkpt lat="31.096544111731657" lon="-4.013317749441668"><ele>696.0</ele><time>2026-04-30T14:01:24.001Z</time></trkpt><trkpt lat="31.096607303380814" lon="-4.013390620729213"><ele>696.0</ele><time>2026-04-30T14:01:25.001Z</time></trkpt><trkpt lat="31.096663411825475" lon="-4.013466150430995"><ele>696.1666666666666</ele><time>2026-04-30T14:01:26.001Z</time></trkpt><trkpt lat="31.09671891262776" lon="-4.013534910577741"><ele>696.3333333333334</ele><time>2026-04-30T14:01:27.001Z</time></trkpt><trkpt lat="31.096784969533626" lon="-4.013589728001291"><ele>696.5</ele><time>2026-04-30T14:01:28.001Z</time></trkpt><trkpt lat="31.09683787479054" lon="-4.013654798643967"><ele>696.6666666666667</ele><time>2026-04-30T14:01:29.001Z</time></trkpt><trkpt lat="31.096886665441414" lon="-4.013714560766723"><ele>696.8333333333334</ele><time>2026-04-30T14:01:30.001Z</time></trkpt><trkpt lat="31.096930033614612" lon="-4.0137678580380465"><ele>697.0</ele><time>2026-04-30T14:01:31.001Z</time></trkpt><trkpt lat="31.09701250600584" lon="-4.013870896316167"><ele>697.0</ele><time>2026-04-30T14:01:33.001Z</time></trkpt><trkpt lat="31.097059289119326" lon="-4.013929272854049"><ele>697.0</ele><time>2026-04-30T14:01:34.001Z</time></trkpt><trkpt lat="31.0970993074907" lon="-4.014009587050992"><ele>697.0</ele><time>2026-04-30T14:01:35.001Z</time></trkpt><trkpt lat="31.097153723874456" lon="-4.014075473958017"><ele>697.0</ele><time>2026-04-30T14:01:36.001Z</time></trkpt><trkpt lat="31.097202780843855" lon="-4.014144636434308"><ele>697.0</ele><time>2026-04-30T14:01:37.001Z</time></trkpt><trkpt lat="31.097250981842908" lon="-4.014215910600918"><ele>697.0</ele><time>2026-04-30T14:01:38.001Z</time></trkpt><trkpt lat="31.097303033232784" lon="-4.014280821445179"><ele>697.5</ele><time>2026-04-30T14:01:39.001Z</time></trkpt><trkpt lat="31.09735685771525" lon="-4.0143464496662915"><ele>698.0</ele><time>2026-04-30T14:01:40.001Z</time></trkpt><trkpt lat="31.097408816846144" lon="-4.014416418146475"><ele>698.5</ele><time>2026-04-30T14:01:41.001Z</time></trkpt><trkpt lat="31.097460428277248" lon="-4.0144848408610105"><ele>699.0</ele><time>2026-04-30T14:01:42.001Z</time></trkpt><trkpt lat="31.0975130578201" lon="-4.014551400438874"><ele>699.5</ele><time>2026-04-30T14:01:43.001Z</time></trkpt><trkpt lat="31.09756379592998" lon="-4.014616705562722"><ele>700.0</ele><time>2026-04-30T14:01:44.001Z</time></trkpt><trkpt lat="31.097613574568687" lon="-4.01467911385094"><ele>700.0</ele><time>2026-04-30T14:01:45.001Z</time></trkpt><trkpt lat="31.09765833841754" lon="-4.0147345368668"><ele>700.0</ele><time>2026-04-30T14:01:46.001Z</time></trkpt><trkpt lat="31.097738822487635" lon="-4.014837447702702"><ele>700.0</ele><time>2026-04-30T14:01:48Z</time></trkpt><trkpt lat="31.097783267255718" lon="-4.01489462266684"><ele>700.0</ele><time>2026-04-30T14:01:49Z</time></trkpt><trkpt lat="31.097842260762143" lon="-4.014968675955251"><ele>700.0</ele><time>2026-04-30T14:01:50Z</time></trkpt><trkpt lat="31.097915734712302" lon="-4.015068207453809"><ele>700.25</ele><time>2026-04-30T14:01:51Z</time></trkpt><trkpt lat="31.098008691463807" lon="-4.015179606382204"><ele>700.5</ele><time>2026-04-30T14:01:52Z</time></trkpt><trkpt lat="31.09811058568373" lon="-4.015295063241581"><ele>700.75</ele><time>2026-04-30T14:01:53Z</time></trkpt><trkpt lat="31.098211784053394" lon="-4.015408202151981"><ele>701.0</ele><time>2026-04-30T14:01:54Z</time></trkpt><trkpt lat="31.09829738292323" lon="-4.015515275779793"><ele>701.0</ele><time>2026-04-30T14:01:55Z</time></trkpt><trkpt lat="31.0983835902896" lon="-4.015614515863381"><ele>701.0</ele><time>2026-04-30T14:01:56Z</time></trkpt><trkpt lat="31.098458772520928" lon="-4.015707394075641"><ele>701.0</ele><time>2026-04-30T14:01:57Z</time></trkpt><trkpt lat="31.09852724915734" lon="-4.015792121720612"><ele>701.0</ele><time>2026-04-30T14:01:58Z</time></trkpt><trkpt lat="31.09859591409079" lon="-4.015874475417537"><ele>701.0</ele><time>2026-04-30T14:01:59Z</time></trkpt><trkpt lat="31.098662270712722" lon="-4.0159566486846705"><ele>701.0</ele><time>2026-04-30T14:02:00Z</time></trkpt><trkpt lat="31.098734977042664" lon="-4.016048437612639"><ele>701.0</ele><time>2026-04-30T14:02:01Z</time></trkpt><trkpt lat="31.098824647870376" lon="-4.016155645256612"><ele>701.0</ele><time>2026-04-30T14:02:02Z</time></trkpt><trkpt lat="31.098914133710466" lon="-4.016256024962576"><ele>701.0</ele><time>2026-04-30T14:02:03Z</time></trkpt><trkpt lat="31.098991466160495" lon="-4.016351405240552"><ele>701.0</ele><time>2026-04-30T14:02:04Z</time></trkpt><trkpt lat="31.099068999044658" lon="-4.01644484863435"><ele>701.0</ele><time>2026-04-30T14:02:05Z</time></trkpt><trkpt lat="31.099150146962177" lon="-4.016539294877405"><ele>701.0</ele><time>2026-04-30T14:02:06Z</time></trkpt><trkpt lat="31.0992325512267" lon="-4.016634698349574"><ele>701.0</ele><time>2026-04-30T14:02:07Z</time></trkpt><trkpt lat="31.099314512201268" lon="-4.016730442060881"><ele>701.5999999999999</ele><time>2026-04-30T14:02:08Z</time></trkpt><trkpt lat="31.099392605824015" lon="-4.016816603732691"><ele>702.2</ele><time>2026-04-30T14:02:09Z</time></trkpt><trkpt lat="31.099464786291485" lon="-4.016899392259408"><ele>702.8</ele><time>2026-04-30T14:02:10Z</time></trkpt><trkpt lat="31.099531353256197" lon="-4.01697388592752"><ele>703.4000000000001</ele><time>2026-04-30T14:02:11Z</time></trkpt><trkpt lat="31.0995978682217" lon="-4.017036627172716"><ele>704.0</ele><time>2026-04-30T14:02:12Z</time></trkpt><trkpt lat="31.09963036965931" lon="-4.0171080648932245"><ele>704.0</ele><time>2026-04-30T14:02:13Z</time></trkpt><trkpt lat="31.09971810489713" lon="-4.017135812847002"><ele>704.0</ele><time>2026-04-30T14:02:14Z</time></trkpt><trkpt lat="31.09978202243311" lon="-4.017159458156883"><ele>704.0</ele><time>2026-04-30T14:02:15Z</time></trkpt><trkpt lat="31.09981500438376" lon="-4.016999985735716"><ele>704.0</ele><time>2026-04-30T14:02:16Z</time></trkpt><trkpt lat="31.09987196899978" lon="-4.016897206651225"><ele>704.0</ele><time>2026-04-30T14:02:17Z</time></trkpt><trkpt lat="31.09994786418767" lon="-4.016788950877943"><ele>704.0</ele><time>2026-04-30T14:02:18Z</time></trkpt><trkpt lat="31.100002859610168" lon="-4.016662058850349"><ele>704.0</ele><time>2026-04-30T14:02:19Z</time></trkpt><trkpt lat="31.100081683487044" lon="-4.016565972121142"><ele>704.0</ele><time>2026-04-30T14:02:20Z</time></trkpt><trkpt lat="31.100163362290576" lon="-4.016486143834667"><ele>704.0</ele><time>2026-04-30T14:02:21Z</time></trkpt><trkpt lat="31.10027087776461" lon="-4.016440758315783"><ele>704.0</ele><time>2026-04-30T14:02:22Z</time></trkpt><trkpt lat="31.10035730942872" lon="-4.016394627204426"><ele>704.0</ele><time>2026-04-30T14:02:23Z</time></trkpt><trkpt lat="31.100458743728094" lon="-4.016379519887322"><ele>704.0</ele><time>2026-04-30T14:02:24Z</time></trkpt><trkpt lat="31.100551305681424" lon="-4.016355496997862"><ele>704.0</ele><time>2026-04-30T14:02:25Z</time></trkpt><trkpt lat="31.10064610342626" lon="-4.016330894332389"><ele>704.0</ele><time>2026-04-30T14:02:26Z</time></trkpt><trkpt lat="31.100737091371627" lon="-4.016301089945853"><ele>703.1666666666666</ele><time>2026-04-30T14:02:27Z</time></trkpt><trkpt lat="31.100823052798674" lon="-4.0162753561384665"><ele>702.3333333333333</ele><time>2026-04-30T14:02:28Z</time></trkpt><trkpt lat="31.10090370891181" lon="-4.0162497310565275"><ele>701.5</ele><time>2026-04-30T14:02:29Z</time></trkpt><trkpt lat="31.10097942985619" lon="-4.0162261865287965"><ele>700.6666666666666</ele><time>2026-04-30T14:02:30Z</time></trkpt><trkpt lat="31.101052681493858" lon="-4.016203283330326"><ele>699.8333333333334</ele><time>2026-04-30T14:02:31Z</time></trkpt><trkpt lat="31.101118222050328" lon="-4.0161809637100285"><ele>699.0</ele><time>2026-04-30T14:02:32Z</time></trkpt><trkpt lat="31.10118522182534" lon="-4.016151264649275"><ele>699.0</ele><time>2026-04-30T14:02:33Z</time></trkpt><trkpt lat="31.101298755807864" lon="-4.016078086409223"><ele>699.0</ele><time>2026-04-30T14:02:35Z</time></trkpt><trkpt lat="31.101360046560078" lon="-4.016037502261389"><ele>699.0</ele><time>2026-04-30T14:02:36Z</time></trkpt><trkpt lat="31.101436263277662" lon="-4.01601024181608"><ele>699.0</ele><time>2026-04-30T14:02:37Z</time></trkpt><trkpt lat="31.1015092588307" lon="-4.015975721736076"><ele>699.0</ele><time>2026-04-30T14:02:38Z</time></trkpt><trkpt lat="31.10159298952863" lon="-4.015946778143939"><ele>699.0</ele><time>2026-04-30T14:02:39Z</time></trkpt><trkpt lat="31.10168260918674" lon="-4.015927766871833"><ele>699.0</ele><time>2026-04-30T14:02:40Z</time></trkpt><trkpt lat="31.1017725175468" lon="-4.015914867811916"><ele>699.0</ele><time>2026-04-30T14:02:41Z</time></trkpt><trkpt lat="31.10186151160283" lon="-4.01589929661045"><ele>699.0</ele><time>2026-04-30T14:02:42Z</time></trkpt><trkpt lat="31.10194881786045" lon="-4.015902785245458"><ele>699.0</ele><time>2026-04-30T14:02:43Z</time></trkpt><trkpt lat="31.102032490157622" lon="-4.015882346914712"><ele>699.0</ele><time>2026-04-30T14:02:44Z</time></trkpt><trkpt lat="31.102114015772294" lon="-4.015856372415502"><ele>699.0</ele><time>2026-04-30T14:02:45Z</time></trkpt><trkpt lat="31.102195368426475" lon="-4.015831269870859"><ele>699.0</ele><time>2026-04-30T14:02:46Z</time></trkpt><trkpt lat="31.102270471410655" lon="-4.01578442208732"><ele>699.0</ele><time>2026-04-30T14:02:47Z</time></trkpt><trkpt lat="31.102355379551717" lon="-4.01575515516337"><ele>699.0</ele><time>2026-04-30T14:02:48Z</time></trkpt><trkpt lat="31.102445603038273" lon="-4.015730969930144"><ele>699.0</ele><time>2026-04-30T14:02:49.001Z</time></trkpt><trkpt lat="31.10253324446194" lon="-4.015705964821266"><ele>699.0</ele><time>2026-04-30T14:02:50.001Z</time></trkpt><trkpt lat="31.102624926167177" lon="-4.015692569777411"><ele>699.0</ele><time>2026-04-30T14:02:51.001Z</time></trkpt><trkpt lat="31.102703715031073" lon="-4.015682426551858"><ele>699.0</ele><time>2026-04-30T14:02:52.001Z</time></trkpt><trkpt lat="31.10277536983476" lon="-4.015675722394704"><ele>699.0</ele><time>2026-04-30T14:02:53.001Z</time></trkpt><trkpt lat="31.102850539414916" lon="-4.015669313377428"><ele>699.0</ele><time>2026-04-30T14:02:54.001Z</time></trkpt><trkpt lat="31.102935078745404" lon="-4.01566210548744"><ele>699.0</ele><time>2026-04-30T14:02:55.001Z</time></trkpt><trkpt lat="31.103034959907394" lon="-4.015653589492522"><ele>699.0</ele><time>2026-04-30T14:02:56.001Z</time></trkpt><trkpt lat="31.10315401818591" lon="-4.01566853568856"><ele>699.0</ele><time>2026-04-30T14:02:57.001Z</time></trkpt><trkpt lat="31.10326104538303" lon="-4.01567437806775"><ele>699.0</ele><time>2026-04-30T14:02:58.001Z</time></trkpt><trkpt lat="31.103357761755124" lon="-4.015685278737303"><ele>699.0</ele><time>2026-04-30T14:02:59.001Z</time></trkpt><trkpt lat="31.10344397050935" lon="-4.015693476417435"><ele>699.0</ele><time>2026-04-30T14:03:00.001Z</time></trkpt><trkpt lat="31.103524758630627" lon="-4.01570085225695"><ele>699.0</ele><time>2026-04-30T14:03:01.001Z</time></trkpt><trkpt lat="31.103598872555413" lon="-4.015701783698788"><ele>699.0</ele><time>2026-04-30T14:03:02.001Z</time></trkpt><trkpt lat="31.10367921648497" lon="-4.015700209470941"><ele>699.0</ele><time>2026-04-30T14:03:03.001Z</time></trkpt><trkpt lat="31.103770117491127" lon="-4.0156978952509075"><ele>699.0</ele><time>2026-04-30T14:03:04.001Z</time></trkpt><trkpt lat="31.103860801239772" lon="-4.015695409774363"><ele>699.0</ele><time>2026-04-30T14:03:05.001Z</time></trkpt><trkpt lat="31.10394807545062" lon="-4.015692569278424"><ele>699.0</ele><time>2026-04-30T14:03:06.001Z</time></trkpt><trkpt lat="31.104035545529364" lon="-4.015692599086099"><ele>699.0</ele><time>2026-04-30T14:03:07.001Z</time></trkpt><trkpt lat="31.104122085959958" lon="-4.0156943827451785"><ele>699.0</ele><time>2026-04-30T14:03:08.001Z</time></trkpt><trkpt lat="31.104204694819366" lon="-4.015695513928222"><ele>699.0</ele><time>2026-04-30T14:03:09.001Z</time></trkpt><trkpt lat="31.10429281007071" lon="-4.0156965148173995"><ele>699.0</ele><time>2026-04-30T14:03:10.001Z</time></trkpt><trkpt lat="31.104383227902535" lon="-4.015697510664781"><ele>699.0</ele><time>2026-04-30T14:03:11.001Z</time></trkpt><trkpt lat="31.104470224822418" lon="-4.015693164943153"><ele>699.0</ele><time>2026-04-30T14:03:12.001Z</time></trkpt><trkpt lat="31.104558876909373" lon="-4.015686801221614"><ele>699.0</ele><time>2026-04-30T14:03:13.001Z</time></trkpt><trkpt lat="31.104650576433148" lon="-4.0156802187417755"><ele>699.0</ele><time>2026-04-30T14:03:14.001Z</time></trkpt><trkpt lat="31.104749063457778" lon="-4.015683151460345"><ele>699.0</ele><time>2026-04-30T14:03:15.001Z</time></trkpt><trkpt lat="31.104856871619905" lon="-4.015660278792215"><ele>699.0</ele><time>2026-04-30T14:03:16.001Z</time></trkpt><trkpt lat="31.104973745253574" lon="-4.015635138207112"><ele>699.0</ele><time>2026-04-30T14:03:17.001Z</time></trkpt><trkpt lat="31.105093771136726" lon="-4.015612342461138"><ele>699.0</ele><time>2026-04-30T14:03:18.001Z</time></trkpt><trkpt lat="31.10521228603849" lon="-4.015566623065201"><ele>698.25</ele><time>2026-04-30T14:03:19.001Z</time></trkpt><trkpt lat="31.105329174748604" lon="-4.015534173170311"><ele>697.5</ele><time>2026-04-30T14:03:20.001Z</time></trkpt><trkpt lat="31.105443509065225" lon="-4.01550210045414"><ele>696.75</ele><time>2026-04-30T14:03:21.001Z</time></trkpt><trkpt lat="31.105551342275394" lon="-4.0154680691714715"><ele>696.0</ele><time>2026-04-30T14:03:22.001Z</time></trkpt><trkpt lat="31.105656703096606" lon="-4.015432270802847"><ele>696.75</ele><time>2026-04-30T14:03:23.001Z</time></trkpt><trkpt lat="31.105788140196413" lon="-4.015395976534587"><ele>697.5</ele><time>2026-04-30T14:03:24.001Z</time></trkpt><trkpt lat="31.105900275268265" lon="-4.015364897881612"><ele>698.25</ele><time>2026-04-30T14:03:25.001Z</time></trkpt><trkpt lat="31.106025184644345" lon="-4.015358881566806"><ele>699.0</ele><time>2026-04-30T14:03:26.001Z</time></trkpt><trkpt lat="31.106141373456527" lon="-4.0153684635819875"><ele>699.0</ele><time>2026-04-30T14:03:27.001Z</time></trkpt><trkpt lat="31.106251604171884" lon="-4.015351805765103"><ele>699.0</ele><time>2026-04-30T14:03:28.001Z</time></trkpt><trkpt lat="31.106359353667678" lon="-4.015355586658457"><ele>699.0</ele><time>2026-04-30T14:03:29.001Z</time></trkpt><trkpt lat="31.10646736334046" lon="-4.015358277274078"><ele>699.0</ele><time>2026-04-30T14:03:30.001Z</time></trkpt><trkpt lat="31.106581888940845" lon="-4.0153957719210025"><ele>699.0</ele><time>2026-04-30T14:03:31.001Z</time></trkpt><trkpt lat="31.106695147230063" lon="-4.015432435280306"><ele>699.0</ele><time>2026-04-30T14:03:32.001Z</time></trkpt><trkpt lat="31.106806703623025" lon="-4.015473601847545"><ele>699.0</ele><time>2026-04-30T14:03:33.001Z</time></trkpt><trkpt lat="31.106917653822187" lon="-4.015512506375917"><ele>699.0</ele><time>2026-04-30T14:03:34.001Z</time></trkpt><trkpt lat="31.10703332972506" lon="-4.015567305962215"><ele>699.0</ele><time>2026-04-30T14:03:35.001Z</time></trkpt><trkpt lat="31.10714814382541" lon="-4.015602383830699"><ele>699.0</ele><time>2026-04-30T14:03:36.001Z</time></trkpt><trkpt lat="31.107264817513016" lon="-4.015633822204891"><ele>699.0</ele><time>2026-04-30T14:03:37.001Z</time></trkpt><trkpt lat="31.10738587377989" lon="-4.015673460209789"><ele>699.0</ele><time>2026-04-30T14:03:38.001Z</time></trkpt><trkpt lat="31.107507415428486" lon="-4.015711234034162"><ele>699.0</ele><time>2026-04-30T14:03:39.001Z</time></trkpt><trkpt lat="31.107631305188466" lon="-4.015749213032442"><ele>699.25</ele><time>2026-04-30T14:03:40.001Z</time></trkpt><trkpt lat="31.10775753513761" lon="-4.015785067080898"><ele>699.5</ele><time>2026-04-30T14:03:41.001Z</time></trkpt><trkpt lat="31.10788294530898" lon="-4.015824047550292"><ele>699.75</ele><time>2026-04-30T14:03:42.001Z</time></trkpt><trkpt lat="31.108021195537763" lon="-4.015845918615613"><ele>700.0</ele><time>2026-04-30T14:03:43.001Z</time></trkpt><trkpt lat="31.10814689919142" lon="-4.015882007295746"><ele>699.75</ele><time>2026-04-30T14:03:44.001Z</time></trkpt><trkpt lat="31.108271276294776" lon="-4.015918049319411"><ele>699.5</ele><time>2026-04-30T14:03:45.001Z</time></trkpt><trkpt lat="31.108396551231518" lon="-4.015954064809882"><ele>699.25</ele><time>2026-04-30T14:03:46.001Z</time></trkpt><trkpt lat="31.108517346751135" lon="-4.015989389198442"><ele>699.0</ele><time>2026-04-30T14:03:47.001Z</time></trkpt><trkpt lat="31.108639359958744" lon="-4.016024654527321"><ele>699.0</ele><time>2026-04-30T14:03:48.001Z</time></trkpt><trkpt lat="31.108759600718866" lon="-4.016059048663376"><ele>699.0</ele><time>2026-04-30T14:03:49.001Z</time></trkpt><trkpt lat="31.108874906643397" lon="-4.016095372343828"><ele>699.0</ele><time>2026-04-30T14:03:50.001Z</time></trkpt><trkpt lat="31.108989044630764" lon="-4.01613082761555"><ele>699.0</ele><time>2026-04-30T14:03:51.001Z</time></trkpt><trkpt lat="31.10910576223682" lon="-4.01616737491501"><ele>699.75</ele><time>2026-04-30T14:03:52.001Z</time></trkpt><trkpt lat="31.10922197242909" lon="-4.01620383597635"><ele>700.5</ele><time>2026-04-30T14:03:53Z</time></trkpt><trkpt lat="31.109340325808112" lon="-4.016240969464197"><ele>701.25</ele><time>2026-04-30T14:03:54Z</time></trkpt><trkpt lat="31.10945860493189" lon="-4.0162773819880515"><ele>702.0</ele><time>2026-04-30T14:03:55Z</time></trkpt><trkpt lat="31.109578123113742" lon="-4.0163107498777615"><ele>702.0</ele><time>2026-04-30T14:03:56Z</time></trkpt><trkpt lat="31.1096954722941" lon="-4.01634363137052"><ele>702.0</ele><time>2026-04-30T14:03:57Z</time></trkpt><trkpt lat="31.109814633990233" lon="-4.0163770207365035"><ele>702.0</ele><time>2026-04-30T14:03:58Z</time></trkpt><trkpt lat="31.109935666962066" lon="-4.01641093443782"><ele>702.0</ele><time>2026-04-30T14:03:59Z</time></trkpt><trkpt lat="31.110058429589245" lon="-4.016445332791403"><ele>702.75</ele><time>2026-04-30T14:04:00Z</time></trkpt><trkpt lat="31.110185478286823" lon="-4.016480932108232"><ele>703.5</ele><time>2026-04-30T14:04:01Z</time></trkpt><trkpt lat="31.110312416264946" lon="-4.016516500404226"><ele>704.25</ele><time>2026-04-30T14:04:02Z</time></trkpt><trkpt lat="31.110443094252588" lon="-4.01655311665898"><ele>705.0</ele><time>2026-04-30T14:04:03Z</time></trkpt><trkpt lat="31.110568881952716" lon="-4.016588362591384"><ele>705.0</ele><time>2026-04-30T14:04:04Z</time></trkpt><trkpt lat="31.110694535184976" lon="-4.016618214072761"><ele>705.0</ele><time>2026-04-30T14:04:05Z</time></trkpt><trkpt lat="31.110821837938758" lon="-4.0166486345720305"><ele>705.0</ele><time>2026-04-30T14:04:06Z</time></trkpt><trkpt lat="31.110952612075238" lon="-4.016686843309653"><ele>705.0</ele><time>2026-04-30T14:04:07Z</time></trkpt><trkpt lat="31.111079636500016" lon="-4.01672346425732"><ele>705.0</ele><time>2026-04-30T14:04:08Z</time></trkpt><trkpt lat="31.1112074565985" lon="-4.016760521392495"><ele>705.0</ele><time>2026-04-30T14:04:09Z</time></trkpt><trkpt lat="31.11133913457551" lon="-4.0167992128201435"><ele>705.0</ele><time>2026-04-30T14:04:10Z</time></trkpt><trkpt lat="31.11147156632743" lon="-4.016837160299921"><ele>705.0</ele><time>2026-04-30T14:04:11Z</time></trkpt><trkpt lat="31.11160840336394" lon="-4.016876370084504"><ele>705.5</ele><time>2026-04-30T14:04:12Z</time></trkpt><trkpt lat="31.111746968920706" lon="-4.016916075166032"><ele>706.0</ele><time>2026-04-30T14:04:13Z</time></trkpt><trkpt lat="31.111887672566784" lon="-4.0169542645146405"><ele>706.5</ele><time>2026-04-30T14:04:14Z</time></trkpt><trkpt lat="31.112028631927323" lon="-4.016990147288036"><ele>707.0</ele><time>2026-04-30T14:04:15Z</time></trkpt><trkpt lat="31.112171043151896" lon="-4.017026954464946"><ele>707.0</ele><time>2026-04-30T14:04:16Z</time></trkpt><trkpt lat="31.112311525155434" lon="-4.017063676205422"><ele>707.0</ele><time>2026-04-30T14:04:17Z</time></trkpt><trkpt lat="31.112452926693873" lon="-4.017100638310345"><ele>707.0</ele><time>2026-04-30T14:04:18Z</time></trkpt><trkpt lat="31.11259090613797" lon="-4.017136705885805"><ele>707.0</ele><time>2026-04-30T14:04:19Z</time></trkpt><trkpt lat="31.112732148158525" lon="-4.017187244573993"><ele>707.25</ele><time>2026-04-30T14:04:20Z</time></trkpt><trkpt lat="31.112875832523795" lon="-4.017221520064718"><ele>707.5</ele><time>2026-04-30T14:04:21Z</time></trkpt><trkpt lat="31.113018878877483" lon="-4.0172515152867145"><ele>707.75</ele><time>2026-04-30T14:04:22Z</time></trkpt><trkpt lat="31.11316922596704" lon="-4.017279104875927"><ele>708.0</ele><time>2026-04-30T14:04:23Z</time></trkpt><trkpt lat="31.11331570715854" lon="-4.017285043231583"><ele>707.5</ele><time>2026-04-30T14:04:24Z</time></trkpt><trkpt lat="31.11346131111516" lon="-4.017292904525258"><ele>707.0</ele><time>2026-04-30T14:04:25Z</time></trkpt><trkpt lat="31.113613491960308" lon="-4.0173140879745155"><ele>706.5</ele><time>2026-04-30T14:04:26Z</time></trkpt><trkpt lat="31.11375941151688" lon="-4.01733649007534"><ele>706.0</ele><time>2026-04-30T14:04:27Z</time></trkpt><trkpt lat="31.11390602602836" lon="-4.017358998868375"><ele>706.0</ele><time>2026-04-30T14:04:28Z</time></trkpt><trkpt lat="31.11406302326496" lon="-4.017383101656018"><ele>706.0</ele><time>2026-04-30T14:04:29Z</time></trkpt><trkpt lat="31.114219560797714" lon="-4.017398359979779"><ele>706.0</ele><time>2026-04-30T14:04:30Z</time></trkpt><trkpt lat="31.114381110067658" lon="-4.017411230137119"><ele>706.3333333333334</ele><time>2026-04-30T14:04:31Z</time></trkpt><trkpt lat="31.114543002716953" lon="-4.0174236575694735"><ele>706.6666666666666</ele><time>2026-04-30T14:04:32Z</time></trkpt><trkpt lat="31.114712174943495" lon="-4.017436984707484"><ele>707.0</ele><time>2026-04-30T14:04:33Z</time></trkpt><trkpt lat="31.114887083773013" lon="-4.01745163173601"><ele>707.0</ele><time>2026-04-30T14:04:34Z</time></trkpt><trkpt lat="31.115060321669866" lon="-4.017470727543702"><ele>707.0</ele><time>2026-04-30T14:04:35Z</time></trkpt><trkpt lat="31.115240752164993" lon="-4.017490616179184"><ele>707.0</ele><time>2026-04-30T14:04:36Z</time></trkpt><trkpt lat="31.11541779155406" lon="-4.017510131018614"><ele>707.0</ele><time>2026-04-30T14:04:37Z</time></trkpt><trkpt lat="31.115598312388222" lon="-4.017530029612897"><ele>707.0</ele><time>2026-04-30T14:04:38Z</time></trkpt><trkpt lat="31.115780225525224" lon="-4.017550163405198"><ele>707.0</ele><time>2026-04-30T14:04:39Z</time></trkpt><trkpt lat="31.115962551101763" lon="-4.017569897931308"><ele>706.3333333333333</ele><time>2026-04-30T14:04:40Z</time></trkpt><trkpt lat="31.11614538625007" lon="-4.017589865706023"><ele>705.6666666666666</ele><time>2026-04-30T14:04:41Z</time></trkpt><trkpt lat="31.116327426293136" lon="-4.017609791976669"><ele>705.0</ele><time>2026-04-30T14:04:42Z</time></trkpt><trkpt lat="31.116506091319497" lon="-4.017629385832045"><ele>705.0</ele><time>2026-04-30T14:04:43Z</time></trkpt><trkpt lat="31.116672848560615" lon="-4.017634606848607"><ele>705.0</ele><time>2026-04-30T14:04:44.001Z</time></trkpt><trkpt lat="31.116845234849322" lon="-4.017630748892566"><ele>705.0</ele><time>2026-04-30T14:04:45.001Z</time></trkpt><trkpt lat="31.117017075161503" lon="-4.0176269031547625"><ele>705.0</ele><time>2026-04-30T14:04:46.001Z</time></trkpt><trkpt lat="31.117181678300437" lon="-4.017617872962431"><ele>705.0</ele><time>2026-04-30T14:04:47.001Z</time></trkpt><trkpt lat="31.11734611517062" lon="-4.01760264072727"><ele>705.0</ele><time>2026-04-30T14:04:48.001Z</time></trkpt><trkpt lat="31.117509393446603" lon="-4.017587515815521"><ele>705.0</ele><time>2026-04-30T14:04:49.001Z</time></trkpt><trkpt lat="31.117665505721867" lon="-4.017573054711172"><ele>705.0</ele><time>2026-04-30T14:04:50.001Z</time></trkpt><trkpt lat="31.11781581447212" lon="-4.017559131202785"><ele>705.0</ele><time>2026-04-30T14:04:51.001Z</time></trkpt><trkpt lat="31.117962344640993" lon="-4.017546429037663"><ele>705.0</ele><time>2026-04-30T14:04:52.001Z</time></trkpt><trkpt lat="31.118101782063416" lon="-4.017522766377009"><ele>705.0</ele><time>2026-04-30T14:04:53.001Z</time></trkpt><trkpt lat="31.118244036827303" lon="-4.017498698579456"><ele>705.0</ele><time>2026-04-30T14:04:54.001Z</time></trkpt><trkpt lat="31.118389637433147" lon="-4.017474035554538"><ele>705.0</ele><time>2026-04-30T14:04:55.001Z</time></trkpt><trkpt lat="31.1185362505941" lon="-4.017449201014524"><ele>705.6666666666666</ele><time>2026-04-30T14:04:56.001Z</time></trkpt><trkpt lat="31.118684869444284" lon="-4.017428539097419"><ele>706.3333333333333</ele><time>2026-04-30T14:04:57.001Z</time></trkpt><trkpt lat="31.1188353021389" lon="-4.0174082527012756"><ele>707.0</ele><time>2026-04-30T14:04:58.001Z</time></trkpt><trkpt lat="31.118986296685474" lon="-4.017387540564024"><ele>705.6666666666666</ele><time>2026-04-30T14:04:59.001Z</time></trkpt><trkpt lat="31.119141081797228" lon="-4.017366723782928"><ele>704.3333333333334</ele><time>2026-04-30T14:05:00.001Z</time></trkpt><trkpt lat="31.119299227110517" lon="-4.017345455094364"><ele>703.0</ele><time>2026-04-30T14:05:01.001Z</time></trkpt><trkpt lat="31.11945662927243" lon="-4.017324819337313"><ele>703.0</ele><time>2026-04-30T14:05:02.001Z</time></trkpt><trkpt lat="31.11961729046775" lon="-4.017303136745442"><ele>703.0</ele><time>2026-04-30T14:05:03.001Z</time></trkpt><trkpt lat="31.11977841394222" lon="-4.017281391764787"><ele>703.0</ele><time>2026-04-30T14:05:04.001Z</time></trkpt><trkpt lat="31.11993650788167" lon="-4.0172600556459654"><ele>704.0</ele><time>2026-04-30T14:05:05.001Z</time></trkpt><trkpt lat="31.120099820855216" lon="-4.017238110136282"><ele>705.0</ele><time>2026-04-30T14:05:06.001Z</time></trkpt><trkpt lat="31.12026564717058" lon="-4.017232723424344"><ele>706.0</ele><time>2026-04-30T14:05:07.001Z</time></trkpt><trkpt lat="31.120429915375656" lon="-4.017209834299131"><ele>706.0</ele><time>2026-04-30T14:05:08.001Z</time></trkpt><trkpt lat="31.120598099273575" lon="-4.0171871970651924"><ele>706.0</ele><time>2026-04-30T14:05:09.001Z</time></trkpt><trkpt lat="31.120769355793325" lon="-4.017162206808778"><ele>706.0</ele><time>2026-04-30T14:05:10.001Z</time></trkpt><trkpt lat="31.120941699723936" lon="-4.017134500455927"><ele>706.3333333333334</ele><time>2026-04-30T14:05:11.001Z</time></trkpt><trkpt lat="31.121114018388717" lon="-4.017107628117507"><ele>706.6666666666666</ele><time>2026-04-30T14:05:12.001Z</time></trkpt><trkpt lat="31.12129048704431" lon="-4.017085210933673"><ele>707.0</ele><time>2026-04-30T14:05:13.001Z</time></trkpt><trkpt lat="31.121468367088752" lon="-4.017067653524634"><ele>706.0</ele><time>2026-04-30T14:05:14.001Z</time></trkpt><trkpt lat="31.121638134967643" lon="-4.01703210374488"><ele>705.0</ele><time>2026-04-30T14:05:15.001Z</time></trkpt><trkpt lat="31.12181686960843" lon="-4.017048972919723"><ele>704.0</ele><time>2026-04-30T14:05:16.001Z</time></trkpt><trkpt lat="31.121990763547515" lon="-4.017058679065766"><ele>704.0</ele><time>2026-04-30T14:05:17.001Z</time></trkpt><trkpt lat="31.122166122291674" lon="-4.017076205602734"><ele>704.0</ele><time>2026-04-30T14:05:18.001Z</time></trkpt><trkpt lat="31.122340991044748" lon="-4.017098022619275"><ele>704.0</ele><time>2026-04-30T14:05:19.001Z</time></trkpt><trkpt lat="31.12251424810751" lon="-4.01712813534833"><ele>704.6666666666666</ele><time>2026-04-30T14:05:20.001Z</time></trkpt><trkpt lat="31.122687742010545" lon="-4.017163230923555"><ele>705.3333333333334</ele><time>2026-04-30T14:05:21.001Z</time></trkpt><trkpt lat="31.122861681377984" lon="-4.017208580278917"><ele>706.0</ele><time>2026-04-30T14:05:22.001Z</time></trkpt><trkpt lat="31.123044702744185" lon="-4.017224341367015"><ele>706.0</ele><time>2026-04-30T14:05:23.001Z</time></trkpt><trkpt lat="31.12323187607128" lon="-4.017323977142916"><ele>706.0</ele><time>2026-04-30T14:05:24.001Z</time></trkpt><trkpt lat="31.123419758018752" lon="-4.017427694582452"><ele>706.0</ele><time>2026-04-30T14:05:25.001Z</time></trkpt><trkpt lat="31.123617420079814" lon="-4.017504862303959"><ele>705.6666666666667</ele><time>2026-04-30T14:05:26.001Z</time></trkpt><trkpt lat="31.123809517097797" lon="-4.017595251104647"><ele>705.3333333333334</ele><time>2026-04-30T14:05:27.001Z</time></trkpt><trkpt lat="31.12399714523817" lon="-4.017683171938286"><ele>705.0</ele><time>2026-04-30T14:05:28.001Z</time></trkpt><trkpt lat="31.12418315252815" lon="-4.017770289813956"><ele>705.0</ele><time>2026-04-30T14:05:29.001Z</time></trkpt><trkpt lat="31.124369031581928" lon="-4.017857348157727"><ele>705.0</ele><time>2026-04-30T14:05:30.001Z</time></trkpt><trkpt lat="31.124553962535998" lon="-4.017944067150718"><ele>705.0</ele><time>2026-04-30T14:05:31.001Z</time></trkpt><trkpt lat="31.12473304355557" lon="-4.018028774835146"><ele>706.0</ele><time>2026-04-30T14:05:32.001Z</time></trkpt><trkpt lat="31.12490257809733" lon="-4.0181083120143715"><ele>707.0</ele><time>2026-04-30T14:05:33.001Z</time></trkpt><trkpt lat="31.125055325857495" lon="-4.018179827143978"><ele>708.0</ele><time>2026-04-30T14:05:34.001Z</time></trkpt><trkpt lat="31.12518194596094" lon="-4.018238837108646"><ele>708.0</ele><time>2026-04-30T14:05:35.001Z</time></trkpt><trkpt lat="31.12529802320007" lon="-4.018286898053181"><ele>708.0</ele><time>2026-04-30T14:05:36.001Z</time></trkpt><trkpt lat="31.125421767186943" lon="-4.01833351755707"><ele>708.0</ele><time>2026-04-30T14:05:37.001Z</time></trkpt><trkpt lat="31.1255411777793" lon="-4.0183785045710065"><ele>708.0</ele><time>2026-04-30T14:05:38.001Z</time></trkpt><trkpt lat="31.125656316848247" lon="-4.01842188232416"><ele>707.8</ele><time>2026-04-30T14:05:39.001Z</time></trkpt><trkpt lat="31.12576725851861" lon="-4.018463469260264"><ele>707.5999999999999</ele><time>2026-04-30T14:05:40.001Z</time></trkpt><trkpt lat="31.125874712923792" lon="-4.018503660810565"><ele>707.4000000000001</ele><time>2026-04-30T14:05:41.001Z</time></trkpt><trkpt lat="31.12597932787703" lon="-4.018542790289671"><ele>707.2</ele><time>2026-04-30T14:05:42.001Z</time></trkpt><trkpt lat="31.126080587669197" lon="-4.0185806648255005"><ele>707.0</ele><time>2026-04-30T14:05:43.001Z</time></trkpt><trkpt lat="31.126173626242345" lon="-4.018615464351397"><ele>707.0</ele><time>2026-04-30T14:05:44.001Z</time></trkpt><trkpt lat="31.126257697258342" lon="-4.018646523846327"><ele>707.0</ele><time>2026-04-30T14:05:45.001Z</time></trkpt><trkpt lat="31.126334752926816" lon="-4.018675002481412"><ele>707.0</ele><time>2026-04-30T14:05:46.001Z</time></trkpt><trkpt lat="31.12639523752302" lon="-4.018697444275972"><ele>707.0</ele><time>2026-04-30T14:05:47.001Z</time></trkpt><trkpt lat="31.12648705317522" lon="-4.0186554632643645"><ele>707.0</ele><time>2026-04-30T14:05:49.001Z</time></trkpt><trkpt lat="31.12646026798977" lon="-4.01855490658795"><ele>707.0</ele><time>2026-04-30T14:05:50.001Z</time></trkpt><trkpt lat="31.12648642675704" lon="-4.018458631569368"><ele>707.0</ele><time>2026-04-30T14:05:51.001Z</time></trkpt><trkpt lat="31.126512490223245" lon="-4.018362706958418"><ele>707.0</ele><time>2026-04-30T14:05:52.001Z</time></trkpt><trkpt lat="31.126543152170623" lon="-4.018249858252746"><ele>707.0</ele><time>2026-04-30T14:05:53.001Z</time></trkpt><trkpt lat="31.12657577215739" lon="-4.018130317266871"><ele>707.0</ele><time>2026-04-30T14:05:54.001Z</time></trkpt><trkpt lat="31.12660945875756" lon="-4.018008267495665"><ele>707.0</ele><time>2026-04-30T14:05:55.001Z</time></trkpt><trkpt lat="31.126644597347052" lon="-4.017878979698423"><ele>706.75</ele><time>2026-04-30T14:05:56.001Z</time></trkpt><trkpt lat="31.1266827642644" lon="-4.017737914343242"><ele>706.5</ele><time>2026-04-30T14:05:57.001Z</time></trkpt><trkpt lat="31.12671868497557" lon="-4.017604101555666"><ele>706.25</ele><time>2026-04-30T14:05:58.001Z</time></trkpt><trkpt lat="31.126752300893916" lon="-4.0174828477616265"><ele>706.0</ele><time>2026-04-30T14:05:59Z</time></trkpt><trkpt lat="31.126796471500075" lon="-4.017375175550128"><ele>705.3333333333334</ele><time>2026-04-30T14:06:00Z</time></trkpt><trkpt lat="31.126822297417615" lon="-4.0172685678386655"><ele>704.6666666666667</ele><time>2026-04-30T14:06:01Z</time></trkpt><trkpt lat="31.126847829358212" lon="-4.017169844942206"><ele>704.0</ele><time>2026-04-30T14:06:02Z</time></trkpt><trkpt lat="31.126862516561978" lon="-4.017075263434274"><ele>703.3333333333334</ele><time>2026-04-30T14:06:03Z</time></trkpt><trkpt lat="31.126870703646535" lon="-4.016990518108167"><ele>702.6666666666666</ele><time>2026-04-30T14:06:04Z</time></trkpt><trkpt lat="31.12689026259302" lon="-4.016913747363864"><ele>702.0</ele><time>2026-04-30T14:06:05Z</time></trkpt><trkpt lat="31.12692072242764" lon="-4.016844048045656"><ele>702.0</ele><time>2026-04-30T14:06:06Z</time></trkpt><trkpt lat="31.126938958981423" lon="-4.016769201916758"><ele>702.0</ele><time>2026-04-30T14:06:07Z</time></trkpt><trkpt lat="31.126956348040455" lon="-4.016694766134481"><ele>702.0</ele><time>2026-04-30T14:06:08Z</time></trkpt><trkpt lat="31.1269851855911" lon="-4.016554155680653"><ele>702.0</ele><time>2026-04-30T14:06:10Z</time></trkpt><trkpt lat="31.12700995512163" lon="-4.016423620312946"><ele>702.0</ele><time>2026-04-30T14:06:12Z</time></trkpt><trkpt lat="31.12702066563875" lon="-4.016305393362129"><ele>701.8333333333334</ele><time>2026-04-30T14:06:14Z</time></trkpt><trkpt lat="31.12705499017757" lon="-4.016217869397193"><ele>701.6666666666666</ele><time>2026-04-30T14:06:17Z</time></trkpt><trkpt lat="31.127067857196874" lon="-4.016143560414316"><ele>701.5</ele><time>2026-04-30T14:06:19Z</time></trkpt><trkpt lat="31.127075371513" lon="-4.016041761892744"><ele>701.3333333333333</ele><time>2026-04-30T14:06:21Z</time></trkpt><trkpt lat="31.127095266256838" lon="-4.015945048797817"><ele>701.1666666666666</ele><time>2026-04-30T14:06:23Z</time></trkpt><trkpt lat="31.12711507741399" lon="-4.015848741992844"><ele>701.0</ele><time>2026-04-30T14:06:25Z</time></trkpt><trkpt lat="31.127135336106033" lon="-4.01576457705331"><ele>701.0</ele><time>2026-04-30T14:06:27Z</time></trkpt><trkpt lat="31.1271645087798" lon="-4.015668711361146"><ele>701.0</ele><time>2026-04-30T14:06:30Z</time></trkpt><trkpt lat="31.127171799235658" lon="-4.015763819086797"><ele>701.0</ele><time>2026-04-30T14:06:37Z</time></trkpt><trkpt lat="31.127139857678213" lon="-4.0158671491353"><ele>701.0</ele><time>2026-04-30T14:06:39Z</time></trkpt><trkpt lat="31.127104394208708" lon="-4.015991765925398"><ele>701.0</ele><time>2026-04-30T14:06:41Z</time></trkpt><trkpt lat="31.127082637614375" lon="-4.01607562084367"><ele>701.0</ele><time>2026-04-30T14:06:42Z</time></trkpt><trkpt lat="31.12706671879524" lon="-4.016151884083593"><ele>701.0</ele><time>2026-04-30T14:06:43Z</time></trkpt><trkpt lat="31.127042866857895" lon="-4.016263902879952"><ele>701.0</ele><time>2026-04-30T14:06:45Z</time></trkpt><trkpt lat="31.127025793664465" lon="-4.0164038082686275"><ele>701.0</ele><time>2026-04-30T14:06:47Z</time></trkpt><trkpt lat="31.127013118800555" lon="-4.016517040799467"><ele>701.0</ele><time>2026-04-30T14:06:48Z</time></trkpt><trkpt lat="31.126992071829072" lon="-4.016636300240978"><ele>701.25</ele><time>2026-04-30T14:06:49Z</time></trkpt><trkpt lat="31.12696046524478" lon="-4.016776536744669"><ele>701.5</ele><time>2026-04-30T14:06:50Z</time></trkpt><trkpt lat="31.126926659345866" lon="-4.016929717625982"><ele>701.75</ele><time>2026-04-30T14:06:51Z</time></trkpt><trkpt lat="31.126900684549263" lon="-4.0170556547553105"><ele>702.0</ele><time>2026-04-30T14:06:52Z</time></trkpt><trkpt lat="31.12687925392827" lon="-4.0171729078078195"><ele>702.0</ele><time>2026-04-30T14:06:53Z</time></trkpt><trkpt lat="31.126853805088917" lon="-4.017279555352341"><ele>702.0</ele><time>2026-04-30T14:06:54Z</time></trkpt><trkpt lat="31.126827993703056" lon="-4.0173919381227705"><ele>702.0</ele><time>2026-04-30T14:06:55Z</time></trkpt><trkpt lat="31.126800360704024" lon="-4.017520556355563"><ele>702.0</ele><time>2026-04-30T14:06:56Z</time></trkpt><trkpt lat="31.126773997544632" lon="-4.017659934598584"><ele>702.0</ele><time>2026-04-30T14:06:57Z</time></trkpt><trkpt lat="31.126727454817527" lon="-4.017820134458605"><ele>702.8</ele><time>2026-04-30T14:06:58Z</time></trkpt><trkpt lat="31.126691228967584" lon="-4.01795804687856"><ele>703.6</ele><time>2026-04-30T14:06:59Z</time></trkpt><trkpt lat="31.126663080756682" lon="-4.018079543675771"><ele>704.4</ele><time>2026-04-30T14:07:00Z</time></trkpt><trkpt lat="31.12664068161778" lon="-4.018187868515325"><ele>705.1999999999999</ele><time>2026-04-30T14:07:01Z</time></trkpt><trkpt lat="31.126619634459765" lon="-4.018279688003261"><ele>706.0</ele><time>2026-04-30T14:07:02Z</time></trkpt><trkpt lat="31.126589502207327" lon="-4.018356504503985"><ele>706.0</ele><time>2026-04-30T14:07:03Z</time></trkpt><trkpt lat="31.12656021823338" lon="-4.018444694756223"><ele>706.0</ele><time>2026-04-30T14:07:04Z</time></trkpt><trkpt lat="31.12653813177181" lon="-4.01852575740353"><ele>706.0</ele><time>2026-04-30T14:07:05Z</time></trkpt><trkpt lat="31.126522729300245" lon="-4.0185979856368075"><ele>706.0</ele><time>2026-04-30T14:07:06Z</time></trkpt><trkpt lat="31.126553005697684" lon="-4.018724081452465"><ele>706.0</ele><time>2026-04-30T14:07:08Z</time></trkpt><trkpt lat="31.126660461561347" lon="-4.018795212279364"><ele>706.0</ele><time>2026-04-30T14:07:10Z</time></trkpt><trkpt lat="31.126758935261055" lon="-4.018757768937779"><ele>706.0</ele><time>2026-04-30T14:07:11Z</time></trkpt><trkpt lat="31.126878497371454" lon="-4.018774709771873"><ele>706.0</ele><time>2026-04-30T14:07:12Z</time></trkpt><trkpt lat="31.1270087847357" lon="-4.018793170274715"><ele>706.0</ele><time>2026-04-30T14:07:13.001Z</time></trkpt><trkpt lat="31.127153116498903" lon="-4.018811216117378"><ele>706.0</ele><time>2026-04-30T14:07:14.001Z</time></trkpt><trkpt lat="31.127314612282508" lon="-4.0188300815408295"><ele>706.0</ele><time>2026-04-30T14:07:15.001Z</time></trkpt><trkpt lat="31.127473554234783" lon="-4.018847964907484"><ele>706.0</ele><time>2026-04-30T14:07:16.001Z</time></trkpt><trkpt lat="31.127643114741307" lon="-4.018873659955959"><ele>705.6666666666667</ele><time>2026-04-30T14:07:17.001Z</time></trkpt><trkpt lat="31.12782110816456" lon="-4.01890498812759"><ele>705.3333333333334</ele><time>2026-04-30T14:07:18.001Z</time></trkpt><trkpt lat="31.128005962613564" lon="-4.018936730230582"><ele>705.0</ele><time>2026-04-30T14:07:19.001Z</time></trkpt><trkpt lat="31.128191608869646" lon="-4.01897355019838"><ele>704.6666666666666</ele><time>2026-04-30T14:07:20.001Z</time></trkpt><trkpt lat="31.128380134207692" lon="-4.019013602014642"><ele>704.3333333333333</ele><time>2026-04-30T14:07:21.001Z</time></trkpt><trkpt lat="31.128571640744102" lon="-4.0190542871433825"><ele>704.0</ele><time>2026-04-30T14:07:22.001Z</time></trkpt><trkpt lat="31.128759920499437" lon="-4.019110675376981"><ele>705.0</ele><time>2026-04-30T14:07:23.001Z</time></trkpt><trkpt lat="31.12893635025299" lon="-4.019196512799678"><ele>706.0</ele><time>2026-04-30T14:07:24.001Z</time></trkpt><trkpt lat="31.129124790283726" lon="-4.019268132635377"><ele>707.0</ele><time>2026-04-30T14:07:25.001Z</time></trkpt><trkpt lat="31.12932143883054" lon="-4.019324390517679"><ele>707.0</ele><time>2026-04-30T14:07:26.001Z</time></trkpt><trkpt lat="31.12951159154964" lon="-4.019397139563086"><ele>707.0</ele><time>2026-04-30T14:07:27.001Z</time></trkpt><trkpt lat="31.129694831741254" lon="-4.0194667475525545"><ele>707.0</ele><time>2026-04-30T14:07:28.001Z</time></trkpt><trkpt lat="31.129874958533108" lon="-4.0195419921831315"><ele>707.0</ele><time>2026-04-30T14:07:29.001Z</time></trkpt><trkpt lat="31.130060808275893" lon="-4.019638684300056"><ele>707.0</ele><time>2026-04-30T14:07:30.001Z</time></trkpt><trkpt lat="31.13025604382598" lon="-4.019727077241258"><ele>707.0</ele><time>2026-04-30T14:07:31.001Z</time></trkpt><trkpt lat="31.130465573106896" lon="-4.019798762110564"><ele>707.0</ele><time>2026-04-30T14:07:32.001Z</time></trkpt><trkpt lat="31.1306677149262" lon="-4.019899097096833"><ele>707.0</ele><time>2026-04-30T14:07:33.001Z</time></trkpt><trkpt lat="31.13087225171828" lon="-4.019975796730327"><ele>707.0</ele><time>2026-04-30T14:07:34.001Z</time></trkpt><trkpt lat="31.131068844483547" lon="-4.020066975804128"><ele>706.3333333333333</ele><time>2026-04-30T14:07:35.001Z</time></trkpt><trkpt lat="31.131265010405084" lon="-4.020154261147982"><ele>705.6666666666666</ele><time>2026-04-30T14:07:36.001Z</time></trkpt><trkpt lat="31.13145635143066" lon="-4.020281348088252"><ele>705.0</ele><time>2026-04-30T14:07:37.001Z</time></trkpt><trkpt lat="31.131647001364943" lon="-4.020420136656356"><ele>705.0</ele><time>2026-04-30T14:07:38.001Z</time></trkpt><trkpt lat="31.13183692085206" lon="-4.020557645799238"><ele>705.0</ele><time>2026-04-30T14:07:39.001Z</time></trkpt><trkpt lat="31.132029051244153" lon="-4.020688417540554"><ele>705.0</ele><time>2026-04-30T14:07:40.001Z</time></trkpt><trkpt lat="31.132220229445355" lon="-4.020815212151832"><ele>705.3333333333334</ele><time>2026-04-30T14:07:41.001Z</time></trkpt><trkpt lat="31.13240325800207" lon="-4.020931680169293"><ele>705.6666666666667</ele><time>2026-04-30T14:07:42.001Z</time></trkpt><trkpt lat="31.132580860685987" lon="-4.021032323445136"><ele>706.0</ele><time>2026-04-30T14:07:43.001Z</time></trkpt><trkpt lat="31.132751659363965" lon="-4.021128514598553"><ele>706.0</ele><time>2026-04-30T14:07:44.001Z</time></trkpt><trkpt lat="31.132919118518387" lon="-4.02122482951584"><ele>706.0</ele><time>2026-04-30T14:07:45.001Z</time></trkpt><trkpt lat="31.13307534411682" lon="-4.021314385485549"><ele>706.0</ele><time>2026-04-30T14:07:46.001Z</time></trkpt><trkpt lat="31.133234037838182" lon="-4.021399098134622"><ele>705.0</ele><time>2026-04-30T14:07:47.001Z</time></trkpt><trkpt lat="31.13339408679375" lon="-4.021481905840819"><ele>704.0</ele><time>2026-04-30T14:07:48.001Z</time></trkpt><trkpt lat="31.133559412847223" lon="-4.0215638162028275"><ele>703.0</ele><time>2026-04-30T14:07:49.001Z</time></trkpt><trkpt lat="31.13372191578149" lon="-4.021639191944659"><ele>704.3333333333334</ele><time>2026-04-30T14:07:50.001Z</time></trkpt><trkpt lat="31.13387582701346" lon="-4.02170678960014"><ele>705.6666666666666</ele><time>2026-04-30T14:07:51.001Z</time></trkpt><trkpt lat="31.134034221207315" lon="-4.02177590190183"><ele>707.0</ele><time>2026-04-30T14:07:52.001Z</time></trkpt><trkpt lat="31.134191093595373" lon="-4.021844323017774"><ele>707.0</ele><time>2026-04-30T14:07:53.001Z</time></trkpt><trkpt lat="31.134351906260644" lon="-4.021914348399472"><ele>707.0</ele><time>2026-04-30T14:07:54.001Z</time></trkpt><trkpt lat="31.134512756275395" lon="-4.021985188991191"><ele>707.0</ele><time>2026-04-30T14:07:55.001Z</time></trkpt><trkpt lat="31.13467455463456" lon="-4.0220557927574"><ele>707.0</ele><time>2026-04-30T14:07:56.001Z</time></trkpt><trkpt lat="31.134839648563215" lon="-4.022128601704897"><ele>707.0</ele><time>2026-04-30T14:07:57.001Z</time></trkpt><trkpt lat="31.135005248473707" lon="-4.022201209143167"><ele>707.0</ele><time>2026-04-30T14:07:58.001Z</time></trkpt><trkpt lat="31.135167144450097" lon="-4.022272188286423"><ele>706.3333333333333</ele><time>2026-04-30T14:07:59.001Z</time></trkpt><trkpt lat="31.135323527483866" lon="-4.022340145034727"><ele>705.6666666666666</ele><time>2026-04-30T14:08:00.001Z</time></trkpt><trkpt lat="31.135475948351093" lon="-4.022407411082926"><ele>705.0</ele><time>2026-04-30T14:08:01.001Z</time></trkpt><trkpt lat="31.135616085868655" lon="-4.022469154325376"><ele>706.25</ele><time>2026-04-30T14:08:02.001Z</time></trkpt><trkpt lat="31.135750107646434" lon="-4.022528184612614"><ele>707.5</ele><time>2026-04-30T14:08:03.001Z</time></trkpt><trkpt lat="31.13587941541429" lon="-4.022585055798373"><ele>708.75</ele><time>2026-04-30T14:08:04.001Z</time></trkpt><trkpt lat="31.136014776028237" lon="-4.022643544971104"><ele>710.0</ele><time>2026-04-30T14:08:05Z</time></trkpt><trkpt lat="31.136157637688857" lon="-4.022707111822166"><ele>710.0</ele><time>2026-04-30T14:08:06Z</time></trkpt><trkpt lat="31.13630145917895" lon="-4.02277090070757"><ele>710.0</ele><time>2026-04-30T14:08:07Z</time></trkpt><trkpt lat="31.136448422649618" lon="-4.02283566427264"><ele>710.0</ele><time>2026-04-30T14:08:08Z</time></trkpt><trkpt lat="31.13659567920197" lon="-4.0229005569784055"><ele>709.6666666666666</ele><time>2026-04-30T14:08:09Z</time></trkpt><trkpt lat="31.136745048422206" lon="-4.0229755794712085"><ele>709.3333333333334</ele><time>2026-04-30T14:08:10Z</time></trkpt><trkpt lat="31.13688819365504" lon="-4.023049252348203"><ele>709.0</ele><time>2026-04-30T14:08:11Z</time></trkpt><trkpt lat="31.13703092028507" lon="-4.0231226811332395"><ele>709.0</ele><time>2026-04-30T14:08:12Z</time></trkpt><trkpt lat="31.137172535900717" lon="-4.023195714002053"><ele>709.0</ele><time>2026-04-30T14:08:13Z</time></trkpt><trkpt lat="31.137312790982257" lon="-4.023267969097987"><ele>709.0</ele><time>2026-04-30T14:08:14Z</time></trkpt><trkpt lat="31.137451970419836" lon="-4.023339292082939"><ele>710.0</ele><time>2026-04-30T14:08:15Z</time></trkpt><trkpt lat="31.137589051135226" lon="-4.0234099395750205"><ele>711.0</ele><time>2026-04-30T14:08:16Z</time></trkpt><trkpt lat="31.137725616437688" lon="-4.0234796595680935"><ele>712.0</ele><time>2026-04-30T14:08:17Z</time></trkpt><trkpt lat="31.13785895928703" lon="-4.023539536281796"><ele>713.0</ele><time>2026-04-30T14:08:18Z</time></trkpt><trkpt lat="31.13798634345749" lon="-4.02359286197844"><ele>713.0</ele><time>2026-04-30T14:08:19Z</time></trkpt><trkpt lat="31.13810603886477" lon="-4.023642968993306"><ele>713.0</ele><time>2026-04-30T14:08:20Z</time></trkpt><trkpt lat="31.13821149622608" lon="-4.023687115665953"><ele>713.0</ele><time>2026-04-30T14:08:21Z</time></trkpt><trkpt lat="31.13830826238143" lon="-4.0237276240158515"><ele>713.0</ele><time>2026-04-30T14:08:22Z</time></trkpt><trkpt lat="31.138400146371005" lon="-4.023766088621332"><ele>713.0</ele><time>2026-04-30T14:08:23Z</time></trkpt><trkpt lat="31.138487688490017" lon="-4.023803135800905"><ele>713.0</ele><time>2026-04-30T14:08:24Z</time></trkpt><trkpt lat="31.13857335379337" lon="-4.02383922428291"><ele>713.0</ele><time>2026-04-30T14:08:25Z</time></trkpt><trkpt lat="31.138655500219627" lon="-4.023868038332673"><ele>713.0</ele><time>2026-04-30T14:08:26Z</time></trkpt><trkpt lat="31.13873592551772" lon="-4.02389571992379"><ele>713.0</ele><time>2026-04-30T14:08:27Z</time></trkpt><trkpt lat="31.138816371777878" lon="-4.02392316227985"><ele>713.0</ele><time>2026-04-30T14:08:28Z</time></trkpt><trkpt lat="31.13888992215326" lon="-4.023948370274812"><ele>713.0</ele><time>2026-04-30T14:08:29Z</time></trkpt><trkpt lat="31.1389683896812" lon="-4.023975221953581"><ele>713.0</ele><time>2026-04-30T14:08:30Z</time></trkpt><trkpt lat="31.139050012021656" lon="-4.024003153214531"><ele>713.0</ele><time>2026-04-30T14:08:31Z</time></trkpt><trkpt lat="31.139136083188717" lon="-4.024032028717034"><ele>713.0</ele><time>2026-04-30T14:08:32Z</time></trkpt><trkpt lat="31.139228124798645" lon="-4.0240628734670505"><ele>713.0</ele><time>2026-04-30T14:08:33Z</time></trkpt><trkpt lat="31.139321725646543" lon="-4.0240942407455655"><ele>713.0</ele><time>2026-04-30T14:08:34Z</time></trkpt><trkpt lat="31.13940523316624" lon="-4.024122225581116"><ele>712.2</ele><time>2026-04-30T14:08:35Z</time></trkpt><trkpt lat="31.13948073278699" lon="-4.024182281280067"><ele>711.4</ele><time>2026-04-30T14:08:36Z</time></trkpt><trkpt lat="31.13956835390496" lon="-4.024206666618937"><ele>710.6</ele><time>2026-04-30T14:08:37Z</time></trkpt><trkpt lat="31.13966152042443" lon="-4.024232595272782"><ele>709.8000000000001</ele><time>2026-04-30T14:08:38Z</time></trkpt><trkpt lat="31.13975273224073" lon="-4.024276601879301"><ele>709.0</ele><time>2026-04-30T14:08:39Z</time></trkpt><trkpt lat="31.13984110598257" lon="-4.02429611534981"><ele>709.3333333333334</ele><time>2026-04-30T14:08:40Z</time></trkpt><trkpt lat="31.139922755162583" lon="-4.024315929587403"><ele>709.6666666666667</ele><time>2026-04-30T14:08:41Z</time></trkpt><trkpt lat="31.139998226105817" lon="-4.0243372848398025"><ele>710.0</ele><time>2026-04-30T14:08:42Z</time></trkpt><trkpt lat="31.140086915500973" lon="-4.0244263176088815"><ele>710.3333333333334</ele><time>2026-04-30T14:08:44Z</time></trkpt><trkpt lat="31.14009008618018" lon="-4.024501414254494"><ele>710.6666666666666</ele><time>2026-04-30T14:08:45Z</time></trkpt><trkpt lat="31.140052597371483" lon="-4.024585670856446"><ele>711.0</ele><time>2026-04-30T14:08:46Z</time></trkpt><trkpt lat="31.14003343836057" lon="-4.024700505176054"><ele>711.0</ele><time>2026-04-30T14:08:47Z</time></trkpt><trkpt lat="31.14000340106382" lon="-4.024806569559612"><ele>711.0</ele><time>2026-04-30T14:08:48Z</time></trkpt><trkpt lat="31.139990523954204" lon="-4.024900334378859"><ele>711.0</ele><time>2026-04-30T14:08:49Z</time></trkpt><trkpt lat="31.139991613222254" lon="-4.024986271845894"><ele>711.0</ele><time>2026-04-30T14:08:50Z</time></trkpt><trkpt lat="31.139969915929058" lon="-4.025062498391809"><ele>711.0</ele><time>2026-04-30T14:08:51Z</time></trkpt><trkpt lat="31.14005946450777" lon="-4.025135532340173"><ele>711.0</ele><time>2026-04-30T14:08:52Z</time></trkpt><trkpt lat="31.140097986454776" lon="-4.0252232693894365"><ele>711.0</ele><time>2026-04-30T14:08:53Z</time></trkpt><trkpt lat="31.14013566289598" lon="-4.025297246358577"><ele>711.0</ele><time>2026-04-30T14:08:54Z</time></trkpt><trkpt lat="31.140186177142215" lon="-4.025356973939225"><ele>711.0</ele><time>2026-04-30T14:08:55Z</time></trkpt><trkpt lat="31.140228176823225" lon="-4.02544222899598"><ele>711.0</ele><time>2026-04-30T14:08:56Z</time></trkpt><trkpt lat="31.140247618365063" lon="-4.0255547543093915"><ele>711.0</ele><time>2026-04-30T14:08:57Z</time></trkpt><trkpt lat="31.14024187594027" lon="-4.025688633650463"><ele>711.0</ele><time>2026-04-30T14:08:58Z</time></trkpt><trkpt lat="31.140223403683425" lon="-4.02583008169802"><ele>711.1999999999999</ele><time>2026-04-30T14:08:59Z</time></trkpt><trkpt lat="31.14020513429731" lon="-4.02596586018379"><ele>711.4</ele><time>2026-04-30T14:09:00Z</time></trkpt><trkpt lat="31.140194052970745" lon="-4.026088636907341"><ele>711.6</ele><time>2026-04-30T14:09:01Z</time></trkpt><trkpt lat="31.1401860458014" lon="-4.026205745043167"><ele>711.8</ele><time>2026-04-30T14:09:02Z</time></trkpt><trkpt lat="31.140176376090718" lon="-4.026319387595272"><ele>712.0</ele><time>2026-04-30T14:09:03Z</time></trkpt><trkpt lat="31.14016449530739" lon="-4.02643983278365"><ele>712.0</ele><time>2026-04-30T14:09:04Z</time></trkpt><trkpt lat="31.140154606229594" lon="-4.026566158971901"><ele>712.0</ele><time>2026-04-30T14:09:05Z</time></trkpt><trkpt lat="31.14014182990529" lon="-4.026697273452296"><ele>712.0</ele><time>2026-04-30T14:09:06Z</time></trkpt><trkpt lat="31.14012762055363" lon="-4.026832681198733"><ele>712.0</ele><time>2026-04-30T14:09:07Z</time></trkpt><trkpt lat="31.140118420322597" lon="-4.026969287775969"><ele>712.4000000000001</ele><time>2026-04-30T14:09:08Z</time></trkpt><trkpt lat="31.140108755754" lon="-4.027106449170658"><ele>712.8000000000001</ele><time>2026-04-30T14:09:09Z</time></trkpt><trkpt lat="31.14009908532705" lon="-4.027243125309032"><ele>713.2</ele><time>2026-04-30T14:09:10Z</time></trkpt><trkpt lat="31.140091837993364" lon="-4.027367218204533"><ele>713.6</ele><time>2026-04-30T14:09:11Z</time></trkpt><trkpt lat="31.140080517566417" lon="-4.0274844349540295"><ele>714.0</ele><time>2026-04-30T14:09:12Z</time></trkpt><trkpt lat="31.14006916425576" lon="-4.027597740145182"><ele>714.2</ele><time>2026-04-30T14:09:13Z</time></trkpt><trkpt lat="31.140058408745407" lon="-4.027717990842128"><ele>714.4000000000001</ele><time>2026-04-30T14:09:14Z</time></trkpt><trkpt lat="31.140045489551675" lon="-4.027839196897647"><ele>714.6</ele><time>2026-04-30T14:09:15Z</time></trkpt><trkpt lat="31.14003292627512" lon="-4.02796603424137"><ele>714.8</ele><time>2026-04-30T14:09:16Z</time></trkpt><trkpt lat="31.14002158448758" lon="-4.028092634036274"><ele>715.0</ele><time>2026-04-30T14:09:17Z</time></trkpt><trkpt lat="31.14000905991723" lon="-4.028225738170969"><ele>715.0</ele><time>2026-04-30T14:09:18Z</time></trkpt><trkpt lat="31.13999588787029" lon="-4.028364198691922"><ele>715.0</ele><time>2026-04-30T14:09:19Z</time></trkpt><trkpt lat="31.13997918879107" lon="-4.028507140319828"><ele>715.0</ele><time>2026-04-30T14:09:20Z</time></trkpt><trkpt lat="31.1399538991457" lon="-4.028650021898035"><ele>715.0</ele><time>2026-04-30T14:09:21.001Z</time></trkpt><trkpt lat="31.139956015866936" lon="-4.028808864114994"><ele>715.0</ele><time>2026-04-30T14:09:22.001Z</time></trkpt><trkpt lat="31.13996197999781" lon="-4.0289713911231"><ele>715.0</ele><time>2026-04-30T14:09:23.001Z</time></trkpt><trkpt lat="31.13993012332434" lon="-4.0291036487181735"><ele>715.0</ele><time>2026-04-30T14:09:24.001Z</time></trkpt><trkpt lat="31.139920511376165" lon="-4.0292425982032425"><ele>715.0</ele><time>2026-04-30T14:09:25.001Z</time></trkpt><trkpt lat="31.13991234270413" lon="-4.029365656206472"><ele>715.0</ele><time>2026-04-30T14:09:26.001Z</time></trkpt><trkpt lat="31.13990527730891" lon="-4.0294851014483655"><ele>715.0</ele><time>2026-04-30T14:09:27.001Z</time></trkpt><trkpt lat="31.139894389938775" lon="-4.029599284237201"><ele>715.0</ele><time>2026-04-30T14:09:28.001Z</time></trkpt><trkpt lat="31.139880161232913" lon="-4.029727965149506"><ele>715.0</ele><time>2026-04-30T14:09:29.001Z</time></trkpt><trkpt lat="31.1398665478633" lon="-4.029863360098742"><ele>715.0</ele><time>2026-04-30T14:09:30.001Z</time></trkpt><trkpt lat="31.139850806016774" lon="-4.030002501677088"><ele>715.0</ele><time>2026-04-30T14:09:31.001Z</time></trkpt><trkpt lat="31.13984238518909" lon="-4.0301371281597005"><ele>715.0</ele><time>2026-04-30T14:09:32.001Z</time></trkpt><trkpt lat="31.13982689664571" lon="-4.0302728800695045"><ele>715.0</ele><time>2026-04-30T14:09:33.001Z</time></trkpt><trkpt lat="31.139812813372426" lon="-4.030415109236599"><ele>715.0</ele><time>2026-04-30T14:09:34.001Z</time></trkpt><trkpt lat="31.139808850369157" lon="-4.030555090678729"><ele>715.0</ele><time>2026-04-30T14:09:35.001Z</time></trkpt><trkpt lat="31.139803790014415" lon="-4.030698305871863"><ele>715.0</ele><time>2026-04-30T14:09:36.001Z</time></trkpt><trkpt lat="31.13979492695663" lon="-4.030829484425398"><ele>715.0</ele><time>2026-04-30T14:09:37.001Z</time></trkpt><trkpt lat="31.139787776629948" lon="-4.030950898499529"><ele>715.0</ele><time>2026-04-30T14:09:38.001Z</time></trkpt><trkpt lat="31.13977557107908" lon="-4.031066074430641"><ele>715.0</ele><time>2026-04-30T14:09:39.001Z</time></trkpt><trkpt lat="31.139763928923106" lon="-4.031179051425955"><ele>715.0</ele><time>2026-04-30T14:09:40.001Z</time></trkpt><trkpt lat="31.139754594000472" lon="-4.0312954283739835"><ele>715.0</ele><time>2026-04-30T14:09:41.001Z</time></trkpt><trkpt lat="31.139742122167746" lon="-4.031417021398231"><ele>715.0</ele><time>2026-04-30T14:09:42.001Z</time></trkpt><trkpt lat="31.13973333246763" lon="-4.031540331753594"><ele>715.0</ele><time>2026-04-30T14:09:43.001Z</time></trkpt><trkpt lat="31.13972745988254" lon="-4.031658445974055"><ele>715.0</ele><time>2026-04-30T14:09:44.001Z</time></trkpt><trkpt lat="31.139720820697708" lon="-4.031768141634918"><ele>715.0</ele><time>2026-04-30T14:09:45.001Z</time></trkpt><trkpt lat="31.139707725944174" lon="-4.031879601443604"><ele>715.0</ele><time>2026-04-30T14:09:46.001Z</time></trkpt><trkpt lat="31.13969780577528" lon="-4.031983124559804"><ele>715.0</ele><time>2026-04-30T14:09:47.001Z</time></trkpt><trkpt lat="31.139707757994017" lon="-4.032127895132103"><ele>715.0</ele><time>2026-04-30T14:09:48.001Z</time></trkpt><trkpt lat="31.13968504718824" lon="-4.032268100511556"><ele>715.0</ele><time>2026-04-30T14:09:49.001Z</time></trkpt><trkpt lat="31.139679053232072" lon="-4.032408386012892"><ele>714.6</ele><time>2026-04-30T14:09:50.001Z</time></trkpt><trkpt lat="31.139688641512667" lon="-4.032538757897583"><ele>714.2</ele><time>2026-04-30T14:09:51.001Z</time></trkpt><trkpt lat="31.139720002764115" lon="-4.032658288224198"><ele>713.8</ele><time>2026-04-30T14:09:52.001Z</time></trkpt><trkpt lat="31.139767360009678" lon="-4.032775957032836"><ele>713.4</ele><time>2026-04-30T14:09:53.001Z</time></trkpt><trkpt lat="31.13985443514144" lon="-4.032868905355638"><ele>713.0</ele><time>2026-04-30T14:09:54.001Z</time></trkpt><trkpt lat="31.13996756500596" lon="-4.032933511672087"><ele>713.0</ele><time>2026-04-30T14:09:55.001Z</time></trkpt><trkpt lat="31.140116513542363" lon="-4.0328995707688575"><ele>713.0</ele><time>2026-04-30T14:09:56.001Z</time></trkpt><trkpt lat="31.14025831326048" lon="-4.032952651409903"><ele>713.0</ele><time>2026-04-30T14:09:57.001Z</time></trkpt><trkpt lat="31.14043636169534" lon="-4.03292027956624"><ele>713.0</ele><time>2026-04-30T14:09:58.001Z</time></trkpt><trkpt lat="31.140617801697413" lon="-4.032979339468856"><ele>713.0</ele><time>2026-04-30T14:09:59.001Z</time></trkpt><trkpt lat="31.140783029078428" lon="-4.033113879904747"><ele>713.0</ele><time>2026-04-30T14:10:00.001Z</time></trkpt><trkpt lat="31.140965177159817" lon="-4.033225338705667"><ele>714.3333333333333</ele><time>2026-04-30T14:10:01.001Z</time></trkpt><trkpt lat="31.141152944151422" lon="-4.033347436954145"><ele>715.6666666666666</ele><time>2026-04-30T14:10:02.001Z</time></trkpt><trkpt lat="31.141338675711253" lon="-4.033474394422565"><ele>717.0</ele><time>2026-04-30T14:10:03.001Z</time></trkpt><trkpt lat="31.141547068534784" lon="-4.033590095002614"><ele>717.0</ele><time>2026-04-30T14:10:04.001Z</time></trkpt><trkpt lat="31.141750154482118" lon="-4.033722412351682"><ele>717.0</ele><time>2026-04-30T14:10:05.001Z</time></trkpt><trkpt lat="31.141956334741355" lon="-4.033859401420376"><ele>717.0</ele><time>2026-04-30T14:10:06.001Z</time></trkpt><trkpt lat="31.14215011981883" lon="-4.034007757527855"><ele>717.0</ele><time>2026-04-30T14:10:07.001Z</time></trkpt><trkpt lat="31.142357360969463" lon="-4.034123329976927"><ele>718.5</ele><time>2026-04-30T14:10:08.001Z</time></trkpt><trkpt lat="31.1425539667957" lon="-4.034253218542169"><ele>720.0</ele><time>2026-04-30T14:10:09.001Z</time></trkpt><trkpt lat="31.14274295522979" lon="-4.034399498537005"><ele>720.0</ele><time>2026-04-30T14:10:10.001Z</time></trkpt><trkpt lat="31.14294033211973" lon="-4.034527885381072"><ele>720.0</ele><time>2026-04-30T14:10:11Z</time></trkpt><trkpt lat="31.143138743522677" lon="-4.034654438411075"><ele>721.5</ele><time>2026-04-30T14:10:12Z</time></trkpt><trkpt lat="31.143336561054184" lon="-4.034780898596134"><ele>723.0</ele><time>2026-04-30T14:10:13Z</time></trkpt><trkpt lat="31.143534991445616" lon="-4.034911551422686"><ele>723.0</ele><time>2026-04-30T14:10:14Z</time></trkpt><trkpt lat="31.143734316176392" lon="-4.035046611057254"><ele>723.0</ele><time>2026-04-30T14:10:15Z</time></trkpt><trkpt lat="31.143933575519622" lon="-4.035180696910455"><ele>723.0</ele><time>2026-04-30T14:10:16Z</time></trkpt><trkpt lat="31.144131789322365" lon="-4.035313061115153"><ele>723.0</ele><time>2026-04-30T14:10:17Z</time></trkpt><trkpt lat="31.14433702637208" lon="-4.035428791823898"><ele>723.0</ele><time>2026-04-30T14:10:18Z</time></trkpt><trkpt lat="31.14453702559854" lon="-4.035560173215585"><ele>723.0</ele><time>2026-04-30T14:10:19Z</time></trkpt><trkpt lat="31.14474046152132" lon="-4.035692829212071"><ele>721.0</ele><time>2026-04-30T14:10:20Z</time></trkpt><trkpt lat="31.14494627185736" lon="-4.035827033512366"><ele>719.0</ele><time>2026-04-30T14:10:21Z</time></trkpt><trkpt lat="31.14515123930067" lon="-4.035960688182753"><ele>719.0</ele><time>2026-04-30T14:10:22Z</time></trkpt><trkpt lat="31.145355739790123" lon="-4.036098068828762"><ele>719.0</ele><time>2026-04-30T14:10:23Z</time></trkpt><trkpt lat="31.145559465630335" lon="-4.0362357821494514"><ele>719.0</ele><time>2026-04-30T14:10:24Z</time></trkpt><trkpt lat="31.14576158701075" lon="-4.036372410897258"><ele>719.0</ele><time>2026-04-30T14:10:25Z</time></trkpt><trkpt lat="31.14595423988257" lon="-4.0365178767709695"><ele>718.5</ele><time>2026-04-30T14:10:26Z</time></trkpt><trkpt lat="31.146156855451146" lon="-4.036640155012621"><ele>718.0</ele><time>2026-04-30T14:10:27Z</time></trkpt><trkpt lat="31.146365818220797" lon="-4.036736956309459"><ele>717.6666666666667</ele><time>2026-04-30T14:10:28Z</time></trkpt><trkpt lat="31.146571533095937" lon="-4.036841050936326"><ele>717.3333333333334</ele><time>2026-04-30T14:10:29Z</time></trkpt><trkpt lat="31.146777604659103" lon="-4.036946627516707"><ele>717.0</ele><time>2026-04-30T14:10:30Z</time></trkpt><trkpt lat="31.14698303456262" lon="-4.037041103051554"><ele>717.0</ele><time>2026-04-30T14:10:31Z</time></trkpt><trkpt lat="31.147191262058342" lon="-4.037135490309747"><ele>717.0</ele><time>2026-04-30T14:10:32Z</time></trkpt><trkpt lat="31.14739764073244" lon="-4.037229004456933"><ele>717.0</ele><time>2026-04-30T14:10:33Z</time></trkpt><trkpt lat="31.14759725655593" lon="-4.037324023522401"><ele>718.3333333333334</ele><time>2026-04-30T14:10:34Z</time></trkpt><trkpt lat="31.147811365472197" lon="-4.037339906207776"><ele>719.6666666666667</ele><time>2026-04-30T14:10:35Z</time></trkpt><trkpt lat="31.14802026506844" lon="-4.0373730429243055"><ele>721.0</ele><time>2026-04-30T14:10:36Z</time></trkpt><trkpt lat="31.148223217171807" lon="-4.037399648859561"><ele>721.0</ele><time>2026-04-30T14:10:37Z</time></trkpt><trkpt lat="31.148428059030746" lon="-4.037422426520443"><ele>721.0</ele><time>2026-04-30T14:10:38Z</time></trkpt><trkpt lat="31.148634503427697" lon="-4.03744538237889"><ele>721.0</ele><time>2026-04-30T14:10:39Z</time></trkpt><trkpt lat="31.14884143534035" lon="-4.037468176514234"><ele>720.6666666666667</ele><time>2026-04-30T14:10:40Z</time></trkpt><trkpt lat="31.149053954390723" lon="-4.037505026958023"><ele>720.3333333333334</ele><time>2026-04-30T14:10:41Z</time></trkpt><trkpt lat="31.14926209654144" lon="-4.03756478794024"><ele>720.0</ele><time>2026-04-30T14:10:42Z</time></trkpt><trkpt lat="31.149479515916724" lon="-4.0376149989293575"><ele>720.0</ele><time>2026-04-30T14:10:43Z</time></trkpt><trkpt lat="31.149698388621143" lon="-4.037676592817833"><ele>720.0</ele><time>2026-04-30T14:10:44Z</time></trkpt><trkpt lat="31.149917341667688" lon="-4.037709619908781"><ele>720.0</ele><time>2026-04-30T14:10:45Z</time></trkpt><trkpt lat="31.150127240274326" lon="-4.037773929515161"><ele>720.3333333333334</ele><time>2026-04-30T14:10:46Z</time></trkpt><trkpt lat="31.150330937616374" lon="-4.037849279083835"><ele>720.6666666666667</ele><time>2026-04-30T14:10:47Z</time></trkpt><trkpt lat="31.15053718910402" lon="-4.037907062789774"><ele>721.0</ele><time>2026-04-30T14:10:48Z</time></trkpt><trkpt lat="31.15074644154544" lon="-4.037970123703134"><ele>721.6666666666667</ele><time>2026-04-30T14:10:49Z</time></trkpt><trkpt lat="31.150953296386508" lon="-4.038035978608104"><ele>722.3333333333334</ele><time>2026-04-30T14:10:50Z</time></trkpt><trkpt lat="31.1511619651053" lon="-4.038102489693017"><ele>723.0</ele><time>2026-04-30T14:10:51Z</time></trkpt><trkpt lat="31.151372108650204" lon="-4.038167599677457"><ele>723.0</ele><time>2026-04-30T14:10:52Z</time></trkpt><trkpt lat="31.151583513330802" lon="-4.038236605121694"><ele>723.0</ele><time>2026-04-30T14:10:53Z</time></trkpt><trkpt lat="31.151793230636006" lon="-4.038313575444928"><ele>723.0</ele><time>2026-04-30T14:10:54Z</time></trkpt><trkpt lat="31.152007511008996" lon="-4.038367169884196"><ele>722.3333333333334</ele><time>2026-04-30T14:10:55Z</time></trkpt><trkpt lat="31.152214738412496" lon="-4.038445963576561"><ele>721.6666666666667</ele><time>2026-04-30T14:10:56Z</time></trkpt><trkpt lat="31.152424745534294" lon="-4.038525923160735"><ele>721.0</ele><time>2026-04-30T14:10:57Z</time></trkpt><trkpt lat="31.15263578007134" lon="-4.038605804507276"><ele>721.3333333333334</ele><time>2026-04-30T14:10:58Z</time></trkpt><trkpt lat="31.15284812825728" lon="-4.038686488268865"><ele>721.6666666666666</ele><time>2026-04-30T14:10:59Z</time></trkpt><trkpt lat="31.153055980576593" lon="-4.038775489286659"><ele>722.0</ele><time>2026-04-30T14:11:00Z</time></trkpt><trkpt lat="31.15326695711465" lon="-4.038865828067923"><ele>722.0</ele><time>2026-04-30T14:11:01Z</time></trkpt><trkpt lat="31.153478551204508" lon="-4.038956061187772"><ele>722.0</ele><time>2026-04-30T14:11:02Z</time></trkpt><trkpt lat="31.153690300350224" lon="-4.039046596332827"><ele>722.0</ele><time>2026-04-30T14:11:03Z</time></trkpt><trkpt lat="31.153899394640344" lon="-4.0391644348955795"><ele>722.0</ele><time>2026-04-30T14:11:04Z</time></trkpt><trkpt lat="31.1541062930881" lon="-4.039282252068242"><ele>722.0</ele><time>2026-04-30T14:11:05Z</time></trkpt><trkpt lat="31.154315006322953" lon="-4.039401102633603"><ele>722.0</ele><time>2026-04-30T14:11:06Z</time></trkpt><trkpt lat="31.154522892797726" lon="-4.039519482448448"><ele>722.0</ele><time>2026-04-30T14:11:07Z</time></trkpt><trkpt lat="31.15473115593323" lon="-4.0396380767106495"><ele>722.0</ele><time>2026-04-30T14:11:08Z</time></trkpt><trkpt lat="31.154941896678583" lon="-4.039758081879771"><ele>722.0</ele><time>2026-04-30T14:11:09Z</time></trkpt><trkpt lat="31.155143401863867" lon="-4.039898731568811"><ele>722.0</ele><time>2026-04-30T14:11:10Z</time></trkpt><trkpt lat="31.155352967529314" lon="-4.040021898431032"><ele>722.0</ele><time>2026-04-30T14:11:11Z</time></trkpt><trkpt lat="31.15556190178038" lon="-4.040148386019843"><ele>722.0</ele><time>2026-04-30T14:11:12Z</time></trkpt><trkpt lat="31.155772666248765" lon="-4.04028347119308"><ele>721.5</ele><time>2026-04-30T14:11:13Z</time></trkpt><trkpt lat="31.155981178786465" lon="-4.040427483451039"><ele>721.0</ele><time>2026-04-30T14:11:14Z</time></trkpt><trkpt lat="31.15619010345568" lon="-4.0405760796270185"><ele>721.0</ele><time>2026-04-30T14:11:15Z</time></trkpt><trkpt lat="31.156398036165314" lon="-4.040724571078744"><ele>721.0</ele><time>2026-04-30T14:11:16Z</time></trkpt><trkpt lat="31.156606949086186" lon="-4.040869686816375"><ele>722.0</ele><time>2026-04-30T14:11:17Z</time></trkpt><trkpt lat="31.15681871007944" lon="-4.0410174099197835"><ele>723.0</ele><time>2026-04-30T14:11:18Z</time></trkpt><trkpt lat="31.157025825531143" lon="-4.041163845427593"><ele>723.0</ele><time>2026-04-30T14:11:19Z</time></trkpt><trkpt lat="31.157234241774006" lon="-4.041308543817893"><ele>723.0</ele><time>2026-04-30T14:11:20Z</time></trkpt><trkpt lat="31.15744204135827" lon="-4.041452781689258"><ele>723.5</ele><time>2026-04-30T14:11:21Z</time></trkpt><trkpt lat="31.157650003198547" lon="-4.041590443411312"><ele>724.0</ele><time>2026-04-30T14:11:22Z</time></trkpt><trkpt lat="31.15785767850882" lon="-4.041723772041791"><ele>724.0</ele><time>2026-04-30T14:11:23Z</time></trkpt><trkpt lat="31.158067017148316" lon="-4.041852256520868"><ele>724.0</ele><time>2026-04-30T14:11:24Z</time></trkpt><trkpt lat="31.15827943457436" lon="-4.041972186051969"><ele>723.5</ele><time>2026-04-30T14:11:25Z</time></trkpt><trkpt lat="31.158489905940915" lon="-4.042088688368706"><ele>723.0</ele><time>2026-04-30T14:11:26Z</time></trkpt><trkpt lat="31.158697834958403" lon="-4.042212085243765"><ele>723.0</ele><time>2026-04-30T14:11:27Z</time></trkpt><trkpt lat="31.158904858122572" lon="-4.042339656111373"><ele>723.0</ele><time>2026-04-30T14:11:28Z</time></trkpt><trkpt lat="31.15911392226667" lon="-4.042458071649742"><ele>723.5</ele><time>2026-04-30T14:11:29Z</time></trkpt><trkpt lat="31.159329171857788" lon="-4.042570354167671"><ele>724.0</ele><time>2026-04-30T14:11:30Z</time></trkpt><trkpt lat="31.159546815874442" lon="-4.042678031613327"><ele>724.0</ele><time>2026-04-30T14:11:31Z</time></trkpt><trkpt lat="31.15976294928533" lon="-4.042781694292781"><ele>724.0</ele><time>2026-04-30T14:11:32Z</time></trkpt><trkpt lat="31.159980595270305" lon="-4.042881951393111"><ele>724.5</ele><time>2026-04-30T14:11:33Z</time></trkpt><trkpt lat="31.160198887223473" lon="-4.042977964870142"><ele>725.0</ele><time>2026-04-30T14:11:34Z</time></trkpt><trkpt lat="31.160419988319664" lon="-4.043072327128816"><ele>725.0</ele><time>2026-04-30T14:11:35Z</time></trkpt><trkpt lat="31.16064110747014" lon="-4.043163159475357"><ele>725.0</ele><time>2026-04-30T14:11:36Z</time></trkpt><trkpt lat="31.160862910440414" lon="-4.04325211278068"><ele>724.5</ele><time>2026-04-30T14:11:37Z</time></trkpt><trkpt lat="31.16108617694237" lon="-4.043342322506855"><ele>724.0</ele><time>2026-04-30T14:11:38Z</time></trkpt><trkpt lat="31.1613095067423" lon="-4.04343597848416"><ele>724.0</ele><time>2026-04-30T14:11:39Z</time></trkpt><trkpt lat="31.161530299846458" lon="-4.043532626275572"><ele>724.0</ele><time>2026-04-30T14:11:40Z</time></trkpt><trkpt lat="31.161750974447123" lon="-4.04362757709076"><ele>725.0</ele><time>2026-04-30T14:11:41Z</time></trkpt><trkpt lat="31.161975573289276" lon="-4.043720420738653"><ele>726.0</ele><time>2026-04-30T14:11:42Z</time></trkpt><trkpt lat="31.162200388128042" lon="-4.043814328595273"><ele>725.0</ele><time>2026-04-30T14:11:43Z</time></trkpt><trkpt lat="31.162423324082646" lon="-4.043906087867696"><ele>724.0</ele><time>2026-04-30T14:11:44Z</time></trkpt><trkpt lat="31.16264585272967" lon="-4.0439970585815"><ele>724.0</ele><time>2026-04-30T14:11:45Z</time></trkpt><trkpt lat="31.162866035145452" lon="-4.044094495097994"><ele>724.0</ele><time>2026-04-30T14:11:46Z</time></trkpt><trkpt lat="31.16308141498349" lon="-4.044203350174484"><ele>724.5</ele><time>2026-04-30T14:11:47Z</time></trkpt><trkpt lat="31.163290951349026" lon="-4.044316161155511"><ele>725.0</ele><time>2026-04-30T14:11:48Z</time></trkpt><trkpt lat="31.16349709947296" lon="-4.044425319275438"><ele>725.0</ele><time>2026-04-30T14:11:49Z</time></trkpt><trkpt lat="31.16369869411055" lon="-4.044537944398776"><ele>725.0</ele><time>2026-04-30T14:11:50Z</time></trkpt><trkpt lat="31.163888992273737" lon="-4.044665798106593"><ele>725.0</ele><time>2026-04-30T14:11:51.001Z</time></trkpt><trkpt lat="31.164077949622985" lon="-4.04480246980439"><ele>725.0</ele><time>2026-04-30T14:11:52.001Z</time></trkpt><trkpt lat="31.164267208499115" lon="-4.044944350367077"><ele>725.0</ele><time>2026-04-30T14:11:53.001Z</time></trkpt><trkpt lat="31.164458353853796" lon="-4.045089134420764"><ele>725.0</ele><time>2026-04-30T14:11:54.001Z</time></trkpt><trkpt lat="31.16465203319103" lon="-4.045235811073573"><ele>725.0</ele><time>2026-04-30T14:11:55.001Z</time></trkpt><trkpt lat="31.16484411212504" lon="-4.04538146208219"><ele>725.0</ele><time>2026-04-30T14:11:56.001Z</time></trkpt><trkpt lat="31.16503946118276" lon="-4.045527136590672"><ele>725.0</ele><time>2026-04-30T14:11:57.001Z</time></trkpt><trkpt lat="31.16523482786027" lon="-4.045673677323608"><ele>724.5</ele><time>2026-04-30T14:11:58.001Z</time></trkpt><trkpt lat="31.1654280341375" lon="-4.045815769858817"><ele>724.0</ele><time>2026-04-30T14:11:59.001Z</time></trkpt><trkpt lat="31.165624567382057" lon="-4.045955285151752"><ele>723.5</ele><time>2026-04-30T14:12:00.001Z</time></trkpt><trkpt lat="31.16582152419939" lon="-4.046087165768774"><ele>723.0</ele><time>2026-04-30T14:12:01.001Z</time></trkpt><trkpt lat="31.166023358161716" lon="-4.046213430092023"><ele>723.0</ele><time>2026-04-30T14:12:02.001Z</time></trkpt><trkpt lat="31.166232217361664" lon="-4.04632664516715"><ele>723.0</ele><time>2026-04-30T14:12:03.001Z</time></trkpt><trkpt lat="31.16644340611095" lon="-4.046418636537412"><ele>723.0</ele><time>2026-04-30T14:12:04.001Z</time></trkpt><trkpt lat="31.166659350244785" lon="-4.046498488114948"><ele>723.0</ele><time>2026-04-30T14:12:05.001Z</time></trkpt><trkpt lat="31.166874918563188" lon="-4.0465784229643535"><ele>723.3333333333334</ele><time>2026-04-30T14:12:06.001Z</time></trkpt><trkpt lat="31.16708902997892" lon="-4.0466659894621015"><ele>723.6666666666667</ele><time>2026-04-30T14:12:07.001Z</time></trkpt><trkpt lat="31.167294808647824" lon="-4.046762491473251"><ele>724.0</ele><time>2026-04-30T14:12:08.001Z</time></trkpt><trkpt lat="31.16749694067127" lon="-4.046866032247562"><ele>724.0</ele><time>2026-04-30T14:12:09.001Z</time></trkpt><trkpt lat="31.167697402035838" lon="-4.046969416964544"><ele>724.0</ele><time>2026-04-30T14:12:10.001Z</time></trkpt><trkpt lat="31.167897150799067" lon="-4.047075542133691"><ele>724.0</ele><time>2026-04-30T14:12:11.001Z</time></trkpt><trkpt lat="31.168096105475886" lon="-4.04718685629296"><ele>724.0</ele><time>2026-04-30T14:12:12.001Z</time></trkpt><trkpt lat="31.168296444600088" lon="-4.047298409095022"><ele>724.0</ele><time>2026-04-30T14:12:13.001Z</time></trkpt><trkpt lat="31.168494039303145" lon="-4.047406405997305"><ele>724.0</ele><time>2026-04-30T14:12:14.001Z</time></trkpt><trkpt lat="31.168688734257312" lon="-4.047512858737229"><ele>724.0</ele><time>2026-04-30T14:12:15.001Z</time></trkpt><trkpt lat="31.168885231338365" lon="-4.047623582088852"><ele>724.0</ele><time>2026-04-30T14:12:16.001Z</time></trkpt><trkpt lat="31.16908280684572" lon="-4.047734609785859"><ele>724.0</ele><time>2026-04-30T14:12:17Z</time></trkpt><trkpt lat="31.16927961859566" lon="-4.047841531916227"><ele>723.3333333333334</ele><time>2026-04-30T14:12:18Z</time></trkpt><trkpt lat="31.169476387053262" lon="-4.04794663516728"><ele>722.6666666666666</ele><time>2026-04-30T14:12:19Z</time></trkpt><trkpt lat="31.169668662117612" lon="-4.048049927829916"><ele>722.0</ele><time>2026-04-30T14:12:20Z</time></trkpt><trkpt lat="31.169848918682373" lon="-4.048150363938382"><ele>722.6666666666666</ele><time>2026-04-30T14:12:21Z</time></trkpt><trkpt lat="31.170023191820476" lon="-4.048248447285343"><ele>723.3333333333334</ele><time>2026-04-30T14:12:22Z</time></trkpt><trkpt lat="31.170192749032534" lon="-4.048356324919869"><ele>724.0</ele><time>2026-04-30T14:12:23Z</time></trkpt><trkpt lat="31.170352499147466" lon="-4.048490084706851"><ele>724.3333333333334</ele><time>2026-04-30T14:12:24Z</time></trkpt><trkpt lat="31.17051065767022" lon="-4.048639873580009"><ele>724.6666666666666</ele><time>2026-04-30T14:12:25Z</time></trkpt><trkpt lat="31.170669770149885" lon="-4.048796026673381"><ele>725.0</ele><time>2026-04-30T14:12:26Z</time></trkpt><trkpt lat="31.170823859883015" lon="-4.048956108943161"><ele>725.3333333333333</ele><time>2026-04-30T14:12:27Z</time></trkpt><trkpt lat="31.170972913460766" lon="-4.0491212030095385"><ele>725.6666666666666</ele><time>2026-04-30T14:12:28Z</time></trkpt><trkpt lat="31.17111924124357" lon="-4.049283402017842"><ele>726.0</ele><time>2026-04-30T14:12:29Z</time></trkpt><trkpt lat="31.171261236523254" lon="-4.049447240776752"><ele>726.3333333333334</ele><time>2026-04-30T14:12:30Z</time></trkpt><trkpt lat="31.171391436250605" lon="-4.049615811382943"><ele>726.6666666666667</ele><time>2026-04-30T14:12:31Z</time></trkpt><trkpt lat="31.17151528850772" lon="-4.049790003442099"><ele>727.0</ele><time>2026-04-30T14:12:32Z</time></trkpt><trkpt lat="31.17162997526752" lon="-4.049964598209499"><ele>727.0</ele><time>2026-04-30T14:12:33Z</time></trkpt><trkpt lat="31.171737813233165" lon="-4.05013462937304"><ele>727.0</ele><time>2026-04-30T14:12:34Z</time></trkpt><trkpt lat="31.17183765684155" lon="-4.050297510549077"><ele>727.0</ele><time>2026-04-30T14:12:35Z</time></trkpt><trkpt lat="31.17193144697135" lon="-4.050452909950023"><ele>727.0</ele><time>2026-04-30T14:12:36Z</time></trkpt><trkpt lat="31.172025974761425" lon="-4.050600202698883"><ele>727.0</ele><time>2026-04-30T14:12:37Z</time></trkpt><trkpt lat="31.17212695579542" lon="-4.050733714549333"><ele>727.0</ele><time>2026-04-30T14:12:38Z</time></trkpt><trkpt lat="31.172244287049335" lon="-4.050865917177728"><ele>726.0</ele><time>2026-04-30T14:12:39Z</time></trkpt><trkpt lat="31.172390599003514" lon="-4.050980465229565"><ele>725.0</ele><time>2026-04-30T14:12:40Z</time></trkpt><trkpt lat="31.172542711694874" lon="-4.051090146840204"><ele>724.0</ele><time>2026-04-30T14:12:41Z</time></trkpt><trkpt lat="31.172679172692508" lon="-4.051182711634769"><ele>724.0</ele><time>2026-04-30T14:12:42Z</time></trkpt><trkpt lat="31.172825818391328" lon="-4.0512766035071355"><ele>724.0</ele><time>2026-04-30T14:12:43Z</time></trkpt><trkpt lat="31.17296660067302" lon="-4.051366741286082"><ele>724.0</ele><time>2026-04-30T14:12:44Z</time></trkpt><trkpt lat="31.173101341910677" lon="-4.051453011200398"><ele>724.25</ele><time>2026-04-30T14:12:45Z</time></trkpt><trkpt lat="31.173226165911952" lon="-4.051532290998559"><ele>724.5</ele><time>2026-04-30T14:12:46Z</time></trkpt><trkpt lat="31.17334506749248" lon="-4.05160797719155"><ele>724.75</ele><time>2026-04-30T14:12:47Z</time></trkpt><trkpt lat="31.173459669281556" lon="-4.051689445062433"><ele>725.0</ele><time>2026-04-30T14:12:48Z</time></trkpt><trkpt lat="31.17356911578355" lon="-4.051767719509192"><ele>724.6</ele><time>2026-04-30T14:12:49Z</time></trkpt><trkpt lat="31.173665018064668" lon="-4.051835728264151"><ele>724.2</ele><time>2026-04-30T14:12:50Z</time></trkpt><trkpt lat="31.173743012166298" lon="-4.051891037489898"><ele>723.8</ele><time>2026-04-30T14:12:51Z</time></trkpt><trkpt lat="31.173805925661966" lon="-4.051935566435474"><ele>723.4</ele><time>2026-04-30T14:12:52Z</time></trkpt><trkpt lat="31.173885408700674" lon="-4.052018031083444"><ele>723.0</ele><time>2026-04-30T14:12:54Z</time></trkpt><trkpt lat="31.173945334554148" lon="-4.051948946345427"><ele>723.0</ele><time>2026-04-30T14:12:56Z</time></trkpt><trkpt lat="31.17385242834232" lon="-4.051844116257175"><ele>723.0</ele><time>2026-04-30T14:12:57Z</time></trkpt><trkpt lat="31.173873222447284" lon="-4.051767053771732"><ele>723.0</ele><time>2026-04-30T14:12:58Z</time></trkpt><trkpt lat="31.173898663588233" lon="-4.051672769679021"><ele>723.0</ele><time>2026-04-30T14:12:59Z</time></trkpt><trkpt lat="31.17392926894735" lon="-4.051558737004366"><ele>723.0</ele><time>2026-04-30T14:13:00Z</time></trkpt><trkpt lat="31.17396473376912" lon="-4.051436392889141"><ele>723.4</ele><time>2026-04-30T14:13:01Z</time></trkpt><trkpt lat="31.174004740493334" lon="-4.0513120461770695"><ele>723.8</ele><time>2026-04-30T14:13:02Z</time></trkpt><trkpt lat="31.174043993788104" lon="-4.051190042497544"><ele>724.2</ele><time>2026-04-30T14:13:03Z</time></trkpt><trkpt lat="31.174095217668548" lon="-4.051083948474977"><ele>724.6</ele><time>2026-04-30T14:13:04Z</time></trkpt><trkpt lat="31.174140393806105" lon="-4.050987131898632"><ele>725.0</ele><time>2026-04-30T14:13:05Z</time></trkpt><trkpt lat="31.174191717467497" lon="-4.050897615993445"><ele>724.8333333333333</ele><time>2026-04-30T14:13:06Z</time></trkpt><trkpt lat="31.17423416861086" lon="-4.050798886067935"><ele>724.6666666666666</ele><time>2026-04-30T14:13:07Z</time></trkpt><trkpt lat="31.17426464147529" lon="-4.0507103444659185"><ele>724.5</ele><time>2026-04-30T14:13:08Z</time></trkpt><trkpt lat="31.174318196072516" lon="-4.050619535423501"><ele>724.3333333333334</ele><time>2026-04-30T14:13:09Z</time></trkpt><trkpt lat="31.174364000328097" lon="-4.050532401463743"><ele>724.1666666666667</ele><time>2026-04-30T14:13:10Z</time></trkpt><trkpt lat="31.17441430157496" lon="-4.050445216080217"><ele>724.0</ele><time>2026-04-30T14:13:11Z</time></trkpt><trkpt lat="31.174444690989713" lon="-4.050348476793458"><ele>724.0</ele><time>2026-04-30T14:13:12Z</time></trkpt><trkpt lat="31.174494716503663" lon="-4.050249546438201"><ele>724.0</ele><time>2026-04-30T14:13:13Z</time></trkpt><trkpt lat="31.17455098137343" lon="-4.050140051629475"><ele>724.0</ele><time>2026-04-30T14:13:14Z</time></trkpt><trkpt lat="31.17460968893533" lon="-4.050026130850998"><ele>724.0</ele><time>2026-04-30T14:13:15Z</time></trkpt><trkpt lat="31.17466810796923" lon="-4.049912559636302"><ele>724.0</ele><time>2026-04-30T14:13:16Z</time></trkpt><trkpt lat="31.174725918494374" lon="-4.049800171195729"><ele>724.8000000000001</ele><time>2026-04-30T14:13:17Z</time></trkpt><trkpt lat="31.174782387557066" lon="-4.0496903906582915"><ele>725.6</ele><time>2026-04-30T14:13:18Z</time></trkpt><trkpt lat="31.174834044635837" lon="-4.049578873485071"><ele>726.4</ele><time>2026-04-30T14:13:19Z</time></trkpt><trkpt lat="31.17488248651011" lon="-4.04946289297632"><ele>727.2</ele><time>2026-04-30T14:13:20Z</time></trkpt><trkpt lat="31.174930868601233" lon="-4.049347008737106"><ele>728.0</ele><time>2026-04-30T14:13:21Z</time></trkpt><trkpt lat="31.174975286273483" lon="-4.0492395009562925"><ele>728.0</ele><time>2026-04-30T14:13:22Z</time></trkpt><trkpt lat="31.175011751971606" lon="-4.049139657023231"><ele>728.0</ele><time>2026-04-30T14:13:23Z</time></trkpt><trkpt lat="31.175049937766193" lon="-4.049035422570567"><ele>728.0</ele><time>2026-04-30T14:13:24Z</time></trkpt><trkpt lat="31.175037032680766" lon="-4.048931703303684"><ele>728.0</ele><time>2026-04-30T14:13:25Z</time></trkpt><trkpt lat="31.175027871252748" lon="-4.048823084210915"><ele>728.0</ele><time>2026-04-30T14:13:26Z</time></trkpt><trkpt lat="31.17501828794579" lon="-4.048711348583948"><ele>727.75</ele><time>2026-04-30T14:13:27Z</time></trkpt><trkpt lat="31.17500761450389" lon="-4.04858690267705"><ele>727.5</ele><time>2026-04-30T14:13:28Z</time></trkpt><trkpt lat="31.174995975983006" lon="-4.04845155193747"><ele>727.25</ele><time>2026-04-30T14:13:29Z</time></trkpt><trkpt lat="31.17498689636389" lon="-4.048300776832142"><ele>727.0</ele><time>2026-04-30T14:13:30Z</time></trkpt><trkpt lat="31.174987716074725" lon="-4.048170769447745"><ele>727.0</ele><time>2026-04-30T14:13:31Z</time></trkpt><trkpt lat="31.174988306480458" lon="-4.048055798442064"><ele>727.0</ele><time>2026-04-30T14:13:32Z</time></trkpt><trkpt lat="31.174989184167917" lon="-4.0479325032530715"><ele>727.0</ele><time>2026-04-30T14:13:33Z</time></trkpt><trkpt lat="31.174989817587527" lon="-4.047798908869259"><ele>727.0</ele><time>2026-04-30T14:13:34Z</time></trkpt><trkpt lat="31.17499026444978" lon="-4.047661962271327"><ele>727.0</ele><time>2026-04-30T14:13:35Z</time></trkpt><trkpt lat="31.17499078507438" lon="-4.047521740594613"><ele>726.75</ele><time>2026-04-30T14:13:36Z</time></trkpt><trkpt lat="31.17499130386885" lon="-4.047382011041723"><ele>726.5</ele><time>2026-04-30T14:13:37Z</time></trkpt><trkpt lat="31.175021285541852" lon="-4.047231559174047"><ele>726.25</ele><time>2026-04-30T14:13:38Z</time></trkpt><trkpt lat="31.175045368020086" lon="-4.047092955730654"><ele>726.0</ele><time>2026-04-30T14:13:39Z</time></trkpt><trkpt lat="31.17506944719576" lon="-4.046953598293101"><ele>726.0</ele><time>2026-04-30T14:13:40Z</time></trkpt><trkpt lat="31.175093476494478" lon="-4.046814529708191"><ele>726.0</ele><time>2026-04-30T14:13:41Z</time></trkpt><trkpt lat="31.175117327546385" lon="-4.046676492753528"><ele>726.0</ele><time>2026-04-30T14:13:42Z</time></trkpt><trkpt lat="31.175140950752482" lon="-4.046540947079412"><ele>726.0</ele><time>2026-04-30T14:13:43Z</time></trkpt><trkpt lat="31.175167506004644" lon="-4.046389672969031"><ele>725.5</ele><time>2026-04-30T14:13:44Z</time></trkpt><trkpt lat="31.175205277047585" lon="-4.046239191215607"><ele>725.0</ele><time>2026-04-30T14:13:45Z</time></trkpt><trkpt lat="31.17524163047115" lon="-4.046092194357914"><ele>724.5</ele><time>2026-04-30T14:13:46Z</time></trkpt><trkpt lat="31.175278474978096" lon="-4.045943211732209"><ele>724.0</ele><time>2026-04-30T14:13:47Z</time></trkpt><trkpt lat="31.17531575799301" lon="-4.04579245583959"><ele>723.75</ele><time>2026-04-30T14:13:48Z</time></trkpt><trkpt lat="31.175358802747617" lon="-4.045642863069617"><ele>723.5</ele><time>2026-04-30T14:13:49Z</time></trkpt><trkpt lat="31.17539144686127" lon="-4.045485904284488"><ele>723.25</ele><time>2026-04-30T14:13:50Z</time></trkpt><trkpt lat="31.17543018444894" lon="-4.045328340057286"><ele>723.0</ele><time>2026-04-30T14:13:51Z</time></trkpt><trkpt lat="31.17546719318825" lon="-4.045177808037029"><ele>723.0</ele><time>2026-04-30T14:13:52Z</time></trkpt><trkpt lat="31.175501386022194" lon="-4.045038729522057"><ele>723.0</ele><time>2026-04-30T14:13:53Z</time></trkpt><trkpt lat="31.175547342877753" lon="-4.044907329028344"><ele>723.0</ele><time>2026-04-30T14:13:54Z</time></trkpt><trkpt lat="31.175592726168368" lon="-4.0447739988910465"><ele>723.0</ele><time>2026-04-30T14:13:55Z</time></trkpt><trkpt lat="31.175632540879988" lon="-4.044630366300334"><ele>722.75</ele><time>2026-04-30T14:13:56Z</time></trkpt><trkpt lat="31.175674533944232" lon="-4.0444928609230955"><ele>722.5</ele><time>2026-04-30T14:13:57Z</time></trkpt><trkpt lat="31.175715415252153" lon="-4.044359139421398"><ele>722.25</ele><time>2026-04-30T14:13:58Z</time></trkpt><trkpt lat="31.175754136621443" lon="-4.044234176878797"><ele>722.0</ele><time>2026-04-30T14:13:59Z</time></trkpt><trkpt lat="31.175790752800694" lon="-4.04411466028613"><ele>722.0</ele><time>2026-04-30T14:14:00Z</time></trkpt><trkpt lat="31.17582649599472" lon="-4.043999870472168"><ele>722.0</ele><time>2026-04-30T14:14:01Z</time></trkpt><trkpt lat="31.175861954291715" lon="-4.043883385203715"><ele>722.0</ele><time>2026-04-30T14:14:02Z</time></trkpt><trkpt lat="31.175883278685635" lon="-4.043750462983055"><ele>722.0</ele><time>2026-04-30T14:14:03Z</time></trkpt><trkpt lat="31.175922032969982" lon="-4.043615575147478"><ele>722.0</ele><time>2026-04-30T14:14:04Z</time></trkpt><trkpt lat="31.175946522602608" lon="-4.043468453715725"><ele>722.0</ele><time>2026-04-30T14:14:05Z</time></trkpt><trkpt lat="31.175976327985865" lon="-4.043330853752527"><ele>722.0</ele><time>2026-04-30T14:14:06Z</time></trkpt><trkpt lat="31.176002804418346" lon="-4.043190246326968"><ele>722.0</ele><time>2026-04-30T14:14:07Z</time></trkpt><trkpt lat="31.176030457605393" lon="-4.043043025988529"><ele>722.0</ele><time>2026-04-30T14:14:08Z</time></trkpt><trkpt lat="31.176058266365615" lon="-4.042897948736277"><ele>722.0</ele><time>2026-04-30T14:14:09Z</time></trkpt><trkpt lat="31.176087811293478" lon="-4.0427452565902255"><ele>722.0</ele><time>2026-04-30T14:14:10Z</time></trkpt><trkpt lat="31.17611810711502" lon="-4.042592772186703"><ele>722.0</ele><time>2026-04-30T14:14:11Z</time></trkpt><trkpt lat="31.17614868827119" lon="-4.042440624198897"><ele>722.0</ele><time>2026-04-30T14:14:12Z</time></trkpt><trkpt lat="31.176180590911684" lon="-4.042284391229646"><ele>722.0</ele><time>2026-04-30T14:14:13Z</time></trkpt><trkpt lat="31.176212346996966" lon="-4.042128517600793"><ele>722.0</ele><time>2026-04-30T14:14:14Z</time></trkpt><trkpt lat="31.17622576249585" lon="-4.041968909629375"><ele>722.0</ele><time>2026-04-30T14:14:15Z</time></trkpt><trkpt lat="31.176248177458298" lon="-4.041810907879031"><ele>722.0</ele><time>2026-04-30T14:14:16Z</time></trkpt><trkpt lat="31.176270790084075" lon="-4.041652656369525"><ele>722.5</ele><time>2026-04-30T14:14:17Z</time></trkpt><trkpt lat="31.176292199762816" lon="-4.0415033523411354"><ele>723.0</ele><time>2026-04-30T14:14:18Z</time></trkpt><trkpt lat="31.176323257031424" lon="-4.041351222793113"><ele>723.5</ele><time>2026-04-30T14:14:19Z</time></trkpt><trkpt lat="31.17635655769018" lon="-4.041219336525921"><ele>724.0</ele><time>2026-04-30T14:14:20Z</time></trkpt><trkpt lat="31.176389255888214" lon="-4.041088635832677"><ele>724.0</ele><time>2026-04-30T14:14:21Z</time></trkpt><trkpt lat="31.176422414753652" lon="-4.040955794164664"><ele>724.0</ele><time>2026-04-30T14:14:22Z</time></trkpt><trkpt lat="31.176455902821235" lon="-4.040822260726548"><ele>724.0</ele><time>2026-04-30T14:14:23Z</time></trkpt><trkpt lat="31.176486715607734" lon="-4.04069959019607"><ele>724.0</ele><time>2026-04-30T14:14:24Z</time></trkpt><trkpt lat="31.176514342009828" lon="-4.040589605346143"><ele>724.0</ele><time>2026-04-30T14:14:25Z</time></trkpt><trkpt lat="31.176541887866755" lon="-4.040478459872046"><ele>723.6</ele><time>2026-04-30T14:14:26Z</time></trkpt><trkpt lat="31.176572493072843" lon="-4.040355717035285"><ele>723.2</ele><time>2026-04-30T14:14:27Z</time></trkpt><trkpt lat="31.176603952402598" lon="-4.040235458189244"><ele>722.8000000000001</ele><time>2026-04-30T14:14:28Z</time></trkpt><trkpt lat="31.1766387122474" lon="-4.040103880792844"><ele>722.4000000000001</ele><time>2026-04-30T14:14:29Z</time></trkpt><trkpt lat="31.176673337061914" lon="-4.039993014530914"><ele>722.0</ele><time>2026-04-30T14:14:30Z</time></trkpt><trkpt lat="31.17669094963257" lon="-4.039857139733027"><ele>722.0</ele><time>2026-04-30T14:14:31Z</time></trkpt><trkpt lat="31.176708129313" lon="-4.039724605438443"><ele>722.0</ele><time>2026-04-30T14:14:32Z</time></trkpt><trkpt lat="31.17672517812281" lon="-4.039593080500651"><ele>722.0</ele><time>2026-04-30T14:14:33Z</time></trkpt><trkpt lat="31.17682660880909" lon="-4.039454298439698"><ele>722.0</ele><time>2026-04-30T14:14:34Z</time></trkpt><trkpt lat="31.176909423390452" lon="-4.039339590088497"><ele>722.0</ele><time>2026-04-30T14:14:35Z</time></trkpt><trkpt lat="31.176997846275516" lon="-4.039232654701136"><ele>722.0</ele><time>2026-04-30T14:14:36Z</time></trkpt><trkpt lat="31.17705809395085" lon="-4.039098156580457"><ele>722.0</ele><time>2026-04-30T14:14:37Z</time></trkpt><trkpt lat="31.177125879307674" lon="-4.0389755037704695"><ele>722.0</ele><time>2026-04-30T14:14:38Z</time></trkpt><trkpt lat="31.1771793702325" lon="-4.038878790272328"><ele>721.75</ele><time>2026-04-30T14:14:39Z</time></trkpt><trkpt lat="31.1772411789254" lon="-4.038766967615205"><ele>721.5</ele><time>2026-04-30T14:14:40Z</time></trkpt><trkpt lat="31.177307924118143" lon="-4.038643532236562"><ele>721.25</ele><time>2026-04-30T14:14:41Z</time></trkpt><trkpt lat="31.17737541555059" lon="-4.038517390302602"><ele>721.0</ele><time>2026-04-30T14:14:42Z</time></trkpt><trkpt lat="31.177440744763288" lon="-4.038394070367131"><ele>721.75</ele><time>2026-04-30T14:14:43Z</time></trkpt><trkpt lat="31.177505946909807" lon="-4.038270990198691"><ele>722.5</ele><time>2026-04-30T14:14:44Z</time></trkpt><trkpt lat="31.17755604140072" lon="-4.038141480176944"><ele>723.25</ele><time>2026-04-30T14:14:45Z</time></trkpt><trkpt lat="31.177581273404773" lon="-4.038016739057503"><ele>724.0</ele><time>2026-04-30T14:14:46Z</time></trkpt><trkpt lat="31.17761221756829" lon="-4.0379059661871874"><ele>724.0</ele><time>2026-04-30T14:14:47Z</time></trkpt><trkpt lat="31.17765663919635" lon="-4.037783326935673"><ele>724.0</ele><time>2026-04-30T14:14:48Z</time></trkpt><trkpt lat="31.17768483106037" lon="-4.03765087586157"><ele>724.0</ele><time>2026-04-30T14:14:49Z</time></trkpt><trkpt lat="31.177707763073347" lon="-4.0375066245676665"><ele>724.0</ele><time>2026-04-30T14:14:50Z</time></trkpt><trkpt lat="31.17772903429203" lon="-4.037356476422755"><ele>724.25</ele><time>2026-04-30T14:14:51Z</time></trkpt><trkpt lat="31.177752723414507" lon="-4.037205436551269"><ele>724.5</ele><time>2026-04-30T14:14:52Z</time></trkpt><trkpt lat="31.17777486924433" lon="-4.037059557153976"><ele>724.75</ele><time>2026-04-30T14:14:53Z</time></trkpt><trkpt lat="31.177779706003165" lon="-4.0369086659075375"><ele>725.0</ele><time>2026-04-30T14:14:54Z</time></trkpt><trkpt lat="31.177823456899528" lon="-4.036766626714891"><ele>724.5</ele><time>2026-04-30T14:14:55Z</time></trkpt><trkpt lat="31.177876844700343" lon="-4.036635598835898"><ele>724.0</ele><time>2026-04-30T14:14:56Z</time></trkpt><trkpt lat="31.177921193659223" lon="-4.036511990201089"><ele>723.5</ele><time>2026-04-30T14:14:57Z</time></trkpt><trkpt lat="31.177966238856914" lon="-4.036385613896719"><ele>723.0</ele><time>2026-04-30T14:14:58Z</time></trkpt><trkpt lat="31.178008515349465" lon="-4.036266433280705"><ele>723.0</ele><time>2026-04-30T14:14:59Z</time></trkpt><trkpt lat="31.178052189916805" lon="-4.036123181317976"><ele>723.0</ele><time>2026-04-30T14:15:00Z</time></trkpt><trkpt lat="31.17808142906577" lon="-4.035997301113828"><ele>723.0</ele><time>2026-04-30T14:15:01Z</time></trkpt><trkpt lat="31.178110405578096" lon="-4.035870724353157"><ele>723.0</ele><time>2026-04-30T14:15:02Z</time></trkpt><trkpt lat="31.17813688868297" lon="-4.035755039170734"><ele>723.2</ele><time>2026-04-30T14:15:03Z</time></trkpt><trkpt lat="31.17816362898349" lon="-4.035638643539949"><ele>723.4</ele><time>2026-04-30T14:15:04Z</time></trkpt><trkpt lat="31.17818794850336" lon="-4.035527896579017"><ele>723.6</ele><time>2026-04-30T14:15:05Z</time></trkpt><trkpt lat="31.178212717341356" lon="-4.035415103161959"><ele>723.8000000000001</ele><time>2026-04-30T14:15:06Z</time></trkpt><trkpt lat="31.178236038721106" lon="-4.035308901094503"><ele>724.0</ele><time>2026-04-30T14:15:07Z</time></trkpt><trkpt lat="31.178259241677853" lon="-4.035203238535286"><ele>723.6666666666667</ele><time>2026-04-30T14:15:08Z</time></trkpt><trkpt lat="31.17828034997799" lon="-4.035105717869636"><ele>723.3333333333334</ele><time>2026-04-30T14:15:09Z</time></trkpt><trkpt lat="31.17830266463233" lon="-4.035002582520458"><ele>723.0</ele><time>2026-04-30T14:15:10Z</time></trkpt><trkpt lat="31.17832684931214" lon="-4.034893979078324"><ele>722.6666666666666</ele><time>2026-04-30T14:15:11Z</time></trkpt><trkpt lat="31.178349124055522" lon="-4.034791391464899"><ele>722.3333333333333</ele><time>2026-04-30T14:15:12Z</time></trkpt><trkpt lat="31.17836745696042" lon="-4.034706958051879"><ele>722.0</ele><time>2026-04-30T14:15:13Z</time></trkpt><trkpt lat="31.178387536686465" lon="-4.034614479742931"><ele>721.75</ele><time>2026-04-30T14:15:14Z</time></trkpt><trkpt lat="31.178406339190104" lon="-4.034527883664357"><ele>721.5</ele><time>2026-04-30T14:15:15Z</time></trkpt><trkpt lat="31.17842401841286" lon="-4.034385581390871"><ele>721.25</ele><time>2026-04-30T14:15:17Z</time></trkpt><trkpt lat="31.178458075618106" lon="-4.034305964641411"><ele>721.0</ele><time>2026-04-30T14:15:18Z</time></trkpt><trkpt lat="31.178526437647708" lon="-4.033883060337566"><ele>722.0</ele><time>2026-04-30T14:15:20Z</time></trkpt><trkpt lat="31.178691630306417" lon="-4.0338223379678375"><ele>723.0</ele><time>2026-04-30T14:15:21Z</time></trkpt><trkpt lat="31.178809719908877" lon="-4.033778928654884"><ele>724.0</ele><time>2026-04-30T14:15:22Z</time></trkpt><trkpt lat="31.178908445187687" lon="-4.03373990270811"><ele>725.0</ele><time>2026-04-30T14:15:23Z</time></trkpt><trkpt lat="31.179033436471467" lon="-4.033684598684025"><ele>725.0</ele><time>2026-04-30T14:15:24Z</time></trkpt><trkpt lat="31.179147749796268" lon="-4.033634019265749"><ele>725.0</ele><time>2026-04-30T14:15:25Z</time></trkpt><trkpt lat="31.1792658037415" lon="-4.033582037044803"><ele>725.0</ele><time>2026-04-30T14:15:26Z</time></trkpt><trkpt lat="31.179394749191086" lon="-4.033525768843973"><ele>725.0</ele><time>2026-04-30T14:15:27Z</time></trkpt><trkpt lat="31.17952365535597" lon="-4.033467547293218"><ele>725.0</ele><time>2026-04-30T14:15:28Z</time></trkpt><trkpt lat="31.179665143372688" lon="-4.033405781142342"><ele>725.0</ele><time>2026-04-30T14:15:29Z</time></trkpt><trkpt lat="31.179942523970638" lon="-4.0333587549035945"><ele>725.0</ele><time>2026-04-30T14:15:30Z</time></trkpt><trkpt lat="31.18007953256396" lon="-4.03334664345696"><ele>725.75</ele><time>2026-04-30T14:15:31Z</time></trkpt><trkpt lat="31.180218683326757" lon="-4.03333434264424"><ele>726.5</ele><time>2026-04-30T14:15:32Z</time></trkpt><trkpt lat="31.180405535583702" lon="-4.033337345569154"><ele>727.25</ele><time>2026-04-30T14:15:33Z</time></trkpt><trkpt lat="31.180524193592248" lon="-4.033346316284468"><ele>728.0</ele><time>2026-04-30T14:15:34Z</time></trkpt><trkpt lat="31.180635672631382" lon="-4.033354790795456"><ele>727.4</ele><time>2026-04-30T14:15:35Z</time></trkpt><trkpt lat="31.18075248136528" lon="-4.033363816708559"><ele>726.8</ele><time>2026-04-30T14:15:36Z</time></trkpt><trkpt lat="31.180833344585004" lon="-4.033396232434821"><ele>726.2</ele><time>2026-04-30T14:15:37Z</time></trkpt><trkpt lat="31.18094024620726" lon="-4.033383162068505"><ele>725.6</ele><time>2026-04-30T14:15:38Z</time></trkpt><trkpt lat="31.18103604873207" lon="-4.033371448925684"><ele>725.0</ele><time>2026-04-30T14:15:39Z</time></trkpt><trkpt lat="31.181128638968705" lon="-4.033360128591952"><ele>725.0</ele><time>2026-04-30T14:15:40Z</time></trkpt><trkpt lat="31.181215135812966" lon="-4.033349545106224"><ele>725.0</ele><time>2026-04-30T14:15:41Z</time></trkpt><trkpt lat="31.181303364766844" lon="-4.033338738285541"><ele>725.0</ele><time>2026-04-30T14:15:42Z</time></trkpt><trkpt lat="31.18139980897151" lon="-4.033326925026568"><ele>725.0</ele><time>2026-04-30T14:15:43Z</time></trkpt><trkpt lat="31.181496368739065" lon="-4.033379250427763"><ele>725.0</ele><time>2026-04-30T14:15:44Z</time></trkpt><trkpt lat="31.181594118379362" lon="-4.03339950536705"><ele>725.8333333333333</ele><time>2026-04-30T14:15:45Z</time></trkpt><trkpt lat="31.18169099013031" lon="-4.03340968860824"><ele>726.6666666666666</ele><time>2026-04-30T14:15:46Z</time></trkpt><trkpt lat="31.181774115266478" lon="-4.0334079949131825"><ele>727.5</ele><time>2026-04-30T14:15:47Z</time></trkpt><trkpt lat="31.181851237928868" lon="-4.033406071105808"><ele>728.3333333333334</ele><time>2026-04-30T14:15:48Z</time></trkpt><trkpt lat="31.181938623141587" lon="-4.033410298576103"><ele>729.1666666666667</ele><time>2026-04-30T14:15:49Z</time></trkpt><trkpt lat="31.1820200873432" lon="-4.0333994576550385"><ele>730.0</ele><time>2026-04-30T14:15:50Z</time></trkpt><trkpt lat="31.1820970188866" lon="-4.033396861316914"><ele>730.0</ele><time>2026-04-30T14:15:51Z</time></trkpt><trkpt lat="31.182162816311184" lon="-4.0333879835115045"><ele>730.0</ele><time>2026-04-30T14:15:52Z</time></trkpt><trkpt lat="31.18227281243264" lon="-4.033366959149035"><ele>730.0</ele><time>2026-04-30T14:15:54Z</time></trkpt><trkpt lat="31.182389357160332" lon="-4.033329524724276"><ele>730.0</ele><time>2026-04-30T14:15:56Z</time></trkpt><trkpt lat="31.182453020319297" lon="-4.033306162585636"><ele>730.0</ele><time>2026-04-30T14:15:57Z</time></trkpt><trkpt lat="31.182515748230298" lon="-4.033281968405734"><ele>730.0</ele><time>2026-04-30T14:15:58Z</time></trkpt><trkpt lat="31.182536026925764" lon="-4.032838946389935"><ele>730.0</ele><time>2026-04-30T14:15:59Z</time></trkpt><trkpt lat="31.182594715319084" lon="-4.03280390918001"><ele>730.0</ele><time>2026-04-30T14:16:00Z</time></trkpt><trkpt lat="31.18264869877614" lon="-4.032765948906734"><ele>730.0</ele><time>2026-04-30T14:16:01Z</time></trkpt><trkpt lat="31.182699499556822" lon="-4.032709514552546"><ele>730.0</ele><time>2026-04-30T14:16:02Z</time></trkpt><trkpt lat="31.182736296767786" lon="-4.032644941335912"><ele>730.0</ele><time>2026-04-30T14:16:03Z</time></trkpt><trkpt lat="31.182778110998044" lon="-4.032516091744521"><ele>730.0</ele><time>2026-04-30T14:16:05Z</time></trkpt><trkpt lat="31.182798015860403" lon="-4.0323700054451335"><ele>729.6</ele><time>2026-04-30T14:16:07Z</time></trkpt><trkpt lat="31.182815252954367" lon="-4.032293719377894"><ele>729.2</ele><time>2026-04-30T14:16:08Z</time></trkpt><trkpt lat="31.182845754132163" lon="-4.032151289343093"><ele>728.8</ele><time>2026-04-30T14:16:10Z</time></trkpt><trkpt lat="31.182857801414414" lon="-4.032076835977898"><ele>728.4</ele><time>2026-04-30T14:16:11Z</time></trkpt><trkpt lat="31.18287051277713" lon="-4.031941035623341"><ele>728.0</ele><time>2026-04-30T14:16:13Z</time></trkpt><trkpt lat="31.182869327741887" lon="-4.031826076432831"><ele>728.0</ele><time>2026-04-30T14:16:15Z</time></trkpt><trkpt lat="31.182868005961268" lon="-4.031724134641054"><ele>728.0</ele><time>2026-04-30T14:16:17Z</time></trkpt><trkpt lat="31.182875960822244" lon="-4.0316346294391785"><ele>728.0</ele><time>2026-04-30T14:16:20Z</time></trkpt><trkpt lat="31.182812522177443" lon="-4.031619265171939"><ele>728.0</ele><time>2026-04-30T14:16:22Z</time></trkpt><trkpt lat="31.182891042296703" lon="-4.031661173573838"><ele>728.0</ele><time>2026-04-30T14:17:18Z</time></trkpt><trkpt lat="31.182855250823216" lon="-4.031734888682458"><ele>728.0</ele><time>2026-04-30T14:17:45Z</time></trkpt><trkpt lat="31.18282443030182" lon="-4.0318027118932775"><ele>728.0</ele><time>2026-04-30T14:17:51Z</time></trkpt><trkpt lat="31.18275731130808" lon="-4.031792779619528"><ele>728.0</ele><time>2026-04-30T14:17:59Z</time></trkpt><trkpt lat="31.182683991706224" lon="-4.031777531108055"><ele>728.0</ele><time>2026-04-30T14:20:23Z</time></trkpt><trkpt lat="31.18261361177677" lon="-4.031786342076863"><ele>728.0</ele><time>2026-04-30T14:20:29Z</time></trkpt><trkpt lat="31.182594008086756" lon="-4.031712391038196"><ele>728.0</ele><time>2026-04-30T14:20:37Z</time></trkpt><trkpt lat="31.182581954782997" lon="-4.031788228229722"><ele>728.0</ele><time>2026-04-30T14:20:44Z</time></trkpt><trkpt lat="31.182561960803664" lon="-4.03170940466166"><ele>728.0</ele><time>2026-04-30T14:20:50Z</time></trkpt><trkpt lat="31.18250519843204" lon="-4.031650418982464"><ele>728.0</ele><time>2026-04-30T14:21:29Z</time></trkpt><trkpt lat="31.182598874056534" lon="-4.031699079751305"><ele>728.0</ele><time>2026-04-30T14:25:59Z</time></trkpt><trkpt lat="31.182624146048095" lon="-4.031792138026426"><ele>728.0</ele><time>2026-04-30T14:26:00.999Z</time></trkpt><trkpt lat="31.182691721606123" lon="-4.031818671169203"><ele>728.0</ele><time>2026-04-30T14:26:07.999Z</time></trkpt><trkpt lat="31.182762649222383" lon="-4.031781533387773"><ele>728.0</ele><time>2026-04-30T14:26:26Z</time></trkpt><trkpt lat="31.18283055475173" lon="-4.0317781016514065"><ele>728.0</ele><time>2026-04-30T14:26:33Z</time></trkpt><trkpt lat="31.182853726425577" lon="-4.031708735141236"><ele>728.0</ele><time>2026-04-30T14:26:38Z</time></trkpt><trkpt lat="31.182838055825776" lon="-4.031633077279862"><ele>728.0</ele><time>2026-04-30T14:26:44Z</time></trkpt><trkpt lat="31.182866903096706" lon="-4.031729393512725"><ele>728.0</ele><time>2026-04-30T14:27:08Z</time></trkpt><trkpt lat="31.18285434425617" lon="-4.031807508523824"><ele>728.0</ele><time>2026-04-30T14:27:11Z</time></trkpt><trkpt lat="31.182791099909128" lon="-4.031797337738226"><ele>728.0</ele><time>2026-04-30T14:27:19Z</time></trkpt><trkpt lat="31.182748617180383" lon="-4.031739296971284"><ele>728.0</ele><time>2026-04-30T14:27:27.001Z</time></trkpt><trkpt lat="31.18267674432692" lon="-4.031767408722863"><ele>728.0</ele><time>2026-04-30T14:31:09.001Z</time></trkpt><trkpt lat="31.182612954745924" lon="-4.031774601824605"><ele>728.0</ele><time>2026-04-30T14:31:14.001Z</time></trkpt><trkpt lat="31.182597692493154" lon="-4.031698178396136"><ele>728.0</ele><time>2026-04-30T14:31:23.001Z</time></trkpt><trkpt lat="31.182607672390063" lon="-4.031779783950925"><ele>728.0</ele><time>2026-04-30T14:31:42.001Z</time></trkpt><trkpt lat="31.18259480280384" lon="-4.031853617174599"><ele>728.0</ele><time>2026-04-30T14:31:47.001Z</time></trkpt><trkpt lat="31.182582798472307" lon="-4.031937804557391"><ele>728.0</ele><time>2026-04-30T14:31:53.001Z</time></trkpt><trkpt lat="31.18257449823228" lon="-4.0320142208613845"><ele>728.0</ele><time>2026-04-30T14:31:58.001Z</time></trkpt><trkpt lat="31.182575155636542" lon="-4.03209565172914"><ele>728.0</ele><time>2026-04-30T14:32:04.001Z</time></trkpt><trkpt lat="31.18262897948521" lon="-4.032144265833802"><ele>728.0</ele><time>2026-04-30T14:32:12.001Z</time></trkpt><trkpt lat="31.182714076302577" lon="-4.032228166181189"><ele>728.0</ele><time>2026-04-30T14:32:33Z</time></trkpt></trkseg></trk></gpx>